<?xml version="1.0" encoding="UTF-8" standalone="no" ?>
<gpx xmlns="http://www.topografix.com/GPX/1/1" xmlns:xsi="http://www.w3.org/2001/XMLSchema-instance" xsi:schemaLocation="http://www.topografix.com/GPX/1/1 http://www.topografix.com/GPX/1/1/gpx.xsd" version="1.1" creator="VisuGPX - https://www.visugpx.com">
  <metadata>
    <name>04 - Seyne : 3 circuits</name>
    <desc><![CDATA[Cet itinéraire fait partie de la collection de EquiLiberté : www.equiliberte.org Circuit NON ACCESSIBLE aux attelages
]]></desc>
  </metadata>
  <trk>
    <name><![CDATA[04 - Seyne sud : vers la station de Chabanon]]></name>
    <extensions>
      <line xmlns="http://www.topografix.com/GPX/gpx_style/0/2">
        <color>0000FF</color>
        <width>4</width>
      </line>
    </extensions>
    <trkseg>
      <trkpt lat="44.34612" lon="6.34531">
        <ele>1136.1999511719</ele>
        <time>2016-07-19T06:51:21.000Z</time>
      </trkpt>
      <trkpt lat="44.34612" lon="6.34531">
        <ele>1136.1999511719</ele>
        <time>2016-07-19T06:51:21.000Z</time>
      </trkpt>
      <trkpt lat="44.34606" lon="6.34545">
        <ele>1136.8000488281</ele>
        <time>2016-07-19T06:51:32.000Z</time>
      </trkpt>
      <trkpt lat="44.34604" lon="6.34551">
        <ele>1137</ele>
        <time>2016-07-19T06:51:36.000Z</time>
      </trkpt>
      <trkpt lat="44.34603" lon="6.34558">
        <ele>1137</ele>
        <time>2016-07-19T06:51:41.000Z</time>
      </trkpt>
      <trkpt lat="44.34602" lon="6.34562">
        <ele>1137.1999511719</ele>
        <time>2016-07-19T06:51:43.000Z</time>
      </trkpt>
      <trkpt lat="44.34596" lon="6.34566">
        <ele>1137.1999511719</ele>
        <time>2016-07-19T06:51:49.000Z</time>
      </trkpt>
      <trkpt lat="44.34584" lon="6.34564">
        <ele>1137.4000244141</ele>
        <time>2016-07-19T06:51:59.000Z</time>
      </trkpt>
      <trkpt lat="44.34574" lon="6.34562">
        <ele>1137.4000244141</ele>
        <time>2016-07-19T06:52:08.000Z</time>
      </trkpt>
      <trkpt lat="44.34561" lon="6.34562">
        <ele>1137.5999755859</ele>
        <time>2016-07-19T06:52:19.000Z</time>
      </trkpt>
      <trkpt lat="44.34556" lon="6.34556">
        <ele>1137.5999755859</ele>
        <time>2016-07-19T06:52:26.000Z</time>
      </trkpt>
      <trkpt lat="44.34555" lon="6.34556">
        <ele>1137.5999755859</ele>
        <time>2016-07-19T06:52:27.000Z</time>
      </trkpt>
      <trkpt lat="44.34551" lon="6.34555">
        <ele>1137.5999755859</ele>
        <time>2016-07-19T06:52:36.000Z</time>
      </trkpt>
      <trkpt lat="44.34549" lon="6.34556">
        <ele>1137.5999755859</ele>
        <time>2016-07-19T06:52:42.000Z</time>
      </trkpt>
      <trkpt lat="44.34548" lon="6.34553">
        <ele>1137.5999755859</ele>
        <time>2016-07-19T06:53:05.000Z</time>
      </trkpt>
      <trkpt lat="44.34546" lon="6.34554">
        <ele>1137.5999755859</ele>
        <time>2016-07-19T06:53:16.000Z</time>
      </trkpt>
      <trkpt lat="44.34541" lon="6.34557">
        <ele>1137.8000488281</ele>
        <time>2016-07-19T06:53:47.000Z</time>
      </trkpt>
      <trkpt lat="44.34536" lon="6.34557">
        <ele>1137.8000488281</ele>
        <time>2016-07-19T06:53:53.000Z</time>
      </trkpt>
      <trkpt lat="44.34538" lon="6.34557">
        <ele>1137.8000488281</ele>
        <time>2016-07-19T06:53:59.000Z</time>
      </trkpt>
      <trkpt lat="44.34538" lon="6.34553">
        <ele>1137.8000488281</ele>
        <time>2016-07-19T06:54:20.000Z</time>
      </trkpt>
      <trkpt lat="44.34539" lon="6.34551">
        <ele>1137.8000488281</ele>
        <time>2016-07-19T06:55:44.000Z</time>
      </trkpt>
      <trkpt lat="44.34538" lon="6.34553">
        <ele>1137.8000488281</ele>
        <time>2016-07-19T06:55:46.000Z</time>
      </trkpt>
      <trkpt lat="44.34535" lon="6.34561">
        <ele>1138</ele>
        <time>2016-07-19T06:55:54.000Z</time>
      </trkpt>
      <trkpt lat="44.34531" lon="6.3457">
        <ele>1138</ele>
        <time>2016-07-19T06:56:01.000Z</time>
      </trkpt>
      <trkpt lat="44.34528" lon="6.34582">
        <ele>1138</ele>
        <time>2016-07-19T06:56:08.000Z</time>
      </trkpt>
      <trkpt lat="44.34527" lon="6.34594">
        <ele>1138</ele>
        <time>2016-07-19T06:56:14.000Z</time>
      </trkpt>
      <trkpt lat="44.34527" lon="6.34597">
        <ele>1138</ele>
        <time>2016-07-19T06:56:16.000Z</time>
      </trkpt>
      <trkpt lat="44.34525" lon="6.34599">
        <ele>1138</ele>
        <time>2016-07-19T06:56:21.000Z</time>
      </trkpt>
      <trkpt lat="44.34526" lon="6.34599">
        <ele>1138</ele>
        <time>2016-07-19T06:56:29.000Z</time>
      </trkpt>
      <trkpt lat="44.34526" lon="6.34603">
        <ele>1138</ele>
        <time>2016-07-19T06:56:34.000Z</time>
      </trkpt>
      <trkpt lat="44.34524" lon="6.34608">
        <ele>1138</ele>
        <time>2016-07-19T06:56:40.000Z</time>
      </trkpt>
      <trkpt lat="44.34519" lon="6.34614">
        <ele>1138</ele>
        <time>2016-07-19T06:56:46.000Z</time>
      </trkpt>
      <trkpt lat="44.34513" lon="6.3462">
        <ele>1138</ele>
        <time>2016-07-19T06:56:53.000Z</time>
      </trkpt>
      <trkpt lat="44.34503" lon="6.34622">
        <ele>1138</ele>
        <time>2016-07-19T06:57:01.000Z</time>
      </trkpt>
      <trkpt lat="44.34494" lon="6.34623">
        <ele>1138.1999511719</ele>
        <time>2016-07-19T06:57:08.000Z</time>
      </trkpt>
      <trkpt lat="44.34487" lon="6.34624">
        <ele>1138.1999511719</ele>
        <time>2016-07-19T06:57:14.000Z</time>
      </trkpt>
      <trkpt lat="44.34478" lon="6.34626">
        <ele>1138.4000244141</ele>
        <time>2016-07-19T06:57:21.000Z</time>
      </trkpt>
      <trkpt lat="44.34473" lon="6.34635">
        <ele>1138.5999755859</ele>
        <time>2016-07-19T06:57:27.000Z</time>
      </trkpt>
      <trkpt lat="44.34473" lon="6.34647">
        <ele>1138.5999755859</ele>
        <time>2016-07-19T06:57:34.000Z</time>
      </trkpt>
      <trkpt lat="44.34478" lon="6.3466">
        <ele>1139</ele>
        <time>2016-07-19T06:57:42.000Z</time>
      </trkpt>
      <trkpt lat="44.34482" lon="6.34673">
        <ele>1139.1999511719</ele>
        <time>2016-07-19T06:57:49.000Z</time>
      </trkpt>
      <trkpt lat="44.34488" lon="6.34686">
        <ele>1139.4000244141</ele>
        <time>2016-07-19T06:57:57.000Z</time>
      </trkpt>
      <trkpt lat="44.34495" lon="6.34706">
        <ele>1139.4000244141</ele>
        <time>2016-07-19T06:58:09.000Z</time>
      </trkpt>
      <trkpt lat="44.34503" lon="6.34719">
        <ele>1139.4000244141</ele>
        <time>2016-07-19T06:58:18.000Z</time>
      </trkpt>
      <trkpt lat="44.34507" lon="6.3473">
        <ele>1139.4000244141</ele>
        <time>2016-07-19T06:58:25.000Z</time>
      </trkpt>
      <trkpt lat="44.34507" lon="6.34744">
        <ele>1140</ele>
        <time>2016-07-19T06:58:33.000Z</time>
      </trkpt>
      <trkpt lat="44.34503" lon="6.34751">
        <ele>1140</ele>
        <time>2016-07-19T06:58:39.000Z</time>
      </trkpt>
      <trkpt lat="44.34498" lon="6.34763">
        <ele>1140.4000244141</ele>
        <time>2016-07-19T06:58:47.000Z</time>
      </trkpt>
      <trkpt lat="44.34498" lon="6.34766">
        <ele>1140.4000244141</ele>
        <time>2016-07-19T06:58:49.000Z</time>
      </trkpt>
      <trkpt lat="44.34497" lon="6.34779">
        <ele>1141</ele>
        <time>2016-07-19T06:58:56.000Z</time>
      </trkpt>
      <trkpt lat="44.34497" lon="6.34781">
        <ele>1141</ele>
        <time>2016-07-19T06:58:57.000Z</time>
      </trkpt>
      <trkpt lat="44.34498" lon="6.34788">
        <ele>1141</ele>
        <time>2016-07-19T06:59:01.000Z</time>
      </trkpt>
      <trkpt lat="44.345" lon="6.34793">
        <ele>1141.1999511719</ele>
        <time>2016-07-19T06:59:04.000Z</time>
      </trkpt>
      <trkpt lat="44.345" lon="6.34803">
        <ele>1141.1999511719</ele>
        <time>2016-07-19T06:59:09.000Z</time>
      </trkpt>
      <trkpt lat="44.345" lon="6.34813">
        <ele>1141.1999511719</ele>
        <time>2016-07-19T06:59:15.000Z</time>
      </trkpt>
      <trkpt lat="44.34501" lon="6.34815">
        <ele>1141.1999511719</ele>
        <time>2016-07-19T06:59:16.000Z</time>
      </trkpt>
      <trkpt lat="44.34504" lon="6.34826">
        <ele>1141.5999755859</ele>
        <time>2016-07-19T06:59:23.000Z</time>
      </trkpt>
      <trkpt lat="44.34505" lon="6.34828">
        <ele>1141.5999755859</ele>
        <time>2016-07-19T06:59:24.000Z</time>
      </trkpt>
      <trkpt lat="44.34506" lon="6.34835">
        <ele>1141.8000488281</ele>
        <time>2016-07-19T06:59:28.000Z</time>
      </trkpt>
      <trkpt lat="44.34509" lon="6.34847">
        <ele>1142</ele>
        <time>2016-07-19T06:59:35.000Z</time>
      </trkpt>
      <trkpt lat="44.34511" lon="6.34852">
        <ele>1142.1999511719</ele>
        <time>2016-07-19T06:59:38.000Z</time>
      </trkpt>
      <trkpt lat="44.34515" lon="6.34859">
        <ele>1142.5999755859</ele>
        <time>2016-07-19T06:59:43.000Z</time>
      </trkpt>
      <trkpt lat="44.34517" lon="6.34873">
        <ele>1142.8000488281</ele>
        <time>2016-07-19T06:59:50.000Z</time>
      </trkpt>
      <trkpt lat="44.34516" lon="6.34886">
        <ele>1143</ele>
        <time>2016-07-19T06:59:57.000Z</time>
      </trkpt>
      <trkpt lat="44.34516" lon="6.34905">
        <ele>1143</ele>
        <time>2016-07-19T07:00:08.000Z</time>
      </trkpt>
      <trkpt lat="44.34512" lon="6.34921">
        <ele>1142.1999511719</ele>
        <time>2016-07-19T07:00:17.000Z</time>
      </trkpt>
      <trkpt lat="44.34509" lon="6.34933">
        <ele>1141.8000488281</ele>
        <time>2016-07-19T07:00:23.000Z</time>
      </trkpt>
      <trkpt lat="44.34507" lon="6.34951">
        <ele>1141.4000244141</ele>
        <time>2016-07-19T07:00:32.000Z</time>
      </trkpt>
      <trkpt lat="44.34509" lon="6.34962">
        <ele>1141.1999511719</ele>
        <time>2016-07-19T07:00:38.000Z</time>
      </trkpt>
      <trkpt lat="44.34509" lon="6.34977">
        <ele>1141.1999511719</ele>
        <time>2016-07-19T07:00:46.000Z</time>
      </trkpt>
      <trkpt lat="44.3451" lon="6.34993">
        <ele>1141.4000244141</ele>
        <time>2016-07-19T07:00:55.000Z</time>
      </trkpt>
      <trkpt lat="44.3451" lon="6.35006">
        <ele>1141.5999755859</ele>
        <time>2016-07-19T07:01:02.000Z</time>
      </trkpt>
      <trkpt lat="44.34509" lon="6.35027">
        <ele>1141.8000488281</ele>
        <time>2016-07-19T07:01:13.000Z</time>
      </trkpt>
      <trkpt lat="44.34504" lon="6.35039">
        <ele>1141.8000488281</ele>
        <time>2016-07-19T07:01:21.000Z</time>
      </trkpt>
      <trkpt lat="44.34501" lon="6.35049">
        <ele>1142</ele>
        <time>2016-07-19T07:01:27.000Z</time>
      </trkpt>
      <trkpt lat="44.34501" lon="6.35051">
        <ele>1142</ele>
        <time>2016-07-19T07:01:28.000Z</time>
      </trkpt>
      <trkpt lat="44.34498" lon="6.35057">
        <ele>1142</ele>
        <time>2016-07-19T07:01:32.000Z</time>
      </trkpt>
      <trkpt lat="44.34492" lon="6.35065">
        <ele>1142.1999511719</ele>
        <time>2016-07-19T07:01:39.000Z</time>
      </trkpt>
      <trkpt lat="44.34485" lon="6.35076">
        <ele>1142.4000244141</ele>
        <time>2016-07-19T07:01:47.000Z</time>
      </trkpt>
      <trkpt lat="44.34485" lon="6.35089">
        <ele>1142.8000488281</ele>
        <time>2016-07-19T07:01:54.000Z</time>
      </trkpt>
      <trkpt lat="44.34485" lon="6.35092">
        <ele>1143</ele>
        <time>2016-07-19T07:01:56.000Z</time>
      </trkpt>
      <trkpt lat="44.34489" lon="6.35106">
        <ele>1143.4000244141</ele>
        <time>2016-07-19T07:02:04.000Z</time>
      </trkpt>
      <trkpt lat="44.3449" lon="6.35119">
        <ele>1144</ele>
        <time>2016-07-19T07:02:11.000Z</time>
      </trkpt>
      <trkpt lat="44.34487" lon="6.35134">
        <ele>1144.4000244141</ele>
        <time>2016-07-19T07:02:20.000Z</time>
      </trkpt>
      <trkpt lat="44.34483" lon="6.35144">
        <ele>1144.8000488281</ele>
        <time>2016-07-19T07:02:27.000Z</time>
      </trkpt>
      <trkpt lat="44.34476" lon="6.35154">
        <ele>1145</ele>
        <time>2016-07-19T07:02:34.000Z</time>
      </trkpt>
      <trkpt lat="44.34472" lon="6.35165">
        <ele>1145.1999511719</ele>
        <time>2016-07-19T07:02:42.000Z</time>
      </trkpt>
      <trkpt lat="44.34463" lon="6.35177">
        <ele>1145.8000488281</ele>
        <time>2016-07-19T07:02:50.000Z</time>
      </trkpt>
      <trkpt lat="44.34457" lon="6.35188">
        <ele>1146.4000244141</ele>
        <time>2016-07-19T07:02:58.000Z</time>
      </trkpt>
      <trkpt lat="44.34452" lon="6.35201">
        <ele>1147.1999511719</ele>
        <time>2016-07-19T07:03:06.000Z</time>
      </trkpt>
      <trkpt lat="44.34453" lon="6.35217">
        <ele>1148.1999511719</ele>
        <time>2016-07-19T07:03:14.000Z</time>
      </trkpt>
      <trkpt lat="44.34455" lon="6.35225">
        <ele>1148.5999755859</ele>
        <time>2016-07-19T07:03:19.000Z</time>
      </trkpt>
      <trkpt lat="44.34453" lon="6.35237">
        <ele>1149</ele>
        <time>2016-07-19T07:03:26.000Z</time>
      </trkpt>
      <trkpt lat="44.34452" lon="6.35239">
        <ele>1149</ele>
        <time>2016-07-19T07:03:27.000Z</time>
      </trkpt>
      <trkpt lat="44.3445" lon="6.35248">
        <ele>1149.1999511719</ele>
        <time>2016-07-19T07:03:32.000Z</time>
      </trkpt>
      <trkpt lat="44.34448" lon="6.35259">
        <ele>1149.4000244141</ele>
        <time>2016-07-19T07:03:38.000Z</time>
      </trkpt>
      <trkpt lat="44.34445" lon="6.35272">
        <ele>1149.4000244141</ele>
        <time>2016-07-19T07:03:45.000Z</time>
      </trkpt>
      <trkpt lat="44.34443" lon="6.35283">
        <ele>1149.5999755859</ele>
        <time>2016-07-19T07:03:52.000Z</time>
      </trkpt>
      <trkpt lat="44.3444" lon="6.35292">
        <ele>1149.5999755859</ele>
        <time>2016-07-19T07:03:58.000Z</time>
      </trkpt>
      <trkpt lat="44.34437" lon="6.35314">
        <ele>1149.8000488281</ele>
        <time>2016-07-19T07:04:11.000Z</time>
      </trkpt>
      <trkpt lat="44.34439" lon="6.35326">
        <ele>1150.4000244141</ele>
        <time>2016-07-19T07:04:18.000Z</time>
      </trkpt>
      <trkpt lat="44.3444" lon="6.35333">
        <ele>1150.5999755859</ele>
        <time>2016-07-19T07:04:23.000Z</time>
      </trkpt>
      <trkpt lat="44.34444" lon="6.35336">
        <ele>1150.8000488281</ele>
        <time>2016-07-19T07:04:27.000Z</time>
      </trkpt>
      <trkpt lat="44.34448" lon="6.35346">
        <ele>1151.1999511719</ele>
        <time>2016-07-19T07:04:34.000Z</time>
      </trkpt>
      <trkpt lat="44.34449" lon="6.35346">
        <ele>1151.1999511719</ele>
        <time>2016-07-19T07:04:35.000Z</time>
      </trkpt>
      <trkpt lat="44.34447" lon="6.35349">
        <ele>1151.1999511719</ele>
        <time>2016-07-19T07:04:43.000Z</time>
      </trkpt>
      <trkpt lat="44.34446" lon="6.3535">
        <ele>1151.1999511719</ele>
        <time>2016-07-19T07:04:44.000Z</time>
      </trkpt>
      <trkpt lat="44.34444" lon="6.35355">
        <ele>1151.4000244141</ele>
        <time>2016-07-19T07:04:48.000Z</time>
      </trkpt>
      <trkpt lat="44.34443" lon="6.35364">
        <ele>1151.8000488281</ele>
        <time>2016-07-19T07:04:56.000Z</time>
      </trkpt>
      <trkpt lat="44.34443" lon="6.3537">
        <ele>1152</ele>
        <time>2016-07-19T07:04:59.000Z</time>
      </trkpt>
      <trkpt lat="44.34446" lon="6.35381">
        <ele>1152.4000244141</ele>
        <time>2016-07-19T07:05:06.000Z</time>
      </trkpt>
      <trkpt lat="44.34445" lon="6.35394">
        <ele>1152.8000488281</ele>
        <time>2016-07-19T07:05:13.000Z</time>
      </trkpt>
      <trkpt lat="44.34444" lon="6.35399">
        <ele>1152.8000488281</ele>
        <time>2016-07-19T07:05:16.000Z</time>
      </trkpt>
      <trkpt lat="44.34444" lon="6.35411">
        <ele>1152.8000488281</ele>
        <time>2016-07-19T07:05:22.000Z</time>
      </trkpt>
      <trkpt lat="44.34441" lon="6.35419">
        <ele>1152.5999755859</ele>
        <time>2016-07-19T07:05:27.000Z</time>
      </trkpt>
      <trkpt lat="44.34434" lon="6.35427">
        <ele>1152.1999511719</ele>
        <time>2016-07-19T07:05:33.000Z</time>
      </trkpt>
      <trkpt lat="44.34433" lon="6.35428">
        <ele>1152.1999511719</ele>
        <time>2016-07-19T07:05:34.000Z</time>
      </trkpt>
      <trkpt lat="44.34429" lon="6.35429">
        <ele>1152</ele>
        <time>2016-07-19T07:05:38.000Z</time>
      </trkpt>
      <trkpt lat="44.34423" lon="6.35438">
        <ele>1151.5999755859</ele>
        <time>2016-07-19T07:05:46.000Z</time>
      </trkpt>
      <trkpt lat="44.34419" lon="6.35453">
        <ele>1151.1999511719</ele>
        <time>2016-07-19T07:05:54.000Z</time>
      </trkpt>
      <trkpt lat="44.34419" lon="6.35464">
        <ele>1151.1999511719</ele>
        <time>2016-07-19T07:05:59.000Z</time>
      </trkpt>
      <trkpt lat="44.34419" lon="6.35477">
        <ele>1151</ele>
        <time>2016-07-19T07:06:06.000Z</time>
      </trkpt>
      <trkpt lat="44.34418" lon="6.35488">
        <ele>1150.8000488281</ele>
        <time>2016-07-19T07:06:13.000Z</time>
      </trkpt>
      <trkpt lat="44.34417" lon="6.35497">
        <ele>1150.8000488281</ele>
        <time>2016-07-19T07:06:19.000Z</time>
      </trkpt>
      <trkpt lat="44.34416" lon="6.35507">
        <ele>1150.8000488281</ele>
        <time>2016-07-19T07:06:24.000Z</time>
      </trkpt>
      <trkpt lat="44.34416" lon="6.35511">
        <ele>1150.8000488281</ele>
        <time>2016-07-19T07:06:26.000Z</time>
      </trkpt>
      <trkpt lat="44.34416" lon="6.35521">
        <ele>1150.8000488281</ele>
        <time>2016-07-19T07:06:31.000Z</time>
      </trkpt>
      <trkpt lat="44.34414" lon="6.35534">
        <ele>1150.8000488281</ele>
        <time>2016-07-19T07:06:38.000Z</time>
      </trkpt>
      <trkpt lat="44.34413" lon="6.35542">
        <ele>1151.1999511719</ele>
        <time>2016-07-19T07:06:42.000Z</time>
      </trkpt>
      <trkpt lat="44.34414" lon="6.35552">
        <ele>1151.5999755859</ele>
        <time>2016-07-19T07:06:48.000Z</time>
      </trkpt>
      <trkpt lat="44.34413" lon="6.35554">
        <ele>1151.5999755859</ele>
        <time>2016-07-19T07:06:49.000Z</time>
      </trkpt>
      <trkpt lat="44.34413" lon="6.35572">
        <ele>1152.1999511719</ele>
        <time>2016-07-19T07:06:58.000Z</time>
      </trkpt>
      <trkpt lat="44.34412" lon="6.35587">
        <ele>1152.1999511719</ele>
        <time>2016-07-19T07:07:06.000Z</time>
      </trkpt>
      <trkpt lat="44.34411" lon="6.35603">
        <ele>1152.1999511719</ele>
        <time>2016-07-19T07:07:14.000Z</time>
      </trkpt>
      <trkpt lat="44.34411" lon="6.35616">
        <ele>1152.1999511719</ele>
        <time>2016-07-19T07:07:21.000Z</time>
      </trkpt>
      <trkpt lat="44.34411" lon="6.35628">
        <ele>1152.1999511719</ele>
        <time>2016-07-19T07:07:27.000Z</time>
      </trkpt>
      <trkpt lat="44.34411" lon="6.35642">
        <ele>1152.1999511719</ele>
        <time>2016-07-19T07:07:34.000Z</time>
      </trkpt>
      <trkpt lat="44.34411" lon="6.35651">
        <ele>1152.1999511719</ele>
        <time>2016-07-19T07:07:40.000Z</time>
      </trkpt>
      <trkpt lat="44.34411" lon="6.35658">
        <ele>1152.4000244141</ele>
        <time>2016-07-19T07:07:43.000Z</time>
      </trkpt>
      <trkpt lat="44.34411" lon="6.35669">
        <ele>1152.5999755859</ele>
        <time>2016-07-19T07:07:49.000Z</time>
      </trkpt>
      <trkpt lat="44.34411" lon="6.35672">
        <ele>1152.5999755859</ele>
        <time>2016-07-19T07:07:50.000Z</time>
      </trkpt>
      <trkpt lat="44.3441" lon="6.35679">
        <ele>1152.8000488281</ele>
        <time>2016-07-19T07:07:55.000Z</time>
      </trkpt>
      <trkpt lat="44.3441" lon="6.35698">
        <ele>1153.4000244141</ele>
        <time>2016-07-19T07:08:05.000Z</time>
      </trkpt>
      <trkpt lat="44.3441" lon="6.35711">
        <ele>1153.5999755859</ele>
        <time>2016-07-19T07:08:12.000Z</time>
      </trkpt>
      <trkpt lat="44.34409" lon="6.35716">
        <ele>1153.8000488281</ele>
        <time>2016-07-19T07:08:15.000Z</time>
      </trkpt>
      <trkpt lat="44.34409" lon="6.35726">
        <ele>1154</ele>
        <time>2016-07-19T07:08:20.000Z</time>
      </trkpt>
      <trkpt lat="44.34409" lon="6.35728">
        <ele>1154</ele>
        <time>2016-07-19T07:08:21.000Z</time>
      </trkpt>
      <trkpt lat="44.34407" lon="6.35743">
        <ele>1154.1999511719</ele>
        <time>2016-07-19T07:08:29.000Z</time>
      </trkpt>
      <trkpt lat="44.34405" lon="6.35755">
        <ele>1154.1999511719</ele>
        <time>2016-07-19T07:08:35.000Z</time>
      </trkpt>
      <trkpt lat="44.34404" lon="6.35767">
        <ele>1154.4000244141</ele>
        <time>2016-07-19T07:08:41.000Z</time>
      </trkpt>
      <trkpt lat="44.34403" lon="6.35779">
        <ele>1154.8000488281</ele>
        <time>2016-07-19T07:08:48.000Z</time>
      </trkpt>
      <trkpt lat="44.34399" lon="6.35824">
        <ele>1156.4000244141</ele>
        <time>2016-07-19T07:09:12.000Z</time>
      </trkpt>
      <trkpt lat="44.34398" lon="6.35836">
        <ele>1156.8000488281</ele>
        <time>2016-07-19T07:09:18.000Z</time>
      </trkpt>
      <trkpt lat="44.34397" lon="6.35841">
        <ele>1157</ele>
        <time>2016-07-19T07:09:21.000Z</time>
      </trkpt>
      <trkpt lat="44.34398" lon="6.35855">
        <ele>1157.1999511719</ele>
        <time>2016-07-19T07:09:28.000Z</time>
      </trkpt>
      <trkpt lat="44.34397" lon="6.35857">
        <ele>1157.4000244141</ele>
        <time>2016-07-19T07:09:29.000Z</time>
      </trkpt>
      <trkpt lat="44.34396" lon="6.35877">
        <ele>1157.5999755859</ele>
        <time>2016-07-19T07:09:39.000Z</time>
      </trkpt>
      <trkpt lat="44.34393" lon="6.35891">
        <ele>1157.5999755859</ele>
        <time>2016-07-19T07:09:46.000Z</time>
      </trkpt>
      <trkpt lat="44.34389" lon="6.35911">
        <ele>1157.1999511719</ele>
        <time>2016-07-19T07:09:55.000Z</time>
      </trkpt>
      <trkpt lat="44.34387" lon="6.35925">
        <ele>1157</ele>
        <time>2016-07-19T07:10:02.000Z</time>
      </trkpt>
      <trkpt lat="44.34382" lon="6.35943">
        <ele>1157</ele>
        <time>2016-07-19T07:10:11.000Z</time>
      </trkpt>
      <trkpt lat="44.34377" lon="6.35957">
        <ele>1157</ele>
        <time>2016-07-19T07:10:18.000Z</time>
      </trkpt>
      <trkpt lat="44.3437" lon="6.35969">
        <ele>1157</ele>
        <time>2016-07-19T07:10:26.000Z</time>
      </trkpt>
      <trkpt lat="44.34361" lon="6.35973">
        <ele>1157</ele>
        <time>2016-07-19T07:10:33.000Z</time>
      </trkpt>
      <trkpt lat="44.34351" lon="6.35969">
        <ele>1157.4000244141</ele>
        <time>2016-07-19T07:10:41.000Z</time>
      </trkpt>
      <trkpt lat="44.34338" lon="6.35959">
        <ele>1157.8000488281</ele>
        <time>2016-07-19T07:10:52.000Z</time>
      </trkpt>
      <trkpt lat="44.34329" lon="6.35955">
        <ele>1158</ele>
        <time>2016-07-19T07:10:58.000Z</time>
      </trkpt>
      <trkpt lat="44.34302" lon="6.35954">
        <ele>1159.4000244141</ele>
        <time>2016-07-19T07:11:16.000Z</time>
      </trkpt>
      <trkpt lat="44.34288" lon="6.35954">
        <ele>1160</ele>
        <time>2016-07-19T07:11:26.000Z</time>
      </trkpt>
      <trkpt lat="44.34274" lon="6.35952">
        <ele>1160.8000488281</ele>
        <time>2016-07-19T07:11:35.000Z</time>
      </trkpt>
      <trkpt lat="44.34263" lon="6.35948">
        <ele>1161.4000244141</ele>
        <time>2016-07-19T07:11:42.000Z</time>
      </trkpt>
      <trkpt lat="44.34262" lon="6.35948">
        <ele>1161.5999755859</ele>
        <time>2016-07-19T07:11:43.000Z</time>
      </trkpt>
      <trkpt lat="44.34249" lon="6.35941">
        <ele>1162.4000244141</ele>
        <time>2016-07-19T07:11:52.000Z</time>
      </trkpt>
      <trkpt lat="44.34244" lon="6.35937">
        <ele>1162.5999755859</ele>
        <time>2016-07-19T07:11:56.000Z</time>
      </trkpt>
      <trkpt lat="44.34239" lon="6.35933">
        <ele>1162.8000488281</ele>
        <time>2016-07-19T07:12:01.000Z</time>
      </trkpt>
      <trkpt lat="44.34233" lon="6.35929">
        <ele>1163.1999511719</ele>
        <time>2016-07-19T07:12:07.000Z</time>
      </trkpt>
      <trkpt lat="44.34223" lon="6.35926">
        <ele>1164</ele>
        <time>2016-07-19T07:12:15.000Z</time>
      </trkpt>
      <trkpt lat="44.34209" lon="6.35922">
        <ele>1165.4000244141</ele>
        <time>2016-07-19T07:12:24.000Z</time>
      </trkpt>
      <trkpt lat="44.34198" lon="6.3592">
        <ele>1166.5999755859</ele>
        <time>2016-07-19T07:12:32.000Z</time>
      </trkpt>
      <trkpt lat="44.34189" lon="6.35916">
        <ele>1166</ele>
        <time>2016-07-19T07:12:38.000Z</time>
      </trkpt>
      <trkpt lat="44.34178" lon="6.35914">
        <ele>1165.4000244141</ele>
        <time>2016-07-19T07:12:46.000Z</time>
      </trkpt>
      <trkpt lat="44.3417" lon="6.35913">
        <ele>1165.1999511719</ele>
        <time>2016-07-19T07:12:52.000Z</time>
      </trkpt>
      <trkpt lat="44.34148" lon="6.35912">
        <ele>1164.1999511719</ele>
        <time>2016-07-19T07:13:09.000Z</time>
      </trkpt>
      <trkpt lat="44.34143" lon="6.35911">
        <ele>1164</ele>
        <time>2016-07-19T07:13:16.000Z</time>
      </trkpt>
      <trkpt lat="44.34142" lon="6.35912">
        <ele>1164</ele>
        <time>2016-07-19T07:13:23.000Z</time>
      </trkpt>
      <trkpt lat="44.34132" lon="6.35912">
        <ele>1163.5999755859</ele>
        <time>2016-07-19T07:13:31.000Z</time>
      </trkpt>
      <trkpt lat="44.34122" lon="6.35912">
        <ele>1164</ele>
        <time>2016-07-19T07:13:38.000Z</time>
      </trkpt>
      <trkpt lat="44.34109" lon="6.35916">
        <ele>1164.8000488281</ele>
        <time>2016-07-19T07:13:47.000Z</time>
      </trkpt>
      <trkpt lat="44.34098" lon="6.35919">
        <ele>1165</ele>
        <time>2016-07-19T07:13:55.000Z</time>
      </trkpt>
      <trkpt lat="44.34097" lon="6.35919">
        <ele>1165</ele>
        <time>2016-07-19T07:13:56.000Z</time>
      </trkpt>
      <trkpt lat="44.34088" lon="6.35921">
        <ele>1165</ele>
        <time>2016-07-19T07:14:02.000Z</time>
      </trkpt>
      <trkpt lat="44.34079" lon="6.35922">
        <ele>1164.8000488281</ele>
        <time>2016-07-19T07:14:08.000Z</time>
      </trkpt>
      <trkpt lat="44.34069" lon="6.35925">
        <ele>1165</ele>
        <time>2016-07-19T07:14:16.000Z</time>
      </trkpt>
      <trkpt lat="44.34061" lon="6.35925">
        <ele>1164.5999755859</ele>
        <time>2016-07-19T07:14:22.000Z</time>
      </trkpt>
      <trkpt lat="44.34058" lon="6.35925">
        <ele>1164.5999755859</ele>
        <time>2016-07-19T07:14:24.000Z</time>
      </trkpt>
      <trkpt lat="44.34051" lon="6.35925">
        <ele>1164</ele>
        <time>2016-07-19T07:14:30.000Z</time>
      </trkpt>
      <trkpt lat="44.34047" lon="6.35926">
        <ele>1163.5999755859</ele>
        <time>2016-07-19T07:14:34.000Z</time>
      </trkpt>
      <trkpt lat="44.34044" lon="6.35926">
        <ele>1163.4000244141</ele>
        <time>2016-07-19T07:14:37.000Z</time>
      </trkpt>
      <trkpt lat="44.34041" lon="6.35926">
        <ele>1163</ele>
        <time>2016-07-19T07:14:41.000Z</time>
      </trkpt>
      <trkpt lat="44.34029" lon="6.35924">
        <ele>1161.8000488281</ele>
        <time>2016-07-19T07:14:49.000Z</time>
      </trkpt>
      <trkpt lat="44.34021" lon="6.3592">
        <ele>1161.1999511719</ele>
        <time>2016-07-19T07:14:54.000Z</time>
      </trkpt>
      <trkpt lat="44.34011" lon="6.35913">
        <ele>1160.4000244141</ele>
        <time>2016-07-19T07:15:01.000Z</time>
      </trkpt>
      <trkpt lat="44.34002" lon="6.35902">
        <ele>1159</ele>
        <time>2016-07-19T07:15:09.000Z</time>
      </trkpt>
      <trkpt lat="44.33997" lon="6.35889">
        <ele>1158.1999511719</ele>
        <time>2016-07-19T07:15:16.000Z</time>
      </trkpt>
      <trkpt lat="44.33991" lon="6.35878">
        <ele>1157.8000488281</ele>
        <time>2016-07-19T07:15:22.000Z</time>
      </trkpt>
      <trkpt lat="44.33985" lon="6.35869">
        <ele>1157.4000244141</ele>
        <time>2016-07-19T07:15:28.000Z</time>
      </trkpt>
      <trkpt lat="44.33977" lon="6.35864">
        <ele>1157.1999511719</ele>
        <time>2016-07-19T07:15:34.000Z</time>
      </trkpt>
      <trkpt lat="44.33966" lon="6.35858">
        <ele>1156.8000488281</ele>
        <time>2016-07-19T07:15:43.000Z</time>
      </trkpt>
      <trkpt lat="44.33958" lon="6.35854">
        <ele>1156.5999755859</ele>
        <time>2016-07-19T07:15:49.000Z</time>
      </trkpt>
      <trkpt lat="44.33957" lon="6.35854">
        <ele>1156.5999755859</ele>
        <time>2016-07-19T07:15:50.000Z</time>
      </trkpt>
      <trkpt lat="44.33953" lon="6.35853">
        <ele>1156.4000244141</ele>
        <time>2016-07-19T07:15:53.000Z</time>
      </trkpt>
      <trkpt lat="44.33942" lon="6.35851">
        <ele>1156.5999755859</ele>
        <time>2016-07-19T07:16:00.000Z</time>
      </trkpt>
      <trkpt lat="44.33932" lon="6.35848">
        <ele>1157.4000244141</ele>
        <time>2016-07-19T07:16:07.000Z</time>
      </trkpt>
      <trkpt lat="44.33924" lon="6.35847">
        <ele>1157.8000488281</ele>
        <time>2016-07-19T07:16:13.000Z</time>
      </trkpt>
      <trkpt lat="44.33918" lon="6.35844">
        <ele>1158.1999511719</ele>
        <time>2016-07-19T07:16:18.000Z</time>
      </trkpt>
      <trkpt lat="44.33907" lon="6.3584">
        <ele>1158.8000488281</ele>
        <time>2016-07-19T07:16:26.000Z</time>
      </trkpt>
      <trkpt lat="44.33897" lon="6.3584">
        <ele>1159.5999755859</ele>
        <time>2016-07-19T07:16:33.000Z</time>
      </trkpt>
      <trkpt lat="44.33885" lon="6.35839">
        <ele>1160.4000244141</ele>
        <time>2016-07-19T07:16:42.000Z</time>
      </trkpt>
      <trkpt lat="44.33882" lon="6.35838">
        <ele>1160.5999755859</ele>
        <time>2016-07-19T07:16:45.000Z</time>
      </trkpt>
      <trkpt lat="44.33873" lon="6.35835">
        <ele>1161</ele>
        <time>2016-07-19T07:16:51.000Z</time>
      </trkpt>
      <trkpt lat="44.33864" lon="6.35834">
        <ele>1161.8000488281</ele>
        <time>2016-07-19T07:16:58.000Z</time>
      </trkpt>
      <trkpt lat="44.33859" lon="6.35832">
        <ele>1161.8000488281</ele>
        <time>2016-07-19T07:17:02.000Z</time>
      </trkpt>
      <trkpt lat="44.33847" lon="6.35828">
        <ele>1162</ele>
        <time>2016-07-19T07:17:10.000Z</time>
      </trkpt>
      <trkpt lat="44.3384" lon="6.35828">
        <ele>1162</ele>
        <time>2016-07-19T07:17:15.000Z</time>
      </trkpt>
      <trkpt lat="44.33836" lon="6.35828">
        <ele>1162.1999511719</ele>
        <time>2016-07-19T07:17:18.000Z</time>
      </trkpt>
      <trkpt lat="44.33826" lon="6.35827">
        <ele>1162.4000244141</ele>
        <time>2016-07-19T07:17:24.000Z</time>
      </trkpt>
      <trkpt lat="44.33819" lon="6.35825">
        <ele>1162.4000244141</ele>
        <time>2016-07-19T07:17:30.000Z</time>
      </trkpt>
      <trkpt lat="44.33809" lon="6.35824">
        <ele>1162.5999755859</ele>
        <time>2016-07-19T07:17:38.000Z</time>
      </trkpt>
      <trkpt lat="44.33803" lon="6.35823">
        <ele>1162.8000488281</ele>
        <time>2016-07-19T07:17:42.000Z</time>
      </trkpt>
      <trkpt lat="44.33795" lon="6.35822">
        <ele>1163</ele>
        <time>2016-07-19T07:17:48.000Z</time>
      </trkpt>
      <trkpt lat="44.33787" lon="6.35822">
        <ele>1163.1999511719</ele>
        <time>2016-07-19T07:17:53.000Z</time>
      </trkpt>
      <trkpt lat="44.33786" lon="6.35822">
        <ele>1163.4000244141</ele>
        <time>2016-07-19T07:17:54.000Z</time>
      </trkpt>
      <trkpt lat="44.33773" lon="6.35821">
        <ele>1164.1999511719</ele>
        <time>2016-07-19T07:18:03.000Z</time>
      </trkpt>
      <trkpt lat="44.33764" lon="6.3582">
        <ele>1164.1999511719</ele>
        <time>2016-07-19T07:18:10.000Z</time>
      </trkpt>
      <trkpt lat="44.33753" lon="6.35817">
        <ele>1164</ele>
        <time>2016-07-19T07:18:18.000Z</time>
      </trkpt>
      <trkpt lat="44.33745" lon="6.35816">
        <ele>1164.1999511719</ele>
        <time>2016-07-19T07:18:24.000Z</time>
      </trkpt>
      <trkpt lat="44.33738" lon="6.35814">
        <ele>1164</ele>
        <time>2016-07-19T07:18:30.000Z</time>
      </trkpt>
      <trkpt lat="44.3373" lon="6.35811">
        <ele>1164</ele>
        <time>2016-07-19T07:18:38.000Z</time>
      </trkpt>
      <trkpt lat="44.33729" lon="6.3581">
        <ele>1164</ele>
        <time>2016-07-19T07:18:39.000Z</time>
      </trkpt>
      <trkpt lat="44.33726" lon="6.35808">
        <ele>1164</ele>
        <time>2016-07-19T07:18:43.000Z</time>
      </trkpt>
      <trkpt lat="44.33719" lon="6.35806">
        <ele>1164</ele>
        <time>2016-07-19T07:18:48.000Z</time>
      </trkpt>
      <trkpt lat="44.33714" lon="6.35805">
        <ele>1164</ele>
        <time>2016-07-19T07:18:51.000Z</time>
      </trkpt>
      <trkpt lat="44.33707" lon="6.35803">
        <ele>1164.1999511719</ele>
        <time>2016-07-19T07:18:57.000Z</time>
      </trkpt>
      <trkpt lat="44.33703" lon="6.35803">
        <ele>1164.1999511719</ele>
        <time>2016-07-19T07:19:00.000Z</time>
      </trkpt>
      <trkpt lat="44.33687" lon="6.35801">
        <ele>1164.8000488281</ele>
        <time>2016-07-19T07:19:09.000Z</time>
      </trkpt>
      <trkpt lat="44.33678" lon="6.35798">
        <ele>1165.1999511719</ele>
        <time>2016-07-19T07:19:15.000Z</time>
      </trkpt>
      <trkpt lat="44.33672" lon="6.35798">
        <ele>1165.4000244141</ele>
        <time>2016-07-19T07:19:19.000Z</time>
      </trkpt>
      <trkpt lat="44.33659" lon="6.35795">
        <ele>1165.5999755859</ele>
        <time>2016-07-19T07:19:27.000Z</time>
      </trkpt>
      <trkpt lat="44.33647" lon="6.35795">
        <ele>1166.1999511719</ele>
        <time>2016-07-19T07:19:35.000Z</time>
      </trkpt>
      <trkpt lat="44.33638" lon="6.35795">
        <ele>1166.4000244141</ele>
        <time>2016-07-19T07:19:41.000Z</time>
      </trkpt>
      <trkpt lat="44.33634" lon="6.35795">
        <ele>1166.5999755859</ele>
        <time>2016-07-19T07:19:44.000Z</time>
      </trkpt>
      <trkpt lat="44.3362" lon="6.3579">
        <ele>1166.8000488281</ele>
        <time>2016-07-19T07:19:54.000Z</time>
      </trkpt>
      <trkpt lat="44.33609" lon="6.35786">
        <ele>1167.1999511719</ele>
        <time>2016-07-19T07:20:02.000Z</time>
      </trkpt>
      <trkpt lat="44.33597" lon="6.3578">
        <ele>1167.4000244141</ele>
        <time>2016-07-19T07:20:11.000Z</time>
      </trkpt>
      <trkpt lat="44.33592" lon="6.35779">
        <ele>1167.5999755859</ele>
        <time>2016-07-19T07:20:18.000Z</time>
      </trkpt>
      <trkpt lat="44.33584" lon="6.35777">
        <ele>1167.8000488281</ele>
        <time>2016-07-19T07:20:25.000Z</time>
      </trkpt>
      <trkpt lat="44.33579" lon="6.35776">
        <ele>1167.8000488281</ele>
        <time>2016-07-19T07:20:29.000Z</time>
      </trkpt>
      <trkpt lat="44.3357" lon="6.35774">
        <ele>1168.1999511719</ele>
        <time>2016-07-19T07:20:35.000Z</time>
      </trkpt>
      <trkpt lat="44.3356" lon="6.3577">
        <ele>1168.4000244141</ele>
        <time>2016-07-19T07:20:42.000Z</time>
      </trkpt>
      <trkpt lat="44.33551" lon="6.35766">
        <ele>1168.5999755859</ele>
        <time>2016-07-19T07:20:49.000Z</time>
      </trkpt>
      <trkpt lat="44.33538" lon="6.35762">
        <ele>1168.8000488281</ele>
        <time>2016-07-19T07:20:58.000Z</time>
      </trkpt>
      <trkpt lat="44.33526" lon="6.35762">
        <ele>1169.4000244141</ele>
        <time>2016-07-19T07:21:07.000Z</time>
      </trkpt>
      <trkpt lat="44.33514" lon="6.35761">
        <ele>1170.1999511719</ele>
        <time>2016-07-19T07:21:15.000Z</time>
      </trkpt>
      <trkpt lat="44.33506" lon="6.35761">
        <ele>1170.8000488281</ele>
        <time>2016-07-19T07:21:21.000Z</time>
      </trkpt>
      <trkpt lat="44.33494" lon="6.35758">
        <ele>1171.5999755859</ele>
        <time>2016-07-19T07:21:29.000Z</time>
      </trkpt>
      <trkpt lat="44.33485" lon="6.35757">
        <ele>1172.1999511719</ele>
        <time>2016-07-19T07:21:36.000Z</time>
      </trkpt>
      <trkpt lat="44.33473" lon="6.35755">
        <ele>1173</ele>
        <time>2016-07-19T07:21:45.000Z</time>
      </trkpt>
      <trkpt lat="44.33457" lon="6.35753">
        <ele>1173.8000488281</ele>
        <time>2016-07-19T07:21:56.000Z</time>
      </trkpt>
      <trkpt lat="44.33446" lon="6.3575">
        <ele>1174.1999511719</ele>
        <time>2016-07-19T07:22:04.000Z</time>
      </trkpt>
      <trkpt lat="44.3344" lon="6.35741">
        <ele>1174.4000244141</ele>
        <time>2016-07-19T07:22:11.000Z</time>
      </trkpt>
      <trkpt lat="44.33435" lon="6.35732">
        <ele>1174.5999755859</ele>
        <time>2016-07-19T07:22:18.000Z</time>
      </trkpt>
      <trkpt lat="44.33426" lon="6.35719">
        <ele>1175</ele>
        <time>2016-07-19T07:22:27.000Z</time>
      </trkpt>
      <trkpt lat="44.33418" lon="6.35707">
        <ele>1175.4000244141</ele>
        <time>2016-07-19T07:22:35.000Z</time>
      </trkpt>
      <trkpt lat="44.3341" lon="6.35693">
        <ele>1175.8000488281</ele>
        <time>2016-07-19T07:22:44.000Z</time>
      </trkpt>
      <trkpt lat="44.33406" lon="6.35683">
        <ele>1175.8000488281</ele>
        <time>2016-07-19T07:22:50.000Z</time>
      </trkpt>
      <trkpt lat="44.33393" lon="6.35668">
        <ele>1176.5999755859</ele>
        <time>2016-07-19T07:23:02.000Z</time>
      </trkpt>
      <trkpt lat="44.33383" lon="6.3566">
        <ele>1177</ele>
        <time>2016-07-19T07:23:10.000Z</time>
      </trkpt>
      <trkpt lat="44.3337" lon="6.35654">
        <ele>1177.8000488281</ele>
        <time>2016-07-19T07:23:20.000Z</time>
      </trkpt>
      <trkpt lat="44.33358" lon="6.35653">
        <ele>1178.5999755859</ele>
        <time>2016-07-19T07:23:29.000Z</time>
      </trkpt>
      <trkpt lat="44.33346" lon="6.3565">
        <ele>1179.8000488281</ele>
        <time>2016-07-19T07:23:38.000Z</time>
      </trkpt>
      <trkpt lat="44.33339" lon="6.3565">
        <ele>1180.8000488281</ele>
        <time>2016-07-19T07:23:45.000Z</time>
      </trkpt>
      <trkpt lat="44.33335" lon="6.3565">
        <ele>1181.1999511719</ele>
        <time>2016-07-19T07:23:49.000Z</time>
      </trkpt>
      <trkpt lat="44.3333" lon="6.3565">
        <ele>1181.5999755859</ele>
        <time>2016-07-19T07:23:53.000Z</time>
      </trkpt>
      <trkpt lat="44.3332" lon="6.3565">
        <ele>1182.8000488281</ele>
        <time>2016-07-19T07:24:03.000Z</time>
      </trkpt>
      <trkpt lat="44.33319" lon="6.3565">
        <ele>1182.8000488281</ele>
        <time>2016-07-19T07:24:04.000Z</time>
      </trkpt>
      <trkpt lat="44.33304" lon="6.35647">
        <ele>1184.4000244141</ele>
        <time>2016-07-19T07:24:14.000Z</time>
      </trkpt>
      <trkpt lat="44.33303" lon="6.35647">
        <ele>1184.5999755859</ele>
        <time>2016-07-19T07:24:15.000Z</time>
      </trkpt>
      <trkpt lat="44.33298" lon="6.35646">
        <ele>1185.1999511719</ele>
        <time>2016-07-19T07:24:19.000Z</time>
      </trkpt>
      <trkpt lat="44.33297" lon="6.35646">
        <ele>1185.1999511719</ele>
        <time>2016-07-19T07:24:20.000Z</time>
      </trkpt>
      <trkpt lat="44.33288" lon="6.35645">
        <ele>1186.1999511719</ele>
        <time>2016-07-19T07:24:26.000Z</time>
      </trkpt>
      <trkpt lat="44.33281" lon="6.35643">
        <ele>1187.1999511719</ele>
        <time>2016-07-19T07:24:32.000Z</time>
      </trkpt>
      <trkpt lat="44.33271" lon="6.35641">
        <ele>1188.5999755859</ele>
        <time>2016-07-19T07:24:40.000Z</time>
      </trkpt>
      <trkpt lat="44.33264" lon="6.35638">
        <ele>1190</ele>
        <time>2016-07-19T07:24:46.000Z</time>
      </trkpt>
      <trkpt lat="44.33256" lon="6.35633">
        <ele>1191.4000244141</ele>
        <time>2016-07-19T07:24:53.000Z</time>
      </trkpt>
      <trkpt lat="44.33241" lon="6.35629">
        <ele>1193.4000244141</ele>
        <time>2016-07-19T07:25:03.000Z</time>
      </trkpt>
      <trkpt lat="44.33238" lon="6.35631">
        <ele>1193.8000488281</ele>
        <time>2016-07-19T07:25:06.000Z</time>
      </trkpt>
      <trkpt lat="44.33231" lon="6.35632">
        <ele>1194.5999755859</ele>
        <time>2016-07-19T07:25:12.000Z</time>
      </trkpt>
      <trkpt lat="44.33227" lon="6.35634">
        <ele>1195</ele>
        <time>2016-07-19T07:25:15.000Z</time>
      </trkpt>
      <trkpt lat="44.33219" lon="6.3564">
        <ele>1195.5999755859</ele>
        <time>2016-07-19T07:25:22.000Z</time>
      </trkpt>
      <trkpt lat="44.33211" lon="6.35647">
        <ele>1196.1999511719</ele>
        <time>2016-07-19T07:25:29.000Z</time>
      </trkpt>
      <trkpt lat="44.332" lon="6.35653">
        <ele>1197.5999755859</ele>
        <time>2016-07-19T07:25:37.000Z</time>
      </trkpt>
      <trkpt lat="44.33193" lon="6.35656">
        <ele>1198.5999755859</ele>
        <time>2016-07-19T07:25:43.000Z</time>
      </trkpt>
      <trkpt lat="44.33181" lon="6.3566">
        <ele>1200.5999755859</ele>
        <time>2016-07-19T07:25:52.000Z</time>
      </trkpt>
      <trkpt lat="44.33169" lon="6.35663">
        <ele>1202.4000244141</ele>
        <time>2016-07-19T07:26:01.000Z</time>
      </trkpt>
      <trkpt lat="44.33159" lon="6.35666">
        <ele>1204</ele>
        <time>2016-07-19T07:26:08.000Z</time>
      </trkpt>
      <trkpt lat="44.33148" lon="6.35668">
        <ele>1205.8000488281</ele>
        <time>2016-07-19T07:26:17.000Z</time>
      </trkpt>
      <trkpt lat="44.33139" lon="6.35665">
        <ele>1207.4000244141</ele>
        <time>2016-07-19T07:26:23.000Z</time>
      </trkpt>
      <trkpt lat="44.33128" lon="6.3566">
        <ele>1209.4000244141</ele>
        <time>2016-07-19T07:26:32.000Z</time>
      </trkpt>
      <trkpt lat="44.3312" lon="6.35658">
        <ele>1210.4000244141</ele>
        <time>2016-07-19T07:26:38.000Z</time>
      </trkpt>
      <trkpt lat="44.3311" lon="6.35656">
        <ele>1212</ele>
        <time>2016-07-19T07:26:47.000Z</time>
      </trkpt>
      <trkpt lat="44.3309" lon="6.35654">
        <ele>1215.8000488281</ele>
        <time>2016-07-19T07:27:05.000Z</time>
      </trkpt>
      <trkpt lat="44.33081" lon="6.35659">
        <ele>1217.1999511719</ele>
        <time>2016-07-19T07:27:13.000Z</time>
      </trkpt>
      <trkpt lat="44.33078" lon="6.3566">
        <ele>1217.5999755859</ele>
        <time>2016-07-19T07:27:16.000Z</time>
      </trkpt>
      <trkpt lat="44.33069" lon="6.35665">
        <ele>1218.8000488281</ele>
        <time>2016-07-19T07:27:24.000Z</time>
      </trkpt>
      <trkpt lat="44.33064" lon="6.35669">
        <ele>1219.4000244141</ele>
        <time>2016-07-19T07:27:28.000Z</time>
      </trkpt>
      <trkpt lat="44.33056" lon="6.35672">
        <ele>1220.8000488281</ele>
        <time>2016-07-19T07:27:34.000Z</time>
      </trkpt>
      <trkpt lat="44.33047" lon="6.35675">
        <ele>1222.5999755859</ele>
        <time>2016-07-19T07:27:40.000Z</time>
      </trkpt>
      <trkpt lat="44.3304" lon="6.35676">
        <ele>1224.1999511719</ele>
        <time>2016-07-19T07:27:45.000Z</time>
      </trkpt>
      <trkpt lat="44.3303" lon="6.35677">
        <ele>1226.4000244141</ele>
        <time>2016-07-19T07:27:53.000Z</time>
      </trkpt>
      <trkpt lat="44.33022" lon="6.3568">
        <ele>1226.5999755859</ele>
        <time>2016-07-19T07:27:59.000Z</time>
      </trkpt>
      <trkpt lat="44.33014" lon="6.35682">
        <ele>1226.8000488281</ele>
        <time>2016-07-19T07:28:06.000Z</time>
      </trkpt>
      <trkpt lat="44.33012" lon="6.35682">
        <ele>1226.8000488281</ele>
        <time>2016-07-19T07:28:08.000Z</time>
      </trkpt>
      <trkpt lat="44.33001" lon="6.35687">
        <ele>1227.1999511719</ele>
        <time>2016-07-19T07:28:16.000Z</time>
      </trkpt>
      <trkpt lat="44.32994" lon="6.35688">
        <ele>1227.4000244141</ele>
        <time>2016-07-19T07:28:21.000Z</time>
      </trkpt>
      <trkpt lat="44.32987" lon="6.35688">
        <ele>1227.5999755859</ele>
        <time>2016-07-19T07:28:26.000Z</time>
      </trkpt>
      <trkpt lat="44.32985" lon="6.35687">
        <ele>1228.1999511719</ele>
        <time>2016-07-19T07:28:28.000Z</time>
      </trkpt>
      <trkpt lat="44.32977" lon="6.35687">
        <ele>1230.4000244141</ele>
        <time>2016-07-19T07:28:34.000Z</time>
      </trkpt>
      <trkpt lat="44.32967" lon="6.35688">
        <ele>1233.5999755859</ele>
        <time>2016-07-19T07:28:42.000Z</time>
      </trkpt>
      <trkpt lat="44.32957" lon="6.3569">
        <ele>1237</ele>
        <time>2016-07-19T07:28:49.000Z</time>
      </trkpt>
      <trkpt lat="44.32944" lon="6.3569">
        <ele>1239.5999755859</ele>
        <time>2016-07-19T07:28:57.000Z</time>
      </trkpt>
      <trkpt lat="44.32918" lon="6.35689">
        <ele>1240.1999511719</ele>
        <time>2016-07-19T07:29:07.000Z</time>
      </trkpt>
      <trkpt lat="44.32905" lon="6.35691">
        <ele>1241</ele>
        <time>2016-07-19T07:29:14.000Z</time>
      </trkpt>
      <trkpt lat="44.32898" lon="6.35694">
        <ele>1242.5999755859</ele>
        <time>2016-07-19T07:29:19.000Z</time>
      </trkpt>
      <trkpt lat="44.32888" lon="6.35702">
        <ele>1245.5999755859</ele>
        <time>2016-07-19T07:29:27.000Z</time>
      </trkpt>
      <trkpt lat="44.32875" lon="6.35709">
        <ele>1248.8000488281</ele>
        <time>2016-07-19T07:29:36.000Z</time>
      </trkpt>
      <trkpt lat="44.32866" lon="6.35712">
        <ele>1250.4000244141</ele>
        <time>2016-07-19T07:29:43.000Z</time>
      </trkpt>
      <trkpt lat="44.32852" lon="6.35714">
        <ele>1251.8000488281</ele>
        <time>2016-07-19T07:29:53.000Z</time>
      </trkpt>
      <trkpt lat="44.3285" lon="6.35714">
        <ele>1251.8000488281</ele>
        <time>2016-07-19T07:29:54.000Z</time>
      </trkpt>
      <trkpt lat="44.32841" lon="6.35717">
        <ele>1252.5999755859</ele>
        <time>2016-07-19T07:30:01.000Z</time>
      </trkpt>
      <trkpt lat="44.32831" lon="6.35721">
        <ele>1253.4000244141</ele>
        <time>2016-07-19T07:30:08.000Z</time>
      </trkpt>
      <trkpt lat="44.32822" lon="6.35723">
        <ele>1253.8000488281</ele>
        <time>2016-07-19T07:30:15.000Z</time>
      </trkpt>
      <trkpt lat="44.32809" lon="6.3573">
        <ele>1255</ele>
        <time>2016-07-19T07:30:26.000Z</time>
      </trkpt>
      <trkpt lat="44.32803" lon="6.35732">
        <ele>1255.5999755859</ele>
        <time>2016-07-19T07:30:30.000Z</time>
      </trkpt>
      <trkpt lat="44.32791" lon="6.35739">
        <ele>1257.8000488281</ele>
        <time>2016-07-19T07:30:39.000Z</time>
      </trkpt>
      <trkpt lat="44.32781" lon="6.3574">
        <ele>1258</ele>
        <time>2016-07-19T07:30:46.000Z</time>
      </trkpt>
      <trkpt lat="44.32774" lon="6.35734">
        <ele>1255.5999755859</ele>
        <time>2016-07-19T07:30:52.000Z</time>
      </trkpt>
      <trkpt lat="44.32762" lon="6.35725">
        <ele>1252.4000244141</ele>
        <time>2016-07-19T07:31:01.000Z</time>
      </trkpt>
      <trkpt lat="44.32753" lon="6.35717">
        <ele>1250.1999511719</ele>
        <time>2016-07-19T07:31:09.000Z</time>
      </trkpt>
      <trkpt lat="44.32743" lon="6.35708">
        <ele>1247.5999755859</ele>
        <time>2016-07-19T07:31:17.000Z</time>
      </trkpt>
      <trkpt lat="44.32734" lon="6.35703">
        <ele>1246.1999511719</ele>
        <time>2016-07-19T07:31:23.000Z</time>
      </trkpt>
      <trkpt lat="44.32726" lon="6.35699">
        <ele>1244.8000488281</ele>
        <time>2016-07-19T07:31:29.000Z</time>
      </trkpt>
      <trkpt lat="44.32714" lon="6.357">
        <ele>1243.8000488281</ele>
        <time>2016-07-19T07:31:38.000Z</time>
      </trkpt>
      <trkpt lat="44.32713" lon="6.35699">
        <ele>1243.5999755859</ele>
        <time>2016-07-19T07:31:39.000Z</time>
      </trkpt>
      <trkpt lat="44.32707" lon="6.35706">
        <ele>1244.4000244141</ele>
        <time>2016-07-19T07:31:45.000Z</time>
      </trkpt>
      <trkpt lat="44.32701" lon="6.35712">
        <ele>1245</ele>
        <time>2016-07-19T07:31:50.000Z</time>
      </trkpt>
      <trkpt lat="44.32695" lon="6.35716">
        <ele>1245.5999755859</ele>
        <time>2016-07-19T07:31:55.000Z</time>
      </trkpt>
      <trkpt lat="44.3269" lon="6.35725">
        <ele>1247.4000244141</ele>
        <time>2016-07-19T07:32:09.000Z</time>
      </trkpt>
      <trkpt lat="44.32687" lon="6.35729">
        <ele>1247.1999511719</ele>
        <time>2016-07-19T07:32:12.000Z</time>
      </trkpt>
      <trkpt lat="44.32681" lon="6.35738">
        <ele>1248.4000244141</ele>
        <time>2016-07-19T07:32:19.000Z</time>
      </trkpt>
      <trkpt lat="44.32675" lon="6.35745">
        <ele>1250</ele>
        <time>2016-07-19T07:32:26.000Z</time>
      </trkpt>
      <trkpt lat="44.32671" lon="6.3575">
        <ele>1251.1999511719</ele>
        <time>2016-07-19T07:32:30.000Z</time>
      </trkpt>
      <trkpt lat="44.32665" lon="6.35761">
        <ele>1254</ele>
        <time>2016-07-19T07:32:37.000Z</time>
      </trkpt>
      <trkpt lat="44.32657" lon="6.35768">
        <ele>1255.1999511719</ele>
        <time>2016-07-19T07:32:44.000Z</time>
      </trkpt>
      <trkpt lat="44.32645" lon="6.35768">
        <ele>1253.8000488281</ele>
        <time>2016-07-19T07:32:52.000Z</time>
      </trkpt>
      <trkpt lat="44.32631" lon="6.35771">
        <ele>1251.8000488281</ele>
        <time>2016-07-19T07:33:02.000Z</time>
      </trkpt>
      <trkpt lat="44.32626" lon="6.35772">
        <ele>1251.5999755859</ele>
        <time>2016-07-19T07:33:05.000Z</time>
      </trkpt>
      <trkpt lat="44.32619" lon="6.35774">
        <ele>1250.5999755859</ele>
        <time>2016-07-19T07:33:10.000Z</time>
      </trkpt>
      <trkpt lat="44.32605" lon="6.3578">
        <ele>1253.1999511719</ele>
        <time>2016-07-19T07:33:20.000Z</time>
      </trkpt>
      <trkpt lat="44.32591" lon="6.35788">
        <ele>1258.1999511719</ele>
        <time>2016-07-19T07:33:30.000Z</time>
      </trkpt>
      <trkpt lat="44.32577" lon="6.35796">
        <ele>1257</ele>
        <time>2016-07-19T07:33:40.000Z</time>
      </trkpt>
      <trkpt lat="44.32568" lon="6.35802">
        <ele>1255.4000244141</ele>
        <time>2016-07-19T07:33:47.000Z</time>
      </trkpt>
      <trkpt lat="44.32556" lon="6.35814">
        <ele>1252.8000488281</ele>
        <time>2016-07-19T07:33:57.000Z</time>
      </trkpt>
      <trkpt lat="44.32551" lon="6.35824">
        <ele>1256</ele>
        <time>2016-07-19T07:34:04.000Z</time>
      </trkpt>
      <trkpt lat="44.32544" lon="6.35834">
        <ele>1258</ele>
        <time>2016-07-19T07:34:12.000Z</time>
      </trkpt>
      <trkpt lat="44.32535" lon="6.35842">
        <ele>1257.4000244141</ele>
        <time>2016-07-19T07:34:20.000Z</time>
      </trkpt>
      <trkpt lat="44.32525" lon="6.35852">
        <ele>1259</ele>
        <time>2016-07-19T07:34:29.000Z</time>
      </trkpt>
      <trkpt lat="44.32513" lon="6.35863">
        <ele>1262.4000244141</ele>
        <time>2016-07-19T07:34:39.000Z</time>
      </trkpt>
      <trkpt lat="44.32502" lon="6.35869">
        <ele>1264.5999755859</ele>
        <time>2016-07-19T07:34:47.000Z</time>
      </trkpt>
      <trkpt lat="44.32491" lon="6.35872">
        <ele>1263.5999755859</ele>
        <time>2016-07-19T07:34:55.000Z</time>
      </trkpt>
      <trkpt lat="44.32478" lon="6.35873">
        <ele>1262.1999511719</ele>
        <time>2016-07-19T07:35:04.000Z</time>
      </trkpt>
      <trkpt lat="44.32473" lon="6.35873">
        <ele>1261.5999755859</ele>
        <time>2016-07-19T07:35:08.000Z</time>
      </trkpt>
      <trkpt lat="44.3246" lon="6.35871">
        <ele>1260</ele>
        <time>2016-07-19T07:35:17.000Z</time>
      </trkpt>
      <trkpt lat="44.3245" lon="6.35871">
        <ele>1259</ele>
        <time>2016-07-19T07:35:25.000Z</time>
      </trkpt>
      <trkpt lat="44.32438" lon="6.35872">
        <ele>1261.5999755859</ele>
        <time>2016-07-19T07:35:32.000Z</time>
      </trkpt>
      <trkpt lat="44.32427" lon="6.35868">
        <ele>1265</ele>
        <time>2016-07-19T07:35:40.000Z</time>
      </trkpt>
      <trkpt lat="44.32419" lon="6.35872">
        <ele>1267</ele>
        <time>2016-07-19T07:35:48.000Z</time>
      </trkpt>
      <trkpt lat="44.32413" lon="6.35879">
        <ele>1266.5999755859</ele>
        <time>2016-07-19T07:35:55.000Z</time>
      </trkpt>
      <trkpt lat="44.32411" lon="6.35882">
        <ele>1266.1999511719</ele>
        <time>2016-07-19T07:35:58.000Z</time>
      </trkpt>
      <trkpt lat="44.32404" lon="6.35899">
        <ele>1265.1999511719</ele>
        <time>2016-07-19T07:36:10.000Z</time>
      </trkpt>
      <trkpt lat="44.32398" lon="6.35906">
        <ele>1267.8000488281</ele>
        <time>2016-07-19T07:36:17.000Z</time>
      </trkpt>
      <trkpt lat="44.32393" lon="6.35912">
        <ele>1270</ele>
        <time>2016-07-19T07:36:23.000Z</time>
      </trkpt>
      <trkpt lat="44.32382" lon="6.3592">
        <ele>1272.5999755859</ele>
        <time>2016-07-19T07:36:32.000Z</time>
      </trkpt>
      <trkpt lat="44.3237" lon="6.35926">
        <ele>1272.1999511719</ele>
        <time>2016-07-19T07:36:40.000Z</time>
      </trkpt>
      <trkpt lat="44.32369" lon="6.35926">
        <ele>1272.1999511719</ele>
        <time>2016-07-19T07:36:42.000Z</time>
      </trkpt>
      <trkpt lat="44.32362" lon="6.35929">
        <ele>1272.4000244141</ele>
        <time>2016-07-19T07:36:48.000Z</time>
      </trkpt>
      <trkpt lat="44.32353" lon="6.3593">
        <ele>1275.5999755859</ele>
        <time>2016-07-19T07:36:55.000Z</time>
      </trkpt>
      <trkpt lat="44.32331" lon="6.3594">
        <ele>1283.4000244141</ele>
        <time>2016-07-19T07:37:13.000Z</time>
      </trkpt>
      <trkpt lat="44.3233" lon="6.35941">
        <ele>1284</ele>
        <time>2016-07-19T07:37:14.000Z</time>
      </trkpt>
      <trkpt lat="44.32321" lon="6.35942">
        <ele>1286.4000244141</ele>
        <time>2016-07-19T07:37:20.000Z</time>
      </trkpt>
      <trkpt lat="44.32319" lon="6.35941">
        <ele>1286.5999755859</ele>
        <time>2016-07-19T07:37:22.000Z</time>
      </trkpt>
      <trkpt lat="44.32316" lon="6.35929">
        <ele>1287.5999755859</ele>
        <time>2016-07-19T07:37:29.000Z</time>
      </trkpt>
      <trkpt lat="44.3232" lon="6.35917">
        <ele>1285</ele>
        <time>2016-07-19T07:37:37.000Z</time>
      </trkpt>
      <trkpt lat="44.3233" lon="6.35906">
        <ele>1280.5999755859</ele>
        <time>2016-07-19T07:37:47.000Z</time>
      </trkpt>
      <trkpt lat="44.32333" lon="6.35904">
        <ele>1279.5999755859</ele>
        <time>2016-07-19T07:37:52.000Z</time>
      </trkpt>
      <trkpt lat="44.32341" lon="6.35902">
        <ele>1277</ele>
        <time>2016-07-19T07:37:58.000Z</time>
      </trkpt>
      <trkpt lat="44.32345" lon="6.35901">
        <ele>1275.4000244141</ele>
        <time>2016-07-19T07:38:02.000Z</time>
      </trkpt>
      <trkpt lat="44.32353" lon="6.35895">
        <ele>1273</ele>
        <time>2016-07-19T07:38:09.000Z</time>
      </trkpt>
      <trkpt lat="44.32356" lon="6.35892">
        <ele>1272.8000488281</ele>
        <time>2016-07-19T07:38:12.000Z</time>
      </trkpt>
      <trkpt lat="44.32358" lon="6.35887">
        <ele>1272.5999755859</ele>
        <time>2016-07-19T07:38:15.000Z</time>
      </trkpt>
      <trkpt lat="44.32361" lon="6.35878">
        <ele>1273</ele>
        <time>2016-07-19T07:38:23.000Z</time>
      </trkpt>
      <trkpt lat="44.32364" lon="6.35865">
        <ele>1274</ele>
        <time>2016-07-19T07:38:30.000Z</time>
      </trkpt>
      <trkpt lat="44.32367" lon="6.35849">
        <ele>1276.1999511719</ele>
        <time>2016-07-19T07:38:38.000Z</time>
      </trkpt>
      <trkpt lat="44.32372" lon="6.35831">
        <ele>1278.5999755859</ele>
        <time>2016-07-19T07:38:48.000Z</time>
      </trkpt>
      <trkpt lat="44.32372" lon="6.35829">
        <ele>1278.8000488281</ele>
        <time>2016-07-19T07:38:49.000Z</time>
      </trkpt>
      <trkpt lat="44.3237" lon="6.35804">
        <ele>1279.5999755859</ele>
        <time>2016-07-19T07:39:02.000Z</time>
      </trkpt>
      <trkpt lat="44.32366" lon="6.35792">
        <ele>1280.8000488281</ele>
        <time>2016-07-19T07:39:10.000Z</time>
      </trkpt>
      <trkpt lat="44.32365" lon="6.35791">
        <ele>1281.1999511719</ele>
        <time>2016-07-19T07:39:12.000Z</time>
      </trkpt>
      <trkpt lat="44.32358" lon="6.35785">
        <ele>1283</ele>
        <time>2016-07-19T07:39:18.000Z</time>
      </trkpt>
      <trkpt lat="44.32352" lon="6.35777">
        <ele>1284.5999755859</ele>
        <time>2016-07-19T07:39:24.000Z</time>
      </trkpt>
      <trkpt lat="44.32351" lon="6.35775">
        <ele>1284.8000488281</ele>
        <time>2016-07-19T07:39:25.000Z</time>
      </trkpt>
      <trkpt lat="44.32345" lon="6.35767">
        <ele>1286.5999755859</ele>
        <time>2016-07-19T07:39:31.000Z</time>
      </trkpt>
      <trkpt lat="44.32335" lon="6.35761">
        <ele>1289.8000488281</ele>
        <time>2016-07-19T07:39:39.000Z</time>
      </trkpt>
      <trkpt lat="44.32326" lon="6.35756">
        <ele>1292.4000244141</ele>
        <time>2016-07-19T07:39:48.000Z</time>
      </trkpt>
      <trkpt lat="44.32317" lon="6.35752">
        <ele>1295</ele>
        <time>2016-07-19T07:39:54.000Z</time>
      </trkpt>
      <trkpt lat="44.32309" lon="6.35749">
        <ele>1297.5999755859</ele>
        <time>2016-07-19T07:40:00.000Z</time>
      </trkpt>
      <trkpt lat="44.323" lon="6.35746">
        <ele>1300.4000244141</ele>
        <time>2016-07-19T07:40:07.000Z</time>
      </trkpt>
      <trkpt lat="44.32291" lon="6.35739">
        <ele>1303</ele>
        <time>2016-07-19T07:40:14.000Z</time>
      </trkpt>
      <trkpt lat="44.32284" lon="6.3573">
        <ele>1304.8000488281</ele>
        <time>2016-07-19T07:40:21.000Z</time>
      </trkpt>
      <trkpt lat="44.32279" lon="6.35724">
        <ele>1305.5999755859</ele>
        <time>2016-07-19T07:40:27.000Z</time>
      </trkpt>
      <trkpt lat="44.32274" lon="6.35715">
        <ele>1305.8000488281</ele>
        <time>2016-07-19T07:40:35.000Z</time>
      </trkpt>
      <trkpt lat="44.32267" lon="6.35703">
        <ele>1306.4000244141</ele>
        <time>2016-07-19T07:40:44.000Z</time>
      </trkpt>
      <trkpt lat="44.32258" lon="6.3569">
        <ele>1306.8000488281</ele>
        <time>2016-07-19T07:40:55.000Z</time>
      </trkpt>
      <trkpt lat="44.32249" lon="6.35681">
        <ele>1308</ele>
        <time>2016-07-19T07:41:03.000Z</time>
      </trkpt>
      <trkpt lat="44.32239" lon="6.35674">
        <ele>1309.5999755859</ele>
        <time>2016-07-19T07:41:11.000Z</time>
      </trkpt>
      <trkpt lat="44.32228" lon="6.35667">
        <ele>1311.5999755859</ele>
        <time>2016-07-19T07:41:20.000Z</time>
      </trkpt>
      <trkpt lat="44.32217" lon="6.35655">
        <ele>1313</ele>
        <time>2016-07-19T07:41:30.000Z</time>
      </trkpt>
      <trkpt lat="44.32212" lon="6.35644">
        <ele>1313.5999755859</ele>
        <time>2016-07-19T07:41:38.000Z</time>
      </trkpt>
      <trkpt lat="44.32211" lon="6.35642">
        <ele>1313.5999755859</ele>
        <time>2016-07-19T07:41:39.000Z</time>
      </trkpt>
      <trkpt lat="44.32201" lon="6.35633">
        <ele>1316.1999511719</ele>
        <time>2016-07-19T07:41:49.000Z</time>
      </trkpt>
      <trkpt lat="44.32197" lon="6.35636">
        <ele>1317.1999511719</ele>
        <time>2016-07-19T07:41:53.000Z</time>
      </trkpt>
      <trkpt lat="44.32198" lon="6.35648">
        <ele>1316.8000488281</ele>
        <time>2016-07-19T07:42:00.000Z</time>
      </trkpt>
      <trkpt lat="44.32205" lon="6.35661">
        <ele>1317</ele>
        <time>2016-07-19T07:42:10.000Z</time>
      </trkpt>
      <trkpt lat="44.32207" lon="6.35664">
        <ele>1316.8000488281</ele>
        <time>2016-07-19T07:42:14.000Z</time>
      </trkpt>
      <trkpt lat="44.3221" lon="6.35669">
        <ele>1316.8000488281</ele>
        <time>2016-07-19T07:42:18.000Z</time>
      </trkpt>
      <trkpt lat="44.32215" lon="6.35677">
        <ele>1316.5999755859</ele>
        <time>2016-07-19T07:42:23.000Z</time>
      </trkpt>
      <trkpt lat="44.32226" lon="6.35688">
        <ele>1315.1999511719</ele>
        <time>2016-07-19T07:42:33.000Z</time>
      </trkpt>
      <trkpt lat="44.32235" lon="6.35698">
        <ele>1314.1999511719</ele>
        <time>2016-07-19T07:42:41.000Z</time>
      </trkpt>
      <trkpt lat="44.3224" lon="6.35705">
        <ele>1313.8000488281</ele>
        <time>2016-07-19T07:42:47.000Z</time>
      </trkpt>
      <trkpt lat="44.32248" lon="6.35728">
        <ele>1315.5999755859</ele>
        <time>2016-07-19T07:43:01.000Z</time>
      </trkpt>
      <trkpt lat="44.32254" lon="6.35741">
        <ele>1315</ele>
        <time>2016-07-19T07:43:10.000Z</time>
      </trkpt>
      <trkpt lat="44.32256" lon="6.35748">
        <ele>1314.8000488281</ele>
        <time>2016-07-19T07:43:14.000Z</time>
      </trkpt>
      <trkpt lat="44.32259" lon="6.35753">
        <ele>1314.1999511719</ele>
        <time>2016-07-19T07:43:18.000Z</time>
      </trkpt>
      <trkpt lat="44.32263" lon="6.35761">
        <ele>1313.4000244141</ele>
        <time>2016-07-19T07:43:24.000Z</time>
      </trkpt>
      <trkpt lat="44.32269" lon="6.35769">
        <ele>1312.1999511719</ele>
        <time>2016-07-19T07:43:30.000Z</time>
      </trkpt>
      <trkpt lat="44.32274" lon="6.35773">
        <ele>1311</ele>
        <time>2016-07-19T07:43:35.000Z</time>
      </trkpt>
      <trkpt lat="44.32278" lon="6.35777">
        <ele>1310.1999511719</ele>
        <time>2016-07-19T07:43:40.000Z</time>
      </trkpt>
      <trkpt lat="44.32281" lon="6.35781">
        <ele>1309.4000244141</ele>
        <time>2016-07-19T07:43:44.000Z</time>
      </trkpt>
      <trkpt lat="44.32286" lon="6.35786">
        <ele>1308</ele>
        <time>2016-07-19T07:43:50.000Z</time>
      </trkpt>
      <trkpt lat="44.32294" lon="6.35791">
        <ele>1305.5999755859</ele>
        <time>2016-07-19T07:43:57.000Z</time>
      </trkpt>
      <trkpt lat="44.32298" lon="6.35799">
        <ele>1304.4000244141</ele>
        <time>2016-07-19T07:44:03.000Z</time>
      </trkpt>
      <trkpt lat="44.32292" lon="6.35816">
        <ele>1307.4000244141</ele>
        <time>2016-07-19T07:44:14.000Z</time>
      </trkpt>
      <trkpt lat="44.32282" lon="6.35822">
        <ele>1310</ele>
        <time>2016-07-19T07:44:21.000Z</time>
      </trkpt>
      <trkpt lat="44.32272" lon="6.35825">
        <ele>1312.5999755859</ele>
        <time>2016-07-19T07:44:29.000Z</time>
      </trkpt>
      <trkpt lat="44.32261" lon="6.35829">
        <ele>1315.8000488281</ele>
        <time>2016-07-19T07:44:38.000Z</time>
      </trkpt>
      <trkpt lat="44.3225" lon="6.35838">
        <ele>1318.1999511719</ele>
        <time>2016-07-19T07:44:48.000Z</time>
      </trkpt>
      <trkpt lat="44.3224" lon="6.35844">
        <ele>1320.1999511719</ele>
        <time>2016-07-19T07:44:55.000Z</time>
      </trkpt>
      <trkpt lat="44.32233" lon="6.35846">
        <ele>1322.5999755859</ele>
        <time>2016-07-19T07:45:02.000Z</time>
      </trkpt>
      <trkpt lat="44.32226" lon="6.35848">
        <ele>1324.5999755859</ele>
        <time>2016-07-19T07:45:08.000Z</time>
      </trkpt>
      <trkpt lat="44.32225" lon="6.35848">
        <ele>1325</ele>
        <time>2016-07-19T07:45:10.000Z</time>
      </trkpt>
      <trkpt lat="44.32218" lon="6.3585">
        <ele>1328</ele>
        <time>2016-07-19T07:45:15.000Z</time>
      </trkpt>
      <trkpt lat="44.32213" lon="6.35853">
        <ele>1329.4000244141</ele>
        <time>2016-07-19T07:45:20.000Z</time>
      </trkpt>
      <trkpt lat="44.32206" lon="6.35861">
        <ele>1331.8000488281</ele>
        <time>2016-07-19T07:45:26.000Z</time>
      </trkpt>
      <trkpt lat="44.32205" lon="6.35862">
        <ele>1332</ele>
        <time>2016-07-19T07:45:28.000Z</time>
      </trkpt>
      <trkpt lat="44.322" lon="6.35873">
        <ele>1332.8000488281</ele>
        <time>2016-07-19T07:45:35.000Z</time>
      </trkpt>
      <trkpt lat="44.32196" lon="6.35877">
        <ele>1333.8000488281</ele>
        <time>2016-07-19T07:45:40.000Z</time>
      </trkpt>
      <trkpt lat="44.32191" lon="6.3589">
        <ele>1333.4000244141</ele>
        <time>2016-07-19T07:45:48.000Z</time>
      </trkpt>
      <trkpt lat="44.32188" lon="6.35898">
        <ele>1333.4000244141</ele>
        <time>2016-07-19T07:45:53.000Z</time>
      </trkpt>
      <trkpt lat="44.32181" lon="6.35907">
        <ele>1332.1999511719</ele>
        <time>2016-07-19T07:45:59.000Z</time>
      </trkpt>
      <trkpt lat="44.32171" lon="6.35915">
        <ele>1332.1999511719</ele>
        <time>2016-07-19T07:46:07.000Z</time>
      </trkpt>
      <trkpt lat="44.32162" lon="6.3592">
        <ele>1333.1999511719</ele>
        <time>2016-07-19T07:46:15.000Z</time>
      </trkpt>
      <trkpt lat="44.32151" lon="6.35929">
        <ele>1333</ele>
        <time>2016-07-19T07:46:24.000Z</time>
      </trkpt>
      <trkpt lat="44.32142" lon="6.35941">
        <ele>1334</ele>
        <time>2016-07-19T07:46:29.000Z</time>
      </trkpt>
      <trkpt lat="44.32128" lon="6.35956">
        <ele>1337.4000244141</ele>
        <time>2016-07-19T07:46:36.000Z</time>
      </trkpt>
      <trkpt lat="44.3212" lon="6.35968">
        <ele>1338.4000244141</ele>
        <time>2016-07-19T07:46:40.000Z</time>
      </trkpt>
      <trkpt lat="44.32111" lon="6.35983">
        <ele>1339.1999511719</ele>
        <time>2016-07-19T07:46:45.000Z</time>
      </trkpt>
      <trkpt lat="44.32104" lon="6.35993">
        <ele>1339</ele>
        <time>2016-07-19T07:46:50.000Z</time>
      </trkpt>
      <trkpt lat="44.32103" lon="6.35995">
        <ele>1339</ele>
        <time>2016-07-19T07:46:51.000Z</time>
      </trkpt>
      <trkpt lat="44.32091" lon="6.35998">
        <ele>1340.8000488281</ele>
        <time>2016-07-19T07:47:00.000Z</time>
      </trkpt>
      <trkpt lat="44.32081" lon="6.36002">
        <ele>1342.1999511719</ele>
        <time>2016-07-19T07:47:07.000Z</time>
      </trkpt>
      <trkpt lat="44.32076" lon="6.36005">
        <ele>1342.5999755859</ele>
        <time>2016-07-19T07:47:12.000Z</time>
      </trkpt>
      <trkpt lat="44.32068" lon="6.36007">
        <ele>1344</ele>
        <time>2016-07-19T07:47:18.000Z</time>
      </trkpt>
      <trkpt lat="44.32061" lon="6.36009">
        <ele>1345</ele>
        <time>2016-07-19T07:47:24.000Z</time>
      </trkpt>
      <trkpt lat="44.32056" lon="6.36012">
        <ele>1345.8000488281</ele>
        <time>2016-07-19T07:47:28.000Z</time>
      </trkpt>
      <trkpt lat="44.32052" lon="6.36016">
        <ele>1346.1999511719</ele>
        <time>2016-07-19T07:47:35.000Z</time>
      </trkpt>
      <trkpt lat="44.32051" lon="6.36019">
        <ele>1346.4000244141</ele>
        <time>2016-07-19T07:47:36.000Z</time>
      </trkpt>
      <trkpt lat="44.32044" lon="6.36026">
        <ele>1347.1999511719</ele>
        <time>2016-07-19T07:47:42.000Z</time>
      </trkpt>
      <trkpt lat="44.3204" lon="6.36033">
        <ele>1347.4000244141</ele>
        <time>2016-07-19T07:47:48.000Z</time>
      </trkpt>
      <trkpt lat="44.32033" lon="6.36046">
        <ele>1347.4000244141</ele>
        <time>2016-07-19T07:47:56.000Z</time>
      </trkpt>
      <trkpt lat="44.32032" lon="6.36048">
        <ele>1347.5999755859</ele>
        <time>2016-07-19T07:47:57.000Z</time>
      </trkpt>
      <trkpt lat="44.32025" lon="6.36054">
        <ele>1348.4000244141</ele>
        <time>2016-07-19T07:48:04.000Z</time>
      </trkpt>
      <trkpt lat="44.32017" lon="6.36059">
        <ele>1349.1999511719</ele>
        <time>2016-07-19T07:48:11.000Z</time>
      </trkpt>
      <trkpt lat="44.32008" lon="6.36064">
        <ele>1350</ele>
        <time>2016-07-19T07:48:19.000Z</time>
      </trkpt>
      <trkpt lat="44.32006" lon="6.36066">
        <ele>1350.1999511719</ele>
        <time>2016-07-19T07:48:27.000Z</time>
      </trkpt>
      <trkpt lat="44.32004" lon="6.36067">
        <ele>1350.5999755859</ele>
        <time>2016-07-19T07:48:37.000Z</time>
      </trkpt>
      <trkpt lat="44.32002" lon="6.36067">
        <ele>1350.8000488281</ele>
        <time>2016-07-19T07:48:46.000Z</time>
      </trkpt>
      <trkpt lat="44.32001" lon="6.36066">
        <ele>1351.1999511719</ele>
        <time>2016-07-19T07:48:56.000Z</time>
      </trkpt>
      <trkpt lat="44.32001" lon="6.36069">
        <ele>1351</ele>
        <time>2016-07-19T07:49:09.000Z</time>
      </trkpt>
      <trkpt lat="44.31998" lon="6.36079">
        <ele>1350.8000488281</ele>
        <time>2016-07-19T07:49:15.000Z</time>
      </trkpt>
      <trkpt lat="44.31996" lon="6.36083">
        <ele>1351</ele>
        <time>2016-07-19T07:49:18.000Z</time>
      </trkpt>
      <trkpt lat="44.31992" lon="6.36089">
        <ele>1351.1999511719</ele>
        <time>2016-07-19T07:49:23.000Z</time>
      </trkpt>
      <trkpt lat="44.31985" lon="6.36095">
        <ele>1352</ele>
        <time>2016-07-19T07:49:30.000Z</time>
      </trkpt>
      <trkpt lat="44.31976" lon="6.36099">
        <ele>1353.1999511719</ele>
        <time>2016-07-19T07:49:38.000Z</time>
      </trkpt>
      <trkpt lat="44.31968" lon="6.36102">
        <ele>1354.4000244141</ele>
        <time>2016-07-19T07:49:44.000Z</time>
      </trkpt>
      <trkpt lat="44.31953" lon="6.36097">
        <ele>1357.1999511719</ele>
        <time>2016-07-19T07:49:55.000Z</time>
      </trkpt>
      <trkpt lat="44.31946" lon="6.36095">
        <ele>1358.5999755859</ele>
        <time>2016-07-19T07:50:00.000Z</time>
      </trkpt>
      <trkpt lat="44.31929" lon="6.361">
        <ele>1361.4000244141</ele>
        <time>2016-07-19T07:50:13.000Z</time>
      </trkpt>
      <trkpt lat="44.31924" lon="6.36101">
        <ele>1362.4000244141</ele>
        <time>2016-07-19T07:50:17.000Z</time>
      </trkpt>
      <trkpt lat="44.31921" lon="6.36103">
        <ele>1362.8000488281</ele>
        <time>2016-07-19T07:50:20.000Z</time>
      </trkpt>
      <trkpt lat="44.3191" lon="6.36102">
        <ele>1364.8000488281</ele>
        <time>2016-07-19T07:50:29.000Z</time>
      </trkpt>
      <trkpt lat="44.31903" lon="6.36103">
        <ele>1366.1999511719</ele>
        <time>2016-07-19T07:50:34.000Z</time>
      </trkpt>
      <trkpt lat="44.31898" lon="6.36111">
        <ele>1366.5999755859</ele>
        <time>2016-07-19T07:50:40.000Z</time>
      </trkpt>
      <trkpt lat="44.31891" lon="6.3612">
        <ele>1367.1999511719</ele>
        <time>2016-07-19T07:50:48.000Z</time>
      </trkpt>
      <trkpt lat="44.3189" lon="6.36122">
        <ele>1367</ele>
        <time>2016-07-19T07:50:49.000Z</time>
      </trkpt>
      <trkpt lat="44.31888" lon="6.36124">
        <ele>1367.4000244141</ele>
        <time>2016-07-19T07:50:54.000Z</time>
      </trkpt>
      <trkpt lat="44.31881" lon="6.36137">
        <ele>1367.5999755859</ele>
        <time>2016-07-19T07:51:01.000Z</time>
      </trkpt>
      <trkpt lat="44.31875" lon="6.3615">
        <ele>1367.8000488281</ele>
        <time>2016-07-19T07:51:10.000Z</time>
      </trkpt>
      <trkpt lat="44.31873" lon="6.36154">
        <ele>1368.1999511719</ele>
        <time>2016-07-19T07:51:14.000Z</time>
      </trkpt>
      <trkpt lat="44.31872" lon="6.36157">
        <ele>1368.4000244141</ele>
        <time>2016-07-19T07:51:15.000Z</time>
      </trkpt>
      <trkpt lat="44.31867" lon="6.36168">
        <ele>1368</ele>
        <time>2016-07-19T07:51:24.000Z</time>
      </trkpt>
      <trkpt lat="44.31867" lon="6.36169">
        <ele>1367.8000488281</ele>
        <time>2016-07-19T07:51:25.000Z</time>
      </trkpt>
      <trkpt lat="44.31864" lon="6.36175">
        <ele>1367.5999755859</ele>
        <time>2016-07-19T07:51:30.000Z</time>
      </trkpt>
      <trkpt lat="44.31863" lon="6.36176">
        <ele>1367.5999755859</ele>
        <time>2016-07-19T07:51:32.000Z</time>
      </trkpt>
      <trkpt lat="44.31857" lon="6.36185">
        <ele>1367.8000488281</ele>
        <time>2016-07-19T07:51:38.000Z</time>
      </trkpt>
      <trkpt lat="44.31847" lon="6.36191">
        <ele>1368.8000488281</ele>
        <time>2016-07-19T07:51:47.000Z</time>
      </trkpt>
      <trkpt lat="44.31838" lon="6.36191">
        <ele>1370.1999511719</ele>
        <time>2016-07-19T07:51:54.000Z</time>
      </trkpt>
      <trkpt lat="44.31828" lon="6.36193">
        <ele>1371.4000244141</ele>
        <time>2016-07-19T07:52:02.000Z</time>
      </trkpt>
      <trkpt lat="44.31818" lon="6.36195">
        <ele>1372.1999511719</ele>
        <time>2016-07-19T07:52:10.000Z</time>
      </trkpt>
      <trkpt lat="44.31806" lon="6.36195">
        <ele>1373.1999511719</ele>
        <time>2016-07-19T07:52:20.000Z</time>
      </trkpt>
      <trkpt lat="44.318" lon="6.36197">
        <ele>1373.5999755859</ele>
        <time>2016-07-19T07:52:25.000Z</time>
      </trkpt>
      <trkpt lat="44.31791" lon="6.36205">
        <ele>1373.4000244141</ele>
        <time>2016-07-19T07:52:32.000Z</time>
      </trkpt>
      <trkpt lat="44.31788" lon="6.36207">
        <ele>1373.4000244141</ele>
        <time>2016-07-19T07:52:35.000Z</time>
      </trkpt>
      <trkpt lat="44.31786" lon="6.36208">
        <ele>1373.4000244141</ele>
        <time>2016-07-19T07:52:37.000Z</time>
      </trkpt>
      <trkpt lat="44.31782" lon="6.36211">
        <ele>1373.4000244141</ele>
        <time>2016-07-19T07:52:40.000Z</time>
      </trkpt>
      <trkpt lat="44.31774" lon="6.36213">
        <ele>1374.1999511719</ele>
        <time>2016-07-19T07:52:47.000Z</time>
      </trkpt>
      <trkpt lat="44.3177" lon="6.36212">
        <ele>1374.8000488281</ele>
        <time>2016-07-19T07:52:50.000Z</time>
      </trkpt>
      <trkpt lat="44.31767" lon="6.3621">
        <ele>1375.4000244141</ele>
        <time>2016-07-19T07:52:54.000Z</time>
      </trkpt>
      <trkpt lat="44.31763" lon="6.36206">
        <ele>1376.4000244141</ele>
        <time>2016-07-19T07:52:57.000Z</time>
      </trkpt>
      <trkpt lat="44.31762" lon="6.36196">
        <ele>1377.8000488281</ele>
        <time>2016-07-19T07:53:04.000Z</time>
      </trkpt>
      <trkpt lat="44.31761" lon="6.36196">
        <ele>1378</ele>
        <time>2016-07-19T07:53:05.000Z</time>
      </trkpt>
      <trkpt lat="44.31762" lon="6.36187">
        <ele>1379</ele>
        <time>2016-07-19T07:53:10.000Z</time>
      </trkpt>
      <trkpt lat="44.31763" lon="6.36177">
        <ele>1380.1999511719</ele>
        <time>2016-07-19T07:53:15.000Z</time>
      </trkpt>
      <trkpt lat="44.31763" lon="6.36166">
        <ele>1381.8000488281</ele>
        <time>2016-07-19T07:53:22.000Z</time>
      </trkpt>
      <trkpt lat="44.31762" lon="6.36164">
        <ele>1382</ele>
        <time>2016-07-19T07:53:23.000Z</time>
      </trkpt>
      <trkpt lat="44.31764" lon="6.36152">
        <ele>1383.4000244141</ele>
        <time>2016-07-19T07:53:30.000Z</time>
      </trkpt>
      <trkpt lat="44.31766" lon="6.36147">
        <ele>1383.8000488281</ele>
        <time>2016-07-19T07:53:33.000Z</time>
      </trkpt>
      <trkpt lat="44.31771" lon="6.3613">
        <ele>1384.5999755859</ele>
        <time>2016-07-19T07:53:43.000Z</time>
      </trkpt>
      <trkpt lat="44.31774" lon="6.36121">
        <ele>1385.1999511719</ele>
        <time>2016-07-19T07:53:49.000Z</time>
      </trkpt>
      <trkpt lat="44.31778" lon="6.36097">
        <ele>1387.1999511719</ele>
        <time>2016-07-19T07:54:04.000Z</time>
      </trkpt>
      <trkpt lat="44.31771" lon="6.36097">
        <ele>1387.8000488281</ele>
        <time>2016-07-19T07:54:10.000Z</time>
      </trkpt>
      <trkpt lat="44.31765" lon="6.36106">
        <ele>1387.5999755859</ele>
        <time>2016-07-19T07:54:18.000Z</time>
      </trkpt>
      <trkpt lat="44.31754" lon="6.36113">
        <ele>1388.1999511719</ele>
        <time>2016-07-19T07:54:27.000Z</time>
      </trkpt>
      <trkpt lat="44.31744" lon="6.36117">
        <ele>1388.8000488281</ele>
        <time>2016-07-19T07:54:35.000Z</time>
      </trkpt>
      <trkpt lat="44.31738" lon="6.3612">
        <ele>1389.4000244141</ele>
        <time>2016-07-19T07:54:40.000Z</time>
      </trkpt>
      <trkpt lat="44.31729" lon="6.36121">
        <ele>1390.4000244141</ele>
        <time>2016-07-19T07:54:49.000Z</time>
      </trkpt>
      <trkpt lat="44.31723" lon="6.36121">
        <ele>1391.1999511719</ele>
        <time>2016-07-19T07:54:55.000Z</time>
      </trkpt>
      <trkpt lat="44.31716" lon="6.36122">
        <ele>1391.8000488281</ele>
        <time>2016-07-19T07:55:00.000Z</time>
      </trkpt>
      <trkpt lat="44.31708" lon="6.36123">
        <ele>1392.8000488281</ele>
        <time>2016-07-19T07:55:08.000Z</time>
      </trkpt>
      <trkpt lat="44.31707" lon="6.36123">
        <ele>1393</ele>
        <time>2016-07-19T07:55:09.000Z</time>
      </trkpt>
      <trkpt lat="44.317" lon="6.36123">
        <ele>1393.8000488281</ele>
        <time>2016-07-19T07:55:15.000Z</time>
      </trkpt>
      <trkpt lat="44.31696" lon="6.36122">
        <ele>1394.4000244141</ele>
        <time>2016-07-19T07:55:17.000Z</time>
      </trkpt>
      <trkpt lat="44.31687" lon="6.3612">
        <ele>1396</ele>
        <time>2016-07-19T07:55:23.000Z</time>
      </trkpt>
      <trkpt lat="44.31678" lon="6.36119">
        <ele>1397.5999755859</ele>
        <time>2016-07-19T07:55:29.000Z</time>
      </trkpt>
      <trkpt lat="44.31671" lon="6.36117">
        <ele>1399</ele>
        <time>2016-07-19T07:55:35.000Z</time>
      </trkpt>
      <trkpt lat="44.31665" lon="6.36117">
        <ele>1399.8000488281</ele>
        <time>2016-07-19T07:55:40.000Z</time>
      </trkpt>
      <trkpt lat="44.31658" lon="6.36113">
        <ele>1401.4000244141</ele>
        <time>2016-07-19T07:55:47.000Z</time>
      </trkpt>
      <trkpt lat="44.31645" lon="6.3611">
        <ele>1403.5999755859</ele>
        <time>2016-07-19T07:55:56.000Z</time>
      </trkpt>
      <trkpt lat="44.3162" lon="6.36112">
        <ele>1407</ele>
        <time>2016-07-19T07:56:12.000Z</time>
      </trkpt>
      <trkpt lat="44.31608" lon="6.36119">
        <ele>1407.4000244141</ele>
        <time>2016-07-19T07:56:21.000Z</time>
      </trkpt>
      <trkpt lat="44.31602" lon="6.36131">
        <ele>1406.4000244141</ele>
        <time>2016-07-19T07:56:30.000Z</time>
      </trkpt>
      <trkpt lat="44.31598" lon="6.36142">
        <ele>1406.1999511719</ele>
        <time>2016-07-19T07:56:37.000Z</time>
      </trkpt>
      <trkpt lat="44.31595" lon="6.36147">
        <ele>1406.4000244141</ele>
        <time>2016-07-19T07:56:41.000Z</time>
      </trkpt>
      <trkpt lat="44.31592" lon="6.36152">
        <ele>1406.4000244141</ele>
        <time>2016-07-19T07:56:45.000Z</time>
      </trkpt>
      <trkpt lat="44.31588" lon="6.36162">
        <ele>1406.1999511719</ele>
        <time>2016-07-19T07:56:52.000Z</time>
      </trkpt>
      <trkpt lat="44.31581" lon="6.36168">
        <ele>1406.5999755859</ele>
        <time>2016-07-19T07:56:59.000Z</time>
      </trkpt>
      <trkpt lat="44.31571" lon="6.36175">
        <ele>1407.4000244141</ele>
        <time>2016-07-19T07:57:08.000Z</time>
      </trkpt>
      <trkpt lat="44.31559" lon="6.36178">
        <ele>1408.8000488281</ele>
        <time>2016-07-19T07:57:16.000Z</time>
      </trkpt>
      <trkpt lat="44.31554" lon="6.36179">
        <ele>1409.8000488281</ele>
        <time>2016-07-19T07:57:20.000Z</time>
      </trkpt>
      <trkpt lat="44.31552" lon="6.3617">
        <ele>1410.4000244141</ele>
        <time>2016-07-19T07:57:27.000Z</time>
      </trkpt>
      <trkpt lat="44.31554" lon="6.36168">
        <ele>1410.1999511719</ele>
        <time>2016-07-19T07:57:29.000Z</time>
      </trkpt>
      <trkpt lat="44.31562" lon="6.36163">
        <ele>1409.5999755859</ele>
        <time>2016-07-19T07:57:37.000Z</time>
      </trkpt>
      <trkpt lat="44.31562" lon="6.3615">
        <ele>1410.5999755859</ele>
        <time>2016-07-19T07:57:44.000Z</time>
      </trkpt>
      <trkpt lat="44.31559" lon="6.36146">
        <ele>1411.1999511719</ele>
        <time>2016-07-19T07:57:47.000Z</time>
      </trkpt>
      <trkpt lat="44.31552" lon="6.36136">
        <ele>1412.4000244141</ele>
        <time>2016-07-19T07:57:55.000Z</time>
      </trkpt>
      <trkpt lat="44.31549" lon="6.36121">
        <ele>1413.1999511719</ele>
        <time>2016-07-19T07:58:04.000Z</time>
      </trkpt>
      <trkpt lat="44.31548" lon="6.36108">
        <ele>1413.5999755859</ele>
        <time>2016-07-19T07:58:11.000Z</time>
      </trkpt>
      <trkpt lat="44.31549" lon="6.36099">
        <ele>1413.8000488281</ele>
        <time>2016-07-19T07:58:16.000Z</time>
      </trkpt>
      <trkpt lat="44.3155" lon="6.36095">
        <ele>1413.5999755859</ele>
        <time>2016-07-19T07:58:18.000Z</time>
      </trkpt>
      <trkpt lat="44.31551" lon="6.36086">
        <ele>1413.8000488281</ele>
        <time>2016-07-19T07:58:24.000Z</time>
      </trkpt>
      <trkpt lat="44.31552" lon="6.36084">
        <ele>1413.8000488281</ele>
        <time>2016-07-19T07:58:25.000Z</time>
      </trkpt>
      <trkpt lat="44.31553" lon="6.36077">
        <ele>1414.5999755859</ele>
        <time>2016-07-19T07:58:29.000Z</time>
      </trkpt>
      <trkpt lat="44.31557" lon="6.36069">
        <ele>1415.1999511719</ele>
        <time>2016-07-19T07:58:35.000Z</time>
      </trkpt>
      <trkpt lat="44.31559" lon="6.36061">
        <ele>1415.8000488281</ele>
        <time>2016-07-19T07:58:40.000Z</time>
      </trkpt>
      <trkpt lat="44.3156" lon="6.36053">
        <ele>1416</ele>
        <time>2016-07-19T07:58:43.000Z</time>
      </trkpt>
      <trkpt lat="44.31565" lon="6.36039">
        <ele>1416.1999511719</ele>
        <time>2016-07-19T07:58:51.000Z</time>
      </trkpt>
      <trkpt lat="44.31568" lon="6.36032">
        <ele>1416.4000244141</ele>
        <time>2016-07-19T07:58:55.000Z</time>
      </trkpt>
      <trkpt lat="44.31571" lon="6.36022">
        <ele>1416.5999755859</ele>
        <time>2016-07-19T07:59:01.000Z</time>
      </trkpt>
      <trkpt lat="44.3158" lon="6.36009">
        <ele>1417.8000488281</ele>
        <time>2016-07-19T07:59:10.000Z</time>
      </trkpt>
      <trkpt lat="44.31581" lon="6.36008">
        <ele>1418</ele>
        <time>2016-07-19T07:59:12.000Z</time>
      </trkpt>
      <trkpt lat="44.31588" lon="6.35999">
        <ele>1419</ele>
        <time>2016-07-19T07:59:18.000Z</time>
      </trkpt>
      <trkpt lat="44.31593" lon="6.35987">
        <ele>1420.1999511719</ele>
        <time>2016-07-19T07:59:25.000Z</time>
      </trkpt>
      <trkpt lat="44.31598" lon="6.35975">
        <ele>1421.1999511719</ele>
        <time>2016-07-19T07:59:32.000Z</time>
      </trkpt>
      <trkpt lat="44.31601" lon="6.35963">
        <ele>1422</ele>
        <time>2016-07-19T07:59:40.000Z</time>
      </trkpt>
      <trkpt lat="44.316" lon="6.35951">
        <ele>1422.5999755859</ele>
        <time>2016-07-19T07:59:47.000Z</time>
      </trkpt>
      <trkpt lat="44.31596" lon="6.35937">
        <ele>1423.4000244141</ele>
        <time>2016-07-19T07:59:55.000Z</time>
      </trkpt>
      <trkpt lat="44.31591" lon="6.35921">
        <ele>1424.4000244141</ele>
        <time>2016-07-19T08:00:03.000Z</time>
      </trkpt>
      <trkpt lat="44.3159" lon="6.35915">
        <ele>1424.5999755859</ele>
        <time>2016-07-19T08:00:09.000Z</time>
      </trkpt>
      <trkpt lat="44.31587" lon="6.35908">
        <ele>1425</ele>
        <time>2016-07-19T08:00:14.000Z</time>
      </trkpt>
      <trkpt lat="44.31581" lon="6.35892">
        <ele>1426.8000488281</ele>
        <time>2016-07-19T08:00:23.000Z</time>
      </trkpt>
      <trkpt lat="44.31578" lon="6.35879">
        <ele>1429.4000244141</ele>
        <time>2016-07-19T08:00:29.000Z</time>
      </trkpt>
      <trkpt lat="44.31575" lon="6.35866">
        <ele>1432.4000244141</ele>
        <time>2016-07-19T08:00:37.000Z</time>
      </trkpt>
      <trkpt lat="44.31575" lon="6.35853">
        <ele>1434.5999755859</ele>
        <time>2016-07-19T08:00:43.000Z</time>
      </trkpt>
      <trkpt lat="44.31575" lon="6.35838">
        <ele>1436.4000244141</ele>
        <time>2016-07-19T08:00:50.000Z</time>
      </trkpt>
      <trkpt lat="44.31576" lon="6.35824">
        <ele>1438</ele>
        <time>2016-07-19T08:00:57.000Z</time>
      </trkpt>
      <trkpt lat="44.3158" lon="6.35803">
        <ele>1441.8000488281</ele>
        <time>2016-07-19T08:01:08.000Z</time>
      </trkpt>
      <trkpt lat="44.31582" lon="6.35794">
        <ele>1444</ele>
        <time>2016-07-19T08:01:13.000Z</time>
      </trkpt>
      <trkpt lat="44.3159" lon="6.35779">
        <ele>1447.5999755859</ele>
        <time>2016-07-19T08:01:23.000Z</time>
      </trkpt>
      <trkpt lat="44.31596" lon="6.3577">
        <ele>1449.8000488281</ele>
        <time>2016-07-19T08:01:29.000Z</time>
      </trkpt>
      <trkpt lat="44.31598" lon="6.35765">
        <ele>1451</ele>
        <time>2016-07-19T08:01:32.000Z</time>
      </trkpt>
      <trkpt lat="44.31604" lon="6.35751">
        <ele>1454.8000488281</ele>
        <time>2016-07-19T08:01:40.000Z</time>
      </trkpt>
      <trkpt lat="44.31605" lon="6.3575">
        <ele>1455</ele>
        <time>2016-07-19T08:01:42.000Z</time>
      </trkpt>
      <trkpt lat="44.31611" lon="6.35738">
        <ele>1458</ele>
        <time>2016-07-19T08:01:50.000Z</time>
      </trkpt>
      <trkpt lat="44.31612" lon="6.35736">
        <ele>1458.8000488281</ele>
        <time>2016-07-19T08:01:52.000Z</time>
      </trkpt>
      <trkpt lat="44.31618" lon="6.35724">
        <ele>1460.5999755859</ele>
        <time>2016-07-19T08:02:00.000Z</time>
      </trkpt>
      <trkpt lat="44.31622" lon="6.35714">
        <ele>1462.4000244141</ele>
        <time>2016-07-19T08:02:07.000Z</time>
      </trkpt>
      <trkpt lat="44.31627" lon="6.35704">
        <ele>1463.5999755859</ele>
        <time>2016-07-19T08:02:14.000Z</time>
      </trkpt>
      <trkpt lat="44.31628" lon="6.35702">
        <ele>1463.8000488281</ele>
        <time>2016-07-19T08:02:15.000Z</time>
      </trkpt>
      <trkpt lat="44.3163" lon="6.357">
        <ele>1463.8000488281</ele>
        <time>2016-07-19T08:02:17.000Z</time>
      </trkpt>
      <trkpt lat="44.31633" lon="6.3569">
        <ele>1465.5999755859</ele>
        <time>2016-07-19T08:02:23.000Z</time>
      </trkpt>
      <trkpt lat="44.31634" lon="6.35687">
        <ele>1466.1999511719</ele>
        <time>2016-07-19T08:02:25.000Z</time>
      </trkpt>
      <trkpt lat="44.31635" lon="6.35685">
        <ele>1466.4000244141</ele>
        <time>2016-07-19T08:02:26.000Z</time>
      </trkpt>
      <trkpt lat="44.31636" lon="6.35682">
        <ele>1466.8000488281</ele>
        <time>2016-07-19T08:02:29.000Z</time>
      </trkpt>
      <trkpt lat="44.3164" lon="6.35674">
        <ele>1468</ele>
        <time>2016-07-19T08:02:35.000Z</time>
      </trkpt>
      <trkpt lat="44.31645" lon="6.35665">
        <ele>1470.1999511719</ele>
        <time>2016-07-19T08:02:42.000Z</time>
      </trkpt>
      <trkpt lat="44.31647" lon="6.35652">
        <ele>1474.1999511719</ele>
        <time>2016-07-19T08:02:49.000Z</time>
      </trkpt>
      <trkpt lat="44.31649" lon="6.35642">
        <ele>1475.5999755859</ele>
        <time>2016-07-19T08:02:55.000Z</time>
      </trkpt>
      <trkpt lat="44.31651" lon="6.35624">
        <ele>1475.8000488281</ele>
        <time>2016-07-19T08:03:05.000Z</time>
      </trkpt>
      <trkpt lat="44.31649" lon="6.35613">
        <ele>1476.1999511719</ele>
        <time>2016-07-19T08:03:10.000Z</time>
      </trkpt>
      <trkpt lat="44.31649" lon="6.35612">
        <ele>1476.4000244141</ele>
        <time>2016-07-19T08:03:11.000Z</time>
      </trkpt>
      <trkpt lat="44.31642" lon="6.35601">
        <ele>1477.5999755859</ele>
        <time>2016-07-19T08:03:20.000Z</time>
      </trkpt>
      <trkpt lat="44.31638" lon="6.35595">
        <ele>1478.4000244141</ele>
        <time>2016-07-19T08:03:25.000Z</time>
      </trkpt>
      <trkpt lat="44.31633" lon="6.35587">
        <ele>1479.4000244141</ele>
        <time>2016-07-19T08:03:32.000Z</time>
      </trkpt>
      <trkpt lat="44.31626" lon="6.35579">
        <ele>1480.8000488281</ele>
        <time>2016-07-19T08:03:40.000Z</time>
      </trkpt>
      <trkpt lat="44.31624" lon="6.35576">
        <ele>1481.1999511719</ele>
        <time>2016-07-19T08:03:42.000Z</time>
      </trkpt>
      <trkpt lat="44.31618" lon="6.35568">
        <ele>1482.1999511719</ele>
        <time>2016-07-19T08:03:49.000Z</time>
      </trkpt>
      <trkpt lat="44.31617" lon="6.35567">
        <ele>1482.4000244141</ele>
        <time>2016-07-19T08:03:50.000Z</time>
      </trkpt>
      <trkpt lat="44.31608" lon="6.35554">
        <ele>1481.8000488281</ele>
        <time>2016-07-19T08:04:00.000Z</time>
      </trkpt>
      <trkpt lat="44.31599" lon="6.35539">
        <ele>1480.4000244141</ele>
        <time>2016-07-19T08:04:10.000Z</time>
      </trkpt>
      <trkpt lat="44.31593" lon="6.35528">
        <ele>1479.1999511719</ele>
        <time>2016-07-19T08:04:18.000Z</time>
      </trkpt>
      <trkpt lat="44.3159" lon="6.3552">
        <ele>1478.5999755859</ele>
        <time>2016-07-19T08:04:24.000Z</time>
      </trkpt>
      <trkpt lat="44.3159" lon="6.35518">
        <ele>1478.4000244141</ele>
        <time>2016-07-19T08:04:25.000Z</time>
      </trkpt>
      <trkpt lat="44.31586" lon="6.35509">
        <ele>1477.8000488281</ele>
        <time>2016-07-19T08:04:30.000Z</time>
      </trkpt>
      <trkpt lat="44.31586" lon="6.35507">
        <ele>1477.5999755859</ele>
        <time>2016-07-19T08:04:32.000Z</time>
      </trkpt>
      <trkpt lat="44.31579" lon="6.35489">
        <ele>1476.1999511719</ele>
        <time>2016-07-19T08:04:42.000Z</time>
      </trkpt>
      <trkpt lat="44.31577" lon="6.35486">
        <ele>1475.8000488281</ele>
        <time>2016-07-19T08:04:44.000Z</time>
      </trkpt>
      <trkpt lat="44.31571" lon="6.35479">
        <ele>1475</ele>
        <time>2016-07-19T08:04:50.000Z</time>
      </trkpt>
      <trkpt lat="44.31564" lon="6.35473">
        <ele>1474.5999755859</ele>
        <time>2016-07-19T08:04:56.000Z</time>
      </trkpt>
      <trkpt lat="44.31561" lon="6.35469">
        <ele>1474.5999755859</ele>
        <time>2016-07-19T08:05:04.000Z</time>
      </trkpt>
      <trkpt lat="44.31563" lon="6.35468">
        <ele>1475</ele>
        <time>2016-07-19T08:05:23.000Z</time>
      </trkpt>
      <trkpt lat="44.31556" lon="6.35461">
        <ele>1474.8000488281</ele>
        <time>2016-07-19T08:05:30.000Z</time>
      </trkpt>
      <trkpt lat="44.3155" lon="6.35453">
        <ele>1474.5999755859</ele>
        <time>2016-07-19T08:05:38.000Z</time>
      </trkpt>
      <trkpt lat="44.31542" lon="6.35444">
        <ele>1474.5999755859</ele>
        <time>2016-07-19T08:05:45.000Z</time>
      </trkpt>
      <trkpt lat="44.31536" lon="6.35441">
        <ele>1474.1999511719</ele>
        <time>2016-07-19T08:05:52.000Z</time>
      </trkpt>
      <trkpt lat="44.31533" lon="6.35436">
        <ele>1474</ele>
        <time>2016-07-19T08:05:55.000Z</time>
      </trkpt>
      <trkpt lat="44.31523" lon="6.35429">
        <ele>1474</ele>
        <time>2016-07-19T08:06:07.000Z</time>
      </trkpt>
      <trkpt lat="44.31519" lon="6.35424">
        <ele>1474.1999511719</ele>
        <time>2016-07-19T08:06:14.000Z</time>
      </trkpt>
      <trkpt lat="44.31514" lon="6.35422">
        <ele>1474.1999511719</ele>
        <time>2016-07-19T08:06:19.000Z</time>
      </trkpt>
      <trkpt lat="44.31511" lon="6.3542">
        <ele>1474.1999511719</ele>
        <time>2016-07-19T08:06:22.000Z</time>
      </trkpt>
      <trkpt lat="44.315" lon="6.3541">
        <ele>1474.4000244141</ele>
        <time>2016-07-19T08:06:32.000Z</time>
      </trkpt>
      <trkpt lat="44.31488" lon="6.35401">
        <ele>1474.8000488281</ele>
        <time>2016-07-19T08:06:42.000Z</time>
      </trkpt>
      <trkpt lat="44.31485" lon="6.35398">
        <ele>1474.8000488281</ele>
        <time>2016-07-19T08:06:44.000Z</time>
      </trkpt>
      <trkpt lat="44.31477" lon="6.35394">
        <ele>1475</ele>
        <time>2016-07-19T08:06:50.000Z</time>
      </trkpt>
      <trkpt lat="44.31469" lon="6.35387">
        <ele>1475.5999755859</ele>
        <time>2016-07-19T08:06:57.000Z</time>
      </trkpt>
      <trkpt lat="44.31456" lon="6.35381">
        <ele>1476</ele>
        <time>2016-07-19T08:07:06.000Z</time>
      </trkpt>
      <trkpt lat="44.31442" lon="6.35379">
        <ele>1475.8000488281</ele>
        <time>2016-07-19T08:07:17.000Z</time>
      </trkpt>
      <trkpt lat="44.31432" lon="6.35375">
        <ele>1475.5999755859</ele>
        <time>2016-07-19T08:07:25.000Z</time>
      </trkpt>
      <trkpt lat="44.31422" lon="6.35369">
        <ele>1476</ele>
        <time>2016-07-19T08:07:32.000Z</time>
      </trkpt>
      <trkpt lat="44.31418" lon="6.35364">
        <ele>1476.5999755859</ele>
        <time>2016-07-19T08:07:37.000Z</time>
      </trkpt>
      <trkpt lat="44.31413" lon="6.35358">
        <ele>1477.1999511719</ele>
        <time>2016-07-19T08:07:42.000Z</time>
      </trkpt>
      <trkpt lat="44.31406" lon="6.3535">
        <ele>1478</ele>
        <time>2016-07-19T08:07:48.000Z</time>
      </trkpt>
      <trkpt lat="44.314" lon="6.35341">
        <ele>1479</ele>
        <time>2016-07-19T08:07:55.000Z</time>
      </trkpt>
      <trkpt lat="44.31392" lon="6.35329">
        <ele>1480.4000244141</ele>
        <time>2016-07-19T08:08:02.000Z</time>
      </trkpt>
      <trkpt lat="44.31385" lon="6.35317">
        <ele>1481.8000488281</ele>
        <time>2016-07-19T08:08:11.000Z</time>
      </trkpt>
      <trkpt lat="44.31383" lon="6.35315">
        <ele>1482.1999511719</ele>
        <time>2016-07-19T08:08:13.000Z</time>
      </trkpt>
      <trkpt lat="44.31383" lon="6.35302">
        <ele>1482.1999511719</ele>
        <time>2016-07-19T08:08:20.000Z</time>
      </trkpt>
      <trkpt lat="44.31392" lon="6.35293">
        <ele>1482.8000488281</ele>
        <time>2016-07-19T08:08:26.000Z</time>
      </trkpt>
      <trkpt lat="44.31404" lon="6.35284">
        <ele>1483.4000244141</ele>
        <time>2016-07-19T08:08:37.000Z</time>
      </trkpt>
      <trkpt lat="44.31416" lon="6.35271">
        <ele>1484.1999511719</ele>
        <time>2016-07-19T08:08:47.000Z</time>
      </trkpt>
      <trkpt lat="44.31427" lon="6.35265">
        <ele>1484.8000488281</ele>
        <time>2016-07-19T08:08:55.000Z</time>
      </trkpt>
      <trkpt lat="44.31448" lon="6.35243">
        <ele>1486</ele>
        <time>2016-07-19T08:09:14.000Z</time>
      </trkpt>
      <trkpt lat="44.31451" lon="6.35239">
        <ele>1486</ele>
        <time>2016-07-19T08:09:18.000Z</time>
      </trkpt>
      <trkpt lat="44.31457" lon="6.35231">
        <ele>1486.8000488281</ele>
        <time>2016-07-19T08:09:24.000Z</time>
      </trkpt>
      <trkpt lat="44.31463" lon="6.35222">
        <ele>1487.5999755859</ele>
        <time>2016-07-19T08:09:32.000Z</time>
      </trkpt>
      <trkpt lat="44.31465" lon="6.3522">
        <ele>1487.8000488281</ele>
        <time>2016-07-19T08:09:33.000Z</time>
      </trkpt>
      <trkpt lat="44.3147" lon="6.35205">
        <ele>1488.5999755859</ele>
        <time>2016-07-19T08:09:43.000Z</time>
      </trkpt>
      <trkpt lat="44.31474" lon="6.35187">
        <ele>1489.1999511719</ele>
        <time>2016-07-19T08:09:52.000Z</time>
      </trkpt>
      <trkpt lat="44.3148" lon="6.3517">
        <ele>1489.5999755859</ele>
        <time>2016-07-19T08:10:02.000Z</time>
      </trkpt>
      <trkpt lat="44.31485" lon="6.35162">
        <ele>1490</ele>
        <time>2016-07-19T08:10:08.000Z</time>
      </trkpt>
      <trkpt lat="44.31489" lon="6.35149">
        <ele>1490</ele>
        <time>2016-07-19T08:10:15.000Z</time>
      </trkpt>
      <trkpt lat="44.3149" lon="6.35136">
        <ele>1491</ele>
        <time>2016-07-19T08:10:22.000Z</time>
      </trkpt>
      <trkpt lat="44.31492" lon="6.3512">
        <ele>1492.1999511719</ele>
        <time>2016-07-19T08:10:30.000Z</time>
      </trkpt>
      <trkpt lat="44.31488" lon="6.35108">
        <ele>1492.8000488281</ele>
        <time>2016-07-19T08:10:35.000Z</time>
      </trkpt>
      <trkpt lat="44.31481" lon="6.35105">
        <ele>1492.5999755859</ele>
        <time>2016-07-19T08:10:42.000Z</time>
      </trkpt>
      <trkpt lat="44.31468" lon="6.35107">
        <ele>1491.4000244141</ele>
        <time>2016-07-19T08:10:53.000Z</time>
      </trkpt>
      <trkpt lat="44.31454" lon="6.35108">
        <ele>1490.4000244141</ele>
        <time>2016-07-19T08:11:04.000Z</time>
      </trkpt>
      <trkpt lat="44.31433" lon="6.35105">
        <ele>1490</ele>
        <time>2016-07-19T08:11:20.000Z</time>
      </trkpt>
      <trkpt lat="44.31422" lon="6.35105">
        <ele>1490</ele>
        <time>2016-07-19T08:11:28.000Z</time>
      </trkpt>
      <trkpt lat="44.31412" lon="6.35104">
        <ele>1490.1999511719</ele>
        <time>2016-07-19T08:11:35.000Z</time>
      </trkpt>
      <trkpt lat="44.31401" lon="6.35101">
        <ele>1490.4000244141</ele>
        <time>2016-07-19T08:11:44.000Z</time>
      </trkpt>
      <trkpt lat="44.31374" lon="6.35098">
        <ele>1490</ele>
        <time>2016-07-19T08:12:03.000Z</time>
      </trkpt>
      <trkpt lat="44.31366" lon="6.35096">
        <ele>1490</ele>
        <time>2016-07-19T08:12:10.000Z</time>
      </trkpt>
      <trkpt lat="44.31354" lon="6.35096">
        <ele>1489.8000488281</ele>
        <time>2016-07-19T08:12:19.000Z</time>
      </trkpt>
      <trkpt lat="44.31343" lon="6.35099">
        <ele>1489.1999511719</ele>
        <time>2016-07-19T08:12:27.000Z</time>
      </trkpt>
      <trkpt lat="44.31332" lon="6.35105">
        <ele>1488.4000244141</ele>
        <time>2016-07-19T08:12:35.000Z</time>
      </trkpt>
      <trkpt lat="44.3132" lon="6.35113">
        <ele>1486.8000488281</ele>
        <time>2016-07-19T08:12:44.000Z</time>
      </trkpt>
      <trkpt lat="44.31309" lon="6.35117">
        <ele>1485.1999511719</ele>
        <time>2016-07-19T08:12:52.000Z</time>
      </trkpt>
      <trkpt lat="44.31295" lon="6.35117">
        <ele>1484</ele>
        <time>2016-07-19T08:13:02.000Z</time>
      </trkpt>
      <trkpt lat="44.31285" lon="6.35116">
        <ele>1483.1999511719</ele>
        <time>2016-07-19T08:13:09.000Z</time>
      </trkpt>
      <trkpt lat="44.31281" lon="6.35117">
        <ele>1482.8000488281</ele>
        <time>2016-07-19T08:13:15.000Z</time>
      </trkpt>
      <trkpt lat="44.3128" lon="6.35117">
        <ele>1482.8000488281</ele>
        <time>2016-07-19T08:13:16.000Z</time>
      </trkpt>
      <trkpt lat="44.31277" lon="6.35118">
        <ele>1482.1999511719</ele>
        <time>2016-07-19T08:13:19.000Z</time>
      </trkpt>
      <trkpt lat="44.31264" lon="6.35117">
        <ele>1481.5999755859</ele>
        <time>2016-07-19T08:13:28.000Z</time>
      </trkpt>
      <trkpt lat="44.31257" lon="6.35113">
        <ele>1481.8000488281</ele>
        <time>2016-07-19T08:13:35.000Z</time>
      </trkpt>
      <trkpt lat="44.31252" lon="6.35112">
        <ele>1481.5999755859</ele>
        <time>2016-07-19T08:13:48.000Z</time>
      </trkpt>
      <trkpt lat="44.31243" lon="6.3511">
        <ele>1481.1999511719</ele>
        <time>2016-07-19T08:13:55.000Z</time>
      </trkpt>
      <trkpt lat="44.31226" lon="6.35106">
        <ele>1480</ele>
        <time>2016-07-19T08:14:06.000Z</time>
      </trkpt>
      <trkpt lat="44.31213" lon="6.35104">
        <ele>1479</ele>
        <time>2016-07-19T08:14:15.000Z</time>
      </trkpt>
      <trkpt lat="44.31202" lon="6.35103">
        <ele>1478.1999511719</ele>
        <time>2016-07-19T08:14:22.000Z</time>
      </trkpt>
      <trkpt lat="44.3119" lon="6.35101">
        <ele>1477.1999511719</ele>
        <time>2016-07-19T08:14:30.000Z</time>
      </trkpt>
      <trkpt lat="44.31188" lon="6.351">
        <ele>1477</ele>
        <time>2016-07-19T08:14:32.000Z</time>
      </trkpt>
      <trkpt lat="44.31176" lon="6.35101">
        <ele>1475.5999755859</ele>
        <time>2016-07-19T08:14:40.000Z</time>
      </trkpt>
      <trkpt lat="44.31166" lon="6.35102">
        <ele>1474.4000244141</ele>
        <time>2016-07-19T08:14:47.000Z</time>
      </trkpt>
      <trkpt lat="44.31161" lon="6.35102">
        <ele>1473.8000488281</ele>
        <time>2016-07-19T08:14:52.000Z</time>
      </trkpt>
      <trkpt lat="44.31152" lon="6.35107">
        <ele>1472.1999511719</ele>
        <time>2016-07-19T08:14:59.000Z</time>
      </trkpt>
      <trkpt lat="44.31151" lon="6.35107">
        <ele>1472.1999511719</ele>
        <time>2016-07-19T08:15:00.000Z</time>
      </trkpt>
      <trkpt lat="44.3115" lon="6.35108">
        <ele>1472</ele>
        <time>2016-07-19T08:15:02.000Z</time>
      </trkpt>
      <trkpt lat="44.3114" lon="6.35111">
        <ele>1471.1999511719</ele>
        <time>2016-07-19T08:15:09.000Z</time>
      </trkpt>
      <trkpt lat="44.31129" lon="6.35115">
        <ele>1470</ele>
        <time>2016-07-19T08:15:16.000Z</time>
      </trkpt>
      <trkpt lat="44.31118" lon="6.35117">
        <ele>1469.1999511719</ele>
        <time>2016-07-19T08:15:24.000Z</time>
      </trkpt>
      <trkpt lat="44.31108" lon="6.35116">
        <ele>1469.5999755859</ele>
        <time>2016-07-19T08:15:31.000Z</time>
      </trkpt>
      <trkpt lat="44.31099" lon="6.35113">
        <ele>1470.8000488281</ele>
        <time>2016-07-19T08:15:37.000Z</time>
      </trkpt>
      <trkpt lat="44.31091" lon="6.35109">
        <ele>1472.1999511719</ele>
        <time>2016-07-19T08:15:44.000Z</time>
      </trkpt>
      <trkpt lat="44.31082" lon="6.35099">
        <ele>1474.4000244141</ele>
        <time>2016-07-19T08:15:53.000Z</time>
      </trkpt>
      <trkpt lat="44.31078" lon="6.35091">
        <ele>1475.8000488281</ele>
        <time>2016-07-19T08:15:58.000Z</time>
      </trkpt>
      <trkpt lat="44.31075" lon="6.35083">
        <ele>1477.1999511719</ele>
        <time>2016-07-19T08:16:03.000Z</time>
      </trkpt>
      <trkpt lat="44.31067" lon="6.35078">
        <ele>1478.5999755859</ele>
        <time>2016-07-19T08:16:10.000Z</time>
      </trkpt>
      <trkpt lat="44.31065" lon="6.35078">
        <ele>1478.8000488281</ele>
        <time>2016-07-19T08:16:12.000Z</time>
      </trkpt>
      <trkpt lat="44.31059" lon="6.35087">
        <ele>1478.1999511719</ele>
        <time>2016-07-19T08:16:19.000Z</time>
      </trkpt>
      <trkpt lat="44.31055" lon="6.35097">
        <ele>1476.8000488281</ele>
        <time>2016-07-19T08:16:26.000Z</time>
      </trkpt>
      <trkpt lat="44.31051" lon="6.35106">
        <ele>1475.1999511719</ele>
        <time>2016-07-19T08:16:31.000Z</time>
      </trkpt>
      <trkpt lat="44.31049" lon="6.35108">
        <ele>1474.8000488281</ele>
        <time>2016-07-19T08:16:33.000Z</time>
      </trkpt>
      <trkpt lat="44.31044" lon="6.35113">
        <ele>1474</ele>
        <time>2016-07-19T08:16:38.000Z</time>
      </trkpt>
      <trkpt lat="44.31042" lon="6.35114">
        <ele>1474</ele>
        <time>2016-07-19T08:16:40.000Z</time>
      </trkpt>
      <trkpt lat="44.31037" lon="6.3512">
        <ele>1473.1999511719</ele>
        <time>2016-07-19T08:16:46.000Z</time>
      </trkpt>
      <trkpt lat="44.31031" lon="6.35124">
        <ele>1472.5999755859</ele>
        <time>2016-07-19T08:16:52.000Z</time>
      </trkpt>
      <trkpt lat="44.31028" lon="6.35126">
        <ele>1472.4000244141</ele>
        <time>2016-07-19T08:16:57.000Z</time>
      </trkpt>
      <trkpt lat="44.31019" lon="6.35131">
        <ele>1472.1999511719</ele>
        <time>2016-07-19T08:17:04.000Z</time>
      </trkpt>
      <trkpt lat="44.31016" lon="6.35134">
        <ele>1472</ele>
        <time>2016-07-19T08:17:08.000Z</time>
      </trkpt>
      <trkpt lat="44.31004" lon="6.3514">
        <ele>1470</ele>
        <time>2016-07-19T08:17:16.000Z</time>
      </trkpt>
      <trkpt lat="44.30992" lon="6.35145">
        <ele>1468.8000488281</ele>
        <time>2016-07-19T08:17:24.000Z</time>
      </trkpt>
      <trkpt lat="44.3098" lon="6.35148">
        <ele>1468</ele>
        <time>2016-07-19T08:17:33.000Z</time>
      </trkpt>
      <trkpt lat="44.30973" lon="6.35147">
        <ele>1468</ele>
        <time>2016-07-19T08:17:38.000Z</time>
      </trkpt>
      <trkpt lat="44.30968" lon="6.35149">
        <ele>1467.8000488281</ele>
        <time>2016-07-19T08:17:42.000Z</time>
      </trkpt>
      <trkpt lat="44.30965" lon="6.35151">
        <ele>1467.5999755859</ele>
        <time>2016-07-19T08:17:50.000Z</time>
      </trkpt>
      <trkpt lat="44.3096" lon="6.35156">
        <ele>1467.1999511719</ele>
        <time>2016-07-19T08:17:59.000Z</time>
      </trkpt>
      <trkpt lat="44.30958" lon="6.35157">
        <ele>1467.1999511719</ele>
        <time>2016-07-19T08:18:00.000Z</time>
      </trkpt>
      <trkpt lat="44.30948" lon="6.35162">
        <ele>1465.4000244141</ele>
        <time>2016-07-19T08:18:09.000Z</time>
      </trkpt>
      <trkpt lat="44.30937" lon="6.35163">
        <ele>1465</ele>
        <time>2016-07-19T08:18:16.000Z</time>
      </trkpt>
      <trkpt lat="44.30928" lon="6.35163">
        <ele>1465.1999511719</ele>
        <time>2016-07-19T08:18:22.000Z</time>
      </trkpt>
      <trkpt lat="44.30916" lon="6.35163">
        <ele>1465.4000244141</ele>
        <time>2016-07-19T08:18:30.000Z</time>
      </trkpt>
      <trkpt lat="44.30907" lon="6.35163">
        <ele>1465.4000244141</ele>
        <time>2016-07-19T08:18:36.000Z</time>
      </trkpt>
      <trkpt lat="44.30901" lon="6.35163">
        <ele>1465.5999755859</ele>
        <time>2016-07-19T08:18:41.000Z</time>
      </trkpt>
      <trkpt lat="44.30896" lon="6.35163">
        <ele>1465.5999755859</ele>
        <time>2016-07-19T08:18:49.000Z</time>
      </trkpt>
      <trkpt lat="44.30888" lon="6.35164">
        <ele>1465.5999755859</ele>
        <time>2016-07-19T08:18:56.000Z</time>
      </trkpt>
      <trkpt lat="44.30874" lon="6.3516">
        <ele>1466.5999755859</ele>
        <time>2016-07-19T08:19:06.000Z</time>
      </trkpt>
      <trkpt lat="44.3087" lon="6.35158">
        <ele>1467</ele>
        <time>2016-07-19T08:19:09.000Z</time>
      </trkpt>
      <trkpt lat="44.30865" lon="6.35156">
        <ele>1467.4000244141</ele>
        <time>2016-07-19T08:19:13.000Z</time>
      </trkpt>
      <trkpt lat="44.30855" lon="6.35151">
        <ele>1469</ele>
        <time>2016-07-19T08:19:21.000Z</time>
      </trkpt>
      <trkpt lat="44.30849" lon="6.3515">
        <ele>1469.5999755859</ele>
        <time>2016-07-19T08:19:26.000Z</time>
      </trkpt>
      <trkpt lat="44.3084" lon="6.35154">
        <ele>1469.5999755859</ele>
        <time>2016-07-19T08:19:33.000Z</time>
      </trkpt>
      <trkpt lat="44.30833" lon="6.35157">
        <ele>1469.4000244141</ele>
        <time>2016-07-19T08:19:39.000Z</time>
      </trkpt>
      <trkpt lat="44.30831" lon="6.35158">
        <ele>1469.4000244141</ele>
        <time>2016-07-19T08:19:40.000Z</time>
      </trkpt>
      <trkpt lat="44.30821" lon="6.35159">
        <ele>1470</ele>
        <time>2016-07-19T08:19:48.000Z</time>
      </trkpt>
      <trkpt lat="44.3081" lon="6.35161">
        <ele>1470.4000244141</ele>
        <time>2016-07-19T08:19:56.000Z</time>
      </trkpt>
      <trkpt lat="44.30798" lon="6.35167">
        <ele>1470.1999511719</ele>
        <time>2016-07-19T08:20:05.000Z</time>
      </trkpt>
      <trkpt lat="44.30788" lon="6.35175">
        <ele>1469</ele>
        <time>2016-07-19T08:20:13.000Z</time>
      </trkpt>
      <trkpt lat="44.30782" lon="6.35179">
        <ele>1468.4000244141</ele>
        <time>2016-07-19T08:20:18.000Z</time>
      </trkpt>
      <trkpt lat="44.30775" lon="6.35186">
        <ele>1467.1999511719</ele>
        <time>2016-07-19T08:20:25.000Z</time>
      </trkpt>
      <trkpt lat="44.30765" lon="6.35193">
        <ele>1465.5999755859</ele>
        <time>2016-07-19T08:20:33.000Z</time>
      </trkpt>
      <trkpt lat="44.30757" lon="6.35195">
        <ele>1465.1999511719</ele>
        <time>2016-07-19T08:20:39.000Z</time>
      </trkpt>
      <trkpt lat="44.30756" lon="6.35195">
        <ele>1465.1999511719</ele>
        <time>2016-07-19T08:20:40.000Z</time>
      </trkpt>
      <trkpt lat="44.30751" lon="6.35196">
        <ele>1465</ele>
        <time>2016-07-19T08:20:44.000Z</time>
      </trkpt>
      <trkpt lat="44.30748" lon="6.35194">
        <ele>1465.4000244141</ele>
        <time>2016-07-19T08:20:50.000Z</time>
      </trkpt>
      <trkpt lat="44.30743" lon="6.3519">
        <ele>1466.4000244141</ele>
        <time>2016-07-19T08:21:02.000Z</time>
      </trkpt>
      <trkpt lat="44.30733" lon="6.3519">
        <ele>1467.1999511719</ele>
        <time>2016-07-19T08:21:10.000Z</time>
      </trkpt>
      <trkpt lat="44.30723" lon="6.35191">
        <ele>1468.4000244141</ele>
        <time>2016-07-19T08:21:18.000Z</time>
      </trkpt>
      <trkpt lat="44.30712" lon="6.35191">
        <ele>1469.8000488281</ele>
        <time>2016-07-19T08:21:26.000Z</time>
      </trkpt>
      <trkpt lat="44.30695" lon="6.35187">
        <ele>1472.1999511719</ele>
        <time>2016-07-19T08:21:37.000Z</time>
      </trkpt>
      <trkpt lat="44.30681" lon="6.35178">
        <ele>1473.4000244141</ele>
        <time>2016-07-19T08:21:48.000Z</time>
      </trkpt>
      <trkpt lat="44.30674" lon="6.35168">
        <ele>1474.4000244141</ele>
        <time>2016-07-19T08:22:08.000Z</time>
      </trkpt>
      <trkpt lat="44.3067" lon="6.35163">
        <ele>1474.8000488281</ele>
        <time>2016-07-19T08:22:18.000Z</time>
      </trkpt>
      <trkpt lat="44.3067" lon="6.35162">
        <ele>1475</ele>
        <time>2016-07-19T08:22:26.000Z</time>
      </trkpt>
      <trkpt lat="44.30672" lon="6.35166">
        <ele>1474.5999755859</ele>
        <time>2016-07-19T08:22:43.000Z</time>
      </trkpt>
      <trkpt lat="44.30677" lon="6.35167">
        <ele>1474.4000244141</ele>
        <time>2016-07-19T08:22:48.000Z</time>
      </trkpt>
      <trkpt lat="44.30678" lon="6.35166">
        <ele>1474.4000244141</ele>
        <time>2016-07-19T08:22:58.000Z</time>
      </trkpt>
      <trkpt lat="44.30677" lon="6.35163">
        <ele>1474.5999755859</ele>
        <time>2016-07-19T08:23:07.000Z</time>
      </trkpt>
      <trkpt lat="44.30676" lon="6.35164">
        <ele>1474.5999755859</ele>
        <time>2016-07-19T08:23:21.000Z</time>
      </trkpt>
      <trkpt lat="44.3068" lon="6.35163">
        <ele>1474.5999755859</ele>
        <time>2016-07-19T08:24:57.000Z</time>
      </trkpt>
      <trkpt lat="44.3068" lon="6.35151">
        <ele>1475.4000244141</ele>
        <time>2016-07-19T08:25:04.000Z</time>
      </trkpt>
      <trkpt lat="44.30679" lon="6.35149">
        <ele>1475.5999755859</ele>
        <time>2016-07-19T08:25:11.000Z</time>
      </trkpt>
      <trkpt lat="44.30679" lon="6.3515">
        <ele>1475.4000244141</ele>
        <time>2016-07-19T08:25:35.000Z</time>
      </trkpt>
      <trkpt lat="44.30679" lon="6.35155">
        <ele>1475.1999511719</ele>
        <time>2016-07-19T08:25:59.000Z</time>
      </trkpt>
      <trkpt lat="44.30679" lon="6.35156">
        <ele>1475</ele>
        <time>2016-07-19T08:26:00.000Z</time>
      </trkpt>
      <trkpt lat="44.30677" lon="6.35165">
        <ele>1474.4000244141</ele>
        <time>2016-07-19T08:26:08.000Z</time>
      </trkpt>
      <trkpt lat="44.30676" lon="6.35168">
        <ele>1474.4000244141</ele>
        <time>2016-07-19T08:26:18.000Z</time>
      </trkpt>
      <trkpt lat="44.30672" lon="6.35168">
        <ele>1474.4000244141</ele>
        <time>2016-07-19T08:26:22.000Z</time>
      </trkpt>
      <trkpt lat="44.30676" lon="6.35172">
        <ele>1474</ele>
        <time>2016-07-19T08:26:29.000Z</time>
      </trkpt>
      <trkpt lat="44.30678" lon="6.35177">
        <ele>1473.5999755859</ele>
        <time>2016-07-19T08:26:35.000Z</time>
      </trkpt>
      <trkpt lat="44.30677" lon="6.35171">
        <ele>1474</ele>
        <time>2016-07-19T08:26:53.000Z</time>
      </trkpt>
      <trkpt lat="44.30676" lon="6.3517">
        <ele>1474.1999511719</ele>
        <time>2016-07-19T08:26:54.000Z</time>
      </trkpt>
      <trkpt lat="44.30675" lon="6.35163">
        <ele>1474.5999755859</ele>
        <time>2016-07-19T08:27:01.000Z</time>
      </trkpt>
      <trkpt lat="44.30674" lon="6.35161">
        <ele>1474.8000488281</ele>
        <time>2016-07-19T08:27:06.000Z</time>
      </trkpt>
      <trkpt lat="44.30672" lon="6.35165">
        <ele>1474.5999755859</ele>
        <time>2016-07-19T08:27:16.000Z</time>
      </trkpt>
      <trkpt lat="44.30671" lon="6.35166">
        <ele>1474.5999755859</ele>
        <time>2016-07-19T08:27:23.000Z</time>
      </trkpt>
      <trkpt lat="44.30673" lon="6.35163">
        <ele>1474.8000488281</ele>
        <time>2016-07-19T08:27:55.000Z</time>
      </trkpt>
      <trkpt lat="44.30675" lon="6.35161">
        <ele>1474.8000488281</ele>
        <time>2016-07-19T08:27:57.000Z</time>
      </trkpt>
      <trkpt lat="44.30676" lon="6.35161">
        <ele>1474.8000488281</ele>
        <time>2016-07-19T08:28:04.000Z</time>
      </trkpt>
      <trkpt lat="44.30679" lon="6.3516">
        <ele>1474.8000488281</ele>
        <time>2016-07-19T08:28:27.000Z</time>
      </trkpt>
      <trkpt lat="44.30677" lon="6.35164">
        <ele>1474.5999755859</ele>
        <time>2016-07-19T08:28:31.000Z</time>
      </trkpt>
      <trkpt lat="44.30668" lon="6.35159">
        <ele>1475.1999511719</ele>
        <time>2016-07-19T08:28:39.000Z</time>
      </trkpt>
      <trkpt lat="44.30667" lon="6.35157">
        <ele>1475.4000244141</ele>
        <time>2016-07-19T08:28:40.000Z</time>
      </trkpt>
      <trkpt lat="44.30661" lon="6.35145">
        <ele>1476.4000244141</ele>
        <time>2016-07-19T08:28:48.000Z</time>
      </trkpt>
      <trkpt lat="44.30651" lon="6.3513">
        <ele>1476.8000488281</ele>
        <time>2016-07-19T08:28:58.000Z</time>
      </trkpt>
      <trkpt lat="44.3064" lon="6.35115">
        <ele>1477.4000244141</ele>
        <time>2016-07-19T08:29:09.000Z</time>
      </trkpt>
      <trkpt lat="44.30631" lon="6.35111">
        <ele>1477.8000488281</ele>
        <time>2016-07-19T08:29:15.000Z</time>
      </trkpt>
      <trkpt lat="44.3062" lon="6.35108">
        <ele>1478.1999511719</ele>
        <time>2016-07-19T08:29:23.000Z</time>
      </trkpt>
      <trkpt lat="44.30609" lon="6.35105">
        <ele>1477.8000488281</ele>
        <time>2016-07-19T08:29:31.000Z</time>
      </trkpt>
      <trkpt lat="44.30605" lon="6.35106">
        <ele>1477.1999511719</ele>
        <time>2016-07-19T08:29:34.000Z</time>
      </trkpt>
      <trkpt lat="44.30596" lon="6.35106">
        <ele>1475.5999755859</ele>
        <time>2016-07-19T08:29:41.000Z</time>
      </trkpt>
      <trkpt lat="44.30586" lon="6.35105">
        <ele>1473.8000488281</ele>
        <time>2016-07-19T08:29:49.000Z</time>
      </trkpt>
      <trkpt lat="44.30573" lon="6.35102">
        <ele>1471.5999755859</ele>
        <time>2016-07-19T08:29:57.000Z</time>
      </trkpt>
      <trkpt lat="44.30563" lon="6.35099">
        <ele>1470.4000244141</ele>
        <time>2016-07-19T08:30:04.000Z</time>
      </trkpt>
      <trkpt lat="44.30552" lon="6.35094">
        <ele>1469.4000244141</ele>
        <time>2016-07-19T08:30:12.000Z</time>
      </trkpt>
      <trkpt lat="44.30541" lon="6.35093">
        <ele>1469</ele>
        <time>2016-07-19T08:30:19.000Z</time>
      </trkpt>
      <trkpt lat="44.30525" lon="6.3509">
        <ele>1468.4000244141</ele>
        <time>2016-07-19T08:30:29.000Z</time>
      </trkpt>
      <trkpt lat="44.30512" lon="6.35083">
        <ele>1468</ele>
        <time>2016-07-19T08:30:37.000Z</time>
      </trkpt>
      <trkpt lat="44.30504" lon="6.35079">
        <ele>1467.5999755859</ele>
        <time>2016-07-19T08:30:43.000Z</time>
      </trkpt>
      <trkpt lat="44.30495" lon="6.35071">
        <ele>1466.8000488281</ele>
        <time>2016-07-19T08:30:50.000Z</time>
      </trkpt>
      <trkpt lat="44.30486" lon="6.35063">
        <ele>1466.4000244141</ele>
        <time>2016-07-19T08:30:59.000Z</time>
      </trkpt>
      <trkpt lat="44.3048" lon="6.35053">
        <ele>1470</ele>
        <time>2016-07-19T08:31:06.000Z</time>
      </trkpt>
      <trkpt lat="44.30474" lon="6.35044">
        <ele>1473.1999511719</ele>
        <time>2016-07-19T08:31:14.000Z</time>
      </trkpt>
      <trkpt lat="44.30468" lon="6.35048">
        <ele>1471.8000488281</ele>
        <time>2016-07-19T08:31:20.000Z</time>
      </trkpt>
      <trkpt lat="44.30459" lon="6.3506">
        <ele>1468</ele>
        <time>2016-07-19T08:31:29.000Z</time>
      </trkpt>
      <trkpt lat="44.30455" lon="6.35066">
        <ele>1467</ele>
        <time>2016-07-19T08:31:34.000Z</time>
      </trkpt>
      <trkpt lat="44.30451" lon="6.3507">
        <ele>1467.1999511719</ele>
        <time>2016-07-19T08:31:40.000Z</time>
      </trkpt>
      <trkpt lat="44.30444" lon="6.35076">
        <ele>1465.8000488281</ele>
        <time>2016-07-19T08:31:46.000Z</time>
      </trkpt>
      <trkpt lat="44.30436" lon="6.35083">
        <ele>1466.5999755859</ele>
        <time>2016-07-19T08:31:53.000Z</time>
      </trkpt>
      <trkpt lat="44.30429" lon="6.35087">
        <ele>1467.5999755859</ele>
        <time>2016-07-19T08:32:00.000Z</time>
      </trkpt>
      <trkpt lat="44.3042" lon="6.35095">
        <ele>1468.1999511719</ele>
        <time>2016-07-19T08:32:08.000Z</time>
      </trkpt>
      <trkpt lat="44.30408" lon="6.35105">
        <ele>1469.4000244141</ele>
        <time>2016-07-19T08:32:18.000Z</time>
      </trkpt>
      <trkpt lat="44.304" lon="6.3511">
        <ele>1468.5999755859</ele>
        <time>2016-07-19T08:32:25.000Z</time>
      </trkpt>
      <trkpt lat="44.30389" lon="6.35117">
        <ele>1466.5999755859</ele>
        <time>2016-07-19T08:32:34.000Z</time>
      </trkpt>
      <trkpt lat="44.30379" lon="6.35123">
        <ele>1464.8000488281</ele>
        <time>2016-07-19T08:32:42.000Z</time>
      </trkpt>
      <trkpt lat="44.30368" lon="6.3513">
        <ele>1463</ele>
        <time>2016-07-19T08:32:51.000Z</time>
      </trkpt>
      <trkpt lat="44.30357" lon="6.35135">
        <ele>1462</ele>
        <time>2016-07-19T08:33:00.000Z</time>
      </trkpt>
      <trkpt lat="44.3035" lon="6.35138">
        <ele>1461.8000488281</ele>
        <time>2016-07-19T08:33:06.000Z</time>
      </trkpt>
      <trkpt lat="44.3034" lon="6.35147">
        <ele>1461</ele>
        <time>2016-07-19T08:33:16.000Z</time>
      </trkpt>
      <trkpt lat="44.30327" lon="6.35158">
        <ele>1459.4000244141</ele>
        <time>2016-07-19T08:33:27.000Z</time>
      </trkpt>
      <trkpt lat="44.30312" lon="6.35168">
        <ele>1458.8000488281</ele>
        <time>2016-07-19T08:33:38.000Z</time>
      </trkpt>
      <trkpt lat="44.30303" lon="6.35173">
        <ele>1458.8000488281</ele>
        <time>2016-07-19T08:33:46.000Z</time>
      </trkpt>
      <trkpt lat="44.30298" lon="6.35174">
        <ele>1458.1999511719</ele>
        <time>2016-07-19T08:33:51.000Z</time>
      </trkpt>
      <trkpt lat="44.30288" lon="6.35179">
        <ele>1457</ele>
        <time>2016-07-19T08:34:00.000Z</time>
      </trkpt>
      <trkpt lat="44.30277" lon="6.35182">
        <ele>1456</ele>
        <time>2016-07-19T08:34:08.000Z</time>
      </trkpt>
      <trkpt lat="44.30267" lon="6.35184">
        <ele>1454.8000488281</ele>
        <time>2016-07-19T08:34:16.000Z</time>
      </trkpt>
      <trkpt lat="44.30255" lon="6.35187">
        <ele>1452.5999755859</ele>
        <time>2016-07-19T08:34:24.000Z</time>
      </trkpt>
      <trkpt lat="44.30247" lon="6.35188">
        <ele>1451.4000244141</ele>
        <time>2016-07-19T08:34:31.000Z</time>
      </trkpt>
      <trkpt lat="44.30237" lon="6.35188">
        <ele>1450.8000488281</ele>
        <time>2016-07-19T08:34:38.000Z</time>
      </trkpt>
      <trkpt lat="44.30221" lon="6.35189">
        <ele>1451</ele>
        <time>2016-07-19T08:34:49.000Z</time>
      </trkpt>
      <trkpt lat="44.30208" lon="6.35187">
        <ele>1451.8000488281</ele>
        <time>2016-07-19T08:34:59.000Z</time>
      </trkpt>
      <trkpt lat="44.30198" lon="6.35184">
        <ele>1453</ele>
        <time>2016-07-19T08:35:06.000Z</time>
      </trkpt>
      <trkpt lat="44.30185" lon="6.35176">
        <ele>1453</ele>
        <time>2016-07-19T08:35:16.000Z</time>
      </trkpt>
      <trkpt lat="44.30172" lon="6.35169">
        <ele>1452.1999511719</ele>
        <time>2016-07-19T08:35:26.000Z</time>
      </trkpt>
      <trkpt lat="44.30161" lon="6.3516">
        <ele>1452.4000244141</ele>
        <time>2016-07-19T08:35:35.000Z</time>
      </trkpt>
      <trkpt lat="44.30152" lon="6.35147">
        <ele>1454.8000488281</ele>
        <time>2016-07-19T08:35:44.000Z</time>
      </trkpt>
      <trkpt lat="44.30145" lon="6.35128">
        <ele>1458.8000488281</ele>
        <time>2016-07-19T08:35:55.000Z</time>
      </trkpt>
      <trkpt lat="44.30134" lon="6.35113">
        <ele>1461.4000244141</ele>
        <time>2016-07-19T08:36:06.000Z</time>
      </trkpt>
      <trkpt lat="44.30121" lon="6.35107">
        <ele>1460.4000244141</ele>
        <time>2016-07-19T08:36:16.000Z</time>
      </trkpt>
      <trkpt lat="44.3011" lon="6.35103">
        <ele>1459</ele>
        <time>2016-07-19T08:36:24.000Z</time>
      </trkpt>
      <trkpt lat="44.301" lon="6.35096">
        <ele>1458.1999511719</ele>
        <time>2016-07-19T08:36:32.000Z</time>
      </trkpt>
      <trkpt lat="44.3009" lon="6.35086">
        <ele>1458.5999755859</ele>
        <time>2016-07-19T08:36:41.000Z</time>
      </trkpt>
      <trkpt lat="44.30081" lon="6.35072">
        <ele>1460.4000244141</ele>
        <time>2016-07-19T08:36:51.000Z</time>
      </trkpt>
      <trkpt lat="44.30076" lon="6.35063">
        <ele>1461.5999755859</ele>
        <time>2016-07-19T08:36:57.000Z</time>
      </trkpt>
      <trkpt lat="44.30068" lon="6.3505">
        <ele>1463.1999511719</ele>
        <time>2016-07-19T08:37:11.000Z</time>
      </trkpt>
      <trkpt lat="44.30066" lon="6.35045">
        <ele>1464.4000244141</ele>
        <time>2016-07-19T08:37:14.000Z</time>
      </trkpt>
      <trkpt lat="44.30064" lon="6.35026">
        <ele>1469.4000244141</ele>
        <time>2016-07-19T08:37:24.000Z</time>
      </trkpt>
      <trkpt lat="44.30064" lon="6.35022">
        <ele>1470.1999511719</ele>
        <time>2016-07-19T08:37:28.000Z</time>
      </trkpt>
      <trkpt lat="44.3006" lon="6.35013">
        <ele>1472.1999511719</ele>
        <time>2016-07-19T08:37:34.000Z</time>
      </trkpt>
      <trkpt lat="44.30048" lon="6.35004">
        <ele>1471.4000244141</ele>
        <time>2016-07-19T08:37:44.000Z</time>
      </trkpt>
      <trkpt lat="44.30039" lon="6.34997">
        <ele>1470.8000488281</ele>
        <time>2016-07-19T08:37:53.000Z</time>
      </trkpt>
      <trkpt lat="44.30035" lon="6.34991">
        <ele>1471.4000244141</ele>
        <time>2016-07-19T08:38:00.000Z</time>
      </trkpt>
      <trkpt lat="44.30028" lon="6.34981">
        <ele>1472.1999511719</ele>
        <time>2016-07-19T08:38:08.000Z</time>
      </trkpt>
      <trkpt lat="44.30021" lon="6.34975">
        <ele>1471</ele>
        <time>2016-07-19T08:38:14.000Z</time>
      </trkpt>
      <trkpt lat="44.3001" lon="6.34968">
        <ele>1468.8000488281</ele>
        <time>2016-07-19T08:38:22.000Z</time>
      </trkpt>
      <trkpt lat="44.30003" lon="6.34958">
        <ele>1468</ele>
        <time>2016-07-19T08:38:30.000Z</time>
      </trkpt>
      <trkpt lat="44.29997" lon="6.34945">
        <ele>1468.8000488281</ele>
        <time>2016-07-19T08:38:38.000Z</time>
      </trkpt>
      <trkpt lat="44.29991" lon="6.34932">
        <ele>1469.4000244141</ele>
        <time>2016-07-19T08:38:46.000Z</time>
      </trkpt>
      <trkpt lat="44.29982" lon="6.34923">
        <ele>1467.8000488281</ele>
        <time>2016-07-19T08:38:54.000Z</time>
      </trkpt>
      <trkpt lat="44.29971" lon="6.34913">
        <ele>1465.8000488281</ele>
        <time>2016-07-19T08:39:03.000Z</time>
      </trkpt>
      <trkpt lat="44.29965" lon="6.34899">
        <ele>1467.1999511719</ele>
        <time>2016-07-19T08:39:11.000Z</time>
      </trkpt>
      <trkpt lat="44.29966" lon="6.34882">
        <ele>1470.1999511719</ele>
        <time>2016-07-19T08:39:20.000Z</time>
      </trkpt>
      <trkpt lat="44.29969" lon="6.34872">
        <ele>1473</ele>
        <time>2016-07-19T08:39:26.000Z</time>
      </trkpt>
      <trkpt lat="44.29977" lon="6.34855">
        <ele>1479</ele>
        <time>2016-07-19T08:39:36.000Z</time>
      </trkpt>
      <trkpt lat="44.29983" lon="6.34839">
        <ele>1483.4000244141</ele>
        <time>2016-07-19T08:39:45.000Z</time>
      </trkpt>
      <trkpt lat="44.2998" lon="6.34826">
        <ele>1484</ele>
        <time>2016-07-19T08:39:52.000Z</time>
      </trkpt>
      <trkpt lat="44.29957" lon="6.34811">
        <ele>1477.1999511719</ele>
        <time>2016-07-19T08:40:10.000Z</time>
      </trkpt>
      <trkpt lat="44.29946" lon="6.34802">
        <ele>1474.8000488281</ele>
        <time>2016-07-19T08:40:19.000Z</time>
      </trkpt>
      <trkpt lat="44.29937" lon="6.34793">
        <ele>1472.5999755859</ele>
        <time>2016-07-19T08:40:27.000Z</time>
      </trkpt>
      <trkpt lat="44.29927" lon="6.34783">
        <ele>1470</ele>
        <time>2016-07-19T08:40:36.000Z</time>
      </trkpt>
      <trkpt lat="44.29917" lon="6.34776">
        <ele>1467.1999511719</ele>
        <time>2016-07-19T08:40:44.000Z</time>
      </trkpt>
      <trkpt lat="44.29908" lon="6.34766">
        <ele>1465.1999511719</ele>
        <time>2016-07-19T08:40:52.000Z</time>
      </trkpt>
      <trkpt lat="44.29906" lon="6.34752">
        <ele>1466.8000488281</ele>
        <time>2016-07-19T08:40:59.000Z</time>
      </trkpt>
      <trkpt lat="44.29913" lon="6.34733">
        <ele>1472.5999755859</ele>
        <time>2016-07-19T08:41:09.000Z</time>
      </trkpt>
      <trkpt lat="44.29925" lon="6.34724">
        <ele>1476.8000488281</ele>
        <time>2016-07-19T08:41:18.000Z</time>
      </trkpt>
      <trkpt lat="44.29938" lon="6.34717">
        <ele>1481.1999511719</ele>
        <time>2016-07-19T08:41:28.000Z</time>
      </trkpt>
      <trkpt lat="44.29948" lon="6.34713">
        <ele>1483.1999511719</ele>
        <time>2016-07-19T08:41:35.000Z</time>
      </trkpt>
      <trkpt lat="44.29949" lon="6.34712">
        <ele>1483.1999511719</ele>
        <time>2016-07-19T08:41:43.000Z</time>
      </trkpt>
      <trkpt lat="44.29948" lon="6.3471">
        <ele>1482.5999755859</ele>
        <time>2016-07-19T08:41:49.000Z</time>
      </trkpt>
      <trkpt lat="44.29948" lon="6.34711">
        <ele>1482.8000488281</ele>
        <time>2016-07-19T08:41:53.000Z</time>
      </trkpt>
      <trkpt lat="44.29947" lon="6.3471">
        <ele>1482.4000244141</ele>
        <time>2016-07-19T08:42:05.000Z</time>
      </trkpt>
      <trkpt lat="44.29947" lon="6.34709">
        <ele>1482.1999511719</ele>
        <time>2016-07-19T08:42:18.000Z</time>
      </trkpt>
      <trkpt lat="44.29948" lon="6.34709">
        <ele>1482.5999755859</ele>
        <time>2016-07-19T08:42:25.000Z</time>
      </trkpt>
      <trkpt lat="44.29946" lon="6.34707">
        <ele>1481.8000488281</ele>
        <time>2016-07-19T08:42:29.000Z</time>
      </trkpt>
      <trkpt lat="44.29947" lon="6.34704">
        <ele>1481.1999511719</ele>
        <time>2016-07-19T08:43:16.000Z</time>
      </trkpt>
      <trkpt lat="44.29948" lon="6.34702">
        <ele>1481.1999511719</ele>
        <time>2016-07-19T08:43:22.000Z</time>
      </trkpt>
      <trkpt lat="44.29946" lon="6.34705">
        <ele>1481</ele>
        <time>2016-07-19T08:43:45.000Z</time>
      </trkpt>
      <trkpt lat="44.29945" lon="6.34706">
        <ele>1481.1999511719</ele>
        <time>2016-07-19T08:43:55.000Z</time>
      </trkpt>
      <trkpt lat="44.29944" lon="6.34707">
        <ele>1480.8000488281</ele>
        <time>2016-07-19T08:44:03.000Z</time>
      </trkpt>
      <trkpt lat="44.29943" lon="6.34708">
        <ele>1481</ele>
        <time>2016-07-19T08:44:26.000Z</time>
      </trkpt>
      <trkpt lat="44.29943" lon="6.34705">
        <ele>1480.1999511719</ele>
        <time>2016-07-19T08:44:40.000Z</time>
      </trkpt>
      <trkpt lat="44.29943" lon="6.347">
        <ele>1479.4000244141</ele>
        <time>2016-07-19T08:46:29.000Z</time>
      </trkpt>
      <trkpt lat="44.29943" lon="6.34702">
        <ele>1479.8000488281</ele>
        <time>2016-07-19T08:46:43.000Z</time>
      </trkpt>
      <trkpt lat="44.29942" lon="6.34701">
        <ele>1479.1999511719</ele>
        <time>2016-07-19T08:46:59.000Z</time>
      </trkpt>
      <trkpt lat="44.29941" lon="6.34702">
        <ele>1479.1999511719</ele>
        <time>2016-07-19T08:47:13.000Z</time>
      </trkpt>
      <trkpt lat="44.29941" lon="6.34701">
        <ele>1478.8000488281</ele>
        <time>2016-07-19T08:47:45.000Z</time>
      </trkpt>
      <trkpt lat="44.29943" lon="6.34701">
        <ele>1479.5999755859</ele>
        <time>2016-07-19T08:48:04.000Z</time>
      </trkpt>
      <trkpt lat="44.29946" lon="6.34701">
        <ele>1480.4000244141</ele>
        <time>2016-07-19T08:48:12.000Z</time>
      </trkpt>
      <trkpt lat="44.29945" lon="6.34702">
        <ele>1480.5999755859</ele>
        <time>2016-07-19T08:48:21.000Z</time>
      </trkpt>
      <trkpt lat="44.29946" lon="6.34706">
        <ele>1481.4000244141</ele>
        <time>2016-07-19T08:48:31.000Z</time>
      </trkpt>
      <trkpt lat="44.29947" lon="6.34706">
        <ele>1481.8000488281</ele>
        <time>2016-07-19T08:48:42.000Z</time>
      </trkpt>
      <trkpt lat="44.29958" lon="6.34705">
        <ele>1484.4000244141</ele>
        <time>2016-07-19T08:48:51.000Z</time>
      </trkpt>
      <trkpt lat="44.29966" lon="6.34708">
        <ele>1487.1999511719</ele>
        <time>2016-07-19T08:48:57.000Z</time>
      </trkpt>
      <trkpt lat="44.29973" lon="6.34712">
        <ele>1490</ele>
        <time>2016-07-19T08:49:03.000Z</time>
      </trkpt>
      <trkpt lat="44.29989" lon="6.34717">
        <ele>1495.1999511719</ele>
        <time>2016-07-19T08:49:15.000Z</time>
      </trkpt>
      <trkpt lat="44.29998" lon="6.34716">
        <ele>1497.5999755859</ele>
        <time>2016-07-19T08:49:22.000Z</time>
      </trkpt>
      <trkpt lat="44.30005" lon="6.34709">
        <ele>1498.1999511719</ele>
        <time>2016-07-19T08:49:29.000Z</time>
      </trkpt>
      <trkpt lat="44.30009" lon="6.34695">
        <ele>1498</ele>
        <time>2016-07-19T08:49:37.000Z</time>
      </trkpt>
      <trkpt lat="44.30009" lon="6.34685">
        <ele>1496.8000488281</ele>
        <time>2016-07-19T08:49:43.000Z</time>
      </trkpt>
      <trkpt lat="44.30005" lon="6.34671">
        <ele>1493.8000488281</ele>
        <time>2016-07-19T08:49:51.000Z</time>
      </trkpt>
      <trkpt lat="44.30006" lon="6.34658">
        <ele>1492.5999755859</ele>
        <time>2016-07-19T08:49:59.000Z</time>
      </trkpt>
      <trkpt lat="44.30002" lon="6.34648">
        <ele>1490.4000244141</ele>
        <time>2016-07-19T08:50:05.000Z</time>
      </trkpt>
      <trkpt lat="44.29998" lon="6.34632">
        <ele>1490.1999511719</ele>
        <time>2016-07-19T08:50:14.000Z</time>
      </trkpt>
      <trkpt lat="44.29997" lon="6.34614">
        <ele>1491.1999511719</ele>
        <time>2016-07-19T08:50:23.000Z</time>
      </trkpt>
      <trkpt lat="44.30002" lon="6.34601">
        <ele>1493.5999755859</ele>
        <time>2016-07-19T08:50:31.000Z</time>
      </trkpt>
      <trkpt lat="44.30002" lon="6.34598">
        <ele>1494</ele>
        <time>2016-07-19T08:50:38.000Z</time>
      </trkpt>
      <trkpt lat="44.30002" lon="6.34597">
        <ele>1494</ele>
        <time>2016-07-19T08:50:47.000Z</time>
      </trkpt>
      <trkpt lat="44.30001" lon="6.34596">
        <ele>1493.5999755859</ele>
        <time>2016-07-19T08:50:52.000Z</time>
      </trkpt>
      <trkpt lat="44.30002" lon="6.34596">
        <ele>1494</ele>
        <time>2016-07-19T08:50:58.000Z</time>
      </trkpt>
      <trkpt lat="44.30001" lon="6.34597">
        <ele>1493.8000488281</ele>
        <time>2016-07-19T08:51:03.000Z</time>
      </trkpt>
      <trkpt lat="44.30002" lon="6.34594">
        <ele>1494</ele>
        <time>2016-07-19T08:51:07.000Z</time>
      </trkpt>
      <trkpt lat="44.30003" lon="6.34592">
        <ele>1494.5999755859</ele>
        <time>2016-07-19T08:51:20.000Z</time>
      </trkpt>
      <trkpt lat="44.30002" lon="6.34595">
        <ele>1494.1999511719</ele>
        <time>2016-07-19T08:51:23.000Z</time>
      </trkpt>
      <trkpt lat="44.30002" lon="6.34594">
        <ele>1494</ele>
        <time>2016-07-19T08:51:29.000Z</time>
      </trkpt>
      <trkpt lat="44.30002" lon="6.34593">
        <ele>1494.1999511719</ele>
        <time>2016-07-19T08:51:34.000Z</time>
      </trkpt>
      <trkpt lat="44.30002" lon="6.3459">
        <ele>1494.5999755859</ele>
        <time>2016-07-19T08:51:45.000Z</time>
      </trkpt>
      <trkpt lat="44.30003" lon="6.34589">
        <ele>1494.8000488281</ele>
        <time>2016-07-19T08:51:46.000Z</time>
      </trkpt>
      <trkpt lat="44.30005" lon="6.34592">
        <ele>1495.1999511719</ele>
        <time>2016-07-19T08:51:49.000Z</time>
      </trkpt>
      <trkpt lat="44.30005" lon="6.34591">
        <ele>1495.1999511719</ele>
        <time>2016-07-19T08:51:54.000Z</time>
      </trkpt>
      <trkpt lat="44.3001" lon="6.34588">
        <ele>1497</ele>
        <time>2016-07-19T08:51:59.000Z</time>
      </trkpt>
      <trkpt lat="44.30016" lon="6.34572">
        <ele>1499.8000488281</ele>
        <time>2016-07-19T08:52:09.000Z</time>
      </trkpt>
      <trkpt lat="44.3001" lon="6.34557">
        <ele>1500.4000244141</ele>
        <time>2016-07-19T08:52:17.000Z</time>
      </trkpt>
      <trkpt lat="44.29998" lon="6.34552">
        <ele>1497.8000488281</ele>
        <time>2016-07-19T08:52:26.000Z</time>
      </trkpt>
      <trkpt lat="44.29985" lon="6.34551">
        <ele>1493.8000488281</ele>
        <time>2016-07-19T08:52:35.000Z</time>
      </trkpt>
      <trkpt lat="44.29973" lon="6.34554">
        <ele>1489.4000244141</ele>
        <time>2016-07-19T08:52:43.000Z</time>
      </trkpt>
      <trkpt lat="44.29962" lon="6.34554">
        <ele>1485.8000488281</ele>
        <time>2016-07-19T08:52:51.000Z</time>
      </trkpt>
      <trkpt lat="44.29951" lon="6.34547">
        <ele>1484.1999511719</ele>
        <time>2016-07-19T08:53:00.000Z</time>
      </trkpt>
      <trkpt lat="44.29944" lon="6.34534">
        <ele>1485.4000244141</ele>
        <time>2016-07-19T08:53:08.000Z</time>
      </trkpt>
      <trkpt lat="44.29939" lon="6.34513">
        <ele>1490.1999511719</ele>
        <time>2016-07-19T08:53:19.000Z</time>
      </trkpt>
      <trkpt lat="44.29934" lon="6.34498">
        <ele>1492.8000488281</ele>
        <time>2016-07-19T08:53:28.000Z</time>
      </trkpt>
      <trkpt lat="44.29925" lon="6.34482">
        <ele>1494.8000488281</ele>
        <time>2016-07-19T08:53:38.000Z</time>
      </trkpt>
      <trkpt lat="44.29926" lon="6.34468">
        <ele>1499.5999755859</ele>
        <time>2016-07-19T08:53:45.000Z</time>
      </trkpt>
      <trkpt lat="44.29931" lon="6.34448">
        <ele>1505.5999755859</ele>
        <time>2016-07-19T08:53:55.000Z</time>
      </trkpt>
      <trkpt lat="44.29931" lon="6.34428">
        <ele>1509.8000488281</ele>
        <time>2016-07-19T08:54:05.000Z</time>
      </trkpt>
      <trkpt lat="44.29927" lon="6.34412">
        <ele>1512.8000488281</ele>
        <time>2016-07-19T08:54:14.000Z</time>
      </trkpt>
      <trkpt lat="44.29919" lon="6.34401">
        <ele>1514</ele>
        <time>2016-07-19T08:54:22.000Z</time>
      </trkpt>
      <trkpt lat="44.29921" lon="6.34397">
        <ele>1515.1999511719</ele>
        <time>2016-07-19T08:54:27.000Z</time>
      </trkpt>
      <trkpt lat="44.29922" lon="6.34397">
        <ele>1515.4000244141</ele>
        <time>2016-07-19T08:54:28.000Z</time>
      </trkpt>
      <trkpt lat="44.29923" lon="6.34398">
        <ele>1515.1999511719</ele>
        <time>2016-07-19T08:54:34.000Z</time>
      </trkpt>
      <trkpt lat="44.2992" lon="6.34398">
        <ele>1514.5999755859</ele>
        <time>2016-07-19T08:54:37.000Z</time>
      </trkpt>
      <trkpt lat="44.29906" lon="6.34392">
        <ele>1514.5999755859</ele>
        <time>2016-07-19T08:54:47.000Z</time>
      </trkpt>
      <trkpt lat="44.29891" lon="6.34391">
        <ele>1512.5999755859</ele>
        <time>2016-07-19T08:54:58.000Z</time>
      </trkpt>
      <trkpt lat="44.29875" lon="6.34393">
        <ele>1509.4000244141</ele>
        <time>2016-07-19T08:55:10.000Z</time>
      </trkpt>
      <trkpt lat="44.29867" lon="6.34392">
        <ele>1508.5999755859</ele>
        <time>2016-07-19T08:55:18.000Z</time>
      </trkpt>
      <trkpt lat="44.29862" lon="6.3439">
        <ele>1508.5999755859</ele>
        <time>2016-07-19T08:55:22.000Z</time>
      </trkpt>
      <trkpt lat="44.29855" lon="6.34388">
        <ele>1509.4000244141</ele>
        <time>2016-07-19T08:55:28.000Z</time>
      </trkpt>
      <trkpt lat="44.29846" lon="6.34385">
        <ele>1510.4000244141</ele>
        <time>2016-07-19T08:55:35.000Z</time>
      </trkpt>
      <trkpt lat="44.29839" lon="6.34375">
        <ele>1514.1999511719</ele>
        <time>2016-07-19T08:55:43.000Z</time>
      </trkpt>
      <trkpt lat="44.29834" lon="6.34356">
        <ele>1520.8000488281</ele>
        <time>2016-07-19T08:55:53.000Z</time>
      </trkpt>
      <trkpt lat="44.29827" lon="6.34345">
        <ele>1524.8000488281</ele>
        <time>2016-07-19T08:56:01.000Z</time>
      </trkpt>
      <trkpt lat="44.29817" lon="6.34335">
        <ele>1528.8000488281</ele>
        <time>2016-07-19T08:56:10.000Z</time>
      </trkpt>
      <trkpt lat="44.29807" lon="6.3433">
        <ele>1530.5999755859</ele>
        <time>2016-07-19T08:56:18.000Z</time>
      </trkpt>
      <trkpt lat="44.29794" lon="6.3433">
        <ele>1530.4000244141</ele>
        <time>2016-07-19T08:56:28.000Z</time>
      </trkpt>
      <trkpt lat="44.29781" lon="6.34333">
        <ele>1529</ele>
        <time>2016-07-19T08:56:37.000Z</time>
      </trkpt>
      <trkpt lat="44.29773" lon="6.34339">
        <ele>1527.5999755859</ele>
        <time>2016-07-19T08:56:44.000Z</time>
      </trkpt>
      <trkpt lat="44.29761" lon="6.3434">
        <ele>1528.5999755859</ele>
        <time>2016-07-19T08:56:53.000Z</time>
      </trkpt>
      <trkpt lat="44.29749" lon="6.34337">
        <ele>1531.1999511719</ele>
        <time>2016-07-19T08:57:02.000Z</time>
      </trkpt>
      <trkpt lat="44.29736" lon="6.34332">
        <ele>1534.5999755859</ele>
        <time>2016-07-19T08:57:12.000Z</time>
      </trkpt>
      <trkpt lat="44.29726" lon="6.34336">
        <ele>1534.5999755859</ele>
        <time>2016-07-19T08:57:20.000Z</time>
      </trkpt>
      <trkpt lat="44.29717" lon="6.3434">
        <ele>1533.5999755859</ele>
        <time>2016-07-19T08:57:27.000Z</time>
      </trkpt>
      <trkpt lat="44.29705" lon="6.34346">
        <ele>1533</ele>
        <time>2016-07-19T08:57:36.000Z</time>
      </trkpt>
      <trkpt lat="44.29697" lon="6.34346">
        <ele>1533.8000488281</ele>
        <time>2016-07-19T08:57:42.000Z</time>
      </trkpt>
      <trkpt lat="44.29696" lon="6.34343">
        <ele>1535</ele>
        <time>2016-07-19T08:57:44.000Z</time>
      </trkpt>
      <trkpt lat="44.29695" lon="6.3434">
        <ele>1536.5999755859</ele>
        <time>2016-07-19T08:57:46.000Z</time>
      </trkpt>
      <trkpt lat="44.29697" lon="6.34335">
        <ele>1537.8000488281</ele>
        <time>2016-07-19T08:57:48.000Z</time>
      </trkpt>
      <trkpt lat="44.29711" lon="6.34325">
        <ele>1540.1999511719</ele>
        <time>2016-07-19T08:58:00.000Z</time>
      </trkpt>
      <trkpt lat="44.2972" lon="6.34317">
        <ele>1542</ele>
        <time>2016-07-19T08:58:08.000Z</time>
      </trkpt>
      <trkpt lat="44.2973" lon="6.3431">
        <ele>1543.8000488281</ele>
        <time>2016-07-19T08:58:16.000Z</time>
      </trkpt>
      <trkpt lat="44.29742" lon="6.34307">
        <ele>1543.5999755859</ele>
        <time>2016-07-19T08:58:25.000Z</time>
      </trkpt>
      <trkpt lat="44.29752" lon="6.34306">
        <ele>1543.1999511719</ele>
        <time>2016-07-19T08:58:34.000Z</time>
      </trkpt>
      <trkpt lat="44.2976" lon="6.34303">
        <ele>1543.5999755859</ele>
        <time>2016-07-19T08:58:41.000Z</time>
      </trkpt>
      <trkpt lat="44.29769" lon="6.34296">
        <ele>1545.4000244141</ele>
        <time>2016-07-19T08:58:49.000Z</time>
      </trkpt>
      <trkpt lat="44.29774" lon="6.3429">
        <ele>1546.8000488281</ele>
        <time>2016-07-19T08:58:56.000Z</time>
      </trkpt>
      <trkpt lat="44.29784" lon="6.34283">
        <ele>1548.8000488281</ele>
        <time>2016-07-19T08:59:04.000Z</time>
      </trkpt>
      <trkpt lat="44.29793" lon="6.34279">
        <ele>1550.5999755859</ele>
        <time>2016-07-19T08:59:11.000Z</time>
      </trkpt>
      <trkpt lat="44.29802" lon="6.34272">
        <ele>1553.5999755859</ele>
        <time>2016-07-19T08:59:18.000Z</time>
      </trkpt>
      <trkpt lat="44.29811" lon="6.34268">
        <ele>1555.4000244141</ele>
        <time>2016-07-19T08:59:25.000Z</time>
      </trkpt>
      <trkpt lat="44.29824" lon="6.34269">
        <ele>1554.4000244141</ele>
        <time>2016-07-19T08:59:34.000Z</time>
      </trkpt>
      <trkpt lat="44.29835" lon="6.34265">
        <ele>1555.8000488281</ele>
        <time>2016-07-19T08:59:42.000Z</time>
      </trkpt>
      <trkpt lat="44.2985" lon="6.34264">
        <ele>1555.4000244141</ele>
        <time>2016-07-19T08:59:52.000Z</time>
      </trkpt>
      <trkpt lat="44.2986" lon="6.34274">
        <ele>1551.5999755859</ele>
        <time>2016-07-19T09:00:01.000Z</time>
      </trkpt>
      <trkpt lat="44.29872" lon="6.3428">
        <ele>1550</ele>
        <time>2016-07-19T09:00:10.000Z</time>
      </trkpt>
      <trkpt lat="44.29882" lon="6.3428">
        <ele>1550.4000244141</ele>
        <time>2016-07-19T09:00:17.000Z</time>
      </trkpt>
      <trkpt lat="44.29894" lon="6.34281">
        <ele>1551</ele>
        <time>2016-07-19T09:00:25.000Z</time>
      </trkpt>
      <trkpt lat="44.29906" lon="6.34282">
        <ele>1551.5999755859</ele>
        <time>2016-07-19T09:00:34.000Z</time>
      </trkpt>
      <trkpt lat="44.29912" lon="6.34279">
        <ele>1553</ele>
        <time>2016-07-19T09:00:39.000Z</time>
      </trkpt>
      <trkpt lat="44.29919" lon="6.34274">
        <ele>1555.4000244141</ele>
        <time>2016-07-19T09:00:45.000Z</time>
      </trkpt>
      <trkpt lat="44.2993" lon="6.34269">
        <ele>1558</ele>
        <time>2016-07-19T09:00:53.000Z</time>
      </trkpt>
      <trkpt lat="44.29935" lon="6.34265">
        <ele>1559.8000488281</ele>
        <time>2016-07-19T09:00:58.000Z</time>
      </trkpt>
      <trkpt lat="44.29936" lon="6.34265">
        <ele>1560</ele>
        <time>2016-07-19T09:00:59.000Z</time>
      </trkpt>
      <trkpt lat="44.29943" lon="6.34263">
        <ele>1561</ele>
        <time>2016-07-19T09:01:05.000Z</time>
      </trkpt>
      <trkpt lat="44.29949" lon="6.34262">
        <ele>1561.8000488281</ele>
        <time>2016-07-19T09:01:11.000Z</time>
      </trkpt>
      <trkpt lat="44.29953" lon="6.34261">
        <ele>1562.8000488281</ele>
        <time>2016-07-19T09:01:15.000Z</time>
      </trkpt>
      <trkpt lat="44.29963" lon="6.34254">
        <ele>1565.8000488281</ele>
        <time>2016-07-19T09:01:23.000Z</time>
      </trkpt>
      <trkpt lat="44.29967" lon="6.34249">
        <ele>1568</ele>
        <time>2016-07-19T09:01:28.000Z</time>
      </trkpt>
      <trkpt lat="44.2997" lon="6.34246">
        <ele>1568.8000488281</ele>
        <time>2016-07-19T09:01:30.000Z</time>
      </trkpt>
      <trkpt lat="44.29976" lon="6.3424">
        <ele>1570.5999755859</ele>
        <time>2016-07-19T09:01:35.000Z</time>
      </trkpt>
      <trkpt lat="44.2998" lon="6.34238">
        <ele>1571.4000244141</ele>
        <time>2016-07-19T09:01:38.000Z</time>
      </trkpt>
      <trkpt lat="44.29995" lon="6.34235">
        <ele>1572.1999511719</ele>
        <time>2016-07-19T09:01:45.000Z</time>
      </trkpt>
      <trkpt lat="44.30003" lon="6.34231">
        <ele>1573.4000244141</ele>
        <time>2016-07-19T09:01:51.000Z</time>
      </trkpt>
      <trkpt lat="44.30007" lon="6.34227">
        <ele>1574.8000488281</ele>
        <time>2016-07-19T09:01:57.000Z</time>
      </trkpt>
      <trkpt lat="44.30014" lon="6.34218">
        <ele>1577.8000488281</ele>
        <time>2016-07-19T09:02:05.000Z</time>
      </trkpt>
      <trkpt lat="44.30017" lon="6.34215">
        <ele>1578.5999755859</ele>
        <time>2016-07-19T09:02:08.000Z</time>
      </trkpt>
      <trkpt lat="44.30023" lon="6.34208">
        <ele>1579.5999755859</ele>
        <time>2016-07-19T09:02:14.000Z</time>
      </trkpt>
      <trkpt lat="44.30028" lon="6.34203">
        <ele>1580.5999755859</ele>
        <time>2016-07-19T09:02:19.000Z</time>
      </trkpt>
      <trkpt lat="44.30032" lon="6.34198">
        <ele>1581.5999755859</ele>
        <time>2016-07-19T09:02:23.000Z</time>
      </trkpt>
      <trkpt lat="44.30039" lon="6.3419">
        <ele>1584.1999511719</ele>
        <time>2016-07-19T09:02:31.000Z</time>
      </trkpt>
      <trkpt lat="44.3004" lon="6.34189">
        <ele>1584.4000244141</ele>
        <time>2016-07-19T09:02:32.000Z</time>
      </trkpt>
      <trkpt lat="44.30043" lon="6.34184">
        <ele>1586</ele>
        <time>2016-07-19T09:02:36.000Z</time>
      </trkpt>
      <trkpt lat="44.30045" lon="6.34183">
        <ele>1586.4000244141</ele>
        <time>2016-07-19T09:02:37.000Z</time>
      </trkpt>
      <trkpt lat="44.30047" lon="6.34178">
        <ele>1587.5999755859</ele>
        <time>2016-07-19T09:02:40.000Z</time>
      </trkpt>
      <trkpt lat="44.30048" lon="6.34176">
        <ele>1588</ele>
        <time>2016-07-19T09:02:41.000Z</time>
      </trkpt>
      <trkpt lat="44.30049" lon="6.34173">
        <ele>1589</ele>
        <time>2016-07-19T09:02:43.000Z</time>
      </trkpt>
      <trkpt lat="44.30055" lon="6.34165">
        <ele>1590.4000244141</ele>
        <time>2016-07-19T09:02:49.000Z</time>
      </trkpt>
      <trkpt lat="44.30068" lon="6.34156">
        <ele>1591.1999511719</ele>
        <time>2016-07-19T09:02:59.000Z</time>
      </trkpt>
      <trkpt lat="44.3008" lon="6.34152">
        <ele>1591.4000244141</ele>
        <time>2016-07-19T09:03:08.000Z</time>
      </trkpt>
      <trkpt lat="44.30086" lon="6.34148">
        <ele>1591.5999755859</ele>
        <time>2016-07-19T09:03:13.000Z</time>
      </trkpt>
      <trkpt lat="44.30095" lon="6.3414">
        <ele>1592.4000244141</ele>
        <time>2016-07-19T09:03:20.000Z</time>
      </trkpt>
      <trkpt lat="44.30105" lon="6.34132">
        <ele>1592.4000244141</ele>
        <time>2016-07-19T09:03:28.000Z</time>
      </trkpt>
      <trkpt lat="44.30118" lon="6.34124">
        <ele>1592.1999511719</ele>
        <time>2016-07-19T09:03:38.000Z</time>
      </trkpt>
      <trkpt lat="44.30121" lon="6.3412">
        <ele>1592.5999755859</ele>
        <time>2016-07-19T09:03:41.000Z</time>
      </trkpt>
      <trkpt lat="44.30126" lon="6.34103">
        <ele>1593.5999755859</ele>
        <time>2016-07-19T09:03:50.000Z</time>
      </trkpt>
      <trkpt lat="44.30128" lon="6.34091">
        <ele>1594.1999511719</ele>
        <time>2016-07-19T09:03:57.000Z</time>
      </trkpt>
      <trkpt lat="44.30128" lon="6.34089">
        <ele>1594.4000244141</ele>
        <time>2016-07-19T09:03:58.000Z</time>
      </trkpt>
      <trkpt lat="44.30129" lon="6.34079">
        <ele>1594.8000488281</ele>
        <time>2016-07-19T09:04:04.000Z</time>
      </trkpt>
      <trkpt lat="44.30128" lon="6.34075">
        <ele>1594</ele>
        <time>2016-07-19T09:04:06.000Z</time>
      </trkpt>
      <trkpt lat="44.30126" lon="6.34052">
        <ele>1591.5999755859</ele>
        <time>2016-07-19T09:04:18.000Z</time>
      </trkpt>
      <trkpt lat="44.30125" lon="6.34034">
        <ele>1590.5999755859</ele>
        <time>2016-07-19T09:04:27.000Z</time>
      </trkpt>
      <trkpt lat="44.30125" lon="6.34021">
        <ele>1589.8000488281</ele>
        <time>2016-07-19T09:04:34.000Z</time>
      </trkpt>
      <trkpt lat="44.3012" lon="6.34009">
        <ele>1589.8000488281</ele>
        <time>2016-07-19T09:04:42.000Z</time>
      </trkpt>
      <trkpt lat="44.30116" lon="6.33999">
        <ele>1589.8000488281</ele>
        <time>2016-07-19T09:04:49.000Z</time>
      </trkpt>
      <trkpt lat="44.3011" lon="6.33984">
        <ele>1589.5999755859</ele>
        <time>2016-07-19T09:04:58.000Z</time>
      </trkpt>
      <trkpt lat="44.30109" lon="6.3398">
        <ele>1589.1999511719</ele>
        <time>2016-07-19T09:05:01.000Z</time>
      </trkpt>
      <trkpt lat="44.30105" lon="6.3397">
        <ele>1587.8000488281</ele>
        <time>2016-07-19T09:05:07.000Z</time>
      </trkpt>
      <trkpt lat="44.30098" lon="6.33957">
        <ele>1586.4000244141</ele>
        <time>2016-07-19T09:05:15.000Z</time>
      </trkpt>
      <trkpt lat="44.30092" lon="6.33948">
        <ele>1585.4000244141</ele>
        <time>2016-07-19T09:05:21.000Z</time>
      </trkpt>
      <trkpt lat="44.30088" lon="6.33941">
        <ele>1584.4000244141</ele>
        <time>2016-07-19T09:05:25.000Z</time>
      </trkpt>
      <trkpt lat="44.30084" lon="6.33929">
        <ele>1583</ele>
        <time>2016-07-19T09:05:32.000Z</time>
      </trkpt>
      <trkpt lat="44.30083" lon="6.33925">
        <ele>1582.4000244141</ele>
        <time>2016-07-19T09:05:34.000Z</time>
      </trkpt>
      <trkpt lat="44.30082" lon="6.33917">
        <ele>1581.1999511719</ele>
        <time>2016-07-19T09:05:39.000Z</time>
      </trkpt>
      <trkpt lat="44.30076" lon="6.33903">
        <ele>1579.5999755859</ele>
        <time>2016-07-19T09:05:47.000Z</time>
      </trkpt>
      <trkpt lat="44.30065" lon="6.33897">
        <ele>1579.1999511719</ele>
        <time>2016-07-19T09:05:56.000Z</time>
      </trkpt>
      <trkpt lat="44.30048" lon="6.33885">
        <ele>1577.1999511719</ele>
        <time>2016-07-19T09:06:10.000Z</time>
      </trkpt>
      <trkpt lat="44.30055" lon="6.33877">
        <ele>1575</ele>
        <time>2016-07-19T09:06:17.000Z</time>
      </trkpt>
      <trkpt lat="44.30058" lon="6.33877">
        <ele>1574.8000488281</ele>
        <time>2016-07-19T09:06:19.000Z</time>
      </trkpt>
      <trkpt lat="44.30067" lon="6.33872">
        <ele>1573</ele>
        <time>2016-07-19T09:06:27.000Z</time>
      </trkpt>
      <trkpt lat="44.30076" lon="6.33863">
        <ele>1570.4000244141</ele>
        <time>2016-07-19T09:06:35.000Z</time>
      </trkpt>
      <trkpt lat="44.30087" lon="6.33852">
        <ele>1568.1999511719</ele>
        <time>2016-07-19T09:06:44.000Z</time>
      </trkpt>
      <trkpt lat="44.30096" lon="6.33839">
        <ele>1565.8000488281</ele>
        <time>2016-07-19T09:06:53.000Z</time>
      </trkpt>
      <trkpt lat="44.30104" lon="6.33828">
        <ele>1563.8000488281</ele>
        <time>2016-07-19T09:07:01.000Z</time>
      </trkpt>
      <trkpt lat="44.30117" lon="6.33824">
        <ele>1562</ele>
        <time>2016-07-19T09:07:10.000Z</time>
      </trkpt>
      <trkpt lat="44.30128" lon="6.33831">
        <ele>1560.8000488281</ele>
        <time>2016-07-19T09:07:18.000Z</time>
      </trkpt>
      <trkpt lat="44.30129" lon="6.33833">
        <ele>1560.8000488281</ele>
        <time>2016-07-19T09:07:19.000Z</time>
      </trkpt>
      <trkpt lat="44.30132" lon="6.33837">
        <ele>1561</ele>
        <time>2016-07-19T09:07:23.000Z</time>
      </trkpt>
      <trkpt lat="44.30132" lon="6.33838">
        <ele>1561.1999511719</ele>
        <time>2016-07-19T09:07:24.000Z</time>
      </trkpt>
      <trkpt lat="44.30135" lon="6.33848">
        <ele>1562.1999511719</ele>
        <time>2016-07-19T09:07:39.000Z</time>
      </trkpt>
      <trkpt lat="44.30135" lon="6.33849">
        <ele>1562.4000244141</ele>
        <time>2016-07-19T09:07:40.000Z</time>
      </trkpt>
      <trkpt lat="44.30136" lon="6.33855">
        <ele>1563.4000244141</ele>
        <time>2016-07-19T09:07:44.000Z</time>
      </trkpt>
      <trkpt lat="44.30137" lon="6.33865">
        <ele>1565.1999511719</ele>
        <time>2016-07-19T09:07:49.000Z</time>
      </trkpt>
      <trkpt lat="44.30137" lon="6.33867">
        <ele>1565.4000244141</ele>
        <time>2016-07-19T09:07:50.000Z</time>
      </trkpt>
      <trkpt lat="44.30138" lon="6.33872">
        <ele>1566.1999511719</ele>
        <time>2016-07-19T09:07:53.000Z</time>
      </trkpt>
      <trkpt lat="44.3014" lon="6.33881">
        <ele>1567.5999755859</ele>
        <time>2016-07-19T09:07:58.000Z</time>
      </trkpt>
      <trkpt lat="44.30155" lon="6.33893">
        <ele>1566.4000244141</ele>
        <time>2016-07-19T09:08:11.000Z</time>
      </trkpt>
      <trkpt lat="44.30159" lon="6.33899">
        <ele>1566.1999511719</ele>
        <time>2016-07-19T09:08:15.000Z</time>
      </trkpt>
      <trkpt lat="44.3016" lon="6.339">
        <ele>1566.1999511719</ele>
        <time>2016-07-19T09:08:16.000Z</time>
      </trkpt>
      <trkpt lat="44.30168" lon="6.33913">
        <ele>1566.5999755859</ele>
        <time>2016-07-19T09:08:23.000Z</time>
      </trkpt>
      <trkpt lat="44.30181" lon="6.33924">
        <ele>1565.4000244141</ele>
        <time>2016-07-19T09:08:29.000Z</time>
      </trkpt>
      <trkpt lat="44.30191" lon="6.33932">
        <ele>1564.1999511719</ele>
        <time>2016-07-19T09:08:35.000Z</time>
      </trkpt>
      <trkpt lat="44.30202" lon="6.33941">
        <ele>1564</ele>
        <time>2016-07-19T09:08:42.000Z</time>
      </trkpt>
      <trkpt lat="44.30209" lon="6.33951">
        <ele>1565.1999511719</ele>
        <time>2016-07-19T09:08:49.000Z</time>
      </trkpt>
      <trkpt lat="44.30211" lon="6.33956">
        <ele>1565.8000488281</ele>
        <time>2016-07-19T09:08:52.000Z</time>
      </trkpt>
      <trkpt lat="44.30216" lon="6.33967">
        <ele>1567.1999511719</ele>
        <time>2016-07-19T09:08:59.000Z</time>
      </trkpt>
      <trkpt lat="44.30218" lon="6.33968">
        <ele>1567.1999511719</ele>
        <time>2016-07-19T09:09:00.000Z</time>
      </trkpt>
      <trkpt lat="44.30242" lon="6.33962">
        <ele>1564.5999755859</ele>
        <time>2016-07-19T09:09:09.000Z</time>
      </trkpt>
      <trkpt lat="44.30247" lon="6.33957">
        <ele>1563.4000244141</ele>
        <time>2016-07-19T09:09:11.000Z</time>
      </trkpt>
      <trkpt lat="44.30251" lon="6.33933">
        <ele>1557.5999755859</ele>
        <time>2016-07-19T09:09:18.000Z</time>
      </trkpt>
      <trkpt lat="44.30259" lon="6.33918">
        <ele>1552.5999755859</ele>
        <time>2016-07-19T09:09:27.000Z</time>
      </trkpt>
      <trkpt lat="44.3027" lon="6.33907">
        <ele>1547.8000488281</ele>
        <time>2016-07-19T09:09:37.000Z</time>
      </trkpt>
      <trkpt lat="44.30282" lon="6.33902">
        <ele>1545</ele>
        <time>2016-07-19T09:09:46.000Z</time>
      </trkpt>
      <trkpt lat="44.30293" lon="6.33902">
        <ele>1544.5999755859</ele>
        <time>2016-07-19T09:09:54.000Z</time>
      </trkpt>
      <trkpt lat="44.30301" lon="6.33905">
        <ele>1544.8000488281</ele>
        <time>2016-07-19T09:10:00.000Z</time>
      </trkpt>
      <trkpt lat="44.30312" lon="6.33911">
        <ele>1545.8000488281</ele>
        <time>2016-07-19T09:10:08.000Z</time>
      </trkpt>
      <trkpt lat="44.30319" lon="6.33917">
        <ele>1546.8000488281</ele>
        <time>2016-07-19T09:10:14.000Z</time>
      </trkpt>
      <trkpt lat="44.30331" lon="6.33924">
        <ele>1548</ele>
        <time>2016-07-19T09:10:23.000Z</time>
      </trkpt>
      <trkpt lat="44.30343" lon="6.33935">
        <ele>1550.1999511719</ele>
        <time>2016-07-19T09:10:34.000Z</time>
      </trkpt>
      <trkpt lat="44.30358" lon="6.3395">
        <ele>1553.4000244141</ele>
        <time>2016-07-19T09:10:46.000Z</time>
      </trkpt>
      <trkpt lat="44.30368" lon="6.33964">
        <ele>1556.1999511719</ele>
        <time>2016-07-19T09:10:55.000Z</time>
      </trkpt>
      <trkpt lat="44.3037" lon="6.33966">
        <ele>1556.5999755859</ele>
        <time>2016-07-19T09:10:57.000Z</time>
      </trkpt>
      <trkpt lat="44.30374" lon="6.33965">
        <ele>1556.1999511719</ele>
        <time>2016-07-19T09:11:03.000Z</time>
      </trkpt>
      <trkpt lat="44.30379" lon="6.33967">
        <ele>1556.4000244141</ele>
        <time>2016-07-19T09:11:23.000Z</time>
      </trkpt>
      <trkpt lat="44.30387" lon="6.33969">
        <ele>1556.5999755859</ele>
        <time>2016-07-19T09:11:30.000Z</time>
      </trkpt>
      <trkpt lat="44.304" lon="6.3397">
        <ele>1555.8000488281</ele>
        <time>2016-07-19T09:11:39.000Z</time>
      </trkpt>
      <trkpt lat="44.30407" lon="6.33964">
        <ele>1554</ele>
        <time>2016-07-19T09:11:45.000Z</time>
      </trkpt>
      <trkpt lat="44.30405" lon="6.33953">
        <ele>1551.1999511719</ele>
        <time>2016-07-19T09:11:52.000Z</time>
      </trkpt>
      <trkpt lat="44.30399" lon="6.3394">
        <ele>1548.1999511719</ele>
        <time>2016-07-19T09:12:01.000Z</time>
      </trkpt>
      <trkpt lat="44.304" lon="6.33925">
        <ele>1545.1999511719</ele>
        <time>2016-07-19T09:12:09.000Z</time>
      </trkpt>
      <trkpt lat="44.30405" lon="6.33908">
        <ele>1543</ele>
        <time>2016-07-19T09:12:19.000Z</time>
      </trkpt>
      <trkpt lat="44.30405" lon="6.33893">
        <ele>1540.4000244141</ele>
        <time>2016-07-19T09:12:27.000Z</time>
      </trkpt>
      <trkpt lat="44.30403" lon="6.3388">
        <ele>1537.5999755859</ele>
        <time>2016-07-19T09:12:34.000Z</time>
      </trkpt>
      <trkpt lat="44.30407" lon="6.3387">
        <ele>1535.8000488281</ele>
        <time>2016-07-19T09:12:40.000Z</time>
      </trkpt>
      <trkpt lat="44.30409" lon="6.33867">
        <ele>1535.1999511719</ele>
        <time>2016-07-19T09:12:42.000Z</time>
      </trkpt>
      <trkpt lat="44.30414" lon="6.33863">
        <ele>1534.8000488281</ele>
        <time>2016-07-19T09:12:46.000Z</time>
      </trkpt>
      <trkpt lat="44.30419" lon="6.33861">
        <ele>1535.4000244141</ele>
        <time>2016-07-19T09:12:50.000Z</time>
      </trkpt>
      <trkpt lat="44.30433" lon="6.33866">
        <ele>1538.1999511719</ele>
        <time>2016-07-19T09:13:00.000Z</time>
      </trkpt>
      <trkpt lat="44.30443" lon="6.33874">
        <ele>1540.8000488281</ele>
        <time>2016-07-19T09:13:08.000Z</time>
      </trkpt>
      <trkpt lat="44.30455" lon="6.33884">
        <ele>1544.4000244141</ele>
        <time>2016-07-19T09:13:18.000Z</time>
      </trkpt>
      <trkpt lat="44.30464" lon="6.3389">
        <ele>1547</ele>
        <time>2016-07-19T09:13:25.000Z</time>
      </trkpt>
      <trkpt lat="44.30468" lon="6.33894">
        <ele>1548.1999511719</ele>
        <time>2016-07-19T09:13:28.000Z</time>
      </trkpt>
      <trkpt lat="44.30472" lon="6.33897">
        <ele>1549.4000244141</ele>
        <time>2016-07-19T09:13:32.000Z</time>
      </trkpt>
      <trkpt lat="44.30485" lon="6.33896">
        <ele>1552</ele>
        <time>2016-07-19T09:13:41.000Z</time>
      </trkpt>
      <trkpt lat="44.30492" lon="6.33885">
        <ele>1552.4000244141</ele>
        <time>2016-07-19T09:13:48.000Z</time>
      </trkpt>
      <trkpt lat="44.30499" lon="6.33871">
        <ele>1552.4000244141</ele>
        <time>2016-07-19T09:13:57.000Z</time>
      </trkpt>
      <trkpt lat="44.30507" lon="6.33865">
        <ele>1553.1999511719</ele>
        <time>2016-07-19T09:14:04.000Z</time>
      </trkpt>
      <trkpt lat="44.30518" lon="6.33862">
        <ele>1555</ele>
        <time>2016-07-19T09:14:12.000Z</time>
      </trkpt>
      <trkpt lat="44.30523" lon="6.33861">
        <ele>1555.8000488281</ele>
        <time>2016-07-19T09:14:15.000Z</time>
      </trkpt>
      <trkpt lat="44.30527" lon="6.3385">
        <ele>1555.1999511719</ele>
        <time>2016-07-19T09:14:22.000Z</time>
      </trkpt>
      <trkpt lat="44.30526" lon="6.33847">
        <ele>1554.5999755859</ele>
        <time>2016-07-19T09:14:24.000Z</time>
      </trkpt>
      <trkpt lat="44.30516" lon="6.33831">
        <ele>1550.4000244141</ele>
        <time>2016-07-19T09:14:35.000Z</time>
      </trkpt>
      <trkpt lat="44.30504" lon="6.3382">
        <ele>1546.8000488281</ele>
        <time>2016-07-19T09:14:45.000Z</time>
      </trkpt>
      <trkpt lat="44.30494" lon="6.33811">
        <ele>1543.5999755859</ele>
        <time>2016-07-19T09:14:53.000Z</time>
      </trkpt>
      <trkpt lat="44.30489" lon="6.33797">
        <ele>1540.8000488281</ele>
        <time>2016-07-19T09:15:01.000Z</time>
      </trkpt>
      <trkpt lat="44.30486" lon="6.33777">
        <ele>1537.5999755859</ele>
        <time>2016-07-19T09:15:12.000Z</time>
      </trkpt>
      <trkpt lat="44.30483" lon="6.33763">
        <ele>1535.5999755859</ele>
        <time>2016-07-19T09:15:20.000Z</time>
      </trkpt>
      <trkpt lat="44.30482" lon="6.33745">
        <ele>1535</ele>
        <time>2016-07-19T09:15:29.000Z</time>
      </trkpt>
      <trkpt lat="44.30484" lon="6.33727">
        <ele>1534.4000244141</ele>
        <time>2016-07-19T09:15:38.000Z</time>
      </trkpt>
      <trkpt lat="44.30489" lon="6.33713">
        <ele>1533.1999511719</ele>
        <time>2016-07-19T09:15:45.000Z</time>
      </trkpt>
      <trkpt lat="44.30492" lon="6.33706">
        <ele>1533</ele>
        <time>2016-07-19T09:15:49.000Z</time>
      </trkpt>
      <trkpt lat="44.30502" lon="6.33691">
        <ele>1533</ele>
        <time>2016-07-19T09:15:58.000Z</time>
      </trkpt>
      <trkpt lat="44.30513" lon="6.33679">
        <ele>1534</ele>
        <time>2016-07-19T09:16:07.000Z</time>
      </trkpt>
      <trkpt lat="44.30518" lon="6.33674">
        <ele>1534.5999755859</ele>
        <time>2016-07-19T09:16:11.000Z</time>
      </trkpt>
      <trkpt lat="44.30529" lon="6.33666">
        <ele>1536.4000244141</ele>
        <time>2016-07-19T09:16:19.000Z</time>
      </trkpt>
      <trkpt lat="44.30537" lon="6.3366">
        <ele>1536.4000244141</ele>
        <time>2016-07-19T09:16:25.000Z</time>
      </trkpt>
      <trkpt lat="44.3055" lon="6.33653">
        <ele>1537.1999511719</ele>
        <time>2016-07-19T09:16:34.000Z</time>
      </trkpt>
      <trkpt lat="44.30561" lon="6.3365">
        <ele>1538.4000244141</ele>
        <time>2016-07-19T09:16:41.000Z</time>
      </trkpt>
      <trkpt lat="44.30572" lon="6.33649">
        <ele>1540</ele>
        <time>2016-07-19T09:16:48.000Z</time>
      </trkpt>
      <trkpt lat="44.30585" lon="6.33651">
        <ele>1542.1999511719</ele>
        <time>2016-07-19T09:16:57.000Z</time>
      </trkpt>
      <trkpt lat="44.30587" lon="6.33651">
        <ele>1542.5999755859</ele>
        <time>2016-07-19T09:16:59.000Z</time>
      </trkpt>
      <trkpt lat="44.30593" lon="6.33642">
        <ele>1542</ele>
        <time>2016-07-19T09:17:05.000Z</time>
      </trkpt>
      <trkpt lat="44.30593" lon="6.33637">
        <ele>1541.4000244141</ele>
        <time>2016-07-19T09:17:13.000Z</time>
      </trkpt>
      <trkpt lat="44.30588" lon="6.33626">
        <ele>1539</ele>
        <time>2016-07-19T09:17:20.000Z</time>
      </trkpt>
      <trkpt lat="44.30581" lon="6.33614">
        <ele>1536.4000244141</ele>
        <time>2016-07-19T09:17:29.000Z</time>
      </trkpt>
      <trkpt lat="44.3058" lon="6.33612">
        <ele>1536</ele>
        <time>2016-07-19T09:17:34.000Z</time>
      </trkpt>
      <trkpt lat="44.3057" lon="6.336">
        <ele>1533.1999511719</ele>
        <time>2016-07-19T09:17:43.000Z</time>
      </trkpt>
      <trkpt lat="44.30562" lon="6.33592">
        <ele>1530.8000488281</ele>
        <time>2016-07-19T09:17:51.000Z</time>
      </trkpt>
      <trkpt lat="44.30553" lon="6.33582">
        <ele>1528</ele>
        <time>2016-07-19T09:17:59.000Z</time>
      </trkpt>
      <trkpt lat="44.30541" lon="6.33571">
        <ele>1524.5999755859</ele>
        <time>2016-07-19T09:18:09.000Z</time>
      </trkpt>
      <trkpt lat="44.30536" lon="6.33566">
        <ele>1523</ele>
        <time>2016-07-19T09:18:14.000Z</time>
      </trkpt>
      <trkpt lat="44.30524" lon="6.33552">
        <ele>1520.4000244141</ele>
        <time>2016-07-19T09:18:25.000Z</time>
      </trkpt>
      <trkpt lat="44.30513" lon="6.33538">
        <ele>1518</ele>
        <time>2016-07-19T09:18:35.000Z</time>
      </trkpt>
      <trkpt lat="44.30502" lon="6.3352">
        <ele>1516.1999511719</ele>
        <time>2016-07-19T09:18:47.000Z</time>
      </trkpt>
      <trkpt lat="44.30493" lon="6.33498">
        <ele>1516</ele>
        <time>2016-07-19T09:18:59.000Z</time>
      </trkpt>
      <trkpt lat="44.30487" lon="6.33482">
        <ele>1516.8000488281</ele>
        <time>2016-07-19T09:19:06.000Z</time>
      </trkpt>
      <trkpt lat="44.30481" lon="6.33456">
        <ele>1518.4000244141</ele>
        <time>2016-07-19T09:19:13.000Z</time>
      </trkpt>
      <trkpt lat="44.30475" lon="6.33428">
        <ele>1520.8000488281</ele>
        <time>2016-07-19T09:19:20.000Z</time>
      </trkpt>
      <trkpt lat="44.30465" lon="6.33407">
        <ele>1520.4000244141</ele>
        <time>2016-07-19T09:19:26.000Z</time>
      </trkpt>
      <trkpt lat="44.30455" lon="6.33382">
        <ele>1519.5999755859</ele>
        <time>2016-07-19T09:19:33.000Z</time>
      </trkpt>
      <trkpt lat="44.30448" lon="6.33355">
        <ele>1520</ele>
        <time>2016-07-19T09:19:39.000Z</time>
      </trkpt>
      <trkpt lat="44.30442" lon="6.33327">
        <ele>1522</ele>
        <time>2016-07-19T09:19:46.000Z</time>
      </trkpt>
      <trkpt lat="44.3044" lon="6.33318">
        <ele>1522.1999511719</ele>
        <time>2016-07-19T09:19:50.000Z</time>
      </trkpt>
      <trkpt lat="44.30435" lon="6.33303">
        <ele>1523.4000244141</ele>
        <time>2016-07-19T09:19:58.000Z</time>
      </trkpt>
      <trkpt lat="44.30428" lon="6.33287">
        <ele>1523.4000244141</ele>
        <time>2016-07-19T09:20:07.000Z</time>
      </trkpt>
      <trkpt lat="44.3042" lon="6.33268">
        <ele>1523</ele>
        <time>2016-07-19T09:20:17.000Z</time>
      </trkpt>
      <trkpt lat="44.30416" lon="6.33259">
        <ele>1522.5999755859</ele>
        <time>2016-07-19T09:20:23.000Z</time>
      </trkpt>
      <trkpt lat="44.30409" lon="6.33245">
        <ele>1522.1999511719</ele>
        <time>2016-07-19T09:20:32.000Z</time>
      </trkpt>
      <trkpt lat="44.30402" lon="6.3323">
        <ele>1521.8000488281</ele>
        <time>2016-07-19T09:20:41.000Z</time>
      </trkpt>
      <trkpt lat="44.30397" lon="6.33215">
        <ele>1523.4000244141</ele>
        <time>2016-07-19T09:20:49.000Z</time>
      </trkpt>
      <trkpt lat="44.30399" lon="6.33203">
        <ele>1526.4000244141</ele>
        <time>2016-07-19T09:20:56.000Z</time>
      </trkpt>
      <trkpt lat="44.30402" lon="6.33199">
        <ele>1528.1999511719</ele>
        <time>2016-07-19T09:20:59.000Z</time>
      </trkpt>
      <trkpt lat="44.30416" lon="6.33198">
        <ele>1531.5999755859</ele>
        <time>2016-07-19T09:21:11.000Z</time>
      </trkpt>
      <trkpt lat="44.30424" lon="6.33199">
        <ele>1531.4000244141</ele>
        <time>2016-07-19T09:21:17.000Z</time>
      </trkpt>
      <trkpt lat="44.30433" lon="6.33201">
        <ele>1531.4000244141</ele>
        <time>2016-07-19T09:21:24.000Z</time>
      </trkpt>
      <trkpt lat="44.30442" lon="6.33201">
        <ele>1531</ele>
        <time>2016-07-19T09:21:30.000Z</time>
      </trkpt>
      <trkpt lat="44.30452" lon="6.33202">
        <ele>1531.4000244141</ele>
        <time>2016-07-19T09:21:36.000Z</time>
      </trkpt>
      <trkpt lat="44.30462" lon="6.33203">
        <ele>1532</ele>
        <time>2016-07-19T09:21:41.000Z</time>
      </trkpt>
      <trkpt lat="44.30472" lon="6.33205">
        <ele>1533</ele>
        <time>2016-07-19T09:21:48.000Z</time>
      </trkpt>
      <trkpt lat="44.30483" lon="6.33206">
        <ele>1534</ele>
        <time>2016-07-19T09:21:56.000Z</time>
      </trkpt>
      <trkpt lat="44.30495" lon="6.33206">
        <ele>1534.8000488281</ele>
        <time>2016-07-19T09:22:04.000Z</time>
      </trkpt>
      <trkpt lat="44.30508" lon="6.33204">
        <ele>1534.4000244141</ele>
        <time>2016-07-19T09:22:12.000Z</time>
      </trkpt>
      <trkpt lat="44.30523" lon="6.33202">
        <ele>1530.4000244141</ele>
        <time>2016-07-19T09:22:22.000Z</time>
      </trkpt>
      <trkpt lat="44.30531" lon="6.33201">
        <ele>1528.8000488281</ele>
        <time>2016-07-19T09:22:27.000Z</time>
      </trkpt>
      <trkpt lat="44.30537" lon="6.33199">
        <ele>1528.4000244141</ele>
        <time>2016-07-19T09:22:31.000Z</time>
      </trkpt>
      <trkpt lat="44.30551" lon="6.33194">
        <ele>1527.1999511719</ele>
        <time>2016-07-19T09:22:41.000Z</time>
      </trkpt>
      <trkpt lat="44.30554" lon="6.33193">
        <ele>1526.8000488281</ele>
        <time>2016-07-19T09:22:45.000Z</time>
      </trkpt>
      <trkpt lat="44.30561" lon="6.3319">
        <ele>1526</ele>
        <time>2016-07-19T09:22:51.000Z</time>
      </trkpt>
      <trkpt lat="44.30568" lon="6.33188">
        <ele>1525.1999511719</ele>
        <time>2016-07-19T09:22:57.000Z</time>
      </trkpt>
      <trkpt lat="44.30581" lon="6.33182">
        <ele>1523.4000244141</ele>
        <time>2016-07-19T09:23:06.000Z</time>
      </trkpt>
      <trkpt lat="44.30596" lon="6.33177">
        <ele>1521.5999755859</ele>
        <time>2016-07-19T09:23:16.000Z</time>
      </trkpt>
      <trkpt lat="44.30611" lon="6.33168">
        <ele>1518.5999755859</ele>
        <time>2016-07-19T09:23:28.000Z</time>
      </trkpt>
      <trkpt lat="44.30616" lon="6.33156">
        <ele>1513.4000244141</ele>
        <time>2016-07-19T09:23:37.000Z</time>
      </trkpt>
      <trkpt lat="44.30617" lon="6.33141">
        <ele>1509</ele>
        <time>2016-07-19T09:23:45.000Z</time>
      </trkpt>
      <trkpt lat="44.30618" lon="6.33123">
        <ele>1504.1999511719</ele>
        <time>2016-07-19T09:23:55.000Z</time>
      </trkpt>
      <trkpt lat="44.30622" lon="6.33109">
        <ele>1500.8000488281</ele>
        <time>2016-07-19T09:24:03.000Z</time>
      </trkpt>
      <trkpt lat="44.30627" lon="6.33097">
        <ele>1498.4000244141</ele>
        <time>2016-07-19T09:24:10.000Z</time>
      </trkpt>
      <trkpt lat="44.30635" lon="6.33084">
        <ele>1496</ele>
        <time>2016-07-19T09:24:18.000Z</time>
      </trkpt>
      <trkpt lat="44.30641" lon="6.33075">
        <ele>1496</ele>
        <time>2016-07-19T09:24:23.000Z</time>
      </trkpt>
      <trkpt lat="44.3065" lon="6.33061">
        <ele>1495.4000244141</ele>
        <time>2016-07-19T09:24:31.000Z</time>
      </trkpt>
      <trkpt lat="44.30656" lon="6.33054">
        <ele>1494.8000488281</ele>
        <time>2016-07-19T09:24:35.000Z</time>
      </trkpt>
      <trkpt lat="44.30665" lon="6.33042">
        <ele>1493.8000488281</ele>
        <time>2016-07-19T09:24:43.000Z</time>
      </trkpt>
      <trkpt lat="44.30674" lon="6.33039">
        <ele>1495.1999511719</ele>
        <time>2016-07-19T09:24:50.000Z</time>
      </trkpt>
      <trkpt lat="44.3068" lon="6.33044">
        <ele>1498</ele>
        <time>2016-07-19T09:24:54.000Z</time>
      </trkpt>
      <trkpt lat="44.30692" lon="6.33051">
        <ele>1503</ele>
        <time>2016-07-19T09:25:02.000Z</time>
      </trkpt>
      <trkpt lat="44.30698" lon="6.3306">
        <ele>1505.8000488281</ele>
        <time>2016-07-19T09:25:09.000Z</time>
      </trkpt>
      <trkpt lat="44.30703" lon="6.33071">
        <ele>1505.5999755859</ele>
        <time>2016-07-19T09:25:16.000Z</time>
      </trkpt>
      <trkpt lat="44.30705" lon="6.33086">
        <ele>1507.5999755859</ele>
        <time>2016-07-19T09:25:23.000Z</time>
      </trkpt>
      <trkpt lat="44.30707" lon="6.33097">
        <ele>1508.5999755859</ele>
        <time>2016-07-19T09:25:29.000Z</time>
      </trkpt>
      <trkpt lat="44.30708" lon="6.33103">
        <ele>1509</ele>
        <time>2016-07-19T09:25:34.000Z</time>
      </trkpt>
      <trkpt lat="44.30709" lon="6.33115">
        <ele>1510.4000244141</ele>
        <time>2016-07-19T09:25:40.000Z</time>
      </trkpt>
      <trkpt lat="44.30709" lon="6.33119">
        <ele>1511</ele>
        <time>2016-07-19T09:25:42.000Z</time>
      </trkpt>
      <trkpt lat="44.3071" lon="6.3313">
        <ele>1512.4000244141</ele>
        <time>2016-07-19T09:25:48.000Z</time>
      </trkpt>
      <trkpt lat="44.30712" lon="6.33149">
        <ele>1514.5999755859</ele>
        <time>2016-07-19T09:25:57.000Z</time>
      </trkpt>
      <trkpt lat="44.30717" lon="6.33165">
        <ele>1515.5999755859</ele>
        <time>2016-07-19T09:26:06.000Z</time>
      </trkpt>
      <trkpt lat="44.30721" lon="6.3318">
        <ele>1517.1999511719</ele>
        <time>2016-07-19T09:26:14.000Z</time>
      </trkpt>
      <trkpt lat="44.30721" lon="6.33182">
        <ele>1517.5999755859</ele>
        <time>2016-07-19T09:26:15.000Z</time>
      </trkpt>
      <trkpt lat="44.30725" lon="6.33194">
        <ele>1519</ele>
        <time>2016-07-19T09:26:22.000Z</time>
      </trkpt>
      <trkpt lat="44.3073" lon="6.3321">
        <ele>1520.5999755859</ele>
        <time>2016-07-19T09:26:30.000Z</time>
      </trkpt>
      <trkpt lat="44.30738" lon="6.33233">
        <ele>1522.4000244141</ele>
        <time>2016-07-19T09:26:42.000Z</time>
      </trkpt>
      <trkpt lat="44.30746" lon="6.33243">
        <ele>1521.5999755859</ele>
        <time>2016-07-19T09:26:49.000Z</time>
      </trkpt>
      <trkpt lat="44.30758" lon="6.33257">
        <ele>1519.5999755859</ele>
        <time>2016-07-19T09:26:59.000Z</time>
      </trkpt>
      <trkpt lat="44.30769" lon="6.3327">
        <ele>1518.1999511719</ele>
        <time>2016-07-19T09:27:08.000Z</time>
      </trkpt>
      <trkpt lat="44.30779" lon="6.3328">
        <ele>1516.1999511719</ele>
        <time>2016-07-19T09:27:16.000Z</time>
      </trkpt>
      <trkpt lat="44.30789" lon="6.33288">
        <ele>1515</ele>
        <time>2016-07-19T09:27:24.000Z</time>
      </trkpt>
      <trkpt lat="44.30797" lon="6.33296">
        <ele>1514.4000244141</ele>
        <time>2016-07-19T09:27:31.000Z</time>
      </trkpt>
      <trkpt lat="44.30803" lon="6.33307">
        <ele>1515</ele>
        <time>2016-07-19T09:27:38.000Z</time>
      </trkpt>
      <trkpt lat="44.30809" lon="6.3332">
        <ele>1515.4000244141</ele>
        <time>2016-07-19T09:27:46.000Z</time>
      </trkpt>
      <trkpt lat="44.30817" lon="6.33334">
        <ele>1514.5999755859</ele>
        <time>2016-07-19T09:27:55.000Z</time>
      </trkpt>
      <trkpt lat="44.3082" lon="6.33353">
        <ele>1515.4000244141</ele>
        <time>2016-07-19T09:28:05.000Z</time>
      </trkpt>
      <trkpt lat="44.30821" lon="6.33371">
        <ele>1517</ele>
        <time>2016-07-19T09:28:14.000Z</time>
      </trkpt>
      <trkpt lat="44.30822" lon="6.33374">
        <ele>1517.1999511719</ele>
        <time>2016-07-19T09:28:17.000Z</time>
      </trkpt>
      <trkpt lat="44.30826" lon="6.33381">
        <ele>1516.8000488281</ele>
        <time>2016-07-19T09:28:22.000Z</time>
      </trkpt>
      <trkpt lat="44.30835" lon="6.33379">
        <ele>1513.4000244141</ele>
        <time>2016-07-19T09:28:29.000Z</time>
      </trkpt>
      <trkpt lat="44.30843" lon="6.33363">
        <ele>1509</ele>
        <time>2016-07-19T09:28:39.000Z</time>
      </trkpt>
      <trkpt lat="44.30847" lon="6.33349">
        <ele>1506.5999755859</ele>
        <time>2016-07-19T09:28:47.000Z</time>
      </trkpt>
      <trkpt lat="44.3085" lon="6.33319">
        <ele>1502.8000488281</ele>
        <time>2016-07-19T09:29:04.000Z</time>
      </trkpt>
      <trkpt lat="44.3085" lon="6.33312">
        <ele>1501.8000488281</ele>
        <time>2016-07-19T09:29:11.000Z</time>
      </trkpt>
      <trkpt lat="44.30847" lon="6.3331">
        <ele>1502</ele>
        <time>2016-07-19T09:29:16.000Z</time>
      </trkpt>
      <trkpt lat="44.30847" lon="6.33308">
        <ele>1501.5999755859</ele>
        <time>2016-07-19T09:29:17.000Z</time>
      </trkpt>
      <trkpt lat="44.3085" lon="6.33306">
        <ele>1500.5999755859</ele>
        <time>2016-07-19T09:29:22.000Z</time>
      </trkpt>
      <trkpt lat="44.3085" lon="6.33304">
        <ele>1499.8000488281</ele>
        <time>2016-07-19T09:29:29.000Z</time>
      </trkpt>
      <trkpt lat="44.30851" lon="6.33305">
        <ele>1499.8000488281</ele>
        <time>2016-07-19T09:29:42.000Z</time>
      </trkpt>
      <trkpt lat="44.30852" lon="6.333">
        <ele>1498.1999511719</ele>
        <time>2016-07-19T09:30:16.000Z</time>
      </trkpt>
      <trkpt lat="44.30853" lon="6.33299">
        <ele>1497.8000488281</ele>
        <time>2016-07-19T09:30:17.000Z</time>
      </trkpt>
      <trkpt lat="44.3086" lon="6.3329">
        <ele>1493.5999755859</ele>
        <time>2016-07-19T09:30:24.000Z</time>
      </trkpt>
      <trkpt lat="44.30867" lon="6.33283">
        <ele>1491</ele>
        <time>2016-07-19T09:30:31.000Z</time>
      </trkpt>
      <trkpt lat="44.30874" lon="6.33279">
        <ele>1490.1999511719</ele>
        <time>2016-07-19T09:30:38.000Z</time>
      </trkpt>
      <trkpt lat="44.30883" lon="6.33278">
        <ele>1490.1999511719</ele>
        <time>2016-07-19T09:30:46.000Z</time>
      </trkpt>
      <trkpt lat="44.30884" lon="6.33278">
        <ele>1490.4000244141</ele>
        <time>2016-07-19T09:30:47.000Z</time>
      </trkpt>
      <trkpt lat="44.30895" lon="6.33279">
        <ele>1490.8000488281</ele>
        <time>2016-07-19T09:30:55.000Z</time>
      </trkpt>
      <trkpt lat="44.30902" lon="6.33282">
        <ele>1491.5999755859</ele>
        <time>2016-07-19T09:31:01.000Z</time>
      </trkpt>
      <trkpt lat="44.30912" lon="6.33281">
        <ele>1491.5999755859</ele>
        <time>2016-07-19T09:31:08.000Z</time>
      </trkpt>
      <trkpt lat="44.30919" lon="6.33281">
        <ele>1492.1999511719</ele>
        <time>2016-07-19T09:31:14.000Z</time>
      </trkpt>
      <trkpt lat="44.30927" lon="6.33282">
        <ele>1493</ele>
        <time>2016-07-19T09:31:20.000Z</time>
      </trkpt>
      <trkpt lat="44.3094" lon="6.33285">
        <ele>1494.4000244141</ele>
        <time>2016-07-19T09:31:29.000Z</time>
      </trkpt>
      <trkpt lat="44.30943" lon="6.33286">
        <ele>1494.5999755859</ele>
        <time>2016-07-19T09:31:31.000Z</time>
      </trkpt>
      <trkpt lat="44.30945" lon="6.33288">
        <ele>1495.1999511719</ele>
        <time>2016-07-19T09:31:36.000Z</time>
      </trkpt>
      <trkpt lat="44.30947" lon="6.3329">
        <ele>1495.5999755859</ele>
        <time>2016-07-19T09:31:40.000Z</time>
      </trkpt>
      <trkpt lat="44.30956" lon="6.33295">
        <ele>1495.8000488281</ele>
        <time>2016-07-19T09:31:47.000Z</time>
      </trkpt>
      <trkpt lat="44.30966" lon="6.33292">
        <ele>1494.5999755859</ele>
        <time>2016-07-19T09:31:54.000Z</time>
      </trkpt>
      <trkpt lat="44.30972" lon="6.33281">
        <ele>1492.4000244141</ele>
        <time>2016-07-19T09:32:01.000Z</time>
      </trkpt>
      <trkpt lat="44.30972" lon="6.33267">
        <ele>1489.8000488281</ele>
        <time>2016-07-19T09:32:09.000Z</time>
      </trkpt>
      <trkpt lat="44.3097" lon="6.33255">
        <ele>1487.8000488281</ele>
        <time>2016-07-19T09:32:16.000Z</time>
      </trkpt>
      <trkpt lat="44.30967" lon="6.33243">
        <ele>1487.1999511719</ele>
        <time>2016-07-19T09:32:24.000Z</time>
      </trkpt>
      <trkpt lat="44.30963" lon="6.33235">
        <ele>1486.5999755859</ele>
        <time>2016-07-19T09:32:30.000Z</time>
      </trkpt>
      <trkpt lat="44.30963" lon="6.33223">
        <ele>1485.4000244141</ele>
        <time>2016-07-19T09:32:37.000Z</time>
      </trkpt>
      <trkpt lat="44.30969" lon="6.33221">
        <ele>1485.5999755859</ele>
        <time>2016-07-19T09:32:43.000Z</time>
      </trkpt>
      <trkpt lat="44.30977" lon="6.33227">
        <ele>1487.4000244141</ele>
        <time>2016-07-19T09:32:50.000Z</time>
      </trkpt>
      <trkpt lat="44.30989" lon="6.33236">
        <ele>1489</ele>
        <time>2016-07-19T09:33:01.000Z</time>
      </trkpt>
      <trkpt lat="44.30994" lon="6.33243">
        <ele>1489.8000488281</ele>
        <time>2016-07-19T09:33:08.000Z</time>
      </trkpt>
      <trkpt lat="44.30995" lon="6.33244">
        <ele>1489.8000488281</ele>
        <time>2016-07-19T09:33:09.000Z</time>
      </trkpt>
      <trkpt lat="44.30999" lon="6.33244">
        <ele>1490.1999511719</ele>
        <time>2016-07-19T09:33:12.000Z</time>
      </trkpt>
      <trkpt lat="44.31002" lon="6.33245">
        <ele>1490.4000244141</ele>
        <time>2016-07-19T09:33:15.000Z</time>
      </trkpt>
      <trkpt lat="44.31003" lon="6.33245">
        <ele>1490.5999755859</ele>
        <time>2016-07-19T09:33:18.000Z</time>
      </trkpt>
      <trkpt lat="44.31009" lon="6.33248">
        <ele>1491.1999511719</ele>
        <time>2016-07-19T09:33:24.000Z</time>
      </trkpt>
      <trkpt lat="44.3101" lon="6.33248">
        <ele>1491.4000244141</ele>
        <time>2016-07-19T09:33:25.000Z</time>
      </trkpt>
      <trkpt lat="44.31019" lon="6.33248">
        <ele>1492.1999511719</ele>
        <time>2016-07-19T09:33:32.000Z</time>
      </trkpt>
      <trkpt lat="44.31029" lon="6.33247">
        <ele>1493</ele>
        <time>2016-07-19T09:33:40.000Z</time>
      </trkpt>
      <trkpt lat="44.31038" lon="6.33245">
        <ele>1492.8000488281</ele>
        <time>2016-07-19T09:33:48.000Z</time>
      </trkpt>
      <trkpt lat="44.31048" lon="6.33227">
        <ele>1493.8000488281</ele>
        <time>2016-07-19T09:34:03.000Z</time>
      </trkpt>
      <trkpt lat="44.3105" lon="6.33215">
        <ele>1494.8000488281</ele>
        <time>2016-07-19T09:34:10.000Z</time>
      </trkpt>
      <trkpt lat="44.31048" lon="6.33204">
        <ele>1495.5999755859</ele>
        <time>2016-07-19T09:34:17.000Z</time>
      </trkpt>
      <trkpt lat="44.31046" lon="6.33194">
        <ele>1496.4000244141</ele>
        <time>2016-07-19T09:34:24.000Z</time>
      </trkpt>
      <trkpt lat="44.31046" lon="6.33193">
        <ele>1496.5999755859</ele>
        <time>2016-07-19T09:34:25.000Z</time>
      </trkpt>
      <trkpt lat="44.31047" lon="6.33193">
        <ele>1496.5999755859</ele>
        <time>2016-07-19T09:34:35.000Z</time>
      </trkpt>
      <trkpt lat="44.31049" lon="6.33198">
        <ele>1496.1999511719</ele>
        <time>2016-07-19T09:35:43.000Z</time>
      </trkpt>
      <trkpt lat="44.3105" lon="6.33199">
        <ele>1496.1999511719</ele>
        <time>2016-07-19T09:35:44.000Z</time>
      </trkpt>
      <trkpt lat="44.31052" lon="6.33196">
        <ele>1496.4000244141</ele>
        <time>2016-07-19T09:35:47.000Z</time>
      </trkpt>
      <trkpt lat="44.31053" lon="6.33192">
        <ele>1496.8000488281</ele>
        <time>2016-07-19T09:35:49.000Z</time>
      </trkpt>
      <trkpt lat="44.31055" lon="6.3318">
        <ele>1497.8000488281</ele>
        <time>2016-07-19T09:35:56.000Z</time>
      </trkpt>
      <trkpt lat="44.31056" lon="6.33173">
        <ele>1498.4000244141</ele>
        <time>2016-07-19T09:36:00.000Z</time>
      </trkpt>
      <trkpt lat="44.3106" lon="6.33163">
        <ele>1497.8000488281</ele>
        <time>2016-07-19T09:36:07.000Z</time>
      </trkpt>
      <trkpt lat="44.31064" lon="6.33152">
        <ele>1497.1999511719</ele>
        <time>2016-07-19T09:36:14.000Z</time>
      </trkpt>
      <trkpt lat="44.31065" lon="6.3315">
        <ele>1497.1999511719</ele>
        <time>2016-07-19T09:36:15.000Z</time>
      </trkpt>
      <trkpt lat="44.31071" lon="6.33142">
        <ele>1496.8000488281</ele>
        <time>2016-07-19T09:36:22.000Z</time>
      </trkpt>
      <trkpt lat="44.3107" lon="6.33141">
        <ele>1496.8000488281</ele>
        <time>2016-07-19T09:36:23.000Z</time>
      </trkpt>
      <trkpt lat="44.3107" lon="6.3314">
        <ele>1496.8000488281</ele>
        <time>2016-07-19T09:36:27.000Z</time>
      </trkpt>
      <trkpt lat="44.31071" lon="6.33138">
        <ele>1496.8000488281</ele>
        <time>2016-07-19T09:36:29.000Z</time>
      </trkpt>
      <trkpt lat="44.31077" lon="6.33134">
        <ele>1496.4000244141</ele>
        <time>2016-07-19T09:36:35.000Z</time>
      </trkpt>
      <trkpt lat="44.31082" lon="6.33126">
        <ele>1496.1999511719</ele>
        <time>2016-07-19T09:36:42.000Z</time>
      </trkpt>
      <trkpt lat="44.31086" lon="6.33122">
        <ele>1496</ele>
        <time>2016-07-19T09:36:46.000Z</time>
      </trkpt>
      <trkpt lat="44.31094" lon="6.33114">
        <ele>1496</ele>
        <time>2016-07-19T09:36:54.000Z</time>
      </trkpt>
      <trkpt lat="44.31096" lon="6.33114">
        <ele>1495.8000488281</ele>
        <time>2016-07-19T09:36:55.000Z</time>
      </trkpt>
      <trkpt lat="44.311" lon="6.3312">
        <ele>1495.1999511719</ele>
        <time>2016-07-19T09:37:00.000Z</time>
      </trkpt>
      <trkpt lat="44.311" lon="6.33122">
        <ele>1495.1999511719</ele>
        <time>2016-07-19T09:37:01.000Z</time>
      </trkpt>
      <trkpt lat="44.31099" lon="6.33133">
        <ele>1494.5999755859</ele>
        <time>2016-07-19T09:37:08.000Z</time>
      </trkpt>
      <trkpt lat="44.31098" lon="6.33137">
        <ele>1494.5999755859</ele>
        <time>2016-07-19T09:37:15.000Z</time>
      </trkpt>
      <trkpt lat="44.31092" lon="6.33146">
        <ele>1494.8000488281</ele>
        <time>2016-07-19T09:37:22.000Z</time>
      </trkpt>
      <trkpt lat="44.31093" lon="6.33146">
        <ele>1494.8000488281</ele>
        <time>2016-07-19T09:37:28.000Z</time>
      </trkpt>
      <trkpt lat="44.31091" lon="6.33154">
        <ele>1495</ele>
        <time>2016-07-19T09:37:33.000Z</time>
      </trkpt>
      <trkpt lat="44.31093" lon="6.33161">
        <ele>1495</ele>
        <time>2016-07-19T09:37:37.000Z</time>
      </trkpt>
      <trkpt lat="44.31096" lon="6.33168">
        <ele>1495</ele>
        <time>2016-07-19T09:37:41.000Z</time>
      </trkpt>
      <trkpt lat="44.311" lon="6.33181">
        <ele>1495</ele>
        <time>2016-07-19T09:37:49.000Z</time>
      </trkpt>
      <trkpt lat="44.31103" lon="6.33191">
        <ele>1495</ele>
        <time>2016-07-19T09:37:56.000Z</time>
      </trkpt>
      <trkpt lat="44.31106" lon="6.33204">
        <ele>1495</ele>
        <time>2016-07-19T09:38:04.000Z</time>
      </trkpt>
      <trkpt lat="44.3111" lon="6.33215">
        <ele>1494.8000488281</ele>
        <time>2016-07-19T09:38:11.000Z</time>
      </trkpt>
      <trkpt lat="44.31115" lon="6.33223">
        <ele>1494.4000244141</ele>
        <time>2016-07-19T09:38:16.000Z</time>
      </trkpt>
      <trkpt lat="44.3112" lon="6.33231">
        <ele>1492.5999755859</ele>
        <time>2016-07-19T09:38:23.000Z</time>
      </trkpt>
      <trkpt lat="44.31123" lon="6.33234">
        <ele>1491.5999755859</ele>
        <time>2016-07-19T09:38:26.000Z</time>
      </trkpt>
      <trkpt lat="44.31131" lon="6.33246">
        <ele>1487.8000488281</ele>
        <time>2016-07-19T09:38:35.000Z</time>
      </trkpt>
      <trkpt lat="44.31132" lon="6.33247">
        <ele>1487.5999755859</ele>
        <time>2016-07-19T09:38:36.000Z</time>
      </trkpt>
      <trkpt lat="44.31134" lon="6.33252">
        <ele>1486.4000244141</ele>
        <time>2016-07-19T09:38:39.000Z</time>
      </trkpt>
      <trkpt lat="44.31138" lon="6.3326">
        <ele>1484.5999755859</ele>
        <time>2016-07-19T09:38:44.000Z</time>
      </trkpt>
      <trkpt lat="44.31139" lon="6.33271">
        <ele>1483.1999511719</ele>
        <time>2016-07-19T09:38:50.000Z</time>
      </trkpt>
      <trkpt lat="44.31138" lon="6.33288">
        <ele>1482.5999755859</ele>
        <time>2016-07-19T09:38:59.000Z</time>
      </trkpt>
      <trkpt lat="44.31136" lon="6.33301">
        <ele>1482.8000488281</ele>
        <time>2016-07-19T09:39:06.000Z</time>
      </trkpt>
      <trkpt lat="44.31132" lon="6.33311">
        <ele>1483.4000244141</ele>
        <time>2016-07-19T09:39:12.000Z</time>
      </trkpt>
      <trkpt lat="44.31132" lon="6.33312">
        <ele>1483.5999755859</ele>
        <time>2016-07-19T09:39:13.000Z</time>
      </trkpt>
      <trkpt lat="44.3113" lon="6.33319">
        <ele>1484.1999511719</ele>
        <time>2016-07-19T09:39:17.000Z</time>
      </trkpt>
      <trkpt lat="44.31128" lon="6.33334">
        <ele>1484.5999755859</ele>
        <time>2016-07-19T09:39:25.000Z</time>
      </trkpt>
      <trkpt lat="44.31129" lon="6.33347">
        <ele>1484.1999511719</ele>
        <time>2016-07-19T09:39:32.000Z</time>
      </trkpt>
      <trkpt lat="44.31129" lon="6.33361">
        <ele>1484</ele>
        <time>2016-07-19T09:39:39.000Z</time>
      </trkpt>
      <trkpt lat="44.31128" lon="6.33366">
        <ele>1484</ele>
        <time>2016-07-19T09:39:42.000Z</time>
      </trkpt>
      <trkpt lat="44.31129" lon="6.33381">
        <ele>1483.5999755859</ele>
        <time>2016-07-19T09:39:50.000Z</time>
      </trkpt>
      <trkpt lat="44.31129" lon="6.33383">
        <ele>1483.4000244141</ele>
        <time>2016-07-19T09:39:51.000Z</time>
      </trkpt>
      <trkpt lat="44.31126" lon="6.33397">
        <ele>1483.8000488281</ele>
        <time>2016-07-19T09:39:59.000Z</time>
      </trkpt>
      <trkpt lat="44.31122" lon="6.33414">
        <ele>1488.8000488281</ele>
        <time>2016-07-19T09:40:09.000Z</time>
      </trkpt>
      <trkpt lat="44.31122" lon="6.33425">
        <ele>1490.1999511719</ele>
        <time>2016-07-19T09:40:15.000Z</time>
      </trkpt>
      <trkpt lat="44.31122" lon="6.33426">
        <ele>1490.1999511719</ele>
        <time>2016-07-19T09:40:16.000Z</time>
      </trkpt>
      <trkpt lat="44.31131" lon="6.33431">
        <ele>1489.5999755859</ele>
        <time>2016-07-19T09:40:24.000Z</time>
      </trkpt>
      <trkpt lat="44.3114" lon="6.33431">
        <ele>1488.4000244141</ele>
        <time>2016-07-19T09:40:31.000Z</time>
      </trkpt>
      <trkpt lat="44.3115" lon="6.3343">
        <ele>1486</ele>
        <time>2016-07-19T09:40:39.000Z</time>
      </trkpt>
      <trkpt lat="44.31161" lon="6.33424">
        <ele>1480.8000488281</ele>
        <time>2016-07-19T09:40:48.000Z</time>
      </trkpt>
      <trkpt lat="44.3117" lon="6.33416">
        <ele>1475.1999511719</ele>
        <time>2016-07-19T09:40:56.000Z</time>
      </trkpt>
      <trkpt lat="44.31188" lon="6.33421">
        <ele>1471</ele>
        <time>2016-07-19T09:41:10.000Z</time>
      </trkpt>
      <trkpt lat="44.31193" lon="6.33427">
        <ele>1471.4000244141</ele>
        <time>2016-07-19T09:41:15.000Z</time>
      </trkpt>
      <trkpt lat="44.31198" lon="6.33431">
        <ele>1470.8000488281</ele>
        <time>2016-07-19T09:41:20.000Z</time>
      </trkpt>
      <trkpt lat="44.31202" lon="6.33434">
        <ele>1471</ele>
        <time>2016-07-19T09:41:25.000Z</time>
      </trkpt>
      <trkpt lat="44.31204" lon="6.33433">
        <ele>1470.1999511719</ele>
        <time>2016-07-19T09:41:29.000Z</time>
      </trkpt>
      <trkpt lat="44.3121" lon="6.33431">
        <ele>1468</ele>
        <time>2016-07-19T09:41:34.000Z</time>
      </trkpt>
      <trkpt lat="44.31222" lon="6.33433">
        <ele>1465.5999755859</ele>
        <time>2016-07-19T09:41:44.000Z</time>
      </trkpt>
      <trkpt lat="44.31228" lon="6.33438">
        <ele>1466</ele>
        <time>2016-07-19T09:41:49.000Z</time>
      </trkpt>
      <trkpt lat="44.31231" lon="6.33445">
        <ele>1467.1999511719</ele>
        <time>2016-07-19T09:41:53.000Z</time>
      </trkpt>
      <trkpt lat="44.31236" lon="6.33457">
        <ele>1469.5999755859</ele>
        <time>2016-07-19T09:42:00.000Z</time>
      </trkpt>
      <trkpt lat="44.31237" lon="6.33459">
        <ele>1469.8000488281</ele>
        <time>2016-07-19T09:42:01.000Z</time>
      </trkpt>
      <trkpt lat="44.31241" lon="6.33462">
        <ele>1469.5999755859</ele>
        <time>2016-07-19T09:42:05.000Z</time>
      </trkpt>
      <trkpt lat="44.31257" lon="6.33464">
        <ele>1466.5999755859</ele>
        <time>2016-07-19T09:42:17.000Z</time>
      </trkpt>
      <trkpt lat="44.3126" lon="6.33467">
        <ele>1467</ele>
        <time>2016-07-19T09:42:23.000Z</time>
      </trkpt>
      <trkpt lat="44.31262" lon="6.33468">
        <ele>1466.8000488281</ele>
        <time>2016-07-19T09:42:37.000Z</time>
      </trkpt>
      <trkpt lat="44.3126" lon="6.33465">
        <ele>1466</ele>
        <time>2016-07-19T09:42:43.000Z</time>
      </trkpt>
      <trkpt lat="44.3126" lon="6.33464">
        <ele>1465.8000488281</ele>
        <time>2016-07-19T09:42:45.000Z</time>
      </trkpt>
      <trkpt lat="44.31261" lon="6.33468">
        <ele>1466.5999755859</ele>
        <time>2016-07-19T09:42:48.000Z</time>
      </trkpt>
      <trkpt lat="44.31266" lon="6.33473">
        <ele>1467.1999511719</ele>
        <time>2016-07-19T09:42:54.000Z</time>
      </trkpt>
      <trkpt lat="44.31272" lon="6.33477">
        <ele>1466.8000488281</ele>
        <time>2016-07-19T09:43:01.000Z</time>
      </trkpt>
      <trkpt lat="44.31275" lon="6.33481">
        <ele>1467.1999511719</ele>
        <time>2016-07-19T09:43:06.000Z</time>
      </trkpt>
      <trkpt lat="44.31282" lon="6.33485">
        <ele>1466.1999511719</ele>
        <time>2016-07-19T09:43:13.000Z</time>
      </trkpt>
      <trkpt lat="44.3128" lon="6.33485">
        <ele>1466.8000488281</ele>
        <time>2016-07-19T09:43:17.000Z</time>
      </trkpt>
      <trkpt lat="44.31278" lon="6.33484">
        <ele>1467.1999511719</ele>
        <time>2016-07-19T09:43:22.000Z</time>
      </trkpt>
      <trkpt lat="44.31282" lon="6.33486">
        <ele>1466.5999755859</ele>
        <time>2016-07-19T09:43:29.000Z</time>
      </trkpt>
      <trkpt lat="44.31291" lon="6.33487">
        <ele>1463.5999755859</ele>
        <time>2016-07-19T09:43:37.000Z</time>
      </trkpt>
      <trkpt lat="44.313" lon="6.33483">
        <ele>1461.1999511719</ele>
        <time>2016-07-19T09:43:44.000Z</time>
      </trkpt>
      <trkpt lat="44.31305" lon="6.33479">
        <ele>1459</ele>
        <time>2016-07-19T09:43:49.000Z</time>
      </trkpt>
      <trkpt lat="44.31315" lon="6.33475">
        <ele>1455.5999755859</ele>
        <time>2016-07-19T09:43:56.000Z</time>
      </trkpt>
      <trkpt lat="44.31317" lon="6.33475">
        <ele>1455.1999511719</ele>
        <time>2016-07-19T09:43:57.000Z</time>
      </trkpt>
      <trkpt lat="44.31321" lon="6.33479">
        <ele>1455.1999511719</ele>
        <time>2016-07-19T09:44:01.000Z</time>
      </trkpt>
      <trkpt lat="44.31324" lon="6.33482">
        <ele>1455</ele>
        <time>2016-07-19T09:44:04.000Z</time>
      </trkpt>
      <trkpt lat="44.3133" lon="6.33494">
        <ele>1454</ele>
        <time>2016-07-19T09:44:12.000Z</time>
      </trkpt>
      <trkpt lat="44.31333" lon="6.33505">
        <ele>1453.8000488281</ele>
        <time>2016-07-19T09:44:18.000Z</time>
      </trkpt>
      <trkpt lat="44.31335" lon="6.33516">
        <ele>1454</ele>
        <time>2016-07-19T09:44:25.000Z</time>
      </trkpt>
      <trkpt lat="44.31335" lon="6.33522">
        <ele>1454</ele>
        <time>2016-07-19T09:44:28.000Z</time>
      </trkpt>
      <trkpt lat="44.31337" lon="6.33531">
        <ele>1454.1999511719</ele>
        <time>2016-07-19T09:44:33.000Z</time>
      </trkpt>
      <trkpt lat="44.31337" lon="6.33534">
        <ele>1454.1999511719</ele>
        <time>2016-07-19T09:44:35.000Z</time>
      </trkpt>
      <trkpt lat="44.31336" lon="6.33541">
        <ele>1455.4000244141</ele>
        <time>2016-07-19T09:44:39.000Z</time>
      </trkpt>
      <trkpt lat="44.31336" lon="6.33545">
        <ele>1456.1999511719</ele>
        <time>2016-07-19T09:44:41.000Z</time>
      </trkpt>
      <trkpt lat="44.31337" lon="6.33556">
        <ele>1457.8000488281</ele>
        <time>2016-07-19T09:44:47.000Z</time>
      </trkpt>
      <trkpt lat="44.31339" lon="6.33566">
        <ele>1458.8000488281</ele>
        <time>2016-07-19T09:44:53.000Z</time>
      </trkpt>
      <trkpt lat="44.3134" lon="6.33568">
        <ele>1458.8000488281</ele>
        <time>2016-07-19T09:44:54.000Z</time>
      </trkpt>
      <trkpt lat="44.31347" lon="6.33607">
        <ele>1461.1999511719</ele>
        <time>2016-07-19T09:45:14.000Z</time>
      </trkpt>
      <trkpt lat="44.31351" lon="6.33616">
        <ele>1460.5999755859</ele>
        <time>2016-07-19T09:45:20.000Z</time>
      </trkpt>
      <trkpt lat="44.31353" lon="6.33617">
        <ele>1460</ele>
        <time>2016-07-19T09:45:22.000Z</time>
      </trkpt>
      <trkpt lat="44.31364" lon="6.33618">
        <ele>1456</ele>
        <time>2016-07-19T09:45:31.000Z</time>
      </trkpt>
      <trkpt lat="44.31368" lon="6.33618">
        <ele>1455.1999511719</ele>
        <time>2016-07-19T09:45:34.000Z</time>
      </trkpt>
      <trkpt lat="44.31372" lon="6.33619">
        <ele>1454.4000244141</ele>
        <time>2016-07-19T09:45:41.000Z</time>
      </trkpt>
      <trkpt lat="44.31374" lon="6.33617">
        <ele>1453.5999755859</ele>
        <time>2016-07-19T09:45:44.000Z</time>
      </trkpt>
      <trkpt lat="44.3138" lon="6.33617">
        <ele>1452.4000244141</ele>
        <time>2016-07-19T09:45:48.000Z</time>
      </trkpt>
      <trkpt lat="44.31392" lon="6.33617">
        <ele>1449.4000244141</ele>
        <time>2016-07-19T09:45:57.000Z</time>
      </trkpt>
      <trkpt lat="44.31403" lon="6.3362">
        <ele>1447.4000244141</ele>
        <time>2016-07-19T09:46:05.000Z</time>
      </trkpt>
      <trkpt lat="44.31409" lon="6.33624">
        <ele>1446.5999755859</ele>
        <time>2016-07-19T09:46:11.000Z</time>
      </trkpt>
      <trkpt lat="44.3141" lon="6.33625">
        <ele>1446.4000244141</ele>
        <time>2016-07-19T09:46:12.000Z</time>
      </trkpt>
      <trkpt lat="44.31416" lon="6.33633">
        <ele>1446.1999511719</ele>
        <time>2016-07-19T09:46:18.000Z</time>
      </trkpt>
      <trkpt lat="44.31416" lon="6.33634">
        <ele>1446.1999511719</ele>
        <time>2016-07-19T09:46:19.000Z</time>
      </trkpt>
      <trkpt lat="44.31419" lon="6.33641">
        <ele>1446.4000244141</ele>
        <time>2016-07-19T09:46:23.000Z</time>
      </trkpt>
      <trkpt lat="44.31421" lon="6.33646">
        <ele>1446.5999755859</ele>
        <time>2016-07-19T09:46:27.000Z</time>
      </trkpt>
      <trkpt lat="44.31428" lon="6.33642">
        <ele>1444.5999755859</ele>
        <time>2016-07-19T09:46:34.000Z</time>
      </trkpt>
      <trkpt lat="44.31429" lon="6.33641">
        <ele>1444.1999511719</ele>
        <time>2016-07-19T09:46:35.000Z</time>
      </trkpt>
      <trkpt lat="44.31433" lon="6.33632">
        <ele>1442.1999511719</ele>
        <time>2016-07-19T09:46:41.000Z</time>
      </trkpt>
      <trkpt lat="44.31434" lon="6.33627">
        <ele>1441</ele>
        <time>2016-07-19T09:46:44.000Z</time>
      </trkpt>
      <trkpt lat="44.3144" lon="6.33616">
        <ele>1437.4000244141</ele>
        <time>2016-07-19T09:46:52.000Z</time>
      </trkpt>
      <trkpt lat="44.31443" lon="6.33611">
        <ele>1435.5999755859</ele>
        <time>2016-07-19T09:46:56.000Z</time>
      </trkpt>
      <trkpt lat="44.31446" lon="6.33607">
        <ele>1434</ele>
        <time>2016-07-19T09:46:59.000Z</time>
      </trkpt>
      <trkpt lat="44.31453" lon="6.33607">
        <ele>1433.8000488281</ele>
        <time>2016-07-19T09:47:05.000Z</time>
      </trkpt>
      <trkpt lat="44.31455" lon="6.33608">
        <ele>1434</ele>
        <time>2016-07-19T09:47:07.000Z</time>
      </trkpt>
      <trkpt lat="44.31457" lon="6.33609">
        <ele>1434.1999511719</ele>
        <time>2016-07-19T09:47:09.000Z</time>
      </trkpt>
      <trkpt lat="44.31464" lon="6.33612">
        <ele>1434.5999755859</ele>
        <time>2016-07-19T09:47:15.000Z</time>
      </trkpt>
      <trkpt lat="44.31472" lon="6.33617">
        <ele>1435.4000244141</ele>
        <time>2016-07-19T09:47:22.000Z</time>
      </trkpt>
      <trkpt lat="44.3148" lon="6.33623">
        <ele>1436.5999755859</ele>
        <time>2016-07-19T09:47:28.000Z</time>
      </trkpt>
      <trkpt lat="44.31488" lon="6.33628">
        <ele>1437.5999755859</ele>
        <time>2016-07-19T09:47:35.000Z</time>
      </trkpt>
      <trkpt lat="44.31495" lon="6.33629">
        <ele>1437.8000488281</ele>
        <time>2016-07-19T09:47:41.000Z</time>
      </trkpt>
      <trkpt lat="44.31496" lon="6.33629">
        <ele>1437.5999755859</ele>
        <time>2016-07-19T09:47:42.000Z</time>
      </trkpt>
      <trkpt lat="44.31497" lon="6.33623">
        <ele>1436.5999755859</ele>
        <time>2016-07-19T09:47:46.000Z</time>
      </trkpt>
      <trkpt lat="44.315" lon="6.33611">
        <ele>1434</ele>
        <time>2016-07-19T09:47:54.000Z</time>
      </trkpt>
      <trkpt lat="44.31503" lon="6.33604">
        <ele>1432.1999511719</ele>
        <time>2016-07-19T09:47:59.000Z</time>
      </trkpt>
      <trkpt lat="44.31504" lon="6.33597">
        <ele>1430.1999511719</ele>
        <time>2016-07-19T09:48:04.000Z</time>
      </trkpt>
      <trkpt lat="44.31508" lon="6.33587">
        <ele>1427.4000244141</ele>
        <time>2016-07-19T09:48:12.000Z</time>
      </trkpt>
      <trkpt lat="44.31512" lon="6.33576">
        <ele>1424.1999511719</ele>
        <time>2016-07-19T09:48:19.000Z</time>
      </trkpt>
      <trkpt lat="44.31512" lon="6.33574">
        <ele>1423.8000488281</ele>
        <time>2016-07-19T09:48:20.000Z</time>
      </trkpt>
      <trkpt lat="44.31516" lon="6.33567">
        <ele>1422</ele>
        <time>2016-07-19T09:48:24.000Z</time>
      </trkpt>
      <trkpt lat="44.31522" lon="6.33556">
        <ele>1420</ele>
        <time>2016-07-19T09:48:31.000Z</time>
      </trkpt>
      <trkpt lat="44.31522" lon="6.33554">
        <ele>1419.8000488281</ele>
        <time>2016-07-19T09:48:32.000Z</time>
      </trkpt>
      <trkpt lat="44.31527" lon="6.33543">
        <ele>1417.4000244141</ele>
        <time>2016-07-19T09:48:39.000Z</time>
      </trkpt>
      <trkpt lat="44.31532" lon="6.33531">
        <ele>1415.4000244141</ele>
        <time>2016-07-19T09:48:46.000Z</time>
      </trkpt>
      <trkpt lat="44.31535" lon="6.33523">
        <ele>1414.4000244141</ele>
        <time>2016-07-19T09:48:51.000Z</time>
      </trkpt>
      <trkpt lat="44.31544" lon="6.33513">
        <ele>1413.4000244141</ele>
        <time>2016-07-19T09:48:58.000Z</time>
      </trkpt>
      <trkpt lat="44.31545" lon="6.33513">
        <ele>1413.4000244141</ele>
        <time>2016-07-19T09:48:59.000Z</time>
      </trkpt>
      <trkpt lat="44.31547" lon="6.33512">
        <ele>1413.1999511719</ele>
        <time>2016-07-19T09:49:04.000Z</time>
      </trkpt>
      <trkpt lat="44.3155" lon="6.33511">
        <ele>1413.4000244141</ele>
        <time>2016-07-19T09:49:08.000Z</time>
      </trkpt>
      <trkpt lat="44.31558" lon="6.33516">
        <ele>1414.4000244141</ele>
        <time>2016-07-19T09:49:14.000Z</time>
      </trkpt>
      <trkpt lat="44.31565" lon="6.33518">
        <ele>1415</ele>
        <time>2016-07-19T09:49:20.000Z</time>
      </trkpt>
      <trkpt lat="44.31573" lon="6.33519">
        <ele>1415.4000244141</ele>
        <time>2016-07-19T09:49:26.000Z</time>
      </trkpt>
      <trkpt lat="44.3158" lon="6.33523">
        <ele>1416.1999511719</ele>
        <time>2016-07-19T09:49:32.000Z</time>
      </trkpt>
      <trkpt lat="44.31589" lon="6.3353">
        <ele>1417.5999755859</ele>
        <time>2016-07-19T09:49:39.000Z</time>
      </trkpt>
      <trkpt lat="44.31595" lon="6.33531">
        <ele>1417.5999755859</ele>
        <time>2016-07-19T09:49:44.000Z</time>
      </trkpt>
      <trkpt lat="44.31601" lon="6.33524">
        <ele>1416.1999511719</ele>
        <time>2016-07-19T09:49:50.000Z</time>
      </trkpt>
      <trkpt lat="44.31605" lon="6.33515">
        <ele>1414.5999755859</ele>
        <time>2016-07-19T09:49:56.000Z</time>
      </trkpt>
      <trkpt lat="44.31606" lon="6.33514">
        <ele>1414.4000244141</ele>
        <time>2016-07-19T09:49:57.000Z</time>
      </trkpt>
      <trkpt lat="44.31614" lon="6.33504">
        <ele>1412.4000244141</ele>
        <time>2016-07-19T09:50:05.000Z</time>
      </trkpt>
      <trkpt lat="44.31624" lon="6.33496">
        <ele>1411</ele>
        <time>2016-07-19T09:50:13.000Z</time>
      </trkpt>
      <trkpt lat="44.31629" lon="6.33495">
        <ele>1410.8000488281</ele>
        <time>2016-07-19T09:50:17.000Z</time>
      </trkpt>
      <trkpt lat="44.3164" lon="6.33489">
        <ele>1410.5999755859</ele>
        <time>2016-07-19T09:50:26.000Z</time>
      </trkpt>
      <trkpt lat="44.31643" lon="6.33483">
        <ele>1410.1999511719</ele>
        <time>2016-07-19T09:50:30.000Z</time>
      </trkpt>
      <trkpt lat="44.31645" lon="6.33472">
        <ele>1408.8000488281</ele>
        <time>2016-07-19T09:50:37.000Z</time>
      </trkpt>
      <trkpt lat="44.31646" lon="6.33469">
        <ele>1408.4000244141</ele>
        <time>2016-07-19T09:50:39.000Z</time>
      </trkpt>
      <trkpt lat="44.31648" lon="6.33452">
        <ele>1406.5999755859</ele>
        <time>2016-07-19T09:50:49.000Z</time>
      </trkpt>
      <trkpt lat="44.3165" lon="6.33443">
        <ele>1405.5999755859</ele>
        <time>2016-07-19T09:50:56.000Z</time>
      </trkpt>
      <trkpt lat="44.31649" lon="6.33433">
        <ele>1404.4000244141</ele>
        <time>2016-07-19T09:51:02.000Z</time>
      </trkpt>
      <trkpt lat="44.31645" lon="6.33419">
        <ele>1402.8000488281</ele>
        <time>2016-07-19T09:51:11.000Z</time>
      </trkpt>
      <trkpt lat="44.3164" lon="6.33413">
        <ele>1401.8000488281</ele>
        <time>2016-07-19T09:51:19.000Z</time>
      </trkpt>
      <trkpt lat="44.3164" lon="6.33412">
        <ele>1401.5999755859</ele>
        <time>2016-07-19T09:51:20.000Z</time>
      </trkpt>
      <trkpt lat="44.31637" lon="6.33405">
        <ele>1401</ele>
        <time>2016-07-19T09:51:24.000Z</time>
      </trkpt>
      <trkpt lat="44.31636" lon="6.33402">
        <ele>1400.5999755859</ele>
        <time>2016-07-19T09:51:26.000Z</time>
      </trkpt>
      <trkpt lat="44.3163" lon="6.33394">
        <ele>1399.5999755859</ele>
        <time>2016-07-19T09:51:33.000Z</time>
      </trkpt>
      <trkpt lat="44.31629" lon="6.33393">
        <ele>1399.5999755859</ele>
        <time>2016-07-19T09:51:34.000Z</time>
      </trkpt>
      <trkpt lat="44.31624" lon="6.33381">
        <ele>1399.5999755859</ele>
        <time>2016-07-19T09:51:41.000Z</time>
      </trkpt>
      <trkpt lat="44.31626" lon="6.33373">
        <ele>1400</ele>
        <time>2016-07-19T09:51:47.000Z</time>
      </trkpt>
      <trkpt lat="44.31641" lon="6.3337">
        <ele>1401.5999755859</ele>
        <time>2016-07-19T09:51:59.000Z</time>
      </trkpt>
      <trkpt lat="44.31649" lon="6.33369">
        <ele>1402.4000244141</ele>
        <time>2016-07-19T09:52:05.000Z</time>
      </trkpt>
      <trkpt lat="44.31653" lon="6.3337">
        <ele>1402.8000488281</ele>
        <time>2016-07-19T09:52:08.000Z</time>
      </trkpt>
      <trkpt lat="44.31655" lon="6.3337">
        <ele>1403</ele>
        <time>2016-07-19T09:52:10.000Z</time>
      </trkpt>
      <trkpt lat="44.31657" lon="6.3337">
        <ele>1403.1999511719</ele>
        <time>2016-07-19T09:52:17.000Z</time>
      </trkpt>
      <trkpt lat="44.31661" lon="6.3337">
        <ele>1403.5999755859</ele>
        <time>2016-07-19T09:52:21.000Z</time>
      </trkpt>
      <trkpt lat="44.31671" lon="6.3337">
        <ele>1404.1999511719</ele>
        <time>2016-07-19T09:52:29.000Z</time>
      </trkpt>
      <trkpt lat="44.31679" lon="6.3337">
        <ele>1403.4000244141</ele>
        <time>2016-07-19T09:52:35.000Z</time>
      </trkpt>
      <trkpt lat="44.31688" lon="6.3337">
        <ele>1402.4000244141</ele>
        <time>2016-07-19T09:52:42.000Z</time>
      </trkpt>
      <trkpt lat="44.31691" lon="6.3337">
        <ele>1402</ele>
        <time>2016-07-19T09:52:45.000Z</time>
      </trkpt>
      <trkpt lat="44.31699" lon="6.33364">
        <ele>1400.4000244141</ele>
        <time>2016-07-19T09:52:51.000Z</time>
      </trkpt>
      <trkpt lat="44.31706" lon="6.33357">
        <ele>1399.1999511719</ele>
        <time>2016-07-19T09:52:57.000Z</time>
      </trkpt>
      <trkpt lat="44.31712" lon="6.3335">
        <ele>1397.8000488281</ele>
        <time>2016-07-19T09:53:03.000Z</time>
      </trkpt>
      <trkpt lat="44.31719" lon="6.33344">
        <ele>1396.8000488281</ele>
        <time>2016-07-19T09:53:08.000Z</time>
      </trkpt>
      <trkpt lat="44.31724" lon="6.33342">
        <ele>1396.4000244141</ele>
        <time>2016-07-19T09:53:13.000Z</time>
      </trkpt>
      <trkpt lat="44.31729" lon="6.33341">
        <ele>1396.1999511719</ele>
        <time>2016-07-19T09:53:18.000Z</time>
      </trkpt>
      <trkpt lat="44.31739" lon="6.33339">
        <ele>1396.1999511719</ele>
        <time>2016-07-19T09:53:26.000Z</time>
      </trkpt>
      <trkpt lat="44.31746" lon="6.33331">
        <ele>1395</ele>
        <time>2016-07-19T09:53:33.000Z</time>
      </trkpt>
      <trkpt lat="44.31749" lon="6.33325">
        <ele>1394.1999511719</ele>
        <time>2016-07-19T09:53:38.000Z</time>
      </trkpt>
      <trkpt lat="44.31749" lon="6.33327">
        <ele>1394.4000244141</ele>
        <time>2016-07-19T09:53:47.000Z</time>
      </trkpt>
      <trkpt lat="44.31751" lon="6.33324">
        <ele>1394.1999511719</ele>
        <time>2016-07-19T09:53:51.000Z</time>
      </trkpt>
      <trkpt lat="44.31766" lon="6.33315">
        <ele>1393</ele>
        <time>2016-07-19T09:54:03.000Z</time>
      </trkpt>
      <trkpt lat="44.31777" lon="6.33309">
        <ele>1392.5999755859</ele>
        <time>2016-07-19T09:54:11.000Z</time>
      </trkpt>
      <trkpt lat="44.31786" lon="6.33308">
        <ele>1394.1999511719</ele>
        <time>2016-07-19T09:54:17.000Z</time>
      </trkpt>
      <trkpt lat="44.31795" lon="6.33305">
        <ele>1395.1999511719</ele>
        <time>2016-07-19T09:54:23.000Z</time>
      </trkpt>
      <trkpt lat="44.31807" lon="6.33304">
        <ele>1396.4000244141</ele>
        <time>2016-07-19T09:54:31.000Z</time>
      </trkpt>
      <trkpt lat="44.31815" lon="6.33299">
        <ele>1397.5999755859</ele>
        <time>2016-07-19T09:54:38.000Z</time>
      </trkpt>
      <trkpt lat="44.31817" lon="6.33291">
        <ele>1398.5999755859</ele>
        <time>2016-07-19T09:54:44.000Z</time>
      </trkpt>
      <trkpt lat="44.31815" lon="6.33289">
        <ele>1398.5999755859</ele>
        <time>2016-07-19T09:54:49.000Z</time>
      </trkpt>
      <trkpt lat="44.31807" lon="6.33286">
        <ele>1398.1999511719</ele>
        <time>2016-07-19T09:54:55.000Z</time>
      </trkpt>
      <trkpt lat="44.31794" lon="6.33282">
        <ele>1397.5999755859</ele>
        <time>2016-07-19T09:55:05.000Z</time>
      </trkpt>
      <trkpt lat="44.31793" lon="6.3328">
        <ele>1397.8000488281</ele>
        <time>2016-07-19T09:55:07.000Z</time>
      </trkpt>
      <trkpt lat="44.31789" lon="6.33276">
        <ele>1397.8000488281</ele>
        <time>2016-07-19T09:55:11.000Z</time>
      </trkpt>
      <trkpt lat="44.31781" lon="6.33271">
        <ele>1397.5999755859</ele>
        <time>2016-07-19T09:55:19.000Z</time>
      </trkpt>
      <trkpt lat="44.31774" lon="6.33272">
        <ele>1396.1999511719</ele>
        <time>2016-07-19T09:55:26.000Z</time>
      </trkpt>
      <trkpt lat="44.31764" lon="6.33272">
        <ele>1394</ele>
        <time>2016-07-19T09:55:35.000Z</time>
      </trkpt>
      <trkpt lat="44.31753" lon="6.33271">
        <ele>1391.8000488281</ele>
        <time>2016-07-19T09:55:44.000Z</time>
      </trkpt>
      <trkpt lat="44.31745" lon="6.33271">
        <ele>1390.1999511719</ele>
        <time>2016-07-19T09:55:50.000Z</time>
      </trkpt>
      <trkpt lat="44.31733" lon="6.33268">
        <ele>1388</ele>
        <time>2016-07-19T09:55:59.000Z</time>
      </trkpt>
      <trkpt lat="44.31721" lon="6.33263">
        <ele>1387.4000244141</ele>
        <time>2016-07-19T09:56:03.000Z</time>
      </trkpt>
      <trkpt lat="44.31711" lon="6.33249">
        <ele>1386</ele>
        <time>2016-07-19T09:56:08.000Z</time>
      </trkpt>
      <trkpt lat="44.31706" lon="6.33227">
        <ele>1386.1999511719</ele>
        <time>2016-07-19T09:56:13.000Z</time>
      </trkpt>
      <trkpt lat="44.31697" lon="6.33202">
        <ele>1386.8000488281</ele>
        <time>2016-07-19T09:56:18.000Z</time>
      </trkpt>
      <trkpt lat="44.31691" lon="6.3318">
        <ele>1387</ele>
        <time>2016-07-19T09:56:24.000Z</time>
      </trkpt>
      <trkpt lat="44.31694" lon="6.33171">
        <ele>1388.8000488281</ele>
        <time>2016-07-19T09:56:28.000Z</time>
      </trkpt>
      <trkpt lat="44.31698" lon="6.33168">
        <ele>1390.4000244141</ele>
        <time>2016-07-19T09:56:32.000Z</time>
      </trkpt>
      <trkpt lat="44.31703" lon="6.33173">
        <ele>1390.8000488281</ele>
        <time>2016-07-19T09:56:37.000Z</time>
      </trkpt>
      <trkpt lat="44.3171" lon="6.3319">
        <ele>1390.5999755859</ele>
        <time>2016-07-19T09:56:47.000Z</time>
      </trkpt>
      <trkpt lat="44.31716" lon="6.33206">
        <ele>1390.5999755859</ele>
        <time>2016-07-19T09:56:57.000Z</time>
      </trkpt>
      <trkpt lat="44.31726" lon="6.33223">
        <ele>1391</ele>
        <time>2016-07-19T09:57:09.000Z</time>
      </trkpt>
      <trkpt lat="44.31738" lon="6.33229">
        <ele>1393</ele>
        <time>2016-07-19T09:57:18.000Z</time>
      </trkpt>
      <trkpt lat="44.31749" lon="6.33224">
        <ele>1395.8000488281</ele>
        <time>2016-07-19T09:57:27.000Z</time>
      </trkpt>
      <trkpt lat="44.31757" lon="6.3322">
        <ele>1398</ele>
        <time>2016-07-19T09:57:34.000Z</time>
      </trkpt>
      <trkpt lat="44.31771" lon="6.33215">
        <ele>1401.8000488281</ele>
        <time>2016-07-19T09:57:45.000Z</time>
      </trkpt>
      <trkpt lat="44.31783" lon="6.33211">
        <ele>1405.5999755859</ele>
        <time>2016-07-19T09:57:55.000Z</time>
      </trkpt>
      <trkpt lat="44.3179" lon="6.33209">
        <ele>1407</ele>
        <time>2016-07-19T09:58:01.000Z</time>
      </trkpt>
      <trkpt lat="44.31802" lon="6.33206">
        <ele>1409.1999511719</ele>
        <time>2016-07-19T09:58:10.000Z</time>
      </trkpt>
      <trkpt lat="44.31816" lon="6.33201">
        <ele>1412.1999511719</ele>
        <time>2016-07-19T09:58:21.000Z</time>
      </trkpt>
      <trkpt lat="44.31828" lon="6.33197">
        <ele>1414.5999755859</ele>
        <time>2016-07-19T09:58:30.000Z</time>
      </trkpt>
      <trkpt lat="44.31843" lon="6.33196">
        <ele>1416.8000488281</ele>
        <time>2016-07-19T09:58:41.000Z</time>
      </trkpt>
      <trkpt lat="44.31855" lon="6.33199">
        <ele>1418</ele>
        <time>2016-07-19T09:58:50.000Z</time>
      </trkpt>
      <trkpt lat="44.31883" lon="6.33195">
        <ele>1422.1999511719</ele>
        <time>2016-07-19T09:59:01.000Z</time>
      </trkpt>
      <trkpt lat="44.31901" lon="6.33192">
        <ele>1424.5999755859</ele>
        <time>2016-07-19T09:59:08.000Z</time>
      </trkpt>
      <trkpt lat="44.31911" lon="6.33191">
        <ele>1425.5999755859</ele>
        <time>2016-07-19T09:59:14.000Z</time>
      </trkpt>
      <trkpt lat="44.31923" lon="6.33189">
        <ele>1427.1999511719</ele>
        <time>2016-07-19T09:59:23.000Z</time>
      </trkpt>
      <trkpt lat="44.31933" lon="6.33187">
        <ele>1428.4000244141</ele>
        <time>2016-07-19T09:59:30.000Z</time>
      </trkpt>
      <trkpt lat="44.31934" lon="6.33188">
        <ele>1428.4000244141</ele>
        <time>2016-07-19T09:59:31.000Z</time>
      </trkpt>
      <trkpt lat="44.31945" lon="6.33191">
        <ele>1429</ele>
        <time>2016-07-19T09:59:39.000Z</time>
      </trkpt>
      <trkpt lat="44.31953" lon="6.33196">
        <ele>1429.4000244141</ele>
        <time>2016-07-19T09:59:46.000Z</time>
      </trkpt>
      <trkpt lat="44.31963" lon="6.33203">
        <ele>1429.5999755859</ele>
        <time>2016-07-19T09:59:54.000Z</time>
      </trkpt>
      <trkpt lat="44.31972" lon="6.33212">
        <ele>1429.5999755859</ele>
        <time>2016-07-19T10:00:03.000Z</time>
      </trkpt>
      <trkpt lat="44.31987" lon="6.33226">
        <ele>1429.4000244141</ele>
        <time>2016-07-19T10:00:15.000Z</time>
      </trkpt>
      <trkpt lat="44.31999" lon="6.33236">
        <ele>1429.8000488281</ele>
        <time>2016-07-19T10:00:25.000Z</time>
      </trkpt>
      <trkpt lat="44.32007" lon="6.33236">
        <ele>1430.8000488281</ele>
        <time>2016-07-19T10:00:31.000Z</time>
      </trkpt>
      <trkpt lat="44.32016" lon="6.33236">
        <ele>1432.1999511719</ele>
        <time>2016-07-19T10:00:38.000Z</time>
      </trkpt>
      <trkpt lat="44.32032" lon="6.33233">
        <ele>1435</ele>
        <time>2016-07-19T10:00:49.000Z</time>
      </trkpt>
      <trkpt lat="44.32056" lon="6.33227">
        <ele>1439.5999755859</ele>
        <time>2016-07-19T10:01:06.000Z</time>
      </trkpt>
      <trkpt lat="44.32067" lon="6.33228">
        <ele>1441.1999511719</ele>
        <time>2016-07-19T10:01:14.000Z</time>
      </trkpt>
      <trkpt lat="44.32073" lon="6.33231">
        <ele>1442.1999511719</ele>
        <time>2016-07-19T10:01:19.000Z</time>
      </trkpt>
      <trkpt lat="44.32084" lon="6.33237">
        <ele>1443.5999755859</ele>
        <time>2016-07-19T10:01:28.000Z</time>
      </trkpt>
      <trkpt lat="44.32096" lon="6.33245">
        <ele>1445.1999511719</ele>
        <time>2016-07-19T10:01:37.000Z</time>
      </trkpt>
      <trkpt lat="44.32106" lon="6.33248">
        <ele>1446.5999755859</ele>
        <time>2016-07-19T10:01:45.000Z</time>
      </trkpt>
      <trkpt lat="44.32121" lon="6.3325">
        <ele>1449.5999755859</ele>
        <time>2016-07-19T10:01:55.000Z</time>
      </trkpt>
      <trkpt lat="44.32128" lon="6.33255">
        <ele>1451.1999511719</ele>
        <time>2016-07-19T10:02:01.000Z</time>
      </trkpt>
      <trkpt lat="44.32139" lon="6.33266">
        <ele>1453.5999755859</ele>
        <time>2016-07-19T10:02:11.000Z</time>
      </trkpt>
      <trkpt lat="44.32148" lon="6.33276">
        <ele>1455.1999511719</ele>
        <time>2016-07-19T10:02:19.000Z</time>
      </trkpt>
      <trkpt lat="44.32157" lon="6.33288">
        <ele>1457</ele>
        <time>2016-07-19T10:02:28.000Z</time>
      </trkpt>
      <trkpt lat="44.32168" lon="6.33295">
        <ele>1459.4000244141</ele>
        <time>2016-07-19T10:02:37.000Z</time>
      </trkpt>
      <trkpt lat="44.32179" lon="6.33295">
        <ele>1462.1999511719</ele>
        <time>2016-07-19T10:02:46.000Z</time>
      </trkpt>
      <trkpt lat="44.32193" lon="6.33294">
        <ele>1463.1999511719</ele>
        <time>2016-07-19T10:02:57.000Z</time>
      </trkpt>
      <trkpt lat="44.32204" lon="6.33293">
        <ele>1464.8000488281</ele>
        <time>2016-07-19T10:03:06.000Z</time>
      </trkpt>
      <trkpt lat="44.32212" lon="6.33293">
        <ele>1466.1999511719</ele>
        <time>2016-07-19T10:03:12.000Z</time>
      </trkpt>
      <trkpt lat="44.32224" lon="6.33291">
        <ele>1468.4000244141</ele>
        <time>2016-07-19T10:03:22.000Z</time>
      </trkpt>
      <trkpt lat="44.32237" lon="6.33289">
        <ele>1470.5999755859</ele>
        <time>2016-07-19T10:03:32.000Z</time>
      </trkpt>
      <trkpt lat="44.32252" lon="6.33289">
        <ele>1473.5999755859</ele>
        <time>2016-07-19T10:03:42.000Z</time>
      </trkpt>
      <trkpt lat="44.32261" lon="6.3329">
        <ele>1474.8000488281</ele>
        <time>2016-07-19T10:03:48.000Z</time>
      </trkpt>
      <trkpt lat="44.32272" lon="6.33285">
        <ele>1474.5999755859</ele>
        <time>2016-07-19T10:03:56.000Z</time>
      </trkpt>
      <trkpt lat="44.32281" lon="6.33271">
        <ele>1472.4000244141</ele>
        <time>2016-07-19T10:04:05.000Z</time>
      </trkpt>
      <trkpt lat="44.32295" lon="6.33264">
        <ele>1473.1999511719</ele>
        <time>2016-07-19T10:04:16.000Z</time>
      </trkpt>
      <trkpt lat="44.3231" lon="6.33262">
        <ele>1475.5999755859</ele>
        <time>2016-07-19T10:04:26.000Z</time>
      </trkpt>
      <trkpt lat="44.32323" lon="6.33256">
        <ele>1475.1999511719</ele>
        <time>2016-07-19T10:04:35.000Z</time>
      </trkpt>
      <trkpt lat="44.32333" lon="6.33247">
        <ele>1473.8000488281</ele>
        <time>2016-07-19T10:04:44.000Z</time>
      </trkpt>
      <trkpt lat="44.32339" lon="6.33243">
        <ele>1473.1999511719</ele>
        <time>2016-07-19T10:04:51.000Z</time>
      </trkpt>
      <trkpt lat="44.32346" lon="6.3324">
        <ele>1473</ele>
        <time>2016-07-19T10:04:58.000Z</time>
      </trkpt>
      <trkpt lat="44.32351" lon="6.33243">
        <ele>1474.4000244141</ele>
        <time>2016-07-19T10:05:04.000Z</time>
      </trkpt>
      <trkpt lat="44.32354" lon="6.33246">
        <ele>1475.5999755859</ele>
        <time>2016-07-19T10:05:07.000Z</time>
      </trkpt>
      <trkpt lat="44.3236" lon="6.33245">
        <ele>1476</ele>
        <time>2016-07-19T10:05:13.000Z</time>
      </trkpt>
      <trkpt lat="44.32374" lon="6.33237">
        <ele>1475.5999755859</ele>
        <time>2016-07-19T10:05:25.000Z</time>
      </trkpt>
      <trkpt lat="44.32383" lon="6.33222">
        <ele>1472.1999511719</ele>
        <time>2016-07-19T10:05:35.000Z</time>
      </trkpt>
      <trkpt lat="44.32392" lon="6.33209">
        <ele>1470.1999511719</ele>
        <time>2016-07-19T10:05:45.000Z</time>
      </trkpt>
      <trkpt lat="44.32403" lon="6.33197">
        <ele>1468.8000488281</ele>
        <time>2016-07-19T10:05:55.000Z</time>
      </trkpt>
      <trkpt lat="44.32411" lon="6.33188">
        <ele>1467.1999511719</ele>
        <time>2016-07-19T10:06:02.000Z</time>
      </trkpt>
      <trkpt lat="44.32417" lon="6.33175">
        <ele>1464.5999755859</ele>
        <time>2016-07-19T10:06:10.000Z</time>
      </trkpt>
      <trkpt lat="44.32416" lon="6.3316">
        <ele>1461.1999511719</ele>
        <time>2016-07-19T10:06:16.000Z</time>
      </trkpt>
      <trkpt lat="44.32414" lon="6.3315">
        <ele>1458.5999755859</ele>
        <time>2016-07-19T10:06:22.000Z</time>
      </trkpt>
      <trkpt lat="44.32412" lon="6.33135">
        <ele>1455.5999755859</ele>
        <time>2016-07-19T10:06:31.000Z</time>
      </trkpt>
      <trkpt lat="44.32409" lon="6.33125">
        <ele>1453.8000488281</ele>
        <time>2016-07-19T10:06:38.000Z</time>
      </trkpt>
      <trkpt lat="44.32406" lon="6.33111">
        <ele>1451.4000244141</ele>
        <time>2016-07-19T10:06:46.000Z</time>
      </trkpt>
      <trkpt lat="44.32402" lon="6.33103">
        <ele>1449.5999755859</ele>
        <time>2016-07-19T10:06:51.000Z</time>
      </trkpt>
      <trkpt lat="44.32396" lon="6.33091">
        <ele>1447.4000244141</ele>
        <time>2016-07-19T10:06:58.000Z</time>
      </trkpt>
      <trkpt lat="44.32388" lon="6.33079">
        <ele>1445</ele>
        <time>2016-07-19T10:07:06.000Z</time>
      </trkpt>
      <trkpt lat="44.32382" lon="6.33073">
        <ele>1443.5999755859</ele>
        <time>2016-07-19T10:07:11.000Z</time>
      </trkpt>
      <trkpt lat="44.32375" lon="6.33069">
        <ele>1442</ele>
        <time>2016-07-19T10:07:16.000Z</time>
      </trkpt>
      <trkpt lat="44.32371" lon="6.33063">
        <ele>1440.8000488281</ele>
        <time>2016-07-19T10:07:20.000Z</time>
      </trkpt>
      <trkpt lat="44.3237" lon="6.33058">
        <ele>1440.1999511719</ele>
        <time>2016-07-19T10:07:22.000Z</time>
      </trkpt>
      <trkpt lat="44.32369" lon="6.33045">
        <ele>1438.1999511719</ele>
        <time>2016-07-19T10:07:28.000Z</time>
      </trkpt>
      <trkpt lat="44.32371" lon="6.33028">
        <ele>1436.1999511719</ele>
        <time>2016-07-19T10:07:36.000Z</time>
      </trkpt>
      <trkpt lat="44.32369" lon="6.33013">
        <ele>1434</ele>
        <time>2016-07-19T10:07:43.000Z</time>
      </trkpt>
      <trkpt lat="44.32364" lon="6.32997">
        <ele>1431.1999511719</ele>
        <time>2016-07-19T10:07:51.000Z</time>
      </trkpt>
      <trkpt lat="44.32363" lon="6.32981">
        <ele>1429</ele>
        <time>2016-07-19T10:07:59.000Z</time>
      </trkpt>
      <trkpt lat="44.32364" lon="6.32974">
        <ele>1428.5999755859</ele>
        <time>2016-07-19T10:08:04.000Z</time>
      </trkpt>
      <trkpt lat="44.32364" lon="6.32973">
        <ele>1428.4000244141</ele>
        <time>2016-07-19T10:08:05.000Z</time>
      </trkpt>
      <trkpt lat="44.32379" lon="6.3296">
        <ele>1429.5999755859</ele>
        <time>2016-07-19T10:08:19.000Z</time>
      </trkpt>
      <trkpt lat="44.32389" lon="6.32955">
        <ele>1430.8000488281</ele>
        <time>2016-07-19T10:08:27.000Z</time>
      </trkpt>
      <trkpt lat="44.32396" lon="6.32955">
        <ele>1431.8000488281</ele>
        <time>2016-07-19T10:08:33.000Z</time>
      </trkpt>
      <trkpt lat="44.32405" lon="6.32957">
        <ele>1433.4000244141</ele>
        <time>2016-07-19T10:08:40.000Z</time>
      </trkpt>
      <trkpt lat="44.32412" lon="6.32959">
        <ele>1434.8000488281</ele>
        <time>2016-07-19T10:08:46.000Z</time>
      </trkpt>
      <trkpt lat="44.32421" lon="6.32965">
        <ele>1436.5999755859</ele>
        <time>2016-07-19T10:08:54.000Z</time>
      </trkpt>
      <trkpt lat="44.3243" lon="6.32973">
        <ele>1438.5999755859</ele>
        <time>2016-07-19T10:09:02.000Z</time>
      </trkpt>
      <trkpt lat="44.3244" lon="6.32977">
        <ele>1440.5999755859</ele>
        <time>2016-07-19T10:09:10.000Z</time>
      </trkpt>
      <trkpt lat="44.32447" lon="6.32974">
        <ele>1441</ele>
        <time>2016-07-19T10:09:14.000Z</time>
      </trkpt>
      <trkpt lat="44.32457" lon="6.32972">
        <ele>1439.5999755859</ele>
        <time>2016-07-19T10:09:21.000Z</time>
      </trkpt>
      <trkpt lat="44.32473" lon="6.32976">
        <ele>1438.4000244141</ele>
        <time>2016-07-19T10:09:31.000Z</time>
      </trkpt>
      <trkpt lat="44.32486" lon="6.32983">
        <ele>1438.1999511719</ele>
        <time>2016-07-19T10:09:39.000Z</time>
      </trkpt>
      <trkpt lat="44.32494" lon="6.3299">
        <ele>1438.1999511719</ele>
        <time>2016-07-19T10:09:45.000Z</time>
      </trkpt>
      <trkpt lat="44.32506" lon="6.32995">
        <ele>1437.5999755859</ele>
        <time>2016-07-19T10:09:53.000Z</time>
      </trkpt>
      <trkpt lat="44.32523" lon="6.32999">
        <ele>1436.4000244141</ele>
        <time>2016-07-19T10:10:05.000Z</time>
      </trkpt>
      <trkpt lat="44.32534" lon="6.32999">
        <ele>1435.5999755859</ele>
        <time>2016-07-19T10:10:13.000Z</time>
      </trkpt>
      <trkpt lat="44.32546" lon="6.32997">
        <ele>1435.1999511719</ele>
        <time>2016-07-19T10:10:21.000Z</time>
      </trkpt>
      <trkpt lat="44.32548" lon="6.32997">
        <ele>1435.1999511719</ele>
        <time>2016-07-19T10:10:22.000Z</time>
      </trkpt>
      <trkpt lat="44.32559" lon="6.33002">
        <ele>1436</ele>
        <time>2016-07-19T10:10:30.000Z</time>
      </trkpt>
      <trkpt lat="44.32565" lon="6.33007">
        <ele>1436.8000488281</ele>
        <time>2016-07-19T10:10:36.000Z</time>
      </trkpt>
      <trkpt lat="44.32566" lon="6.33004">
        <ele>1436.5999755859</ele>
        <time>2016-07-19T10:10:42.000Z</time>
      </trkpt>
      <trkpt lat="44.32564" lon="6.33001">
        <ele>1436.1999511719</ele>
        <time>2016-07-19T10:10:46.000Z</time>
      </trkpt>
      <trkpt lat="44.32562" lon="6.33004">
        <ele>1436.4000244141</ele>
        <time>2016-07-19T10:10:50.000Z</time>
      </trkpt>
      <trkpt lat="44.32557" lon="6.33005">
        <ele>1436.4000244141</ele>
        <time>2016-07-19T10:10:57.000Z</time>
      </trkpt>
      <trkpt lat="44.32557" lon="6.33006">
        <ele>1436.4000244141</ele>
        <time>2016-07-19T10:10:58.000Z</time>
      </trkpt>
      <trkpt lat="44.32555" lon="6.33007">
        <ele>1436.5999755859</ele>
        <time>2016-07-19T10:11:03.000Z</time>
      </trkpt>
      <trkpt lat="44.32554" lon="6.33006">
        <ele>1436.4000244141</ele>
        <time>2016-07-19T10:11:09.000Z</time>
      </trkpt>
      <trkpt lat="44.32561" lon="6.33">
        <ele>1436</ele>
        <time>2016-07-19T10:11:16.000Z</time>
      </trkpt>
      <trkpt lat="44.32563" lon="6.33001">
        <ele>1436.1999511719</ele>
        <time>2016-07-19T10:11:23.000Z</time>
      </trkpt>
      <trkpt lat="44.32562" lon="6.33002">
        <ele>1436.1999511719</ele>
        <time>2016-07-19T10:11:28.000Z</time>
      </trkpt>
      <trkpt lat="44.32563" lon="6.33003">
        <ele>1436.1999511719</ele>
        <time>2016-07-19T10:11:29.000Z</time>
      </trkpt>
      <trkpt lat="44.3257" lon="6.33012">
        <ele>1437.4000244141</ele>
        <time>2016-07-19T10:11:36.000Z</time>
      </trkpt>
      <trkpt lat="44.32581" lon="6.33028">
        <ele>1439.4000244141</ele>
        <time>2016-07-19T10:11:47.000Z</time>
      </trkpt>
      <trkpt lat="44.32592" lon="6.33042">
        <ele>1441.1999511719</ele>
        <time>2016-07-19T10:11:57.000Z</time>
      </trkpt>
      <trkpt lat="44.32598" lon="6.33047">
        <ele>1441.8000488281</ele>
        <time>2016-07-19T10:12:02.000Z</time>
      </trkpt>
      <trkpt lat="44.3261" lon="6.33047">
        <ele>1442.1999511719</ele>
        <time>2016-07-19T10:12:11.000Z</time>
      </trkpt>
      <trkpt lat="44.32615" lon="6.33044">
        <ele>1442.1999511719</ele>
        <time>2016-07-19T10:12:15.000Z</time>
      </trkpt>
      <trkpt lat="44.32618" lon="6.3305">
        <ele>1442.8000488281</ele>
        <time>2016-07-19T10:12:19.000Z</time>
      </trkpt>
      <trkpt lat="44.32618" lon="6.33053">
        <ele>1443.1999511719</ele>
        <time>2016-07-19T10:12:21.000Z</time>
      </trkpt>
      <trkpt lat="44.32615" lon="6.3306">
        <ele>1443.5999755859</ele>
        <time>2016-07-19T10:12:27.000Z</time>
      </trkpt>
      <trkpt lat="44.32615" lon="6.33061">
        <ele>1443.8000488281</ele>
        <time>2016-07-19T10:12:39.000Z</time>
      </trkpt>
      <trkpt lat="44.32618" lon="6.3306">
        <ele>1443.8000488281</ele>
        <time>2016-07-19T10:13:30.000Z</time>
      </trkpt>
      <trkpt lat="44.32623" lon="6.33051">
        <ele>1443.4000244141</ele>
        <time>2016-07-19T10:13:36.000Z</time>
      </trkpt>
      <trkpt lat="44.32623" lon="6.33033">
        <ele>1441.5999755859</ele>
        <time>2016-07-19T10:13:45.000Z</time>
      </trkpt>
      <trkpt lat="44.32621" lon="6.33019">
        <ele>1440</ele>
        <time>2016-07-19T10:13:52.000Z</time>
      </trkpt>
      <trkpt lat="44.32626" lon="6.32974">
        <ele>1438.8000488281</ele>
        <time>2016-07-19T10:14:15.000Z</time>
      </trkpt>
      <trkpt lat="44.32631" lon="6.32968">
        <ele>1440.1999511719</ele>
        <time>2016-07-19T10:14:21.000Z</time>
      </trkpt>
      <trkpt lat="44.32642" lon="6.32953">
        <ele>1443.4000244141</ele>
        <time>2016-07-19T10:14:32.000Z</time>
      </trkpt>
      <trkpt lat="44.32656" lon="6.32936">
        <ele>1447.1999511719</ele>
        <time>2016-07-19T10:14:45.000Z</time>
      </trkpt>
      <trkpt lat="44.32665" lon="6.32928">
        <ele>1448.4000244141</ele>
        <time>2016-07-19T10:14:53.000Z</time>
      </trkpt>
      <trkpt lat="44.32676" lon="6.32915">
        <ele>1450</ele>
        <time>2016-07-19T10:15:03.000Z</time>
      </trkpt>
      <trkpt lat="44.32687" lon="6.32906">
        <ele>1451.5999755859</ele>
        <time>2016-07-19T10:15:12.000Z</time>
      </trkpt>
      <trkpt lat="44.32698" lon="6.32896">
        <ele>1453.1999511719</ele>
        <time>2016-07-19T10:15:21.000Z</time>
      </trkpt>
      <trkpt lat="44.32708" lon="6.32884">
        <ele>1455.8000488281</ele>
        <time>2016-07-19T10:15:30.000Z</time>
      </trkpt>
      <trkpt lat="44.32716" lon="6.32869">
        <ele>1458.1999511719</ele>
        <time>2016-07-19T10:15:39.000Z</time>
      </trkpt>
      <trkpt lat="44.32722" lon="6.32845">
        <ele>1460.4000244141</ele>
        <time>2016-07-19T10:15:51.000Z</time>
      </trkpt>
      <trkpt lat="44.32725" lon="6.32825">
        <ele>1460.4000244141</ele>
        <time>2016-07-19T10:16:02.000Z</time>
      </trkpt>
      <trkpt lat="44.32724" lon="6.32818">
        <ele>1459.8000488281</ele>
        <time>2016-07-19T10:16:11.000Z</time>
      </trkpt>
      <trkpt lat="44.32722" lon="6.32818">
        <ele>1459.5999755859</ele>
        <time>2016-07-19T10:16:17.000Z</time>
      </trkpt>
      <trkpt lat="44.32723" lon="6.32811">
        <ele>1459.8000488281</ele>
        <time>2016-07-19T10:16:55.000Z</time>
      </trkpt>
      <trkpt lat="44.32726" lon="6.32795">
        <ele>1461.4000244141</ele>
        <time>2016-07-19T10:17:04.000Z</time>
      </trkpt>
      <trkpt lat="44.32731" lon="6.32778">
        <ele>1463.4000244141</ele>
        <time>2016-07-19T10:17:14.000Z</time>
      </trkpt>
      <trkpt lat="44.32734" lon="6.32771">
        <ele>1464.1999511719</ele>
        <time>2016-07-19T10:17:20.000Z</time>
      </trkpt>
      <trkpt lat="44.32733" lon="6.3277">
        <ele>1464.1999511719</ele>
        <time>2016-07-19T10:17:28.000Z</time>
      </trkpt>
      <trkpt lat="44.32731" lon="6.32771">
        <ele>1463.8000488281</ele>
        <time>2016-07-19T10:17:34.000Z</time>
      </trkpt>
      <trkpt lat="44.3273" lon="6.32771">
        <ele>1463.8000488281</ele>
        <time>2016-07-19T10:17:40.000Z</time>
      </trkpt>
      <trkpt lat="44.3273" lon="6.32772">
        <ele>1463.5999755859</ele>
        <time>2016-07-19T10:21:16.000Z</time>
      </trkpt>
      <trkpt lat="44.32731" lon="6.32767">
        <ele>1464.1999511719</ele>
        <time>2016-07-19T10:21:20.000Z</time>
      </trkpt>
      <trkpt lat="44.32733" lon="6.32765">
        <ele>1464.4000244141</ele>
        <time>2016-07-19T10:21:22.000Z</time>
      </trkpt>
      <trkpt lat="44.32732" lon="6.32758">
        <ele>1464</ele>
        <time>2016-07-19T10:21:29.000Z</time>
      </trkpt>
      <trkpt lat="44.32734" lon="6.32762">
        <ele>1464.1999511719</ele>
        <time>2016-07-19T10:22:16.000Z</time>
      </trkpt>
      <trkpt lat="44.32735" lon="6.3277">
        <ele>1464.4000244141</ele>
        <time>2016-07-19T10:22:21.000Z</time>
      </trkpt>
      <trkpt lat="44.32733" lon="6.3277">
        <ele>1464.1999511719</ele>
        <time>2016-07-19T10:22:26.000Z</time>
      </trkpt>
      <trkpt lat="44.32732" lon="6.32771">
        <ele>1464</ele>
        <time>2016-07-19T10:22:36.000Z</time>
      </trkpt>
      <trkpt lat="44.32733" lon="6.3277">
        <ele>1464.1999511719</ele>
        <time>2016-07-19T10:22:40.000Z</time>
      </trkpt>
      <trkpt lat="44.32732" lon="6.32765">
        <ele>1464.4000244141</ele>
        <time>2016-07-19T10:24:28.000Z</time>
      </trkpt>
      <trkpt lat="44.32733" lon="6.32764">
        <ele>1464.4000244141</ele>
        <time>2016-07-19T10:24:44.000Z</time>
      </trkpt>
      <trkpt lat="44.32737" lon="6.32768">
        <ele>1464.4000244141</ele>
        <time>2016-07-19T10:24:49.000Z</time>
      </trkpt>
      <trkpt lat="44.32734" lon="6.32779">
        <ele>1463.4000244141</ele>
        <time>2016-07-19T10:24:55.000Z</time>
      </trkpt>
      <trkpt lat="44.32733" lon="6.32781">
        <ele>1463.1999511719</ele>
        <time>2016-07-19T10:24:56.000Z</time>
      </trkpt>
      <trkpt lat="44.32728" lon="6.32796">
        <ele>1461.4000244141</ele>
        <time>2016-07-19T10:25:04.000Z</time>
      </trkpt>
      <trkpt lat="44.3272" lon="6.32809">
        <ele>1459.5999755859</ele>
        <time>2016-07-19T10:25:09.000Z</time>
      </trkpt>
      <trkpt lat="44.32708" lon="6.32813">
        <ele>1458.1999511719</ele>
        <time>2016-07-19T10:25:16.000Z</time>
      </trkpt>
      <trkpt lat="44.32698" lon="6.32809">
        <ele>1457.4000244141</ele>
        <time>2016-07-19T10:25:24.000Z</time>
      </trkpt>
      <trkpt lat="44.32686" lon="6.32803">
        <ele>1458.1999511719</ele>
        <time>2016-07-19T10:25:33.000Z</time>
      </trkpt>
      <trkpt lat="44.3267" lon="6.32795">
        <ele>1458.5999755859</ele>
        <time>2016-07-19T10:25:44.000Z</time>
      </trkpt>
      <trkpt lat="44.32658" lon="6.3279">
        <ele>1458.5999755859</ele>
        <time>2016-07-19T10:25:52.000Z</time>
      </trkpt>
      <trkpt lat="44.32646" lon="6.32787">
        <ele>1458.4000244141</ele>
        <time>2016-07-19T10:26:01.000Z</time>
      </trkpt>
      <trkpt lat="44.32634" lon="6.32785">
        <ele>1458</ele>
        <time>2016-07-19T10:26:09.000Z</time>
      </trkpt>
      <trkpt lat="44.32626" lon="6.32783">
        <ele>1457.8000488281</ele>
        <time>2016-07-19T10:26:15.000Z</time>
      </trkpt>
      <trkpt lat="44.32618" lon="6.32784">
        <ele>1457.4000244141</ele>
        <time>2016-07-19T10:26:21.000Z</time>
      </trkpt>
      <trkpt lat="44.32605" lon="6.32786">
        <ele>1456.1999511719</ele>
        <time>2016-07-19T10:26:31.000Z</time>
      </trkpt>
      <trkpt lat="44.32595" lon="6.32789">
        <ele>1455.1999511719</ele>
        <time>2016-07-19T10:26:39.000Z</time>
      </trkpt>
      <trkpt lat="44.3258" lon="6.32792">
        <ele>1454.4000244141</ele>
        <time>2016-07-19T10:26:50.000Z</time>
      </trkpt>
      <trkpt lat="44.3257" lon="6.32793">
        <ele>1454.1999511719</ele>
        <time>2016-07-19T10:26:58.000Z</time>
      </trkpt>
      <trkpt lat="44.32562" lon="6.32794">
        <ele>1454</ele>
        <time>2016-07-19T10:27:05.000Z</time>
      </trkpt>
      <trkpt lat="44.32549" lon="6.32797">
        <ele>1453.4000244141</ele>
        <time>2016-07-19T10:27:14.000Z</time>
      </trkpt>
      <trkpt lat="44.32537" lon="6.32801">
        <ele>1452.8000488281</ele>
        <time>2016-07-19T10:27:23.000Z</time>
      </trkpt>
      <trkpt lat="44.32528" lon="6.32804">
        <ele>1451.8000488281</ele>
        <time>2016-07-19T10:27:29.000Z</time>
      </trkpt>
      <trkpt lat="44.32517" lon="6.32799">
        <ele>1450.4000244141</ele>
        <time>2016-07-19T10:27:37.000Z</time>
      </trkpt>
      <trkpt lat="44.32518" lon="6.32788">
        <ele>1452</ele>
        <time>2016-07-19T10:27:43.000Z</time>
      </trkpt>
      <trkpt lat="44.32525" lon="6.3278">
        <ele>1454.4000244141</ele>
        <time>2016-07-19T10:27:50.000Z</time>
      </trkpt>
      <trkpt lat="44.32536" lon="6.3277">
        <ele>1456.8000488281</ele>
        <time>2016-07-19T10:27:59.000Z</time>
      </trkpt>
      <trkpt lat="44.32543" lon="6.32766">
        <ele>1457.5999755859</ele>
        <time>2016-07-19T10:28:05.000Z</time>
      </trkpt>
      <trkpt lat="44.32552" lon="6.32761">
        <ele>1458.1999511719</ele>
        <time>2016-07-19T10:28:12.000Z</time>
      </trkpt>
      <trkpt lat="44.32558" lon="6.32756">
        <ele>1459</ele>
        <time>2016-07-19T10:28:19.000Z</time>
      </trkpt>
      <trkpt lat="44.32562" lon="6.32752">
        <ele>1460</ele>
        <time>2016-07-19T10:28:25.000Z</time>
      </trkpt>
      <trkpt lat="44.32568" lon="6.32747">
        <ele>1461</ele>
        <time>2016-07-19T10:28:31.000Z</time>
      </trkpt>
      <trkpt lat="44.3257" lon="6.32736">
        <ele>1463</ele>
        <time>2016-07-19T10:28:38.000Z</time>
      </trkpt>
      <trkpt lat="44.32565" lon="6.32718">
        <ele>1464.8000488281</ele>
        <time>2016-07-19T10:28:48.000Z</time>
      </trkpt>
      <trkpt lat="44.32559" lon="6.32699">
        <ele>1466</ele>
        <time>2016-07-19T10:28:59.000Z</time>
      </trkpt>
      <trkpt lat="44.32552" lon="6.3268">
        <ele>1467.1999511719</ele>
        <time>2016-07-19T10:29:10.000Z</time>
      </trkpt>
      <trkpt lat="44.3255" lon="6.32676">
        <ele>1467.5999755859</ele>
        <time>2016-07-19T10:29:13.000Z</time>
      </trkpt>
      <trkpt lat="44.32548" lon="6.32673">
        <ele>1467.5999755859</ele>
        <time>2016-07-19T10:29:16.000Z</time>
      </trkpt>
      <trkpt lat="44.32538" lon="6.32668">
        <ele>1467.5999755859</ele>
        <time>2016-07-19T10:29:24.000Z</time>
      </trkpt>
      <trkpt lat="44.32534" lon="6.32665">
        <ele>1467.5999755859</ele>
        <time>2016-07-19T10:29:28.000Z</time>
      </trkpt>
      <trkpt lat="44.32531" lon="6.32656">
        <ele>1468.1999511719</ele>
        <time>2016-07-19T10:29:33.000Z</time>
      </trkpt>
      <trkpt lat="44.32528" lon="6.32641">
        <ele>1469.8000488281</ele>
        <time>2016-07-19T10:29:41.000Z</time>
      </trkpt>
      <trkpt lat="44.32532" lon="6.32624">
        <ele>1473.5999755859</ele>
        <time>2016-07-19T10:29:50.000Z</time>
      </trkpt>
      <trkpt lat="44.32539" lon="6.3261">
        <ele>1476.5999755859</ele>
        <time>2016-07-19T10:29:59.000Z</time>
      </trkpt>
      <trkpt lat="44.32543" lon="6.32594">
        <ele>1479.8000488281</ele>
        <time>2016-07-19T10:30:08.000Z</time>
      </trkpt>
      <trkpt lat="44.32543" lon="6.32576">
        <ele>1483.1999511719</ele>
        <time>2016-07-19T10:30:17.000Z</time>
      </trkpt>
      <trkpt lat="44.32541" lon="6.32555">
        <ele>1485.1999511719</ele>
        <time>2016-07-19T10:30:27.000Z</time>
      </trkpt>
      <trkpt lat="44.32539" lon="6.32538">
        <ele>1486.1999511719</ele>
        <time>2016-07-19T10:30:35.000Z</time>
      </trkpt>
      <trkpt lat="44.3254" lon="6.32518">
        <ele>1487.4000244141</ele>
        <time>2016-07-19T10:30:45.000Z</time>
      </trkpt>
      <trkpt lat="44.32547" lon="6.32502">
        <ele>1488</ele>
        <time>2016-07-19T10:30:55.000Z</time>
      </trkpt>
      <trkpt lat="44.32555" lon="6.32485">
        <ele>1490.1999511719</ele>
        <time>2016-07-19T10:31:05.000Z</time>
      </trkpt>
      <trkpt lat="44.32567" lon="6.32468">
        <ele>1491.1999511719</ele>
        <time>2016-07-19T10:31:17.000Z</time>
      </trkpt>
      <trkpt lat="44.3258" lon="6.32448">
        <ele>1491.4000244141</ele>
        <time>2016-07-19T10:31:30.000Z</time>
      </trkpt>
      <trkpt lat="44.32589" lon="6.32434">
        <ele>1494</ele>
        <time>2016-07-19T10:31:39.000Z</time>
      </trkpt>
      <trkpt lat="44.32598" lon="6.32417">
        <ele>1497.4000244141</ele>
        <time>2016-07-19T10:31:50.000Z</time>
      </trkpt>
      <trkpt lat="44.32605" lon="6.32401">
        <ele>1500.1999511719</ele>
        <time>2016-07-19T10:32:00.000Z</time>
      </trkpt>
      <trkpt lat="44.32605" lon="6.32387">
        <ele>1501.4000244141</ele>
        <time>2016-07-19T10:32:08.000Z</time>
      </trkpt>
      <trkpt lat="44.32605" lon="6.32385">
        <ele>1501.4000244141</ele>
        <time>2016-07-19T10:32:09.000Z</time>
      </trkpt>
      <trkpt lat="44.32604" lon="6.32387">
        <ele>1501.1999511719</ele>
        <time>2016-07-19T10:32:15.000Z</time>
      </trkpt>
      <trkpt lat="44.32609" lon="6.32383">
        <ele>1502</ele>
        <time>2016-07-19T10:32:19.000Z</time>
      </trkpt>
      <trkpt lat="44.32611" lon="6.32381">
        <ele>1502.4000244141</ele>
        <time>2016-07-19T10:32:21.000Z</time>
      </trkpt>
      <trkpt lat="44.32618" lon="6.32369">
        <ele>1502.5999755859</ele>
        <time>2016-07-19T10:32:29.000Z</time>
      </trkpt>
      <trkpt lat="44.32622" lon="6.32353">
        <ele>1502.5999755859</ele>
        <time>2016-07-19T10:32:37.000Z</time>
      </trkpt>
      <trkpt lat="44.32623" lon="6.32333">
        <ele>1503.4000244141</ele>
        <time>2016-07-19T10:32:47.000Z</time>
      </trkpt>
      <trkpt lat="44.32624" lon="6.32318">
        <ele>1504.4000244141</ele>
        <time>2016-07-19T10:32:55.000Z</time>
      </trkpt>
      <trkpt lat="44.32625" lon="6.32296">
        <ele>1504.5999755859</ele>
        <time>2016-07-19T10:33:06.000Z</time>
      </trkpt>
      <trkpt lat="44.3262" lon="6.32285">
        <ele>1505.1999511719</ele>
        <time>2016-07-19T10:33:13.000Z</time>
      </trkpt>
      <trkpt lat="44.32613" lon="6.32287">
        <ele>1505.8000488281</ele>
        <time>2016-07-19T10:33:17.000Z</time>
      </trkpt>
      <trkpt lat="44.32603" lon="6.32292">
        <ele>1503.8000488281</ele>
        <time>2016-07-19T10:33:26.000Z</time>
      </trkpt>
      <trkpt lat="44.326" lon="6.32295">
        <ele>1503.4000244141</ele>
        <time>2016-07-19T10:33:32.000Z</time>
      </trkpt>
      <trkpt lat="44.326" lon="6.32297">
        <ele>1503.4000244141</ele>
        <time>2016-07-19T10:33:55.000Z</time>
      </trkpt>
      <trkpt lat="44.32601" lon="6.32298">
        <ele>1503.5999755859</ele>
        <time>2016-07-19T10:34:13.000Z</time>
      </trkpt>
      <trkpt lat="44.32599" lon="6.32298">
        <ele>1503.1999511719</ele>
        <time>2016-07-19T10:34:18.000Z</time>
      </trkpt>
      <trkpt lat="44.32599" lon="6.32299">
        <ele>1503.1999511719</ele>
        <time>2016-07-19T10:34:23.000Z</time>
      </trkpt>
      <trkpt lat="44.32599" lon="6.323">
        <ele>1503.1999511719</ele>
        <time>2016-07-19T10:34:28.000Z</time>
      </trkpt>
      <trkpt lat="44.32597" lon="6.32295">
        <ele>1502.8000488281</ele>
        <time>2016-07-19T10:34:46.000Z</time>
      </trkpt>
      <trkpt lat="44.32597" lon="6.32291">
        <ele>1502.8000488281</ele>
        <time>2016-07-19T10:34:54.000Z</time>
      </trkpt>
      <trkpt lat="44.32598" lon="6.32293">
        <ele>1503</ele>
        <time>2016-07-19T10:35:00.000Z</time>
      </trkpt>
      <trkpt lat="44.32596" lon="6.32285">
        <ele>1502.5999755859</ele>
        <time>2016-07-19T10:35:59.000Z</time>
      </trkpt>
      <trkpt lat="44.32598" lon="6.3229">
        <ele>1502.8000488281</ele>
        <time>2016-07-19T10:36:03.000Z</time>
      </trkpt>
      <trkpt lat="44.32598" lon="6.32294">
        <ele>1503</ele>
        <time>2016-07-19T10:36:11.000Z</time>
      </trkpt>
      <trkpt lat="44.32598" lon="6.32293">
        <ele>1503</ele>
        <time>2016-07-19T10:36:28.000Z</time>
      </trkpt>
      <trkpt lat="44.32596" lon="6.32292">
        <ele>1502.5999755859</ele>
        <time>2016-07-19T10:36:33.000Z</time>
      </trkpt>
      <trkpt lat="44.32596" lon="6.32291">
        <ele>1502.5999755859</ele>
        <time>2016-07-19T10:36:44.000Z</time>
      </trkpt>
      <trkpt lat="44.32594" lon="6.32291">
        <ele>1502.1999511719</ele>
        <time>2016-07-19T10:36:49.000Z</time>
      </trkpt>
      <trkpt lat="44.32595" lon="6.32294">
        <ele>1502.4000244141</ele>
        <time>2016-07-19T10:36:54.000Z</time>
      </trkpt>
      <trkpt lat="44.32595" lon="6.32296">
        <ele>1502.5999755859</ele>
        <time>2016-07-19T10:37:00.000Z</time>
      </trkpt>
      <trkpt lat="44.326" lon="6.32298">
        <ele>1503.4000244141</ele>
        <time>2016-07-19T10:38:33.000Z</time>
      </trkpt>
      <trkpt lat="44.32601" lon="6.32299">
        <ele>1503.5999755859</ele>
        <time>2016-07-19T10:38:40.000Z</time>
      </trkpt>
      <trkpt lat="44.326" lon="6.32299">
        <ele>1503.1999511719</ele>
        <time>2016-07-19T10:38:50.000Z</time>
      </trkpt>
      <trkpt lat="44.32598" lon="6.32297">
        <ele>1503</ele>
        <time>2016-07-19T10:38:55.000Z</time>
      </trkpt>
      <trkpt lat="44.32598" lon="6.32298">
        <ele>1503</ele>
        <time>2016-07-19T10:39:12.000Z</time>
      </trkpt>
      <trkpt lat="44.32601" lon="6.323">
        <ele>1503.5999755859</ele>
        <time>2016-07-19T10:39:16.000Z</time>
      </trkpt>
      <trkpt lat="44.32601" lon="6.32301">
        <ele>1503.5999755859</ele>
        <time>2016-07-19T10:39:22.000Z</time>
      </trkpt>
      <trkpt lat="44.32602" lon="6.32301">
        <ele>1503.8000488281</ele>
        <time>2016-07-19T10:40:20.000Z</time>
      </trkpt>
      <trkpt lat="44.32603" lon="6.32302">
        <ele>1504</ele>
        <time>2016-07-19T10:40:31.000Z</time>
      </trkpt>
      <trkpt lat="44.32599" lon="6.323">
        <ele>1503.1999511719</ele>
        <time>2016-07-19T10:40:44.000Z</time>
      </trkpt>
      <trkpt lat="44.32597" lon="6.32299">
        <ele>1502.8000488281</ele>
        <time>2016-07-19T10:40:51.000Z</time>
      </trkpt>
      <trkpt lat="44.32596" lon="6.32299">
        <ele>1502.8000488281</ele>
        <time>2016-07-19T10:40:57.000Z</time>
      </trkpt>
      <trkpt lat="44.32599" lon="6.32297">
        <ele>1503</ele>
        <time>2016-07-19T10:41:55.000Z</time>
      </trkpt>
      <trkpt lat="44.32601" lon="6.32297">
        <ele>1503.4000244141</ele>
        <time>2016-07-19T10:42:03.000Z</time>
      </trkpt>
      <trkpt lat="44.32599" lon="6.32297">
        <ele>1503</ele>
        <time>2016-07-19T10:42:14.000Z</time>
      </trkpt>
      <trkpt lat="44.32596" lon="6.32296">
        <ele>1502.5999755859</ele>
        <time>2016-07-19T10:42:25.000Z</time>
      </trkpt>
      <trkpt lat="44.32596" lon="6.32295">
        <ele>1502.5999755859</ele>
        <time>2016-07-19T10:42:32.000Z</time>
      </trkpt>
      <trkpt lat="44.32597" lon="6.32295">
        <ele>1502.8000488281</ele>
        <time>2016-07-19T10:42:38.000Z</time>
      </trkpt>
      <trkpt lat="44.32598" lon="6.32294">
        <ele>1503</ele>
        <time>2016-07-19T10:42:51.000Z</time>
      </trkpt>
      <trkpt lat="44.32595" lon="6.32291">
        <ele>1502.4000244141</ele>
        <time>2016-07-19T10:43:12.000Z</time>
      </trkpt>
      <trkpt lat="44.32594" lon="6.3229">
        <ele>1502.1999511719</ele>
        <time>2016-07-19T10:43:17.000Z</time>
      </trkpt>
      <trkpt lat="44.32598" lon="6.32293">
        <ele>1503</ele>
        <time>2016-07-19T10:45:02.000Z</time>
      </trkpt>
      <trkpt lat="44.32596" lon="6.32292">
        <ele>1502.5999755859</ele>
        <time>2016-07-19T10:45:08.000Z</time>
      </trkpt>
      <trkpt lat="44.32597" lon="6.32291">
        <ele>1502.8000488281</ele>
        <time>2016-07-19T10:45:30.000Z</time>
      </trkpt>
      <trkpt lat="44.32599" lon="6.32292">
        <ele>1503.1999511719</ele>
        <time>2016-07-19T10:46:13.000Z</time>
      </trkpt>
      <trkpt lat="44.32597" lon="6.32289">
        <ele>1502.8000488281</ele>
        <time>2016-07-19T10:46:29.000Z</time>
      </trkpt>
      <trkpt lat="44.32651" lon="6.32291">
        <ele>1501.5999755859</ele>
        <time>2016-07-19T11:52:29.000Z</time>
      </trkpt>
      <trkpt lat="44.32652" lon="6.32286">
        <ele>1501.4000244141</ele>
        <time>2016-07-19T11:52:34.000Z</time>
      </trkpt>
      <trkpt lat="44.32645" lon="6.32267">
        <ele>1502.1999511719</ele>
        <time>2016-07-19T11:52:40.000Z</time>
      </trkpt>
      <trkpt lat="44.32645" lon="6.32263">
        <ele>1502.1999511719</ele>
        <time>2016-07-19T11:52:42.000Z</time>
      </trkpt>
      <trkpt lat="44.32649" lon="6.3225">
        <ele>1503.1999511719</ele>
        <time>2016-07-19T11:52:50.000Z</time>
      </trkpt>
      <trkpt lat="44.32656" lon="6.32237">
        <ele>1504.4000244141</ele>
        <time>2016-07-19T11:53:00.000Z</time>
      </trkpt>
      <trkpt lat="44.32666" lon="6.32223">
        <ele>1504.8000488281</ele>
        <time>2016-07-19T11:53:12.000Z</time>
      </trkpt>
      <trkpt lat="44.32674" lon="6.3221">
        <ele>1504.8000488281</ele>
        <time>2016-07-19T11:53:22.000Z</time>
      </trkpt>
      <trkpt lat="44.32677" lon="6.32204">
        <ele>1505.4000244141</ele>
        <time>2016-07-19T11:53:26.000Z</time>
      </trkpt>
      <trkpt lat="44.32684" lon="6.32189">
        <ele>1507.1999511719</ele>
        <time>2016-07-19T11:53:36.000Z</time>
      </trkpt>
      <trkpt lat="44.32692" lon="6.32172">
        <ele>1509.4000244141</ele>
        <time>2016-07-19T11:53:46.000Z</time>
      </trkpt>
      <trkpt lat="44.327" lon="6.32161">
        <ele>1510.1999511719</ele>
        <time>2016-07-19T11:53:54.000Z</time>
      </trkpt>
      <trkpt lat="44.32708" lon="6.3215">
        <ele>1510.8000488281</ele>
        <time>2016-07-19T11:54:02.000Z</time>
      </trkpt>
      <trkpt lat="44.32715" lon="6.32142">
        <ele>1511.5999755859</ele>
        <time>2016-07-19T11:54:09.000Z</time>
      </trkpt>
      <trkpt lat="44.32723" lon="6.32132">
        <ele>1512</ele>
        <time>2016-07-19T11:54:17.000Z</time>
      </trkpt>
      <trkpt lat="44.32733" lon="6.3212">
        <ele>1512.5999755859</ele>
        <time>2016-07-19T11:54:27.000Z</time>
      </trkpt>
      <trkpt lat="44.32742" lon="6.32109">
        <ele>1513</ele>
        <time>2016-07-19T11:54:36.000Z</time>
      </trkpt>
      <trkpt lat="44.32754" lon="6.32097">
        <ele>1515.1999511719</ele>
        <time>2016-07-19T11:54:47.000Z</time>
      </trkpt>
      <trkpt lat="44.32756" lon="6.32095">
        <ele>1515.4000244141</ele>
        <time>2016-07-19T11:54:49.000Z</time>
      </trkpt>
      <trkpt lat="44.32766" lon="6.32087">
        <ele>1517</ele>
        <time>2016-07-19T11:54:58.000Z</time>
      </trkpt>
      <trkpt lat="44.32774" lon="6.32077">
        <ele>1518.8000488281</ele>
        <time>2016-07-19T11:55:06.000Z</time>
      </trkpt>
      <trkpt lat="44.32783" lon="6.32066">
        <ele>1520.1999511719</ele>
        <time>2016-07-19T11:55:15.000Z</time>
      </trkpt>
      <trkpt lat="44.32791" lon="6.32053">
        <ele>1520.1999511719</ele>
        <time>2016-07-19T11:55:24.000Z</time>
      </trkpt>
      <trkpt lat="44.32798" lon="6.3204">
        <ele>1520</ele>
        <time>2016-07-19T11:55:33.000Z</time>
      </trkpt>
      <trkpt lat="44.32803" lon="6.32031">
        <ele>1519.8000488281</ele>
        <time>2016-07-19T11:55:39.000Z</time>
      </trkpt>
      <trkpt lat="44.32808" lon="6.32016">
        <ele>1519.8000488281</ele>
        <time>2016-07-19T11:55:48.000Z</time>
      </trkpt>
      <trkpt lat="44.32802" lon="6.32005">
        <ele>1520.8000488281</ele>
        <time>2016-07-19T11:55:55.000Z</time>
      </trkpt>
      <trkpt lat="44.32794" lon="6.31999">
        <ele>1521.8000488281</ele>
        <time>2016-07-19T11:56:02.000Z</time>
      </trkpt>
      <trkpt lat="44.32783" lon="6.31995">
        <ele>1523.1999511719</ele>
        <time>2016-07-19T11:56:08.000Z</time>
      </trkpt>
      <trkpt lat="44.32772" lon="6.31992">
        <ele>1523.8000488281</ele>
        <time>2016-07-19T11:56:16.000Z</time>
      </trkpt>
      <trkpt lat="44.32764" lon="6.31991">
        <ele>1524.1999511719</ele>
        <time>2016-07-19T11:56:23.000Z</time>
      </trkpt>
      <trkpt lat="44.32751" lon="6.31989">
        <ele>1524.8000488281</ele>
        <time>2016-07-19T11:56:32.000Z</time>
      </trkpt>
      <trkpt lat="44.32737" lon="6.31983">
        <ele>1525.4000244141</ele>
        <time>2016-07-19T11:56:42.000Z</time>
      </trkpt>
      <trkpt lat="44.32723" lon="6.31972">
        <ele>1527.4000244141</ele>
        <time>2016-07-19T11:56:53.000Z</time>
      </trkpt>
      <trkpt lat="44.32718" lon="6.31955">
        <ele>1530.4000244141</ele>
        <time>2016-07-19T11:57:02.000Z</time>
      </trkpt>
      <trkpt lat="44.32721" lon="6.31941">
        <ele>1532.8000488281</ele>
        <time>2016-07-19T11:57:10.000Z</time>
      </trkpt>
      <trkpt lat="44.3273" lon="6.31928">
        <ele>1534.4000244141</ele>
        <time>2016-07-19T11:57:20.000Z</time>
      </trkpt>
      <trkpt lat="44.3274" lon="6.31916">
        <ele>1533.5999755859</ele>
        <time>2016-07-19T11:57:30.000Z</time>
      </trkpt>
      <trkpt lat="44.32751" lon="6.31904">
        <ele>1532.8000488281</ele>
        <time>2016-07-19T11:57:41.000Z</time>
      </trkpt>
      <trkpt lat="44.32762" lon="6.31894">
        <ele>1532.4000244141</ele>
        <time>2016-07-19T11:57:51.000Z</time>
      </trkpt>
      <trkpt lat="44.32773" lon="6.31884">
        <ele>1533.4000244141</ele>
        <time>2016-07-19T11:58:01.000Z</time>
      </trkpt>
      <trkpt lat="44.32783" lon="6.31875">
        <ele>1534</ele>
        <time>2016-07-19T11:58:10.000Z</time>
      </trkpt>
      <trkpt lat="44.32791" lon="6.31867">
        <ele>1534.4000244141</ele>
        <time>2016-07-19T11:58:18.000Z</time>
      </trkpt>
      <trkpt lat="44.32794" lon="6.31864">
        <ele>1534.4000244141</ele>
        <time>2016-07-19T11:58:21.000Z</time>
      </trkpt>
      <trkpt lat="44.32803" lon="6.31851">
        <ele>1535.8000488281</ele>
        <time>2016-07-19T11:58:30.000Z</time>
      </trkpt>
      <trkpt lat="44.32806" lon="6.31841">
        <ele>1537.4000244141</ele>
        <time>2016-07-19T11:58:36.000Z</time>
      </trkpt>
      <trkpt lat="44.3281" lon="6.31826">
        <ele>1540.1999511719</ele>
        <time>2016-07-19T11:58:44.000Z</time>
      </trkpt>
      <trkpt lat="44.32812" lon="6.31819">
        <ele>1541.1999511719</ele>
        <time>2016-07-19T11:58:48.000Z</time>
      </trkpt>
      <trkpt lat="44.32813" lon="6.31814">
        <ele>1542</ele>
        <time>2016-07-19T11:58:51.000Z</time>
      </trkpt>
      <trkpt lat="44.32816" lon="6.31803">
        <ele>1543.5999755859</ele>
        <time>2016-07-19T11:58:58.000Z</time>
      </trkpt>
      <trkpt lat="44.32818" lon="6.31789">
        <ele>1545.5999755859</ele>
        <time>2016-07-19T11:59:05.000Z</time>
      </trkpt>
      <trkpt lat="44.3282" lon="6.31774">
        <ele>1548</ele>
        <time>2016-07-19T11:59:12.000Z</time>
      </trkpt>
      <trkpt lat="44.32822" lon="6.31761">
        <ele>1549.5999755859</ele>
        <time>2016-07-19T11:59:19.000Z</time>
      </trkpt>
      <trkpt lat="44.32823" lon="6.31746">
        <ele>1551.8000488281</ele>
        <time>2016-07-19T11:59:27.000Z</time>
      </trkpt>
      <trkpt lat="44.32823" lon="6.31739">
        <ele>1553</ele>
        <time>2016-07-19T11:59:31.000Z</time>
      </trkpt>
      <trkpt lat="44.32822" lon="6.31723">
        <ele>1555.1999511719</ele>
        <time>2016-07-19T11:59:39.000Z</time>
      </trkpt>
      <trkpt lat="44.32821" lon="6.31711">
        <ele>1556.8000488281</ele>
        <time>2016-07-19T11:59:46.000Z</time>
      </trkpt>
      <trkpt lat="44.3282" lon="6.31698">
        <ele>1558.4000244141</ele>
        <time>2016-07-19T11:59:53.000Z</time>
      </trkpt>
      <trkpt lat="44.32819" lon="6.31691">
        <ele>1559.1999511719</ele>
        <time>2016-07-19T11:59:57.000Z</time>
      </trkpt>
      <trkpt lat="44.32819" lon="6.31677">
        <ele>1559.8000488281</ele>
        <time>2016-07-19T12:00:05.000Z</time>
      </trkpt>
      <trkpt lat="44.3282" lon="6.31659">
        <ele>1559.5999755859</ele>
        <time>2016-07-19T12:00:14.000Z</time>
      </trkpt>
      <trkpt lat="44.32819" lon="6.31647">
        <ele>1560.1999511719</ele>
        <time>2016-07-19T12:00:21.000Z</time>
      </trkpt>
      <trkpt lat="44.32813" lon="6.3164">
        <ele>1561.4000244141</ele>
        <time>2016-07-19T12:00:28.000Z</time>
      </trkpt>
      <trkpt lat="44.32809" lon="6.31642">
        <ele>1563.1999511719</ele>
        <time>2016-07-19T12:00:34.000Z</time>
      </trkpt>
      <trkpt lat="44.32806" lon="6.3165">
        <ele>1564.8000488281</ele>
        <time>2016-07-19T12:00:39.000Z</time>
      </trkpt>
      <trkpt lat="44.32805" lon="6.31659">
        <ele>1565</ele>
        <time>2016-07-19T12:00:44.000Z</time>
      </trkpt>
      <trkpt lat="44.32801" lon="6.31677">
        <ele>1565.4000244141</ele>
        <time>2016-07-19T12:00:55.000Z</time>
      </trkpt>
      <trkpt lat="44.32799" lon="6.31682">
        <ele>1565.5999755859</ele>
        <time>2016-07-19T12:00:58.000Z</time>
      </trkpt>
      <trkpt lat="44.32793" lon="6.31694">
        <ele>1566</ele>
        <time>2016-07-19T12:01:07.000Z</time>
      </trkpt>
      <trkpt lat="44.32788" lon="6.31704">
        <ele>1566.4000244141</ele>
        <time>2016-07-19T12:01:15.000Z</time>
      </trkpt>
      <trkpt lat="44.32782" lon="6.31712">
        <ele>1567.4000244141</ele>
        <time>2016-07-19T12:01:21.000Z</time>
      </trkpt>
      <trkpt lat="44.32776" lon="6.3172">
        <ele>1567.8000488281</ele>
        <time>2016-07-19T12:01:27.000Z</time>
      </trkpt>
      <trkpt lat="44.32764" lon="6.3173">
        <ele>1568.5999755859</ele>
        <time>2016-07-19T12:01:38.000Z</time>
      </trkpt>
      <trkpt lat="44.32754" lon="6.31738">
        <ele>1568.8000488281</ele>
        <time>2016-07-19T12:01:47.000Z</time>
      </trkpt>
      <trkpt lat="44.32744" lon="6.31746">
        <ele>1568.5999755859</ele>
        <time>2016-07-19T12:01:56.000Z</time>
      </trkpt>
      <trkpt lat="44.32737" lon="6.3175">
        <ele>1569</ele>
        <time>2016-07-19T12:02:03.000Z</time>
      </trkpt>
      <trkpt lat="44.32729" lon="6.31757">
        <ele>1569</ele>
        <time>2016-07-19T12:02:10.000Z</time>
      </trkpt>
      <trkpt lat="44.32718" lon="6.31765">
        <ele>1568.8000488281</ele>
        <time>2016-07-19T12:02:19.000Z</time>
      </trkpt>
      <trkpt lat="44.32708" lon="6.31772">
        <ele>1568.5999755859</ele>
        <time>2016-07-19T12:02:27.000Z</time>
      </trkpt>
      <trkpt lat="44.32699" lon="6.31777">
        <ele>1568.8000488281</ele>
        <time>2016-07-19T12:02:34.000Z</time>
      </trkpt>
      <trkpt lat="44.32688" lon="6.31783">
        <ele>1568.5999755859</ele>
        <time>2016-07-19T12:02:42.000Z</time>
      </trkpt>
      <trkpt lat="44.32677" lon="6.3179">
        <ele>1568.1999511719</ele>
        <time>2016-07-19T12:02:51.000Z</time>
      </trkpt>
      <trkpt lat="44.32652" lon="6.31796">
        <ele>1570</ele>
        <time>2016-07-19T12:03:09.000Z</time>
      </trkpt>
      <trkpt lat="44.32643" lon="6.31799">
        <ele>1570.4000244141</ele>
        <time>2016-07-19T12:03:16.000Z</time>
      </trkpt>
      <trkpt lat="44.32634" lon="6.31804">
        <ele>1570.4000244141</ele>
        <time>2016-07-19T12:03:23.000Z</time>
      </trkpt>
      <trkpt lat="44.32623" lon="6.31811">
        <ele>1570.5999755859</ele>
        <time>2016-07-19T12:03:32.000Z</time>
      </trkpt>
      <trkpt lat="44.3261" lon="6.31817">
        <ele>1570.4000244141</ele>
        <time>2016-07-19T12:03:41.000Z</time>
      </trkpt>
      <trkpt lat="44.32599" lon="6.31822">
        <ele>1569.5999755859</ele>
        <time>2016-07-19T12:03:49.000Z</time>
      </trkpt>
      <trkpt lat="44.32596" lon="6.31822">
        <ele>1569.8000488281</ele>
        <time>2016-07-19T12:03:51.000Z</time>
      </trkpt>
      <trkpt lat="44.3259" lon="6.31823">
        <ele>1569.8000488281</ele>
        <time>2016-07-19T12:03:55.000Z</time>
      </trkpt>
      <trkpt lat="44.32581" lon="6.31826">
        <ele>1569.4000244141</ele>
        <time>2016-07-19T12:04:02.000Z</time>
      </trkpt>
      <trkpt lat="44.3258" lon="6.31825">
        <ele>1569.5999755859</ele>
        <time>2016-07-19T12:04:05.000Z</time>
      </trkpt>
      <trkpt lat="44.3257" lon="6.31827">
        <ele>1569.4000244141</ele>
        <time>2016-07-19T12:04:12.000Z</time>
      </trkpt>
      <trkpt lat="44.32554" lon="6.31824">
        <ele>1570.4000244141</ele>
        <time>2016-07-19T12:04:23.000Z</time>
      </trkpt>
      <trkpt lat="44.32539" lon="6.31819">
        <ele>1571.8000488281</ele>
        <time>2016-07-19T12:04:33.000Z</time>
      </trkpt>
      <trkpt lat="44.3252" lon="6.31813">
        <ele>1574.4000244141</ele>
        <time>2016-07-19T12:04:39.000Z</time>
      </trkpt>
      <trkpt lat="44.325" lon="6.31813">
        <ele>1577</ele>
        <time>2016-07-19T12:04:44.000Z</time>
      </trkpt>
      <trkpt lat="44.3248" lon="6.31821">
        <ele>1578.4000244141</ele>
        <time>2016-07-19T12:04:49.000Z</time>
      </trkpt>
      <trkpt lat="44.3246" lon="6.31828">
        <ele>1579.5999755859</ele>
        <time>2016-07-19T12:04:55.000Z</time>
      </trkpt>
      <trkpt lat="44.32442" lon="6.31833">
        <ele>1580.1999511719</ele>
        <time>2016-07-19T12:05:00.000Z</time>
      </trkpt>
      <trkpt lat="44.32425" lon="6.31831">
        <ele>1579.8000488281</ele>
        <time>2016-07-19T12:05:05.000Z</time>
      </trkpt>
      <trkpt lat="44.32423" lon="6.31831">
        <ele>1579.8000488281</ele>
        <time>2016-07-19T12:05:06.000Z</time>
      </trkpt>
      <trkpt lat="44.32418" lon="6.31826">
        <ele>1580.4000244141</ele>
        <time>2016-07-19T12:05:10.000Z</time>
      </trkpt>
      <trkpt lat="44.3241" lon="6.31818">
        <ele>1581.8000488281</ele>
        <time>2016-07-19T12:05:17.000Z</time>
      </trkpt>
      <trkpt lat="44.32407" lon="6.31806">
        <ele>1582.1999511719</ele>
        <time>2016-07-19T12:05:24.000Z</time>
      </trkpt>
      <trkpt lat="44.32407" lon="6.31793">
        <ele>1581.4000244141</ele>
        <time>2016-07-19T12:05:31.000Z</time>
      </trkpt>
      <trkpt lat="44.32408" lon="6.31786">
        <ele>1581</ele>
        <time>2016-07-19T12:05:35.000Z</time>
      </trkpt>
      <trkpt lat="44.32409" lon="6.31777">
        <ele>1580.4000244141</ele>
        <time>2016-07-19T12:05:40.000Z</time>
      </trkpt>
      <trkpt lat="44.3241" lon="6.31772">
        <ele>1580.8000488281</ele>
        <time>2016-07-19T12:05:45.000Z</time>
      </trkpt>
      <trkpt lat="44.32412" lon="6.31766">
        <ele>1581.5999755859</ele>
        <time>2016-07-19T12:06:21.000Z</time>
      </trkpt>
      <trkpt lat="44.32421" lon="6.31756">
        <ele>1584</ele>
        <time>2016-07-19T12:06:29.000Z</time>
      </trkpt>
      <trkpt lat="44.32427" lon="6.31745">
        <ele>1586</ele>
        <time>2016-07-19T12:06:37.000Z</time>
      </trkpt>
      <trkpt lat="44.32433" lon="6.31727">
        <ele>1588.8000488281</ele>
        <time>2016-07-19T12:06:48.000Z</time>
      </trkpt>
      <trkpt lat="44.32437" lon="6.31711">
        <ele>1591.4000244141</ele>
        <time>2016-07-19T12:06:58.000Z</time>
      </trkpt>
      <trkpt lat="44.3244" lon="6.31698">
        <ele>1593</ele>
        <time>2016-07-19T12:07:06.000Z</time>
      </trkpt>
      <trkpt lat="44.32442" lon="6.31691">
        <ele>1594</ele>
        <time>2016-07-19T12:07:11.000Z</time>
      </trkpt>
      <trkpt lat="44.32444" lon="6.31677">
        <ele>1595.5999755859</ele>
        <time>2016-07-19T12:07:18.000Z</time>
      </trkpt>
      <trkpt lat="44.32446" lon="6.31656">
        <ele>1598</ele>
        <time>2016-07-19T12:07:29.000Z</time>
      </trkpt>
      <trkpt lat="44.32444" lon="6.31641">
        <ele>1599.5999755859</ele>
        <time>2016-07-19T12:07:37.000Z</time>
      </trkpt>
      <trkpt lat="44.32437" lon="6.31627">
        <ele>1601.1999511719</ele>
        <time>2016-07-19T12:07:46.000Z</time>
      </trkpt>
      <trkpt lat="44.32432" lon="6.31619">
        <ele>1602.1999511719</ele>
        <time>2016-07-19T12:07:53.000Z</time>
      </trkpt>
      <trkpt lat="44.32423" lon="6.31606">
        <ele>1603.4000244141</ele>
        <time>2016-07-19T12:08:02.000Z</time>
      </trkpt>
      <trkpt lat="44.32419" lon="6.31595">
        <ele>1604.8000488281</ele>
        <time>2016-07-19T12:08:07.000Z</time>
      </trkpt>
      <trkpt lat="44.32417" lon="6.31583">
        <ele>1606.4000244141</ele>
        <time>2016-07-19T12:08:13.000Z</time>
      </trkpt>
      <trkpt lat="44.32419" lon="6.31571">
        <ele>1608.5999755859</ele>
        <time>2016-07-19T12:08:20.000Z</time>
      </trkpt>
      <trkpt lat="44.32422" lon="6.31568">
        <ele>1609.1999511719</ele>
        <time>2016-07-19T12:08:22.000Z</time>
      </trkpt>
      <trkpt lat="44.32427" lon="6.31562">
        <ele>1610.5999755859</ele>
        <time>2016-07-19T12:08:28.000Z</time>
      </trkpt>
      <trkpt lat="44.32431" lon="6.31554">
        <ele>1611.8000488281</ele>
        <time>2016-07-19T12:08:34.000Z</time>
      </trkpt>
      <trkpt lat="44.32432" lon="6.31553">
        <ele>1611.8000488281</ele>
        <time>2016-07-19T12:08:41.000Z</time>
      </trkpt>
      <trkpt lat="44.32435" lon="6.31548">
        <ele>1612.5999755859</ele>
        <time>2016-07-19T12:08:47.000Z</time>
      </trkpt>
      <trkpt lat="44.32443" lon="6.3154">
        <ele>1614.1999511719</ele>
        <time>2016-07-19T12:08:55.000Z</time>
      </trkpt>
      <trkpt lat="44.32449" lon="6.31534">
        <ele>1615.4000244141</ele>
        <time>2016-07-19T12:09:01.000Z</time>
      </trkpt>
      <trkpt lat="44.3245" lon="6.31532">
        <ele>1615.5999755859</ele>
        <time>2016-07-19T12:09:02.000Z</time>
      </trkpt>
      <trkpt lat="44.32453" lon="6.31527">
        <ele>1616.4000244141</ele>
        <time>2016-07-19T12:09:06.000Z</time>
      </trkpt>
      <trkpt lat="44.3246" lon="6.3151">
        <ele>1618.5999755859</ele>
        <time>2016-07-19T12:09:16.000Z</time>
      </trkpt>
      <trkpt lat="44.32464" lon="6.31495">
        <ele>1620.1999511719</ele>
        <time>2016-07-19T12:09:24.000Z</time>
      </trkpt>
      <trkpt lat="44.32468" lon="6.31481">
        <ele>1621</ele>
        <time>2016-07-19T12:09:32.000Z</time>
      </trkpt>
      <trkpt lat="44.32471" lon="6.31467">
        <ele>1620.5999755859</ele>
        <time>2016-07-19T12:09:39.000Z</time>
      </trkpt>
      <trkpt lat="44.32475" lon="6.3145">
        <ele>1620.1999511719</ele>
        <time>2016-07-19T12:09:48.000Z</time>
      </trkpt>
      <trkpt lat="44.32475" lon="6.31448">
        <ele>1620.1999511719</ele>
        <time>2016-07-19T12:09:49.000Z</time>
      </trkpt>
      <trkpt lat="44.32482" lon="6.3143">
        <ele>1620</ele>
        <time>2016-07-19T12:09:59.000Z</time>
      </trkpt>
      <trkpt lat="44.32493" lon="6.31414">
        <ele>1621.8000488281</ele>
        <time>2016-07-19T12:10:10.000Z</time>
      </trkpt>
      <trkpt lat="44.32502" lon="6.31403">
        <ele>1623.1999511719</ele>
        <time>2016-07-19T12:10:19.000Z</time>
      </trkpt>
      <trkpt lat="44.32512" lon="6.31387">
        <ele>1625.5999755859</ele>
        <time>2016-07-19T12:10:30.000Z</time>
      </trkpt>
      <trkpt lat="44.32517" lon="6.31378">
        <ele>1627</ele>
        <time>2016-07-19T12:10:36.000Z</time>
      </trkpt>
      <trkpt lat="44.32527" lon="6.31362">
        <ele>1629.5999755859</ele>
        <time>2016-07-19T12:10:48.000Z</time>
      </trkpt>
      <trkpt lat="44.32529" lon="6.31358">
        <ele>1630</ele>
        <time>2016-07-19T12:10:52.000Z</time>
      </trkpt>
      <trkpt lat="44.32536" lon="6.31347">
        <ele>1631.1999511719</ele>
        <time>2016-07-19T12:11:00.000Z</time>
      </trkpt>
      <trkpt lat="44.3254" lon="6.31333">
        <ele>1632.5999755859</ele>
        <time>2016-07-19T12:11:09.000Z</time>
      </trkpt>
      <trkpt lat="44.32543" lon="6.31315">
        <ele>1634.1999511719</ele>
        <time>2016-07-19T12:11:19.000Z</time>
      </trkpt>
      <trkpt lat="44.32546" lon="6.31302">
        <ele>1635.8000488281</ele>
        <time>2016-07-19T12:11:26.000Z</time>
      </trkpt>
      <trkpt lat="44.32549" lon="6.3129">
        <ele>1637.4000244141</ele>
        <time>2016-07-19T12:11:33.000Z</time>
      </trkpt>
      <trkpt lat="44.32552" lon="6.31274">
        <ele>1639.5999755859</ele>
        <time>2016-07-19T12:11:42.000Z</time>
      </trkpt>
      <trkpt lat="44.32554" lon="6.31264">
        <ele>1641</ele>
        <time>2016-07-19T12:11:48.000Z</time>
      </trkpt>
      <trkpt lat="44.32559" lon="6.31253">
        <ele>1642</ele>
        <time>2016-07-19T12:11:55.000Z</time>
      </trkpt>
      <trkpt lat="44.32565" lon="6.31237">
        <ele>1642.5999755859</ele>
        <time>2016-07-19T12:12:04.000Z</time>
      </trkpt>
      <trkpt lat="44.32569" lon="6.31223">
        <ele>1644</ele>
        <time>2016-07-19T12:12:12.000Z</time>
      </trkpt>
      <trkpt lat="44.32572" lon="6.31206">
        <ele>1646.5999755859</ele>
        <time>2016-07-19T12:12:21.000Z</time>
      </trkpt>
      <trkpt lat="44.32577" lon="6.31194">
        <ele>1648</ele>
        <time>2016-07-19T12:12:28.000Z</time>
      </trkpt>
      <trkpt lat="44.32583" lon="6.31177">
        <ele>1649.4000244141</ele>
        <time>2016-07-19T12:12:38.000Z</time>
      </trkpt>
      <trkpt lat="44.32587" lon="6.31164">
        <ele>1650.5999755859</ele>
        <time>2016-07-19T12:12:46.000Z</time>
      </trkpt>
      <trkpt lat="44.32578" lon="6.31162">
        <ele>1652</ele>
        <time>2016-07-19T12:12:55.000Z</time>
      </trkpt>
      <trkpt lat="44.3257" lon="6.31175">
        <ele>1651.5999755859</ele>
        <time>2016-07-19T12:13:04.000Z</time>
      </trkpt>
      <trkpt lat="44.32559" lon="6.31185">
        <ele>1651.5999755859</ele>
        <time>2016-07-19T12:13:14.000Z</time>
      </trkpt>
      <trkpt lat="44.32552" lon="6.3119">
        <ele>1651.4000244141</ele>
        <time>2016-07-19T12:13:21.000Z</time>
      </trkpt>
      <trkpt lat="44.32543" lon="6.31195">
        <ele>1651.4000244141</ele>
        <time>2016-07-19T12:13:28.000Z</time>
      </trkpt>
      <trkpt lat="44.32538" lon="6.31198">
        <ele>1651.4000244141</ele>
        <time>2016-07-19T12:13:33.000Z</time>
      </trkpt>
      <trkpt lat="44.3253" lon="6.31199">
        <ele>1652.4000244141</ele>
        <time>2016-07-19T12:13:39.000Z</time>
      </trkpt>
      <trkpt lat="44.32524" lon="6.3119">
        <ele>1653.4000244141</ele>
        <time>2016-07-19T12:13:46.000Z</time>
      </trkpt>
      <trkpt lat="44.32528" lon="6.31179">
        <ele>1655.4000244141</ele>
        <time>2016-07-19T12:13:53.000Z</time>
      </trkpt>
      <trkpt lat="44.32537" lon="6.31171">
        <ele>1656.1999511719</ele>
        <time>2016-07-19T12:14:02.000Z</time>
      </trkpt>
      <trkpt lat="44.32544" lon="6.31161">
        <ele>1657</ele>
        <time>2016-07-19T12:14:09.000Z</time>
      </trkpt>
      <trkpt lat="44.32555" lon="6.31146">
        <ele>1657.5999755859</ele>
        <time>2016-07-19T12:14:20.000Z</time>
      </trkpt>
      <trkpt lat="44.32557" lon="6.31142">
        <ele>1657.8000488281</ele>
        <time>2016-07-19T12:14:23.000Z</time>
      </trkpt>
      <trkpt lat="44.32563" lon="6.31135">
        <ele>1658</ele>
        <time>2016-07-19T12:14:28.000Z</time>
      </trkpt>
      <trkpt lat="44.32568" lon="6.31127">
        <ele>1658.4000244141</ele>
        <time>2016-07-19T12:14:34.000Z</time>
      </trkpt>
      <trkpt lat="44.32574" lon="6.31118">
        <ele>1658.8000488281</ele>
        <time>2016-07-19T12:14:40.000Z</time>
      </trkpt>
      <trkpt lat="44.3258" lon="6.3111">
        <ele>1659.1999511719</ele>
        <time>2016-07-19T12:14:46.000Z</time>
      </trkpt>
      <trkpt lat="44.32591" lon="6.31095">
        <ele>1660.8000488281</ele>
        <time>2016-07-19T12:14:57.000Z</time>
      </trkpt>
      <trkpt lat="44.32604" lon="6.31077">
        <ele>1662.5999755859</ele>
        <time>2016-07-19T12:15:10.000Z</time>
      </trkpt>
      <trkpt lat="44.3261" lon="6.31068">
        <ele>1663.5999755859</ele>
        <time>2016-07-19T12:15:17.000Z</time>
      </trkpt>
      <trkpt lat="44.32617" lon="6.31057">
        <ele>1664</ele>
        <time>2016-07-19T12:15:25.000Z</time>
      </trkpt>
      <trkpt lat="44.32623" lon="6.31042">
        <ele>1664.1999511719</ele>
        <time>2016-07-19T12:15:34.000Z</time>
      </trkpt>
      <trkpt lat="44.32627" lon="6.31027">
        <ele>1665</ele>
        <time>2016-07-19T12:15:42.000Z</time>
      </trkpt>
      <trkpt lat="44.32632" lon="6.31004">
        <ele>1666.1999511719</ele>
        <time>2016-07-19T12:15:54.000Z</time>
      </trkpt>
      <trkpt lat="44.32634" lon="6.30996">
        <ele>1667</ele>
        <time>2016-07-19T12:15:59.000Z</time>
      </trkpt>
      <trkpt lat="44.32635" lon="6.30994">
        <ele>1667.5999755859</ele>
        <time>2016-07-19T12:16:00.000Z</time>
      </trkpt>
      <trkpt lat="44.3264" lon="6.3098">
        <ele>1671</ele>
        <time>2016-07-19T12:16:08.000Z</time>
      </trkpt>
      <trkpt lat="44.32648" lon="6.30959">
        <ele>1670.4000244141</ele>
        <time>2016-07-19T12:16:20.000Z</time>
      </trkpt>
      <trkpt lat="44.32652" lon="6.30943">
        <ele>1669.8000488281</ele>
        <time>2016-07-19T12:16:29.000Z</time>
      </trkpt>
      <trkpt lat="44.32654" lon="6.30935">
        <ele>1669.8000488281</ele>
        <time>2016-07-19T12:16:35.000Z</time>
      </trkpt>
      <trkpt lat="44.32661" lon="6.30915">
        <ele>1671.1999511719</ele>
        <time>2016-07-19T12:16:47.000Z</time>
      </trkpt>
      <trkpt lat="44.32672" lon="6.30894">
        <ele>1672.4000244141</ele>
        <time>2016-07-19T12:17:00.000Z</time>
      </trkpt>
      <trkpt lat="44.32686" lon="6.30879">
        <ele>1671.5999755859</ele>
        <time>2016-07-19T12:17:13.000Z</time>
      </trkpt>
      <trkpt lat="44.32698" lon="6.30868">
        <ele>1672.5999755859</ele>
        <time>2016-07-19T12:17:23.000Z</time>
      </trkpt>
      <trkpt lat="44.32711" lon="6.30859">
        <ele>1671.1999511719</ele>
        <time>2016-07-19T12:17:33.000Z</time>
      </trkpt>
      <trkpt lat="44.32725" lon="6.30848">
        <ele>1669.4000244141</ele>
        <time>2016-07-19T12:17:45.000Z</time>
      </trkpt>
      <trkpt lat="44.32737" lon="6.30836">
        <ele>1670.8000488281</ele>
        <time>2016-07-19T12:17:56.000Z</time>
      </trkpt>
      <trkpt lat="44.32743" lon="6.30828">
        <ele>1672.1999511719</ele>
        <time>2016-07-19T12:18:03.000Z</time>
      </trkpt>
      <trkpt lat="44.32744" lon="6.30826">
        <ele>1672.4000244141</ele>
        <time>2016-07-19T12:18:04.000Z</time>
      </trkpt>
      <trkpt lat="44.3275" lon="6.30818">
        <ele>1673.8000488281</ele>
        <time>2016-07-19T12:18:10.000Z</time>
      </trkpt>
      <trkpt lat="44.32763" lon="6.30798">
        <ele>1672.5999755859</ele>
        <time>2016-07-19T12:18:24.000Z</time>
      </trkpt>
      <trkpt lat="44.32767" lon="6.30781">
        <ele>1673.5999755859</ele>
        <time>2016-07-19T12:18:34.000Z</time>
      </trkpt>
      <trkpt lat="44.32771" lon="6.30761">
        <ele>1675</ele>
        <time>2016-07-19T12:18:45.000Z</time>
      </trkpt>
      <trkpt lat="44.32778" lon="6.3074">
        <ele>1677.1999511719</ele>
        <time>2016-07-19T12:18:57.000Z</time>
      </trkpt>
      <trkpt lat="44.32787" lon="6.30725">
        <ele>1677.8000488281</ele>
        <time>2016-07-19T12:19:07.000Z</time>
      </trkpt>
      <trkpt lat="44.32792" lon="6.30717">
        <ele>1677.1999511719</ele>
        <time>2016-07-19T12:19:12.000Z</time>
      </trkpt>
      <trkpt lat="44.32799" lon="6.30705">
        <ele>1676.4000244141</ele>
        <time>2016-07-19T12:19:20.000Z</time>
      </trkpt>
      <trkpt lat="44.32811" lon="6.30694">
        <ele>1676</ele>
        <time>2016-07-19T12:19:30.000Z</time>
      </trkpt>
      <trkpt lat="44.32823" lon="6.30687">
        <ele>1676.4000244141</ele>
        <time>2016-07-19T12:19:40.000Z</time>
      </trkpt>
      <trkpt lat="44.32838" lon="6.30674">
        <ele>1680.4000244141</ele>
        <time>2016-07-19T12:19:53.000Z</time>
      </trkpt>
      <trkpt lat="44.32851" lon="6.3066">
        <ele>1684.1999511719</ele>
        <time>2016-07-19T12:20:05.000Z</time>
      </trkpt>
      <trkpt lat="44.32871" lon="6.30637">
        <ele>1685.4000244141</ele>
        <time>2016-07-19T12:20:24.000Z</time>
      </trkpt>
      <trkpt lat="44.32881" lon="6.30626">
        <ele>1682</ele>
        <time>2016-07-19T12:20:33.000Z</time>
      </trkpt>
      <trkpt lat="44.32892" lon="6.30612">
        <ele>1677.8000488281</ele>
        <time>2016-07-19T12:20:44.000Z</time>
      </trkpt>
      <trkpt lat="44.32898" lon="6.30605">
        <ele>1675.8000488281</ele>
        <time>2016-07-19T12:20:49.000Z</time>
      </trkpt>
      <trkpt lat="44.32901" lon="6.306">
        <ele>1674.8000488281</ele>
        <time>2016-07-19T12:20:53.000Z</time>
      </trkpt>
      <trkpt lat="44.32907" lon="6.30593">
        <ele>1675.4000244141</ele>
        <time>2016-07-19T12:20:58.000Z</time>
      </trkpt>
      <trkpt lat="44.3292" lon="6.30576">
        <ele>1677.1999511719</ele>
        <time>2016-07-19T12:21:11.000Z</time>
      </trkpt>
      <trkpt lat="44.32931" lon="6.30565">
        <ele>1678.1999511719</ele>
        <time>2016-07-19T12:21:21.000Z</time>
      </trkpt>
      <trkpt lat="44.32948" lon="6.30549">
        <ele>1677.8000488281</ele>
        <time>2016-07-19T12:21:37.000Z</time>
      </trkpt>
      <trkpt lat="44.32963" lon="6.30537">
        <ele>1676.8000488281</ele>
        <time>2016-07-19T12:21:50.000Z</time>
      </trkpt>
      <trkpt lat="44.32966" lon="6.30535">
        <ele>1676.5999755859</ele>
        <time>2016-07-19T12:21:52.000Z</time>
      </trkpt>
      <trkpt lat="44.32969" lon="6.30531">
        <ele>1676.1999511719</ele>
        <time>2016-07-19T12:21:56.000Z</time>
      </trkpt>
      <trkpt lat="44.3298" lon="6.30524">
        <ele>1675.5999755859</ele>
        <time>2016-07-19T12:22:05.000Z</time>
      </trkpt>
      <trkpt lat="44.32992" lon="6.30516">
        <ele>1675.8000488281</ele>
        <time>2016-07-19T12:22:18.000Z</time>
      </trkpt>
      <trkpt lat="44.32995" lon="6.30513">
        <ele>1676.1999511719</ele>
        <time>2016-07-19T12:23:09.000Z</time>
      </trkpt>
      <trkpt lat="44.32999" lon="6.3051">
        <ele>1677</ele>
        <time>2016-07-19T12:23:14.000Z</time>
      </trkpt>
      <trkpt lat="44.33009" lon="6.305">
        <ele>1678.5999755859</ele>
        <time>2016-07-19T12:23:24.000Z</time>
      </trkpt>
      <trkpt lat="44.3302" lon="6.30487">
        <ele>1680.5999755859</ele>
        <time>2016-07-19T12:23:35.000Z</time>
      </trkpt>
      <trkpt lat="44.33029" lon="6.30477">
        <ele>1681.5999755859</ele>
        <time>2016-07-19T12:23:44.000Z</time>
      </trkpt>
      <trkpt lat="44.33038" lon="6.30466">
        <ele>1681</ele>
        <time>2016-07-19T12:23:53.000Z</time>
      </trkpt>
      <trkpt lat="44.33045" lon="6.30456">
        <ele>1680.4000244141</ele>
        <time>2016-07-19T12:24:00.000Z</time>
      </trkpt>
      <trkpt lat="44.33057" lon="6.30443">
        <ele>1679.5999755859</ele>
        <time>2016-07-19T12:24:11.000Z</time>
      </trkpt>
      <trkpt lat="44.33065" lon="6.3043">
        <ele>1678.8000488281</ele>
        <time>2016-07-19T12:24:20.000Z</time>
      </trkpt>
      <trkpt lat="44.33073" lon="6.30416">
        <ele>1678.8000488281</ele>
        <time>2016-07-19T12:24:29.000Z</time>
      </trkpt>
      <trkpt lat="44.33074" lon="6.30415">
        <ele>1678.8000488281</ele>
        <time>2016-07-19T12:24:34.000Z</time>
      </trkpt>
      <trkpt lat="44.33074" lon="6.30413">
        <ele>1678.5999755859</ele>
        <time>2016-07-19T12:24:45.000Z</time>
      </trkpt>
      <trkpt lat="44.33075" lon="6.30406">
        <ele>1678.4000244141</ele>
        <time>2016-07-19T12:25:05.000Z</time>
      </trkpt>
      <trkpt lat="44.33075" lon="6.30388">
        <ele>1677.8000488281</ele>
        <time>2016-07-19T12:25:14.000Z</time>
      </trkpt>
      <trkpt lat="44.33071" lon="6.30376">
        <ele>1677</ele>
        <time>2016-07-19T12:25:21.000Z</time>
      </trkpt>
      <trkpt lat="44.33065" lon="6.30361">
        <ele>1676</ele>
        <time>2016-07-19T12:25:30.000Z</time>
      </trkpt>
      <trkpt lat="44.33055" lon="6.30345">
        <ele>1674.5999755859</ele>
        <time>2016-07-19T12:25:41.000Z</time>
      </trkpt>
      <trkpt lat="44.33044" lon="6.30331">
        <ele>1673.4000244141</ele>
        <time>2016-07-19T12:25:51.000Z</time>
      </trkpt>
      <trkpt lat="44.33037" lon="6.30316">
        <ele>1672.5999755859</ele>
        <time>2016-07-19T12:26:00.000Z</time>
      </trkpt>
      <trkpt lat="44.33033" lon="6.30303">
        <ele>1672.8000488281</ele>
        <time>2016-07-19T12:26:09.000Z</time>
      </trkpt>
      <trkpt lat="44.3303" lon="6.30298">
        <ele>1672.8000488281</ele>
        <time>2016-07-19T12:27:18.000Z</time>
      </trkpt>
      <trkpt lat="44.33021" lon="6.30291">
        <ele>1673</ele>
        <time>2016-07-19T12:27:26.000Z</time>
      </trkpt>
      <trkpt lat="44.33008" lon="6.30287">
        <ele>1673</ele>
        <time>2016-07-19T12:27:35.000Z</time>
      </trkpt>
      <trkpt lat="44.32997" lon="6.30286">
        <ele>1672.5999755859</ele>
        <time>2016-07-19T12:27:44.000Z</time>
      </trkpt>
      <trkpt lat="44.32981" lon="6.30285">
        <ele>1671.8000488281</ele>
        <time>2016-07-19T12:27:55.000Z</time>
      </trkpt>
      <trkpt lat="44.32963" lon="6.30285">
        <ele>1670.5999755859</ele>
        <time>2016-07-19T12:28:08.000Z</time>
      </trkpt>
      <trkpt lat="44.32952" lon="6.30284">
        <ele>1670</ele>
        <time>2016-07-19T12:28:16.000Z</time>
      </trkpt>
      <trkpt lat="44.32942" lon="6.30285">
        <ele>1669.5999755859</ele>
        <time>2016-07-19T12:28:23.000Z</time>
      </trkpt>
      <trkpt lat="44.32926" lon="6.30284">
        <ele>1669.4000244141</ele>
        <time>2016-07-19T12:28:34.000Z</time>
      </trkpt>
      <trkpt lat="44.32911" lon="6.30278">
        <ele>1669.5999755859</ele>
        <time>2016-07-19T12:28:45.000Z</time>
      </trkpt>
      <trkpt lat="44.32893" lon="6.30268">
        <ele>1670</ele>
        <time>2016-07-19T12:28:58.000Z</time>
      </trkpt>
      <trkpt lat="44.32883" lon="6.30257">
        <ele>1670.8000488281</ele>
        <time>2016-07-19T12:29:07.000Z</time>
      </trkpt>
      <trkpt lat="44.32878" lon="6.3025">
        <ele>1671.4000244141</ele>
        <time>2016-07-19T12:29:13.000Z</time>
      </trkpt>
      <trkpt lat="44.32868" lon="6.3024">
        <ele>1672.1999511719</ele>
        <time>2016-07-19T12:29:22.000Z</time>
      </trkpt>
      <trkpt lat="44.32863" lon="6.30236">
        <ele>1672.1999511719</ele>
        <time>2016-07-19T12:29:27.000Z</time>
      </trkpt>
      <trkpt lat="44.3285" lon="6.30224">
        <ele>1670.8000488281</ele>
        <time>2016-07-19T12:29:38.000Z</time>
      </trkpt>
      <trkpt lat="44.3284" lon="6.30211">
        <ele>1669.1999511719</ele>
        <time>2016-07-19T12:29:47.000Z</time>
      </trkpt>
      <trkpt lat="44.32829" lon="6.30193">
        <ele>1667.4000244141</ele>
        <time>2016-07-19T12:29:59.000Z</time>
      </trkpt>
      <trkpt lat="44.3282" lon="6.30177">
        <ele>1666.1999511719</ele>
        <time>2016-07-19T12:30:09.000Z</time>
      </trkpt>
      <trkpt lat="44.32814" lon="6.30166">
        <ele>1665.1999511719</ele>
        <time>2016-07-19T12:30:16.000Z</time>
      </trkpt>
      <trkpt lat="44.3281" lon="6.30149">
        <ele>1664.5999755859</ele>
        <time>2016-07-19T12:30:25.000Z</time>
      </trkpt>
      <trkpt lat="44.32811" lon="6.30132">
        <ele>1665.4000244141</ele>
        <time>2016-07-19T12:30:34.000Z</time>
      </trkpt>
      <trkpt lat="44.32812" lon="6.30114">
        <ele>1666.5999755859</ele>
        <time>2016-07-19T12:30:43.000Z</time>
      </trkpt>
      <trkpt lat="44.32811" lon="6.301">
        <ele>1667</ele>
        <time>2016-07-19T12:30:51.000Z</time>
      </trkpt>
      <trkpt lat="44.32812" lon="6.30085">
        <ele>1666.8000488281</ele>
        <time>2016-07-19T12:30:59.000Z</time>
      </trkpt>
      <trkpt lat="44.32821" lon="6.30068">
        <ele>1665.8000488281</ele>
        <time>2016-07-19T12:31:10.000Z</time>
      </trkpt>
      <trkpt lat="44.32828" lon="6.30056">
        <ele>1666.5999755859</ele>
        <time>2016-07-19T12:31:18.000Z</time>
      </trkpt>
      <trkpt lat="44.32829" lon="6.30049">
        <ele>1667.5999755859</ele>
        <time>2016-07-19T12:31:25.000Z</time>
      </trkpt>
      <trkpt lat="44.32829" lon="6.30045">
        <ele>1667.8000488281</ele>
        <time>2016-07-19T12:32:11.000Z</time>
      </trkpt>
      <trkpt lat="44.32828" lon="6.30039">
        <ele>1668.5999755859</ele>
        <time>2016-07-19T12:32:30.000Z</time>
      </trkpt>
      <trkpt lat="44.32828" lon="6.30038">
        <ele>1668.8000488281</ele>
        <time>2016-07-19T12:32:31.000Z</time>
      </trkpt>
      <trkpt lat="44.32824" lon="6.30035">
        <ele>1669</ele>
        <time>2016-07-19T12:32:36.000Z</time>
      </trkpt>
      <trkpt lat="44.32814" lon="6.30031">
        <ele>1669</ele>
        <time>2016-07-19T12:32:44.000Z</time>
      </trkpt>
      <trkpt lat="44.32806" lon="6.30019">
        <ele>1670.1999511719</ele>
        <time>2016-07-19T12:32:53.000Z</time>
      </trkpt>
      <trkpt lat="44.32789" lon="6.30023">
        <ele>1669.1999511719</ele>
        <time>2016-07-19T12:33:07.000Z</time>
      </trkpt>
      <trkpt lat="44.32775" lon="6.3003">
        <ele>1668.1999511719</ele>
        <time>2016-07-19T12:33:18.000Z</time>
      </trkpt>
      <trkpt lat="44.32768" lon="6.30041">
        <ele>1667</ele>
        <time>2016-07-19T12:33:26.000Z</time>
      </trkpt>
      <trkpt lat="44.32759" lon="6.30057">
        <ele>1665.4000244141</ele>
        <time>2016-07-19T12:33:37.000Z</time>
      </trkpt>
      <trkpt lat="44.32748" lon="6.3007">
        <ele>1664.8000488281</ele>
        <time>2016-07-19T12:33:47.000Z</time>
      </trkpt>
      <trkpt lat="44.32736" lon="6.3007">
        <ele>1665.1999511719</ele>
        <time>2016-07-19T12:33:56.000Z</time>
      </trkpt>
      <trkpt lat="44.32716" lon="6.30049">
        <ele>1668</ele>
        <time>2016-07-19T12:34:14.000Z</time>
      </trkpt>
      <trkpt lat="44.32711" lon="6.30038">
        <ele>1669.1999511719</ele>
        <time>2016-07-19T12:34:21.000Z</time>
      </trkpt>
      <trkpt lat="44.32707" lon="6.30022">
        <ele>1671.1999511719</ele>
        <time>2016-07-19T12:34:30.000Z</time>
      </trkpt>
      <trkpt lat="44.327" lon="6.30007">
        <ele>1673</ele>
        <time>2016-07-19T12:34:39.000Z</time>
      </trkpt>
      <trkpt lat="44.32691" lon="6.29992">
        <ele>1676.1999511719</ele>
        <time>2016-07-19T12:34:49.000Z</time>
      </trkpt>
      <trkpt lat="44.32687" lon="6.29977">
        <ele>1679.1999511719</ele>
        <time>2016-07-19T12:34:58.000Z</time>
      </trkpt>
      <trkpt lat="44.32687" lon="6.29965">
        <ele>1680.4000244141</ele>
        <time>2016-07-19T12:35:05.000Z</time>
      </trkpt>
      <trkpt lat="44.32693" lon="6.29949">
        <ele>1680.8000488281</ele>
        <time>2016-07-19T12:35:14.000Z</time>
      </trkpt>
      <trkpt lat="44.32696" lon="6.29938">
        <ele>1681.1999511719</ele>
        <time>2016-07-19T12:35:20.000Z</time>
      </trkpt>
      <trkpt lat="44.32696" lon="6.29935">
        <ele>1681.8000488281</ele>
        <time>2016-07-19T12:35:22.000Z</time>
      </trkpt>
      <trkpt lat="44.32689" lon="6.29926">
        <ele>1684.8000488281</ele>
        <time>2016-07-19T12:35:29.000Z</time>
      </trkpt>
      <trkpt lat="44.32677" lon="6.29927">
        <ele>1688</ele>
        <time>2016-07-19T12:35:38.000Z</time>
      </trkpt>
      <trkpt lat="44.32669" lon="6.29932">
        <ele>1689.5999755859</ele>
        <time>2016-07-19T12:35:45.000Z</time>
      </trkpt>
      <trkpt lat="44.32653" lon="6.29946">
        <ele>1692.1999511719</ele>
        <time>2016-07-19T12:35:59.000Z</time>
      </trkpt>
      <trkpt lat="44.3264" lon="6.29956">
        <ele>1694.1999511719</ele>
        <time>2016-07-19T12:36:10.000Z</time>
      </trkpt>
      <trkpt lat="44.32631" lon="6.29963">
        <ele>1695.5999755859</ele>
        <time>2016-07-19T12:36:18.000Z</time>
      </trkpt>
      <trkpt lat="44.32622" lon="6.29975">
        <ele>1696.4000244141</ele>
        <time>2016-07-19T12:36:27.000Z</time>
      </trkpt>
      <trkpt lat="44.32613" lon="6.29991">
        <ele>1697.4000244141</ele>
        <time>2016-07-19T12:36:38.000Z</time>
      </trkpt>
      <trkpt lat="44.32612" lon="6.29993">
        <ele>1697.4000244141</ele>
        <time>2016-07-19T12:36:44.000Z</time>
      </trkpt>
      <trkpt lat="44.3261" lon="6.29991">
        <ele>1697.8000488281</ele>
        <time>2016-07-19T12:36:49.000Z</time>
      </trkpt>
      <trkpt lat="44.3261" lon="6.29995">
        <ele>1697.5999755859</ele>
        <time>2016-07-19T12:36:55.000Z</time>
      </trkpt>
      <trkpt lat="44.3261" lon="6.29994">
        <ele>1697.5999755859</ele>
        <time>2016-07-19T12:37:08.000Z</time>
      </trkpt>
      <trkpt lat="44.3261" lon="6.29996">
        <ele>1697.5999755859</ele>
        <time>2016-07-19T12:37:09.000Z</time>
      </trkpt>
      <trkpt lat="44.32605" lon="6.29997">
        <ele>1698.4000244141</ele>
        <time>2016-07-19T12:37:17.000Z</time>
      </trkpt>
      <trkpt lat="44.32606" lon="6.29994">
        <ele>1698.5999755859</ele>
        <time>2016-07-19T12:37:22.000Z</time>
      </trkpt>
      <trkpt lat="44.32605" lon="6.29995">
        <ele>1698.8000488281</ele>
        <time>2016-07-19T12:37:31.000Z</time>
      </trkpt>
      <trkpt lat="44.32596" lon="6.29999">
        <ele>1700.4000244141</ele>
        <time>2016-07-19T12:37:38.000Z</time>
      </trkpt>
      <trkpt lat="44.32586" lon="6.30003">
        <ele>1702.4000244141</ele>
        <time>2016-07-19T12:37:46.000Z</time>
      </trkpt>
      <trkpt lat="44.32574" lon="6.3001">
        <ele>1704.5999755859</ele>
        <time>2016-07-19T12:37:55.000Z</time>
      </trkpt>
      <trkpt lat="44.32562" lon="6.30019">
        <ele>1706.4000244141</ele>
        <time>2016-07-19T12:38:05.000Z</time>
      </trkpt>
      <trkpt lat="44.32548" lon="6.30032">
        <ele>1707.4000244141</ele>
        <time>2016-07-19T12:38:17.000Z</time>
      </trkpt>
      <trkpt lat="44.32537" lon="6.30045">
        <ele>1707.8000488281</ele>
        <time>2016-07-19T12:38:27.000Z</time>
      </trkpt>
      <trkpt lat="44.32532" lon="6.30049">
        <ele>1708.4000244141</ele>
        <time>2016-07-19T12:38:32.000Z</time>
      </trkpt>
      <trkpt lat="44.32532" lon="6.3005">
        <ele>1708.4000244141</ele>
        <time>2016-07-19T12:38:42.000Z</time>
      </trkpt>
      <trkpt lat="44.32528" lon="6.30054">
        <ele>1708.1999511719</ele>
        <time>2016-07-19T12:38:48.000Z</time>
      </trkpt>
      <trkpt lat="44.32516" lon="6.30063">
        <ele>1709.1999511719</ele>
        <time>2016-07-19T12:38:58.000Z</time>
      </trkpt>
      <trkpt lat="44.32508" lon="6.30068">
        <ele>1709.8000488281</ele>
        <time>2016-07-19T12:39:04.000Z</time>
      </trkpt>
      <trkpt lat="44.32505" lon="6.30063">
        <ele>1711</ele>
        <time>2016-07-19T12:39:09.000Z</time>
      </trkpt>
      <trkpt lat="44.32508" lon="6.3005">
        <ele>1710.5999755859</ele>
        <time>2016-07-19T12:39:16.000Z</time>
      </trkpt>
      <trkpt lat="44.32508" lon="6.30036">
        <ele>1711</ele>
        <time>2016-07-19T12:39:23.000Z</time>
      </trkpt>
      <trkpt lat="44.32505" lon="6.30019">
        <ele>1713.1999511719</ele>
        <time>2016-07-19T12:39:32.000Z</time>
      </trkpt>
      <trkpt lat="44.32499" lon="6.30001">
        <ele>1715.5999755859</ele>
        <time>2016-07-19T12:39:42.000Z</time>
      </trkpt>
      <trkpt lat="44.32492" lon="6.29993">
        <ele>1716.8000488281</ele>
        <time>2016-07-19T12:39:49.000Z</time>
      </trkpt>
      <trkpt lat="44.32485" lon="6.29982">
        <ele>1718.4000244141</ele>
        <time>2016-07-19T12:39:57.000Z</time>
      </trkpt>
      <trkpt lat="44.32481" lon="6.29971">
        <ele>1719.1999511719</ele>
        <time>2016-07-19T12:40:04.000Z</time>
      </trkpt>
      <trkpt lat="44.32481" lon="6.29956">
        <ele>1719.5999755859</ele>
        <time>2016-07-19T12:40:12.000Z</time>
      </trkpt>
      <trkpt lat="44.3248" lon="6.29955">
        <ele>1719.5999755859</ele>
        <time>2016-07-19T12:40:19.000Z</time>
      </trkpt>
      <trkpt lat="44.32478" lon="6.29947">
        <ele>1720</ele>
        <time>2016-07-19T12:40:32.000Z</time>
      </trkpt>
      <trkpt lat="44.32479" lon="6.29933">
        <ele>1720.5999755859</ele>
        <time>2016-07-19T12:40:38.000Z</time>
      </trkpt>
      <trkpt lat="44.32489" lon="6.29914">
        <ele>1721.1999511719</ele>
        <time>2016-07-19T12:40:43.000Z</time>
      </trkpt>
      <trkpt lat="44.325" lon="6.29888">
        <ele>1722.8000488281</ele>
        <time>2016-07-19T12:40:49.000Z</time>
      </trkpt>
      <trkpt lat="44.32509" lon="6.29862">
        <ele>1725</ele>
        <time>2016-07-19T12:40:55.000Z</time>
      </trkpt>
      <trkpt lat="44.32519" lon="6.29823">
        <ele>1726.4000244141</ele>
        <time>2016-07-19T12:41:04.000Z</time>
      </trkpt>
      <trkpt lat="44.32526" lon="6.29795">
        <ele>1727.8000488281</ele>
        <time>2016-07-19T12:41:10.000Z</time>
      </trkpt>
      <trkpt lat="44.3253" lon="6.2977">
        <ele>1729.1999511719</ele>
        <time>2016-07-19T12:41:15.000Z</time>
      </trkpt>
      <trkpt lat="44.32535" lon="6.2974">
        <ele>1730.8000488281</ele>
        <time>2016-07-19T12:41:21.000Z</time>
      </trkpt>
      <trkpt lat="44.32539" lon="6.29715">
        <ele>1732.1999511719</ele>
        <time>2016-07-19T12:41:26.000Z</time>
      </trkpt>
      <trkpt lat="44.32542" lon="6.2969">
        <ele>1733.8000488281</ele>
        <time>2016-07-19T12:41:31.000Z</time>
      </trkpt>
      <trkpt lat="44.32545" lon="6.2966">
        <ele>1736</ele>
        <time>2016-07-19T12:41:37.000Z</time>
      </trkpt>
      <trkpt lat="44.32547" lon="6.29634">
        <ele>1738.5999755859</ele>
        <time>2016-07-19T12:41:43.000Z</time>
      </trkpt>
      <trkpt lat="44.32549" lon="6.29618">
        <ele>1740</ele>
        <time>2016-07-19T12:41:49.000Z</time>
      </trkpt>
      <trkpt lat="44.32552" lon="6.29597">
        <ele>1742</ele>
        <time>2016-07-19T12:42:00.000Z</time>
      </trkpt>
      <trkpt lat="44.32554" lon="6.29576">
        <ele>1744</ele>
        <time>2016-07-19T12:42:11.000Z</time>
      </trkpt>
      <trkpt lat="44.32555" lon="6.29563">
        <ele>1745.1999511719</ele>
        <time>2016-07-19T12:42:18.000Z</time>
      </trkpt>
      <trkpt lat="44.32556" lon="6.2955">
        <ele>1747.1999511719</ele>
        <time>2016-07-19T12:42:25.000Z</time>
      </trkpt>
      <trkpt lat="44.32558" lon="6.29532">
        <ele>1750</ele>
        <time>2016-07-19T12:42:32.000Z</time>
      </trkpt>
      <trkpt lat="44.32564" lon="6.29508">
        <ele>1753.1999511719</ele>
        <time>2016-07-19T12:42:40.000Z</time>
      </trkpt>
      <trkpt lat="44.32567" lon="6.29499">
        <ele>1754.5999755859</ele>
        <time>2016-07-19T12:42:45.000Z</time>
      </trkpt>
      <trkpt lat="44.32569" lon="6.29487">
        <ele>1756.4000244141</ele>
        <time>2016-07-19T12:42:52.000Z</time>
      </trkpt>
      <trkpt lat="44.32575" lon="6.29472">
        <ele>1758.4000244141</ele>
        <time>2016-07-19T12:43:00.000Z</time>
      </trkpt>
      <trkpt lat="44.32579" lon="6.29454">
        <ele>1760.5999755859</ele>
        <time>2016-07-19T12:43:10.000Z</time>
      </trkpt>
      <trkpt lat="44.32582" lon="6.29437">
        <ele>1762.8000488281</ele>
        <time>2016-07-19T12:43:18.000Z</time>
      </trkpt>
      <trkpt lat="44.32585" lon="6.29424">
        <ele>1764.5999755859</ele>
        <time>2016-07-19T12:43:25.000Z</time>
      </trkpt>
      <trkpt lat="44.32587" lon="6.29404">
        <ele>1767.4000244141</ele>
        <time>2016-07-19T12:43:36.000Z</time>
      </trkpt>
      <trkpt lat="44.32586" lon="6.29385">
        <ele>1769</ele>
        <time>2016-07-19T12:43:46.000Z</time>
      </trkpt>
      <trkpt lat="44.32583" lon="6.29367">
        <ele>1769.5999755859</ele>
        <time>2016-07-19T12:43:55.000Z</time>
      </trkpt>
      <trkpt lat="44.32582" lon="6.29354">
        <ele>1770.5999755859</ele>
        <time>2016-07-19T12:43:59.000Z</time>
      </trkpt>
      <trkpt lat="44.32583" lon="6.29334">
        <ele>1772</ele>
        <time>2016-07-19T12:44:07.000Z</time>
      </trkpt>
      <trkpt lat="44.32588" lon="6.29322">
        <ele>1772.5999755859</ele>
        <time>2016-07-19T12:44:15.000Z</time>
      </trkpt>
      <trkpt lat="44.32594" lon="6.29312">
        <ele>1772.8000488281</ele>
        <time>2016-07-19T12:44:25.000Z</time>
      </trkpt>
      <trkpt lat="44.32593" lon="6.29309">
        <ele>1772.4000244141</ele>
        <time>2016-07-19T12:44:53.000Z</time>
      </trkpt>
      <trkpt lat="44.32594" lon="6.29309">
        <ele>1772.4000244141</ele>
        <time>2016-07-19T12:45:48.000Z</time>
      </trkpt>
      <trkpt lat="44.32596" lon="6.29301">
        <ele>1771.4000244141</ele>
        <time>2016-07-19T12:46:45.000Z</time>
      </trkpt>
      <trkpt lat="44.32599" lon="6.29283">
        <ele>1770.4000244141</ele>
        <time>2016-07-19T12:46:55.000Z</time>
      </trkpt>
      <trkpt lat="44.32603" lon="6.29259">
        <ele>1769.5999755859</ele>
        <time>2016-07-19T12:47:08.000Z</time>
      </trkpt>
      <trkpt lat="44.32606" lon="6.29246">
        <ele>1769.1999511719</ele>
        <time>2016-07-19T12:47:16.000Z</time>
      </trkpt>
      <trkpt lat="44.32606" lon="6.29242">
        <ele>1769.1999511719</ele>
        <time>2016-07-19T12:47:18.000Z</time>
      </trkpt>
      <trkpt lat="44.32608" lon="6.29241">
        <ele>1769.1999511719</ele>
        <time>2016-07-19T12:47:26.000Z</time>
      </trkpt>
      <trkpt lat="44.32611" lon="6.29232">
        <ele>1769</ele>
        <time>2016-07-19T12:47:33.000Z</time>
      </trkpt>
      <trkpt lat="44.32612" lon="6.29231">
        <ele>1769</ele>
        <time>2016-07-19T12:47:34.000Z</time>
      </trkpt>
      <trkpt lat="44.32617" lon="6.29219">
        <ele>1769</ele>
        <time>2016-07-19T12:47:42.000Z</time>
      </trkpt>
      <trkpt lat="44.32621" lon="6.29213">
        <ele>1769</ele>
        <time>2016-07-19T12:47:49.000Z</time>
      </trkpt>
      <trkpt lat="44.32621" lon="6.29214">
        <ele>1769</ele>
        <time>2016-07-19T12:48:21.000Z</time>
      </trkpt>
      <trkpt lat="44.3262" lon="6.29216">
        <ele>1769</ele>
        <time>2016-07-19T12:48:34.000Z</time>
      </trkpt>
      <trkpt lat="44.32622" lon="6.29215">
        <ele>1769</ele>
        <time>2016-07-19T12:49:01.000Z</time>
      </trkpt>
      <trkpt lat="44.32625" lon="6.29207">
        <ele>1769</ele>
        <time>2016-07-19T12:49:06.000Z</time>
      </trkpt>
      <trkpt lat="44.32632" lon="6.2919">
        <ele>1769</ele>
        <time>2016-07-19T12:49:17.000Z</time>
      </trkpt>
      <trkpt lat="44.32638" lon="6.29174">
        <ele>1769</ele>
        <time>2016-07-19T12:49:27.000Z</time>
      </trkpt>
      <trkpt lat="44.32646" lon="6.29161">
        <ele>1766.4000244141</ele>
        <time>2016-07-19T12:49:36.000Z</time>
      </trkpt>
      <trkpt lat="44.32655" lon="6.29151">
        <ele>1763.8000488281</ele>
        <time>2016-07-19T12:49:45.000Z</time>
      </trkpt>
      <trkpt lat="44.32661" lon="6.2914">
        <ele>1761.8000488281</ele>
        <time>2016-07-19T12:49:53.000Z</time>
      </trkpt>
      <trkpt lat="44.32668" lon="6.29129">
        <ele>1760.1999511719</ele>
        <time>2016-07-19T12:50:01.000Z</time>
      </trkpt>
      <trkpt lat="44.32675" lon="6.29115">
        <ele>1758.5999755859</ele>
        <time>2016-07-19T12:50:10.000Z</time>
      </trkpt>
      <trkpt lat="44.3268" lon="6.29102">
        <ele>1757.4000244141</ele>
        <time>2016-07-19T12:50:19.000Z</time>
      </trkpt>
      <trkpt lat="44.32683" lon="6.2909">
        <ele>1756.5999755859</ele>
        <time>2016-07-19T12:50:26.000Z</time>
      </trkpt>
      <trkpt lat="44.32687" lon="6.2908">
        <ele>1755.8000488281</ele>
        <time>2016-07-19T12:50:32.000Z</time>
      </trkpt>
      <trkpt lat="44.32692" lon="6.29069">
        <ele>1754.8000488281</ele>
        <time>2016-07-19T12:50:39.000Z</time>
      </trkpt>
      <trkpt lat="44.32692" lon="6.29065">
        <ele>1754.5999755859</ele>
        <time>2016-07-19T12:50:43.000Z</time>
      </trkpt>
      <trkpt lat="44.32696" lon="6.29059">
        <ele>1753.8000488281</ele>
        <time>2016-07-19T12:50:49.000Z</time>
      </trkpt>
      <trkpt lat="44.32703" lon="6.29049">
        <ele>1753.4000244141</ele>
        <time>2016-07-19T12:50:56.000Z</time>
      </trkpt>
      <trkpt lat="44.32707" lon="6.29043">
        <ele>1753.1999511719</ele>
        <time>2016-07-19T12:51:00.000Z</time>
      </trkpt>
      <trkpt lat="44.32715" lon="6.29028">
        <ele>1752.5999755859</ele>
        <time>2016-07-19T12:51:09.000Z</time>
      </trkpt>
      <trkpt lat="44.32719" lon="6.29015">
        <ele>1751.8000488281</ele>
        <time>2016-07-19T12:51:17.000Z</time>
      </trkpt>
      <trkpt lat="44.32723" lon="6.29002">
        <ele>1750.8000488281</ele>
        <time>2016-07-19T12:51:24.000Z</time>
      </trkpt>
      <trkpt lat="44.32726" lon="6.28988">
        <ele>1748.5999755859</ele>
        <time>2016-07-19T12:51:32.000Z</time>
      </trkpt>
      <trkpt lat="44.32726" lon="6.28975">
        <ele>1746.5999755859</ele>
        <time>2016-07-19T12:51:39.000Z</time>
      </trkpt>
      <trkpt lat="44.32722" lon="6.2896">
        <ele>1744.5999755859</ele>
        <time>2016-07-19T12:51:48.000Z</time>
      </trkpt>
      <trkpt lat="44.32719" lon="6.28949">
        <ele>1743</ele>
        <time>2016-07-19T12:51:55.000Z</time>
      </trkpt>
      <trkpt lat="44.32707" lon="6.28924">
        <ele>1739.8000488281</ele>
        <time>2016-07-19T12:52:12.000Z</time>
      </trkpt>
      <trkpt lat="44.32709" lon="6.28913">
        <ele>1738</ele>
        <time>2016-07-19T12:52:19.000Z</time>
      </trkpt>
      <trkpt lat="44.32715" lon="6.28902">
        <ele>1736.5999755859</ele>
        <time>2016-07-19T12:52:27.000Z</time>
      </trkpt>
      <trkpt lat="44.32722" lon="6.28894">
        <ele>1735.4000244141</ele>
        <time>2016-07-19T12:52:34.000Z</time>
      </trkpt>
      <trkpt lat="44.32731" lon="6.28891">
        <ele>1734.8000488281</ele>
        <time>2016-07-19T12:52:41.000Z</time>
      </trkpt>
      <trkpt lat="44.3274" lon="6.28893">
        <ele>1735</ele>
        <time>2016-07-19T12:52:48.000Z</time>
      </trkpt>
      <trkpt lat="44.32748" lon="6.28889">
        <ele>1734.1999511719</ele>
        <time>2016-07-19T12:52:55.000Z</time>
      </trkpt>
      <trkpt lat="44.32757" lon="6.28883">
        <ele>1733.1999511719</ele>
        <time>2016-07-19T12:53:03.000Z</time>
      </trkpt>
      <trkpt lat="44.32766" lon="6.28872">
        <ele>1731</ele>
        <time>2016-07-19T12:53:13.000Z</time>
      </trkpt>
      <trkpt lat="44.32774" lon="6.28863">
        <ele>1729</ele>
        <time>2016-07-19T12:53:19.000Z</time>
      </trkpt>
      <trkpt lat="44.32783" lon="6.28852">
        <ele>1726.8000488281</ele>
        <time>2016-07-19T12:53:28.000Z</time>
      </trkpt>
      <trkpt lat="44.32794" lon="6.2884">
        <ele>1726.1999511719</ele>
        <time>2016-07-19T12:53:38.000Z</time>
      </trkpt>
      <trkpt lat="44.32803" lon="6.28823">
        <ele>1724</ele>
        <time>2016-07-19T12:53:49.000Z</time>
      </trkpt>
      <trkpt lat="44.32815" lon="6.28784">
        <ele>1720.4000244141</ele>
        <time>2016-07-19T12:54:11.000Z</time>
      </trkpt>
      <trkpt lat="44.32819" lon="6.28773">
        <ele>1719.8000488281</ele>
        <time>2016-07-19T12:54:18.000Z</time>
      </trkpt>
      <trkpt lat="44.3282" lon="6.28772">
        <ele>1719.8000488281</ele>
        <time>2016-07-19T12:54:19.000Z</time>
      </trkpt>
      <trkpt lat="44.32822" lon="6.28763">
        <ele>1719.4000244141</ele>
        <time>2016-07-19T12:54:25.000Z</time>
      </trkpt>
      <trkpt lat="44.32823" lon="6.28761">
        <ele>1719.5999755859</ele>
        <time>2016-07-19T12:54:27.000Z</time>
      </trkpt>
      <trkpt lat="44.32824" lon="6.28759">
        <ele>1719.5999755859</ele>
        <time>2016-07-19T12:54:44.000Z</time>
      </trkpt>
      <trkpt lat="44.32831" lon="6.2875">
        <ele>1720.1999511719</ele>
        <time>2016-07-19T12:54:51.000Z</time>
      </trkpt>
      <trkpt lat="44.32839" lon="6.28742">
        <ele>1720.8000488281</ele>
        <time>2016-07-19T12:54:58.000Z</time>
      </trkpt>
      <trkpt lat="44.32848" lon="6.28733">
        <ele>1721.5999755859</ele>
        <time>2016-07-19T12:55:07.000Z</time>
      </trkpt>
      <trkpt lat="44.3285" lon="6.2873">
        <ele>1721.8000488281</ele>
        <time>2016-07-19T12:55:09.000Z</time>
      </trkpt>
      <trkpt lat="44.32852" lon="6.28724">
        <ele>1721.5999755859</ele>
        <time>2016-07-19T12:55:13.000Z</time>
      </trkpt>
      <trkpt lat="44.32853" lon="6.28722">
        <ele>1721.5999755859</ele>
        <time>2016-07-19T12:55:15.000Z</time>
      </trkpt>
      <trkpt lat="44.32857" lon="6.28716">
        <ele>1721.4000244141</ele>
        <time>2016-07-19T12:55:21.000Z</time>
      </trkpt>
      <trkpt lat="44.32863" lon="6.28704">
        <ele>1720.8000488281</ele>
        <time>2016-07-19T12:55:29.000Z</time>
      </trkpt>
      <trkpt lat="44.32867" lon="6.287">
        <ele>1720.4000244141</ele>
        <time>2016-07-19T12:55:33.000Z</time>
      </trkpt>
      <trkpt lat="44.32878" lon="6.28698">
        <ele>1720.4000244141</ele>
        <time>2016-07-19T12:55:40.000Z</time>
      </trkpt>
      <trkpt lat="44.32883" lon="6.28698">
        <ele>1720.4000244141</ele>
        <time>2016-07-19T12:55:44.000Z</time>
      </trkpt>
      <trkpt lat="44.3289" lon="6.28701">
        <ele>1720.8000488281</ele>
        <time>2016-07-19T12:55:49.000Z</time>
      </trkpt>
      <trkpt lat="44.32903" lon="6.28706">
        <ele>1721.5999755859</ele>
        <time>2016-07-19T12:55:59.000Z</time>
      </trkpt>
      <trkpt lat="44.3291" lon="6.28709">
        <ele>1722</ele>
        <time>2016-07-19T12:56:06.000Z</time>
      </trkpt>
      <trkpt lat="44.32913" lon="6.28708">
        <ele>1722</ele>
        <time>2016-07-19T12:56:08.000Z</time>
      </trkpt>
      <trkpt lat="44.32916" lon="6.28711">
        <ele>1722.4000244141</ele>
        <time>2016-07-19T12:56:11.000Z</time>
      </trkpt>
      <trkpt lat="44.32916" lon="6.28713">
        <ele>1722.5999755859</ele>
        <time>2016-07-19T12:56:20.000Z</time>
      </trkpt>
      <trkpt lat="44.32917" lon="6.28706">
        <ele>1721.8000488281</ele>
        <time>2016-07-19T12:56:49.000Z</time>
      </trkpt>
      <trkpt lat="44.32917" lon="6.28693">
        <ele>1720</ele>
        <time>2016-07-19T12:56:56.000Z</time>
      </trkpt>
      <trkpt lat="44.32916" lon="6.2868">
        <ele>1717.5999755859</ele>
        <time>2016-07-19T12:57:03.000Z</time>
      </trkpt>
      <trkpt lat="44.32914" lon="6.28661">
        <ele>1714.5999755859</ele>
        <time>2016-07-19T12:57:13.000Z</time>
      </trkpt>
      <trkpt lat="44.32917" lon="6.28646">
        <ele>1712</ele>
        <time>2016-07-19T12:57:21.000Z</time>
      </trkpt>
      <trkpt lat="44.32924" lon="6.28628">
        <ele>1707.4000244141</ele>
        <time>2016-07-19T12:57:31.000Z</time>
      </trkpt>
      <trkpt lat="44.32927" lon="6.28615">
        <ele>1705.1999511719</ele>
        <time>2016-07-19T12:57:38.000Z</time>
      </trkpt>
      <trkpt lat="44.32926" lon="6.28597">
        <ele>1702.5999755859</ele>
        <time>2016-07-19T12:57:47.000Z</time>
      </trkpt>
      <trkpt lat="44.32927" lon="6.28578">
        <ele>1699.8000488281</ele>
        <time>2016-07-19T12:57:58.000Z</time>
      </trkpt>
      <trkpt lat="44.32926" lon="6.28569">
        <ele>1698.5999755859</ele>
        <time>2016-07-19T12:58:02.000Z</time>
      </trkpt>
      <trkpt lat="44.32922" lon="6.28552">
        <ele>1695.8000488281</ele>
        <time>2016-07-19T12:58:11.000Z</time>
      </trkpt>
      <trkpt lat="44.32919" lon="6.2853">
        <ele>1692.8000488281</ele>
        <time>2016-07-19T12:58:22.000Z</time>
      </trkpt>
      <trkpt lat="44.32915" lon="6.28508">
        <ele>1691</ele>
        <time>2016-07-19T12:58:34.000Z</time>
      </trkpt>
      <trkpt lat="44.32915" lon="6.28491">
        <ele>1690.1999511719</ele>
        <time>2016-07-19T12:58:43.000Z</time>
      </trkpt>
      <trkpt lat="44.32916" lon="6.28474">
        <ele>1689.4000244141</ele>
        <time>2016-07-19T12:58:52.000Z</time>
      </trkpt>
      <trkpt lat="44.32916" lon="6.2847">
        <ele>1689.4000244141</ele>
        <time>2016-07-19T12:58:54.000Z</time>
      </trkpt>
      <trkpt lat="44.32921" lon="6.28462">
        <ele>1690</ele>
        <time>2016-07-19T12:59:00.000Z</time>
      </trkpt>
      <trkpt lat="44.3293" lon="6.2845">
        <ele>1690</ele>
        <time>2016-07-19T12:59:09.000Z</time>
      </trkpt>
      <trkpt lat="44.32939" lon="6.28434">
        <ele>1688.8000488281</ele>
        <time>2016-07-19T12:59:19.000Z</time>
      </trkpt>
      <trkpt lat="44.32947" lon="6.28419">
        <ele>1687.8000488281</ele>
        <time>2016-07-19T12:59:28.000Z</time>
      </trkpt>
      <trkpt lat="44.32955" lon="6.28409">
        <ele>1687.4000244141</ele>
        <time>2016-07-19T12:59:35.000Z</time>
      </trkpt>
      <trkpt lat="44.32965" lon="6.28393">
        <ele>1687</ele>
        <time>2016-07-19T12:59:45.000Z</time>
      </trkpt>
      <trkpt lat="44.32976" lon="6.2838">
        <ele>1689</ele>
        <time>2016-07-19T12:59:55.000Z</time>
      </trkpt>
      <trkpt lat="44.32985" lon="6.28376">
        <ele>1690.4000244141</ele>
        <time>2016-07-19T13:00:03.000Z</time>
      </trkpt>
      <trkpt lat="44.32997" lon="6.28376">
        <ele>1691.5999755859</ele>
        <time>2016-07-19T13:00:11.000Z</time>
      </trkpt>
      <trkpt lat="44.33005" lon="6.28379">
        <ele>1692.1999511719</ele>
        <time>2016-07-19T13:00:17.000Z</time>
      </trkpt>
      <trkpt lat="44.33008" lon="6.28375">
        <ele>1692.8000488281</ele>
        <time>2016-07-19T13:00:22.000Z</time>
      </trkpt>
      <trkpt lat="44.33008" lon="6.28366">
        <ele>1692.5999755859</ele>
        <time>2016-07-19T13:00:29.000Z</time>
      </trkpt>
      <trkpt lat="44.33004" lon="6.28354">
        <ele>1692.1999511719</ele>
        <time>2016-07-19T13:00:35.000Z</time>
      </trkpt>
      <trkpt lat="44.33005" lon="6.28347">
        <ele>1691.8000488281</ele>
        <time>2016-07-19T13:00:39.000Z</time>
      </trkpt>
      <trkpt lat="44.33007" lon="6.28336">
        <ele>1691.5999755859</ele>
        <time>2016-07-19T13:00:45.000Z</time>
      </trkpt>
      <trkpt lat="44.33012" lon="6.28322">
        <ele>1691.1999511719</ele>
        <time>2016-07-19T13:00:54.000Z</time>
      </trkpt>
      <trkpt lat="44.33008" lon="6.28312">
        <ele>1690.8000488281</ele>
        <time>2016-07-19T13:01:00.000Z</time>
      </trkpt>
      <trkpt lat="44.33007" lon="6.28311">
        <ele>1691</ele>
        <time>2016-07-19T13:01:01.000Z</time>
      </trkpt>
      <trkpt lat="44.33001" lon="6.28301">
        <ele>1693</ele>
        <time>2016-07-19T13:01:08.000Z</time>
      </trkpt>
      <trkpt lat="44.32996" lon="6.28293">
        <ele>1694.4000244141</ele>
        <time>2016-07-19T13:01:15.000Z</time>
      </trkpt>
      <trkpt lat="44.32995" lon="6.2829">
        <ele>1695</ele>
        <time>2016-07-19T13:01:17.000Z</time>
      </trkpt>
      <trkpt lat="44.32996" lon="6.28273">
        <ele>1698</ele>
        <time>2016-07-19T13:01:26.000Z</time>
      </trkpt>
      <trkpt lat="44.32991" lon="6.28264">
        <ele>1699.5999755859</ele>
        <time>2016-07-19T13:01:32.000Z</time>
      </trkpt>
      <trkpt lat="44.32985" lon="6.28252">
        <ele>1701.4000244141</ele>
        <time>2016-07-19T13:01:38.000Z</time>
      </trkpt>
      <trkpt lat="44.32985" lon="6.28237">
        <ele>1703.5999755859</ele>
        <time>2016-07-19T13:01:46.000Z</time>
      </trkpt>
      <trkpt lat="44.32985" lon="6.28232">
        <ele>1704.1999511719</ele>
        <time>2016-07-19T13:01:49.000Z</time>
      </trkpt>
      <trkpt lat="44.32979" lon="6.28233">
        <ele>1704.4000244141</ele>
        <time>2016-07-19T13:01:55.000Z</time>
      </trkpt>
      <trkpt lat="44.32972" lon="6.28234">
        <ele>1704.5999755859</ele>
        <time>2016-07-19T13:02:01.000Z</time>
      </trkpt>
      <trkpt lat="44.32971" lon="6.28234">
        <ele>1704.5999755859</ele>
        <time>2016-07-19T13:02:02.000Z</time>
      </trkpt>
      <trkpt lat="44.32957" lon="6.28228">
        <ele>1706</ele>
        <time>2016-07-19T13:02:12.000Z</time>
      </trkpt>
      <trkpt lat="44.32947" lon="6.28228">
        <ele>1706.4000244141</ele>
        <time>2016-07-19T13:02:19.000Z</time>
      </trkpt>
      <trkpt lat="44.32938" lon="6.28228">
        <ele>1705.1999511719</ele>
        <time>2016-07-19T13:02:26.000Z</time>
      </trkpt>
      <trkpt lat="44.32925" lon="6.28228">
        <ele>1703.8000488281</ele>
        <time>2016-07-19T13:02:35.000Z</time>
      </trkpt>
      <trkpt lat="44.32915" lon="6.28227">
        <ele>1703</ele>
        <time>2016-07-19T13:02:42.000Z</time>
      </trkpt>
      <trkpt lat="44.32902" lon="6.28225">
        <ele>1701.8000488281</ele>
        <time>2016-07-19T13:02:52.000Z</time>
      </trkpt>
      <trkpt lat="44.32888" lon="6.28219">
        <ele>1701</ele>
        <time>2016-07-19T13:03:02.000Z</time>
      </trkpt>
      <trkpt lat="44.32878" lon="6.28216">
        <ele>1700.1999511719</ele>
        <time>2016-07-19T13:03:10.000Z</time>
      </trkpt>
      <trkpt lat="44.32871" lon="6.28213">
        <ele>1699.8000488281</ele>
        <time>2016-07-19T13:03:16.000Z</time>
      </trkpt>
      <trkpt lat="44.32869" lon="6.28221">
        <ele>1698.5999755859</ele>
        <time>2016-07-19T13:03:21.000Z</time>
      </trkpt>
      <trkpt lat="44.32865" lon="6.28244">
        <ele>1695</ele>
        <time>2016-07-19T13:03:32.000Z</time>
      </trkpt>
      <trkpt lat="44.32858" lon="6.28265">
        <ele>1692.5999755859</ele>
        <time>2016-07-19T13:03:43.000Z</time>
      </trkpt>
      <trkpt lat="44.32857" lon="6.28267">
        <ele>1692.4000244141</ele>
        <time>2016-07-19T13:03:44.000Z</time>
      </trkpt>
      <trkpt lat="44.32853" lon="6.28264">
        <ele>1693.4000244141</ele>
        <time>2016-07-19T13:03:48.000Z</time>
      </trkpt>
      <trkpt lat="44.32852" lon="6.28259">
        <ele>1694.1999511719</ele>
        <time>2016-07-19T13:03:51.000Z</time>
      </trkpt>
      <trkpt lat="44.32851" lon="6.28239">
        <ele>1697.1999511719</ele>
        <time>2016-07-19T13:04:01.000Z</time>
      </trkpt>
      <trkpt lat="44.3285" lon="6.28214">
        <ele>1701.5999755859</ele>
        <time>2016-07-19T13:04:13.000Z</time>
      </trkpt>
      <trkpt lat="44.3285" lon="6.2821">
        <ele>1702.1999511719</ele>
        <time>2016-07-19T13:04:15.000Z</time>
      </trkpt>
      <trkpt lat="44.32851" lon="6.28204">
        <ele>1702.8000488281</ele>
        <time>2016-07-19T13:04:19.000Z</time>
      </trkpt>
      <trkpt lat="44.32848" lon="6.28189">
        <ele>1705</ele>
        <time>2016-07-19T13:04:28.000Z</time>
      </trkpt>
      <trkpt lat="44.32847" lon="6.2818">
        <ele>1706.4000244141</ele>
        <time>2016-07-19T13:04:33.000Z</time>
      </trkpt>
      <trkpt lat="44.32848" lon="6.28165">
        <ele>1707.8000488281</ele>
        <time>2016-07-19T13:04:41.000Z</time>
      </trkpt>
      <trkpt lat="44.32846" lon="6.28152">
        <ele>1710</ele>
        <time>2016-07-19T13:04:47.000Z</time>
      </trkpt>
      <trkpt lat="44.32842" lon="6.28142">
        <ele>1712</ele>
        <time>2016-07-19T13:04:53.000Z</time>
      </trkpt>
      <trkpt lat="44.32837" lon="6.28138">
        <ele>1713.5999755859</ele>
        <time>2016-07-19T13:04:58.000Z</time>
      </trkpt>
      <trkpt lat="44.32835" lon="6.28137">
        <ele>1714</ele>
        <time>2016-07-19T13:05:00.000Z</time>
      </trkpt>
      <trkpt lat="44.32829" lon="6.28128">
        <ele>1716.4000244141</ele>
        <time>2016-07-19T13:05:08.000Z</time>
      </trkpt>
      <trkpt lat="44.32825" lon="6.28123">
        <ele>1717.8000488281</ele>
        <time>2016-07-19T13:05:13.000Z</time>
      </trkpt>
      <trkpt lat="44.32826" lon="6.28121">
        <ele>1717.8000488281</ele>
        <time>2016-07-19T13:05:44.000Z</time>
      </trkpt>
      <trkpt lat="44.32826" lon="6.28122">
        <ele>1717.5999755859</ele>
        <time>2016-07-19T13:05:54.000Z</time>
      </trkpt>
      <trkpt lat="44.32825" lon="6.28123">
        <ele>1717.5999755859</ele>
        <time>2016-07-19T13:06:01.000Z</time>
      </trkpt>
      <trkpt lat="44.32821" lon="6.28122">
        <ele>1718.5999755859</ele>
        <time>2016-07-19T13:06:46.000Z</time>
      </trkpt>
      <trkpt lat="44.32822" lon="6.28122">
        <ele>1718.4000244141</ele>
        <time>2016-07-19T13:06:53.000Z</time>
      </trkpt>
      <trkpt lat="44.32823" lon="6.28123">
        <ele>1718.1999511719</ele>
        <time>2016-07-19T13:07:57.000Z</time>
      </trkpt>
      <trkpt lat="44.32822" lon="6.28124">
        <ele>1718.1999511719</ele>
        <time>2016-07-19T13:08:04.000Z</time>
      </trkpt>
      <trkpt lat="44.32822" lon="6.28122">
        <ele>1718.4000244141</ele>
        <time>2016-07-19T13:12:31.000Z</time>
      </trkpt>
      <trkpt lat="44.32822" lon="6.28123">
        <ele>1718.4000244141</ele>
        <time>2016-07-19T13:12:38.000Z</time>
      </trkpt>
      <trkpt lat="44.32824" lon="6.28123">
        <ele>1718</ele>
        <time>2016-07-19T13:14:45.000Z</time>
      </trkpt>
      <trkpt lat="44.32822" lon="6.28124">
        <ele>1718.1999511719</ele>
        <time>2016-07-19T13:15:13.000Z</time>
      </trkpt>
      <trkpt lat="44.32823" lon="6.28123">
        <ele>1718.1999511719</ele>
        <time>2016-07-19T13:15:16.000Z</time>
      </trkpt>
      <trkpt lat="44.32823" lon="6.28124">
        <ele>1718</ele>
        <time>2016-07-19T13:15:33.000Z</time>
      </trkpt>
      <trkpt lat="44.32822" lon="6.28121">
        <ele>1718.5999755859</ele>
        <time>2016-07-19T13:15:59.000Z</time>
      </trkpt>
      <trkpt lat="44.32821" lon="6.28118">
        <ele>1719.1999511719</ele>
        <time>2016-07-19T13:16:10.000Z</time>
      </trkpt>
      <trkpt lat="44.32819" lon="6.28117">
        <ele>1719.5999755859</ele>
        <time>2016-07-19T13:16:11.000Z</time>
      </trkpt>
      <trkpt lat="44.32813" lon="6.28111">
        <ele>1721.5999755859</ele>
        <time>2016-07-19T13:16:18.000Z</time>
      </trkpt>
      <trkpt lat="44.32813" lon="6.28109">
        <ele>1721.8000488281</ele>
        <time>2016-07-19T13:16:19.000Z</time>
      </trkpt>
      <trkpt lat="44.32812" lon="6.28103">
        <ele>1722.8000488281</ele>
        <time>2016-07-19T13:16:23.000Z</time>
      </trkpt>
      <trkpt lat="44.32805" lon="6.28106">
        <ele>1723.8000488281</ele>
        <time>2016-07-19T13:16:29.000Z</time>
      </trkpt>
      <trkpt lat="44.32804" lon="6.28108">
        <ele>1723.8000488281</ele>
        <time>2016-07-19T13:16:30.000Z</time>
      </trkpt>
      <trkpt lat="44.32803" lon="6.28109">
        <ele>1724</ele>
        <time>2016-07-19T13:16:31.000Z</time>
      </trkpt>
      <trkpt lat="44.32798" lon="6.28128">
        <ele>1722.5999755859</ele>
        <time>2016-07-19T13:16:37.000Z</time>
      </trkpt>
      <trkpt lat="44.32793" lon="6.28144">
        <ele>1721.8000488281</ele>
        <time>2016-07-19T13:16:46.000Z</time>
      </trkpt>
      <trkpt lat="44.32788" lon="6.28159">
        <ele>1720.5999755859</ele>
        <time>2016-07-19T13:16:53.000Z</time>
      </trkpt>
      <trkpt lat="44.32783" lon="6.28168">
        <ele>1719.1999511719</ele>
        <time>2016-07-19T13:17:01.000Z</time>
      </trkpt>
      <trkpt lat="44.32782" lon="6.2817">
        <ele>1719</ele>
        <time>2016-07-19T13:17:02.000Z</time>
      </trkpt>
      <trkpt lat="44.32776" lon="6.2818">
        <ele>1718.8000488281</ele>
        <time>2016-07-19T13:17:10.000Z</time>
      </trkpt>
      <trkpt lat="44.32767" lon="6.28188">
        <ele>1719.4000244141</ele>
        <time>2016-07-19T13:17:18.000Z</time>
      </trkpt>
      <trkpt lat="44.32761" lon="6.28194">
        <ele>1720.1999511719</ele>
        <time>2016-07-19T13:17:25.000Z</time>
      </trkpt>
      <trkpt lat="44.32752" lon="6.28201">
        <ele>1721.4000244141</ele>
        <time>2016-07-19T13:17:34.000Z</time>
      </trkpt>
      <trkpt lat="44.32745" lon="6.28206">
        <ele>1720.5999755859</ele>
        <time>2016-07-19T13:17:40.000Z</time>
      </trkpt>
      <trkpt lat="44.32738" lon="6.28214">
        <ele>1718.8000488281</ele>
        <time>2016-07-19T13:17:48.000Z</time>
      </trkpt>
      <trkpt lat="44.32725" lon="6.28216">
        <ele>1720</ele>
        <time>2016-07-19T13:17:59.000Z</time>
      </trkpt>
      <trkpt lat="44.32717" lon="6.28212">
        <ele>1722.4000244141</ele>
        <time>2016-07-19T13:18:06.000Z</time>
      </trkpt>
      <trkpt lat="44.32717" lon="6.28204">
        <ele>1725.5999755859</ele>
        <time>2016-07-19T13:18:13.000Z</time>
      </trkpt>
      <trkpt lat="44.32716" lon="6.28196">
        <ele>1728.1999511719</ele>
        <time>2016-07-19T13:18:17.000Z</time>
      </trkpt>
      <trkpt lat="44.32707" lon="6.28193">
        <ele>1730.5999755859</ele>
        <time>2016-07-19T13:18:23.000Z</time>
      </trkpt>
      <trkpt lat="44.32699" lon="6.28192">
        <ele>1732.4000244141</ele>
        <time>2016-07-19T13:18:29.000Z</time>
      </trkpt>
      <trkpt lat="44.32698" lon="6.28191">
        <ele>1732.5999755859</ele>
        <time>2016-07-19T13:18:30.000Z</time>
      </trkpt>
      <trkpt lat="44.32691" lon="6.28189">
        <ele>1733.1999511719</ele>
        <time>2016-07-19T13:18:35.000Z</time>
      </trkpt>
      <trkpt lat="44.32688" lon="6.28183">
        <ele>1735.5999755859</ele>
        <time>2016-07-19T13:18:40.000Z</time>
      </trkpt>
      <trkpt lat="44.32674" lon="6.28161">
        <ele>1743</ele>
        <time>2016-07-19T13:19:04.000Z</time>
      </trkpt>
      <trkpt lat="44.32665" lon="6.28159">
        <ele>1743.1999511719</ele>
        <time>2016-07-19T13:19:11.000Z</time>
      </trkpt>
      <trkpt lat="44.32656" lon="6.28157">
        <ele>1743.8000488281</ele>
        <time>2016-07-19T13:19:17.000Z</time>
      </trkpt>
      <trkpt lat="44.32647" lon="6.28152">
        <ele>1745</ele>
        <time>2016-07-19T13:19:25.000Z</time>
      </trkpt>
      <trkpt lat="44.3264" lon="6.28147">
        <ele>1746.5999755859</ele>
        <time>2016-07-19T13:19:31.000Z</time>
      </trkpt>
      <trkpt lat="44.32641" lon="6.28143">
        <ele>1747.8000488281</ele>
        <time>2016-07-19T13:19:36.000Z</time>
      </trkpt>
      <trkpt lat="44.32644" lon="6.28138">
        <ele>1749.4000244141</ele>
        <time>2016-07-19T13:19:40.000Z</time>
      </trkpt>
      <trkpt lat="44.3265" lon="6.28122">
        <ele>1754</ele>
        <time>2016-07-19T13:19:50.000Z</time>
      </trkpt>
      <trkpt lat="44.3265" lon="6.28118">
        <ele>1755</ele>
        <time>2016-07-19T13:19:53.000Z</time>
      </trkpt>
      <trkpt lat="44.32645" lon="6.28114">
        <ele>1756</ele>
        <time>2016-07-19T13:19:57.000Z</time>
      </trkpt>
      <trkpt lat="44.32638" lon="6.28107">
        <ele>1757.5999755859</ele>
        <time>2016-07-19T13:20:03.000Z</time>
      </trkpt>
      <trkpt lat="44.32628" lon="6.28096">
        <ele>1760.4000244141</ele>
        <time>2016-07-19T13:20:08.000Z</time>
      </trkpt>
      <trkpt lat="44.32622" lon="6.28088">
        <ele>1762.4000244141</ele>
        <time>2016-07-19T13:20:13.000Z</time>
      </trkpt>
      <trkpt lat="44.32621" lon="6.28087">
        <ele>1762.5999755859</ele>
        <time>2016-07-19T13:20:14.000Z</time>
      </trkpt>
      <trkpt lat="44.32616" lon="6.28085">
        <ele>1763.1999511719</ele>
        <time>2016-07-19T13:20:19.000Z</time>
      </trkpt>
      <trkpt lat="44.32615" lon="6.2808">
        <ele>1764.4000244141</ele>
        <time>2016-07-19T13:20:23.000Z</time>
      </trkpt>
      <trkpt lat="44.32614" lon="6.28073">
        <ele>1766.1999511719</ele>
        <time>2016-07-19T13:20:26.000Z</time>
      </trkpt>
      <trkpt lat="44.32613" lon="6.28072">
        <ele>1766.5999755859</ele>
        <time>2016-07-19T13:20:29.000Z</time>
      </trkpt>
      <trkpt lat="44.32613" lon="6.2806">
        <ele>1769.5999755859</ele>
        <time>2016-07-19T13:20:35.000Z</time>
      </trkpt>
      <trkpt lat="44.32613" lon="6.28058">
        <ele>1770</ele>
        <time>2016-07-19T13:20:36.000Z</time>
      </trkpt>
      <trkpt lat="44.32613" lon="6.28043">
        <ele>1773.5999755859</ele>
        <time>2016-07-19T13:20:44.000Z</time>
      </trkpt>
      <trkpt lat="44.32606" lon="6.28038">
        <ele>1775.1999511719</ele>
        <time>2016-07-19T13:20:50.000Z</time>
      </trkpt>
      <trkpt lat="44.32596" lon="6.28032">
        <ele>1777</ele>
        <time>2016-07-19T13:20:55.000Z</time>
      </trkpt>
      <trkpt lat="44.32588" lon="6.28016">
        <ele>1781</ele>
        <time>2016-07-19T13:21:00.000Z</time>
      </trkpt>
      <trkpt lat="44.32582" lon="6.27996">
        <ele>1785.8000488281</ele>
        <time>2016-07-19T13:21:06.000Z</time>
      </trkpt>
      <trkpt lat="44.32581" lon="6.27985">
        <ele>1788.1999511719</ele>
        <time>2016-07-19T13:21:11.000Z</time>
      </trkpt>
      <trkpt lat="44.32579" lon="6.27972">
        <ele>1791.1999511719</ele>
        <time>2016-07-19T13:21:19.000Z</time>
      </trkpt>
      <trkpt lat="44.3258" lon="6.27961">
        <ele>1793.5999755859</ele>
        <time>2016-07-19T13:21:26.000Z</time>
      </trkpt>
      <trkpt lat="44.3258" lon="6.27952">
        <ele>1795.5999755859</ele>
        <time>2016-07-19T13:21:33.000Z</time>
      </trkpt>
      <trkpt lat="44.3258" lon="6.27951">
        <ele>1795.8000488281</ele>
        <time>2016-07-19T13:21:49.000Z</time>
      </trkpt>
      <trkpt lat="44.32582" lon="6.27933">
        <ele>1798.8000488281</ele>
        <time>2016-07-19T13:21:59.000Z</time>
      </trkpt>
      <trkpt lat="44.32585" lon="6.2791">
        <ele>1802.5999755859</ele>
        <time>2016-07-19T13:22:10.000Z</time>
      </trkpt>
      <trkpt lat="44.32588" lon="6.27892">
        <ele>1804.4000244141</ele>
        <time>2016-07-19T13:22:14.000Z</time>
      </trkpt>
      <trkpt lat="44.32591" lon="6.27869">
        <ele>1804.1999511719</ele>
        <time>2016-07-19T13:22:21.000Z</time>
      </trkpt>
      <trkpt lat="44.32593" lon="6.27856">
        <ele>1805.5999755859</ele>
        <time>2016-07-19T13:22:25.000Z</time>
      </trkpt>
      <trkpt lat="44.32593" lon="6.27848">
        <ele>1806.4000244141</ele>
        <time>2016-07-19T13:22:28.000Z</time>
      </trkpt>
      <trkpt lat="44.32592" lon="6.2783">
        <ele>1808.4000244141</ele>
        <time>2016-07-19T13:22:33.000Z</time>
      </trkpt>
      <trkpt lat="44.32594" lon="6.27815">
        <ele>1810</ele>
        <time>2016-07-19T13:22:40.000Z</time>
      </trkpt>
      <trkpt lat="44.32593" lon="6.27801">
        <ele>1807.5999755859</ele>
        <time>2016-07-19T13:22:48.000Z</time>
      </trkpt>
      <trkpt lat="44.32591" lon="6.27789">
        <ele>1805.4000244141</ele>
        <time>2016-07-19T13:22:55.000Z</time>
      </trkpt>
      <trkpt lat="44.32594" lon="6.27778">
        <ele>1806.8000488281</ele>
        <time>2016-07-19T13:23:01.000Z</time>
      </trkpt>
      <trkpt lat="44.32598" lon="6.27767">
        <ele>1808.8000488281</ele>
        <time>2016-07-19T13:23:08.000Z</time>
      </trkpt>
      <trkpt lat="44.32602" lon="6.27752">
        <ele>1811</ele>
        <time>2016-07-19T13:23:18.000Z</time>
      </trkpt>
      <trkpt lat="44.32605" lon="6.27735">
        <ele>1812.8000488281</ele>
        <time>2016-07-19T13:23:28.000Z</time>
      </trkpt>
      <trkpt lat="44.3261" lon="6.27721">
        <ele>1814</ele>
        <time>2016-07-19T13:23:36.000Z</time>
      </trkpt>
      <trkpt lat="44.32614" lon="6.2771">
        <ele>1815</ele>
        <time>2016-07-19T13:23:43.000Z</time>
      </trkpt>
      <trkpt lat="44.32619" lon="6.27694">
        <ele>1814.1999511719</ele>
        <time>2016-07-19T13:23:53.000Z</time>
      </trkpt>
      <trkpt lat="44.32622" lon="6.2768">
        <ele>1813.4000244141</ele>
        <time>2016-07-19T13:24:02.000Z</time>
      </trkpt>
      <trkpt lat="44.32627" lon="6.27665">
        <ele>1812.4000244141</ele>
        <time>2016-07-19T13:24:11.000Z</time>
      </trkpt>
      <trkpt lat="44.32632" lon="6.2765">
        <ele>1814</ele>
        <time>2016-07-19T13:24:20.000Z</time>
      </trkpt>
      <trkpt lat="44.32639" lon="6.27629">
        <ele>1815.1999511719</ele>
        <time>2016-07-19T13:24:33.000Z</time>
      </trkpt>
      <trkpt lat="44.32646" lon="6.27613">
        <ele>1815.8000488281</ele>
        <time>2016-07-19T13:24:43.000Z</time>
      </trkpt>
      <trkpt lat="44.3265" lon="6.27601">
        <ele>1816.1999511719</ele>
        <time>2016-07-19T13:24:49.000Z</time>
      </trkpt>
      <trkpt lat="44.32658" lon="6.27583">
        <ele>1819</ele>
        <time>2016-07-19T13:25:01.000Z</time>
      </trkpt>
      <trkpt lat="44.32664" lon="6.27563">
        <ele>1822</ele>
        <time>2016-07-19T13:25:11.000Z</time>
      </trkpt>
      <trkpt lat="44.32672" lon="6.27544">
        <ele>1825.5999755859</ele>
        <time>2016-07-19T13:25:23.000Z</time>
      </trkpt>
      <trkpt lat="44.32678" lon="6.27528">
        <ele>1828.5999755859</ele>
        <time>2016-07-19T13:25:33.000Z</time>
      </trkpt>
      <trkpt lat="44.32684" lon="6.27512">
        <ele>1831.1999511719</ele>
        <time>2016-07-19T13:25:41.000Z</time>
      </trkpt>
      <trkpt lat="44.32689" lon="6.27497">
        <ele>1833.8000488281</ele>
        <time>2016-07-19T13:25:50.000Z</time>
      </trkpt>
      <trkpt lat="44.32696" lon="6.27481">
        <ele>1836.5999755859</ele>
        <time>2016-07-19T13:26:00.000Z</time>
      </trkpt>
      <trkpt lat="44.32704" lon="6.27465">
        <ele>1836.4000244141</ele>
        <time>2016-07-19T13:26:10.000Z</time>
      </trkpt>
      <trkpt lat="44.3271" lon="6.27448">
        <ele>1835.5999755859</ele>
        <time>2016-07-19T13:26:20.000Z</time>
      </trkpt>
      <trkpt lat="44.32715" lon="6.27434">
        <ele>1835.1999511719</ele>
        <time>2016-07-19T13:26:30.000Z</time>
      </trkpt>
      <trkpt lat="44.32723" lon="6.27417">
        <ele>1835.1999511719</ele>
        <time>2016-07-19T13:26:40.000Z</time>
      </trkpt>
      <trkpt lat="44.32725" lon="6.2741">
        <ele>1836.4000244141</ele>
        <time>2016-07-19T13:26:43.000Z</time>
      </trkpt>
      <trkpt lat="44.32731" lon="6.27398">
        <ele>1838.8000488281</ele>
        <time>2016-07-19T13:26:50.000Z</time>
      </trkpt>
      <trkpt lat="44.32739" lon="6.27383">
        <ele>1841.4000244141</ele>
        <time>2016-07-19T13:27:01.000Z</time>
      </trkpt>
      <trkpt lat="44.32747" lon="6.27369">
        <ele>1843.8000488281</ele>
        <time>2016-07-19T13:27:11.000Z</time>
      </trkpt>
      <trkpt lat="44.32755" lon="6.27358">
        <ele>1846.1999511719</ele>
        <time>2016-07-19T13:27:19.000Z</time>
      </trkpt>
      <trkpt lat="44.3276" lon="6.27348">
        <ele>1849</ele>
        <time>2016-07-19T13:27:28.000Z</time>
      </trkpt>
      <trkpt lat="44.32763" lon="6.27343">
        <ele>1850.1999511719</ele>
        <time>2016-07-19T13:27:35.000Z</time>
      </trkpt>
      <trkpt lat="44.32762" lon="6.27344">
        <ele>1850</ele>
        <time>2016-07-19T13:27:41.000Z</time>
      </trkpt>
      <trkpt lat="44.32763" lon="6.27341">
        <ele>1850.5999755859</ele>
        <time>2016-07-19T13:27:46.000Z</time>
      </trkpt>
      <trkpt lat="44.32763" lon="6.27344">
        <ele>1850</ele>
        <time>2016-07-19T13:27:54.000Z</time>
      </trkpt>
      <trkpt lat="44.32762" lon="6.27345">
        <ele>1849.8000488281</ele>
        <time>2016-07-19T13:27:58.000Z</time>
      </trkpt>
      <trkpt lat="44.32764" lon="6.27344">
        <ele>1850.1999511719</ele>
        <time>2016-07-19T13:28:02.000Z</time>
      </trkpt>
      <trkpt lat="44.32763" lon="6.27343">
        <ele>1850.1999511719</ele>
        <time>2016-07-19T13:28:18.000Z</time>
      </trkpt>
      <trkpt lat="44.32764" lon="6.27339">
        <ele>1851</ele>
        <time>2016-07-19T13:28:23.000Z</time>
      </trkpt>
      <trkpt lat="44.32764" lon="6.2734">
        <ele>1851</ele>
        <time>2016-07-19T13:28:31.000Z</time>
      </trkpt>
      <trkpt lat="44.32765" lon="6.2734">
        <ele>1851</ele>
        <time>2016-07-19T13:28:37.000Z</time>
      </trkpt>
      <trkpt lat="44.32769" lon="6.27337">
        <ele>1852</ele>
        <time>2016-07-19T13:28:46.000Z</time>
      </trkpt>
      <trkpt lat="44.32771" lon="6.27332">
        <ele>1853.1999511719</ele>
        <time>2016-07-19T13:28:50.000Z</time>
      </trkpt>
      <trkpt lat="44.3277" lon="6.27327">
        <ele>1854.1999511719</ele>
        <time>2016-07-19T13:28:55.000Z</time>
      </trkpt>
      <trkpt lat="44.32776" lon="6.27318">
        <ele>1856.5999755859</ele>
        <time>2016-07-19T13:29:02.000Z</time>
      </trkpt>
      <trkpt lat="44.32783" lon="6.27314">
        <ele>1857.5999755859</ele>
        <time>2016-07-19T13:29:10.000Z</time>
      </trkpt>
      <trkpt lat="44.32785" lon="6.27314">
        <ele>1857.8000488281</ele>
        <time>2016-07-19T13:29:11.000Z</time>
      </trkpt>
      <trkpt lat="44.32786" lon="6.27311">
        <ele>1858.8000488281</ele>
        <time>2016-07-19T13:29:14.000Z</time>
      </trkpt>
      <trkpt lat="44.32784" lon="6.27305">
        <ele>1860.5999755859</ele>
        <time>2016-07-19T13:29:18.000Z</time>
      </trkpt>
      <trkpt lat="44.32789" lon="6.27301">
        <ele>1862.1999511719</ele>
        <time>2016-07-19T13:29:23.000Z</time>
      </trkpt>
      <trkpt lat="44.32793" lon="6.27299">
        <ele>1862.8000488281</ele>
        <time>2016-07-19T13:29:26.000Z</time>
      </trkpt>
      <trkpt lat="44.32796" lon="6.27293">
        <ele>1865</ele>
        <time>2016-07-19T13:29:33.000Z</time>
      </trkpt>
      <trkpt lat="44.32792" lon="6.27286">
        <ele>1866.8000488281</ele>
        <time>2016-07-19T13:29:39.000Z</time>
      </trkpt>
      <trkpt lat="44.32791" lon="6.27282">
        <ele>1868.1999511719</ele>
        <time>2016-07-19T13:29:41.000Z</time>
      </trkpt>
      <trkpt lat="44.32795" lon="6.27277">
        <ele>1869.5999755859</ele>
        <time>2016-07-19T13:29:46.000Z</time>
      </trkpt>
      <trkpt lat="44.328" lon="6.27273">
        <ele>1871</ele>
        <time>2016-07-19T13:29:51.000Z</time>
      </trkpt>
      <trkpt lat="44.32797" lon="6.27262">
        <ele>1874.5999755859</ele>
        <time>2016-07-19T13:30:00.000Z</time>
      </trkpt>
      <trkpt lat="44.32793" lon="6.27252">
        <ele>1877.4000244141</ele>
        <time>2016-07-19T13:30:06.000Z</time>
      </trkpt>
      <trkpt lat="44.32791" lon="6.27232">
        <ele>1884</ele>
        <time>2016-07-19T13:30:18.000Z</time>
      </trkpt>
      <trkpt lat="44.32793" lon="6.27213">
        <ele>1886.5999755859</ele>
        <time>2016-07-19T13:30:29.000Z</time>
      </trkpt>
      <trkpt lat="44.32797" lon="6.27191">
        <ele>1888.8000488281</ele>
        <time>2016-07-19T13:30:41.000Z</time>
      </trkpt>
      <trkpt lat="44.32799" lon="6.27178">
        <ele>1890.1999511719</ele>
        <time>2016-07-19T13:30:49.000Z</time>
      </trkpt>
      <trkpt lat="44.32801" lon="6.27153">
        <ele>1892.5999755859</ele>
        <time>2016-07-19T13:31:02.000Z</time>
      </trkpt>
      <trkpt lat="44.32802" lon="6.2715">
        <ele>1893</ele>
        <time>2016-07-19T13:31:09.000Z</time>
      </trkpt>
      <trkpt lat="44.32801" lon="6.27148">
        <ele>1893</ele>
        <time>2016-07-19T13:31:31.000Z</time>
      </trkpt>
      <trkpt lat="44.32797" lon="6.27134">
        <ele>1893.4000244141</ele>
        <time>2016-07-19T13:31:39.000Z</time>
      </trkpt>
      <trkpt lat="44.32802" lon="6.27126">
        <ele>1894.5999755859</ele>
        <time>2016-07-19T13:31:45.000Z</time>
      </trkpt>
      <trkpt lat="44.32807" lon="6.27116">
        <ele>1895.5999755859</ele>
        <time>2016-07-19T13:31:50.000Z</time>
      </trkpt>
      <trkpt lat="44.32809" lon="6.27098">
        <ele>1897</ele>
        <time>2016-07-19T13:32:00.000Z</time>
      </trkpt>
      <trkpt lat="44.32813" lon="6.27082">
        <ele>1896.4000244141</ele>
        <time>2016-07-19T13:32:07.000Z</time>
      </trkpt>
      <trkpt lat="44.32817" lon="6.27065">
        <ele>1894.4000244141</ele>
        <time>2016-07-19T13:32:16.000Z</time>
      </trkpt>
      <trkpt lat="44.32821" lon="6.27057">
        <ele>1893.8000488281</ele>
        <time>2016-07-19T13:32:23.000Z</time>
      </trkpt>
      <trkpt lat="44.32821" lon="6.27056">
        <ele>1893.5999755859</ele>
        <time>2016-07-19T13:32:31.000Z</time>
      </trkpt>
      <trkpt lat="44.32819" lon="6.27054">
        <ele>1893.5999755859</ele>
        <time>2016-07-19T13:32:36.000Z</time>
      </trkpt>
      <trkpt lat="44.32819" lon="6.27055">
        <ele>1893.5999755859</ele>
        <time>2016-07-19T13:32:46.000Z</time>
      </trkpt>
      <trkpt lat="44.32822" lon="6.27055">
        <ele>1893.5999755859</ele>
        <time>2016-07-19T13:33:08.000Z</time>
      </trkpt>
      <trkpt lat="44.32819" lon="6.27055">
        <ele>1893.8000488281</ele>
        <time>2016-07-19T13:33:40.000Z</time>
      </trkpt>
      <trkpt lat="44.3282" lon="6.27055">
        <ele>1893.5999755859</ele>
        <time>2016-07-19T13:33:45.000Z</time>
      </trkpt>
      <trkpt lat="44.32819" lon="6.27054">
        <ele>1893.5999755859</ele>
        <time>2016-07-19T13:33:49.000Z</time>
      </trkpt>
      <trkpt lat="44.3282" lon="6.27055">
        <ele>1893.5999755859</ele>
        <time>2016-07-19T13:34:01.000Z</time>
      </trkpt>
      <trkpt lat="44.3282" lon="6.27051">
        <ele>1893.4000244141</ele>
        <time>2016-07-19T13:34:53.000Z</time>
      </trkpt>
      <trkpt lat="44.32822" lon="6.27039">
        <ele>1892.5999755859</ele>
        <time>2016-07-19T13:35:01.000Z</time>
      </trkpt>
      <trkpt lat="44.32823" lon="6.27038">
        <ele>1892.4000244141</ele>
        <time>2016-07-19T13:35:03.000Z</time>
      </trkpt>
      <trkpt lat="44.32827" lon="6.2703">
        <ele>1891.8000488281</ele>
        <time>2016-07-19T13:35:10.000Z</time>
      </trkpt>
      <trkpt lat="44.32829" lon="6.27025">
        <ele>1891.1999511719</ele>
        <time>2016-07-19T13:35:13.000Z</time>
      </trkpt>
      <trkpt lat="44.32829" lon="6.27021">
        <ele>1890.4000244141</ele>
        <time>2016-07-19T13:35:16.000Z</time>
      </trkpt>
      <trkpt lat="44.32833" lon="6.27011">
        <ele>1888</ele>
        <time>2016-07-19T13:35:23.000Z</time>
      </trkpt>
      <trkpt lat="44.32833" lon="6.27009">
        <ele>1887.5999755859</ele>
        <time>2016-07-19T13:35:25.000Z</time>
      </trkpt>
      <trkpt lat="44.32833" lon="6.27008">
        <ele>1887.5999755859</ele>
        <time>2016-07-19T13:35:26.000Z</time>
      </trkpt>
      <trkpt lat="44.32836" lon="6.27">
        <ele>1885.8000488281</ele>
        <time>2016-07-19T13:35:31.000Z</time>
      </trkpt>
      <trkpt lat="44.32836" lon="6.26996">
        <ele>1885</ele>
        <time>2016-07-19T13:35:35.000Z</time>
      </trkpt>
      <trkpt lat="44.32836" lon="6.26988">
        <ele>1883.8000488281</ele>
        <time>2016-07-19T13:35:40.000Z</time>
      </trkpt>
      <trkpt lat="44.32837" lon="6.2698">
        <ele>1882.1999511719</ele>
        <time>2016-07-19T13:35:45.000Z</time>
      </trkpt>
      <trkpt lat="44.32838" lon="6.26978">
        <ele>1881.8000488281</ele>
        <time>2016-07-19T13:35:47.000Z</time>
      </trkpt>
      <trkpt lat="44.32841" lon="6.2697">
        <ele>1880.4000244141</ele>
        <time>2016-07-19T13:35:53.000Z</time>
      </trkpt>
      <trkpt lat="44.32845" lon="6.26968">
        <ele>1879.5999755859</ele>
        <time>2016-07-19T13:35:58.000Z</time>
      </trkpt>
      <trkpt lat="44.32846" lon="6.26967">
        <ele>1879.4000244141</ele>
        <time>2016-07-19T13:35:59.000Z</time>
      </trkpt>
      <trkpt lat="44.32847" lon="6.2696">
        <ele>1878.1999511719</ele>
        <time>2016-07-19T13:36:07.000Z</time>
      </trkpt>
      <trkpt lat="44.32846" lon="6.26953">
        <ele>1877.4000244141</ele>
        <time>2016-07-19T13:36:15.000Z</time>
      </trkpt>
      <trkpt lat="44.32849" lon="6.26949">
        <ele>1876</ele>
        <time>2016-07-19T13:36:20.000Z</time>
      </trkpt>
      <trkpt lat="44.32848" lon="6.26947">
        <ele>1876</ele>
        <time>2016-07-19T13:36:26.000Z</time>
      </trkpt>
      <trkpt lat="44.32848" lon="6.26944">
        <ele>1875.5999755859</ele>
        <time>2016-07-19T13:36:34.000Z</time>
      </trkpt>
      <trkpt lat="44.32848" lon="6.26939">
        <ele>1874.8000488281</ele>
        <time>2016-07-19T13:36:39.000Z</time>
      </trkpt>
      <trkpt lat="44.3285" lon="6.26935">
        <ele>1873.5999755859</ele>
        <time>2016-07-19T13:36:45.000Z</time>
      </trkpt>
      <trkpt lat="44.32854" lon="6.26932">
        <ele>1872.4000244141</ele>
        <time>2016-07-19T13:36:52.000Z</time>
      </trkpt>
      <trkpt lat="44.32855" lon="6.26921">
        <ele>1870.5999755859</ele>
        <time>2016-07-19T13:37:00.000Z</time>
      </trkpt>
      <trkpt lat="44.32857" lon="6.26912">
        <ele>1868.5999755859</ele>
        <time>2016-07-19T13:37:08.000Z</time>
      </trkpt>
      <trkpt lat="44.32857" lon="6.2691">
        <ele>1868.4000244141</ele>
        <time>2016-07-19T13:37:09.000Z</time>
      </trkpt>
      <trkpt lat="44.32859" lon="6.26907">
        <ele>1867.8000488281</ele>
        <time>2016-07-19T13:37:12.000Z</time>
      </trkpt>
      <trkpt lat="44.32859" lon="6.26905">
        <ele>1867.1999511719</ele>
        <time>2016-07-19T13:37:14.000Z</time>
      </trkpt>
      <trkpt lat="44.32862" lon="6.269">
        <ele>1866</ele>
        <time>2016-07-19T13:37:23.000Z</time>
      </trkpt>
      <trkpt lat="44.32864" lon="6.2689">
        <ele>1864</ele>
        <time>2016-07-19T13:37:31.000Z</time>
      </trkpt>
      <trkpt lat="44.32864" lon="6.26889">
        <ele>1863.8000488281</ele>
        <time>2016-07-19T13:37:32.000Z</time>
      </trkpt>
      <trkpt lat="44.32869" lon="6.26878">
        <ele>1861.4000244141</ele>
        <time>2016-07-19T13:37:42.000Z</time>
      </trkpt>
      <trkpt lat="44.3287" lon="6.26877">
        <ele>1861.1999511719</ele>
        <time>2016-07-19T13:37:43.000Z</time>
      </trkpt>
      <trkpt lat="44.32873" lon="6.26873">
        <ele>1860.1999511719</ele>
        <time>2016-07-19T13:37:50.000Z</time>
      </trkpt>
      <trkpt lat="44.32877" lon="6.26866">
        <ele>1858.8000488281</ele>
        <time>2016-07-19T13:37:58.000Z</time>
      </trkpt>
      <trkpt lat="44.32878" lon="6.26863">
        <ele>1858.1999511719</ele>
        <time>2016-07-19T13:38:00.000Z</time>
      </trkpt>
      <trkpt lat="44.32879" lon="6.26861">
        <ele>1857.5999755859</ele>
        <time>2016-07-19T13:38:10.000Z</time>
      </trkpt>
      <trkpt lat="44.3288" lon="6.26854">
        <ele>1856.4000244141</ele>
        <time>2016-07-19T13:38:20.000Z</time>
      </trkpt>
      <trkpt lat="44.32881" lon="6.26853">
        <ele>1856.1999511719</ele>
        <time>2016-07-19T13:38:22.000Z</time>
      </trkpt>
      <trkpt lat="44.32884" lon="6.26846">
        <ele>1854.8000488281</ele>
        <time>2016-07-19T13:38:30.000Z</time>
      </trkpt>
      <trkpt lat="44.32884" lon="6.26843">
        <ele>1854.1999511719</ele>
        <time>2016-07-19T13:38:35.000Z</time>
      </trkpt>
      <trkpt lat="44.32885" lon="6.26842">
        <ele>1854</ele>
        <time>2016-07-19T13:38:36.000Z</time>
      </trkpt>
      <trkpt lat="44.32887" lon="6.2684">
        <ele>1853.5999755859</ele>
        <time>2016-07-19T13:38:42.000Z</time>
      </trkpt>
      <trkpt lat="44.3289" lon="6.26836">
        <ele>1852.1999511719</ele>
        <time>2016-07-19T13:38:48.000Z</time>
      </trkpt>
      <trkpt lat="44.32894" lon="6.26834">
        <ele>1851.1999511719</ele>
        <time>2016-07-19T13:38:55.000Z</time>
      </trkpt>
      <trkpt lat="44.32896" lon="6.26836">
        <ele>1851.4000244141</ele>
        <time>2016-07-19T13:39:04.000Z</time>
      </trkpt>
      <trkpt lat="44.32899" lon="6.26838">
        <ele>1851.4000244141</ele>
        <time>2016-07-19T13:39:43.000Z</time>
      </trkpt>
      <trkpt lat="44.329" lon="6.26838">
        <ele>1851.1999511719</ele>
        <time>2016-07-19T13:39:53.000Z</time>
      </trkpt>
      <trkpt lat="44.32903" lon="6.26839">
        <ele>1851.1999511719</ele>
        <time>2016-07-19T13:40:11.000Z</time>
      </trkpt>
      <trkpt lat="44.32907" lon="6.2684">
        <ele>1850.8000488281</ele>
        <time>2016-07-19T13:40:18.000Z</time>
      </trkpt>
      <trkpt lat="44.3291" lon="6.26842">
        <ele>1850.8000488281</ele>
        <time>2016-07-19T13:40:22.000Z</time>
      </trkpt>
      <trkpt lat="44.32911" lon="6.26842">
        <ele>1850.8000488281</ele>
        <time>2016-07-19T13:40:23.000Z</time>
      </trkpt>
      <trkpt lat="44.32914" lon="6.26846">
        <ele>1851.1999511719</ele>
        <time>2016-07-19T13:40:30.000Z</time>
      </trkpt>
      <trkpt lat="44.32915" lon="6.26845">
        <ele>1850.8000488281</ele>
        <time>2016-07-19T13:40:31.000Z</time>
      </trkpt>
      <trkpt lat="44.32912" lon="6.26833">
        <ele>1848.1999511719</ele>
        <time>2016-07-19T13:40:38.000Z</time>
      </trkpt>
      <trkpt lat="44.32913" lon="6.26832">
        <ele>1847.5999755859</ele>
        <time>2016-07-19T13:40:39.000Z</time>
      </trkpt>
      <trkpt lat="44.32916" lon="6.26829">
        <ele>1846.1999511719</ele>
        <time>2016-07-19T13:40:45.000Z</time>
      </trkpt>
      <trkpt lat="44.32923" lon="6.26823">
        <ele>1843.8000488281</ele>
        <time>2016-07-19T13:40:51.000Z</time>
      </trkpt>
      <trkpt lat="44.32934" lon="6.26821">
        <ele>1841.4000244141</ele>
        <time>2016-07-19T13:41:00.000Z</time>
      </trkpt>
      <trkpt lat="44.32935" lon="6.26821">
        <ele>1841.1999511719</ele>
        <time>2016-07-19T13:41:16.000Z</time>
      </trkpt>
      <trkpt lat="44.32939" lon="6.26824">
        <ele>1841.4000244141</ele>
        <time>2016-07-19T13:41:21.000Z</time>
      </trkpt>
      <trkpt lat="44.32945" lon="6.26833">
        <ele>1842.8000488281</ele>
        <time>2016-07-19T13:41:29.000Z</time>
      </trkpt>
      <trkpt lat="44.32952" lon="6.26839">
        <ele>1844.8000488281</ele>
        <time>2016-07-19T13:41:36.000Z</time>
      </trkpt>
      <trkpt lat="44.32957" lon="6.26835">
        <ele>1844.4000244141</ele>
        <time>2016-07-19T13:41:42.000Z</time>
      </trkpt>
      <trkpt lat="44.32957" lon="6.26834">
        <ele>1844.1999511719</ele>
        <time>2016-07-19T13:41:43.000Z</time>
      </trkpt>
      <trkpt lat="44.32959" lon="6.26835">
        <ele>1845</ele>
        <time>2016-07-19T13:41:46.000Z</time>
      </trkpt>
      <trkpt lat="44.32965" lon="6.26837">
        <ele>1846.1999511719</ele>
        <time>2016-07-19T13:41:53.000Z</time>
      </trkpt>
      <trkpt lat="44.32965" lon="6.26836">
        <ele>1846</ele>
        <time>2016-07-19T13:41:54.000Z</time>
      </trkpt>
      <trkpt lat="44.32965" lon="6.26834">
        <ele>1845.4000244141</ele>
        <time>2016-07-19T13:41:56.000Z</time>
      </trkpt>
      <trkpt lat="44.32969" lon="6.26828">
        <ele>1844</ele>
        <time>2016-07-19T13:42:01.000Z</time>
      </trkpt>
      <trkpt lat="44.32973" lon="6.26821">
        <ele>1841.5999755859</ele>
        <time>2016-07-19T13:42:06.000Z</time>
      </trkpt>
      <trkpt lat="44.32971" lon="6.26806">
        <ele>1836.8000488281</ele>
        <time>2016-07-19T13:42:13.000Z</time>
      </trkpt>
      <trkpt lat="44.32972" lon="6.26795">
        <ele>1834</ele>
        <time>2016-07-19T13:42:20.000Z</time>
      </trkpt>
      <trkpt lat="44.32973" lon="6.26791">
        <ele>1833</ele>
        <time>2016-07-19T13:42:23.000Z</time>
      </trkpt>
      <trkpt lat="44.32977" lon="6.26785">
        <ele>1831.8000488281</ele>
        <time>2016-07-19T13:42:28.000Z</time>
      </trkpt>
      <trkpt lat="44.32978" lon="6.26783">
        <ele>1831.4000244141</ele>
        <time>2016-07-19T13:42:30.000Z</time>
      </trkpt>
      <trkpt lat="44.3298" lon="6.2678">
        <ele>1830.8000488281</ele>
        <time>2016-07-19T13:42:33.000Z</time>
      </trkpt>
      <trkpt lat="44.32987" lon="6.26772">
        <ele>1829</ele>
        <time>2016-07-19T13:42:43.000Z</time>
      </trkpt>
      <trkpt lat="44.32994" lon="6.26769">
        <ele>1829</ele>
        <time>2016-07-19T13:42:51.000Z</time>
      </trkpt>
      <trkpt lat="44.32998" lon="6.2677">
        <ele>1829.5999755859</ele>
        <time>2016-07-19T13:42:56.000Z</time>
      </trkpt>
      <trkpt lat="44.33003" lon="6.26773">
        <ele>1830.8000488281</ele>
        <time>2016-07-19T13:43:02.000Z</time>
      </trkpt>
      <trkpt lat="44.33006" lon="6.26771">
        <ele>1830.5999755859</ele>
        <time>2016-07-19T13:43:06.000Z</time>
      </trkpt>
      <trkpt lat="44.33009" lon="6.26764">
        <ele>1829.1999511719</ele>
        <time>2016-07-19T13:43:12.000Z</time>
      </trkpt>
      <trkpt lat="44.33013" lon="6.26759">
        <ele>1828.4000244141</ele>
        <time>2016-07-19T13:43:17.000Z</time>
      </trkpt>
      <trkpt lat="44.33018" lon="6.26752">
        <ele>1827.1999511719</ele>
        <time>2016-07-19T13:43:23.000Z</time>
      </trkpt>
      <trkpt lat="44.33021" lon="6.26732">
        <ele>1822.8000488281</ele>
        <time>2016-07-19T13:43:34.000Z</time>
      </trkpt>
      <trkpt lat="44.33027" lon="6.26721">
        <ele>1820.5999755859</ele>
        <time>2016-07-19T13:43:43.000Z</time>
      </trkpt>
      <trkpt lat="44.33028" lon="6.2672">
        <ele>1820.8000488281</ele>
        <time>2016-07-19T13:43:44.000Z</time>
      </trkpt>
      <trkpt lat="44.33037" lon="6.26685">
        <ele>1815</ele>
        <time>2016-07-19T13:44:12.000Z</time>
      </trkpt>
      <trkpt lat="44.33042" lon="6.26674">
        <ele>1813.4000244141</ele>
        <time>2016-07-19T13:44:20.000Z</time>
      </trkpt>
      <trkpt lat="44.33045" lon="6.26657">
        <ele>1810.4000244141</ele>
        <time>2016-07-19T13:44:31.000Z</time>
      </trkpt>
      <trkpt lat="44.33052" lon="6.2665">
        <ele>1809</ele>
        <time>2016-07-19T13:44:38.000Z</time>
      </trkpt>
      <trkpt lat="44.33053" lon="6.26648">
        <ele>1808.4000244141</ele>
        <time>2016-07-19T13:44:39.000Z</time>
      </trkpt>
      <trkpt lat="44.3306" lon="6.26632">
        <ele>1807.1999511719</ele>
        <time>2016-07-19T13:44:51.000Z</time>
      </trkpt>
      <trkpt lat="44.33061" lon="6.2663">
        <ele>1807.1999511719</ele>
        <time>2016-07-19T13:44:52.000Z</time>
      </trkpt>
      <trkpt lat="44.3307" lon="6.26624">
        <ele>1807.4000244141</ele>
        <time>2016-07-19T13:45:00.000Z</time>
      </trkpt>
      <trkpt lat="44.33078" lon="6.26627">
        <ele>1808.4000244141</ele>
        <time>2016-07-19T13:45:07.000Z</time>
      </trkpt>
      <trkpt lat="44.33083" lon="6.26628">
        <ele>1808.8000488281</ele>
        <time>2016-07-19T13:45:11.000Z</time>
      </trkpt>
      <trkpt lat="44.33084" lon="6.26631">
        <ele>1809.1999511719</ele>
        <time>2016-07-19T13:45:18.000Z</time>
      </trkpt>
      <trkpt lat="44.33085" lon="6.26632">
        <ele>1809.4000244141</ele>
        <time>2016-07-19T13:45:35.000Z</time>
      </trkpt>
      <trkpt lat="44.33088" lon="6.2663">
        <ele>1809.5999755859</ele>
        <time>2016-07-19T13:45:38.000Z</time>
      </trkpt>
      <trkpt lat="44.33092" lon="6.2663">
        <ele>1809.8000488281</ele>
        <time>2016-07-19T13:45:42.000Z</time>
      </trkpt>
      <trkpt lat="44.33096" lon="6.26629">
        <ele>1810</ele>
        <time>2016-07-19T13:45:46.000Z</time>
      </trkpt>
      <trkpt lat="44.33108" lon="6.26623">
        <ele>1808.8000488281</ele>
        <time>2016-07-19T13:45:57.000Z</time>
      </trkpt>
      <trkpt lat="44.33117" lon="6.26622">
        <ele>1808.4000244141</ele>
        <time>2016-07-19T13:46:04.000Z</time>
      </trkpt>
      <trkpt lat="44.33122" lon="6.26617">
        <ele>1808</ele>
        <time>2016-07-19T13:46:12.000Z</time>
      </trkpt>
      <trkpt lat="44.33123" lon="6.26616">
        <ele>1807.8000488281</ele>
        <time>2016-07-19T13:46:13.000Z</time>
      </trkpt>
      <trkpt lat="44.3312" lon="6.26606">
        <ele>1805.5999755859</ele>
        <time>2016-07-19T13:46:21.000Z</time>
      </trkpt>
      <trkpt lat="44.33113" lon="6.26601">
        <ele>1804.4000244141</ele>
        <time>2016-07-19T13:46:28.000Z</time>
      </trkpt>
      <trkpt lat="44.33112" lon="6.266">
        <ele>1804.1999511719</ele>
        <time>2016-07-19T13:46:29.000Z</time>
      </trkpt>
      <trkpt lat="44.33111" lon="6.26598">
        <ele>1803.8000488281</ele>
        <time>2016-07-19T13:46:31.000Z</time>
      </trkpt>
      <trkpt lat="44.33109" lon="6.26595">
        <ele>1803.4000244141</ele>
        <time>2016-07-19T13:46:36.000Z</time>
      </trkpt>
      <trkpt lat="44.33108" lon="6.26595">
        <ele>1803.4000244141</ele>
        <time>2016-07-19T13:46:37.000Z</time>
      </trkpt>
      <trkpt lat="44.33105" lon="6.26589">
        <ele>1802.1999511719</ele>
        <time>2016-07-19T13:46:41.000Z</time>
      </trkpt>
      <trkpt lat="44.33105" lon="6.26573">
        <ele>1799.1999511719</ele>
        <time>2016-07-19T13:46:50.000Z</time>
      </trkpt>
      <trkpt lat="44.33106" lon="6.26559">
        <ele>1796.5999755859</ele>
        <time>2016-07-19T13:46:59.000Z</time>
      </trkpt>
      <trkpt lat="44.33107" lon="6.26546">
        <ele>1795.1999511719</ele>
        <time>2016-07-19T13:47:08.000Z</time>
      </trkpt>
      <trkpt lat="44.33108" lon="6.26533">
        <ele>1794.4000244141</ele>
        <time>2016-07-19T13:47:17.000Z</time>
      </trkpt>
      <trkpt lat="44.33106" lon="6.26518">
        <ele>1793.1999511719</ele>
        <time>2016-07-19T13:47:26.000Z</time>
      </trkpt>
      <trkpt lat="44.33105" lon="6.26513">
        <ele>1792.5999755859</ele>
        <time>2016-07-19T13:47:33.000Z</time>
      </trkpt>
      <trkpt lat="44.33108" lon="6.26509">
        <ele>1792.5999755859</ele>
        <time>2016-07-19T13:47:54.000Z</time>
      </trkpt>
      <trkpt lat="44.33107" lon="6.26502">
        <ele>1792</ele>
        <time>2016-07-19T13:47:58.000Z</time>
      </trkpt>
      <trkpt lat="44.3311" lon="6.26499">
        <ele>1792</ele>
        <time>2016-07-19T13:48:01.000Z</time>
      </trkpt>
      <trkpt lat="44.33117" lon="6.26512">
        <ele>1793.5999755859</ele>
        <time>2016-07-19T13:48:10.000Z</time>
      </trkpt>
      <trkpt lat="44.33119" lon="6.26515">
        <ele>1794</ele>
        <time>2016-07-19T13:48:15.000Z</time>
      </trkpt>
      <trkpt lat="44.33119" lon="6.26514">
        <ele>1794</ele>
        <time>2016-07-19T13:48:26.000Z</time>
      </trkpt>
      <trkpt lat="44.33117" lon="6.26512">
        <ele>1793.5999755859</ele>
        <time>2016-07-19T13:48:32.000Z</time>
      </trkpt>
      <trkpt lat="44.33116" lon="6.26512">
        <ele>1793.5999755859</ele>
        <time>2016-07-19T13:48:40.000Z</time>
      </trkpt>
      <trkpt lat="44.33115" lon="6.2651">
        <ele>1793.4000244141</ele>
        <time>2016-07-19T13:48:48.000Z</time>
      </trkpt>
      <trkpt lat="44.33115" lon="6.26507">
        <ele>1793</ele>
        <time>2016-07-19T13:48:56.000Z</time>
      </trkpt>
      <trkpt lat="44.33119" lon="6.26512">
        <ele>1794</ele>
        <time>2016-07-19T13:49:01.000Z</time>
      </trkpt>
      <trkpt lat="44.33122" lon="6.26518">
        <ele>1794.5999755859</ele>
        <time>2016-07-19T13:49:08.000Z</time>
      </trkpt>
      <trkpt lat="44.33124" lon="6.26521">
        <ele>1795</ele>
        <time>2016-07-19T13:49:16.000Z</time>
      </trkpt>
      <trkpt lat="44.33127" lon="6.26523">
        <ele>1795.5999755859</ele>
        <time>2016-07-19T13:49:30.000Z</time>
      </trkpt>
      <trkpt lat="44.33131" lon="6.26528">
        <ele>1796.4000244141</ele>
        <time>2016-07-19T13:49:38.000Z</time>
      </trkpt>
      <trkpt lat="44.33132" lon="6.26529">
        <ele>1796.5999755859</ele>
        <time>2016-07-19T13:49:39.000Z</time>
      </trkpt>
      <trkpt lat="44.33131" lon="6.26529">
        <ele>1796.4000244141</ele>
        <time>2016-07-19T13:49:50.000Z</time>
      </trkpt>
      <trkpt lat="44.33128" lon="6.26524">
        <ele>1795.8000488281</ele>
        <time>2016-07-19T13:50:06.000Z</time>
      </trkpt>
      <trkpt lat="44.33122" lon="6.26519">
        <ele>1794.8000488281</ele>
        <time>2016-07-19T13:50:13.000Z</time>
      </trkpt>
      <trkpt lat="44.3312" lon="6.26516">
        <ele>1794.1999511719</ele>
        <time>2016-07-19T13:50:17.000Z</time>
      </trkpt>
      <trkpt lat="44.33117" lon="6.26515">
        <ele>1794</ele>
        <time>2016-07-19T13:50:20.000Z</time>
      </trkpt>
      <trkpt lat="44.33121" lon="6.26511">
        <ele>1794</ele>
        <time>2016-07-19T13:50:24.000Z</time>
      </trkpt>
      <trkpt lat="44.33131" lon="6.26499">
        <ele>1794.1999511719</ele>
        <time>2016-07-19T13:50:34.000Z</time>
      </trkpt>
      <trkpt lat="44.33138" lon="6.26488">
        <ele>1792.5999755859</ele>
        <time>2016-07-19T13:50:42.000Z</time>
      </trkpt>
      <trkpt lat="44.33145" lon="6.26475">
        <ele>1791.4000244141</ele>
        <time>2016-07-19T13:50:51.000Z</time>
      </trkpt>
      <trkpt lat="44.3315" lon="6.2647">
        <ele>1791.5999755859</ele>
        <time>2016-07-19T13:50:58.000Z</time>
      </trkpt>
      <trkpt lat="44.3315" lon="6.26471">
        <ele>1791.5999755859</ele>
        <time>2016-07-19T13:51:04.000Z</time>
      </trkpt>
      <trkpt lat="44.33156" lon="6.26472">
        <ele>1791.5999755859</ele>
        <time>2016-07-19T13:51:10.000Z</time>
      </trkpt>
      <trkpt lat="44.33166" lon="6.2647">
        <ele>1791.8000488281</ele>
        <time>2016-07-19T13:51:16.000Z</time>
      </trkpt>
      <trkpt lat="44.33182" lon="6.26469">
        <ele>1792</ele>
        <time>2016-07-19T13:51:26.000Z</time>
      </trkpt>
      <trkpt lat="44.3319" lon="6.26474">
        <ele>1792</ele>
        <time>2016-07-19T13:51:32.000Z</time>
      </trkpt>
      <trkpt lat="44.332" lon="6.2647">
        <ele>1791.1999511719</ele>
        <time>2016-07-19T13:51:37.000Z</time>
      </trkpt>
      <trkpt lat="44.33208" lon="6.26468">
        <ele>1791.1999511719</ele>
        <time>2016-07-19T13:51:42.000Z</time>
      </trkpt>
      <trkpt lat="44.33218" lon="6.26469">
        <ele>1791.8000488281</ele>
        <time>2016-07-19T13:51:52.000Z</time>
      </trkpt>
      <trkpt lat="44.33221" lon="6.2647">
        <ele>1792</ele>
        <time>2016-07-19T13:51:59.000Z</time>
      </trkpt>
      <trkpt lat="44.33222" lon="6.26471">
        <ele>1792</ele>
        <time>2016-07-19T13:52:14.000Z</time>
      </trkpt>
      <trkpt lat="44.33223" lon="6.26471">
        <ele>1792.1999511719</ele>
        <time>2016-07-19T13:52:21.000Z</time>
      </trkpt>
      <trkpt lat="44.33225" lon="6.26469">
        <ele>1792</ele>
        <time>2016-07-19T13:52:25.000Z</time>
      </trkpt>
      <trkpt lat="44.33224" lon="6.2646">
        <ele>1791</ele>
        <time>2016-07-19T13:52:31.000Z</time>
      </trkpt>
      <trkpt lat="44.33228" lon="6.26458">
        <ele>1791</ele>
        <time>2016-07-19T13:52:36.000Z</time>
      </trkpt>
      <trkpt lat="44.33229" lon="6.26458">
        <ele>1791</ele>
        <time>2016-07-19T13:52:38.000Z</time>
      </trkpt>
      <trkpt lat="44.3323" lon="6.26452">
        <ele>1790.5999755859</ele>
        <time>2016-07-19T13:52:42.000Z</time>
      </trkpt>
      <trkpt lat="44.33232" lon="6.26446">
        <ele>1790</ele>
        <time>2016-07-19T13:52:47.000Z</time>
      </trkpt>
      <trkpt lat="44.33232" lon="6.26444">
        <ele>1789.8000488281</ele>
        <time>2016-07-19T13:52:49.000Z</time>
      </trkpt>
      <trkpt lat="44.33239" lon="6.26436">
        <ele>1789.1999511719</ele>
        <time>2016-07-19T13:52:56.000Z</time>
      </trkpt>
      <trkpt lat="44.33246" lon="6.26432">
        <ele>1787.1999511719</ele>
        <time>2016-07-19T13:53:03.000Z</time>
      </trkpt>
      <trkpt lat="44.33257" lon="6.26429">
        <ele>1785.5999755859</ele>
        <time>2016-07-19T13:53:11.000Z</time>
      </trkpt>
      <trkpt lat="44.33269" lon="6.2643">
        <ele>1784.1999511719</ele>
        <time>2016-07-19T13:53:21.000Z</time>
      </trkpt>
      <trkpt lat="44.33279" lon="6.26428">
        <ele>1782.8000488281</ele>
        <time>2016-07-19T13:53:29.000Z</time>
      </trkpt>
      <trkpt lat="44.33285" lon="6.2643">
        <ele>1783.1999511719</ele>
        <time>2016-07-19T13:53:35.000Z</time>
      </trkpt>
      <trkpt lat="44.33297" lon="6.26428">
        <ele>1783</ele>
        <time>2016-07-19T13:53:44.000Z</time>
      </trkpt>
      <trkpt lat="44.33308" lon="6.26423">
        <ele>1782.1999511719</ele>
        <time>2016-07-19T13:53:52.000Z</time>
      </trkpt>
      <trkpt lat="44.3331" lon="6.26423">
        <ele>1782.1999511719</ele>
        <time>2016-07-19T13:53:55.000Z</time>
      </trkpt>
      <trkpt lat="44.33316" lon="6.2642">
        <ele>1781.4000244141</ele>
        <time>2016-07-19T13:54:01.000Z</time>
      </trkpt>
      <trkpt lat="44.33329" lon="6.26417">
        <ele>1780.5999755859</ele>
        <time>2016-07-19T13:54:11.000Z</time>
      </trkpt>
      <trkpt lat="44.33338" lon="6.26415">
        <ele>1780</ele>
        <time>2016-07-19T13:54:18.000Z</time>
      </trkpt>
      <trkpt lat="44.33341" lon="6.26414">
        <ele>1779.8000488281</ele>
        <time>2016-07-19T13:54:20.000Z</time>
      </trkpt>
      <trkpt lat="44.33346" lon="6.26412">
        <ele>1779.1999511719</ele>
        <time>2016-07-19T13:54:24.000Z</time>
      </trkpt>
      <trkpt lat="44.33348" lon="6.26412">
        <ele>1779</ele>
        <time>2016-07-19T13:54:26.000Z</time>
      </trkpt>
      <trkpt lat="44.33357" lon="6.26415">
        <ele>1780</ele>
        <time>2016-07-19T13:54:33.000Z</time>
      </trkpt>
      <trkpt lat="44.33364" lon="6.26419">
        <ele>1780.8000488281</ele>
        <time>2016-07-19T13:54:39.000Z</time>
      </trkpt>
      <trkpt lat="44.3337" lon="6.26421">
        <ele>1780.4000244141</ele>
        <time>2016-07-19T13:54:44.000Z</time>
      </trkpt>
      <trkpt lat="44.33378" lon="6.2642">
        <ele>1778.1999511719</ele>
        <time>2016-07-19T13:54:51.000Z</time>
      </trkpt>
      <trkpt lat="44.33388" lon="6.26419">
        <ele>1776.1999511719</ele>
        <time>2016-07-19T13:54:59.000Z</time>
      </trkpt>
      <trkpt lat="44.33394" lon="6.26421">
        <ele>1775.5999755859</ele>
        <time>2016-07-19T13:55:05.000Z</time>
      </trkpt>
      <trkpt lat="44.33395" lon="6.2642">
        <ele>1775.1999511719</ele>
        <time>2016-07-19T13:55:06.000Z</time>
      </trkpt>
      <trkpt lat="44.33399" lon="6.26416">
        <ele>1773.5999755859</ele>
        <time>2016-07-19T13:55:09.000Z</time>
      </trkpt>
      <trkpt lat="44.33403" lon="6.26408">
        <ele>1770.8000488281</ele>
        <time>2016-07-19T13:55:15.000Z</time>
      </trkpt>
      <trkpt lat="44.33405" lon="6.26408">
        <ele>1770.5999755859</ele>
        <time>2016-07-19T13:55:16.000Z</time>
      </trkpt>
      <trkpt lat="44.33416" lon="6.26412">
        <ele>1769.4000244141</ele>
        <time>2016-07-19T13:55:25.000Z</time>
      </trkpt>
      <trkpt lat="44.33428" lon="6.26414">
        <ele>1767.8000488281</ele>
        <time>2016-07-19T13:55:34.000Z</time>
      </trkpt>
      <trkpt lat="44.33434" lon="6.26419">
        <ele>1767.8000488281</ele>
        <time>2016-07-19T13:55:41.000Z</time>
      </trkpt>
      <trkpt lat="44.33435" lon="6.26424">
        <ele>1768.8000488281</ele>
        <time>2016-07-19T13:55:56.000Z</time>
      </trkpt>
      <trkpt lat="44.33435" lon="6.26429">
        <ele>1770</ele>
        <time>2016-07-19T13:55:59.000Z</time>
      </trkpt>
      <trkpt lat="44.33436" lon="6.2643">
        <ele>1770.1999511719</ele>
        <time>2016-07-19T13:56:00.000Z</time>
      </trkpt>
      <trkpt lat="44.33444" lon="6.26436">
        <ele>1770.1999511719</ele>
        <time>2016-07-19T13:56:07.000Z</time>
      </trkpt>
      <trkpt lat="44.33454" lon="6.26444">
        <ele>1769</ele>
        <time>2016-07-19T13:56:15.000Z</time>
      </trkpt>
      <trkpt lat="44.33466" lon="6.2645">
        <ele>1766.5999755859</ele>
        <time>2016-07-19T13:56:24.000Z</time>
      </trkpt>
      <trkpt lat="44.33475" lon="6.26457">
        <ele>1765</ele>
        <time>2016-07-19T13:56:31.000Z</time>
      </trkpt>
      <trkpt lat="44.33485" lon="6.26468">
        <ele>1764.1999511719</ele>
        <time>2016-07-19T13:56:39.000Z</time>
      </trkpt>
      <trkpt lat="44.33493" lon="6.26481">
        <ele>1764.4000244141</ele>
        <time>2016-07-19T13:56:47.000Z</time>
      </trkpt>
      <trkpt lat="44.33499" lon="6.26492">
        <ele>1764.8000488281</ele>
        <time>2016-07-19T13:56:54.000Z</time>
      </trkpt>
      <trkpt lat="44.33507" lon="6.26503">
        <ele>1764.5999755859</ele>
        <time>2016-07-19T13:57:01.000Z</time>
      </trkpt>
      <trkpt lat="44.33515" lon="6.26509">
        <ele>1763.4000244141</ele>
        <time>2016-07-19T13:57:07.000Z</time>
      </trkpt>
      <trkpt lat="44.33526" lon="6.26518">
        <ele>1761.5999755859</ele>
        <time>2016-07-19T13:57:16.000Z</time>
      </trkpt>
      <trkpt lat="44.33535" lon="6.26527">
        <ele>1760</ele>
        <time>2016-07-19T13:57:24.000Z</time>
      </trkpt>
      <trkpt lat="44.33545" lon="6.26541">
        <ele>1758.1999511719</ele>
        <time>2016-07-19T13:57:33.000Z</time>
      </trkpt>
      <trkpt lat="44.33556" lon="6.2655">
        <ele>1755.4000244141</ele>
        <time>2016-07-19T13:57:42.000Z</time>
      </trkpt>
      <trkpt lat="44.33566" lon="6.26559">
        <ele>1752.8000488281</ele>
        <time>2016-07-19T13:57:50.000Z</time>
      </trkpt>
      <trkpt lat="44.33576" lon="6.26571">
        <ele>1751.1999511719</ele>
        <time>2016-07-19T13:57:57.000Z</time>
      </trkpt>
      <trkpt lat="44.33588" lon="6.26588">
        <ele>1749.1999511719</ele>
        <time>2016-07-19T13:58:08.000Z</time>
      </trkpt>
      <trkpt lat="44.33598" lon="6.266">
        <ele>1747.4000244141</ele>
        <time>2016-07-19T13:58:17.000Z</time>
      </trkpt>
      <trkpt lat="44.33604" lon="6.26611">
        <ele>1747</ele>
        <time>2016-07-19T13:58:24.000Z</time>
      </trkpt>
      <trkpt lat="44.33612" lon="6.2662">
        <ele>1745.1999511719</ele>
        <time>2016-07-19T13:58:30.000Z</time>
      </trkpt>
      <trkpt lat="44.33617" lon="6.26626">
        <ele>1745</ele>
        <time>2016-07-19T13:58:35.000Z</time>
      </trkpt>
      <trkpt lat="44.33626" lon="6.26633">
        <ele>1744.5999755859</ele>
        <time>2016-07-19T13:58:42.000Z</time>
      </trkpt>
      <trkpt lat="44.33638" lon="6.26641">
        <ele>1743.5999755859</ele>
        <time>2016-07-19T13:58:50.000Z</time>
      </trkpt>
      <trkpt lat="44.33649" lon="6.2665">
        <ele>1741.8000488281</ele>
        <time>2016-07-19T13:58:59.000Z</time>
      </trkpt>
      <trkpt lat="44.33669" lon="6.26663">
        <ele>1736.8000488281</ele>
        <time>2016-07-19T13:59:13.000Z</time>
      </trkpt>
      <trkpt lat="44.33679" lon="6.26675">
        <ele>1734</ele>
        <time>2016-07-19T13:59:22.000Z</time>
      </trkpt>
      <trkpt lat="44.33682" lon="6.26681">
        <ele>1733.1999511719</ele>
        <time>2016-07-19T13:59:27.000Z</time>
      </trkpt>
      <trkpt lat="44.33689" lon="6.26697">
        <ele>1731.1999511719</ele>
        <time>2016-07-19T13:59:36.000Z</time>
      </trkpt>
      <trkpt lat="44.33688" lon="6.26703">
        <ele>1731.1999511719</ele>
        <time>2016-07-19T13:59:42.000Z</time>
      </trkpt>
      <trkpt lat="44.33684" lon="6.26716">
        <ele>1731.5999755859</ele>
        <time>2016-07-19T13:59:50.000Z</time>
      </trkpt>
      <trkpt lat="44.33682" lon="6.26731">
        <ele>1734.5999755859</ele>
        <time>2016-07-19T13:59:58.000Z</time>
      </trkpt>
      <trkpt lat="44.33679" lon="6.26747">
        <ele>1734.5999755859</ele>
        <time>2016-07-19T14:00:06.000Z</time>
      </trkpt>
      <trkpt lat="44.33674" lon="6.2676">
        <ele>1735.4000244141</ele>
        <time>2016-07-19T14:00:13.000Z</time>
      </trkpt>
      <trkpt lat="44.33675" lon="6.26762">
        <ele>1735</ele>
        <time>2016-07-19T14:00:14.000Z</time>
      </trkpt>
      <trkpt lat="44.33678" lon="6.26767">
        <ele>1733.4000244141</ele>
        <time>2016-07-19T14:00:17.000Z</time>
      </trkpt>
      <trkpt lat="44.33683" lon="6.26784">
        <ele>1729.4000244141</ele>
        <time>2016-07-19T14:00:26.000Z</time>
      </trkpt>
      <trkpt lat="44.3369" lon="6.268">
        <ele>1725.1999511719</ele>
        <time>2016-07-19T14:00:35.000Z</time>
      </trkpt>
      <trkpt lat="44.33693" lon="6.26817">
        <ele>1722.8000488281</ele>
        <time>2016-07-19T14:00:44.000Z</time>
      </trkpt>
      <trkpt lat="44.33695" lon="6.26834">
        <ele>1721</ele>
        <time>2016-07-19T14:00:52.000Z</time>
      </trkpt>
      <trkpt lat="44.33699" lon="6.26852">
        <ele>1718.5999755859</ele>
        <time>2016-07-19T14:01:01.000Z</time>
      </trkpt>
      <trkpt lat="44.33701" lon="6.26867">
        <ele>1717.1999511719</ele>
        <time>2016-07-19T14:01:08.000Z</time>
      </trkpt>
      <trkpt lat="44.33703" lon="6.26882">
        <ele>1715.8000488281</ele>
        <time>2016-07-19T14:01:15.000Z</time>
      </trkpt>
      <trkpt lat="44.33707" lon="6.26898">
        <ele>1714</ele>
        <time>2016-07-19T14:01:22.000Z</time>
      </trkpt>
      <trkpt lat="44.33709" lon="6.26903">
        <ele>1713.4000244141</ele>
        <time>2016-07-19T14:01:26.000Z</time>
      </trkpt>
      <trkpt lat="44.33713" lon="6.26906">
        <ele>1712</ele>
        <time>2016-07-19T14:01:30.000Z</time>
      </trkpt>
      <trkpt lat="44.33715" lon="6.26914">
        <ele>1711.5999755859</ele>
        <time>2016-07-19T14:01:36.000Z</time>
      </trkpt>
      <trkpt lat="44.33715" lon="6.26916">
        <ele>1711.8000488281</ele>
        <time>2016-07-19T14:01:37.000Z</time>
      </trkpt>
      <trkpt lat="44.33711" lon="6.26934">
        <ele>1713</ele>
        <time>2016-07-19T14:01:46.000Z</time>
      </trkpt>
      <trkpt lat="44.33718" lon="6.26953">
        <ele>1711.1999511719</ele>
        <time>2016-07-19T14:01:56.000Z</time>
      </trkpt>
      <trkpt lat="44.33726" lon="6.2697">
        <ele>1709</ele>
        <time>2016-07-19T14:02:05.000Z</time>
      </trkpt>
      <trkpt lat="44.33735" lon="6.26983">
        <ele>1706.5999755859</ele>
        <time>2016-07-19T14:02:13.000Z</time>
      </trkpt>
      <trkpt lat="44.33744" lon="6.26997">
        <ele>1705</ele>
        <time>2016-07-19T14:02:20.000Z</time>
      </trkpt>
      <trkpt lat="44.33753" lon="6.27006">
        <ele>1702.8000488281</ele>
        <time>2016-07-19T14:02:28.000Z</time>
      </trkpt>
      <trkpt lat="44.33761" lon="6.27015">
        <ele>1701.1999511719</ele>
        <time>2016-07-19T14:02:35.000Z</time>
      </trkpt>
      <trkpt lat="44.33766" lon="6.27029">
        <ele>1700.8000488281</ele>
        <time>2016-07-19T14:02:43.000Z</time>
      </trkpt>
      <trkpt lat="44.33771" lon="6.27045">
        <ele>1700.4000244141</ele>
        <time>2016-07-19T14:02:51.000Z</time>
      </trkpt>
      <trkpt lat="44.33774" lon="6.27058">
        <ele>1700.5999755859</ele>
        <time>2016-07-19T14:02:58.000Z</time>
      </trkpt>
      <trkpt lat="44.33786" lon="6.27082">
        <ele>1699.5999755859</ele>
        <time>2016-07-19T14:03:09.000Z</time>
      </trkpt>
      <trkpt lat="44.33791" lon="6.2709">
        <ele>1698.8000488281</ele>
        <time>2016-07-19T14:03:14.000Z</time>
      </trkpt>
      <trkpt lat="44.33791" lon="6.27093">
        <ele>1699.1999511719</ele>
        <time>2016-07-19T14:03:16.000Z</time>
      </trkpt>
      <trkpt lat="44.33788" lon="6.27111">
        <ele>1702.4000244141</ele>
        <time>2016-07-19T14:03:26.000Z</time>
      </trkpt>
      <trkpt lat="44.33786" lon="6.27123">
        <ele>1704.5999755859</ele>
        <time>2016-07-19T14:03:32.000Z</time>
      </trkpt>
      <trkpt lat="44.33793" lon="6.27136">
        <ele>1703.8000488281</ele>
        <time>2016-07-19T14:03:40.000Z</time>
      </trkpt>
      <trkpt lat="44.33801" lon="6.27151">
        <ele>1702.8000488281</ele>
        <time>2016-07-19T14:03:47.000Z</time>
      </trkpt>
      <trkpt lat="44.33805" lon="6.27164">
        <ele>1702.5999755859</ele>
        <time>2016-07-19T14:03:54.000Z</time>
      </trkpt>
      <trkpt lat="44.33806" lon="6.27166">
        <ele>1702.4000244141</ele>
        <time>2016-07-19T14:03:59.000Z</time>
      </trkpt>
      <trkpt lat="44.33804" lon="6.27167">
        <ele>1703.1999511719</ele>
        <time>2016-07-19T14:04:04.000Z</time>
      </trkpt>
      <trkpt lat="44.33803" lon="6.27165">
        <ele>1703.1999511719</ele>
        <time>2016-07-19T14:04:45.000Z</time>
      </trkpt>
      <trkpt lat="44.33805" lon="6.27163">
        <ele>1702.8000488281</ele>
        <time>2016-07-19T14:05:41.000Z</time>
      </trkpt>
      <trkpt lat="44.33804" lon="6.27165">
        <ele>1703</ele>
        <time>2016-07-19T14:05:44.000Z</time>
      </trkpt>
      <trkpt lat="44.33805" lon="6.27168">
        <ele>1702.8000488281</ele>
        <time>2016-07-19T14:05:58.000Z</time>
      </trkpt>
      <trkpt lat="44.33806" lon="6.27175">
        <ele>1703.1999511719</ele>
        <time>2016-07-19T14:06:05.000Z</time>
      </trkpt>
      <trkpt lat="44.33806" lon="6.27174">
        <ele>1703.1999511719</ele>
        <time>2016-07-19T14:06:13.000Z</time>
      </trkpt>
      <trkpt lat="44.3381" lon="6.27192">
        <ele>1703.5999755859</ele>
        <time>2016-07-19T14:06:25.000Z</time>
      </trkpt>
      <trkpt lat="44.33816" lon="6.27213">
        <ele>1703.4000244141</ele>
        <time>2016-07-19T14:06:36.000Z</time>
      </trkpt>
      <trkpt lat="44.33821" lon="6.2723">
        <ele>1703.5999755859</ele>
        <time>2016-07-19T14:06:44.000Z</time>
      </trkpt>
      <trkpt lat="44.33823" lon="6.27247">
        <ele>1704.1999511719</ele>
        <time>2016-07-19T14:06:52.000Z</time>
      </trkpt>
      <trkpt lat="44.33828" lon="6.27263">
        <ele>1704</ele>
        <time>2016-07-19T14:06:57.000Z</time>
      </trkpt>
      <trkpt lat="44.33831" lon="6.27276">
        <ele>1703.8000488281</ele>
        <time>2016-07-19T14:07:03.000Z</time>
      </trkpt>
      <trkpt lat="44.33835" lon="6.27288">
        <ele>1703.8000488281</ele>
        <time>2016-07-19T14:07:10.000Z</time>
      </trkpt>
      <trkpt lat="44.33841" lon="6.27308">
        <ele>1704</ele>
        <time>2016-07-19T14:07:20.000Z</time>
      </trkpt>
      <trkpt lat="44.33846" lon="6.27327">
        <ele>1704.1999511719</ele>
        <time>2016-07-19T14:07:30.000Z</time>
      </trkpt>
      <trkpt lat="44.33852" lon="6.27345">
        <ele>1703.8000488281</ele>
        <time>2016-07-19T14:07:39.000Z</time>
      </trkpt>
      <trkpt lat="44.33858" lon="6.27361">
        <ele>1703.1999511719</ele>
        <time>2016-07-19T14:07:48.000Z</time>
      </trkpt>
      <trkpt lat="44.33862" lon="6.27392">
        <ele>1705.4000244141</ele>
        <time>2016-07-19T14:08:04.000Z</time>
      </trkpt>
      <trkpt lat="44.33862" lon="6.27396">
        <ele>1705.8000488281</ele>
        <time>2016-07-19T14:08:06.000Z</time>
      </trkpt>
      <trkpt lat="44.33861" lon="6.27418">
        <ele>1709.5999755859</ele>
        <time>2016-07-19T14:08:17.000Z</time>
      </trkpt>
      <trkpt lat="44.33861" lon="6.27432">
        <ele>1712</ele>
        <time>2016-07-19T14:08:25.000Z</time>
      </trkpt>
      <trkpt lat="44.33867" lon="6.27443">
        <ele>1711.8000488281</ele>
        <time>2016-07-19T14:08:32.000Z</time>
      </trkpt>
      <trkpt lat="44.33875" lon="6.2745">
        <ele>1711.8000488281</ele>
        <time>2016-07-19T14:08:39.000Z</time>
      </trkpt>
      <trkpt lat="44.33883" lon="6.27455">
        <ele>1711.4000244141</ele>
        <time>2016-07-19T14:08:47.000Z</time>
      </trkpt>
      <trkpt lat="44.33893" lon="6.27463">
        <ele>1711.1999511719</ele>
        <time>2016-07-19T14:08:56.000Z</time>
      </trkpt>
      <trkpt lat="44.33899" lon="6.27468">
        <ele>1711</ele>
        <time>2016-07-19T14:09:02.000Z</time>
      </trkpt>
      <trkpt lat="44.33907" lon="6.27475">
        <ele>1711</ele>
        <time>2016-07-19T14:09:09.000Z</time>
      </trkpt>
      <trkpt lat="44.33917" lon="6.27484">
        <ele>1711.5999755859</ele>
        <time>2016-07-19T14:09:17.000Z</time>
      </trkpt>
      <trkpt lat="44.33923" lon="6.27492">
        <ele>1712.4000244141</ele>
        <time>2016-07-19T14:09:23.000Z</time>
      </trkpt>
      <trkpt lat="44.33931" lon="6.27502">
        <ele>1713.4000244141</ele>
        <time>2016-07-19T14:09:31.000Z</time>
      </trkpt>
      <trkpt lat="44.3394" lon="6.27512">
        <ele>1714.1999511719</ele>
        <time>2016-07-19T14:09:38.000Z</time>
      </trkpt>
      <trkpt lat="44.33952" lon="6.27523">
        <ele>1715</ele>
        <time>2016-07-19T14:09:47.000Z</time>
      </trkpt>
      <trkpt lat="44.33963" lon="6.27532">
        <ele>1715.4000244141</ele>
        <time>2016-07-19T14:09:56.000Z</time>
      </trkpt>
      <trkpt lat="44.33976" lon="6.27544">
        <ele>1715.8000488281</ele>
        <time>2016-07-19T14:10:06.000Z</time>
      </trkpt>
      <trkpt lat="44.33987" lon="6.27552">
        <ele>1715.8000488281</ele>
        <time>2016-07-19T14:10:12.000Z</time>
      </trkpt>
      <trkpt lat="44.33995" lon="6.27559">
        <ele>1716.1999511719</ele>
        <time>2016-07-19T14:10:18.000Z</time>
      </trkpt>
      <trkpt lat="44.34005" lon="6.2757">
        <ele>1717.5999755859</ele>
        <time>2016-07-19T14:10:25.000Z</time>
      </trkpt>
      <trkpt lat="44.34014" lon="6.2758">
        <ele>1718.8000488281</ele>
        <time>2016-07-19T14:10:33.000Z</time>
      </trkpt>
      <trkpt lat="44.34023" lon="6.27584">
        <ele>1718.5999755859</ele>
        <time>2016-07-19T14:10:41.000Z</time>
      </trkpt>
      <trkpt lat="44.34035" lon="6.2759">
        <ele>1718.5999755859</ele>
        <time>2016-07-19T14:10:50.000Z</time>
      </trkpt>
      <trkpt lat="44.34048" lon="6.27597">
        <ele>1719.1999511719</ele>
        <time>2016-07-19T14:11:00.000Z</time>
      </trkpt>
      <trkpt lat="44.34057" lon="6.276">
        <ele>1719</ele>
        <time>2016-07-19T14:11:07.000Z</time>
      </trkpt>
      <trkpt lat="44.34066" lon="6.27602">
        <ele>1718.5999755859</ele>
        <time>2016-07-19T14:11:13.000Z</time>
      </trkpt>
      <trkpt lat="44.34071" lon="6.27603">
        <ele>1718.1999511719</ele>
        <time>2016-07-19T14:11:17.000Z</time>
      </trkpt>
      <trkpt lat="44.34077" lon="6.27606">
        <ele>1718.1999511719</ele>
        <time>2016-07-19T14:11:22.000Z</time>
      </trkpt>
      <trkpt lat="44.34088" lon="6.27615">
        <ele>1719.8000488281</ele>
        <time>2016-07-19T14:11:30.000Z</time>
      </trkpt>
      <trkpt lat="44.34097" lon="6.27626">
        <ele>1722</ele>
        <time>2016-07-19T14:11:38.000Z</time>
      </trkpt>
      <trkpt lat="44.34105" lon="6.27633">
        <ele>1723.1999511719</ele>
        <time>2016-07-19T14:11:44.000Z</time>
      </trkpt>
      <trkpt lat="44.34107" lon="6.27635">
        <ele>1723.5999755859</ele>
        <time>2016-07-19T14:11:46.000Z</time>
      </trkpt>
      <trkpt lat="44.34117" lon="6.27645">
        <ele>1725.1999511719</ele>
        <time>2016-07-19T14:11:54.000Z</time>
      </trkpt>
      <trkpt lat="44.3412" lon="6.27647">
        <ele>1725.5999755859</ele>
        <time>2016-07-19T14:11:57.000Z</time>
      </trkpt>
      <trkpt lat="44.34126" lon="6.27649">
        <ele>1725.4000244141</ele>
        <time>2016-07-19T14:12:02.000Z</time>
      </trkpt>
      <trkpt lat="44.3413" lon="6.2765">
        <ele>1725.1999511719</ele>
        <time>2016-07-19T14:12:06.000Z</time>
      </trkpt>
      <trkpt lat="44.34138" lon="6.27654">
        <ele>1725.8000488281</ele>
        <time>2016-07-19T14:12:14.000Z</time>
      </trkpt>
      <trkpt lat="44.34147" lon="6.27656">
        <ele>1725.4000244141</ele>
        <time>2016-07-19T14:12:22.000Z</time>
      </trkpt>
      <trkpt lat="44.3415" lon="6.27656">
        <ele>1725.1999511719</ele>
        <time>2016-07-19T14:12:24.000Z</time>
      </trkpt>
      <trkpt lat="44.34155" lon="6.27659">
        <ele>1725.5999755859</ele>
        <time>2016-07-19T14:12:29.000Z</time>
      </trkpt>
      <trkpt lat="44.34163" lon="6.27666">
        <ele>1727</ele>
        <time>2016-07-19T14:12:36.000Z</time>
      </trkpt>
      <trkpt lat="44.34169" lon="6.27675">
        <ele>1729.8000488281</ele>
        <time>2016-07-19T14:12:42.000Z</time>
      </trkpt>
      <trkpt lat="44.34178" lon="6.27685">
        <ele>1732.1999511719</ele>
        <time>2016-07-19T14:12:50.000Z</time>
      </trkpt>
      <trkpt lat="44.34185" lon="6.27685">
        <ele>1731.4000244141</ele>
        <time>2016-07-19T14:12:56.000Z</time>
      </trkpt>
      <trkpt lat="44.34193" lon="6.27682">
        <ele>1729.5999755859</ele>
        <time>2016-07-19T14:13:02.000Z</time>
      </trkpt>
      <trkpt lat="44.34201" lon="6.27683">
        <ele>1729.1999511719</ele>
        <time>2016-07-19T14:13:08.000Z</time>
      </trkpt>
      <trkpt lat="44.34211" lon="6.2769">
        <ele>1731</ele>
        <time>2016-07-19T14:13:15.000Z</time>
      </trkpt>
      <trkpt lat="44.34221" lon="6.27694">
        <ele>1731.8000488281</ele>
        <time>2016-07-19T14:13:22.000Z</time>
      </trkpt>
      <trkpt lat="44.34229" lon="6.27697">
        <ele>1732.4000244141</ele>
        <time>2016-07-19T14:13:28.000Z</time>
      </trkpt>
      <trkpt lat="44.34238" lon="6.27701">
        <ele>1733.1999511719</ele>
        <time>2016-07-19T14:13:34.000Z</time>
      </trkpt>
      <trkpt lat="44.34251" lon="6.27706">
        <ele>1734.1999511719</ele>
        <time>2016-07-19T14:13:43.000Z</time>
      </trkpt>
      <trkpt lat="44.34267" lon="6.2771">
        <ele>1734.1999511719</ele>
        <time>2016-07-19T14:13:54.000Z</time>
      </trkpt>
      <trkpt lat="44.34282" lon="6.27711">
        <ele>1732.5999755859</ele>
        <time>2016-07-19T14:14:05.000Z</time>
      </trkpt>
      <trkpt lat="44.34295" lon="6.2771">
        <ele>1733.1999511719</ele>
        <time>2016-07-19T14:14:14.000Z</time>
      </trkpt>
      <trkpt lat="44.34306" lon="6.27705">
        <ele>1731.5999755859</ele>
        <time>2016-07-19T14:14:23.000Z</time>
      </trkpt>
      <trkpt lat="44.34315" lon="6.27694">
        <ele>1727.1999511719</ele>
        <time>2016-07-19T14:14:32.000Z</time>
      </trkpt>
      <trkpt lat="44.34328" lon="6.27691">
        <ele>1726.5999755859</ele>
        <time>2016-07-19T14:14:41.000Z</time>
      </trkpt>
      <trkpt lat="44.34339" lon="6.27684">
        <ele>1724.5999755859</ele>
        <time>2016-07-19T14:14:49.000Z</time>
      </trkpt>
      <trkpt lat="44.34353" lon="6.27682">
        <ele>1724.5999755859</ele>
        <time>2016-07-19T14:14:58.000Z</time>
      </trkpt>
      <trkpt lat="44.34365" lon="6.27693">
        <ele>1730.1999511719</ele>
        <time>2016-07-19T14:15:08.000Z</time>
      </trkpt>
      <trkpt lat="44.34374" lon="6.27704">
        <ele>1736.4000244141</ele>
        <time>2016-07-19T14:15:16.000Z</time>
      </trkpt>
      <trkpt lat="44.34383" lon="6.27717">
        <ele>1743.4000244141</ele>
        <time>2016-07-19T14:15:25.000Z</time>
      </trkpt>
      <trkpt lat="44.34395" lon="6.27721">
        <ele>1746.1999511719</ele>
        <time>2016-07-19T14:15:33.000Z</time>
      </trkpt>
      <trkpt lat="44.3441" lon="6.27717">
        <ele>1746.1999511719</ele>
        <time>2016-07-19T14:15:44.000Z</time>
      </trkpt>
      <trkpt lat="44.34422" lon="6.27714">
        <ele>1746.1999511719</ele>
        <time>2016-07-19T14:15:53.000Z</time>
      </trkpt>
      <trkpt lat="44.34431" lon="6.27705">
        <ele>1741.8000488281</ele>
        <time>2016-07-19T14:16:01.000Z</time>
      </trkpt>
      <trkpt lat="44.34443" lon="6.27691">
        <ele>1733.4000244141</ele>
        <time>2016-07-19T14:16:12.000Z</time>
      </trkpt>
      <trkpt lat="44.34456" lon="6.27689">
        <ele>1732.4000244141</ele>
        <time>2016-07-19T14:16:21.000Z</time>
      </trkpt>
      <trkpt lat="44.34458" lon="6.2769">
        <ele>1732.8000488281</ele>
        <time>2016-07-19T14:16:22.000Z</time>
      </trkpt>
      <trkpt lat="44.34463" lon="6.27688">
        <ele>1731.8000488281</ele>
        <time>2016-07-19T14:16:26.000Z</time>
      </trkpt>
      <trkpt lat="44.34464" lon="6.27687">
        <ele>1731.1999511719</ele>
        <time>2016-07-19T14:16:27.000Z</time>
      </trkpt>
      <trkpt lat="44.34474" lon="6.27685">
        <ele>1730.1999511719</ele>
        <time>2016-07-19T14:16:34.000Z</time>
      </trkpt>
      <trkpt lat="44.34481" lon="6.27688">
        <ele>1732.5999755859</ele>
        <time>2016-07-19T14:16:40.000Z</time>
      </trkpt>
      <trkpt lat="44.34484" lon="6.27688">
        <ele>1732.4000244141</ele>
        <time>2016-07-19T14:16:44.000Z</time>
      </trkpt>
      <trkpt lat="44.3449" lon="6.27684">
        <ele>1730.5999755859</ele>
        <time>2016-07-19T14:16:49.000Z</time>
      </trkpt>
      <trkpt lat="44.34499" lon="6.27681">
        <ele>1730.1999511719</ele>
        <time>2016-07-19T14:16:55.000Z</time>
      </trkpt>
      <trkpt lat="44.34512" lon="6.27677">
        <ele>1729.1999511719</ele>
        <time>2016-07-19T14:17:04.000Z</time>
      </trkpt>
      <trkpt lat="44.34517" lon="6.27676">
        <ele>1728.8000488281</ele>
        <time>2016-07-19T14:17:07.000Z</time>
      </trkpt>
      <trkpt lat="44.34528" lon="6.2767">
        <ele>1727</ele>
        <time>2016-07-19T14:17:15.000Z</time>
      </trkpt>
      <trkpt lat="44.34537" lon="6.2767">
        <ele>1725.4000244141</ele>
        <time>2016-07-19T14:17:21.000Z</time>
      </trkpt>
      <trkpt lat="44.34541" lon="6.27668">
        <ele>1723.4000244141</ele>
        <time>2016-07-19T14:17:24.000Z</time>
      </trkpt>
      <trkpt lat="44.34548" lon="6.27664">
        <ele>1719.5999755859</ele>
        <time>2016-07-19T14:17:29.000Z</time>
      </trkpt>
      <trkpt lat="44.34559" lon="6.27658">
        <ele>1718.5999755859</ele>
        <time>2016-07-19T14:17:37.000Z</time>
      </trkpt>
      <trkpt lat="44.34565" lon="6.27651">
        <ele>1717.8000488281</ele>
        <time>2016-07-19T14:17:43.000Z</time>
      </trkpt>
      <trkpt lat="44.34571" lon="6.27647">
        <ele>1717.1999511719</ele>
        <time>2016-07-19T14:17:48.000Z</time>
      </trkpt>
      <trkpt lat="44.34577" lon="6.27644">
        <ele>1716.1999511719</ele>
        <time>2016-07-19T14:17:53.000Z</time>
      </trkpt>
      <trkpt lat="44.34578" lon="6.27643">
        <ele>1715.8000488281</ele>
        <time>2016-07-19T14:17:54.000Z</time>
      </trkpt>
      <trkpt lat="44.3458" lon="6.27641">
        <ele>1715.1999511719</ele>
        <time>2016-07-19T14:17:56.000Z</time>
      </trkpt>
      <trkpt lat="44.34581" lon="6.27639">
        <ele>1714.1999511719</ele>
        <time>2016-07-19T14:17:58.000Z</time>
      </trkpt>
      <trkpt lat="44.34591" lon="6.27633">
        <ele>1712.1999511719</ele>
        <time>2016-07-19T14:18:06.000Z</time>
      </trkpt>
      <trkpt lat="44.34596" lon="6.27629">
        <ele>1710.5999755859</ele>
        <time>2016-07-19T14:18:11.000Z</time>
      </trkpt>
      <trkpt lat="44.34604" lon="6.27622">
        <ele>1710.8000488281</ele>
        <time>2016-07-19T14:18:18.000Z</time>
      </trkpt>
      <trkpt lat="44.34605" lon="6.27621">
        <ele>1711</ele>
        <time>2016-07-19T14:18:19.000Z</time>
      </trkpt>
      <trkpt lat="44.34613" lon="6.27616">
        <ele>1711.5999755859</ele>
        <time>2016-07-19T14:18:26.000Z</time>
      </trkpt>
      <trkpt lat="44.34619" lon="6.27612">
        <ele>1709.5999755859</ele>
        <time>2016-07-19T14:18:31.000Z</time>
      </trkpt>
      <trkpt lat="44.34627" lon="6.2761">
        <ele>1706.5999755859</ele>
        <time>2016-07-19T14:18:36.000Z</time>
      </trkpt>
      <trkpt lat="44.34637" lon="6.27609">
        <ele>1703.1999511719</ele>
        <time>2016-07-19T14:18:43.000Z</time>
      </trkpt>
      <trkpt lat="44.34639" lon="6.27609">
        <ele>1702.8000488281</ele>
        <time>2016-07-19T14:18:44.000Z</time>
      </trkpt>
      <trkpt lat="44.34644" lon="6.27609">
        <ele>1701.1999511719</ele>
        <time>2016-07-19T14:18:48.000Z</time>
      </trkpt>
      <trkpt lat="44.34654" lon="6.27606">
        <ele>1697.4000244141</ele>
        <time>2016-07-19T14:18:55.000Z</time>
      </trkpt>
      <trkpt lat="44.34657" lon="6.27605">
        <ele>1696.4000244141</ele>
        <time>2016-07-19T14:18:57.000Z</time>
      </trkpt>
      <trkpt lat="44.34663" lon="6.27604">
        <ele>1696.5999755859</ele>
        <time>2016-07-19T14:19:01.000Z</time>
      </trkpt>
      <trkpt lat="44.34675" lon="6.27604">
        <ele>1696.5999755859</ele>
        <time>2016-07-19T14:19:09.000Z</time>
      </trkpt>
      <trkpt lat="44.34679" lon="6.27604">
        <ele>1696.5999755859</ele>
        <time>2016-07-19T14:19:15.000Z</time>
      </trkpt>
      <trkpt lat="44.34683" lon="6.27603">
        <ele>1696.5999755859</ele>
        <time>2016-07-19T14:19:33.000Z</time>
      </trkpt>
      <trkpt lat="44.34686" lon="6.276">
        <ele>1696.8000488281</ele>
        <time>2016-07-19T14:20:50.000Z</time>
      </trkpt>
      <trkpt lat="44.34686" lon="6.27601">
        <ele>1696.8000488281</ele>
        <time>2016-07-19T14:20:58.000Z</time>
      </trkpt>
      <trkpt lat="44.34687" lon="6.276">
        <ele>1696.8000488281</ele>
        <time>2016-07-19T14:21:08.000Z</time>
      </trkpt>
      <trkpt lat="44.3469" lon="6.27601">
        <ele>1696.8000488281</ele>
        <time>2016-07-19T14:21:13.000Z</time>
      </trkpt>
      <trkpt lat="44.34696" lon="6.27602">
        <ele>1696.8000488281</ele>
        <time>2016-07-19T14:21:20.000Z</time>
      </trkpt>
      <trkpt lat="44.34699" lon="6.27601">
        <ele>1696.4000244141</ele>
        <time>2016-07-19T14:21:23.000Z</time>
      </trkpt>
      <trkpt lat="44.34702" lon="6.27602">
        <ele>1695.4000244141</ele>
        <time>2016-07-19T14:21:28.000Z</time>
      </trkpt>
      <trkpt lat="44.34708" lon="6.27603">
        <ele>1693.8000488281</ele>
        <time>2016-07-19T14:21:35.000Z</time>
      </trkpt>
      <trkpt lat="44.34715" lon="6.27604">
        <ele>1691.5999755859</ele>
        <time>2016-07-19T14:21:42.000Z</time>
      </trkpt>
      <trkpt lat="44.34718" lon="6.27605">
        <ele>1690.5999755859</ele>
        <time>2016-07-19T14:21:45.000Z</time>
      </trkpt>
      <trkpt lat="44.34726" lon="6.27606">
        <ele>1688.1999511719</ele>
        <time>2016-07-19T14:21:52.000Z</time>
      </trkpt>
      <trkpt lat="44.34733" lon="6.27606">
        <ele>1686.1999511719</ele>
        <time>2016-07-19T14:21:59.000Z</time>
      </trkpt>
      <trkpt lat="44.34738" lon="6.27608">
        <ele>1684.4000244141</ele>
        <time>2016-07-19T14:22:05.000Z</time>
      </trkpt>
      <trkpt lat="44.34747" lon="6.27608">
        <ele>1683</ele>
        <time>2016-07-19T14:22:11.000Z</time>
      </trkpt>
      <trkpt lat="44.34753" lon="6.27607">
        <ele>1682.8000488281</ele>
        <time>2016-07-19T14:22:17.000Z</time>
      </trkpt>
      <trkpt lat="44.34761" lon="6.27606">
        <ele>1682.4000244141</ele>
        <time>2016-07-19T14:22:25.000Z</time>
      </trkpt>
      <trkpt lat="44.34764" lon="6.27606">
        <ele>1682.1999511719</ele>
        <time>2016-07-19T14:22:27.000Z</time>
      </trkpt>
      <trkpt lat="44.34773" lon="6.27606">
        <ele>1681.8000488281</ele>
        <time>2016-07-19T14:22:35.000Z</time>
      </trkpt>
      <trkpt lat="44.34778" lon="6.27605">
        <ele>1681.4000244141</ele>
        <time>2016-07-19T14:22:39.000Z</time>
      </trkpt>
      <trkpt lat="44.34785" lon="6.27604">
        <ele>1681.1999511719</ele>
        <time>2016-07-19T14:22:46.000Z</time>
      </trkpt>
      <trkpt lat="44.34793" lon="6.27604">
        <ele>1679.8000488281</ele>
        <time>2016-07-19T14:22:52.000Z</time>
      </trkpt>
      <trkpt lat="44.34794" lon="6.27603">
        <ele>1679.5999755859</ele>
        <time>2016-07-19T14:22:53.000Z</time>
      </trkpt>
      <trkpt lat="44.34813" lon="6.27603">
        <ele>1676.8000488281</ele>
        <time>2016-07-19T14:23:08.000Z</time>
      </trkpt>
      <trkpt lat="44.34822" lon="6.27601">
        <ele>1675.5999755859</ele>
        <time>2016-07-19T14:23:15.000Z</time>
      </trkpt>
      <trkpt lat="44.3483" lon="6.27599">
        <ele>1674.8000488281</ele>
        <time>2016-07-19T14:23:21.000Z</time>
      </trkpt>
      <trkpt lat="44.34842" lon="6.27597">
        <ele>1674</ele>
        <time>2016-07-19T14:23:30.000Z</time>
      </trkpt>
      <trkpt lat="44.34849" lon="6.27593">
        <ele>1673.8000488281</ele>
        <time>2016-07-19T14:23:35.000Z</time>
      </trkpt>
      <trkpt lat="44.34859" lon="6.27589">
        <ele>1673.8000488281</ele>
        <time>2016-07-19T14:23:42.000Z</time>
      </trkpt>
      <trkpt lat="44.34863" lon="6.27586">
        <ele>1673.8000488281</ele>
        <time>2016-07-19T14:23:45.000Z</time>
      </trkpt>
      <trkpt lat="44.34869" lon="6.27584">
        <ele>1674</ele>
        <time>2016-07-19T14:23:49.000Z</time>
      </trkpt>
      <trkpt lat="44.34874" lon="6.27581">
        <ele>1674.5999755859</ele>
        <time>2016-07-19T14:23:53.000Z</time>
      </trkpt>
      <trkpt lat="44.34878" lon="6.27572">
        <ele>1676.5999755859</ele>
        <time>2016-07-19T14:23:59.000Z</time>
      </trkpt>
      <trkpt lat="44.34882" lon="6.27558">
        <ele>1677.8000488281</ele>
        <time>2016-07-19T14:24:07.000Z</time>
      </trkpt>
      <trkpt lat="44.34884" lon="6.27545">
        <ele>1677.5999755859</ele>
        <time>2016-07-19T14:24:14.000Z</time>
      </trkpt>
      <trkpt lat="44.34886" lon="6.27529">
        <ele>1677.4000244141</ele>
        <time>2016-07-19T14:24:23.000Z</time>
      </trkpt>
      <trkpt lat="44.34885" lon="6.27518">
        <ele>1677.8000488281</ele>
        <time>2016-07-19T14:24:30.000Z</time>
      </trkpt>
      <trkpt lat="44.34881" lon="6.27505">
        <ele>1678.5999755859</ele>
        <time>2016-07-19T14:24:38.000Z</time>
      </trkpt>
      <trkpt lat="44.34876" lon="6.27493">
        <ele>1679.8000488281</ele>
        <time>2016-07-19T14:24:46.000Z</time>
      </trkpt>
      <trkpt lat="44.34865" lon="6.27473">
        <ele>1680.8000488281</ele>
        <time>2016-07-19T14:25:01.000Z</time>
      </trkpt>
      <trkpt lat="44.34859" lon="6.27462">
        <ele>1679</ele>
        <time>2016-07-19T14:25:09.000Z</time>
      </trkpt>
      <trkpt lat="44.34852" lon="6.2745">
        <ele>1676.5999755859</ele>
        <time>2016-07-19T14:25:17.000Z</time>
      </trkpt>
      <trkpt lat="44.34845" lon="6.27439">
        <ele>1674.4000244141</ele>
        <time>2016-07-19T14:25:25.000Z</time>
      </trkpt>
      <trkpt lat="44.34839" lon="6.2743">
        <ele>1672.5999755859</ele>
        <time>2016-07-19T14:25:32.000Z</time>
      </trkpt>
      <trkpt lat="44.34836" lon="6.27424">
        <ele>1671.5999755859</ele>
        <time>2016-07-19T14:25:36.000Z</time>
      </trkpt>
      <trkpt lat="44.34831" lon="6.27413">
        <ele>1669.5999755859</ele>
        <time>2016-07-19T14:25:44.000Z</time>
      </trkpt>
      <trkpt lat="44.34829" lon="6.27404">
        <ele>1668.1999511719</ele>
        <time>2016-07-19T14:25:49.000Z</time>
      </trkpt>
      <trkpt lat="44.34829" lon="6.27403">
        <ele>1667.8000488281</ele>
        <time>2016-07-19T14:25:50.000Z</time>
      </trkpt>
      <trkpt lat="44.34829" lon="6.27397">
        <ele>1667</ele>
        <time>2016-07-19T14:25:53.000Z</time>
      </trkpt>
      <trkpt lat="44.34834" lon="6.27385">
        <ele>1662</ele>
        <time>2016-07-19T14:26:02.000Z</time>
      </trkpt>
      <trkpt lat="44.34839" lon="6.2738">
        <ele>1659.8000488281</ele>
        <time>2016-07-19T14:26:07.000Z</time>
      </trkpt>
      <trkpt lat="44.34843" lon="6.27377">
        <ele>1658.8000488281</ele>
        <time>2016-07-19T14:26:11.000Z</time>
      </trkpt>
      <trkpt lat="44.34853" lon="6.27371">
        <ele>1659.8000488281</ele>
        <time>2016-07-19T14:26:19.000Z</time>
      </trkpt>
      <trkpt lat="44.34857" lon="6.27368">
        <ele>1660.1999511719</ele>
        <time>2016-07-19T14:26:24.000Z</time>
      </trkpt>
      <trkpt lat="44.34859" lon="6.27368">
        <ele>1660.5999755859</ele>
        <time>2016-07-19T14:26:25.000Z</time>
      </trkpt>
      <trkpt lat="44.34867" lon="6.27361">
        <ele>1659.5999755859</ele>
        <time>2016-07-19T14:26:32.000Z</time>
      </trkpt>
      <trkpt lat="44.34871" lon="6.27356">
        <ele>1657.1999511719</ele>
        <time>2016-07-19T14:26:37.000Z</time>
      </trkpt>
      <trkpt lat="44.34876" lon="6.27354">
        <ele>1655</ele>
        <time>2016-07-19T14:26:42.000Z</time>
      </trkpt>
      <trkpt lat="44.34885" lon="6.27348">
        <ele>1651</ele>
        <time>2016-07-19T14:26:49.000Z</time>
      </trkpt>
      <trkpt lat="44.34892" lon="6.27345">
        <ele>1648</ele>
        <time>2016-07-19T14:26:56.000Z</time>
      </trkpt>
      <trkpt lat="44.34895" lon="6.27343">
        <ele>1646.8000488281</ele>
        <time>2016-07-19T14:27:00.000Z</time>
      </trkpt>
      <trkpt lat="44.34903" lon="6.27343">
        <ele>1646.1999511719</ele>
        <time>2016-07-19T14:27:07.000Z</time>
      </trkpt>
      <trkpt lat="44.34909" lon="6.27342">
        <ele>1645.8000488281</ele>
        <time>2016-07-19T14:27:11.000Z</time>
      </trkpt>
      <trkpt lat="44.34918" lon="6.27339">
        <ele>1645.1999511719</ele>
        <time>2016-07-19T14:27:19.000Z</time>
      </trkpt>
      <trkpt lat="44.34922" lon="6.27338">
        <ele>1644.8000488281</ele>
        <time>2016-07-19T14:27:22.000Z</time>
      </trkpt>
      <trkpt lat="44.34926" lon="6.27337">
        <ele>1644.5999755859</ele>
        <time>2016-07-19T14:27:26.000Z</time>
      </trkpt>
      <trkpt lat="44.3493" lon="6.27335">
        <ele>1644.1999511719</ele>
        <time>2016-07-19T14:27:29.000Z</time>
      </trkpt>
      <trkpt lat="44.34938" lon="6.27333">
        <ele>1643.5999755859</ele>
        <time>2016-07-19T14:27:36.000Z</time>
      </trkpt>
      <trkpt lat="44.34943" lon="6.27328">
        <ele>1643.4000244141</ele>
        <time>2016-07-19T14:27:41.000Z</time>
      </trkpt>
      <trkpt lat="44.34945" lon="6.27326">
        <ele>1643.1999511719</ele>
        <time>2016-07-19T14:27:43.000Z</time>
      </trkpt>
      <trkpt lat="44.34963" lon="6.27316">
        <ele>1639.5999755859</ele>
        <time>2016-07-19T14:27:58.000Z</time>
      </trkpt>
      <trkpt lat="44.34973" lon="6.2731">
        <ele>1637.1999511719</ele>
        <time>2016-07-19T14:28:06.000Z</time>
      </trkpt>
      <trkpt lat="44.34975" lon="6.27309">
        <ele>1637</ele>
        <time>2016-07-19T14:28:07.000Z</time>
      </trkpt>
      <trkpt lat="44.34982" lon="6.27304">
        <ele>1635.4000244141</ele>
        <time>2016-07-19T14:28:13.000Z</time>
      </trkpt>
      <trkpt lat="44.34994" lon="6.27297">
        <ele>1632.8000488281</ele>
        <time>2016-07-19T14:28:22.000Z</time>
      </trkpt>
      <trkpt lat="44.35002" lon="6.27293">
        <ele>1631</ele>
        <time>2016-07-19T14:28:29.000Z</time>
      </trkpt>
      <trkpt lat="44.35005" lon="6.27292">
        <ele>1630.4000244141</ele>
        <time>2016-07-19T14:28:31.000Z</time>
      </trkpt>
      <trkpt lat="44.35011" lon="6.27289">
        <ele>1629.8000488281</ele>
        <time>2016-07-19T14:28:37.000Z</time>
      </trkpt>
      <trkpt lat="44.35012" lon="6.27289">
        <ele>1629.8000488281</ele>
        <time>2016-07-19T14:28:38.000Z</time>
      </trkpt>
      <trkpt lat="44.35019" lon="6.27287">
        <ele>1630</ele>
        <time>2016-07-19T14:28:44.000Z</time>
      </trkpt>
      <trkpt lat="44.35024" lon="6.27285">
        <ele>1630.1999511719</ele>
        <time>2016-07-19T14:28:49.000Z</time>
      </trkpt>
      <trkpt lat="44.35025" lon="6.27284">
        <ele>1630.1999511719</ele>
        <time>2016-07-19T14:28:50.000Z</time>
      </trkpt>
      <trkpt lat="44.35031" lon="6.2728">
        <ele>1630.8000488281</ele>
        <time>2016-07-19T14:28:55.000Z</time>
      </trkpt>
      <trkpt lat="44.35043" lon="6.27273">
        <ele>1628.8000488281</ele>
        <time>2016-07-19T14:29:06.000Z</time>
      </trkpt>
      <trkpt lat="44.35044" lon="6.27273">
        <ele>1628.5999755859</ele>
        <time>2016-07-19T14:29:07.000Z</time>
      </trkpt>
      <trkpt lat="44.35049" lon="6.27272">
        <ele>1627.5999755859</ele>
        <time>2016-07-19T14:29:12.000Z</time>
      </trkpt>
      <trkpt lat="44.35053" lon="6.27271">
        <ele>1626.4000244141</ele>
        <time>2016-07-19T14:29:16.000Z</time>
      </trkpt>
      <trkpt lat="44.35066" lon="6.27273">
        <ele>1622.5999755859</ele>
        <time>2016-07-19T14:29:26.000Z</time>
      </trkpt>
      <trkpt lat="44.35067" lon="6.27273">
        <ele>1622.1999511719</ele>
        <time>2016-07-19T14:29:27.000Z</time>
      </trkpt>
      <trkpt lat="44.35073" lon="6.27276">
        <ele>1620</ele>
        <time>2016-07-19T14:29:32.000Z</time>
      </trkpt>
      <trkpt lat="44.35081" lon="6.2728">
        <ele>1616.8000488281</ele>
        <time>2016-07-19T14:29:39.000Z</time>
      </trkpt>
      <trkpt lat="44.35092" lon="6.27286">
        <ele>1612.5999755859</ele>
        <time>2016-07-19T14:29:48.000Z</time>
      </trkpt>
      <trkpt lat="44.35101" lon="6.2729">
        <ele>1609.5999755859</ele>
        <time>2016-07-19T14:29:56.000Z</time>
      </trkpt>
      <trkpt lat="44.35111" lon="6.27291">
        <ele>1606.5999755859</ele>
        <time>2016-07-19T14:30:04.000Z</time>
      </trkpt>
      <trkpt lat="44.35114" lon="6.27292">
        <ele>1605.8000488281</ele>
        <time>2016-07-19T14:30:06.000Z</time>
      </trkpt>
      <trkpt lat="44.35119" lon="6.27292">
        <ele>1605.5999755859</ele>
        <time>2016-07-19T14:30:10.000Z</time>
      </trkpt>
      <trkpt lat="44.35123" lon="6.27292">
        <ele>1605.4000244141</ele>
        <time>2016-07-19T14:30:13.000Z</time>
      </trkpt>
      <trkpt lat="44.35133" lon="6.27293">
        <ele>1604.5999755859</ele>
        <time>2016-07-19T14:30:22.000Z</time>
      </trkpt>
      <trkpt lat="44.35141" lon="6.27295">
        <ele>1603.8000488281</ele>
        <time>2016-07-19T14:30:31.000Z</time>
      </trkpt>
      <trkpt lat="44.35151" lon="6.27298">
        <ele>1602.5999755859</ele>
        <time>2016-07-19T14:30:40.000Z</time>
      </trkpt>
      <trkpt lat="44.3516" lon="6.27301">
        <ele>1601.5999755859</ele>
        <time>2016-07-19T14:30:47.000Z</time>
      </trkpt>
      <trkpt lat="44.35175" lon="6.27315">
        <ele>1597.8000488281</ele>
        <time>2016-07-19T14:31:00.000Z</time>
      </trkpt>
      <trkpt lat="44.35183" lon="6.27332">
        <ele>1594.5999755859</ele>
        <time>2016-07-19T14:31:11.000Z</time>
      </trkpt>
      <trkpt lat="44.3519" lon="6.27346">
        <ele>1592.1999511719</ele>
        <time>2016-07-19T14:31:20.000Z</time>
      </trkpt>
      <trkpt lat="44.35196" lon="6.27358">
        <ele>1590</ele>
        <time>2016-07-19T14:31:28.000Z</time>
      </trkpt>
      <trkpt lat="44.35203" lon="6.27368">
        <ele>1588.5999755859</ele>
        <time>2016-07-19T14:31:36.000Z</time>
      </trkpt>
      <trkpt lat="44.35211" lon="6.27374">
        <ele>1588</ele>
        <time>2016-07-19T14:31:43.000Z</time>
      </trkpt>
      <trkpt lat="44.35218" lon="6.27382">
        <ele>1587.1999511719</ele>
        <time>2016-07-19T14:31:50.000Z</time>
      </trkpt>
      <trkpt lat="44.35227" lon="6.27391">
        <ele>1586.1999511719</ele>
        <time>2016-07-19T14:31:58.000Z</time>
      </trkpt>
      <trkpt lat="44.35233" lon="6.27398">
        <ele>1585.5999755859</ele>
        <time>2016-07-19T14:32:04.000Z</time>
      </trkpt>
      <trkpt lat="44.3524" lon="6.27408">
        <ele>1585.1999511719</ele>
        <time>2016-07-19T14:32:12.000Z</time>
      </trkpt>
      <trkpt lat="44.35245" lon="6.27412">
        <ele>1585.1999511719</ele>
        <time>2016-07-19T14:32:16.000Z</time>
      </trkpt>
      <trkpt lat="44.35253" lon="6.2742">
        <ele>1585</ele>
        <time>2016-07-19T14:32:24.000Z</time>
      </trkpt>
      <trkpt lat="44.35257" lon="6.27426">
        <ele>1584.8000488281</ele>
        <time>2016-07-19T14:32:29.000Z</time>
      </trkpt>
      <trkpt lat="44.35259" lon="6.27432">
        <ele>1584.4000244141</ele>
        <time>2016-07-19T14:32:35.000Z</time>
      </trkpt>
      <trkpt lat="44.35261" lon="6.27437">
        <ele>1584.1999511719</ele>
        <time>2016-07-19T14:32:39.000Z</time>
      </trkpt>
      <trkpt lat="44.35265" lon="6.27441">
        <ele>1584</ele>
        <time>2016-07-19T14:32:44.000Z</time>
      </trkpt>
      <trkpt lat="44.35265" lon="6.27443">
        <ele>1584</ele>
        <time>2016-07-19T14:32:45.000Z</time>
      </trkpt>
      <trkpt lat="44.35266" lon="6.27447">
        <ele>1583.5999755859</ele>
        <time>2016-07-19T14:32:48.000Z</time>
      </trkpt>
      <trkpt lat="44.35268" lon="6.27452">
        <ele>1583.4000244141</ele>
        <time>2016-07-19T14:32:51.000Z</time>
      </trkpt>
      <trkpt lat="44.35268" lon="6.27458">
        <ele>1583</ele>
        <time>2016-07-19T14:32:59.000Z</time>
      </trkpt>
      <trkpt lat="44.35269" lon="6.27461">
        <ele>1582.8000488281</ele>
        <time>2016-07-19T14:33:05.000Z</time>
      </trkpt>
      <trkpt lat="44.35269" lon="6.27459">
        <ele>1582.8000488281</ele>
        <time>2016-07-19T14:33:10.000Z</time>
      </trkpt>
      <trkpt lat="44.35274" lon="6.27466">
        <ele>1582.5999755859</ele>
        <time>2016-07-19T14:33:16.000Z</time>
      </trkpt>
      <trkpt lat="44.35279" lon="6.27479">
        <ele>1582</ele>
        <time>2016-07-19T14:33:23.000Z</time>
      </trkpt>
      <trkpt lat="44.35285" lon="6.27494">
        <ele>1580.5999755859</ele>
        <time>2016-07-19T14:33:32.000Z</time>
      </trkpt>
      <trkpt lat="44.35285" lon="6.27498">
        <ele>1580.1999511719</ele>
        <time>2016-07-19T14:33:35.000Z</time>
      </trkpt>
      <trkpt lat="44.35288" lon="6.27506">
        <ele>1579.4000244141</ele>
        <time>2016-07-19T14:33:42.000Z</time>
      </trkpt>
      <trkpt lat="44.35287" lon="6.27507">
        <ele>1579.4000244141</ele>
        <time>2016-07-19T14:34:14.000Z</time>
      </trkpt>
      <trkpt lat="44.35285" lon="6.27507">
        <ele>1579.1999511719</ele>
        <time>2016-07-19T14:34:26.000Z</time>
      </trkpt>
      <trkpt lat="44.35286" lon="6.27508">
        <ele>1579</ele>
        <time>2016-07-19T14:34:28.000Z</time>
      </trkpt>
      <trkpt lat="44.3529" lon="6.27526">
        <ele>1577.1999511719</ele>
        <time>2016-07-19T14:34:37.000Z</time>
      </trkpt>
      <trkpt lat="44.35294" lon="6.27544">
        <ele>1575.5999755859</ele>
        <time>2016-07-19T14:34:46.000Z</time>
      </trkpt>
      <trkpt lat="44.35301" lon="6.27565">
        <ele>1573.8000488281</ele>
        <time>2016-07-19T14:34:57.000Z</time>
      </trkpt>
      <trkpt lat="44.35306" lon="6.2758">
        <ele>1572.4000244141</ele>
        <time>2016-07-19T14:35:05.000Z</time>
      </trkpt>
      <trkpt lat="44.35308" lon="6.27592">
        <ele>1571.1999511719</ele>
        <time>2016-07-19T14:35:11.000Z</time>
      </trkpt>
      <trkpt lat="44.35311" lon="6.27605">
        <ele>1570</ele>
        <time>2016-07-19T14:35:18.000Z</time>
      </trkpt>
      <trkpt lat="44.35312" lon="6.27613">
        <ele>1569.1999511719</ele>
        <time>2016-07-19T14:35:22.000Z</time>
      </trkpt>
      <trkpt lat="44.35315" lon="6.27625">
        <ele>1568.1999511719</ele>
        <time>2016-07-19T14:35:28.000Z</time>
      </trkpt>
      <trkpt lat="44.35314" lon="6.27638">
        <ele>1566.8000488281</ele>
        <time>2016-07-19T14:35:35.000Z</time>
      </trkpt>
      <trkpt lat="44.35307" lon="6.2764">
        <ele>1565.8000488281</ele>
        <time>2016-07-19T14:35:42.000Z</time>
      </trkpt>
      <trkpt lat="44.35307" lon="6.27641">
        <ele>1565.8000488281</ele>
        <time>2016-07-19T14:35:51.000Z</time>
      </trkpt>
      <trkpt lat="44.35308" lon="6.27643">
        <ele>1565.5999755859</ele>
        <time>2016-07-19T14:35:59.000Z</time>
      </trkpt>
      <trkpt lat="44.35298" lon="6.2763">
        <ele>1566.1999511719</ele>
        <time>2016-07-19T14:36:41.000Z</time>
      </trkpt>
      <trkpt lat="44.35293" lon="6.27621">
        <ele>1566.8000488281</ele>
        <time>2016-07-19T14:36:47.000Z</time>
      </trkpt>
      <trkpt lat="44.35287" lon="6.27612">
        <ele>1567.1999511719</ele>
        <time>2016-07-19T14:36:53.000Z</time>
      </trkpt>
      <trkpt lat="44.35279" lon="6.27602">
        <ele>1568</ele>
        <time>2016-07-19T14:37:01.000Z</time>
      </trkpt>
      <trkpt lat="44.35272" lon="6.27596">
        <ele>1569.4000244141</ele>
        <time>2016-07-19T14:37:07.000Z</time>
      </trkpt>
      <trkpt lat="44.35265" lon="6.2759">
        <ele>1570.8000488281</ele>
        <time>2016-07-19T14:37:13.000Z</time>
      </trkpt>
      <trkpt lat="44.35257" lon="6.27583">
        <ele>1572.4000244141</ele>
        <time>2016-07-19T14:37:20.000Z</time>
      </trkpt>
      <trkpt lat="44.35251" lon="6.27578">
        <ele>1573.5999755859</ele>
        <time>2016-07-19T14:37:25.000Z</time>
      </trkpt>
      <trkpt lat="44.35249" lon="6.27576">
        <ele>1574</ele>
        <time>2016-07-19T14:37:31.000Z</time>
      </trkpt>
      <trkpt lat="44.35245" lon="6.27571">
        <ele>1575</ele>
        <time>2016-07-19T14:37:38.000Z</time>
      </trkpt>
      <trkpt lat="44.35237" lon="6.2756">
        <ele>1576.8000488281</ele>
        <time>2016-07-19T14:37:46.000Z</time>
      </trkpt>
      <trkpt lat="44.35232" lon="6.27556">
        <ele>1577.4000244141</ele>
        <time>2016-07-19T14:37:50.000Z</time>
      </trkpt>
      <trkpt lat="44.35223" lon="6.27543">
        <ele>1578.5999755859</ele>
        <time>2016-07-19T14:37:59.000Z</time>
      </trkpt>
      <trkpt lat="44.35211" lon="6.2753">
        <ele>1580</ele>
        <time>2016-07-19T14:38:09.000Z</time>
      </trkpt>
      <trkpt lat="44.3521" lon="6.27529">
        <ele>1580</ele>
        <time>2016-07-19T14:38:10.000Z</time>
      </trkpt>
      <trkpt lat="44.35197" lon="6.27538">
        <ele>1581.5999755859</ele>
        <time>2016-07-19T14:38:22.000Z</time>
      </trkpt>
      <trkpt lat="44.35194" lon="6.27549">
        <ele>1582.5999755859</ele>
        <time>2016-07-19T14:38:29.000Z</time>
      </trkpt>
      <trkpt lat="44.35192" lon="6.27568">
        <ele>1583.1999511719</ele>
        <time>2016-07-19T14:38:34.000Z</time>
      </trkpt>
      <trkpt lat="44.35191" lon="6.27594">
        <ele>1583.5999755859</ele>
        <time>2016-07-19T14:38:39.000Z</time>
      </trkpt>
      <trkpt lat="44.35188" lon="6.27621">
        <ele>1584.8000488281</ele>
        <time>2016-07-19T14:38:43.000Z</time>
      </trkpt>
      <trkpt lat="44.35184" lon="6.27638">
        <ele>1586.8000488281</ele>
        <time>2016-07-19T14:38:46.000Z</time>
      </trkpt>
      <trkpt lat="44.35181" lon="6.27665">
        <ele>1588.4000244141</ele>
        <time>2016-07-19T14:38:50.000Z</time>
      </trkpt>
      <trkpt lat="44.35181" lon="6.27679">
        <ele>1588.5999755859</ele>
        <time>2016-07-19T14:38:52.000Z</time>
      </trkpt>
      <trkpt lat="44.35177" lon="6.27706">
        <ele>1590.1999511719</ele>
        <time>2016-07-19T14:38:56.000Z</time>
      </trkpt>
      <trkpt lat="44.35167" lon="6.27737">
        <ele>1592</ele>
        <time>2016-07-19T14:39:01.000Z</time>
      </trkpt>
      <trkpt lat="44.35147" lon="6.27772">
        <ele>1594.8000488281</ele>
        <time>2016-07-19T14:39:09.000Z</time>
      </trkpt>
      <trkpt lat="44.35141" lon="6.27782">
        <ele>1596.1999511719</ele>
        <time>2016-07-19T14:39:12.000Z</time>
      </trkpt>
      <trkpt lat="44.35133" lon="6.27803">
        <ele>1597.5999755859</ele>
        <time>2016-07-19T14:39:19.000Z</time>
      </trkpt>
      <trkpt lat="44.3513" lon="6.27815">
        <ele>1598</ele>
        <time>2016-07-19T14:39:25.000Z</time>
      </trkpt>
      <trkpt lat="44.35128" lon="6.27826">
        <ele>1597.1999511719</ele>
        <time>2016-07-19T14:39:31.000Z</time>
      </trkpt>
      <trkpt lat="44.35125" lon="6.27839">
        <ele>1596.8000488281</ele>
        <time>2016-07-19T14:39:38.000Z</time>
      </trkpt>
      <trkpt lat="44.35123" lon="6.27848">
        <ele>1596.5999755859</ele>
        <time>2016-07-19T14:39:43.000Z</time>
      </trkpt>
      <trkpt lat="44.35121" lon="6.27857">
        <ele>1596.1999511719</ele>
        <time>2016-07-19T14:39:48.000Z</time>
      </trkpt>
      <trkpt lat="44.3512" lon="6.27859">
        <ele>1596.1999511719</ele>
        <time>2016-07-19T14:39:49.000Z</time>
      </trkpt>
      <trkpt lat="44.35115" lon="6.27875">
        <ele>1596.5999755859</ele>
        <time>2016-07-19T14:39:59.000Z</time>
      </trkpt>
      <trkpt lat="44.35108" lon="6.27891">
        <ele>1595.1999511719</ele>
        <time>2016-07-19T14:40:10.000Z</time>
      </trkpt>
      <trkpt lat="44.35102" lon="6.27905">
        <ele>1590.5999755859</ele>
        <time>2016-07-19T14:40:19.000Z</time>
      </trkpt>
      <trkpt lat="44.35098" lon="6.27911">
        <ele>1588.5999755859</ele>
        <time>2016-07-19T14:40:25.000Z</time>
      </trkpt>
      <trkpt lat="44.35092" lon="6.27921">
        <ele>1585.1999511719</ele>
        <time>2016-07-19T14:40:29.000Z</time>
      </trkpt>
      <trkpt lat="44.3508" lon="6.2793">
        <ele>1582</ele>
        <time>2016-07-19T14:40:35.000Z</time>
      </trkpt>
      <trkpt lat="44.3507" lon="6.27932">
        <ele>1580.8000488281</ele>
        <time>2016-07-19T14:40:41.000Z</time>
      </trkpt>
      <trkpt lat="44.3506" lon="6.27931">
        <ele>1581</ele>
        <time>2016-07-19T14:40:48.000Z</time>
      </trkpt>
      <trkpt lat="44.35052" lon="6.2793">
        <ele>1581</ele>
        <time>2016-07-19T14:40:54.000Z</time>
      </trkpt>
      <trkpt lat="44.35039" lon="6.27926">
        <ele>1582.1999511719</ele>
        <time>2016-07-19T14:41:00.000Z</time>
      </trkpt>
      <trkpt lat="44.35025" lon="6.27922">
        <ele>1583.4000244141</ele>
        <time>2016-07-19T14:41:05.000Z</time>
      </trkpt>
      <trkpt lat="44.35009" lon="6.27916">
        <ele>1586.4000244141</ele>
        <time>2016-07-19T14:41:11.000Z</time>
      </trkpt>
      <trkpt lat="44.34992" lon="6.27907">
        <ele>1590.5999755859</ele>
        <time>2016-07-19T14:41:17.000Z</time>
      </trkpt>
      <trkpt lat="44.34977" lon="6.27893">
        <ele>1595.5999755859</ele>
        <time>2016-07-19T14:41:24.000Z</time>
      </trkpt>
      <trkpt lat="44.34964" lon="6.27878">
        <ele>1598</ele>
        <time>2016-07-19T14:41:30.000Z</time>
      </trkpt>
      <trkpt lat="44.34956" lon="6.27866">
        <ele>1599.8000488281</ele>
        <time>2016-07-19T14:41:34.000Z</time>
      </trkpt>
      <trkpt lat="44.34943" lon="6.27844">
        <ele>1604.1999511719</ele>
        <time>2016-07-19T14:41:40.000Z</time>
      </trkpt>
      <trkpt lat="44.34929" lon="6.27825">
        <ele>1611.5999755859</ele>
        <time>2016-07-19T14:41:46.000Z</time>
      </trkpt>
      <trkpt lat="44.34913" lon="6.2781">
        <ele>1618.5999755859</ele>
        <time>2016-07-19T14:41:52.000Z</time>
      </trkpt>
      <trkpt lat="44.3491" lon="6.27809">
        <ele>1620</ele>
        <time>2016-07-19T14:41:53.000Z</time>
      </trkpt>
      <trkpt lat="44.34902" lon="6.27815">
        <ele>1622.5999755859</ele>
        <time>2016-07-19T14:41:56.000Z</time>
      </trkpt>
      <trkpt lat="44.34901" lon="6.27829">
        <ele>1621.5999755859</ele>
        <time>2016-07-19T14:41:59.000Z</time>
      </trkpt>
      <trkpt lat="44.34902" lon="6.27862">
        <ele>1618.8000488281</ele>
        <time>2016-07-19T14:42:06.000Z</time>
      </trkpt>
      <trkpt lat="44.34903" lon="6.27883">
        <ele>1618.1999511719</ele>
        <time>2016-07-19T14:42:11.000Z</time>
      </trkpt>
      <trkpt lat="44.34902" lon="6.27899">
        <ele>1618</ele>
        <time>2016-07-19T14:42:15.000Z</time>
      </trkpt>
      <trkpt lat="44.34901" lon="6.27907">
        <ele>1617.4000244141</ele>
        <time>2016-07-19T14:42:17.000Z</time>
      </trkpt>
      <trkpt lat="44.34901" lon="6.27935">
        <ele>1614.4000244141</ele>
        <time>2016-07-19T14:42:24.000Z</time>
      </trkpt>
      <trkpt lat="44.349" lon="6.2796">
        <ele>1609.8000488281</ele>
        <time>2016-07-19T14:42:30.000Z</time>
      </trkpt>
      <trkpt lat="44.34902" lon="6.27982">
        <ele>1605.5999755859</ele>
        <time>2016-07-19T14:42:36.000Z</time>
      </trkpt>
      <trkpt lat="44.349" lon="6.27996">
        <ele>1606</ele>
        <time>2016-07-19T14:42:41.000Z</time>
      </trkpt>
      <trkpt lat="44.34893" lon="6.28006">
        <ele>1608.5999755859</ele>
        <time>2016-07-19T14:42:49.000Z</time>
      </trkpt>
      <trkpt lat="44.34881" lon="6.28013">
        <ele>1612.8000488281</ele>
        <time>2016-07-19T14:42:58.000Z</time>
      </trkpt>
      <trkpt lat="44.34867" lon="6.28014">
        <ele>1618.1999511719</ele>
        <time>2016-07-19T14:43:08.000Z</time>
      </trkpt>
      <trkpt lat="44.34851" lon="6.28016">
        <ele>1625</ele>
        <time>2016-07-19T14:43:19.000Z</time>
      </trkpt>
      <trkpt lat="44.34839" lon="6.28017">
        <ele>1630.8000488281</ele>
        <time>2016-07-19T14:43:28.000Z</time>
      </trkpt>
      <trkpt lat="44.34826" lon="6.28021">
        <ele>1636.1999511719</ele>
        <time>2016-07-19T14:43:37.000Z</time>
      </trkpt>
      <trkpt lat="44.34823" lon="6.28032">
        <ele>1638</ele>
        <time>2016-07-19T14:43:43.000Z</time>
      </trkpt>
      <trkpt lat="44.34831" lon="6.28068">
        <ele>1635.4000244141</ele>
        <time>2016-07-19T14:44:02.000Z</time>
      </trkpt>
      <trkpt lat="44.3484" lon="6.2808">
        <ele>1634</ele>
        <time>2016-07-19T14:44:11.000Z</time>
      </trkpt>
      <trkpt lat="44.34845" lon="6.28092">
        <ele>1634</ele>
        <time>2016-07-19T14:44:19.000Z</time>
      </trkpt>
      <trkpt lat="44.34846" lon="6.28093">
        <ele>1634</ele>
        <time>2016-07-19T14:44:20.000Z</time>
      </trkpt>
      <trkpt lat="44.34853" lon="6.28106">
        <ele>1633</ele>
        <time>2016-07-19T14:44:29.000Z</time>
      </trkpt>
      <trkpt lat="44.34861" lon="6.2812">
        <ele>1632.4000244141</ele>
        <time>2016-07-19T14:44:39.000Z</time>
      </trkpt>
      <trkpt lat="44.34869" lon="6.28132">
        <ele>1632</ele>
        <time>2016-07-19T14:44:47.000Z</time>
      </trkpt>
      <trkpt lat="44.34876" lon="6.28142">
        <ele>1631.1999511719</ele>
        <time>2016-07-19T14:44:54.000Z</time>
      </trkpt>
      <trkpt lat="44.34884" lon="6.28153">
        <ele>1630.5999755859</ele>
        <time>2016-07-19T14:44:59.000Z</time>
      </trkpt>
      <trkpt lat="44.34901" lon="6.28176">
        <ele>1629.4000244141</ele>
        <time>2016-07-19T14:45:06.000Z</time>
      </trkpt>
      <trkpt lat="44.34914" lon="6.28192">
        <ele>1628.1999511719</ele>
        <time>2016-07-19T14:45:11.000Z</time>
      </trkpt>
      <trkpt lat="44.3493" lon="6.2821">
        <ele>1626.1999511719</ele>
        <time>2016-07-19T14:45:17.000Z</time>
      </trkpt>
      <trkpt lat="44.34946" lon="6.28229">
        <ele>1624.4000244141</ele>
        <time>2016-07-19T14:45:23.000Z</time>
      </trkpt>
      <trkpt lat="44.34959" lon="6.28243">
        <ele>1622.5999755859</ele>
        <time>2016-07-19T14:45:28.000Z</time>
      </trkpt>
      <trkpt lat="44.34971" lon="6.28264">
        <ele>1621.4000244141</ele>
        <time>2016-07-19T14:45:34.000Z</time>
      </trkpt>
      <trkpt lat="44.34977" lon="6.28288">
        <ele>1621</ele>
        <time>2016-07-19T14:45:40.000Z</time>
      </trkpt>
      <trkpt lat="44.34977" lon="6.28304">
        <ele>1621.5999755859</ele>
        <time>2016-07-19T14:45:46.000Z</time>
      </trkpt>
      <trkpt lat="44.34974" lon="6.28325">
        <ele>1620.8000488281</ele>
        <time>2016-07-19T14:45:56.000Z</time>
      </trkpt>
      <trkpt lat="44.34965" lon="6.2836">
        <ele>1616</ele>
        <time>2016-07-19T14:46:14.000Z</time>
      </trkpt>
      <trkpt lat="44.34957" lon="6.28367">
        <ele>1615</ele>
        <time>2016-07-19T14:46:21.000Z</time>
      </trkpt>
      <trkpt lat="44.34947" lon="6.28373">
        <ele>1614.5999755859</ele>
        <time>2016-07-19T14:46:29.000Z</time>
      </trkpt>
      <trkpt lat="44.34934" lon="6.28378">
        <ele>1616.1999511719</ele>
        <time>2016-07-19T14:46:38.000Z</time>
      </trkpt>
      <trkpt lat="44.34921" lon="6.28384">
        <ele>1617</ele>
        <time>2016-07-19T14:46:47.000Z</time>
      </trkpt>
      <trkpt lat="44.34908" lon="6.28386">
        <ele>1618.4000244141</ele>
        <time>2016-07-19T14:46:56.000Z</time>
      </trkpt>
      <trkpt lat="44.34893" lon="6.28392">
        <ele>1619</ele>
        <time>2016-07-19T14:47:07.000Z</time>
      </trkpt>
      <trkpt lat="44.34881" lon="6.28397">
        <ele>1619.1999511719</ele>
        <time>2016-07-19T14:47:15.000Z</time>
      </trkpt>
      <trkpt lat="44.34871" lon="6.28401">
        <ele>1618.8000488281</ele>
        <time>2016-07-19T14:47:23.000Z</time>
      </trkpt>
      <trkpt lat="44.34859" lon="6.28411">
        <ele>1614.1999511719</ele>
        <time>2016-07-19T14:47:33.000Z</time>
      </trkpt>
      <trkpt lat="44.34849" lon="6.2842">
        <ele>1609.4000244141</ele>
        <time>2016-07-19T14:47:41.000Z</time>
      </trkpt>
      <trkpt lat="44.34839" lon="6.28426">
        <ele>1605.8000488281</ele>
        <time>2016-07-19T14:47:48.000Z</time>
      </trkpt>
      <trkpt lat="44.3481" lon="6.28443">
        <ele>1598</ele>
        <time>2016-07-19T14:48:09.000Z</time>
      </trkpt>
      <trkpt lat="44.348" lon="6.28447">
        <ele>1597.8000488281</ele>
        <time>2016-07-19T14:48:16.000Z</time>
      </trkpt>
      <trkpt lat="44.34786" lon="6.2845">
        <ele>1598.4000244141</ele>
        <time>2016-07-19T14:48:25.000Z</time>
      </trkpt>
      <trkpt lat="44.34774" lon="6.28448">
        <ele>1600</ele>
        <time>2016-07-19T14:48:33.000Z</time>
      </trkpt>
      <trkpt lat="44.34761" lon="6.28443">
        <ele>1602.1999511719</ele>
        <time>2016-07-19T14:48:42.000Z</time>
      </trkpt>
      <trkpt lat="44.3475" lon="6.28437">
        <ele>1605</ele>
        <time>2016-07-19T14:48:50.000Z</time>
      </trkpt>
      <trkpt lat="44.3474" lon="6.28432">
        <ele>1607</ele>
        <time>2016-07-19T14:48:57.000Z</time>
      </trkpt>
      <trkpt lat="44.34728" lon="6.28427">
        <ele>1609.4000244141</ele>
        <time>2016-07-19T14:49:05.000Z</time>
      </trkpt>
      <trkpt lat="44.34724" lon="6.28423">
        <ele>1610.8000488281</ele>
        <time>2016-07-19T14:49:11.000Z</time>
      </trkpt>
      <trkpt lat="44.34721" lon="6.28422">
        <ele>1612</ele>
        <time>2016-07-19T14:49:36.000Z</time>
      </trkpt>
      <trkpt lat="44.3472" lon="6.28419">
        <ele>1612.5999755859</ele>
        <time>2016-07-19T14:49:58.000Z</time>
      </trkpt>
      <trkpt lat="44.34717" lon="6.28417">
        <ele>1613.4000244141</ele>
        <time>2016-07-19T14:50:38.000Z</time>
      </trkpt>
      <trkpt lat="44.34709" lon="6.28427">
        <ele>1616</ele>
        <time>2016-07-19T14:50:45.000Z</time>
      </trkpt>
      <trkpt lat="44.34703" lon="6.28439">
        <ele>1617.4000244141</ele>
        <time>2016-07-19T14:50:51.000Z</time>
      </trkpt>
      <trkpt lat="44.34701" lon="6.28453">
        <ele>1617.8000488281</ele>
        <time>2016-07-19T14:50:58.000Z</time>
      </trkpt>
      <trkpt lat="44.34701" lon="6.28462">
        <ele>1617.4000244141</ele>
        <time>2016-07-19T14:51:03.000Z</time>
      </trkpt>
      <trkpt lat="44.34705" lon="6.28476">
        <ele>1615.5999755859</ele>
        <time>2016-07-19T14:51:10.000Z</time>
      </trkpt>
      <trkpt lat="44.34709" lon="6.28493">
        <ele>1612.1999511719</ele>
        <time>2016-07-19T14:51:18.000Z</time>
      </trkpt>
      <trkpt lat="44.34713" lon="6.28514">
        <ele>1608.1999511719</ele>
        <time>2016-07-19T14:51:28.000Z</time>
      </trkpt>
      <trkpt lat="44.34716" lon="6.28529">
        <ele>1605.1999511719</ele>
        <time>2016-07-19T14:51:36.000Z</time>
      </trkpt>
      <trkpt lat="44.34719" lon="6.28545">
        <ele>1602</ele>
        <time>2016-07-19T14:51:44.000Z</time>
      </trkpt>
      <trkpt lat="44.34721" lon="6.28559">
        <ele>1599.4000244141</ele>
        <time>2016-07-19T14:51:50.000Z</time>
      </trkpt>
      <trkpt lat="44.34721" lon="6.28573">
        <ele>1596.5999755859</ele>
        <time>2016-07-19T14:51:55.000Z</time>
      </trkpt>
      <trkpt lat="44.34715" lon="6.28589">
        <ele>1594.1999511719</ele>
        <time>2016-07-19T14:52:04.000Z</time>
      </trkpt>
      <trkpt lat="44.34708" lon="6.28598">
        <ele>1593</ele>
        <time>2016-07-19T14:52:11.000Z</time>
      </trkpt>
      <trkpt lat="44.34699" lon="6.28609">
        <ele>1592.4000244141</ele>
        <time>2016-07-19T14:52:19.000Z</time>
      </trkpt>
      <trkpt lat="44.34689" lon="6.28617">
        <ele>1592.8000488281</ele>
        <time>2016-07-19T14:52:27.000Z</time>
      </trkpt>
      <trkpt lat="44.34681" lon="6.28625">
        <ele>1593.1999511719</ele>
        <time>2016-07-19T14:52:34.000Z</time>
      </trkpt>
      <trkpt lat="44.34668" lon="6.28636">
        <ele>1592</ele>
        <time>2016-07-19T14:52:44.000Z</time>
      </trkpt>
      <trkpt lat="44.34656" lon="6.28646">
        <ele>1590.4000244141</ele>
        <time>2016-07-19T14:52:53.000Z</time>
      </trkpt>
      <trkpt lat="44.34644" lon="6.28656">
        <ele>1590</ele>
        <time>2016-07-19T14:53:02.000Z</time>
      </trkpt>
      <trkpt lat="44.34631" lon="6.28667">
        <ele>1589.4000244141</ele>
        <time>2016-07-19T14:53:12.000Z</time>
      </trkpt>
      <trkpt lat="44.3462" lon="6.28676">
        <ele>1589.5999755859</ele>
        <time>2016-07-19T14:53:20.000Z</time>
      </trkpt>
      <trkpt lat="44.34611" lon="6.28684">
        <ele>1589.1999511719</ele>
        <time>2016-07-19T14:53:27.000Z</time>
      </trkpt>
      <trkpt lat="44.34602" lon="6.28696">
        <ele>1587.8000488281</ele>
        <time>2016-07-19T14:53:36.000Z</time>
      </trkpt>
      <trkpt lat="44.34592" lon="6.28714">
        <ele>1583.8000488281</ele>
        <time>2016-07-19T14:53:47.000Z</time>
      </trkpt>
      <trkpt lat="44.34585" lon="6.28735">
        <ele>1579.1999511719</ele>
        <time>2016-07-19T14:53:58.000Z</time>
      </trkpt>
      <trkpt lat="44.34579" lon="6.28747">
        <ele>1578.4000244141</ele>
        <time>2016-07-19T14:54:05.000Z</time>
      </trkpt>
      <trkpt lat="44.34554" lon="6.28764">
        <ele>1581.4000244141</ele>
        <time>2016-07-19T14:54:24.000Z</time>
      </trkpt>
      <trkpt lat="44.34543" lon="6.28767">
        <ele>1584.4000244141</ele>
        <time>2016-07-19T14:54:32.000Z</time>
      </trkpt>
      <trkpt lat="44.34529" lon="6.28774">
        <ele>1587.8000488281</ele>
        <time>2016-07-19T14:54:42.000Z</time>
      </trkpt>
      <trkpt lat="44.34514" lon="6.28779">
        <ele>1591</ele>
        <time>2016-07-19T14:54:52.000Z</time>
      </trkpt>
      <trkpt lat="44.345" lon="6.2878">
        <ele>1594.1999511719</ele>
        <time>2016-07-19T14:55:02.000Z</time>
      </trkpt>
      <trkpt lat="44.34489" lon="6.28786">
        <ele>1599.4000244141</ele>
        <time>2016-07-19T14:55:10.000Z</time>
      </trkpt>
      <trkpt lat="44.34484" lon="6.28799">
        <ele>1603</ele>
        <time>2016-07-19T14:55:17.000Z</time>
      </trkpt>
      <trkpt lat="44.34489" lon="6.28818">
        <ele>1604</ele>
        <time>2016-07-19T14:55:26.000Z</time>
      </trkpt>
      <trkpt lat="44.34499" lon="6.28833">
        <ele>1601.4000244141</ele>
        <time>2016-07-19T14:55:36.000Z</time>
      </trkpt>
      <trkpt lat="44.34515" lon="6.28848">
        <ele>1597.1999511719</ele>
        <time>2016-07-19T14:55:48.000Z</time>
      </trkpt>
      <trkpt lat="44.34526" lon="6.2886">
        <ele>1594</ele>
        <time>2016-07-19T14:55:57.000Z</time>
      </trkpt>
      <trkpt lat="44.3454" lon="6.28877">
        <ele>1591.5999755859</ele>
        <time>2016-07-19T14:56:09.000Z</time>
      </trkpt>
      <trkpt lat="44.34544" lon="6.28884">
        <ele>1591.4000244141</ele>
        <time>2016-07-19T14:56:15.000Z</time>
      </trkpt>
      <trkpt lat="44.34547" lon="6.28889">
        <ele>1591.1999511719</ele>
        <time>2016-07-19T14:56:20.000Z</time>
      </trkpt>
      <trkpt lat="44.34554" lon="6.28903">
        <ele>1590.5999755859</ele>
        <time>2016-07-19T14:56:28.000Z</time>
      </trkpt>
      <trkpt lat="44.34558" lon="6.28923">
        <ele>1591</ele>
        <time>2016-07-19T14:56:38.000Z</time>
      </trkpt>
      <trkpt lat="44.34556" lon="6.28935">
        <ele>1591.8000488281</ele>
        <time>2016-07-19T14:56:44.000Z</time>
      </trkpt>
      <trkpt lat="44.3455" lon="6.28947">
        <ele>1593.1999511719</ele>
        <time>2016-07-19T14:56:51.000Z</time>
      </trkpt>
      <trkpt lat="44.34528" lon="6.28969">
        <ele>1599.4000244141</ele>
        <time>2016-07-19T14:57:11.000Z</time>
      </trkpt>
      <trkpt lat="44.34517" lon="6.28981">
        <ele>1603.8000488281</ele>
        <time>2016-07-19T14:57:20.000Z</time>
      </trkpt>
      <trkpt lat="44.34508" lon="6.28988">
        <ele>1609.1999511719</ele>
        <time>2016-07-19T14:57:27.000Z</time>
      </trkpt>
      <trkpt lat="44.34494" lon="6.29001">
        <ele>1618</ele>
        <time>2016-07-19T14:57:38.000Z</time>
      </trkpt>
      <trkpt lat="44.3449" lon="6.29013">
        <ele>1623</ele>
        <time>2016-07-19T14:57:45.000Z</time>
      </trkpt>
      <trkpt lat="44.34491" lon="6.29022">
        <ele>1625</ele>
        <time>2016-07-19T14:57:49.000Z</time>
      </trkpt>
      <trkpt lat="44.34499" lon="6.29031">
        <ele>1624</ele>
        <time>2016-07-19T14:57:57.000Z</time>
      </trkpt>
      <trkpt lat="44.34507" lon="6.29034">
        <ele>1621.4000244141</ele>
        <time>2016-07-19T14:58:04.000Z</time>
      </trkpt>
      <trkpt lat="44.34517" lon="6.29039">
        <ele>1618.4000244141</ele>
        <time>2016-07-19T14:58:12.000Z</time>
      </trkpt>
      <trkpt lat="44.34529" lon="6.29045">
        <ele>1615.1999511719</ele>
        <time>2016-07-19T14:58:21.000Z</time>
      </trkpt>
      <trkpt lat="44.34537" lon="6.29049">
        <ele>1614.1999511719</ele>
        <time>2016-07-19T14:58:27.000Z</time>
      </trkpt>
      <trkpt lat="44.34549" lon="6.29054">
        <ele>1612.8000488281</ele>
        <time>2016-07-19T14:58:36.000Z</time>
      </trkpt>
      <trkpt lat="44.34561" lon="6.29058">
        <ele>1611.5999755859</ele>
        <time>2016-07-19T14:58:44.000Z</time>
      </trkpt>
      <trkpt lat="44.34577" lon="6.29065">
        <ele>1610</ele>
        <time>2016-07-19T14:58:50.000Z</time>
      </trkpt>
      <trkpt lat="44.34595" lon="6.29078">
        <ele>1608.8000488281</ele>
        <time>2016-07-19T14:58:57.000Z</time>
      </trkpt>
      <trkpt lat="44.34615" lon="6.29122">
        <ele>1613.1999511719</ele>
        <time>2016-07-19T14:59:10.000Z</time>
      </trkpt>
      <trkpt lat="44.34617" lon="6.29152">
        <ele>1617.5999755859</ele>
        <time>2016-07-19T14:59:17.000Z</time>
      </trkpt>
      <trkpt lat="44.34617" lon="6.29177">
        <ele>1618.5999755859</ele>
        <time>2016-07-19T14:59:23.000Z</time>
      </trkpt>
      <trkpt lat="44.34618" lon="6.29203">
        <ele>1619.1999511719</ele>
        <time>2016-07-19T14:59:30.000Z</time>
      </trkpt>
      <trkpt lat="44.34619" lon="6.29214">
        <ele>1619.5999755859</ele>
        <time>2016-07-19T14:59:35.000Z</time>
      </trkpt>
      <trkpt lat="44.34621" lon="6.2923">
        <ele>1619.5999755859</ele>
        <time>2016-07-19T14:59:44.000Z</time>
      </trkpt>
      <trkpt lat="44.34624" lon="6.29241">
        <ele>1619.8000488281</ele>
        <time>2016-07-19T14:59:50.000Z</time>
      </trkpt>
      <trkpt lat="44.34631" lon="6.29257">
        <ele>1619.4000244141</ele>
        <time>2016-07-19T14:59:59.000Z</time>
      </trkpt>
      <trkpt lat="44.34643" lon="6.29261">
        <ele>1617.5999755859</ele>
        <time>2016-07-19T15:00:08.000Z</time>
      </trkpt>
      <trkpt lat="44.34649" lon="6.2926">
        <ele>1616.4000244141</ele>
        <time>2016-07-19T15:00:13.000Z</time>
      </trkpt>
      <trkpt lat="44.34662" lon="6.29255">
        <ele>1613.4000244141</ele>
        <time>2016-07-19T15:00:23.000Z</time>
      </trkpt>
      <trkpt lat="44.34673" lon="6.29245">
        <ele>1610.4000244141</ele>
        <time>2016-07-19T15:00:32.000Z</time>
      </trkpt>
      <trkpt lat="44.3468" lon="6.2924">
        <ele>1608.4000244141</ele>
        <time>2016-07-19T15:00:38.000Z</time>
      </trkpt>
      <trkpt lat="44.34685" lon="6.29237">
        <ele>1607.1999511719</ele>
        <time>2016-07-19T15:00:45.000Z</time>
      </trkpt>
      <trkpt lat="44.34708" lon="6.29235">
        <ele>1604</ele>
        <time>2016-07-19T15:01:02.000Z</time>
      </trkpt>
      <trkpt lat="44.34722" lon="6.29236">
        <ele>1604</ele>
        <time>2016-07-19T15:01:11.000Z</time>
      </trkpt>
      <trkpt lat="44.34735" lon="6.29241">
        <ele>1604</ele>
        <time>2016-07-19T15:01:18.000Z</time>
      </trkpt>
      <trkpt lat="44.34739" lon="6.29248">
        <ele>1604.1999511719</ele>
        <time>2016-07-19T15:01:23.000Z</time>
      </trkpt>
      <trkpt lat="44.34747" lon="6.29258">
        <ele>1604.4000244141</ele>
        <time>2016-07-19T15:01:30.000Z</time>
      </trkpt>
      <trkpt lat="44.34756" lon="6.29268">
        <ele>1604.5999755859</ele>
        <time>2016-07-19T15:01:37.000Z</time>
      </trkpt>
      <trkpt lat="44.3476" lon="6.29274">
        <ele>1604.8000488281</ele>
        <time>2016-07-19T15:01:42.000Z</time>
      </trkpt>
      <trkpt lat="44.34767" lon="6.29288">
        <ele>1605.1999511719</ele>
        <time>2016-07-19T15:01:50.000Z</time>
      </trkpt>
      <trkpt lat="44.34768" lon="6.29308">
        <ele>1606.4000244141</ele>
        <time>2016-07-19T15:02:00.000Z</time>
      </trkpt>
      <trkpt lat="44.34765" lon="6.29321">
        <ele>1606.8000488281</ele>
        <time>2016-07-19T15:02:06.000Z</time>
      </trkpt>
      <trkpt lat="44.34764" lon="6.2933">
        <ele>1606.8000488281</ele>
        <time>2016-07-19T15:02:10.000Z</time>
      </trkpt>
      <trkpt lat="44.34761" lon="6.29347">
        <ele>1606.8000488281</ele>
        <time>2016-07-19T15:02:16.000Z</time>
      </trkpt>
      <trkpt lat="44.34759" lon="6.2936">
        <ele>1606.8000488281</ele>
        <time>2016-07-19T15:02:22.000Z</time>
      </trkpt>
      <trkpt lat="44.34756" lon="6.29372">
        <ele>1606.8000488281</ele>
        <time>2016-07-19T15:02:28.000Z</time>
      </trkpt>
      <trkpt lat="44.34754" lon="6.29389">
        <ele>1607.8000488281</ele>
        <time>2016-07-19T15:02:36.000Z</time>
      </trkpt>
      <trkpt lat="44.34753" lon="6.29407">
        <ele>1608.1999511719</ele>
        <time>2016-07-19T15:02:44.000Z</time>
      </trkpt>
      <trkpt lat="44.34751" lon="6.29419">
        <ele>1608.4000244141</ele>
        <time>2016-07-19T15:02:50.000Z</time>
      </trkpt>
      <trkpt lat="44.34747" lon="6.29432">
        <ele>1608.5999755859</ele>
        <time>2016-07-19T15:02:57.000Z</time>
      </trkpt>
      <trkpt lat="44.34743" lon="6.29435">
        <ele>1609</ele>
        <time>2016-07-19T15:03:04.000Z</time>
      </trkpt>
      <trkpt lat="44.34745" lon="6.29433">
        <ele>1608.8000488281</ele>
        <time>2016-07-19T15:03:12.000Z</time>
      </trkpt>
      <trkpt lat="44.34744" lon="6.29427">
        <ele>1609</ele>
        <time>2016-07-19T15:03:17.000Z</time>
      </trkpt>
      <trkpt lat="44.34745" lon="6.29425">
        <ele>1609</ele>
        <time>2016-07-19T15:03:26.000Z</time>
      </trkpt>
      <trkpt lat="44.3474" lon="6.29422">
        <ele>1609.5999755859</ele>
        <time>2016-07-19T15:08:31.000Z</time>
      </trkpt>
      <trkpt lat="44.34753" lon="6.29422">
        <ele>1608</ele>
        <time>2016-07-19T15:09:59.000Z</time>
      </trkpt>
      <trkpt lat="44.34747" lon="6.2943">
        <ele>1608.5999755859</ele>
        <time>2016-07-19T15:10:03.000Z</time>
      </trkpt>
      <trkpt lat="44.34748" lon="6.29435">
        <ele>1608.4000244141</ele>
        <time>2016-07-19T15:10:06.000Z</time>
      </trkpt>
      <trkpt lat="44.34747" lon="6.29439">
        <ele>1608.5999755859</ele>
        <time>2016-07-19T15:10:11.000Z</time>
      </trkpt>
      <trkpt lat="44.34749" lon="6.29439">
        <ele>1608.1999511719</ele>
        <time>2016-07-19T15:10:15.000Z</time>
      </trkpt>
      <trkpt lat="44.34749" lon="6.29438">
        <ele>1608.1999511719</ele>
        <time>2016-07-19T15:10:22.000Z</time>
      </trkpt>
      <trkpt lat="44.34751" lon="6.29438">
        <ele>1608.1999511719</ele>
        <time>2016-07-19T15:10:28.000Z</time>
      </trkpt>
      <trkpt lat="44.34756" lon="6.29439">
        <ele>1607.5999755859</ele>
        <time>2016-07-19T15:10:35.000Z</time>
      </trkpt>
      <trkpt lat="44.34756" lon="6.29432">
        <ele>1607.4000244141</ele>
        <time>2016-07-19T15:10:39.000Z</time>
      </trkpt>
      <trkpt lat="44.34756" lon="6.29424">
        <ele>1607.5999755859</ele>
        <time>2016-07-19T15:10:45.000Z</time>
      </trkpt>
      <trkpt lat="44.34754" lon="6.2942">
        <ele>1608</ele>
        <time>2016-07-19T15:10:50.000Z</time>
      </trkpt>
      <trkpt lat="44.34753" lon="6.29417">
        <ele>1608</ele>
        <time>2016-07-19T15:10:53.000Z</time>
      </trkpt>
      <trkpt lat="44.34752" lon="6.29419">
        <ele>1608.1999511719</ele>
        <time>2016-07-19T15:11:00.000Z</time>
      </trkpt>
      <trkpt lat="44.34751" lon="6.2942">
        <ele>1608.4000244141</ele>
        <time>2016-07-19T15:11:08.000Z</time>
      </trkpt>
      <trkpt lat="44.34751" lon="6.29424">
        <ele>1608.1999511719</ele>
        <time>2016-07-19T15:11:23.000Z</time>
      </trkpt>
      <trkpt lat="44.34749" lon="6.2943">
        <ele>1608.4000244141</ele>
        <time>2016-07-19T15:11:28.000Z</time>
      </trkpt>
      <trkpt lat="44.34749" lon="6.29441">
        <ele>1608.4000244141</ele>
        <time>2016-07-19T15:11:35.000Z</time>
      </trkpt>
      <trkpt lat="44.34749" lon="6.29444">
        <ele>1608.1999511719</ele>
        <time>2016-07-19T15:11:37.000Z</time>
      </trkpt>
      <trkpt lat="44.34749" lon="6.29452">
        <ele>1608.1999511719</ele>
        <time>2016-07-19T15:11:42.000Z</time>
      </trkpt>
      <trkpt lat="44.34749" lon="6.29451">
        <ele>1608.1999511719</ele>
        <time>2016-07-19T15:11:50.000Z</time>
      </trkpt>
      <trkpt lat="44.34748" lon="6.29453">
        <ele>1608.1999511719</ele>
        <time>2016-07-19T15:11:53.000Z</time>
      </trkpt>
      <trkpt lat="44.34747" lon="6.29459">
        <ele>1608.4000244141</ele>
        <time>2016-07-19T15:11:57.000Z</time>
      </trkpt>
      <trkpt lat="44.34743" lon="6.29473">
        <ele>1608.5999755859</ele>
        <time>2016-07-19T15:12:05.000Z</time>
      </trkpt>
      <trkpt lat="44.34742" lon="6.29487">
        <ele>1608.4000244141</ele>
        <time>2016-07-19T15:12:12.000Z</time>
      </trkpt>
      <trkpt lat="44.34739" lon="6.29503">
        <ele>1608</ele>
        <time>2016-07-19T15:12:21.000Z</time>
      </trkpt>
      <trkpt lat="44.34738" lon="6.29506">
        <ele>1607.8000488281</ele>
        <time>2016-07-19T15:12:23.000Z</time>
      </trkpt>
      <trkpt lat="44.34737" lon="6.29511">
        <ele>1607.8000488281</ele>
        <time>2016-07-19T15:12:29.000Z</time>
      </trkpt>
      <trkpt lat="44.34735" lon="6.29518">
        <ele>1607.5999755859</ele>
        <time>2016-07-19T15:12:35.000Z</time>
      </trkpt>
      <trkpt lat="44.34733" lon="6.29526">
        <ele>1607.1999511719</ele>
        <time>2016-07-19T15:12:41.000Z</time>
      </trkpt>
      <trkpt lat="44.3473" lon="6.29539">
        <ele>1606.5999755859</ele>
        <time>2016-07-19T15:12:49.000Z</time>
      </trkpt>
      <trkpt lat="44.3473" lon="6.2954">
        <ele>1606.5999755859</ele>
        <time>2016-07-19T15:12:50.000Z</time>
      </trkpt>
      <trkpt lat="44.34716" lon="6.29551">
        <ele>1607.1999511719</ele>
        <time>2016-07-19T15:13:05.000Z</time>
      </trkpt>
      <trkpt lat="44.3471" lon="6.29553">
        <ele>1607.5999755859</ele>
        <time>2016-07-19T15:13:24.000Z</time>
      </trkpt>
      <trkpt lat="44.34701" lon="6.29554">
        <ele>1608.4000244141</ele>
        <time>2016-07-19T15:13:31.000Z</time>
      </trkpt>
      <trkpt lat="44.34694" lon="6.29563">
        <ele>1609.4000244141</ele>
        <time>2016-07-19T15:13:38.000Z</time>
      </trkpt>
      <trkpt lat="44.34684" lon="6.29578">
        <ele>1612.4000244141</ele>
        <time>2016-07-19T15:13:48.000Z</time>
      </trkpt>
      <trkpt lat="44.34677" lon="6.2959">
        <ele>1614.8000488281</ele>
        <time>2016-07-19T15:13:57.000Z</time>
      </trkpt>
      <trkpt lat="44.34675" lon="6.29593">
        <ele>1615.1999511719</ele>
        <time>2016-07-19T15:13:59.000Z</time>
      </trkpt>
      <trkpt lat="44.34675" lon="6.29594">
        <ele>1615.1999511719</ele>
        <time>2016-07-19T15:14:06.000Z</time>
      </trkpt>
      <trkpt lat="44.34674" lon="6.29595">
        <ele>1615.5999755859</ele>
        <time>2016-07-19T15:14:11.000Z</time>
      </trkpt>
      <trkpt lat="44.3467" lon="6.29608">
        <ele>1616.4000244141</ele>
        <time>2016-07-19T15:14:19.000Z</time>
      </trkpt>
      <trkpt lat="44.34665" lon="6.29625">
        <ele>1617.1999511719</ele>
        <time>2016-07-19T15:14:28.000Z</time>
      </trkpt>
      <trkpt lat="44.34661" lon="6.29641">
        <ele>1618</ele>
        <time>2016-07-19T15:14:37.000Z</time>
      </trkpt>
      <trkpt lat="44.34657" lon="6.29656">
        <ele>1619</ele>
        <time>2016-07-19T15:14:45.000Z</time>
      </trkpt>
      <trkpt lat="44.34652" lon="6.29694">
        <ele>1619.8000488281</ele>
        <time>2016-07-19T15:15:15.000Z</time>
      </trkpt>
      <trkpt lat="44.34654" lon="6.2969">
        <ele>1619.1999511719</ele>
        <time>2016-07-19T15:15:31.000Z</time>
      </trkpt>
      <trkpt lat="44.34656" lon="6.29676">
        <ele>1619</ele>
        <time>2016-07-19T15:15:39.000Z</time>
      </trkpt>
      <trkpt lat="44.34658" lon="6.29666">
        <ele>1618.4000244141</ele>
        <time>2016-07-19T15:15:44.000Z</time>
      </trkpt>
      <trkpt lat="44.34662" lon="6.29666">
        <ele>1616.8000488281</ele>
        <time>2016-07-19T15:15:49.000Z</time>
      </trkpt>
      <trkpt lat="44.34663" lon="6.29668">
        <ele>1616.5999755859</ele>
        <time>2016-07-19T15:15:50.000Z</time>
      </trkpt>
      <trkpt lat="44.34666" lon="6.2972">
        <ele>1613.1999511719</ele>
        <time>2016-07-19T15:16:16.000Z</time>
      </trkpt>
      <trkpt lat="44.34668" lon="6.2974">
        <ele>1611.5999755859</ele>
        <time>2016-07-19T15:16:25.000Z</time>
      </trkpt>
      <trkpt lat="44.34673" lon="6.29758">
        <ele>1610</ele>
        <time>2016-07-19T15:16:34.000Z</time>
      </trkpt>
      <trkpt lat="44.34677" lon="6.29782">
        <ele>1608.5999755859</ele>
        <time>2016-07-19T15:16:45.000Z</time>
      </trkpt>
      <trkpt lat="44.34677" lon="6.29799">
        <ele>1608.4000244141</ele>
        <time>2016-07-19T15:16:53.000Z</time>
      </trkpt>
      <trkpt lat="44.34676" lon="6.29813">
        <ele>1608.5999755859</ele>
        <time>2016-07-19T15:17:00.000Z</time>
      </trkpt>
      <trkpt lat="44.34675" lon="6.29829">
        <ele>1608.1999511719</ele>
        <time>2016-07-19T15:17:07.000Z</time>
      </trkpt>
      <trkpt lat="44.34674" lon="6.29845">
        <ele>1607.8000488281</ele>
        <time>2016-07-19T15:17:15.000Z</time>
      </trkpt>
      <trkpt lat="44.34673" lon="6.29864">
        <ele>1607.4000244141</ele>
        <time>2016-07-19T15:17:23.000Z</time>
      </trkpt>
      <trkpt lat="44.34672" lon="6.29879">
        <ele>1607.8000488281</ele>
        <time>2016-07-19T15:17:30.000Z</time>
      </trkpt>
      <trkpt lat="44.34668" lon="6.29894">
        <ele>1609.5999755859</ele>
        <time>2016-07-19T15:17:38.000Z</time>
      </trkpt>
      <trkpt lat="44.34665" lon="6.2991">
        <ele>1612.4000244141</ele>
        <time>2016-07-19T15:17:46.000Z</time>
      </trkpt>
      <trkpt lat="44.34663" lon="6.29925">
        <ele>1614.8000488281</ele>
        <time>2016-07-19T15:17:53.000Z</time>
      </trkpt>
      <trkpt lat="44.34664" lon="6.29932">
        <ele>1615.4000244141</ele>
        <time>2016-07-19T15:17:56.000Z</time>
      </trkpt>
      <trkpt lat="44.34666" lon="6.2994">
        <ele>1615.4000244141</ele>
        <time>2016-07-19T15:18:01.000Z</time>
      </trkpt>
      <trkpt lat="44.3467" lon="6.29949">
        <ele>1615.1999511719</ele>
        <time>2016-07-19T15:18:06.000Z</time>
      </trkpt>
      <trkpt lat="44.3467" lon="6.29951">
        <ele>1615.1999511719</ele>
        <time>2016-07-19T15:18:08.000Z</time>
      </trkpt>
      <trkpt lat="44.34679" lon="6.2996">
        <ele>1613.1999511719</ele>
        <time>2016-07-19T15:18:16.000Z</time>
      </trkpt>
      <trkpt lat="44.34686" lon="6.29966">
        <ele>1611.5999755859</ele>
        <time>2016-07-19T15:18:22.000Z</time>
      </trkpt>
      <trkpt lat="44.34694" lon="6.29973">
        <ele>1609.4000244141</ele>
        <time>2016-07-19T15:18:29.000Z</time>
      </trkpt>
      <trkpt lat="44.34702" lon="6.29977">
        <ele>1607.5999755859</ele>
        <time>2016-07-19T15:18:35.000Z</time>
      </trkpt>
      <trkpt lat="44.34711" lon="6.29983">
        <ele>1605.5999755859</ele>
        <time>2016-07-19T15:18:42.000Z</time>
      </trkpt>
      <trkpt lat="44.34719" lon="6.29988">
        <ele>1604.4000244141</ele>
        <time>2016-07-19T15:18:48.000Z</time>
      </trkpt>
      <trkpt lat="44.34729" lon="6.29992">
        <ele>1602.4000244141</ele>
        <time>2016-07-19T15:18:55.000Z</time>
      </trkpt>
      <trkpt lat="44.3474" lon="6.29997">
        <ele>1600</ele>
        <time>2016-07-19T15:19:03.000Z</time>
      </trkpt>
      <trkpt lat="44.34751" lon="6.30002">
        <ele>1598</ele>
        <time>2016-07-19T15:19:11.000Z</time>
      </trkpt>
      <trkpt lat="44.34762" lon="6.3001">
        <ele>1596.4000244141</ele>
        <time>2016-07-19T15:19:19.000Z</time>
      </trkpt>
      <trkpt lat="44.34772" lon="6.30017">
        <ele>1595</ele>
        <time>2016-07-19T15:19:26.000Z</time>
      </trkpt>
      <trkpt lat="44.34776" lon="6.3002">
        <ele>1594.5999755859</ele>
        <time>2016-07-19T15:19:30.000Z</time>
      </trkpt>
      <trkpt lat="44.34785" lon="6.30025">
        <ele>1593.4000244141</ele>
        <time>2016-07-19T15:19:36.000Z</time>
      </trkpt>
      <trkpt lat="44.34796" lon="6.30026">
        <ele>1591.5999755859</ele>
        <time>2016-07-19T15:19:43.000Z</time>
      </trkpt>
      <trkpt lat="44.34806" lon="6.30029">
        <ele>1590.4000244141</ele>
        <time>2016-07-19T15:19:50.000Z</time>
      </trkpt>
      <trkpt lat="44.34807" lon="6.3003">
        <ele>1590.4000244141</ele>
        <time>2016-07-19T15:19:57.000Z</time>
      </trkpt>
      <trkpt lat="44.34813" lon="6.30032">
        <ele>1589.8000488281</ele>
        <time>2016-07-19T15:20:14.000Z</time>
      </trkpt>
      <trkpt lat="44.34819" lon="6.30034">
        <ele>1589</ele>
        <time>2016-07-19T15:20:21.000Z</time>
      </trkpt>
      <trkpt lat="44.34824" lon="6.30037">
        <ele>1588.8000488281</ele>
        <time>2016-07-19T15:20:37.000Z</time>
      </trkpt>
      <trkpt lat="44.34833" lon="6.30042">
        <ele>1588.1999511719</ele>
        <time>2016-07-19T15:20:45.000Z</time>
      </trkpt>
      <trkpt lat="44.34841" lon="6.30047">
        <ele>1587.8000488281</ele>
        <time>2016-07-19T15:20:52.000Z</time>
      </trkpt>
      <trkpt lat="44.34852" lon="6.30052">
        <ele>1587</ele>
        <time>2016-07-19T15:21:00.000Z</time>
      </trkpt>
      <trkpt lat="44.34866" lon="6.30054">
        <ele>1584.4000244141</ele>
        <time>2016-07-19T15:21:09.000Z</time>
      </trkpt>
      <trkpt lat="44.34876" lon="6.30056">
        <ele>1583</ele>
        <time>2016-07-19T15:21:15.000Z</time>
      </trkpt>
      <trkpt lat="44.34886" lon="6.30061">
        <ele>1582.4000244141</ele>
        <time>2016-07-19T15:21:22.000Z</time>
      </trkpt>
      <trkpt lat="44.34894" lon="6.30065">
        <ele>1581.5999755859</ele>
        <time>2016-07-19T15:21:28.000Z</time>
      </trkpt>
      <trkpt lat="44.34904" lon="6.3007">
        <ele>1580</ele>
        <time>2016-07-19T15:21:35.000Z</time>
      </trkpt>
      <trkpt lat="44.34905" lon="6.30071">
        <ele>1579.8000488281</ele>
        <time>2016-07-19T15:21:36.000Z</time>
      </trkpt>
      <trkpt lat="44.34915" lon="6.30076">
        <ele>1578.4000244141</ele>
        <time>2016-07-19T15:21:43.000Z</time>
      </trkpt>
      <trkpt lat="44.34927" lon="6.30085">
        <ele>1577</ele>
        <time>2016-07-19T15:21:51.000Z</time>
      </trkpt>
      <trkpt lat="44.34939" lon="6.30114">
        <ele>1577.5999755859</ele>
        <time>2016-07-19T15:22:06.000Z</time>
      </trkpt>
      <trkpt lat="44.3494" lon="6.3012">
        <ele>1578</ele>
        <time>2016-07-19T15:22:11.000Z</time>
      </trkpt>
      <trkpt lat="44.34944" lon="6.30129">
        <ele>1578</ele>
        <time>2016-07-19T15:22:25.000Z</time>
      </trkpt>
      <trkpt lat="44.34949" lon="6.30146">
        <ele>1578.5999755859</ele>
        <time>2016-07-19T15:22:34.000Z</time>
      </trkpt>
      <trkpt lat="44.3495" lon="6.30159">
        <ele>1578.1999511719</ele>
        <time>2016-07-19T15:22:41.000Z</time>
      </trkpt>
      <trkpt lat="44.3495" lon="6.30174">
        <ele>1578</ele>
        <time>2016-07-19T15:22:48.000Z</time>
      </trkpt>
      <trkpt lat="44.34953" lon="6.30192">
        <ele>1577</ele>
        <time>2016-07-19T15:22:57.000Z</time>
      </trkpt>
      <trkpt lat="44.34955" lon="6.30209">
        <ele>1576</ele>
        <time>2016-07-19T15:23:05.000Z</time>
      </trkpt>
      <trkpt lat="44.34957" lon="6.30218">
        <ele>1575.5999755859</ele>
        <time>2016-07-19T15:23:09.000Z</time>
      </trkpt>
      <trkpt lat="44.3496" lon="6.30238">
        <ele>1574.5999755859</ele>
        <time>2016-07-19T15:23:18.000Z</time>
      </trkpt>
      <trkpt lat="44.34962" lon="6.30253">
        <ele>1573.8000488281</ele>
        <time>2016-07-19T15:23:25.000Z</time>
      </trkpt>
      <trkpt lat="44.34965" lon="6.30268">
        <ele>1572.5999755859</ele>
        <time>2016-07-19T15:23:32.000Z</time>
      </trkpt>
      <trkpt lat="44.34965" lon="6.3027">
        <ele>1572.5999755859</ele>
        <time>2016-07-19T15:23:33.000Z</time>
      </trkpt>
      <trkpt lat="44.34966" lon="6.30283">
        <ele>1571.8000488281</ele>
        <time>2016-07-19T15:23:40.000Z</time>
      </trkpt>
      <trkpt lat="44.34969" lon="6.30292">
        <ele>1571</ele>
        <time>2016-07-19T15:23:45.000Z</time>
      </trkpt>
      <trkpt lat="44.34974" lon="6.30306">
        <ele>1569.5999755859</ele>
        <time>2016-07-19T15:23:52.000Z</time>
      </trkpt>
      <trkpt lat="44.34978" lon="6.30328">
        <ele>1567.5999755859</ele>
        <time>2016-07-19T15:24:02.000Z</time>
      </trkpt>
      <trkpt lat="44.34982" lon="6.30348">
        <ele>1566</ele>
        <time>2016-07-19T15:24:11.000Z</time>
      </trkpt>
      <trkpt lat="44.34985" lon="6.30364">
        <ele>1564.1999511719</ele>
        <time>2016-07-19T15:24:18.000Z</time>
      </trkpt>
      <trkpt lat="44.34989" lon="6.30379">
        <ele>1562.1999511719</ele>
        <time>2016-07-19T15:24:25.000Z</time>
      </trkpt>
      <trkpt lat="44.34995" lon="6.30394">
        <ele>1560</ele>
        <time>2016-07-19T15:24:33.000Z</time>
      </trkpt>
      <trkpt lat="44.34997" lon="6.30398">
        <ele>1559.5999755859</ele>
        <time>2016-07-19T15:24:35.000Z</time>
      </trkpt>
      <trkpt lat="44.35002" lon="6.30414">
        <ele>1557.8000488281</ele>
        <time>2016-07-19T15:24:43.000Z</time>
      </trkpt>
      <trkpt lat="44.35007" lon="6.30427">
        <ele>1556.4000244141</ele>
        <time>2016-07-19T15:24:50.000Z</time>
      </trkpt>
      <trkpt lat="44.35013" lon="6.30441">
        <ele>1554.8000488281</ele>
        <time>2016-07-19T15:24:58.000Z</time>
      </trkpt>
      <trkpt lat="44.35016" lon="6.30453">
        <ele>1553.5999755859</ele>
        <time>2016-07-19T15:25:04.000Z</time>
      </trkpt>
      <trkpt lat="44.35017" lon="6.30465">
        <ele>1552.5999755859</ele>
        <time>2016-07-19T15:25:10.000Z</time>
      </trkpt>
      <trkpt lat="44.35017" lon="6.30472">
        <ele>1551.8000488281</ele>
        <time>2016-07-19T15:25:14.000Z</time>
      </trkpt>
      <trkpt lat="44.35018" lon="6.3048">
        <ele>1551</ele>
        <time>2016-07-19T15:25:18.000Z</time>
      </trkpt>
      <trkpt lat="44.35019" lon="6.30493">
        <ele>1550</ele>
        <time>2016-07-19T15:25:24.000Z</time>
      </trkpt>
      <trkpt lat="44.35019" lon="6.30501">
        <ele>1549.4000244141</ele>
        <time>2016-07-19T15:25:28.000Z</time>
      </trkpt>
      <trkpt lat="44.3502" lon="6.30514">
        <ele>1548.4000244141</ele>
        <time>2016-07-19T15:25:34.000Z</time>
      </trkpt>
      <trkpt lat="44.35024" lon="6.30526">
        <ele>1547.1999511719</ele>
        <time>2016-07-19T15:25:39.000Z</time>
      </trkpt>
      <trkpt lat="44.35028" lon="6.30538">
        <ele>1546</ele>
        <time>2016-07-19T15:25:44.000Z</time>
      </trkpt>
      <trkpt lat="44.35029" lon="6.3054">
        <ele>1545.8000488281</ele>
        <time>2016-07-19T15:25:45.000Z</time>
      </trkpt>
      <trkpt lat="44.35032" lon="6.30547">
        <ele>1545.1999511719</ele>
        <time>2016-07-19T15:25:49.000Z</time>
      </trkpt>
      <trkpt lat="44.35039" lon="6.30561">
        <ele>1544</ele>
        <time>2016-07-19T15:25:56.000Z</time>
      </trkpt>
      <trkpt lat="44.35043" lon="6.30572">
        <ele>1543.1999511719</ele>
        <time>2016-07-19T15:26:01.000Z</time>
      </trkpt>
      <trkpt lat="44.35049" lon="6.30601">
        <ele>1540.8000488281</ele>
        <time>2016-07-19T15:26:13.000Z</time>
      </trkpt>
      <trkpt lat="44.35045" lon="6.30619">
        <ele>1539.5999755859</ele>
        <time>2016-07-19T15:26:21.000Z</time>
      </trkpt>
      <trkpt lat="44.3504" lon="6.30636">
        <ele>1538.5999755859</ele>
        <time>2016-07-19T15:26:29.000Z</time>
      </trkpt>
      <trkpt lat="44.35036" lon="6.30651">
        <ele>1537.8000488281</ele>
        <time>2016-07-19T15:26:36.000Z</time>
      </trkpt>
      <trkpt lat="44.35034" lon="6.30666">
        <ele>1539</ele>
        <time>2016-07-19T15:26:43.000Z</time>
      </trkpt>
      <trkpt lat="44.35035" lon="6.3068">
        <ele>1540</ele>
        <time>2016-07-19T15:26:49.000Z</time>
      </trkpt>
      <trkpt lat="44.3503" lon="6.30694">
        <ele>1541.5999755859</ele>
        <time>2016-07-19T15:26:56.000Z</time>
      </trkpt>
      <trkpt lat="44.35028" lon="6.30697">
        <ele>1542.4000244141</ele>
        <time>2016-07-19T15:27:03.000Z</time>
      </trkpt>
      <trkpt lat="44.35022" lon="6.30706">
        <ele>1544.4000244141</ele>
        <time>2016-07-19T15:27:32.000Z</time>
      </trkpt>
      <trkpt lat="44.35015" lon="6.30718">
        <ele>1546.5999755859</ele>
        <time>2016-07-19T15:27:39.000Z</time>
      </trkpt>
      <trkpt lat="44.3501" lon="6.30728">
        <ele>1547.4000244141</ele>
        <time>2016-07-19T15:27:45.000Z</time>
      </trkpt>
      <trkpt lat="44.35004" lon="6.30741">
        <ele>1549.4000244141</ele>
        <time>2016-07-19T15:27:53.000Z</time>
      </trkpt>
      <trkpt lat="44.35001" lon="6.30758">
        <ele>1551</ele>
        <time>2016-07-19T15:27:58.000Z</time>
      </trkpt>
      <trkpt lat="44.35005" lon="6.30779">
        <ele>1551.8000488281</ele>
        <time>2016-07-19T15:28:04.000Z</time>
      </trkpt>
      <trkpt lat="44.35012" lon="6.30796">
        <ele>1551.8000488281</ele>
        <time>2016-07-19T15:28:10.000Z</time>
      </trkpt>
      <trkpt lat="44.35017" lon="6.30813">
        <ele>1551</ele>
        <time>2016-07-19T15:28:15.000Z</time>
      </trkpt>
      <trkpt lat="44.35018" lon="6.3083">
        <ele>1551.8000488281</ele>
        <time>2016-07-19T15:28:20.000Z</time>
      </trkpt>
      <trkpt lat="44.35018" lon="6.30846">
        <ele>1552.4000244141</ele>
        <time>2016-07-19T15:28:25.000Z</time>
      </trkpt>
      <trkpt lat="44.35017" lon="6.30861">
        <ele>1553.1999511719</ele>
        <time>2016-07-19T15:28:30.000Z</time>
      </trkpt>
      <trkpt lat="44.35017" lon="6.30862">
        <ele>1553.4000244141</ele>
        <time>2016-07-19T15:28:31.000Z</time>
      </trkpt>
      <trkpt lat="44.35016" lon="6.30869">
        <ele>1553.8000488281</ele>
        <time>2016-07-19T15:28:35.000Z</time>
      </trkpt>
      <trkpt lat="44.35013" lon="6.30887">
        <ele>1554.5999755859</ele>
        <time>2016-07-19T15:28:44.000Z</time>
      </trkpt>
      <trkpt lat="44.3501" lon="6.30898">
        <ele>1554.8000488281</ele>
        <time>2016-07-19T15:28:50.000Z</time>
      </trkpt>
      <trkpt lat="44.35" lon="6.30911">
        <ele>1553.8000488281</ele>
        <time>2016-07-19T15:28:59.000Z</time>
      </trkpt>
      <trkpt lat="44.34992" lon="6.30917">
        <ele>1553.5999755859</ele>
        <time>2016-07-19T15:29:06.000Z</time>
      </trkpt>
      <trkpt lat="44.34987" lon="6.30919">
        <ele>1553.4000244141</ele>
        <time>2016-07-19T15:29:09.000Z</time>
      </trkpt>
      <trkpt lat="44.34977" lon="6.30922">
        <ele>1553.5999755859</ele>
        <time>2016-07-19T15:29:14.000Z</time>
      </trkpt>
      <trkpt lat="44.34955" lon="6.3093">
        <ele>1553.1999511719</ele>
        <time>2016-07-19T15:29:22.000Z</time>
      </trkpt>
      <trkpt lat="44.34938" lon="6.30939">
        <ele>1553.8000488281</ele>
        <time>2016-07-19T15:29:28.000Z</time>
      </trkpt>
      <trkpt lat="44.3492" lon="6.30948">
        <ele>1555</ele>
        <time>2016-07-19T15:29:34.000Z</time>
      </trkpt>
      <trkpt lat="44.34902" lon="6.30956">
        <ele>1554.5999755859</ele>
        <time>2016-07-19T15:29:40.000Z</time>
      </trkpt>
      <trkpt lat="44.34891" lon="6.30952">
        <ele>1556</ele>
        <time>2016-07-19T15:29:44.000Z</time>
      </trkpt>
      <trkpt lat="44.34884" lon="6.30937">
        <ele>1559.8000488281</ele>
        <time>2016-07-19T15:29:49.000Z</time>
      </trkpt>
      <trkpt lat="44.34877" lon="6.30928">
        <ele>1561.8000488281</ele>
        <time>2016-07-19T15:29:52.000Z</time>
      </trkpt>
      <trkpt lat="44.34862" lon="6.30932">
        <ele>1562.1999511719</ele>
        <time>2016-07-19T15:29:58.000Z</time>
      </trkpt>
      <trkpt lat="44.34844" lon="6.30951">
        <ele>1561</ele>
        <time>2016-07-19T15:30:13.000Z</time>
      </trkpt>
      <trkpt lat="44.34841" lon="6.30949">
        <ele>1561.8000488281</ele>
        <time>2016-07-19T15:30:15.000Z</time>
      </trkpt>
      <trkpt lat="44.34833" lon="6.30931">
        <ele>1567</ele>
        <time>2016-07-19T15:30:26.000Z</time>
      </trkpt>
      <trkpt lat="44.34832" lon="6.30929">
        <ele>1567.4000244141</ele>
        <time>2016-07-19T15:30:27.000Z</time>
      </trkpt>
      <trkpt lat="44.34822" lon="6.30915">
        <ele>1572</ele>
        <time>2016-07-19T15:30:37.000Z</time>
      </trkpt>
      <trkpt lat="44.34812" lon="6.30902">
        <ele>1576.1999511719</ele>
        <time>2016-07-19T15:30:46.000Z</time>
      </trkpt>
      <trkpt lat="44.34807" lon="6.30897">
        <ele>1577.8000488281</ele>
        <time>2016-07-19T15:30:50.000Z</time>
      </trkpt>
      <trkpt lat="44.348" lon="6.30888">
        <ele>1579</ele>
        <time>2016-07-19T15:30:56.000Z</time>
      </trkpt>
      <trkpt lat="44.3479" lon="6.30874">
        <ele>1580.5999755859</ele>
        <time>2016-07-19T15:31:07.000Z</time>
      </trkpt>
      <trkpt lat="44.34783" lon="6.30865">
        <ele>1581.5999755859</ele>
        <time>2016-07-19T15:31:14.000Z</time>
      </trkpt>
      <trkpt lat="44.34777" lon="6.30856">
        <ele>1580.8000488281</ele>
        <time>2016-07-19T15:31:20.000Z</time>
      </trkpt>
      <trkpt lat="44.34766" lon="6.30841">
        <ele>1577.1999511719</ele>
        <time>2016-07-19T15:31:30.000Z</time>
      </trkpt>
      <trkpt lat="44.34757" lon="6.30823">
        <ele>1574.4000244141</ele>
        <time>2016-07-19T15:31:36.000Z</time>
      </trkpt>
      <trkpt lat="44.34747" lon="6.30803">
        <ele>1573</ele>
        <time>2016-07-19T15:31:43.000Z</time>
      </trkpt>
      <trkpt lat="44.34731" lon="6.30786">
        <ele>1571.5999755859</ele>
        <time>2016-07-19T15:31:50.000Z</time>
      </trkpt>
      <trkpt lat="44.34715" lon="6.30771">
        <ele>1569.1999511719</ele>
        <time>2016-07-19T15:31:57.000Z</time>
      </trkpt>
      <trkpt lat="44.34714" lon="6.30769">
        <ele>1569.4000244141</ele>
        <time>2016-07-19T15:31:58.000Z</time>
      </trkpt>
      <trkpt lat="44.34699" lon="6.3075">
        <ele>1568.5999755859</ele>
        <time>2016-07-19T15:32:12.000Z</time>
      </trkpt>
      <trkpt lat="44.34695" lon="6.30739">
        <ele>1569</ele>
        <time>2016-07-19T15:32:19.000Z</time>
      </trkpt>
      <trkpt lat="44.34689" lon="6.30726">
        <ele>1569.4000244141</ele>
        <time>2016-07-19T15:32:26.000Z</time>
      </trkpt>
      <trkpt lat="44.34684" lon="6.30713">
        <ele>1570.1999511719</ele>
        <time>2016-07-19T15:32:33.000Z</time>
      </trkpt>
      <trkpt lat="44.34678" lon="6.30697">
        <ele>1571</ele>
        <time>2016-07-19T15:32:42.000Z</time>
      </trkpt>
      <trkpt lat="44.34675" lon="6.30688">
        <ele>1571.5999755859</ele>
        <time>2016-07-19T15:32:47.000Z</time>
      </trkpt>
      <trkpt lat="44.34672" lon="6.30682">
        <ele>1572</ele>
        <time>2016-07-19T15:32:51.000Z</time>
      </trkpt>
      <trkpt lat="44.34668" lon="6.3066">
        <ele>1574.5999755859</ele>
        <time>2016-07-19T15:32:58.000Z</time>
      </trkpt>
      <trkpt lat="44.34668" lon="6.30648">
        <ele>1576.8000488281</ele>
        <time>2016-07-19T15:33:03.000Z</time>
      </trkpt>
      <trkpt lat="44.34674" lon="6.30634">
        <ele>1582</ele>
        <time>2016-07-19T15:33:11.000Z</time>
      </trkpt>
      <trkpt lat="44.3468" lon="6.30622">
        <ele>1585.8000488281</ele>
        <time>2016-07-19T15:33:17.000Z</time>
      </trkpt>
      <trkpt lat="44.3468" lon="6.3062">
        <ele>1586</ele>
        <time>2016-07-19T15:33:18.000Z</time>
      </trkpt>
      <trkpt lat="44.34684" lon="6.30609">
        <ele>1587.8000488281</ele>
        <time>2016-07-19T15:33:24.000Z</time>
      </trkpt>
      <trkpt lat="44.34684" lon="6.30607">
        <ele>1588</ele>
        <time>2016-07-19T15:33:25.000Z</time>
      </trkpt>
      <trkpt lat="44.34684" lon="6.30601">
        <ele>1588.5999755859</ele>
        <time>2016-07-19T15:33:28.000Z</time>
      </trkpt>
      <trkpt lat="44.34683" lon="6.30594">
        <ele>1588.8000488281</ele>
        <time>2016-07-19T15:33:32.000Z</time>
      </trkpt>
      <trkpt lat="44.34683" lon="6.3059">
        <ele>1589.1999511719</ele>
        <time>2016-07-19T15:33:34.000Z</time>
      </trkpt>
      <trkpt lat="44.34682" lon="6.30579">
        <ele>1590</ele>
        <time>2016-07-19T15:33:41.000Z</time>
      </trkpt>
      <trkpt lat="44.3468" lon="6.30566">
        <ele>1590.8000488281</ele>
        <time>2016-07-19T15:33:48.000Z</time>
      </trkpt>
      <trkpt lat="44.34671" lon="6.30521">
        <ele>1592.8000488281</ele>
        <time>2016-07-19T15:34:14.000Z</time>
      </trkpt>
      <trkpt lat="44.34671" lon="6.30511">
        <ele>1593.4000244141</ele>
        <time>2016-07-19T15:34:20.000Z</time>
      </trkpt>
      <trkpt lat="44.34667" lon="6.30495">
        <ele>1593.5999755859</ele>
        <time>2016-07-19T15:34:28.000Z</time>
      </trkpt>
      <trkpt lat="44.34661" lon="6.30483">
        <ele>1593.1999511719</ele>
        <time>2016-07-19T15:34:35.000Z</time>
      </trkpt>
      <trkpt lat="44.34653" lon="6.30469">
        <ele>1592.8000488281</ele>
        <time>2016-07-19T15:34:43.000Z</time>
      </trkpt>
      <trkpt lat="44.34646" lon="6.30457">
        <ele>1592.8000488281</ele>
        <time>2016-07-19T15:34:50.000Z</time>
      </trkpt>
      <trkpt lat="44.34641" lon="6.3044">
        <ele>1593</ele>
        <time>2016-07-19T15:34:59.000Z</time>
      </trkpt>
      <trkpt lat="44.34636" lon="6.30421">
        <ele>1594</ele>
        <time>2016-07-19T15:35:09.000Z</time>
      </trkpt>
      <trkpt lat="44.34635" lon="6.30412">
        <ele>1594.1999511719</ele>
        <time>2016-07-19T15:35:14.000Z</time>
      </trkpt>
      <trkpt lat="44.3463" lon="6.30391">
        <ele>1595</ele>
        <time>2016-07-19T15:35:24.000Z</time>
      </trkpt>
      <trkpt lat="44.34625" lon="6.30376">
        <ele>1595.8000488281</ele>
        <time>2016-07-19T15:35:32.000Z</time>
      </trkpt>
      <trkpt lat="44.34618" lon="6.3036">
        <ele>1596.5999755859</ele>
        <time>2016-07-19T15:35:41.000Z</time>
      </trkpt>
      <trkpt lat="44.34613" lon="6.30349">
        <ele>1597.4000244141</ele>
        <time>2016-07-19T15:35:47.000Z</time>
      </trkpt>
      <trkpt lat="44.34603" lon="6.30326">
        <ele>1602</ele>
        <time>2016-07-19T15:36:01.000Z</time>
      </trkpt>
      <trkpt lat="44.34602" lon="6.30324">
        <ele>1602.4000244141</ele>
        <time>2016-07-19T15:36:02.000Z</time>
      </trkpt>
      <trkpt lat="44.34599" lon="6.30317">
        <ele>1603.8000488281</ele>
        <time>2016-07-19T15:36:06.000Z</time>
      </trkpt>
      <trkpt lat="44.34598" lon="6.30315">
        <ele>1604.1999511719</ele>
        <time>2016-07-19T15:36:07.000Z</time>
      </trkpt>
      <trkpt lat="44.34591" lon="6.30302">
        <ele>1605.5999755859</ele>
        <time>2016-07-19T15:36:15.000Z</time>
      </trkpt>
      <trkpt lat="44.3459" lon="6.30301">
        <ele>1605.8000488281</ele>
        <time>2016-07-19T15:36:16.000Z</time>
      </trkpt>
      <trkpt lat="44.34584" lon="6.3029">
        <ele>1606.5999755859</ele>
        <time>2016-07-19T15:36:22.000Z</time>
      </trkpt>
      <trkpt lat="44.34577" lon="6.30279">
        <ele>1607.8000488281</ele>
        <time>2016-07-19T15:36:29.000Z</time>
      </trkpt>
      <trkpt lat="44.3457" lon="6.30269">
        <ele>1609</ele>
        <time>2016-07-19T15:36:35.000Z</time>
      </trkpt>
      <trkpt lat="44.34559" lon="6.30253">
        <ele>1611.5999755859</ele>
        <time>2016-07-19T15:36:45.000Z</time>
      </trkpt>
      <trkpt lat="44.34548" lon="6.3024">
        <ele>1613.8000488281</ele>
        <time>2016-07-19T15:36:54.000Z</time>
      </trkpt>
      <trkpt lat="44.34537" lon="6.30227">
        <ele>1615.8000488281</ele>
        <time>2016-07-19T15:37:03.000Z</time>
      </trkpt>
      <trkpt lat="44.34526" lon="6.30225">
        <ele>1618.4000244141</ele>
        <time>2016-07-19T15:37:11.000Z</time>
      </trkpt>
      <trkpt lat="44.34523" lon="6.30224">
        <ele>1620</ele>
        <time>2016-07-19T15:37:14.000Z</time>
      </trkpt>
      <trkpt lat="44.3452" lon="6.30225">
        <ele>1621.5999755859</ele>
        <time>2016-07-19T15:37:19.000Z</time>
      </trkpt>
      <trkpt lat="44.3452" lon="6.30226">
        <ele>1621.4000244141</ele>
        <time>2016-07-19T15:37:22.000Z</time>
      </trkpt>
      <trkpt lat="44.34523" lon="6.30232">
        <ele>1620.4000244141</ele>
        <time>2016-07-19T15:37:26.000Z</time>
      </trkpt>
      <trkpt lat="44.34524" lon="6.30243">
        <ele>1620</ele>
        <time>2016-07-19T15:37:31.000Z</time>
      </trkpt>
      <trkpt lat="44.34527" lon="6.30257">
        <ele>1618.8000488281</ele>
        <time>2016-07-19T15:37:37.000Z</time>
      </trkpt>
      <trkpt lat="44.34532" lon="6.30269">
        <ele>1617.1999511719</ele>
        <time>2016-07-19T15:37:43.000Z</time>
      </trkpt>
      <trkpt lat="44.34539" lon="6.30282">
        <ele>1616.1999511719</ele>
        <time>2016-07-19T15:37:50.000Z</time>
      </trkpt>
      <trkpt lat="44.3454" lon="6.30286">
        <ele>1616</ele>
        <time>2016-07-19T15:37:52.000Z</time>
      </trkpt>
      <trkpt lat="44.34541" lon="6.30294">
        <ele>1616.1999511719</ele>
        <time>2016-07-19T15:37:58.000Z</time>
      </trkpt>
      <trkpt lat="44.34543" lon="6.30304">
        <ele>1616</ele>
        <time>2016-07-19T15:38:03.000Z</time>
      </trkpt>
      <trkpt lat="44.34544" lon="6.30306">
        <ele>1616</ele>
        <time>2016-07-19T15:38:04.000Z</time>
      </trkpt>
      <trkpt lat="44.34547" lon="6.30314">
        <ele>1615.4000244141</ele>
        <time>2016-07-19T15:38:08.000Z</time>
      </trkpt>
      <trkpt lat="44.34552" lon="6.30328">
        <ele>1612.8000488281</ele>
        <time>2016-07-19T15:38:16.000Z</time>
      </trkpt>
      <trkpt lat="44.34555" lon="6.3034">
        <ele>1611</ele>
        <time>2016-07-19T15:38:22.000Z</time>
      </trkpt>
      <trkpt lat="44.34555" lon="6.30347">
        <ele>1610.8000488281</ele>
        <time>2016-07-19T15:38:26.000Z</time>
      </trkpt>
      <trkpt lat="44.34557" lon="6.30355">
        <ele>1610</ele>
        <time>2016-07-19T15:38:31.000Z</time>
      </trkpt>
      <trkpt lat="44.34557" lon="6.30357">
        <ele>1609.8000488281</ele>
        <time>2016-07-19T15:38:32.000Z</time>
      </trkpt>
      <trkpt lat="44.34561" lon="6.30368">
        <ele>1608.1999511719</ele>
        <time>2016-07-19T15:38:38.000Z</time>
      </trkpt>
      <trkpt lat="44.34562" lon="6.3037">
        <ele>1608</ele>
        <time>2016-07-19T15:38:39.000Z</time>
      </trkpt>
      <trkpt lat="44.34563" lon="6.30382">
        <ele>1607.1999511719</ele>
        <time>2016-07-19T15:38:46.000Z</time>
      </trkpt>
      <trkpt lat="44.34565" lon="6.30388">
        <ele>1606.4000244141</ele>
        <time>2016-07-19T15:38:50.000Z</time>
      </trkpt>
      <trkpt lat="44.34565" lon="6.304">
        <ele>1605.8000488281</ele>
        <time>2016-07-19T15:38:56.000Z</time>
      </trkpt>
      <trkpt lat="44.34565" lon="6.30402">
        <ele>1605.5999755859</ele>
        <time>2016-07-19T15:38:57.000Z</time>
      </trkpt>
      <trkpt lat="44.34566" lon="6.30412">
        <ele>1604.8000488281</ele>
        <time>2016-07-19T15:39:03.000Z</time>
      </trkpt>
      <trkpt lat="44.34565" lon="6.30416">
        <ele>1604.5999755859</ele>
        <time>2016-07-19T15:39:05.000Z</time>
      </trkpt>
      <trkpt lat="44.34568" lon="6.30432">
        <ele>1602.1999511719</ele>
        <time>2016-07-19T15:39:11.000Z</time>
      </trkpt>
      <trkpt lat="44.3457" lon="6.30442">
        <ele>1600.1999511719</ele>
        <time>2016-07-19T15:39:15.000Z</time>
      </trkpt>
      <trkpt lat="44.34568" lon="6.30446">
        <ele>1600</ele>
        <time>2016-07-19T15:39:17.000Z</time>
      </trkpt>
      <trkpt lat="44.34566" lon="6.30455">
        <ele>1598.8000488281</ele>
        <time>2016-07-19T15:39:21.000Z</time>
      </trkpt>
      <trkpt lat="44.34565" lon="6.30471">
        <ele>1596.1999511719</ele>
        <time>2016-07-19T15:39:28.000Z</time>
      </trkpt>
      <trkpt lat="44.34563" lon="6.30486">
        <ele>1594.1999511719</ele>
        <time>2016-07-19T15:39:35.000Z</time>
      </trkpt>
      <trkpt lat="44.34561" lon="6.30495">
        <ele>1593.4000244141</ele>
        <time>2016-07-19T15:39:40.000Z</time>
      </trkpt>
      <trkpt lat="44.3456" lon="6.30497">
        <ele>1593.4000244141</ele>
        <time>2016-07-19T15:39:41.000Z</time>
      </trkpt>
      <trkpt lat="44.34559" lon="6.30502">
        <ele>1593</ele>
        <time>2016-07-19T15:39:44.000Z</time>
      </trkpt>
      <trkpt lat="44.34555" lon="6.30533">
        <ele>1587.4000244141</ele>
        <time>2016-07-19T15:39:59.000Z</time>
      </trkpt>
      <trkpt lat="44.34551" lon="6.30544">
        <ele>1585.1999511719</ele>
        <time>2016-07-19T15:40:06.000Z</time>
      </trkpt>
      <trkpt lat="44.3455" lon="6.30549">
        <ele>1584.1999511719</ele>
        <time>2016-07-19T15:40:13.000Z</time>
      </trkpt>
      <trkpt lat="44.34548" lon="6.30559">
        <ele>1582.1999511719</ele>
        <time>2016-07-19T15:40:19.000Z</time>
      </trkpt>
      <trkpt lat="44.34548" lon="6.30569">
        <ele>1580.1999511719</ele>
        <time>2016-07-19T15:40:24.000Z</time>
      </trkpt>
      <trkpt lat="44.34549" lon="6.3058">
        <ele>1577.8000488281</ele>
        <time>2016-07-19T15:40:30.000Z</time>
      </trkpt>
      <trkpt lat="44.34549" lon="6.30582">
        <ele>1577.1999511719</ele>
        <time>2016-07-19T15:40:31.000Z</time>
      </trkpt>
      <trkpt lat="44.3455" lon="6.30585">
        <ele>1576.4000244141</ele>
        <time>2016-07-19T15:40:32.000Z</time>
      </trkpt>
      <trkpt lat="44.34551" lon="6.30594">
        <ele>1573.5999755859</ele>
        <time>2016-07-19T15:40:36.000Z</time>
      </trkpt>
      <trkpt lat="44.34551" lon="6.30599">
        <ele>1572.1999511719</ele>
        <time>2016-07-19T15:40:38.000Z</time>
      </trkpt>
      <trkpt lat="44.34551" lon="6.30605">
        <ele>1570.4000244141</ele>
        <time>2016-07-19T15:40:41.000Z</time>
      </trkpt>
      <trkpt lat="44.34551" lon="6.30614">
        <ele>1568</ele>
        <time>2016-07-19T15:40:45.000Z</time>
      </trkpt>
      <trkpt lat="44.34549" lon="6.30623">
        <ele>1565.4000244141</ele>
        <time>2016-07-19T15:40:49.000Z</time>
      </trkpt>
      <trkpt lat="44.34548" lon="6.30627">
        <ele>1564.4000244141</ele>
        <time>2016-07-19T15:40:51.000Z</time>
      </trkpt>
      <trkpt lat="44.3455" lon="6.30644">
        <ele>1559.4000244141</ele>
        <time>2016-07-19T15:41:00.000Z</time>
      </trkpt>
      <trkpt lat="44.34551" lon="6.3066">
        <ele>1554.8000488281</ele>
        <time>2016-07-19T15:41:09.000Z</time>
      </trkpt>
      <trkpt lat="44.34552" lon="6.30677">
        <ele>1550.4000244141</ele>
        <time>2016-07-19T15:41:17.000Z</time>
      </trkpt>
      <trkpt lat="44.34553" lon="6.30679">
        <ele>1549.8000488281</ele>
        <time>2016-07-19T15:41:18.000Z</time>
      </trkpt>
      <trkpt lat="44.34555" lon="6.30687">
        <ele>1547.4000244141</ele>
        <time>2016-07-19T15:41:23.000Z</time>
      </trkpt>
      <trkpt lat="44.34556" lon="6.30702">
        <ele>1543.4000244141</ele>
        <time>2016-07-19T15:41:31.000Z</time>
      </trkpt>
      <trkpt lat="44.34558" lon="6.30714">
        <ele>1540.1999511719</ele>
        <time>2016-07-19T15:41:38.000Z</time>
      </trkpt>
      <trkpt lat="44.3456" lon="6.30724">
        <ele>1537.5999755859</ele>
        <time>2016-07-19T15:41:44.000Z</time>
      </trkpt>
      <trkpt lat="44.34563" lon="6.30737">
        <ele>1534</ele>
        <time>2016-07-19T15:41:51.000Z</time>
      </trkpt>
      <trkpt lat="44.34563" lon="6.30739">
        <ele>1533.4000244141</ele>
        <time>2016-07-19T15:41:52.000Z</time>
      </trkpt>
      <trkpt lat="44.34565" lon="6.30754">
        <ele>1529.4000244141</ele>
        <time>2016-07-19T15:42:00.000Z</time>
      </trkpt>
      <trkpt lat="44.34566" lon="6.30768">
        <ele>1525.4000244141</ele>
        <time>2016-07-19T15:42:09.000Z</time>
      </trkpt>
      <trkpt lat="44.34566" lon="6.3077">
        <ele>1525.1999511719</ele>
        <time>2016-07-19T15:42:10.000Z</time>
      </trkpt>
      <trkpt lat="44.34566" lon="6.30782">
        <ele>1523</ele>
        <time>2016-07-19T15:42:18.000Z</time>
      </trkpt>
      <trkpt lat="44.34566" lon="6.30783">
        <ele>1522.8000488281</ele>
        <time>2016-07-19T15:42:19.000Z</time>
      </trkpt>
      <trkpt lat="44.34566" lon="6.30786">
        <ele>1522.1999511719</ele>
        <time>2016-07-19T15:42:21.000Z</time>
      </trkpt>
      <trkpt lat="44.34562" lon="6.30796">
        <ele>1521.1999511719</ele>
        <time>2016-07-19T15:42:29.000Z</time>
      </trkpt>
      <trkpt lat="44.34561" lon="6.308">
        <ele>1520.4000244141</ele>
        <time>2016-07-19T15:42:33.000Z</time>
      </trkpt>
      <trkpt lat="44.34562" lon="6.3081">
        <ele>1518.4000244141</ele>
        <time>2016-07-19T15:42:39.000Z</time>
      </trkpt>
      <trkpt lat="44.34565" lon="6.30818">
        <ele>1516.8000488281</ele>
        <time>2016-07-19T15:42:45.000Z</time>
      </trkpt>
      <trkpt lat="44.34566" lon="6.30822">
        <ele>1515.8000488281</ele>
        <time>2016-07-19T15:42:48.000Z</time>
      </trkpt>
      <trkpt lat="44.34569" lon="6.30833">
        <ele>1513.5999755859</ele>
        <time>2016-07-19T15:42:55.000Z</time>
      </trkpt>
      <trkpt lat="44.34571" lon="6.30845">
        <ele>1511</ele>
        <time>2016-07-19T15:43:02.000Z</time>
      </trkpt>
      <trkpt lat="44.34571" lon="6.30847">
        <ele>1510.5999755859</ele>
        <time>2016-07-19T15:43:03.000Z</time>
      </trkpt>
      <trkpt lat="44.34576" lon="6.30862">
        <ele>1507</ele>
        <time>2016-07-19T15:43:11.000Z</time>
      </trkpt>
      <trkpt lat="44.34577" lon="6.30865">
        <ele>1506.1999511719</ele>
        <time>2016-07-19T15:43:13.000Z</time>
      </trkpt>
      <trkpt lat="44.34581" lon="6.30874">
        <ele>1503.5999755859</ele>
        <time>2016-07-19T15:43:20.000Z</time>
      </trkpt>
      <trkpt lat="44.34581" lon="6.30875">
        <ele>1503.4000244141</ele>
        <time>2016-07-19T15:43:21.000Z</time>
      </trkpt>
      <trkpt lat="44.34583" lon="6.3088">
        <ele>1501.8000488281</ele>
        <time>2016-07-19T15:43:25.000Z</time>
      </trkpt>
      <trkpt lat="44.34584" lon="6.30887">
        <ele>1500</ele>
        <time>2016-07-19T15:43:29.000Z</time>
      </trkpt>
      <trkpt lat="44.34584" lon="6.3089">
        <ele>1499.4000244141</ele>
        <time>2016-07-19T15:43:31.000Z</time>
      </trkpt>
      <trkpt lat="44.34586" lon="6.30897">
        <ele>1497.4000244141</ele>
        <time>2016-07-19T15:43:37.000Z</time>
      </trkpt>
      <trkpt lat="44.34586" lon="6.309">
        <ele>1496.8000488281</ele>
        <time>2016-07-19T15:43:40.000Z</time>
      </trkpt>
      <trkpt lat="44.34588" lon="6.30909">
        <ele>1495.1999511719</ele>
        <time>2016-07-19T15:43:46.000Z</time>
      </trkpt>
      <trkpt lat="44.34587" lon="6.30913">
        <ele>1494.4000244141</ele>
        <time>2016-07-19T15:43:48.000Z</time>
      </trkpt>
      <trkpt lat="44.34582" lon="6.30925">
        <ele>1492.4000244141</ele>
        <time>2016-07-19T15:43:56.000Z</time>
      </trkpt>
      <trkpt lat="44.34579" lon="6.3093">
        <ele>1491.8000488281</ele>
        <time>2016-07-19T15:43:59.000Z</time>
      </trkpt>
      <trkpt lat="44.34573" lon="6.30938">
        <ele>1490.5999755859</ele>
        <time>2016-07-19T15:44:06.000Z</time>
      </trkpt>
      <trkpt lat="44.3457" lon="6.30949">
        <ele>1486.5999755859</ele>
        <time>2016-07-19T15:44:13.000Z</time>
      </trkpt>
      <trkpt lat="44.34565" lon="6.30962">
        <ele>1482</ele>
        <time>2016-07-19T15:44:21.000Z</time>
      </trkpt>
      <trkpt lat="44.3456" lon="6.30969">
        <ele>1479</ele>
        <time>2016-07-19T15:44:27.000Z</time>
      </trkpt>
      <trkpt lat="44.34554" lon="6.30979">
        <ele>1475</ele>
        <time>2016-07-19T15:44:35.000Z</time>
      </trkpt>
      <trkpt lat="44.34552" lon="6.30982">
        <ele>1474</ele>
        <time>2016-07-19T15:44:38.000Z</time>
      </trkpt>
      <trkpt lat="44.34551" lon="6.30994">
        <ele>1471.4000244141</ele>
        <time>2016-07-19T15:44:47.000Z</time>
      </trkpt>
      <trkpt lat="44.3455" lon="6.30999">
        <ele>1470.1999511719</ele>
        <time>2016-07-19T15:44:51.000Z</time>
      </trkpt>
      <trkpt lat="44.34547" lon="6.31015">
        <ele>1465.5999755859</ele>
        <time>2016-07-19T15:45:01.000Z</time>
      </trkpt>
      <trkpt lat="44.34543" lon="6.31026">
        <ele>1461.8000488281</ele>
        <time>2016-07-19T15:45:08.000Z</time>
      </trkpt>
      <trkpt lat="44.34539" lon="6.31034">
        <ele>1459</ele>
        <time>2016-07-19T15:45:14.000Z</time>
      </trkpt>
      <trkpt lat="44.34532" lon="6.31041">
        <ele>1456</ele>
        <time>2016-07-19T15:45:22.000Z</time>
      </trkpt>
      <trkpt lat="44.34527" lon="6.31048">
        <ele>1454</ele>
        <time>2016-07-19T15:45:27.000Z</time>
      </trkpt>
      <trkpt lat="44.34519" lon="6.31055">
        <ele>1452.1999511719</ele>
        <time>2016-07-19T15:45:35.000Z</time>
      </trkpt>
      <trkpt lat="44.34514" lon="6.31063">
        <ele>1450.5999755859</ele>
        <time>2016-07-19T15:45:41.000Z</time>
      </trkpt>
      <trkpt lat="44.34513" lon="6.31066">
        <ele>1450</ele>
        <time>2016-07-19T15:45:43.000Z</time>
      </trkpt>
      <trkpt lat="44.34514" lon="6.31079">
        <ele>1447.1999511719</ele>
        <time>2016-07-19T15:45:51.000Z</time>
      </trkpt>
      <trkpt lat="44.34513" lon="6.31087">
        <ele>1445.5999755859</ele>
        <time>2016-07-19T15:45:57.000Z</time>
      </trkpt>
      <trkpt lat="44.34511" lon="6.31096">
        <ele>1443.5999755859</ele>
        <time>2016-07-19T15:46:03.000Z</time>
      </trkpt>
      <trkpt lat="44.3451" lon="6.31102">
        <ele>1442.4000244141</ele>
        <time>2016-07-19T15:46:07.000Z</time>
      </trkpt>
      <trkpt lat="44.34503" lon="6.3111">
        <ele>1440.8000488281</ele>
        <time>2016-07-19T15:46:14.000Z</time>
      </trkpt>
      <trkpt lat="44.34498" lon="6.31113">
        <ele>1440.4000244141</ele>
        <time>2016-07-19T15:46:19.000Z</time>
      </trkpt>
      <trkpt lat="44.34492" lon="6.31119">
        <ele>1439</ele>
        <time>2016-07-19T15:46:25.000Z</time>
      </trkpt>
      <trkpt lat="44.3449" lon="6.31123">
        <ele>1438.4000244141</ele>
        <time>2016-07-19T15:46:27.000Z</time>
      </trkpt>
      <trkpt lat="44.34487" lon="6.31126">
        <ele>1437.5999755859</ele>
        <time>2016-07-19T15:46:30.000Z</time>
      </trkpt>
      <trkpt lat="44.3448" lon="6.31135">
        <ele>1435.4000244141</ele>
        <time>2016-07-19T15:46:37.000Z</time>
      </trkpt>
      <trkpt lat="44.34478" lon="6.31141">
        <ele>1434</ele>
        <time>2016-07-19T15:46:41.000Z</time>
      </trkpt>
      <trkpt lat="44.34474" lon="6.31147">
        <ele>1432.5999755859</ele>
        <time>2016-07-19T15:46:47.000Z</time>
      </trkpt>
      <trkpt lat="44.34474" lon="6.31149">
        <ele>1432.4000244141</ele>
        <time>2016-07-19T15:46:48.000Z</time>
      </trkpt>
      <trkpt lat="44.34471" lon="6.31164">
        <ele>1429.5999755859</ele>
        <time>2016-07-19T15:46:57.000Z</time>
      </trkpt>
      <trkpt lat="44.34467" lon="6.31174">
        <ele>1427.5999755859</ele>
        <time>2016-07-19T15:47:03.000Z</time>
      </trkpt>
      <trkpt lat="44.34462" lon="6.31182">
        <ele>1425.8000488281</ele>
        <time>2016-07-19T15:47:10.000Z</time>
      </trkpt>
      <trkpt lat="44.34457" lon="6.31189">
        <ele>1424.1999511719</ele>
        <time>2016-07-19T15:47:16.000Z</time>
      </trkpt>
      <trkpt lat="44.34451" lon="6.31197">
        <ele>1422.1999511719</ele>
        <time>2016-07-19T15:47:23.000Z</time>
      </trkpt>
      <trkpt lat="44.34446" lon="6.31201">
        <ele>1421.1999511719</ele>
        <time>2016-07-19T15:47:27.000Z</time>
      </trkpt>
      <trkpt lat="44.34438" lon="6.31204">
        <ele>1420.5999755859</ele>
        <time>2016-07-19T15:47:34.000Z</time>
      </trkpt>
      <trkpt lat="44.34436" lon="6.31205">
        <ele>1420.4000244141</ele>
        <time>2016-07-19T15:47:36.000Z</time>
      </trkpt>
      <trkpt lat="44.34431" lon="6.31204">
        <ele>1420.5999755859</ele>
        <time>2016-07-19T15:47:43.000Z</time>
      </trkpt>
      <trkpt lat="44.34426" lon="6.31208">
        <ele>1419.8000488281</ele>
        <time>2016-07-19T15:47:49.000Z</time>
      </trkpt>
      <trkpt lat="44.34425" lon="6.31209">
        <ele>1419.5999755859</ele>
        <time>2016-07-19T15:47:50.000Z</time>
      </trkpt>
      <trkpt lat="44.34424" lon="6.31211">
        <ele>1419</ele>
        <time>2016-07-19T15:47:52.000Z</time>
      </trkpt>
      <trkpt lat="44.34419" lon="6.31218">
        <ele>1417</ele>
        <time>2016-07-19T15:47:59.000Z</time>
      </trkpt>
      <trkpt lat="44.34419" lon="6.31219">
        <ele>1416.5999755859</ele>
        <time>2016-07-19T15:48:00.000Z</time>
      </trkpt>
      <trkpt lat="44.34419" lon="6.31233">
        <ele>1413</ele>
        <time>2016-07-19T15:48:08.000Z</time>
      </trkpt>
      <trkpt lat="44.34419" lon="6.31239">
        <ele>1411.8000488281</ele>
        <time>2016-07-19T15:48:11.000Z</time>
      </trkpt>
      <trkpt lat="44.34419" lon="6.31244">
        <ele>1410.5999755859</ele>
        <time>2016-07-19T15:48:15.000Z</time>
      </trkpt>
      <trkpt lat="44.3442" lon="6.31255">
        <ele>1408.4000244141</ele>
        <time>2016-07-19T15:48:21.000Z</time>
      </trkpt>
      <trkpt lat="44.34421" lon="6.31262">
        <ele>1406.8000488281</ele>
        <time>2016-07-19T15:48:26.000Z</time>
      </trkpt>
      <trkpt lat="44.34424" lon="6.31276">
        <ele>1404</ele>
        <time>2016-07-19T15:48:34.000Z</time>
      </trkpt>
      <trkpt lat="44.34423" lon="6.31286">
        <ele>1401.8000488281</ele>
        <time>2016-07-19T15:48:41.000Z</time>
      </trkpt>
      <trkpt lat="44.34423" lon="6.31289">
        <ele>1401.1999511719</ele>
        <time>2016-07-19T15:48:43.000Z</time>
      </trkpt>
      <trkpt lat="44.34426" lon="6.31301">
        <ele>1398.4000244141</ele>
        <time>2016-07-19T15:48:50.000Z</time>
      </trkpt>
      <trkpt lat="44.34426" lon="6.31304">
        <ele>1397.8000488281</ele>
        <time>2016-07-19T15:48:51.000Z</time>
      </trkpt>
      <trkpt lat="44.34422" lon="6.31312">
        <ele>1395.5999755859</ele>
        <time>2016-07-19T15:48:58.000Z</time>
      </trkpt>
      <trkpt lat="44.3442" lon="6.3132">
        <ele>1393.4000244141</ele>
        <time>2016-07-19T15:49:03.000Z</time>
      </trkpt>
      <trkpt lat="44.34416" lon="6.31326">
        <ele>1392</ele>
        <time>2016-07-19T15:49:07.000Z</time>
      </trkpt>
      <trkpt lat="44.3441" lon="6.31332">
        <ele>1390</ele>
        <time>2016-07-19T15:49:14.000Z</time>
      </trkpt>
      <trkpt lat="44.34405" lon="6.31336">
        <ele>1388.8000488281</ele>
        <time>2016-07-19T15:49:19.000Z</time>
      </trkpt>
      <trkpt lat="44.34402" lon="6.31345">
        <ele>1386.5999755859</ele>
        <time>2016-07-19T15:49:26.000Z</time>
      </trkpt>
      <trkpt lat="44.344" lon="6.31346">
        <ele>1386.1999511719</ele>
        <time>2016-07-19T15:49:28.000Z</time>
      </trkpt>
      <trkpt lat="44.34398" lon="6.31347">
        <ele>1385.8000488281</ele>
        <time>2016-07-19T15:49:30.000Z</time>
      </trkpt>
      <trkpt lat="44.3439" lon="6.31357">
        <ele>1383.1999511719</ele>
        <time>2016-07-19T15:49:40.000Z</time>
      </trkpt>
      <trkpt lat="44.34387" lon="6.31363">
        <ele>1381.5999755859</ele>
        <time>2016-07-19T15:49:47.000Z</time>
      </trkpt>
      <trkpt lat="44.34383" lon="6.31371">
        <ele>1379.8000488281</ele>
        <time>2016-07-19T15:49:53.000Z</time>
      </trkpt>
      <trkpt lat="44.34382" lon="6.31376">
        <ele>1378.5999755859</ele>
        <time>2016-07-19T15:49:58.000Z</time>
      </trkpt>
      <trkpt lat="44.34382" lon="6.31382">
        <ele>1377.4000244141</ele>
        <time>2016-07-19T15:50:02.000Z</time>
      </trkpt>
      <trkpt lat="44.34382" lon="6.31383">
        <ele>1377.1999511719</ele>
        <time>2016-07-19T15:50:04.000Z</time>
      </trkpt>
      <trkpt lat="44.34381" lon="6.31387">
        <ele>1376.1999511719</ele>
        <time>2016-07-19T15:50:08.000Z</time>
      </trkpt>
      <trkpt lat="44.34381" lon="6.31395">
        <ele>1374.4000244141</ele>
        <time>2016-07-19T15:50:15.000Z</time>
      </trkpt>
      <trkpt lat="44.34379" lon="6.31399">
        <ele>1373.5999755859</ele>
        <time>2016-07-19T15:50:17.000Z</time>
      </trkpt>
      <trkpt lat="44.34376" lon="6.31404">
        <ele>1372</ele>
        <time>2016-07-19T15:50:22.000Z</time>
      </trkpt>
      <trkpt lat="44.34372" lon="6.3141">
        <ele>1370.1999511719</ele>
        <time>2016-07-19T15:50:29.000Z</time>
      </trkpt>
      <trkpt lat="44.34371" lon="6.31415">
        <ele>1369.1999511719</ele>
        <time>2016-07-19T15:50:33.000Z</time>
      </trkpt>
      <trkpt lat="44.3437" lon="6.3142">
        <ele>1368</ele>
        <time>2016-07-19T15:50:37.000Z</time>
      </trkpt>
      <trkpt lat="44.3437" lon="6.31425">
        <ele>1366.5999755859</ele>
        <time>2016-07-19T15:50:44.000Z</time>
      </trkpt>
      <trkpt lat="44.34369" lon="6.31429">
        <ele>1365.5999755859</ele>
        <time>2016-07-19T15:50:49.000Z</time>
      </trkpt>
      <trkpt lat="44.34369" lon="6.3143">
        <ele>1365.1999511719</ele>
        <time>2016-07-19T15:50:50.000Z</time>
      </trkpt>
      <trkpt lat="44.34368" lon="6.3144">
        <ele>1362.8000488281</ele>
        <time>2016-07-19T15:50:59.000Z</time>
      </trkpt>
      <trkpt lat="44.34367" lon="6.31442">
        <ele>1362.4000244141</ele>
        <time>2016-07-19T15:51:01.000Z</time>
      </trkpt>
      <trkpt lat="44.34364" lon="6.31448">
        <ele>1360.8000488281</ele>
        <time>2016-07-19T15:51:06.000Z</time>
      </trkpt>
      <trkpt lat="44.34363" lon="6.31452">
        <ele>1359.5999755859</ele>
        <time>2016-07-19T15:51:09.000Z</time>
      </trkpt>
      <trkpt lat="44.34358" lon="6.31458">
        <ele>1357.5999755859</ele>
        <time>2016-07-19T15:51:15.000Z</time>
      </trkpt>
      <trkpt lat="44.34353" lon="6.31468">
        <ele>1354.8000488281</ele>
        <time>2016-07-19T15:51:22.000Z</time>
      </trkpt>
      <trkpt lat="44.34345" lon="6.31478">
        <ele>1351.8000488281</ele>
        <time>2016-07-19T15:51:31.000Z</time>
      </trkpt>
      <trkpt lat="44.34339" lon="6.31486">
        <ele>1350</ele>
        <time>2016-07-19T15:51:38.000Z</time>
      </trkpt>
      <trkpt lat="44.34336" lon="6.31486">
        <ele>1349.5999755859</ele>
        <time>2016-07-19T15:51:51.000Z</time>
      </trkpt>
      <trkpt lat="44.34329" lon="6.31493">
        <ele>1348</ele>
        <time>2016-07-19T15:51:58.000Z</time>
      </trkpt>
      <trkpt lat="44.34323" lon="6.31502">
        <ele>1346</ele>
        <time>2016-07-19T15:52:05.000Z</time>
      </trkpt>
      <trkpt lat="44.34319" lon="6.31511">
        <ele>1344</ele>
        <time>2016-07-19T15:52:12.000Z</time>
      </trkpt>
      <trkpt lat="44.34319" lon="6.31512">
        <ele>1343.8000488281</ele>
        <time>2016-07-19T15:52:13.000Z</time>
      </trkpt>
      <trkpt lat="44.34316" lon="6.31516">
        <ele>1343</ele>
        <time>2016-07-19T15:52:16.000Z</time>
      </trkpt>
      <trkpt lat="44.34311" lon="6.31525">
        <ele>1340.5999755859</ele>
        <time>2016-07-19T15:52:24.000Z</time>
      </trkpt>
      <trkpt lat="44.3431" lon="6.31526">
        <ele>1340.4000244141</ele>
        <time>2016-07-19T15:52:25.000Z</time>
      </trkpt>
      <trkpt lat="44.34308" lon="6.31535">
        <ele>1338.4000244141</ele>
        <time>2016-07-19T15:52:32.000Z</time>
      </trkpt>
      <trkpt lat="44.34306" lon="6.31539">
        <ele>1337.4000244141</ele>
        <time>2016-07-19T15:52:35.000Z</time>
      </trkpt>
      <trkpt lat="44.34301" lon="6.31549">
        <ele>1335</ele>
        <time>2016-07-19T15:52:43.000Z</time>
      </trkpt>
      <trkpt lat="44.343" lon="6.3155">
        <ele>1334.8000488281</ele>
        <time>2016-07-19T15:52:44.000Z</time>
      </trkpt>
      <trkpt lat="44.34295" lon="6.31552">
        <ele>1333.5999755859</ele>
        <time>2016-07-19T15:52:49.000Z</time>
      </trkpt>
      <trkpt lat="44.34293" lon="6.31554">
        <ele>1333</ele>
        <time>2016-07-19T15:52:52.000Z</time>
      </trkpt>
      <trkpt lat="44.3429" lon="6.31557">
        <ele>1332.1999511719</ele>
        <time>2016-07-19T15:52:56.000Z</time>
      </trkpt>
      <trkpt lat="44.34287" lon="6.3156">
        <ele>1331.1999511719</ele>
        <time>2016-07-19T15:53:00.000Z</time>
      </trkpt>
      <trkpt lat="44.3428" lon="6.31569">
        <ele>1328.8000488281</ele>
        <time>2016-07-19T15:53:08.000Z</time>
      </trkpt>
      <trkpt lat="44.34276" lon="6.31575">
        <ele>1327.1999511719</ele>
        <time>2016-07-19T15:53:14.000Z</time>
      </trkpt>
      <trkpt lat="44.3427" lon="6.31585">
        <ele>1325.1999511719</ele>
        <time>2016-07-19T15:53:20.000Z</time>
      </trkpt>
      <trkpt lat="44.34269" lon="6.31587">
        <ele>1324.5999755859</ele>
        <time>2016-07-19T15:53:22.000Z</time>
      </trkpt>
      <trkpt lat="44.3427" lon="6.31594">
        <ele>1322.8000488281</ele>
        <time>2016-07-19T15:53:27.000Z</time>
      </trkpt>
      <trkpt lat="44.34269" lon="6.31601">
        <ele>1321</ele>
        <time>2016-07-19T15:53:32.000Z</time>
      </trkpt>
      <trkpt lat="44.34269" lon="6.31602">
        <ele>1320.5999755859</ele>
        <time>2016-07-19T15:53:33.000Z</time>
      </trkpt>
      <trkpt lat="44.3427" lon="6.31603">
        <ele>1320.1999511719</ele>
        <time>2016-07-19T15:53:34.000Z</time>
      </trkpt>
      <trkpt lat="44.34269" lon="6.3161">
        <ele>1318.5999755859</ele>
        <time>2016-07-19T15:53:38.000Z</time>
      </trkpt>
      <trkpt lat="44.34269" lon="6.31623">
        <ele>1315.1999511719</ele>
        <time>2016-07-19T15:53:47.000Z</time>
      </trkpt>
      <trkpt lat="44.34268" lon="6.31625">
        <ele>1314.5999755859</ele>
        <time>2016-07-19T15:53:48.000Z</time>
      </trkpt>
      <trkpt lat="44.34269" lon="6.31632">
        <ele>1312.8000488281</ele>
        <time>2016-07-19T15:53:52.000Z</time>
      </trkpt>
      <trkpt lat="44.34268" lon="6.31636">
        <ele>1311.5999755859</ele>
        <time>2016-07-19T15:53:55.000Z</time>
      </trkpt>
      <trkpt lat="44.3427" lon="6.31643">
        <ele>1309.8000488281</ele>
        <time>2016-07-19T15:54:00.000Z</time>
      </trkpt>
      <trkpt lat="44.34271" lon="6.31647">
        <ele>1308.5999755859</ele>
        <time>2016-07-19T15:54:03.000Z</time>
      </trkpt>
      <trkpt lat="44.34272" lon="6.31651">
        <ele>1307.5999755859</ele>
        <time>2016-07-19T15:54:06.000Z</time>
      </trkpt>
      <trkpt lat="44.34274" lon="6.31657">
        <ele>1305.5999755859</ele>
        <time>2016-07-19T15:54:11.000Z</time>
      </trkpt>
      <trkpt lat="44.34277" lon="6.31662">
        <ele>1304.1999511719</ele>
        <time>2016-07-19T15:54:16.000Z</time>
      </trkpt>
      <trkpt lat="44.34282" lon="6.31669">
        <ele>1301.8000488281</ele>
        <time>2016-07-19T15:54:22.000Z</time>
      </trkpt>
      <trkpt lat="44.34286" lon="6.31679">
        <ele>1299.5999755859</ele>
        <time>2016-07-19T15:54:28.000Z</time>
      </trkpt>
      <trkpt lat="44.34287" lon="6.31688">
        <ele>1297.1999511719</ele>
        <time>2016-07-19T15:54:33.000Z</time>
      </trkpt>
      <trkpt lat="44.34288" lon="6.3169">
        <ele>1296.8000488281</ele>
        <time>2016-07-19T15:54:34.000Z</time>
      </trkpt>
      <trkpt lat="44.3429" lon="6.31702">
        <ele>1293.5999755859</ele>
        <time>2016-07-19T15:54:41.000Z</time>
      </trkpt>
      <trkpt lat="44.34292" lon="6.31708">
        <ele>1292.1999511719</ele>
        <time>2016-07-19T15:54:46.000Z</time>
      </trkpt>
      <trkpt lat="44.34293" lon="6.31713">
        <ele>1290.8000488281</ele>
        <time>2016-07-19T15:54:50.000Z</time>
      </trkpt>
      <trkpt lat="44.34298" lon="6.31724">
        <ele>1288.4000244141</ele>
        <time>2016-07-19T15:54:58.000Z</time>
      </trkpt>
      <trkpt lat="44.34304" lon="6.31732">
        <ele>1286.5999755859</ele>
        <time>2016-07-19T15:55:06.000Z</time>
      </trkpt>
      <trkpt lat="44.34309" lon="6.31732">
        <ele>1287</ele>
        <time>2016-07-19T15:55:10.000Z</time>
      </trkpt>
      <trkpt lat="44.34315" lon="6.31737">
        <ele>1286.1999511719</ele>
        <time>2016-07-19T15:55:17.000Z</time>
      </trkpt>
      <trkpt lat="44.34318" lon="6.31739">
        <ele>1285.8000488281</ele>
        <time>2016-07-19T15:55:21.000Z</time>
      </trkpt>
      <trkpt lat="44.34322" lon="6.31741">
        <ele>1285.8000488281</ele>
        <time>2016-07-19T15:55:25.000Z</time>
      </trkpt>
      <trkpt lat="44.34327" lon="6.31741">
        <ele>1286.1999511719</ele>
        <time>2016-07-19T15:55:29.000Z</time>
      </trkpt>
      <trkpt lat="44.34335" lon="6.31747">
        <ele>1285.1999511719</ele>
        <time>2016-07-19T15:55:36.000Z</time>
      </trkpt>
      <trkpt lat="44.34338" lon="6.31751">
        <ele>1284.1999511719</ele>
        <time>2016-07-19T15:55:39.000Z</time>
      </trkpt>
      <trkpt lat="44.34337" lon="6.31763">
        <ele>1281</ele>
        <time>2016-07-19T15:55:46.000Z</time>
      </trkpt>
      <trkpt lat="44.34337" lon="6.31772">
        <ele>1278.8000488281</ele>
        <time>2016-07-19T15:55:51.000Z</time>
      </trkpt>
      <trkpt lat="44.34332" lon="6.31785">
        <ele>1275</ele>
        <time>2016-07-19T15:56:00.000Z</time>
      </trkpt>
      <trkpt lat="44.34323" lon="6.31786">
        <ele>1274</ele>
        <time>2016-07-19T15:56:07.000Z</time>
      </trkpt>
      <trkpt lat="44.34319" lon="6.31786">
        <ele>1273.5999755859</ele>
        <time>2016-07-19T15:56:10.000Z</time>
      </trkpt>
      <trkpt lat="44.34308" lon="6.3179">
        <ele>1271.5999755859</ele>
        <time>2016-07-19T15:56:19.000Z</time>
      </trkpt>
      <trkpt lat="44.34307" lon="6.31791">
        <ele>1271.1999511719</ele>
        <time>2016-07-19T15:56:25.000Z</time>
      </trkpt>
      <trkpt lat="44.34311" lon="6.31795">
        <ele>1270.4000244141</ele>
        <time>2016-07-19T15:57:04.000Z</time>
      </trkpt>
      <trkpt lat="44.34315" lon="6.31802">
        <ele>1269</ele>
        <time>2016-07-19T15:57:09.000Z</time>
      </trkpt>
      <trkpt lat="44.34317" lon="6.31807">
        <ele>1268</ele>
        <time>2016-07-19T15:57:12.000Z</time>
      </trkpt>
      <trkpt lat="44.34322" lon="6.31818">
        <ele>1265.4000244141</ele>
        <time>2016-07-19T15:57:20.000Z</time>
      </trkpt>
      <trkpt lat="44.34328" lon="6.31827">
        <ele>1263.4000244141</ele>
        <time>2016-07-19T15:57:27.000Z</time>
      </trkpt>
      <trkpt lat="44.34332" lon="6.31837">
        <ele>1261.1999511719</ele>
        <time>2016-07-19T15:57:33.000Z</time>
      </trkpt>
      <trkpt lat="44.34333" lon="6.31847">
        <ele>1258.5999755859</ele>
        <time>2016-07-19T15:57:39.000Z</time>
      </trkpt>
      <trkpt lat="44.34325" lon="6.31856">
        <ele>1255.5999755859</ele>
        <time>2016-07-19T15:57:48.000Z</time>
      </trkpt>
      <trkpt lat="44.3431" lon="6.31869">
        <ele>1252.1999511719</ele>
        <time>2016-07-19T15:58:02.000Z</time>
      </trkpt>
      <trkpt lat="44.3431" lon="6.31872">
        <ele>1251.5999755859</ele>
        <time>2016-07-19T15:58:03.000Z</time>
      </trkpt>
      <trkpt lat="44.34313" lon="6.31882">
        <ele>1249.1999511719</ele>
        <time>2016-07-19T15:58:09.000Z</time>
      </trkpt>
      <trkpt lat="44.34313" lon="6.31884">
        <ele>1249</ele>
        <time>2016-07-19T15:58:10.000Z</time>
      </trkpt>
      <trkpt lat="44.34313" lon="6.31887">
        <ele>1248.4000244141</ele>
        <time>2016-07-19T15:58:12.000Z</time>
      </trkpt>
      <trkpt lat="44.34314" lon="6.31895">
        <ele>1246.5999755859</ele>
        <time>2016-07-19T15:58:16.000Z</time>
      </trkpt>
      <trkpt lat="44.34317" lon="6.31905">
        <ele>1244</ele>
        <time>2016-07-19T15:58:23.000Z</time>
      </trkpt>
      <trkpt lat="44.34319" lon="6.31913">
        <ele>1241.8000488281</ele>
        <time>2016-07-19T15:58:28.000Z</time>
      </trkpt>
      <trkpt lat="44.34324" lon="6.31925">
        <ele>1238.8000488281</ele>
        <time>2016-07-19T15:58:35.000Z</time>
      </trkpt>
      <trkpt lat="44.34328" lon="6.31938">
        <ele>1235.4000244141</ele>
        <time>2016-07-19T15:58:43.000Z</time>
      </trkpt>
      <trkpt lat="44.34329" lon="6.31957">
        <ele>1230.8000488281</ele>
        <time>2016-07-19T15:58:54.000Z</time>
      </trkpt>
      <trkpt lat="44.34324" lon="6.31967">
        <ele>1228.5999755859</ele>
        <time>2016-07-19T15:59:00.000Z</time>
      </trkpt>
      <trkpt lat="44.34318" lon="6.31975">
        <ele>1226.8000488281</ele>
        <time>2016-07-19T15:59:06.000Z</time>
      </trkpt>
      <trkpt lat="44.34313" lon="6.31984">
        <ele>1224.8000488281</ele>
        <time>2016-07-19T15:59:13.000Z</time>
      </trkpt>
      <trkpt lat="44.34308" lon="6.31992">
        <ele>1223</ele>
        <time>2016-07-19T15:59:20.000Z</time>
      </trkpt>
      <trkpt lat="44.34306" lon="6.31996">
        <ele>1222</ele>
        <time>2016-07-19T15:59:27.000Z</time>
      </trkpt>
      <trkpt lat="44.34304" lon="6.32004">
        <ele>1220.4000244141</ele>
        <time>2016-07-19T15:59:35.000Z</time>
      </trkpt>
      <trkpt lat="44.34302" lon="6.3202">
        <ele>1217.8000488281</ele>
        <time>2016-07-19T15:59:45.000Z</time>
      </trkpt>
      <trkpt lat="44.34301" lon="6.32023">
        <ele>1217.4000244141</ele>
        <time>2016-07-19T15:59:47.000Z</time>
      </trkpt>
      <trkpt lat="44.34298" lon="6.32032">
        <ele>1216</ele>
        <time>2016-07-19T15:59:55.000Z</time>
      </trkpt>
      <trkpt lat="44.34296" lon="6.32043">
        <ele>1214.4000244141</ele>
        <time>2016-07-19T16:00:03.000Z</time>
      </trkpt>
      <trkpt lat="44.34293" lon="6.32054">
        <ele>1212.5999755859</ele>
        <time>2016-07-19T16:00:10.000Z</time>
      </trkpt>
      <trkpt lat="44.34294" lon="6.32066">
        <ele>1210.8000488281</ele>
        <time>2016-07-19T16:00:17.000Z</time>
      </trkpt>
      <trkpt lat="44.34294" lon="6.3207">
        <ele>1210</ele>
        <time>2016-07-19T16:00:20.000Z</time>
      </trkpt>
      <trkpt lat="44.34289" lon="6.32083">
        <ele>1208.1999511719</ele>
        <time>2016-07-19T16:00:29.000Z</time>
      </trkpt>
      <trkpt lat="44.34284" lon="6.32091">
        <ele>1207.1999511719</ele>
        <time>2016-07-19T16:00:36.000Z</time>
      </trkpt>
      <trkpt lat="44.34282" lon="6.32104">
        <ele>1205.1999511719</ele>
        <time>2016-07-19T16:00:44.000Z</time>
      </trkpt>
      <trkpt lat="44.34281" lon="6.32105">
        <ele>1205</ele>
        <time>2016-07-19T16:00:45.000Z</time>
      </trkpt>
      <trkpt lat="44.3428" lon="6.32107">
        <ele>1204.8000488281</ele>
        <time>2016-07-19T16:00:46.000Z</time>
      </trkpt>
      <trkpt lat="44.34272" lon="6.32109">
        <ele>1204.8000488281</ele>
        <time>2016-07-19T16:00:52.000Z</time>
      </trkpt>
      <trkpt lat="44.34271" lon="6.32111">
        <ele>1204.5999755859</ele>
        <time>2016-07-19T16:00:54.000Z</time>
      </trkpt>
      <trkpt lat="44.34266" lon="6.32118">
        <ele>1203.5999755859</ele>
        <time>2016-07-19T16:01:01.000Z</time>
      </trkpt>
      <trkpt lat="44.34259" lon="6.32132">
        <ele>1201.1999511719</ele>
        <time>2016-07-19T16:01:10.000Z</time>
      </trkpt>
      <trkpt lat="44.34257" lon="6.32141">
        <ele>1199</ele>
        <time>2016-07-19T16:01:16.000Z</time>
      </trkpt>
      <trkpt lat="44.34254" lon="6.32145">
        <ele>1197.8000488281</ele>
        <time>2016-07-19T16:01:20.000Z</time>
      </trkpt>
      <trkpt lat="44.34245" lon="6.32138">
        <ele>1199.1999511719</ele>
        <time>2016-07-19T16:01:28.000Z</time>
      </trkpt>
      <trkpt lat="44.34241" lon="6.32135">
        <ele>1199.8000488281</ele>
        <time>2016-07-19T16:01:32.000Z</time>
      </trkpt>
      <trkpt lat="44.34232" lon="6.32138">
        <ele>1199</ele>
        <time>2016-07-19T16:01:39.000Z</time>
      </trkpt>
      <trkpt lat="44.34228" lon="6.32143">
        <ele>1197.8000488281</ele>
        <time>2016-07-19T16:01:44.000Z</time>
      </trkpt>
      <trkpt lat="44.34223" lon="6.32141">
        <ele>1198</ele>
        <time>2016-07-19T16:01:48.000Z</time>
      </trkpt>
      <trkpt lat="44.34223" lon="6.32138">
        <ele>1198.8000488281</ele>
        <time>2016-07-19T16:02:28.000Z</time>
      </trkpt>
      <trkpt lat="44.34225" lon="6.32139">
        <ele>1198.5999755859</ele>
        <time>2016-07-19T16:02:38.000Z</time>
      </trkpt>
      <trkpt lat="44.34223" lon="6.32139">
        <ele>1198.4000244141</ele>
        <time>2016-07-19T16:02:58.000Z</time>
      </trkpt>
      <trkpt lat="44.34223" lon="6.32161">
        <ele>1194.5999755859</ele>
        <time>2016-07-19T16:03:10.000Z</time>
      </trkpt>
      <trkpt lat="44.34224" lon="6.32172">
        <ele>1193</ele>
        <time>2016-07-19T16:03:16.000Z</time>
      </trkpt>
      <trkpt lat="44.34225" lon="6.32174">
        <ele>1192.8000488281</ele>
        <time>2016-07-19T16:03:17.000Z</time>
      </trkpt>
      <trkpt lat="44.34226" lon="6.32182">
        <ele>1191.5999755859</ele>
        <time>2016-07-19T16:03:21.000Z</time>
      </trkpt>
      <trkpt lat="44.34226" lon="6.32194">
        <ele>1189.4000244141</ele>
        <time>2016-07-19T16:03:28.000Z</time>
      </trkpt>
      <trkpt lat="44.34226" lon="6.32202">
        <ele>1188</ele>
        <time>2016-07-19T16:03:32.000Z</time>
      </trkpt>
      <trkpt lat="44.34227" lon="6.32214">
        <ele>1186.1999511719</ele>
        <time>2016-07-19T16:03:38.000Z</time>
      </trkpt>
      <trkpt lat="44.34228" lon="6.32227">
        <ele>1184</ele>
        <time>2016-07-19T16:03:45.000Z</time>
      </trkpt>
      <trkpt lat="44.34227" lon="6.32229">
        <ele>1183.5999755859</ele>
        <time>2016-07-19T16:03:46.000Z</time>
      </trkpt>
      <trkpt lat="44.34227" lon="6.32233">
        <ele>1183.1999511719</ele>
        <time>2016-07-19T16:03:48.000Z</time>
      </trkpt>
      <trkpt lat="44.34227" lon="6.32242">
        <ele>1182.1999511719</ele>
        <time>2016-07-19T16:03:53.000Z</time>
      </trkpt>
      <trkpt lat="44.34228" lon="6.32254">
        <ele>1180.8000488281</ele>
        <time>2016-07-19T16:03:59.000Z</time>
      </trkpt>
      <trkpt lat="44.34226" lon="6.32266">
        <ele>1179.8000488281</ele>
        <time>2016-07-19T16:04:05.000Z</time>
      </trkpt>
      <trkpt lat="44.34226" lon="6.32268">
        <ele>1179.5999755859</ele>
        <time>2016-07-19T16:04:06.000Z</time>
      </trkpt>
      <trkpt lat="44.34225" lon="6.32278">
        <ele>1178.5999755859</ele>
        <time>2016-07-19T16:04:12.000Z</time>
      </trkpt>
      <trkpt lat="44.34225" lon="6.32291">
        <ele>1177.5999755859</ele>
        <time>2016-07-19T16:04:19.000Z</time>
      </trkpt>
      <trkpt lat="44.34227" lon="6.323">
        <ele>1176.8000488281</ele>
        <time>2016-07-19T16:04:24.000Z</time>
      </trkpt>
      <trkpt lat="44.34233" lon="6.32304">
        <ele>1176.8000488281</ele>
        <time>2016-07-19T16:04:30.000Z</time>
      </trkpt>
      <trkpt lat="44.34232" lon="6.32305">
        <ele>1176.5999755859</ele>
        <time>2016-07-19T16:04:37.000Z</time>
      </trkpt>
      <trkpt lat="44.34235" lon="6.32306">
        <ele>1176.5999755859</ele>
        <time>2016-07-19T16:04:43.000Z</time>
      </trkpt>
      <trkpt lat="44.34236" lon="6.32305">
        <ele>1176.5999755859</ele>
        <time>2016-07-19T16:04:44.000Z</time>
      </trkpt>
      <trkpt lat="44.34241" lon="6.32308">
        <ele>1176.5999755859</ele>
        <time>2016-07-19T16:04:50.000Z</time>
      </trkpt>
      <trkpt lat="44.34242" lon="6.32309">
        <ele>1176.4000244141</ele>
        <time>2016-07-19T16:04:57.000Z</time>
      </trkpt>
      <trkpt lat="44.3425" lon="6.32317">
        <ele>1176</ele>
        <time>2016-07-19T16:05:05.000Z</time>
      </trkpt>
      <trkpt lat="44.34257" lon="6.32325">
        <ele>1175.4000244141</ele>
        <time>2016-07-19T16:05:11.000Z</time>
      </trkpt>
      <trkpt lat="44.34267" lon="6.32337">
        <ele>1174.8000488281</ele>
        <time>2016-07-19T16:05:19.000Z</time>
      </trkpt>
      <trkpt lat="44.34277" lon="6.32348">
        <ele>1174</ele>
        <time>2016-07-19T16:05:27.000Z</time>
      </trkpt>
      <trkpt lat="44.34286" lon="6.32363">
        <ele>1173</ele>
        <time>2016-07-19T16:05:36.000Z</time>
      </trkpt>
      <trkpt lat="44.34288" lon="6.32367">
        <ele>1172.8000488281</ele>
        <time>2016-07-19T16:05:42.000Z</time>
      </trkpt>
      <trkpt lat="44.34292" lon="6.32371">
        <ele>1172.4000244141</ele>
        <time>2016-07-19T16:05:47.000Z</time>
      </trkpt>
      <trkpt lat="44.34299" lon="6.32377">
        <ele>1172.1999511719</ele>
        <time>2016-07-19T16:05:52.000Z</time>
      </trkpt>
      <trkpt lat="44.34301" lon="6.32379">
        <ele>1172</ele>
        <time>2016-07-19T16:05:54.000Z</time>
      </trkpt>
      <trkpt lat="44.34307" lon="6.32386">
        <ele>1171.5999755859</ele>
        <time>2016-07-19T16:05:58.000Z</time>
      </trkpt>
      <trkpt lat="44.34314" lon="6.32393">
        <ele>1171.1999511719</ele>
        <time>2016-07-19T16:06:03.000Z</time>
      </trkpt>
      <trkpt lat="44.34321" lon="6.32398">
        <ele>1170.8000488281</ele>
        <time>2016-07-19T16:06:09.000Z</time>
      </trkpt>
      <trkpt lat="44.34331" lon="6.32403">
        <ele>1170.4000244141</ele>
        <time>2016-07-19T16:06:16.000Z</time>
      </trkpt>
      <trkpt lat="44.34334" lon="6.32405">
        <ele>1170.1999511719</ele>
        <time>2016-07-19T16:06:18.000Z</time>
      </trkpt>
      <trkpt lat="44.3434" lon="6.3241">
        <ele>1169.8000488281</ele>
        <time>2016-07-19T16:06:22.000Z</time>
      </trkpt>
      <trkpt lat="44.34343" lon="6.32415">
        <ele>1169.4000244141</ele>
        <time>2016-07-19T16:06:25.000Z</time>
      </trkpt>
      <trkpt lat="44.34351" lon="6.32432">
        <ele>1167.4000244141</ele>
        <time>2016-07-19T16:06:34.000Z</time>
      </trkpt>
      <trkpt lat="44.34355" lon="6.32448">
        <ele>1165.5999755859</ele>
        <time>2016-07-19T16:06:41.000Z</time>
      </trkpt>
      <trkpt lat="44.34356" lon="6.32468">
        <ele>1163.1999511719</ele>
        <time>2016-07-19T16:06:50.000Z</time>
      </trkpt>
      <trkpt lat="44.34333" lon="6.32482">
        <ele>1161</ele>
        <time>2016-07-19T16:07:05.000Z</time>
      </trkpt>
      <trkpt lat="44.34316" lon="6.3251">
        <ele>1157.1999511719</ele>
        <time>2016-07-19T16:07:21.000Z</time>
      </trkpt>
      <trkpt lat="44.34318" lon="6.32527">
        <ele>1155.8000488281</ele>
        <time>2016-07-19T16:07:28.000Z</time>
      </trkpt>
      <trkpt lat="44.34319" lon="6.32529">
        <ele>1155.5999755859</ele>
        <time>2016-07-19T16:07:29.000Z</time>
      </trkpt>
      <trkpt lat="44.34325" lon="6.32546">
        <ele>1154.1999511719</ele>
        <time>2016-07-19T16:07:36.000Z</time>
      </trkpt>
      <trkpt lat="44.3433" lon="6.32565">
        <ele>1152.8000488281</ele>
        <time>2016-07-19T16:07:44.000Z</time>
      </trkpt>
      <trkpt lat="44.34343" lon="6.32604">
        <ele>1150.5999755859</ele>
        <time>2016-07-19T16:08:02.000Z</time>
      </trkpt>
      <trkpt lat="44.34346" lon="6.3262">
        <ele>1149.8000488281</ele>
        <time>2016-07-19T16:08:09.000Z</time>
      </trkpt>
      <trkpt lat="44.34349" lon="6.3265">
        <ele>1148.1999511719</ele>
        <time>2016-07-19T16:08:22.000Z</time>
      </trkpt>
      <trkpt lat="44.34352" lon="6.32668">
        <ele>1147.1999511719</ele>
        <time>2016-07-19T16:08:31.000Z</time>
      </trkpt>
      <trkpt lat="44.34356" lon="6.32689">
        <ele>1146.1999511719</ele>
        <time>2016-07-19T16:08:40.000Z</time>
      </trkpt>
      <trkpt lat="44.34361" lon="6.32713">
        <ele>1145</ele>
        <time>2016-07-19T16:08:51.000Z</time>
      </trkpt>
      <trkpt lat="44.34367" lon="6.32732">
        <ele>1144</ele>
        <time>2016-07-19T16:09:00.000Z</time>
      </trkpt>
      <trkpt lat="44.34374" lon="6.32757">
        <ele>1142.8000488281</ele>
        <time>2016-07-19T16:09:13.000Z</time>
      </trkpt>
      <trkpt lat="44.3438" lon="6.32777">
        <ele>1141.8000488281</ele>
        <time>2016-07-19T16:09:23.000Z</time>
      </trkpt>
      <trkpt lat="44.34387" lon="6.32802">
        <ele>1140.5999755859</ele>
        <time>2016-07-19T16:09:35.000Z</time>
      </trkpt>
      <trkpt lat="44.34392" lon="6.32819">
        <ele>1140</ele>
        <time>2016-07-19T16:09:43.000Z</time>
      </trkpt>
      <trkpt lat="44.34397" lon="6.3284">
        <ele>1139.5999755859</ele>
        <time>2016-07-19T16:09:54.000Z</time>
      </trkpt>
      <trkpt lat="44.34404" lon="6.32862">
        <ele>1139.4000244141</ele>
        <time>2016-07-19T16:10:05.000Z</time>
      </trkpt>
      <trkpt lat="44.34411" lon="6.32883">
        <ele>1138.8000488281</ele>
        <time>2016-07-19T16:10:15.000Z</time>
      </trkpt>
      <trkpt lat="44.34418" lon="6.32907">
        <ele>1138.5999755859</ele>
        <time>2016-07-19T16:10:28.000Z</time>
      </trkpt>
      <trkpt lat="44.34427" lon="6.3293">
        <ele>1138.4000244141</ele>
        <time>2016-07-19T16:10:40.000Z</time>
      </trkpt>
      <trkpt lat="44.34436" lon="6.32951">
        <ele>1138.1999511719</ele>
        <time>2016-07-19T16:10:51.000Z</time>
      </trkpt>
      <trkpt lat="44.34441" lon="6.32961">
        <ele>1138.1999511719</ele>
        <time>2016-07-19T16:10:57.000Z</time>
      </trkpt>
      <trkpt lat="44.3445" lon="6.32975">
        <ele>1138.1999511719</ele>
        <time>2016-07-19T16:11:06.000Z</time>
      </trkpt>
      <trkpt lat="44.34461" lon="6.32988">
        <ele>1138.8000488281</ele>
        <time>2016-07-19T16:11:13.000Z</time>
      </trkpt>
      <trkpt lat="44.34471" lon="6.32999">
        <ele>1139.1999511719</ele>
        <time>2016-07-19T16:11:19.000Z</time>
      </trkpt>
      <trkpt lat="44.34483" lon="6.33015">
        <ele>1139.5999755859</ele>
        <time>2016-07-19T16:11:30.000Z</time>
      </trkpt>
      <trkpt lat="44.3449" lon="6.33017">
        <ele>1140.1999511719</ele>
        <time>2016-07-19T16:11:35.000Z</time>
      </trkpt>
      <trkpt lat="44.34501" lon="6.3301">
        <ele>1140.8000488281</ele>
        <time>2016-07-19T16:11:42.000Z</time>
      </trkpt>
      <trkpt lat="44.34513" lon="6.32997">
        <ele>1141.8000488281</ele>
        <time>2016-07-19T16:11:52.000Z</time>
      </trkpt>
      <trkpt lat="44.34533" lon="6.32967">
        <ele>1143</ele>
        <time>2016-07-19T16:12:11.000Z</time>
      </trkpt>
      <trkpt lat="44.34539" lon="6.3296">
        <ele>1143</ele>
        <time>2016-07-19T16:12:17.000Z</time>
      </trkpt>
      <trkpt lat="44.34542" lon="6.32949">
        <ele>1143.1999511719</ele>
        <time>2016-07-19T16:12:23.000Z</time>
      </trkpt>
      <trkpt lat="44.34542" lon="6.32946">
        <ele>1143.1999511719</ele>
        <time>2016-07-19T16:12:25.000Z</time>
      </trkpt>
      <trkpt lat="44.34534" lon="6.32936">
        <ele>1143.4000244141</ele>
        <time>2016-07-19T16:12:32.000Z</time>
      </trkpt>
      <trkpt lat="44.34524" lon="6.32923">
        <ele>1143.1999511719</ele>
        <time>2016-07-19T16:12:41.000Z</time>
      </trkpt>
      <trkpt lat="44.34515" lon="6.32922">
        <ele>1142.8000488281</ele>
        <time>2016-07-19T16:12:47.000Z</time>
      </trkpt>
      <trkpt lat="44.34515" lon="6.32919">
        <ele>1142.8000488281</ele>
        <time>2016-07-19T16:12:55.000Z</time>
      </trkpt>
      <trkpt lat="44.34515" lon="6.32917">
        <ele>1142.8000488281</ele>
        <time>2016-07-19T16:13:03.000Z</time>
      </trkpt>
      <trkpt lat="44.34514" lon="6.32916">
        <ele>1142.8000488281</ele>
        <time>2016-07-19T16:13:07.000Z</time>
      </trkpt>
      <trkpt lat="44.34515" lon="6.32916">
        <ele>1142.8000488281</ele>
        <time>2016-07-19T16:13:14.000Z</time>
      </trkpt>
      <trkpt lat="44.34514" lon="6.32917">
        <ele>1142.8000488281</ele>
        <time>2016-07-19T16:13:18.000Z</time>
      </trkpt>
      <trkpt lat="44.34515" lon="6.32917">
        <ele>1142.8000488281</ele>
        <time>2016-07-19T16:13:25.000Z</time>
      </trkpt>
      <trkpt lat="44.34515" lon="6.32925">
        <ele>1142.8000488281</ele>
        <time>2016-07-19T16:13:34.000Z</time>
      </trkpt>
      <trkpt lat="44.34511" lon="6.3292">
        <ele>1142.5999755859</ele>
        <time>2016-07-19T16:13:38.000Z</time>
      </trkpt>
      <trkpt lat="44.3451" lon="6.32919">
        <ele>1142.4000244141</ele>
        <time>2016-07-19T16:13:40.000Z</time>
      </trkpt>
      <trkpt lat="44.34507" lon="6.32914">
        <ele>1142.4000244141</ele>
        <time>2016-07-19T16:13:43.000Z</time>
      </trkpt>
      <trkpt lat="44.34506" lon="6.3291">
        <ele>1142.4000244141</ele>
        <time>2016-07-19T16:13:50.000Z</time>
      </trkpt>
      <trkpt lat="44.34505" lon="6.32912">
        <ele>1142.1999511719</ele>
        <time>2016-07-19T16:13:55.000Z</time>
      </trkpt>
      <trkpt lat="44.34503" lon="6.32915">
        <ele>1142.1999511719</ele>
        <time>2016-07-19T16:14:04.000Z</time>
      </trkpt>
      <trkpt lat="44.34494" lon="6.32912">
        <ele>1141.5999755859</ele>
        <time>2016-07-19T16:14:11.000Z</time>
      </trkpt>
      <trkpt lat="44.34486" lon="6.32912">
        <ele>1141.1999511719</ele>
        <time>2016-07-19T16:14:17.000Z</time>
      </trkpt>
      <trkpt lat="44.34487" lon="6.3291">
        <ele>1141.1999511719</ele>
        <time>2016-07-19T16:14:28.000Z</time>
      </trkpt>
      <trkpt lat="44.34488" lon="6.32909">
        <ele>1141.1999511719</ele>
        <time>2016-07-19T16:14:29.000Z</time>
      </trkpt>
      <trkpt lat="44.34489" lon="6.3291">
        <ele>1141.4000244141</ele>
        <time>2016-07-19T16:14:34.000Z</time>
      </trkpt>
      <trkpt lat="44.34488" lon="6.32907">
        <ele>1141.4000244141</ele>
        <time>2016-07-19T16:14:40.000Z</time>
      </trkpt>
      <trkpt lat="44.34487" lon="6.32906">
        <ele>1141.1999511719</ele>
        <time>2016-07-19T16:14:45.000Z</time>
      </trkpt>
      <trkpt lat="44.34489" lon="6.32907">
        <ele>1141.4000244141</ele>
        <time>2016-07-19T16:14:49.000Z</time>
      </trkpt>
      <trkpt lat="44.34488" lon="6.32907">
        <ele>1141.4000244141</ele>
        <time>2016-07-19T16:15:14.000Z</time>
      </trkpt>
      <trkpt lat="44.34487" lon="6.32906">
        <ele>1141.1999511719</ele>
        <time>2016-07-19T16:15:36.000Z</time>
      </trkpt>
      <trkpt lat="44.34485" lon="6.32906">
        <ele>1141.1999511719</ele>
        <time>2016-07-19T16:16:13.000Z</time>
      </trkpt>
      <trkpt lat="44.34485" lon="6.32904">
        <ele>1141.1999511719</ele>
        <time>2016-07-19T16:19:52.000Z</time>
      </trkpt>
      <trkpt lat="44.34485" lon="6.32905">
        <ele>1141.1999511719</ele>
        <time>2016-07-19T16:21:08.000Z</time>
      </trkpt>
      <trkpt lat="44.34488" lon="6.3291">
        <ele>1141.1999511719</ele>
        <time>2016-07-19T16:21:18.000Z</time>
      </trkpt>
      <trkpt lat="44.34496" lon="6.32911">
        <ele>1141.8000488281</ele>
        <time>2016-07-19T16:21:25.000Z</time>
      </trkpt>
      <trkpt lat="44.34499" lon="6.32912">
        <ele>1142</ele>
        <time>2016-07-19T16:21:31.000Z</time>
      </trkpt>
      <trkpt lat="44.34499" lon="6.32914">
        <ele>1141.8000488281</ele>
        <time>2016-07-19T16:21:36.000Z</time>
      </trkpt>
      <trkpt lat="44.345" lon="6.32914">
        <ele>1142</ele>
        <time>2016-07-19T16:21:50.000Z</time>
      </trkpt>
      <trkpt lat="44.34503" lon="6.32916">
        <ele>1142</ele>
        <time>2016-07-19T16:21:57.000Z</time>
      </trkpt>
      <trkpt lat="44.3451" lon="6.32926">
        <ele>1142.4000244141</ele>
        <time>2016-07-19T16:22:06.000Z</time>
      </trkpt>
      <trkpt lat="44.34513" lon="6.32929">
        <ele>1142.5999755859</ele>
        <time>2016-07-19T16:22:13.000Z</time>
      </trkpt>
      <trkpt lat="44.34514" lon="6.32921">
        <ele>1142.8000488281</ele>
        <time>2016-07-19T16:22:19.000Z</time>
      </trkpt>
      <trkpt lat="44.34513" lon="6.32917">
        <ele>1142.5999755859</ele>
        <time>2016-07-19T16:22:27.000Z</time>
      </trkpt>
      <trkpt lat="44.34513" lon="6.3292">
        <ele>1142.5999755859</ele>
        <time>2016-07-19T16:22:49.000Z</time>
      </trkpt>
      <trkpt lat="44.34518" lon="6.32924">
        <ele>1143</ele>
        <time>2016-07-19T16:22:54.000Z</time>
      </trkpt>
      <trkpt lat="44.34532" lon="6.32924">
        <ele>1143.5999755859</ele>
        <time>2016-07-19T16:23:09.000Z</time>
      </trkpt>
      <trkpt lat="44.34531" lon="6.32923">
        <ele>1143.5999755859</ele>
        <time>2016-07-19T16:23:10.000Z</time>
      </trkpt>
      <trkpt lat="44.34531" lon="6.32921">
        <ele>1143.5999755859</ele>
        <time>2016-07-19T16:23:14.000Z</time>
      </trkpt>
      <trkpt lat="44.34532" lon="6.32921">
        <ele>1143.5999755859</ele>
        <time>2016-07-19T16:23:20.000Z</time>
      </trkpt>
      <trkpt lat="44.34534" lon="6.32921">
        <ele>1143.5999755859</ele>
        <time>2016-07-19T16:23:22.000Z</time>
      </trkpt>
      <trkpt lat="44.34535" lon="6.32929">
        <ele>1143.5999755859</ele>
        <time>2016-07-19T16:23:25.000Z</time>
      </trkpt>
      <trkpt lat="44.34536" lon="6.32937">
        <ele>1143.4000244141</ele>
        <time>2016-07-19T16:23:30.000Z</time>
      </trkpt>
      <trkpt lat="44.34539" lon="6.32944">
        <ele>1143.1999511719</ele>
        <time>2016-07-19T16:23:34.000Z</time>
      </trkpt>
      <trkpt lat="44.3454" lon="6.32947">
        <ele>1143.1999511719</ele>
        <time>2016-07-19T16:23:35.000Z</time>
      </trkpt>
      <trkpt lat="44.34538" lon="6.32959">
        <ele>1143</ele>
        <time>2016-07-19T16:23:42.000Z</time>
      </trkpt>
      <trkpt lat="44.34529" lon="6.32972">
        <ele>1143</ele>
        <time>2016-07-19T16:23:50.000Z</time>
      </trkpt>
      <trkpt lat="44.34519" lon="6.32988">
        <ele>1142.1999511719</ele>
        <time>2016-07-19T16:24:01.000Z</time>
      </trkpt>
      <trkpt lat="44.3451" lon="6.32999">
        <ele>1141.5999755859</ele>
        <time>2016-07-19T16:24:10.000Z</time>
      </trkpt>
      <trkpt lat="44.345" lon="6.33011">
        <ele>1140.8000488281</ele>
        <time>2016-07-19T16:24:19.000Z</time>
      </trkpt>
      <trkpt lat="44.34491" lon="6.3302">
        <ele>1140.1999511719</ele>
        <time>2016-07-19T16:24:27.000Z</time>
      </trkpt>
      <trkpt lat="44.34478" lon="6.33031">
        <ele>1139.1999511719</ele>
        <time>2016-07-19T16:24:38.000Z</time>
      </trkpt>
      <trkpt lat="44.3447" lon="6.33046">
        <ele>1138.5999755859</ele>
        <time>2016-07-19T16:24:48.000Z</time>
      </trkpt>
      <trkpt lat="44.34473" lon="6.33068">
        <ele>1138.1999511719</ele>
        <time>2016-07-19T16:24:59.000Z</time>
      </trkpt>
      <trkpt lat="44.34474" lon="6.33094">
        <ele>1136.8000488281</ele>
        <time>2016-07-19T16:25:12.000Z</time>
      </trkpt>
      <trkpt lat="44.34479" lon="6.33114">
        <ele>1136.4000244141</ele>
        <time>2016-07-19T16:25:22.000Z</time>
      </trkpt>
      <trkpt lat="44.34483" lon="6.33129">
        <ele>1136</ele>
        <time>2016-07-19T16:25:30.000Z</time>
      </trkpt>
      <trkpt lat="44.34488" lon="6.33148">
        <ele>1135.4000244141</ele>
        <time>2016-07-19T16:25:40.000Z</time>
      </trkpt>
      <trkpt lat="44.34491" lon="6.33165">
        <ele>1134.1999511719</ele>
        <time>2016-07-19T16:25:49.000Z</time>
      </trkpt>
      <trkpt lat="44.34493" lon="6.33184">
        <ele>1133</ele>
        <time>2016-07-19T16:25:59.000Z</time>
      </trkpt>
      <trkpt lat="44.345" lon="6.33202">
        <ele>1132</ele>
        <time>2016-07-19T16:26:08.000Z</time>
      </trkpt>
      <trkpt lat="44.34506" lon="6.3321">
        <ele>1131.8000488281</ele>
        <time>2016-07-19T16:26:14.000Z</time>
      </trkpt>
      <trkpt lat="44.34512" lon="6.33228">
        <ele>1131.1999511719</ele>
        <time>2016-07-19T16:26:24.000Z</time>
      </trkpt>
      <trkpt lat="44.34515" lon="6.33242">
        <ele>1130.5999755859</ele>
        <time>2016-07-19T16:26:30.000Z</time>
      </trkpt>
      <trkpt lat="44.34517" lon="6.33259">
        <ele>1129.8000488281</ele>
        <time>2016-07-19T16:26:38.000Z</time>
      </trkpt>
      <trkpt lat="44.34517" lon="6.33274">
        <ele>1129</ele>
        <time>2016-07-19T16:26:45.000Z</time>
      </trkpt>
      <trkpt lat="44.34504" lon="6.33302">
        <ele>1127.8000488281</ele>
        <time>2016-07-19T16:27:02.000Z</time>
      </trkpt>
      <trkpt lat="44.3449" lon="6.33314">
        <ele>1127</ele>
        <time>2016-07-19T16:27:13.000Z</time>
      </trkpt>
      <trkpt lat="44.34474" lon="6.33321">
        <ele>1126.5999755859</ele>
        <time>2016-07-19T16:27:24.000Z</time>
      </trkpt>
      <trkpt lat="44.34458" lon="6.33325">
        <ele>1126.4000244141</ele>
        <time>2016-07-19T16:27:34.000Z</time>
      </trkpt>
      <trkpt lat="44.34444" lon="6.33336">
        <ele>1126.5999755859</ele>
        <time>2016-07-19T16:27:44.000Z</time>
      </trkpt>
      <trkpt lat="44.34445" lon="6.33367">
        <ele>1125.8000488281</ele>
        <time>2016-07-19T16:28:02.000Z</time>
      </trkpt>
      <trkpt lat="44.34454" lon="6.33383">
        <ele>1125.1999511719</ele>
        <time>2016-07-19T16:28:12.000Z</time>
      </trkpt>
      <trkpt lat="44.3446" lon="6.33397">
        <ele>1124.5999755859</ele>
        <time>2016-07-19T16:28:20.000Z</time>
      </trkpt>
      <trkpt lat="44.34461" lon="6.33401">
        <ele>1124.5999755859</ele>
        <time>2016-07-19T16:28:23.000Z</time>
      </trkpt>
      <trkpt lat="44.34468" lon="6.33423">
        <ele>1123.8000488281</ele>
        <time>2016-07-19T16:28:34.000Z</time>
      </trkpt>
      <trkpt lat="44.34476" lon="6.33444">
        <ele>1123.1999511719</ele>
        <time>2016-07-19T16:28:45.000Z</time>
      </trkpt>
      <trkpt lat="44.34483" lon="6.33468">
        <ele>1122.4000244141</ele>
        <time>2016-07-19T16:29:00.000Z</time>
      </trkpt>
      <trkpt lat="44.34489" lon="6.33482">
        <ele>1122</ele>
        <time>2016-07-19T16:29:08.000Z</time>
      </trkpt>
      <trkpt lat="44.34494" lon="6.33497">
        <ele>1121.8000488281</ele>
        <time>2016-07-19T16:29:17.000Z</time>
      </trkpt>
      <trkpt lat="44.34497" lon="6.33509">
        <ele>1121.8000488281</ele>
        <time>2016-07-19T16:29:24.000Z</time>
      </trkpt>
      <trkpt lat="44.34502" lon="6.33524">
        <ele>1121.5999755859</ele>
        <time>2016-07-19T16:29:32.000Z</time>
      </trkpt>
      <trkpt lat="44.34505" lon="6.33536">
        <ele>1121.5999755859</ele>
        <time>2016-07-19T16:29:38.000Z</time>
      </trkpt>
      <trkpt lat="44.34508" lon="6.33545">
        <ele>1121.4000244141</ele>
        <time>2016-07-19T16:29:44.000Z</time>
      </trkpt>
      <trkpt lat="44.34514" lon="6.33569">
        <ele>1121</ele>
        <time>2016-07-19T16:29:55.000Z</time>
      </trkpt>
      <trkpt lat="44.34524" lon="6.33612">
        <ele>1121</ele>
        <time>2016-07-19T16:30:17.000Z</time>
      </trkpt>
      <trkpt lat="44.34529" lon="6.33635">
        <ele>1121</ele>
        <time>2016-07-19T16:30:28.000Z</time>
      </trkpt>
      <trkpt lat="44.34535" lon="6.33654">
        <ele>1121.1999511719</ele>
        <time>2016-07-19T16:30:38.000Z</time>
      </trkpt>
      <trkpt lat="44.3454" lon="6.33669">
        <ele>1121.5999755859</ele>
        <time>2016-07-19T16:30:45.000Z</time>
      </trkpt>
      <trkpt lat="44.34546" lon="6.33686">
        <ele>1122</ele>
        <time>2016-07-19T16:30:55.000Z</time>
      </trkpt>
      <trkpt lat="44.34552" lon="6.33717">
        <ele>1122.5999755859</ele>
        <time>2016-07-19T16:31:10.000Z</time>
      </trkpt>
      <trkpt lat="44.34555" lon="6.33727">
        <ele>1123</ele>
        <time>2016-07-19T16:31:15.000Z</time>
      </trkpt>
    </trkseg>
  </trk>
  <trk>
    <name><![CDATA[04 - Seyne nord : vers le Col Bas]]></name>
    <extensions>
      <line xmlns="http://www.topografix.com/GPX/gpx_style/0/2">
        <color>00FF00</color>
        <width>4</width>
      </line>
    </extensions>
    <trkseg>
      <trkpt lat="44.34534" lon="6.34543">
        <ele>1137.8000488281</ele>
        <time>2016-07-18T06:52:09.000Z</time>
      </trkpt>
      <trkpt lat="44.34534" lon="6.34543">
        <ele>1137.8000488281</ele>
        <time>2016-07-18T06:52:09.000Z</time>
      </trkpt>
      <trkpt lat="44.34538" lon="6.34548">
        <ele>1137.8000488281</ele>
        <time>2016-07-18T06:52:12.000Z</time>
      </trkpt>
      <trkpt lat="44.34537" lon="6.34555">
        <ele>1137.8000488281</ele>
        <time>2016-07-18T06:52:16.000Z</time>
      </trkpt>
      <trkpt lat="44.34536" lon="6.34574">
        <ele>1138</ele>
        <time>2016-07-18T06:52:25.000Z</time>
      </trkpt>
      <trkpt lat="44.34537" lon="6.34576">
        <ele>1138</ele>
        <time>2016-07-18T06:52:32.000Z</time>
      </trkpt>
      <trkpt lat="44.34537" lon="6.34574">
        <ele>1138</ele>
        <time>2016-07-18T06:52:40.000Z</time>
      </trkpt>
      <trkpt lat="44.34534" lon="6.34573">
        <ele>1138</ele>
        <time>2016-07-18T06:52:47.000Z</time>
      </trkpt>
      <trkpt lat="44.34528" lon="6.34574">
        <ele>1138</ele>
        <time>2016-07-18T06:52:56.000Z</time>
      </trkpt>
      <trkpt lat="44.34521" lon="6.34571">
        <ele>1138</ele>
        <time>2016-07-18T06:53:06.000Z</time>
      </trkpt>
      <trkpt lat="44.34516" lon="6.34573">
        <ele>1138</ele>
        <time>2016-07-18T06:53:11.000Z</time>
      </trkpt>
      <trkpt lat="44.34513" lon="6.34578">
        <ele>1138</ele>
        <time>2016-07-18T06:53:17.000Z</time>
      </trkpt>
      <trkpt lat="44.3451" lon="6.34586">
        <ele>1138</ele>
        <time>2016-07-18T06:53:24.000Z</time>
      </trkpt>
      <trkpt lat="44.3451" lon="6.34594">
        <ele>1138</ele>
        <time>2016-07-18T06:53:29.000Z</time>
      </trkpt>
      <trkpt lat="44.34509" lon="6.34604">
        <ele>1138</ele>
        <time>2016-07-18T06:53:36.000Z</time>
      </trkpt>
      <trkpt lat="44.34509" lon="6.34612">
        <ele>1138</ele>
        <time>2016-07-18T06:53:43.000Z</time>
      </trkpt>
      <trkpt lat="44.34512" lon="6.34611">
        <ele>1138</ele>
        <time>2016-07-18T06:53:53.000Z</time>
      </trkpt>
      <trkpt lat="44.34515" lon="6.34611">
        <ele>1138</ele>
        <time>2016-07-18T06:53:59.000Z</time>
      </trkpt>
      <trkpt lat="44.34514" lon="6.34613">
        <ele>1138</ele>
        <time>2016-07-18T06:54:03.000Z</time>
      </trkpt>
      <trkpt lat="44.34511" lon="6.34617">
        <ele>1138</ele>
        <time>2016-07-18T06:54:10.000Z</time>
      </trkpt>
      <trkpt lat="44.34507" lon="6.34624">
        <ele>1138</ele>
        <time>2016-07-18T06:54:16.000Z</time>
      </trkpt>
      <trkpt lat="44.345" lon="6.3463">
        <ele>1138.1999511719</ele>
        <time>2016-07-18T06:54:24.000Z</time>
      </trkpt>
      <trkpt lat="44.34494" lon="6.34632">
        <ele>1138.1999511719</ele>
        <time>2016-07-18T06:54:29.000Z</time>
      </trkpt>
      <trkpt lat="44.34483" lon="6.34632">
        <ele>1138.4000244141</ele>
        <time>2016-07-18T06:54:38.000Z</time>
      </trkpt>
      <trkpt lat="44.3447" lon="6.34631">
        <ele>1138.5999755859</ele>
        <time>2016-07-18T06:54:49.000Z</time>
      </trkpt>
      <trkpt lat="44.34466" lon="6.34635">
        <ele>1138.5999755859</ele>
        <time>2016-07-18T06:54:53.000Z</time>
      </trkpt>
      <trkpt lat="44.34463" lon="6.34645">
        <ele>1138.8000488281</ele>
        <time>2016-07-18T06:54:58.000Z</time>
      </trkpt>
      <trkpt lat="44.34466" lon="6.34662">
        <ele>1139.1999511719</ele>
        <time>2016-07-18T06:55:07.000Z</time>
      </trkpt>
      <trkpt lat="44.34471" lon="6.34679">
        <ele>1139.1999511719</ele>
        <time>2016-07-18T06:55:16.000Z</time>
      </trkpt>
      <trkpt lat="44.34476" lon="6.34695">
        <ele>1139.1999511719</ele>
        <time>2016-07-18T06:55:25.000Z</time>
      </trkpt>
      <trkpt lat="44.3448" lon="6.3471">
        <ele>1139</ele>
        <time>2016-07-18T06:55:33.000Z</time>
      </trkpt>
      <trkpt lat="44.34486" lon="6.34723">
        <ele>1139</ele>
        <time>2016-07-18T06:55:41.000Z</time>
      </trkpt>
      <trkpt lat="44.34493" lon="6.34735">
        <ele>1139.1999511719</ele>
        <time>2016-07-18T06:55:49.000Z</time>
      </trkpt>
      <trkpt lat="44.34491" lon="6.34761">
        <ele>1140.1999511719</ele>
        <time>2016-07-18T06:56:06.000Z</time>
      </trkpt>
      <trkpt lat="44.34489" lon="6.34766">
        <ele>1140.1999511719</ele>
        <time>2016-07-18T06:56:10.000Z</time>
      </trkpt>
      <trkpt lat="44.34488" lon="6.34769">
        <ele>1140.4000244141</ele>
        <time>2016-07-18T06:56:12.000Z</time>
      </trkpt>
      <trkpt lat="44.34487" lon="6.34776">
        <ele>1140.4000244141</ele>
        <time>2016-07-18T06:56:16.000Z</time>
      </trkpt>
      <trkpt lat="44.34486" lon="6.34789">
        <ele>1140.4000244141</ele>
        <time>2016-07-18T06:56:23.000Z</time>
      </trkpt>
      <trkpt lat="44.34489" lon="6.34798">
        <ele>1140.4000244141</ele>
        <time>2016-07-18T06:56:29.000Z</time>
      </trkpt>
      <trkpt lat="44.3449" lon="6.34809">
        <ele>1140.5999755859</ele>
        <time>2016-07-18T06:56:35.000Z</time>
      </trkpt>
      <trkpt lat="44.3449" lon="6.34811">
        <ele>1140.5999755859</ele>
        <time>2016-07-18T06:56:36.000Z</time>
      </trkpt>
      <trkpt lat="44.34493" lon="6.34822">
        <ele>1140.8000488281</ele>
        <time>2016-07-18T06:56:42.000Z</time>
      </trkpt>
      <trkpt lat="44.34503" lon="6.34845">
        <ele>1141.5999755859</ele>
        <time>2016-07-18T06:56:57.000Z</time>
      </trkpt>
      <trkpt lat="44.34508" lon="6.34855">
        <ele>1142.1999511719</ele>
        <time>2016-07-18T06:57:03.000Z</time>
      </trkpt>
      <trkpt lat="44.3451" lon="6.34859">
        <ele>1142.4000244141</ele>
        <time>2016-07-18T06:57:06.000Z</time>
      </trkpt>
      <trkpt lat="44.34514" lon="6.34872">
        <ele>1142.5999755859</ele>
        <time>2016-07-18T06:57:14.000Z</time>
      </trkpt>
      <trkpt lat="44.34514" lon="6.34878">
        <ele>1142.8000488281</ele>
        <time>2016-07-18T06:57:17.000Z</time>
      </trkpt>
      <trkpt lat="44.34514" lon="6.34881">
        <ele>1142.8000488281</ele>
        <time>2016-07-18T06:57:19.000Z</time>
      </trkpt>
      <trkpt lat="44.34512" lon="6.349">
        <ele>1142.8000488281</ele>
        <time>2016-07-18T06:57:30.000Z</time>
      </trkpt>
      <trkpt lat="44.34509" lon="6.34911">
        <ele>1142.4000244141</ele>
        <time>2016-07-18T06:57:37.000Z</time>
      </trkpt>
      <trkpt lat="44.34506" lon="6.34923">
        <ele>1142</ele>
        <time>2016-07-18T06:57:44.000Z</time>
      </trkpt>
      <trkpt lat="44.34501" lon="6.3497">
        <ele>1141</ele>
        <time>2016-07-18T06:58:06.000Z</time>
      </trkpt>
      <trkpt lat="44.345" lon="6.34986">
        <ele>1141</ele>
        <time>2016-07-18T06:58:13.000Z</time>
      </trkpt>
      <trkpt lat="44.34498" lon="6.35006">
        <ele>1141.1999511719</ele>
        <time>2016-07-18T06:58:22.000Z</time>
      </trkpt>
      <trkpt lat="44.34497" lon="6.35023">
        <ele>1141.1999511719</ele>
        <time>2016-07-18T06:58:30.000Z</time>
      </trkpt>
      <trkpt lat="44.34497" lon="6.35025">
        <ele>1141.4000244141</ele>
        <time>2016-07-18T06:58:31.000Z</time>
      </trkpt>
      <trkpt lat="44.34495" lon="6.3504">
        <ele>1141.5999755859</ele>
        <time>2016-07-18T06:58:38.000Z</time>
      </trkpt>
      <trkpt lat="44.34495" lon="6.35042">
        <ele>1141.5999755859</ele>
        <time>2016-07-18T06:58:37.000Z</time>
      </trkpt>
      <trkpt lat="44.34491" lon="6.35051">
        <ele>1141.8000488281</ele>
        <time>2016-07-18T06:58:42.000Z</time>
      </trkpt>
      <trkpt lat="44.34483" lon="6.35072">
        <ele>1142.1999511719</ele>
        <time>2016-07-18T06:58:56.000Z</time>
      </trkpt>
      <trkpt lat="44.34474" lon="6.35084">
        <ele>1142.4000244141</ele>
        <time>2016-07-18T06:59:06.000Z</time>
      </trkpt>
      <trkpt lat="44.34472" lon="6.35094">
        <ele>1142.5999755859</ele>
        <time>2016-07-18T06:59:13.000Z</time>
      </trkpt>
      <trkpt lat="44.34473" lon="6.35109">
        <ele>1143.1999511719</ele>
        <time>2016-07-18T06:59:21.000Z</time>
      </trkpt>
      <trkpt lat="44.34479" lon="6.35122">
        <ele>1143.8000488281</ele>
        <time>2016-07-18T06:59:29.000Z</time>
      </trkpt>
      <trkpt lat="44.3448" lon="6.35126">
        <ele>1144</ele>
        <time>2016-07-18T06:59:33.000Z</time>
      </trkpt>
      <trkpt lat="44.34485" lon="6.35127">
        <ele>1144.1999511719</ele>
        <time>2016-07-18T06:59:40.000Z</time>
      </trkpt>
      <trkpt lat="44.34485" lon="6.35128">
        <ele>1144.1999511719</ele>
        <time>2016-07-18T06:59:48.000Z</time>
      </trkpt>
      <trkpt lat="44.34486" lon="6.35128">
        <ele>1144.1999511719</ele>
        <time>2016-07-18T06:59:55.000Z</time>
      </trkpt>
      <trkpt lat="44.34486" lon="6.35127">
        <ele>1144.1999511719</ele>
        <time>2016-07-18T07:00:00.000Z</time>
      </trkpt>
      <trkpt lat="44.34491" lon="6.35128">
        <ele>1144.4000244141</ele>
        <time>2016-07-18T07:00:06.000Z</time>
      </trkpt>
      <trkpt lat="44.34493" lon="6.35131">
        <ele>1144.4000244141</ele>
        <time>2016-07-18T07:00:13.000Z</time>
      </trkpt>
      <trkpt lat="44.34499" lon="6.35134">
        <ele>1144.8000488281</ele>
        <time>2016-07-18T07:00:20.000Z</time>
      </trkpt>
      <trkpt lat="44.34502" lon="6.35135">
        <ele>1144.8000488281</ele>
        <time>2016-07-18T07:00:23.000Z</time>
      </trkpt>
      <trkpt lat="44.34507" lon="6.35139">
        <ele>1145.1999511719</ele>
        <time>2016-07-18T07:00:29.000Z</time>
      </trkpt>
      <trkpt lat="44.34512" lon="6.35145">
        <ele>1145.4000244141</ele>
        <time>2016-07-18T07:00:35.000Z</time>
      </trkpt>
      <trkpt lat="44.34514" lon="6.35147">
        <ele>1145.5999755859</ele>
        <time>2016-07-18T07:00:41.000Z</time>
      </trkpt>
      <trkpt lat="44.34518" lon="6.35148">
        <ele>1145.8000488281</ele>
        <time>2016-07-18T07:00:46.000Z</time>
      </trkpt>
      <trkpt lat="44.34524" lon="6.35152">
        <ele>1146</ele>
        <time>2016-07-18T07:00:51.000Z</time>
      </trkpt>
      <trkpt lat="44.34535" lon="6.35157">
        <ele>1146.1999511719</ele>
        <time>2016-07-18T07:01:00.000Z</time>
      </trkpt>
      <trkpt lat="44.34544" lon="6.35161">
        <ele>1145.8000488281</ele>
        <time>2016-07-18T07:01:07.000Z</time>
      </trkpt>
      <trkpt lat="44.34554" lon="6.35167">
        <ele>1145.5999755859</ele>
        <time>2016-07-18T07:01:15.000Z</time>
      </trkpt>
      <trkpt lat="44.34564" lon="6.35173">
        <ele>1145.5999755859</ele>
        <time>2016-07-18T07:01:23.000Z</time>
      </trkpt>
      <trkpt lat="44.34575" lon="6.3518">
        <ele>1145.4000244141</ele>
        <time>2016-07-18T07:01:33.000Z</time>
      </trkpt>
      <trkpt lat="44.34581" lon="6.35185">
        <ele>1145.1999511719</ele>
        <time>2016-07-18T07:01:38.000Z</time>
      </trkpt>
      <trkpt lat="44.3459" lon="6.35194">
        <ele>1145.1999511719</ele>
        <time>2016-07-18T07:01:46.000Z</time>
      </trkpt>
      <trkpt lat="44.34591" lon="6.35194">
        <ele>1145.1999511719</ele>
        <time>2016-07-18T07:01:47.000Z</time>
      </trkpt>
      <trkpt lat="44.34603" lon="6.35196">
        <ele>1144.8000488281</ele>
        <time>2016-07-18T07:01:55.000Z</time>
      </trkpt>
      <trkpt lat="44.34614" lon="6.35203">
        <ele>1144.5999755859</ele>
        <time>2016-07-18T07:02:03.000Z</time>
      </trkpt>
      <trkpt lat="44.34624" lon="6.3521">
        <ele>1144.5999755859</ele>
        <time>2016-07-18T07:02:10.000Z</time>
      </trkpt>
      <trkpt lat="44.34635" lon="6.35221">
        <ele>1144.4000244141</ele>
        <time>2016-07-18T07:02:19.000Z</time>
      </trkpt>
      <trkpt lat="44.3464" lon="6.35232">
        <ele>1144.4000244141</ele>
        <time>2016-07-18T07:02:26.000Z</time>
      </trkpt>
      <trkpt lat="44.34642" lon="6.35239">
        <ele>1144.5999755859</ele>
        <time>2016-07-18T07:02:30.000Z</time>
      </trkpt>
      <trkpt lat="44.34643" lon="6.35247">
        <ele>1144.8000488281</ele>
        <time>2016-07-18T07:02:34.000Z</time>
      </trkpt>
      <trkpt lat="44.34648" lon="6.3526">
        <ele>1145.1999511719</ele>
        <time>2016-07-18T07:02:41.000Z</time>
      </trkpt>
      <trkpt lat="44.34649" lon="6.35261">
        <ele>1145.1999511719</ele>
        <time>2016-07-18T07:02:42.000Z</time>
      </trkpt>
      <trkpt lat="44.34661" lon="6.35289">
        <ele>1145.5999755859</ele>
        <time>2016-07-18T07:02:57.000Z</time>
      </trkpt>
      <trkpt lat="44.34668" lon="6.35303">
        <ele>1145.5999755859</ele>
        <time>2016-07-18T07:03:05.000Z</time>
      </trkpt>
      <trkpt lat="44.34675" lon="6.35316">
        <ele>1145.8000488281</ele>
        <time>2016-07-18T07:03:12.000Z</time>
      </trkpt>
      <trkpt lat="44.34681" lon="6.3533">
        <ele>1146.1999511719</ele>
        <time>2016-07-18T07:03:20.000Z</time>
      </trkpt>
      <trkpt lat="44.3469" lon="6.3534">
        <ele>1146.5999755859</ele>
        <time>2016-07-18T07:03:27.000Z</time>
      </trkpt>
      <trkpt lat="44.34699" lon="6.35345">
        <ele>1146.5999755859</ele>
        <time>2016-07-18T07:03:34.000Z</time>
      </trkpt>
      <trkpt lat="44.34709" lon="6.35345">
        <ele>1146.4000244141</ele>
        <time>2016-07-18T07:03:41.000Z</time>
      </trkpt>
      <trkpt lat="44.3472" lon="6.35344">
        <ele>1145.8000488281</ele>
        <time>2016-07-18T07:03:48.000Z</time>
      </trkpt>
      <trkpt lat="44.34731" lon="6.35344">
        <ele>1145.5999755859</ele>
        <time>2016-07-18T07:03:55.000Z</time>
      </trkpt>
      <trkpt lat="44.34743" lon="6.35344">
        <ele>1145</ele>
        <time>2016-07-18T07:04:03.000Z</time>
      </trkpt>
      <trkpt lat="44.34754" lon="6.35341">
        <ele>1144.5999755859</ele>
        <time>2016-07-18T07:04:11.000Z</time>
      </trkpt>
      <trkpt lat="44.34766" lon="6.35342">
        <ele>1144.1999511719</ele>
        <time>2016-07-18T07:04:18.000Z</time>
      </trkpt>
      <trkpt lat="44.34779" lon="6.35341">
        <ele>1143.8000488281</ele>
        <time>2016-07-18T07:04:26.000Z</time>
      </trkpt>
      <trkpt lat="44.34787" lon="6.35341">
        <ele>1143.8000488281</ele>
        <time>2016-07-18T07:04:32.000Z</time>
      </trkpt>
      <trkpt lat="44.34796" lon="6.35342">
        <ele>1144.1999511719</ele>
        <time>2016-07-18T07:04:38.000Z</time>
      </trkpt>
      <trkpt lat="44.34799" lon="6.35343">
        <ele>1144.4000244141</ele>
        <time>2016-07-18T07:04:40.000Z</time>
      </trkpt>
      <trkpt lat="44.34808" lon="6.35345">
        <ele>1144.5999755859</ele>
        <time>2016-07-18T07:04:46.000Z</time>
      </trkpt>
      <trkpt lat="44.34813" lon="6.35342">
        <ele>1145</ele>
        <time>2016-07-18T07:04:52.000Z</time>
      </trkpt>
      <trkpt lat="44.3482" lon="6.35332">
        <ele>1145.4000244141</ele>
        <time>2016-07-18T07:04:59.000Z</time>
      </trkpt>
      <trkpt lat="44.34826" lon="6.35319">
        <ele>1145.8000488281</ele>
        <time>2016-07-18T07:05:06.000Z</time>
      </trkpt>
      <trkpt lat="44.34826" lon="6.35318">
        <ele>1145.8000488281</ele>
        <time>2016-07-18T07:05:07.000Z</time>
      </trkpt>
      <trkpt lat="44.34831" lon="6.35309">
        <ele>1145.8000488281</ele>
        <time>2016-07-18T07:05:13.000Z</time>
      </trkpt>
      <trkpt lat="44.34834" lon="6.35311">
        <ele>1146</ele>
        <time>2016-07-18T07:05:17.000Z</time>
      </trkpt>
      <trkpt lat="44.34837" lon="6.3532">
        <ele>1146.4000244141</ele>
        <time>2016-07-18T07:05:23.000Z</time>
      </trkpt>
      <trkpt lat="44.3484" lon="6.35329">
        <ele>1146.5999755859</ele>
        <time>2016-07-18T07:05:28.000Z</time>
      </trkpt>
      <trkpt lat="44.3485" lon="6.35345">
        <ele>1147.1999511719</ele>
        <time>2016-07-18T07:05:40.000Z</time>
      </trkpt>
      <trkpt lat="44.34857" lon="6.35348">
        <ele>1147.5999755859</ele>
        <time>2016-07-18T07:05:45.000Z</time>
      </trkpt>
      <trkpt lat="44.3486" lon="6.35349">
        <ele>1147.8000488281</ele>
        <time>2016-07-18T07:05:48.000Z</time>
      </trkpt>
      <trkpt lat="44.34866" lon="6.3535">
        <ele>1148.4000244141</ele>
        <time>2016-07-18T07:05:52.000Z</time>
      </trkpt>
      <trkpt lat="44.34867" lon="6.3535">
        <ele>1148.5999755859</ele>
        <time>2016-07-18T07:05:53.000Z</time>
      </trkpt>
      <trkpt lat="44.34875" lon="6.3535">
        <ele>1149.5999755859</ele>
        <time>2016-07-18T07:05:58.000Z</time>
      </trkpt>
      <trkpt lat="44.34879" lon="6.35353">
        <ele>1150.4000244141</ele>
        <time>2016-07-18T07:06:02.000Z</time>
      </trkpt>
      <trkpt lat="44.34884" lon="6.35355">
        <ele>1151.1999511719</ele>
        <time>2016-07-18T07:06:06.000Z</time>
      </trkpt>
      <trkpt lat="44.3489" lon="6.35357">
        <ele>1152</ele>
        <time>2016-07-18T07:06:10.000Z</time>
      </trkpt>
      <trkpt lat="44.34893" lon="6.35361">
        <ele>1152.5999755859</ele>
        <time>2016-07-18T07:06:13.000Z</time>
      </trkpt>
      <trkpt lat="44.34897" lon="6.35364">
        <ele>1153</ele>
        <time>2016-07-18T07:06:17.000Z</time>
      </trkpt>
      <trkpt lat="44.34902" lon="6.35362">
        <ele>1154</ele>
        <time>2016-07-18T07:06:24.000Z</time>
      </trkpt>
      <trkpt lat="44.34909" lon="6.35364">
        <ele>1155</ele>
        <time>2016-07-18T07:06:36.000Z</time>
      </trkpt>
      <trkpt lat="44.3491" lon="6.35365">
        <ele>1155.1999511719</ele>
        <time>2016-07-18T07:06:37.000Z</time>
      </trkpt>
      <trkpt lat="44.34916" lon="6.35375">
        <ele>1156</ele>
        <time>2016-07-18T07:06:44.000Z</time>
      </trkpt>
      <trkpt lat="44.34917" lon="6.35377">
        <ele>1156.1999511719</ele>
        <time>2016-07-18T07:06:46.000Z</time>
      </trkpt>
      <trkpt lat="44.34922" lon="6.35385">
        <ele>1157</ele>
        <time>2016-07-18T07:06:52.000Z</time>
      </trkpt>
      <trkpt lat="44.34929" lon="6.35389">
        <ele>1158</ele>
        <time>2016-07-18T07:06:56.000Z</time>
      </trkpt>
      <trkpt lat="44.3493" lon="6.3539">
        <ele>1158.1999511719</ele>
        <time>2016-07-18T07:06:57.000Z</time>
      </trkpt>
      <trkpt lat="44.34935" lon="6.35391">
        <ele>1159</ele>
        <time>2016-07-18T07:07:02.000Z</time>
      </trkpt>
      <trkpt lat="44.3494" lon="6.35396">
        <ele>1159.8000488281</ele>
        <time>2016-07-18T07:07:06.000Z</time>
      </trkpt>
      <trkpt lat="44.34942" lon="6.35399">
        <ele>1160.1999511719</ele>
        <time>2016-07-18T07:07:08.000Z</time>
      </trkpt>
      <trkpt lat="44.34949" lon="6.35407">
        <ele>1161.4000244141</ele>
        <time>2016-07-18T07:07:14.000Z</time>
      </trkpt>
      <trkpt lat="44.34952" lon="6.35413">
        <ele>1162.4000244141</ele>
        <time>2016-07-18T07:07:18.000Z</time>
      </trkpt>
      <trkpt lat="44.34963" lon="6.35421">
        <ele>1165.4000244141</ele>
        <time>2016-07-18T07:07:26.000Z</time>
      </trkpt>
      <trkpt lat="44.34969" lon="6.35426">
        <ele>1167</ele>
        <time>2016-07-18T07:07:31.000Z</time>
      </trkpt>
      <trkpt lat="44.3497" lon="6.35427">
        <ele>1167.1999511719</ele>
        <time>2016-07-18T07:07:32.000Z</time>
      </trkpt>
      <trkpt lat="44.34974" lon="6.3543">
        <ele>1168.4000244141</ele>
        <time>2016-07-18T07:07:37.000Z</time>
      </trkpt>
      <trkpt lat="44.34975" lon="6.35439">
        <ele>1168.5999755859</ele>
        <time>2016-07-18T07:07:42.000Z</time>
      </trkpt>
      <trkpt lat="44.34974" lon="6.35441">
        <ele>1168.5999755859</ele>
        <time>2016-07-18T07:07:44.000Z</time>
      </trkpt>
      <trkpt lat="44.34972" lon="6.35451">
        <ele>1168</ele>
        <time>2016-07-18T07:07:50.000Z</time>
      </trkpt>
      <trkpt lat="44.34968" lon="6.35464">
        <ele>1167.4000244141</ele>
        <time>2016-07-18T07:07:57.000Z</time>
      </trkpt>
      <trkpt lat="44.34968" lon="6.35474">
        <ele>1167.4000244141</ele>
        <time>2016-07-18T07:08:02.000Z</time>
      </trkpt>
      <trkpt lat="44.34975" lon="6.3548">
        <ele>1169.1999511719</ele>
        <time>2016-07-18T07:08:08.000Z</time>
      </trkpt>
      <trkpt lat="44.34979" lon="6.35488">
        <ele>1171</ele>
        <time>2016-07-18T07:08:14.000Z</time>
      </trkpt>
      <trkpt lat="44.34979" lon="6.35494">
        <ele>1171.5999755859</ele>
        <time>2016-07-18T07:08:18.000Z</time>
      </trkpt>
      <trkpt lat="44.34973" lon="6.355">
        <ele>1170.8000488281</ele>
        <time>2016-07-18T07:08:23.000Z</time>
      </trkpt>
      <trkpt lat="44.34974" lon="6.35505">
        <ele>1171.1999511719</ele>
        <time>2016-07-18T07:08:25.000Z</time>
      </trkpt>
      <trkpt lat="44.34975" lon="6.35512">
        <ele>1172.1999511719</ele>
        <time>2016-07-18T07:08:28.000Z</time>
      </trkpt>
      <trkpt lat="44.3497" lon="6.35526">
        <ele>1171.8000488281</ele>
        <time>2016-07-18T07:08:34.000Z</time>
      </trkpt>
      <trkpt lat="44.34972" lon="6.35532">
        <ele>1172.5999755859</ele>
        <time>2016-07-18T07:08:39.000Z</time>
      </trkpt>
      <trkpt lat="44.3498" lon="6.35541">
        <ele>1175.8000488281</ele>
        <time>2016-07-18T07:09:07.000Z</time>
      </trkpt>
      <trkpt lat="44.34983" lon="6.35543">
        <ele>1176.5999755859</ele>
        <time>2016-07-18T07:09:09.000Z</time>
      </trkpt>
      <trkpt lat="44.34986" lon="6.35552">
        <ele>1178.1999511719</ele>
        <time>2016-07-18T07:09:15.000Z</time>
      </trkpt>
      <trkpt lat="44.34988" lon="6.35551">
        <ele>1178.5999755859</ele>
        <time>2016-07-18T07:09:18.000Z</time>
      </trkpt>
      <trkpt lat="44.3499" lon="6.35543">
        <ele>1178.5999755859</ele>
        <time>2016-07-18T07:09:23.000Z</time>
      </trkpt>
      <trkpt lat="44.34994" lon="6.35544">
        <ele>1180</ele>
        <time>2016-07-18T07:09:28.000Z</time>
      </trkpt>
      <trkpt lat="44.34995" lon="6.3555">
        <ele>1180.5999755859</ele>
        <time>2016-07-18T07:09:31.000Z</time>
      </trkpt>
      <trkpt lat="44.35002" lon="6.35553">
        <ele>1183</ele>
        <time>2016-07-18T07:09:37.000Z</time>
      </trkpt>
      <trkpt lat="44.35007" lon="6.35554">
        <ele>1184.4000244141</ele>
        <time>2016-07-18T07:09:41.000Z</time>
      </trkpt>
      <trkpt lat="44.35015" lon="6.35556">
        <ele>1187</ele>
        <time>2016-07-18T07:09:47.000Z</time>
      </trkpt>
      <trkpt lat="44.35017" lon="6.35556">
        <ele>1187.4000244141</ele>
        <time>2016-07-18T07:09:48.000Z</time>
      </trkpt>
      <trkpt lat="44.35028" lon="6.35549">
        <ele>1189.8000488281</ele>
        <time>2016-07-18T07:09:55.000Z</time>
      </trkpt>
      <trkpt lat="44.35029" lon="6.35548">
        <ele>1190</ele>
        <time>2016-07-18T07:09:56.000Z</time>
      </trkpt>
      <trkpt lat="44.35034" lon="6.3554">
        <ele>1190.4000244141</ele>
        <time>2016-07-18T07:10:02.000Z</time>
      </trkpt>
      <trkpt lat="44.35041" lon="6.35533">
        <ele>1191</ele>
        <time>2016-07-18T07:10:08.000Z</time>
      </trkpt>
      <trkpt lat="44.35048" lon="6.35503">
        <ele>1189.8000488281</ele>
        <time>2016-07-18T07:10:22.000Z</time>
      </trkpt>
      <trkpt lat="44.35052" lon="6.35488">
        <ele>1190.8000488281</ele>
        <time>2016-07-18T07:10:30.000Z</time>
      </trkpt>
      <trkpt lat="44.35056" lon="6.35474">
        <ele>1192.4000244141</ele>
        <time>2016-07-18T07:10:37.000Z</time>
      </trkpt>
      <trkpt lat="44.3506" lon="6.35455">
        <ele>1193.1999511719</ele>
        <time>2016-07-18T07:10:47.000Z</time>
      </trkpt>
      <trkpt lat="44.35065" lon="6.35434">
        <ele>1194.4000244141</ele>
        <time>2016-07-18T07:10:57.000Z</time>
      </trkpt>
      <trkpt lat="44.35069" lon="6.35423">
        <ele>1195</ele>
        <time>2016-07-18T07:11:05.000Z</time>
      </trkpt>
      <trkpt lat="44.35077" lon="6.35416">
        <ele>1197</ele>
        <time>2016-07-18T07:11:12.000Z</time>
      </trkpt>
      <trkpt lat="44.35086" lon="6.35418">
        <ele>1199.5999755859</ele>
        <time>2016-07-18T07:11:19.000Z</time>
      </trkpt>
      <trkpt lat="44.35087" lon="6.3543">
        <ele>1201</ele>
        <time>2016-07-18T07:11:25.000Z</time>
      </trkpt>
      <trkpt lat="44.35087" lon="6.35431">
        <ele>1201</ele>
        <time>2016-07-18T07:11:26.000Z</time>
      </trkpt>
      <trkpt lat="44.35085" lon="6.35438">
        <ele>1200.5999755859</ele>
        <time>2016-07-18T07:11:31.000Z</time>
      </trkpt>
      <trkpt lat="44.35085" lon="6.35443">
        <ele>1200.8000488281</ele>
        <time>2016-07-18T07:11:34.000Z</time>
      </trkpt>
      <trkpt lat="44.35091" lon="6.35441">
        <ele>1202.5999755859</ele>
        <time>2016-07-18T07:11:40.000Z</time>
      </trkpt>
      <trkpt lat="44.35093" lon="6.35437">
        <ele>1203</ele>
        <time>2016-07-18T07:11:42.000Z</time>
      </trkpt>
      <trkpt lat="44.35098" lon="6.35425">
        <ele>1203.5999755859</ele>
        <time>2016-07-18T07:11:50.000Z</time>
      </trkpt>
      <trkpt lat="44.35102" lon="6.35411">
        <ele>1204.1999511719</ele>
        <time>2016-07-18T07:11:58.000Z</time>
      </trkpt>
      <trkpt lat="44.35104" lon="6.3541">
        <ele>1204.5999755859</ele>
        <time>2016-07-18T07:12:00.000Z</time>
      </trkpt>
      <trkpt lat="44.35105" lon="6.35414">
        <ele>1205.4000244141</ele>
        <time>2016-07-18T07:12:03.000Z</time>
      </trkpt>
      <trkpt lat="44.35106" lon="6.35426">
        <ele>1206.1999511719</ele>
        <time>2016-07-18T07:12:09.000Z</time>
      </trkpt>
      <trkpt lat="44.35109" lon="6.35424">
        <ele>1207</ele>
        <time>2016-07-18T07:12:13.000Z</time>
      </trkpt>
      <trkpt lat="44.3511" lon="6.3542">
        <ele>1207</ele>
        <time>2016-07-18T07:12:16.000Z</time>
      </trkpt>
      <trkpt lat="44.35115" lon="6.35421">
        <ele>1208.4000244141</ele>
        <time>2016-07-18T07:12:22.000Z</time>
      </trkpt>
      <trkpt lat="44.35114" lon="6.35423">
        <ele>1208.5999755859</ele>
        <time>2016-07-18T07:12:23.000Z</time>
      </trkpt>
      <trkpt lat="44.35114" lon="6.3544">
        <ele>1209.5999755859</ele>
        <time>2016-07-18T07:12:32.000Z</time>
      </trkpt>
      <trkpt lat="44.35117" lon="6.35453">
        <ele>1210.8000488281</ele>
        <time>2016-07-18T07:12:39.000Z</time>
      </trkpt>
      <trkpt lat="44.35118" lon="6.35463">
        <ele>1211.8000488281</ele>
        <time>2016-07-18T07:12:45.000Z</time>
      </trkpt>
      <trkpt lat="44.35118" lon="6.35475">
        <ele>1212.1999511719</ele>
        <time>2016-07-18T07:12:52.000Z</time>
      </trkpt>
      <trkpt lat="44.35115" lon="6.35483">
        <ele>1212</ele>
        <time>2016-07-18T07:13:13.000Z</time>
      </trkpt>
      <trkpt lat="44.35114" lon="6.35492">
        <ele>1211.4000244141</ele>
        <time>2016-07-18T07:13:19.000Z</time>
      </trkpt>
      <trkpt lat="44.35117" lon="6.35504">
        <ele>1211.1999511719</ele>
        <time>2016-07-18T07:13:25.000Z</time>
      </trkpt>
      <trkpt lat="44.35119" lon="6.35512">
        <ele>1210.8000488281</ele>
        <time>2016-07-18T07:13:29.000Z</time>
      </trkpt>
      <trkpt lat="44.35124" lon="6.35527">
        <ele>1210.4000244141</ele>
        <time>2016-07-18T07:13:37.000Z</time>
      </trkpt>
      <trkpt lat="44.35126" lon="6.35531">
        <ele>1210.1999511719</ele>
        <time>2016-07-18T07:13:40.000Z</time>
      </trkpt>
      <trkpt lat="44.35132" lon="6.35532">
        <ele>1210.1999511719</ele>
        <time>2016-07-18T07:13:44.000Z</time>
      </trkpt>
      <trkpt lat="44.35146" lon="6.35524">
        <ele>1210.4000244141</ele>
        <time>2016-07-18T07:13:54.000Z</time>
      </trkpt>
      <trkpt lat="44.35148" lon="6.35524">
        <ele>1210.4000244141</ele>
        <time>2016-07-18T07:13:55.000Z</time>
      </trkpt>
      <trkpt lat="44.35152" lon="6.35526">
        <ele>1210.4000244141</ele>
        <time>2016-07-18T07:14:02.000Z</time>
      </trkpt>
      <trkpt lat="44.35154" lon="6.35526">
        <ele>1210.4000244141</ele>
        <time>2016-07-18T07:14:11.000Z</time>
      </trkpt>
      <trkpt lat="44.35161" lon="6.35524">
        <ele>1211</ele>
        <time>2016-07-18T07:14:16.000Z</time>
      </trkpt>
      <trkpt lat="44.35169" lon="6.35526">
        <ele>1212.1999511719</ele>
        <time>2016-07-18T07:14:23.000Z</time>
      </trkpt>
      <trkpt lat="44.35178" lon="6.35527">
        <ele>1213.5999755859</ele>
        <time>2016-07-18T07:14:29.000Z</time>
      </trkpt>
      <trkpt lat="44.35187" lon="6.35523">
        <ele>1216</ele>
        <time>2016-07-18T07:14:36.000Z</time>
      </trkpt>
      <trkpt lat="44.3519" lon="6.35521">
        <ele>1216.8000488281</ele>
        <time>2016-07-18T07:14:39.000Z</time>
      </trkpt>
      <trkpt lat="44.35197" lon="6.35519">
        <ele>1218.5999755859</ele>
        <time>2016-07-18T07:14:45.000Z</time>
      </trkpt>
      <trkpt lat="44.35199" lon="6.3552">
        <ele>1218.5999755859</ele>
        <time>2016-07-18T07:14:46.000Z</time>
      </trkpt>
      <trkpt lat="44.35202" lon="6.35521">
        <ele>1218.4000244141</ele>
        <time>2016-07-18T07:14:48.000Z</time>
      </trkpt>
      <trkpt lat="44.35211" lon="6.35527">
        <ele>1217.1999511719</ele>
        <time>2016-07-18T07:14:55.000Z</time>
      </trkpt>
      <trkpt lat="44.35225" lon="6.3553">
        <ele>1217</ele>
        <time>2016-07-18T07:15:04.000Z</time>
      </trkpt>
      <trkpt lat="44.35237" lon="6.35534">
        <ele>1216.4000244141</ele>
        <time>2016-07-18T07:15:12.000Z</time>
      </trkpt>
      <trkpt lat="44.35244" lon="6.35544">
        <ele>1214.5999755859</ele>
        <time>2016-07-18T07:15:19.000Z</time>
      </trkpt>
      <trkpt lat="44.35248" lon="6.35551">
        <ele>1213.1999511719</ele>
        <time>2016-07-18T07:15:23.000Z</time>
      </trkpt>
      <trkpt lat="44.35255" lon="6.3556">
        <ele>1211.4000244141</ele>
        <time>2016-07-18T07:15:30.000Z</time>
      </trkpt>
      <trkpt lat="44.35265" lon="6.3557">
        <ele>1210.1999511719</ele>
        <time>2016-07-18T07:15:39.000Z</time>
      </trkpt>
      <trkpt lat="44.35275" lon="6.35585">
        <ele>1209.1999511719</ele>
        <time>2016-07-18T07:15:50.000Z</time>
      </trkpt>
      <trkpt lat="44.3528" lon="6.35596">
        <ele>1208.1999511719</ele>
        <time>2016-07-18T07:15:57.000Z</time>
      </trkpt>
      <trkpt lat="44.35281" lon="6.35605">
        <ele>1207.5999755859</ele>
        <time>2016-07-18T07:16:02.000Z</time>
      </trkpt>
      <trkpt lat="44.35278" lon="6.35619">
        <ele>1206.4000244141</ele>
        <time>2016-07-18T07:16:10.000Z</time>
      </trkpt>
      <trkpt lat="44.35273" lon="6.35629">
        <ele>1205.4000244141</ele>
        <time>2016-07-18T07:16:16.000Z</time>
      </trkpt>
      <trkpt lat="44.35269" lon="6.35647">
        <ele>1203</ele>
        <time>2016-07-18T07:16:26.000Z</time>
      </trkpt>
      <trkpt lat="44.35268" lon="6.35656">
        <ele>1203</ele>
        <time>2016-07-18T07:16:30.000Z</time>
      </trkpt>
      <trkpt lat="44.35268" lon="6.35664">
        <ele>1203.4000244141</ele>
        <time>2016-07-18T07:16:34.000Z</time>
      </trkpt>
      <trkpt lat="44.3527" lon="6.35678">
        <ele>1203.8000488281</ele>
        <time>2016-07-18T07:16:40.000Z</time>
      </trkpt>
      <trkpt lat="44.35269" lon="6.35695">
        <ele>1204.1999511719</ele>
        <time>2016-07-18T07:16:48.000Z</time>
      </trkpt>
      <trkpt lat="44.35269" lon="6.35715">
        <ele>1204.5999755859</ele>
        <time>2016-07-18T07:16:56.000Z</time>
      </trkpt>
      <trkpt lat="44.35268" lon="6.35722">
        <ele>1204.4000244141</ele>
        <time>2016-07-18T07:16:59.000Z</time>
      </trkpt>
      <trkpt lat="44.35267" lon="6.35726">
        <ele>1204</ele>
        <time>2016-07-18T07:17:01.000Z</time>
      </trkpt>
      <trkpt lat="44.35264" lon="6.35732">
        <ele>1203.1999511719</ele>
        <time>2016-07-18T07:17:05.000Z</time>
      </trkpt>
      <trkpt lat="44.35258" lon="6.3575">
        <ele>1203.8000488281</ele>
        <time>2016-07-18T07:17:14.000Z</time>
      </trkpt>
      <trkpt lat="44.35254" lon="6.35762">
        <ele>1204.5999755859</ele>
        <time>2016-07-18T07:17:20.000Z</time>
      </trkpt>
      <trkpt lat="44.35256" lon="6.35776">
        <ele>1206</ele>
        <time>2016-07-18T07:17:27.000Z</time>
      </trkpt>
      <trkpt lat="44.35262" lon="6.35785">
        <ele>1208</ele>
        <time>2016-07-18T07:17:34.000Z</time>
      </trkpt>
      <trkpt lat="44.35263" lon="6.35787">
        <ele>1208.4000244141</ele>
        <time>2016-07-18T07:17:35.000Z</time>
      </trkpt>
      <trkpt lat="44.35264" lon="6.35792">
        <ele>1209</ele>
        <time>2016-07-18T07:17:39.000Z</time>
      </trkpt>
      <trkpt lat="44.35267" lon="6.3579">
        <ele>1209.4000244141</ele>
        <time>2016-07-18T07:18:10.000Z</time>
      </trkpt>
      <trkpt lat="44.35261" lon="6.35803">
        <ele>1209.4000244141</ele>
        <time>2016-07-18T07:18:18.000Z</time>
      </trkpt>
      <trkpt lat="44.3526" lon="6.35809">
        <ele>1209.5999755859</ele>
        <time>2016-07-18T07:18:23.000Z</time>
      </trkpt>
      <trkpt lat="44.35257" lon="6.35827">
        <ele>1210.8000488281</ele>
        <time>2016-07-18T07:18:32.000Z</time>
      </trkpt>
      <trkpt lat="44.35254" lon="6.35844">
        <ele>1212</ele>
        <time>2016-07-18T07:18:40.000Z</time>
      </trkpt>
      <trkpt lat="44.35257" lon="6.35871">
        <ele>1215.4000244141</ele>
        <time>2016-07-18T07:18:54.000Z</time>
      </trkpt>
      <trkpt lat="44.35254" lon="6.3589">
        <ele>1217.4000244141</ele>
        <time>2016-07-18T07:19:04.000Z</time>
      </trkpt>
      <trkpt lat="44.35253" lon="6.35905">
        <ele>1219</ele>
        <time>2016-07-18T07:19:12.000Z</time>
      </trkpt>
      <trkpt lat="44.35253" lon="6.35918">
        <ele>1220.1999511719</ele>
        <time>2016-07-18T07:19:19.000Z</time>
      </trkpt>
      <trkpt lat="44.35253" lon="6.35919">
        <ele>1220.4000244141</ele>
        <time>2016-07-18T07:19:20.000Z</time>
      </trkpt>
      <trkpt lat="44.35255" lon="6.35933">
        <ele>1222.1999511719</ele>
        <time>2016-07-18T07:19:28.000Z</time>
      </trkpt>
      <trkpt lat="44.35255" lon="6.35949">
        <ele>1223.5999755859</ele>
        <time>2016-07-18T07:19:36.000Z</time>
      </trkpt>
      <trkpt lat="44.35255" lon="6.35971">
        <ele>1224.5999755859</ele>
        <time>2016-07-18T07:19:48.000Z</time>
      </trkpt>
      <trkpt lat="44.35254" lon="6.35988">
        <ele>1225.4000244141</ele>
        <time>2016-07-18T07:19:57.000Z</time>
      </trkpt>
      <trkpt lat="44.35255" lon="6.36001">
        <ele>1226.4000244141</ele>
        <time>2016-07-18T07:20:05.000Z</time>
      </trkpt>
      <trkpt lat="44.35254" lon="6.36016">
        <ele>1227.4000244141</ele>
        <time>2016-07-18T07:20:13.000Z</time>
      </trkpt>
      <trkpt lat="44.35255" lon="6.3603">
        <ele>1228.5999755859</ele>
        <time>2016-07-18T07:20:21.000Z</time>
      </trkpt>
      <trkpt lat="44.35255" lon="6.36042">
        <ele>1229</ele>
        <time>2016-07-18T07:20:28.000Z</time>
      </trkpt>
      <trkpt lat="44.35254" lon="6.36057">
        <ele>1228.5999755859</ele>
        <time>2016-07-18T07:20:36.000Z</time>
      </trkpt>
      <trkpt lat="44.35253" lon="6.36071">
        <ele>1228.4000244141</ele>
        <time>2016-07-18T07:20:44.000Z</time>
      </trkpt>
      <trkpt lat="44.35254" lon="6.36084">
        <ele>1229</ele>
        <time>2016-07-18T07:20:51.000Z</time>
      </trkpt>
      <trkpt lat="44.35255" lon="6.36101">
        <ele>1229.8000488281</ele>
        <time>2016-07-18T07:21:00.000Z</time>
      </trkpt>
      <trkpt lat="44.35254" lon="6.36115">
        <ele>1230.1999511719</ele>
        <time>2016-07-18T07:21:07.000Z</time>
      </trkpt>
      <trkpt lat="44.35255" lon="6.36126">
        <ele>1230.8000488281</ele>
        <time>2016-07-18T07:21:12.000Z</time>
      </trkpt>
      <trkpt lat="44.35262" lon="6.36139">
        <ele>1233.1999511719</ele>
        <time>2016-07-18T07:21:21.000Z</time>
      </trkpt>
      <trkpt lat="44.35271" lon="6.36148">
        <ele>1236.5999755859</ele>
        <time>2016-07-18T07:21:29.000Z</time>
      </trkpt>
      <trkpt lat="44.35277" lon="6.36158">
        <ele>1239.5999755859</ele>
        <time>2016-07-18T07:21:36.000Z</time>
      </trkpt>
      <trkpt lat="44.3528" lon="6.36172">
        <ele>1242</ele>
        <time>2016-07-18T07:21:43.000Z</time>
      </trkpt>
      <trkpt lat="44.3528" lon="6.36189">
        <ele>1243.8000488281</ele>
        <time>2016-07-18T07:21:52.000Z</time>
      </trkpt>
      <trkpt lat="44.35279" lon="6.36206">
        <ele>1245</ele>
        <time>2016-07-18T07:22:01.000Z</time>
      </trkpt>
      <trkpt lat="44.35277" lon="6.36219">
        <ele>1245.5999755859</ele>
        <time>2016-07-18T07:22:08.000Z</time>
      </trkpt>
      <trkpt lat="44.35277" lon="6.36231">
        <ele>1246.8000488281</ele>
        <time>2016-07-18T07:22:14.000Z</time>
      </trkpt>
      <trkpt lat="44.35277" lon="6.36248">
        <ele>1247.5999755859</ele>
        <time>2016-07-18T07:22:23.000Z</time>
      </trkpt>
      <trkpt lat="44.35278" lon="6.36267">
        <ele>1248.5999755859</ele>
        <time>2016-07-18T07:22:33.000Z</time>
      </trkpt>
      <trkpt lat="44.35279" lon="6.3628">
        <ele>1249.8000488281</ele>
        <time>2016-07-18T07:22:40.000Z</time>
      </trkpt>
      <trkpt lat="44.35289" lon="6.36309">
        <ele>1253.5999755859</ele>
        <time>2016-07-18T07:22:57.000Z</time>
      </trkpt>
      <trkpt lat="44.35295" lon="6.36321">
        <ele>1255.8000488281</ele>
        <time>2016-07-18T07:23:05.000Z</time>
      </trkpt>
      <trkpt lat="44.35299" lon="6.36329">
        <ele>1257.1999511719</ele>
        <time>2016-07-18T07:23:11.000Z</time>
      </trkpt>
      <trkpt lat="44.35302" lon="6.36345">
        <ele>1258</ele>
        <time>2016-07-18T07:23:19.000Z</time>
      </trkpt>
      <trkpt lat="44.353" lon="6.36355">
        <ele>1257.1999511719</ele>
        <time>2016-07-18T07:23:25.000Z</time>
      </trkpt>
      <trkpt lat="44.35297" lon="6.36368">
        <ele>1256</ele>
        <time>2016-07-18T07:23:32.000Z</time>
      </trkpt>
      <trkpt lat="44.35298" lon="6.36381">
        <ele>1256</ele>
        <time>2016-07-18T07:23:39.000Z</time>
      </trkpt>
      <trkpt lat="44.35305" lon="6.36395">
        <ele>1257.8000488281</ele>
        <time>2016-07-18T07:23:48.000Z</time>
      </trkpt>
      <trkpt lat="44.35314" lon="6.3641">
        <ele>1260.4000244141</ele>
        <time>2016-07-18T07:23:59.000Z</time>
      </trkpt>
      <trkpt lat="44.35326" lon="6.36416">
        <ele>1264</ele>
        <time>2016-07-18T07:24:08.000Z</time>
      </trkpt>
      <trkpt lat="44.35336" lon="6.36419">
        <ele>1267.4000244141</ele>
        <time>2016-07-18T07:24:16.000Z</time>
      </trkpt>
      <trkpt lat="44.35346" lon="6.3642">
        <ele>1270.5999755859</ele>
        <time>2016-07-18T07:24:24.000Z</time>
      </trkpt>
      <trkpt lat="44.35357" lon="6.36416">
        <ele>1274.4000244141</ele>
        <time>2016-07-18T07:24:33.000Z</time>
      </trkpt>
      <trkpt lat="44.35367" lon="6.36414">
        <ele>1277</ele>
        <time>2016-07-18T07:24:42.000Z</time>
      </trkpt>
      <trkpt lat="44.35379" lon="6.36415">
        <ele>1278.4000244141</ele>
        <time>2016-07-18T07:24:50.000Z</time>
      </trkpt>
      <trkpt lat="44.3539" lon="6.36418">
        <ele>1279.5999755859</ele>
        <time>2016-07-18T07:24:59.000Z</time>
      </trkpt>
      <trkpt lat="44.35392" lon="6.36418">
        <ele>1279.8000488281</ele>
        <time>2016-07-18T07:25:01.000Z</time>
      </trkpt>
      <trkpt lat="44.35395" lon="6.36421">
        <ele>1280.1999511719</ele>
        <time>2016-07-18T07:25:08.000Z</time>
      </trkpt>
      <trkpt lat="44.35404" lon="6.36421">
        <ele>1281.4000244141</ele>
        <time>2016-07-18T07:25:38.000Z</time>
      </trkpt>
      <trkpt lat="44.35412" lon="6.36422">
        <ele>1282.4000244141</ele>
        <time>2016-07-18T07:25:45.000Z</time>
      </trkpt>
      <trkpt lat="44.35423" lon="6.36424">
        <ele>1283.8000488281</ele>
        <time>2016-07-18T07:25:54.000Z</time>
      </trkpt>
      <trkpt lat="44.35433" lon="6.36427">
        <ele>1285</ele>
        <time>2016-07-18T07:26:03.000Z</time>
      </trkpt>
      <trkpt lat="44.35435" lon="6.36428">
        <ele>1285.1999511719</ele>
        <time>2016-07-18T07:26:05.000Z</time>
      </trkpt>
      <trkpt lat="44.35443" lon="6.3643">
        <ele>1286.1999511719</ele>
        <time>2016-07-18T07:26:12.000Z</time>
      </trkpt>
      <trkpt lat="44.3545" lon="6.3643">
        <ele>1287.1999511719</ele>
        <time>2016-07-18T07:26:18.000Z</time>
      </trkpt>
      <trkpt lat="44.35452" lon="6.3643">
        <ele>1287.5999755859</ele>
        <time>2016-07-18T07:26:20.000Z</time>
      </trkpt>
      <trkpt lat="44.35461" lon="6.36433">
        <ele>1288.8000488281</ele>
        <time>2016-07-18T07:26:27.000Z</time>
      </trkpt>
      <trkpt lat="44.35468" lon="6.36434">
        <ele>1289.8000488281</ele>
        <time>2016-07-18T07:26:32.000Z</time>
      </trkpt>
      <trkpt lat="44.35477" lon="6.36434">
        <ele>1291.1999511719</ele>
        <time>2016-07-18T07:26:38.000Z</time>
      </trkpt>
      <trkpt lat="44.35489" lon="6.36432">
        <ele>1293.5999755859</ele>
        <time>2016-07-18T07:26:47.000Z</time>
      </trkpt>
      <trkpt lat="44.35498" lon="6.36428">
        <ele>1295.8000488281</ele>
        <time>2016-07-18T07:26:54.000Z</time>
      </trkpt>
      <trkpt lat="44.35507" lon="6.36426">
        <ele>1297.8000488281</ele>
        <time>2016-07-18T07:27:01.000Z</time>
      </trkpt>
      <trkpt lat="44.3552" lon="6.36423">
        <ele>1300.5999755859</ele>
        <time>2016-07-18T07:27:09.000Z</time>
      </trkpt>
      <trkpt lat="44.35529" lon="6.36419">
        <ele>1303</ele>
        <time>2016-07-18T07:27:16.000Z</time>
      </trkpt>
      <trkpt lat="44.35539" lon="6.36418">
        <ele>1304.8000488281</ele>
        <time>2016-07-18T07:27:23.000Z</time>
      </trkpt>
      <trkpt lat="44.35548" lon="6.36417">
        <ele>1306.4000244141</ele>
        <time>2016-07-18T07:27:30.000Z</time>
      </trkpt>
      <trkpt lat="44.3556" lon="6.3642">
        <ele>1307.4000244141</ele>
        <time>2016-07-18T07:27:38.000Z</time>
      </trkpt>
      <trkpt lat="44.35572" lon="6.36426">
        <ele>1308.1999511719</ele>
        <time>2016-07-18T07:27:47.000Z</time>
      </trkpt>
      <trkpt lat="44.35582" lon="6.36433">
        <ele>1309.1999511719</ele>
        <time>2016-07-18T07:27:54.000Z</time>
      </trkpt>
      <trkpt lat="44.35595" lon="6.36438">
        <ele>1310</ele>
        <time>2016-07-18T07:28:02.000Z</time>
      </trkpt>
      <trkpt lat="44.35609" lon="6.36444">
        <ele>1311.1999511719</ele>
        <time>2016-07-18T07:28:11.000Z</time>
      </trkpt>
      <trkpt lat="44.35627" lon="6.36452">
        <ele>1312.5999755859</ele>
        <time>2016-07-18T07:28:22.000Z</time>
      </trkpt>
      <trkpt lat="44.35641" lon="6.36461">
        <ele>1314</ele>
        <time>2016-07-18T07:28:32.000Z</time>
      </trkpt>
      <trkpt lat="44.35644" lon="6.36462">
        <ele>1314.1999511719</ele>
        <time>2016-07-18T07:28:34.000Z</time>
      </trkpt>
      <trkpt lat="44.35651" lon="6.36466">
        <ele>1314.8000488281</ele>
        <time>2016-07-18T07:28:39.000Z</time>
      </trkpt>
      <trkpt lat="44.35656" lon="6.36477">
        <ele>1315.4000244141</ele>
        <time>2016-07-18T07:28:46.000Z</time>
      </trkpt>
      <trkpt lat="44.35653" lon="6.36488">
        <ele>1315.5999755859</ele>
        <time>2016-07-18T07:28:58.000Z</time>
      </trkpt>
      <trkpt lat="44.35653" lon="6.3649">
        <ele>1315.8000488281</ele>
        <time>2016-07-18T07:29:15.000Z</time>
      </trkpt>
      <trkpt lat="44.35654" lon="6.36489">
        <ele>1315.8000488281</ele>
        <time>2016-07-18T07:29:35.000Z</time>
      </trkpt>
      <trkpt lat="44.35658" lon="6.36492">
        <ele>1316.1999511719</ele>
        <time>2016-07-18T07:29:41.000Z</time>
      </trkpt>
      <trkpt lat="44.35658" lon="6.36493">
        <ele>1316.4000244141</ele>
        <time>2016-07-18T07:29:52.000Z</time>
      </trkpt>
      <trkpt lat="44.3564" lon="6.36528">
        <ele>1317.4000244141</ele>
        <time>2016-07-18T07:30:20.000Z</time>
      </trkpt>
      <trkpt lat="44.35627" lon="6.36543">
        <ele>1318</ele>
        <time>2016-07-18T07:30:31.000Z</time>
      </trkpt>
      <trkpt lat="44.35618" lon="6.3655">
        <ele>1318</ele>
        <time>2016-07-18T07:30:38.000Z</time>
      </trkpt>
      <trkpt lat="44.3561" lon="6.36555">
        <ele>1317.4000244141</ele>
        <time>2016-07-18T07:30:44.000Z</time>
      </trkpt>
      <trkpt lat="44.35597" lon="6.36564">
        <ele>1316.4000244141</ele>
        <time>2016-07-18T07:30:52.000Z</time>
      </trkpt>
      <trkpt lat="44.35588" lon="6.3657">
        <ele>1316</ele>
        <time>2016-07-18T07:30:58.000Z</time>
      </trkpt>
      <trkpt lat="44.35575" lon="6.3658">
        <ele>1315.5999755859</ele>
        <time>2016-07-18T07:31:08.000Z</time>
      </trkpt>
      <trkpt lat="44.35566" lon="6.36593">
        <ele>1316.1999511719</ele>
        <time>2016-07-18T07:31:17.000Z</time>
      </trkpt>
      <trkpt lat="44.3556" lon="6.36607">
        <ele>1317.4000244141</ele>
        <time>2016-07-18T07:31:25.000Z</time>
      </trkpt>
      <trkpt lat="44.35556" lon="6.36618">
        <ele>1318.4000244141</ele>
        <time>2016-07-18T07:31:31.000Z</time>
      </trkpt>
      <trkpt lat="44.35553" lon="6.36638">
        <ele>1320.8000488281</ele>
        <time>2016-07-18T07:31:41.000Z</time>
      </trkpt>
      <trkpt lat="44.35552" lon="6.36655">
        <ele>1322.4000244141</ele>
        <time>2016-07-18T07:31:50.000Z</time>
      </trkpt>
      <trkpt lat="44.35549" lon="6.36675">
        <ele>1323.4000244141</ele>
        <time>2016-07-18T07:32:00.000Z</time>
      </trkpt>
      <trkpt lat="44.35546" lon="6.3669">
        <ele>1324.4000244141</ele>
        <time>2016-07-18T07:32:08.000Z</time>
      </trkpt>
      <trkpt lat="44.3554" lon="6.36704">
        <ele>1324.8000488281</ele>
        <time>2016-07-18T07:32:16.000Z</time>
      </trkpt>
      <trkpt lat="44.35534" lon="6.36716">
        <ele>1325.1999511719</ele>
        <time>2016-07-18T07:32:23.000Z</time>
      </trkpt>
      <trkpt lat="44.35529" lon="6.36726">
        <ele>1325.1999511719</ele>
        <time>2016-07-18T07:32:29.000Z</time>
      </trkpt>
      <trkpt lat="44.35523" lon="6.36741">
        <ele>1324.1999511719</ele>
        <time>2016-07-18T07:32:38.000Z</time>
      </trkpt>
      <trkpt lat="44.35517" lon="6.36757">
        <ele>1323.4000244141</ele>
        <time>2016-07-18T07:32:47.000Z</time>
      </trkpt>
      <trkpt lat="44.35511" lon="6.36776">
        <ele>1322.5999755859</ele>
        <time>2016-07-18T07:32:57.000Z</time>
      </trkpt>
      <trkpt lat="44.35508" lon="6.36788">
        <ele>1322</ele>
        <time>2016-07-18T07:33:03.000Z</time>
      </trkpt>
      <trkpt lat="44.35502" lon="6.36805">
        <ele>1321.8000488281</ele>
        <time>2016-07-18T07:33:12.000Z</time>
      </trkpt>
      <trkpt lat="44.35497" lon="6.36822">
        <ele>1321.4000244141</ele>
        <time>2016-07-18T07:33:21.000Z</time>
      </trkpt>
      <trkpt lat="44.35492" lon="6.36833">
        <ele>1320.5999755859</ele>
        <time>2016-07-18T07:33:27.000Z</time>
      </trkpt>
      <trkpt lat="44.35485" lon="6.36852">
        <ele>1319.5999755859</ele>
        <time>2016-07-18T07:33:37.000Z</time>
      </trkpt>
      <trkpt lat="44.35476" lon="6.36876">
        <ele>1320</ele>
        <time>2016-07-18T07:33:50.000Z</time>
      </trkpt>
      <trkpt lat="44.35472" lon="6.36889">
        <ele>1320.4000244141</ele>
        <time>2016-07-18T07:33:57.000Z</time>
      </trkpt>
      <trkpt lat="44.35466" lon="6.36912">
        <ele>1320.4000244141</ele>
        <time>2016-07-18T07:34:09.000Z</time>
      </trkpt>
      <trkpt lat="44.35461" lon="6.36935">
        <ele>1321.4000244141</ele>
        <time>2016-07-18T07:34:21.000Z</time>
      </trkpt>
      <trkpt lat="44.3546" lon="6.3695">
        <ele>1322.5999755859</ele>
        <time>2016-07-18T07:34:28.000Z</time>
      </trkpt>
      <trkpt lat="44.35461" lon="6.36971">
        <ele>1324.4000244141</ele>
        <time>2016-07-18T07:34:38.000Z</time>
      </trkpt>
      <trkpt lat="44.35463" lon="6.36984">
        <ele>1325.8000488281</ele>
        <time>2016-07-18T07:34:45.000Z</time>
      </trkpt>
      <trkpt lat="44.35463" lon="6.37008">
        <ele>1327.5999755859</ele>
        <time>2016-07-18T07:34:56.000Z</time>
      </trkpt>
      <trkpt lat="44.35458" lon="6.3702">
        <ele>1328</ele>
        <time>2016-07-18T07:35:03.000Z</time>
      </trkpt>
      <trkpt lat="44.3545" lon="6.37033">
        <ele>1328.1999511719</ele>
        <time>2016-07-18T07:35:11.000Z</time>
      </trkpt>
      <trkpt lat="44.35441" lon="6.37049">
        <ele>1328.1999511719</ele>
        <time>2016-07-18T07:35:21.000Z</time>
      </trkpt>
      <trkpt lat="44.35433" lon="6.37069">
        <ele>1329</ele>
        <time>2016-07-18T07:35:32.000Z</time>
      </trkpt>
      <trkpt lat="44.35427" lon="6.37091">
        <ele>1329.5999755859</ele>
        <time>2016-07-18T07:35:43.000Z</time>
      </trkpt>
      <trkpt lat="44.35408" lon="6.37138">
        <ele>1330</ele>
        <time>2016-07-18T07:36:10.000Z</time>
      </trkpt>
      <trkpt lat="44.35399" lon="6.37155">
        <ele>1329.8000488281</ele>
        <time>2016-07-18T07:36:20.000Z</time>
      </trkpt>
      <trkpt lat="44.3539" lon="6.37167">
        <ele>1329.1999511719</ele>
        <time>2016-07-18T07:36:29.000Z</time>
      </trkpt>
      <trkpt lat="44.3538" lon="6.3718">
        <ele>1329.4000244141</ele>
        <time>2016-07-18T07:36:39.000Z</time>
      </trkpt>
      <trkpt lat="44.35377" lon="6.37185">
        <ele>1329.5999755859</ele>
        <time>2016-07-18T07:36:44.000Z</time>
      </trkpt>
      <trkpt lat="44.35375" lon="6.37189">
        <ele>1330</ele>
        <time>2016-07-18T07:37:02.000Z</time>
      </trkpt>
      <trkpt lat="44.35364" lon="6.3721">
        <ele>1331.4000244141</ele>
        <time>2016-07-18T07:37:15.000Z</time>
      </trkpt>
      <trkpt lat="44.35356" lon="6.37229">
        <ele>1333</ele>
        <time>2016-07-18T07:37:26.000Z</time>
      </trkpt>
      <trkpt lat="44.35347" lon="6.37243">
        <ele>1333.8000488281</ele>
        <time>2016-07-18T07:37:35.000Z</time>
      </trkpt>
      <trkpt lat="44.35342" lon="6.37249">
        <ele>1334</ele>
        <time>2016-07-18T07:37:40.000Z</time>
      </trkpt>
      <trkpt lat="44.35334" lon="6.37248">
        <ele>1333.1999511719</ele>
        <time>2016-07-18T07:37:46.000Z</time>
      </trkpt>
      <trkpt lat="44.35328" lon="6.3725">
        <ele>1333</ele>
        <time>2016-07-18T07:37:53.000Z</time>
      </trkpt>
      <trkpt lat="44.35327" lon="6.37249">
        <ele>1332.8000488281</ele>
        <time>2016-07-18T07:38:08.000Z</time>
      </trkpt>
      <trkpt lat="44.3533" lon="6.37245">
        <ele>1332.5999755859</ele>
        <time>2016-07-18T07:38:13.000Z</time>
      </trkpt>
      <trkpt lat="44.35331" lon="6.37246">
        <ele>1332.8000488281</ele>
        <time>2016-07-18T07:38:14.000Z</time>
      </trkpt>
      <trkpt lat="44.35339" lon="6.3725">
        <ele>1333.8000488281</ele>
        <time>2016-07-18T07:38:20.000Z</time>
      </trkpt>
      <trkpt lat="44.35338" lon="6.37254">
        <ele>1334.1999511719</ele>
        <time>2016-07-18T07:38:24.000Z</time>
      </trkpt>
      <trkpt lat="44.35327" lon="6.37265">
        <ele>1334.5999755859</ele>
        <time>2016-07-18T07:38:33.000Z</time>
      </trkpt>
      <trkpt lat="44.35315" lon="6.37278">
        <ele>1335</ele>
        <time>2016-07-18T07:38:43.000Z</time>
      </trkpt>
      <trkpt lat="44.35295" lon="6.373">
        <ele>1335.5999755859</ele>
        <time>2016-07-18T07:39:01.000Z</time>
      </trkpt>
      <trkpt lat="44.35281" lon="6.37316">
        <ele>1336.1999511719</ele>
        <time>2016-07-18T07:39:12.000Z</time>
      </trkpt>
      <trkpt lat="44.3527" lon="6.3733">
        <ele>1336.8000488281</ele>
        <time>2016-07-18T07:39:22.000Z</time>
      </trkpt>
      <trkpt lat="44.35262" lon="6.37339">
        <ele>1337.4000244141</ele>
        <time>2016-07-18T07:39:29.000Z</time>
      </trkpt>
      <trkpt lat="44.35258" lon="6.37343">
        <ele>1337.4000244141</ele>
        <time>2016-07-18T07:39:32.000Z</time>
      </trkpt>
      <trkpt lat="44.35252" lon="6.3735">
        <ele>1337.5999755859</ele>
        <time>2016-07-18T07:39:37.000Z</time>
      </trkpt>
      <trkpt lat="44.35251" lon="6.3735">
        <ele>1337.5999755859</ele>
        <time>2016-07-18T07:39:38.000Z</time>
      </trkpt>
      <trkpt lat="44.35232" lon="6.37375">
        <ele>1338.4000244141</ele>
        <time>2016-07-18T07:39:55.000Z</time>
      </trkpt>
      <trkpt lat="44.3522" lon="6.3739">
        <ele>1338.4000244141</ele>
        <time>2016-07-18T07:40:06.000Z</time>
      </trkpt>
      <trkpt lat="44.35213" lon="6.37399">
        <ele>1338.5999755859</ele>
        <time>2016-07-18T07:40:13.000Z</time>
      </trkpt>
      <trkpt lat="44.35208" lon="6.37405">
        <ele>1338.4000244141</ele>
        <time>2016-07-18T07:40:17.000Z</time>
      </trkpt>
      <trkpt lat="44.35202" lon="6.37412">
        <ele>1338.5999755859</ele>
        <time>2016-07-18T07:40:22.000Z</time>
      </trkpt>
      <trkpt lat="44.35194" lon="6.37423">
        <ele>1339.4000244141</ele>
        <time>2016-07-18T07:40:30.000Z</time>
      </trkpt>
      <trkpt lat="44.35185" lon="6.37435">
        <ele>1340.4000244141</ele>
        <time>2016-07-18T07:40:39.000Z</time>
      </trkpt>
      <trkpt lat="44.35177" lon="6.37446">
        <ele>1341.4000244141</ele>
        <time>2016-07-18T07:40:47.000Z</time>
      </trkpt>
      <trkpt lat="44.35167" lon="6.3746">
        <ele>1342.4000244141</ele>
        <time>2016-07-18T07:40:57.000Z</time>
      </trkpt>
      <trkpt lat="44.35159" lon="6.3747">
        <ele>1342.8000488281</ele>
        <time>2016-07-18T07:41:04.000Z</time>
      </trkpt>
      <trkpt lat="44.3515" lon="6.37485">
        <ele>1343.4000244141</ele>
        <time>2016-07-18T07:41:14.000Z</time>
      </trkpt>
      <trkpt lat="44.35144" lon="6.37502">
        <ele>1343.4000244141</ele>
        <time>2016-07-18T07:41:24.000Z</time>
      </trkpt>
      <trkpt lat="44.35139" lon="6.37518">
        <ele>1343.8000488281</ele>
        <time>2016-07-18T07:41:33.000Z</time>
      </trkpt>
      <trkpt lat="44.35136" lon="6.3753">
        <ele>1344.4000244141</ele>
        <time>2016-07-18T07:41:40.000Z</time>
      </trkpt>
      <trkpt lat="44.3513" lon="6.37536">
        <ele>1344.5999755859</ele>
        <time>2016-07-18T07:41:45.000Z</time>
      </trkpt>
      <trkpt lat="44.35104" lon="6.37558">
        <ele>1345.8000488281</ele>
        <time>2016-07-18T07:42:06.000Z</time>
      </trkpt>
      <trkpt lat="44.35082" lon="6.37571">
        <ele>1345.8000488281</ele>
        <time>2016-07-18T07:42:23.000Z</time>
      </trkpt>
      <trkpt lat="44.35071" lon="6.37583">
        <ele>1346.1999511719</ele>
        <time>2016-07-18T07:42:33.000Z</time>
      </trkpt>
      <trkpt lat="44.35064" lon="6.37597">
        <ele>1346.5999755859</ele>
        <time>2016-07-18T07:42:42.000Z</time>
      </trkpt>
      <trkpt lat="44.3506" lon="6.37612">
        <ele>1346.5999755859</ele>
        <time>2016-07-18T07:42:50.000Z</time>
      </trkpt>
      <trkpt lat="44.35059" lon="6.37625">
        <ele>1346.8000488281</ele>
        <time>2016-07-18T07:42:56.000Z</time>
      </trkpt>
      <trkpt lat="44.35056" lon="6.37651">
        <ele>1346.8000488281</ele>
        <time>2016-07-18T07:43:09.000Z</time>
      </trkpt>
      <trkpt lat="44.35056" lon="6.37665">
        <ele>1346.8000488281</ele>
        <time>2016-07-18T07:43:17.000Z</time>
      </trkpt>
      <trkpt lat="44.35054" lon="6.37675">
        <ele>1346.8000488281</ele>
        <time>2016-07-18T07:43:22.000Z</time>
      </trkpt>
      <trkpt lat="44.35052" lon="6.37686">
        <ele>1346.8000488281</ele>
        <time>2016-07-18T07:43:28.000Z</time>
      </trkpt>
      <trkpt lat="44.35049" lon="6.37703">
        <ele>1346.5999755859</ele>
        <time>2016-07-18T07:43:37.000Z</time>
      </trkpt>
      <trkpt lat="44.35047" lon="6.37723">
        <ele>1346.5999755859</ele>
        <time>2016-07-18T07:43:47.000Z</time>
      </trkpt>
      <trkpt lat="44.35044" lon="6.37747">
        <ele>1346.8000488281</ele>
        <time>2016-07-18T07:44:00.000Z</time>
      </trkpt>
      <trkpt lat="44.35042" lon="6.37757">
        <ele>1346.5999755859</ele>
        <time>2016-07-18T07:44:07.000Z</time>
      </trkpt>
      <trkpt lat="44.35038" lon="6.37779">
        <ele>1346.4000244141</ele>
        <time>2016-07-18T07:44:19.000Z</time>
      </trkpt>
      <trkpt lat="44.35034" lon="6.37802">
        <ele>1346.1999511719</ele>
        <time>2016-07-18T07:44:31.000Z</time>
      </trkpt>
      <trkpt lat="44.35033" lon="6.37808">
        <ele>1346.1999511719</ele>
        <time>2016-07-18T07:44:37.000Z</time>
      </trkpt>
      <trkpt lat="44.35031" lon="6.37817">
        <ele>1346</ele>
        <time>2016-07-18T07:44:50.000Z</time>
      </trkpt>
      <trkpt lat="44.3503" lon="6.37836">
        <ele>1346.4000244141</ele>
        <time>2016-07-18T07:45:00.000Z</time>
      </trkpt>
      <trkpt lat="44.35029" lon="6.37847">
        <ele>1346.5999755859</ele>
        <time>2016-07-18T07:45:06.000Z</time>
      </trkpt>
      <trkpt lat="44.35027" lon="6.37862">
        <ele>1346.8000488281</ele>
        <time>2016-07-18T07:45:14.000Z</time>
      </trkpt>
      <trkpt lat="44.35023" lon="6.37881">
        <ele>1347.1999511719</ele>
        <time>2016-07-18T07:45:24.000Z</time>
      </trkpt>
      <trkpt lat="44.35022" lon="6.37894">
        <ele>1347.4000244141</ele>
        <time>2016-07-18T07:45:31.000Z</time>
      </trkpt>
      <trkpt lat="44.35018" lon="6.37911">
        <ele>1348.4000244141</ele>
        <time>2016-07-18T07:45:40.000Z</time>
      </trkpt>
      <trkpt lat="44.35017" lon="6.37923">
        <ele>1349.5999755859</ele>
        <time>2016-07-18T07:45:47.000Z</time>
      </trkpt>
      <trkpt lat="44.35014" lon="6.37957">
        <ele>1352.5999755859</ele>
        <time>2016-07-18T07:46:05.000Z</time>
      </trkpt>
      <trkpt lat="44.3501" lon="6.37967">
        <ele>1353.4000244141</ele>
        <time>2016-07-18T07:46:12.000Z</time>
      </trkpt>
      <trkpt lat="44.35008" lon="6.37977">
        <ele>1354.4000244141</ele>
        <time>2016-07-18T07:46:18.000Z</time>
      </trkpt>
      <trkpt lat="44.35008" lon="6.37993">
        <ele>1355.4000244141</ele>
        <time>2016-07-18T07:46:26.000Z</time>
      </trkpt>
      <trkpt lat="44.35008" lon="6.38005">
        <ele>1355.8000488281</ele>
        <time>2016-07-18T07:46:33.000Z</time>
      </trkpt>
      <trkpt lat="44.35009" lon="6.38023">
        <ele>1356.4000244141</ele>
        <time>2016-07-18T07:46:42.000Z</time>
      </trkpt>
      <trkpt lat="44.35004" lon="6.38035">
        <ele>1356.5999755859</ele>
        <time>2016-07-18T07:46:50.000Z</time>
      </trkpt>
      <trkpt lat="44.34997" lon="6.38044">
        <ele>1356.5999755859</ele>
        <time>2016-07-18T07:46:58.000Z</time>
      </trkpt>
      <trkpt lat="44.34989" lon="6.38055">
        <ele>1356.5999755859</ele>
        <time>2016-07-18T07:47:06.000Z</time>
      </trkpt>
      <trkpt lat="44.34986" lon="6.38058">
        <ele>1356.5999755859</ele>
        <time>2016-07-18T07:47:08.000Z</time>
      </trkpt>
      <trkpt lat="44.34982" lon="6.38064">
        <ele>1356.5999755859</ele>
        <time>2016-07-18T07:47:12.000Z</time>
      </trkpt>
      <trkpt lat="44.34978" lon="6.38076">
        <ele>1356.4000244141</ele>
        <time>2016-07-18T07:47:19.000Z</time>
      </trkpt>
      <trkpt lat="44.34978" lon="6.38078">
        <ele>1356.1999511719</ele>
        <time>2016-07-18T07:47:20.000Z</time>
      </trkpt>
      <trkpt lat="44.34971" lon="6.38093">
        <ele>1355.8000488281</ele>
        <time>2016-07-18T07:47:29.000Z</time>
      </trkpt>
      <trkpt lat="44.34963" lon="6.38108">
        <ele>1354.8000488281</ele>
        <time>2016-07-18T07:47:39.000Z</time>
      </trkpt>
      <trkpt lat="44.34956" lon="6.38118">
        <ele>1354.1999511719</ele>
        <time>2016-07-18T07:47:46.000Z</time>
      </trkpt>
      <trkpt lat="44.34943" lon="6.38135">
        <ele>1352.8000488281</ele>
        <time>2016-07-18T07:47:59.000Z</time>
      </trkpt>
      <trkpt lat="44.34938" lon="6.38151">
        <ele>1352.4000244141</ele>
        <time>2016-07-18T07:48:08.000Z</time>
      </trkpt>
      <trkpt lat="44.34934" lon="6.38164">
        <ele>1352.1999511719</ele>
        <time>2016-07-18T07:48:15.000Z</time>
      </trkpt>
      <trkpt lat="44.3493" lon="6.38182">
        <ele>1352</ele>
        <time>2016-07-18T07:48:25.000Z</time>
      </trkpt>
      <trkpt lat="44.34927" lon="6.38203">
        <ele>1351.8000488281</ele>
        <time>2016-07-18T07:48:36.000Z</time>
      </trkpt>
      <trkpt lat="44.34925" lon="6.38219">
        <ele>1351.5999755859</ele>
        <time>2016-07-18T07:48:45.000Z</time>
      </trkpt>
      <trkpt lat="44.34923" lon="6.38236">
        <ele>1351.4000244141</ele>
        <time>2016-07-18T07:48:54.000Z</time>
      </trkpt>
      <trkpt lat="44.34924" lon="6.38255">
        <ele>1352.1999511719</ele>
        <time>2016-07-18T07:49:05.000Z</time>
      </trkpt>
      <trkpt lat="44.34925" lon="6.38264">
        <ele>1352.5999755859</ele>
        <time>2016-07-18T07:49:10.000Z</time>
      </trkpt>
      <trkpt lat="44.34924" lon="6.38279">
        <ele>1353</ele>
        <time>2016-07-18T07:49:19.000Z</time>
      </trkpt>
      <trkpt lat="44.34921" lon="6.38292">
        <ele>1353.1999511719</ele>
        <time>2016-07-18T07:49:27.000Z</time>
      </trkpt>
      <trkpt lat="44.34917" lon="6.38307">
        <ele>1352.4000244141</ele>
        <time>2016-07-18T07:49:36.000Z</time>
      </trkpt>
      <trkpt lat="44.34913" lon="6.38323">
        <ele>1352.4000244141</ele>
        <time>2016-07-18T07:49:45.000Z</time>
      </trkpt>
      <trkpt lat="44.34911" lon="6.38339">
        <ele>1353</ele>
        <time>2016-07-18T07:49:54.000Z</time>
      </trkpt>
      <trkpt lat="44.34907" lon="6.38351">
        <ele>1353.4000244141</ele>
        <time>2016-07-18T07:50:01.000Z</time>
      </trkpt>
      <trkpt lat="44.34903" lon="6.38359">
        <ele>1353.4000244141</ele>
        <time>2016-07-18T07:50:06.000Z</time>
      </trkpt>
      <trkpt lat="44.34897" lon="6.38371">
        <ele>1353.5999755859</ele>
        <time>2016-07-18T07:50:13.000Z</time>
      </trkpt>
      <trkpt lat="44.34892" lon="6.38382">
        <ele>1353.8000488281</ele>
        <time>2016-07-18T07:50:20.000Z</time>
      </trkpt>
      <trkpt lat="44.34886" lon="6.38395">
        <ele>1354.1999511719</ele>
        <time>2016-07-18T07:50:28.000Z</time>
      </trkpt>
      <trkpt lat="44.34882" lon="6.38404">
        <ele>1354.1999511719</ele>
        <time>2016-07-18T07:50:34.000Z</time>
      </trkpt>
      <trkpt lat="44.34875" lon="6.38416">
        <ele>1354.4000244141</ele>
        <time>2016-07-18T07:50:42.000Z</time>
      </trkpt>
      <trkpt lat="44.34869" lon="6.38429">
        <ele>1354.4000244141</ele>
        <time>2016-07-18T07:50:50.000Z</time>
      </trkpt>
      <trkpt lat="44.34863" lon="6.38456">
        <ele>1355.4000244141</ele>
        <time>2016-07-18T07:51:06.000Z</time>
      </trkpt>
      <trkpt lat="44.34864" lon="6.38477">
        <ele>1356.8000488281</ele>
        <time>2016-07-18T07:51:16.000Z</time>
      </trkpt>
      <trkpt lat="44.34866" lon="6.38485">
        <ele>1357.4000244141</ele>
        <time>2016-07-18T07:51:20.000Z</time>
      </trkpt>
      <trkpt lat="44.34866" lon="6.38491">
        <ele>1357.8000488281</ele>
        <time>2016-07-18T07:51:23.000Z</time>
      </trkpt>
      <trkpt lat="44.34867" lon="6.38498">
        <ele>1358.1999511719</ele>
        <time>2016-07-18T07:51:27.000Z</time>
      </trkpt>
      <trkpt lat="44.34866" lon="6.38501">
        <ele>1358.4000244141</ele>
        <time>2016-07-18T07:51:32.000Z</time>
      </trkpt>
      <trkpt lat="44.34863" lon="6.38507">
        <ele>1358.4000244141</ele>
        <time>2016-07-18T07:51:38.000Z</time>
      </trkpt>
      <trkpt lat="44.34862" lon="6.38508">
        <ele>1358.4000244141</ele>
        <time>2016-07-18T07:51:48.000Z</time>
      </trkpt>
      <trkpt lat="44.3486" lon="6.38507">
        <ele>1358</ele>
        <time>2016-07-18T07:51:56.000Z</time>
      </trkpt>
      <trkpt lat="44.34865" lon="6.38502">
        <ele>1358.4000244141</ele>
        <time>2016-07-18T07:52:01.000Z</time>
      </trkpt>
      <trkpt lat="44.3487" lon="6.38506">
        <ele>1359</ele>
        <time>2016-07-18T07:52:06.000Z</time>
      </trkpt>
      <trkpt lat="44.34875" lon="6.38517">
        <ele>1360.1999511719</ele>
        <time>2016-07-18T07:52:13.000Z</time>
      </trkpt>
      <trkpt lat="44.34879" lon="6.38527">
        <ele>1361.1999511719</ele>
        <time>2016-07-18T07:52:19.000Z</time>
      </trkpt>
      <trkpt lat="44.34885" lon="6.3854">
        <ele>1362.4000244141</ele>
        <time>2016-07-18T07:52:27.000Z</time>
      </trkpt>
      <trkpt lat="44.34889" lon="6.38548">
        <ele>1363.4000244141</ele>
        <time>2016-07-18T07:52:33.000Z</time>
      </trkpt>
      <trkpt lat="44.34895" lon="6.38559">
        <ele>1364.5999755859</ele>
        <time>2016-07-18T07:52:42.000Z</time>
      </trkpt>
      <trkpt lat="44.349" lon="6.38571">
        <ele>1365.5999755859</ele>
        <time>2016-07-18T07:52:50.000Z</time>
      </trkpt>
      <trkpt lat="44.34904" lon="6.38583">
        <ele>1366.1999511719</ele>
        <time>2016-07-18T07:52:58.000Z</time>
      </trkpt>
      <trkpt lat="44.3491" lon="6.38592">
        <ele>1367</ele>
        <time>2016-07-18T07:53:06.000Z</time>
      </trkpt>
      <trkpt lat="44.34919" lon="6.38599">
        <ele>1368</ele>
        <time>2016-07-18T07:53:14.000Z</time>
      </trkpt>
      <trkpt lat="44.34925" lon="6.38604">
        <ele>1368.8000488281</ele>
        <time>2016-07-18T07:53:21.000Z</time>
      </trkpt>
      <trkpt lat="44.34931" lon="6.38608">
        <ele>1369.5999755859</ele>
        <time>2016-07-18T07:53:28.000Z</time>
      </trkpt>
      <trkpt lat="44.34937" lon="6.38612">
        <ele>1370</ele>
        <time>2016-07-18T07:53:34.000Z</time>
      </trkpt>
      <trkpt lat="44.34946" lon="6.38618">
        <ele>1371.1999511719</ele>
        <time>2016-07-18T07:53:42.000Z</time>
      </trkpt>
      <trkpt lat="44.34956" lon="6.38623">
        <ele>1372.5999755859</ele>
        <time>2016-07-18T07:53:51.000Z</time>
      </trkpt>
      <trkpt lat="44.34962" lon="6.38626">
        <ele>1373.5999755859</ele>
        <time>2016-07-18T07:53:56.000Z</time>
      </trkpt>
      <trkpt lat="44.3497" lon="6.38631">
        <ele>1374.8000488281</ele>
        <time>2016-07-18T07:54:03.000Z</time>
      </trkpt>
      <trkpt lat="44.34979" lon="6.38638">
        <ele>1376.1999511719</ele>
        <time>2016-07-18T07:54:11.000Z</time>
      </trkpt>
      <trkpt lat="44.34988" lon="6.38646">
        <ele>1377.8000488281</ele>
        <time>2016-07-18T07:54:20.000Z</time>
      </trkpt>
      <trkpt lat="44.34993" lon="6.38651">
        <ele>1378.5999755859</ele>
        <time>2016-07-18T07:54:25.000Z</time>
      </trkpt>
      <trkpt lat="44.34997" lon="6.38654">
        <ele>1379.1999511719</ele>
        <time>2016-07-18T07:54:29.000Z</time>
      </trkpt>
      <trkpt lat="44.35006" lon="6.38664">
        <ele>1380.8000488281</ele>
        <time>2016-07-18T07:54:39.000Z</time>
      </trkpt>
      <trkpt lat="44.35012" lon="6.38672">
        <ele>1381.8000488281</ele>
        <time>2016-07-18T07:54:46.000Z</time>
      </trkpt>
      <trkpt lat="44.3502" lon="6.38688">
        <ele>1383.4000244141</ele>
        <time>2016-07-18T07:54:58.000Z</time>
      </trkpt>
      <trkpt lat="44.35028" lon="6.38702">
        <ele>1384.8000488281</ele>
        <time>2016-07-18T07:55:08.000Z</time>
      </trkpt>
      <trkpt lat="44.35029" lon="6.38704">
        <ele>1385</ele>
        <time>2016-07-18T07:55:09.000Z</time>
      </trkpt>
      <trkpt lat="44.35029" lon="6.38709">
        <ele>1385.1999511719</ele>
        <time>2016-07-18T07:55:13.000Z</time>
      </trkpt>
      <trkpt lat="44.35029" lon="6.3872">
        <ele>1385.5999755859</ele>
        <time>2016-07-18T07:55:20.000Z</time>
      </trkpt>
      <trkpt lat="44.3503" lon="6.38721">
        <ele>1385.5999755859</ele>
        <time>2016-07-18T07:55:21.000Z</time>
      </trkpt>
      <trkpt lat="44.35031" lon="6.38727">
        <ele>1386</ele>
        <time>2016-07-18T07:55:24.000Z</time>
      </trkpt>
      <trkpt lat="44.35032" lon="6.38742">
        <ele>1387.1999511719</ele>
        <time>2016-07-18T07:55:33.000Z</time>
      </trkpt>
      <trkpt lat="44.35033" lon="6.38755">
        <ele>1388.1999511719</ele>
        <time>2016-07-18T07:55:41.000Z</time>
      </trkpt>
      <trkpt lat="44.35034" lon="6.38762">
        <ele>1388.8000488281</ele>
        <time>2016-07-18T07:55:45.000Z</time>
      </trkpt>
      <trkpt lat="44.35034" lon="6.38781">
        <ele>1390.4000244141</ele>
        <time>2016-07-18T07:55:57.000Z</time>
      </trkpt>
      <trkpt lat="44.35035" lon="6.38784">
        <ele>1390.5999755859</ele>
        <time>2016-07-18T07:55:59.000Z</time>
      </trkpt>
      <trkpt lat="44.35035" lon="6.38786">
        <ele>1390.8000488281</ele>
        <time>2016-07-18T07:56:01.000Z</time>
      </trkpt>
      <trkpt lat="44.35034" lon="6.38793">
        <ele>1391</ele>
        <time>2016-07-18T07:56:05.000Z</time>
      </trkpt>
      <trkpt lat="44.35033" lon="6.38803">
        <ele>1391.5999755859</ele>
        <time>2016-07-18T07:56:12.000Z</time>
      </trkpt>
      <trkpt lat="44.35032" lon="6.38806">
        <ele>1391.8000488281</ele>
        <time>2016-07-18T07:56:14.000Z</time>
      </trkpt>
      <trkpt lat="44.3503" lon="6.38815">
        <ele>1392</ele>
        <time>2016-07-18T07:56:19.000Z</time>
      </trkpt>
      <trkpt lat="44.35027" lon="6.38831">
        <ele>1393.4000244141</ele>
        <time>2016-07-18T07:56:27.000Z</time>
      </trkpt>
      <trkpt lat="44.35025" lon="6.38838">
        <ele>1394</ele>
        <time>2016-07-18T07:56:31.000Z</time>
      </trkpt>
      <trkpt lat="44.35019" lon="6.38853">
        <ele>1395</ele>
        <time>2016-07-18T07:56:40.000Z</time>
      </trkpt>
      <trkpt lat="44.35015" lon="6.38863">
        <ele>1395.4000244141</ele>
        <time>2016-07-18T07:56:46.000Z</time>
      </trkpt>
      <trkpt lat="44.35012" lon="6.38871">
        <ele>1395.8000488281</ele>
        <time>2016-07-18T07:56:51.000Z</time>
      </trkpt>
      <trkpt lat="44.35007" lon="6.38884">
        <ele>1396.4000244141</ele>
        <time>2016-07-18T07:56:58.000Z</time>
      </trkpt>
      <trkpt lat="44.35003" lon="6.38895">
        <ele>1396.1999511719</ele>
        <time>2016-07-18T07:57:04.000Z</time>
      </trkpt>
      <trkpt lat="44.35001" lon="6.38904">
        <ele>1397</ele>
        <time>2016-07-18T07:57:09.000Z</time>
      </trkpt>
      <trkpt lat="44.35" lon="6.38905">
        <ele>1397.1999511719</ele>
        <time>2016-07-18T07:57:10.000Z</time>
      </trkpt>
      <trkpt lat="44.34997" lon="6.3891">
        <ele>1397.5999755859</ele>
        <time>2016-07-18T07:57:13.000Z</time>
      </trkpt>
      <trkpt lat="44.34993" lon="6.38922">
        <ele>1399.4000244141</ele>
        <time>2016-07-18T07:57:20.000Z</time>
      </trkpt>
      <trkpt lat="44.34989" lon="6.38934">
        <ele>1401.1999511719</ele>
        <time>2016-07-18T07:57:27.000Z</time>
      </trkpt>
      <trkpt lat="44.34985" lon="6.38945">
        <ele>1402.5999755859</ele>
        <time>2016-07-18T07:57:34.000Z</time>
      </trkpt>
      <trkpt lat="44.34981" lon="6.38956">
        <ele>1403.5999755859</ele>
        <time>2016-07-18T07:57:41.000Z</time>
      </trkpt>
      <trkpt lat="44.34976" lon="6.38971">
        <ele>1405.1999511719</ele>
        <time>2016-07-18T07:57:50.000Z</time>
      </trkpt>
      <trkpt lat="44.34972" lon="6.38985">
        <ele>1406.8000488281</ele>
        <time>2016-07-18T07:57:58.000Z</time>
      </trkpt>
      <trkpt lat="44.34968" lon="6.39003">
        <ele>1407.5999755859</ele>
        <time>2016-07-18T07:58:08.000Z</time>
      </trkpt>
      <trkpt lat="44.34966" lon="6.39012">
        <ele>1407.8000488281</ele>
        <time>2016-07-18T07:58:13.000Z</time>
      </trkpt>
      <trkpt lat="44.34965" lon="6.39025">
        <ele>1408.8000488281</ele>
        <time>2016-07-18T07:58:20.000Z</time>
      </trkpt>
      <trkpt lat="44.34964" lon="6.39038">
        <ele>1409.5999755859</ele>
        <time>2016-07-18T07:58:27.000Z</time>
      </trkpt>
      <trkpt lat="44.34964" lon="6.39051">
        <ele>1410.5999755859</ele>
        <time>2016-07-18T07:58:34.000Z</time>
      </trkpt>
      <trkpt lat="44.34967" lon="6.39065">
        <ele>1412.5999755859</ele>
        <time>2016-07-18T07:58:42.000Z</time>
      </trkpt>
      <trkpt lat="44.34971" lon="6.39073">
        <ele>1414.4000244141</ele>
        <time>2016-07-18T07:58:51.000Z</time>
      </trkpt>
      <trkpt lat="44.34973" lon="6.39078">
        <ele>1415.4000244141</ele>
        <time>2016-07-18T07:59:02.000Z</time>
      </trkpt>
      <trkpt lat="44.34978" lon="6.39089">
        <ele>1417.8000488281</ele>
        <time>2016-07-18T07:59:09.000Z</time>
      </trkpt>
      <trkpt lat="44.34978" lon="6.39091">
        <ele>1417.8000488281</ele>
        <time>2016-07-18T07:59:10.000Z</time>
      </trkpt>
      <trkpt lat="44.34978" lon="6.39097">
        <ele>1418.4000244141</ele>
        <time>2016-07-18T07:59:14.000Z</time>
      </trkpt>
      <trkpt lat="44.34978" lon="6.39113">
        <ele>1419.1999511719</ele>
        <time>2016-07-18T07:59:24.000Z</time>
      </trkpt>
      <trkpt lat="44.34976" lon="6.39126">
        <ele>1419.1999511719</ele>
        <time>2016-07-18T07:59:33.000Z</time>
      </trkpt>
      <trkpt lat="44.34975" lon="6.39136">
        <ele>1419.1999511719</ele>
        <time>2016-07-18T07:59:39.000Z</time>
      </trkpt>
      <trkpt lat="44.34975" lon="6.39141">
        <ele>1419.4000244141</ele>
        <time>2016-07-18T07:59:42.000Z</time>
      </trkpt>
      <trkpt lat="44.34982" lon="6.39161">
        <ele>1423</ele>
        <time>2016-07-18T08:00:00.000Z</time>
      </trkpt>
      <trkpt lat="44.34984" lon="6.39168">
        <ele>1424</ele>
        <time>2016-07-18T08:00:05.000Z</time>
      </trkpt>
      <trkpt lat="44.34988" lon="6.39174">
        <ele>1425.5999755859</ele>
        <time>2016-07-18T08:00:10.000Z</time>
      </trkpt>
      <trkpt lat="44.34992" lon="6.39183">
        <ele>1427.4000244141</ele>
        <time>2016-07-18T08:00:18.000Z</time>
      </trkpt>
      <trkpt lat="44.34995" lon="6.3919">
        <ele>1429</ele>
        <time>2016-07-18T08:00:24.000Z</time>
      </trkpt>
      <trkpt lat="44.35001" lon="6.39188">
        <ele>1430.8000488281</ele>
        <time>2016-07-18T08:00:29.000Z</time>
      </trkpt>
      <trkpt lat="44.35002" lon="6.39188">
        <ele>1431</ele>
        <time>2016-07-18T08:00:30.000Z</time>
      </trkpt>
      <trkpt lat="44.3501" lon="6.39182">
        <ele>1433.1999511719</ele>
        <time>2016-07-18T08:00:38.000Z</time>
      </trkpt>
      <trkpt lat="44.35015" lon="6.39178">
        <ele>1434.8000488281</ele>
        <time>2016-07-18T08:00:44.000Z</time>
      </trkpt>
      <trkpt lat="44.35025" lon="6.39173">
        <ele>1437.5999755859</ele>
        <time>2016-07-18T08:00:52.000Z</time>
      </trkpt>
      <trkpt lat="44.35026" lon="6.39172">
        <ele>1437.8000488281</ele>
        <time>2016-07-18T08:00:53.000Z</time>
      </trkpt>
      <trkpt lat="44.35032" lon="6.39168">
        <ele>1439.5999755859</ele>
        <time>2016-07-18T08:01:00.000Z</time>
      </trkpt>
      <trkpt lat="44.35033" lon="6.39167">
        <ele>1439.8000488281</ele>
        <time>2016-07-18T08:01:01.000Z</time>
      </trkpt>
      <trkpt lat="44.35036" lon="6.39165">
        <ele>1440.5999755859</ele>
        <time>2016-07-18T08:01:04.000Z</time>
      </trkpt>
      <trkpt lat="44.35042" lon="6.39161">
        <ele>1442.1999511719</ele>
        <time>2016-07-18T08:01:10.000Z</time>
      </trkpt>
      <trkpt lat="44.35044" lon="6.3916">
        <ele>1442.5999755859</ele>
        <time>2016-07-18T08:01:12.000Z</time>
      </trkpt>
      <trkpt lat="44.35048" lon="6.39158">
        <ele>1443.1999511719</ele>
        <time>2016-07-18T08:01:18.000Z</time>
      </trkpt>
      <trkpt lat="44.35049" lon="6.39164">
        <ele>1444.4000244141</ele>
        <time>2016-07-18T08:01:22.000Z</time>
      </trkpt>
      <trkpt lat="44.35049" lon="6.39171">
        <ele>1445</ele>
        <time>2016-07-18T08:01:26.000Z</time>
      </trkpt>
      <trkpt lat="44.35048" lon="6.39179">
        <ele>1445</ele>
        <time>2016-07-18T08:01:32.000Z</time>
      </trkpt>
      <trkpt lat="44.35048" lon="6.39181">
        <ele>1445</ele>
        <time>2016-07-18T08:01:33.000Z</time>
      </trkpt>
      <trkpt lat="44.35046" lon="6.39188">
        <ele>1445</ele>
        <time>2016-07-18T08:01:37.000Z</time>
      </trkpt>
      <trkpt lat="44.35045" lon="6.39193">
        <ele>1445</ele>
        <time>2016-07-18T08:01:41.000Z</time>
      </trkpt>
      <trkpt lat="44.35044" lon="6.39201">
        <ele>1445</ele>
        <time>2016-07-18T08:01:47.000Z</time>
      </trkpt>
      <trkpt lat="44.35042" lon="6.39204">
        <ele>1444.8000488281</ele>
        <time>2016-07-18T08:01:49.000Z</time>
      </trkpt>
      <trkpt lat="44.35045" lon="6.39236">
        <ele>1447.8000488281</ele>
        <time>2016-07-18T08:02:07.000Z</time>
      </trkpt>
      <trkpt lat="44.35051" lon="6.3925">
        <ele>1451</ele>
        <time>2016-07-18T08:02:16.000Z</time>
      </trkpt>
      <trkpt lat="44.35055" lon="6.39262">
        <ele>1453.4000244141</ele>
        <time>2016-07-18T08:02:24.000Z</time>
      </trkpt>
      <trkpt lat="44.35057" lon="6.39273">
        <ele>1455</ele>
        <time>2016-07-18T08:02:31.000Z</time>
      </trkpt>
      <trkpt lat="44.35058" lon="6.3928">
        <ele>1456</ele>
        <time>2016-07-18T08:02:37.000Z</time>
      </trkpt>
      <trkpt lat="44.3506" lon="6.3929">
        <ele>1457.4000244141</ele>
        <time>2016-07-18T08:02:43.000Z</time>
      </trkpt>
      <trkpt lat="44.3506" lon="6.39296">
        <ele>1458</ele>
        <time>2016-07-18T08:02:46.000Z</time>
      </trkpt>
      <trkpt lat="44.35062" lon="6.39312">
        <ele>1460</ele>
        <time>2016-07-18T08:02:56.000Z</time>
      </trkpt>
      <trkpt lat="44.35065" lon="6.3933">
        <ele>1462</ele>
        <time>2016-07-18T08:03:08.000Z</time>
      </trkpt>
      <trkpt lat="44.35066" lon="6.39332">
        <ele>1462.4000244141</ele>
        <time>2016-07-18T08:03:14.000Z</time>
      </trkpt>
      <trkpt lat="44.35067" lon="6.39333">
        <ele>1462.8000488281</ele>
        <time>2016-07-18T08:03:24.000Z</time>
      </trkpt>
      <trkpt lat="44.35069" lon="6.39336">
        <ele>1463.5999755859</ele>
        <time>2016-07-18T08:03:48.000Z</time>
      </trkpt>
      <trkpt lat="44.35072" lon="6.39331">
        <ele>1464.1999511719</ele>
        <time>2016-07-18T08:04:13.000Z</time>
      </trkpt>
      <trkpt lat="44.35076" lon="6.39323">
        <ele>1465</ele>
        <time>2016-07-18T08:04:19.000Z</time>
      </trkpt>
      <trkpt lat="44.35079" lon="6.3931">
        <ele>1465.4000244141</ele>
        <time>2016-07-18T08:04:27.000Z</time>
      </trkpt>
      <trkpt lat="44.35082" lon="6.393">
        <ele>1465.1999511719</ele>
        <time>2016-07-18T08:04:33.000Z</time>
      </trkpt>
      <trkpt lat="44.35084" lon="6.39285">
        <ele>1464.8000488281</ele>
        <time>2016-07-18T08:04:41.000Z</time>
      </trkpt>
      <trkpt lat="44.3509" lon="6.39268">
        <ele>1464.5999755859</ele>
        <time>2016-07-18T08:04:51.000Z</time>
      </trkpt>
      <trkpt lat="44.35099" lon="6.39255">
        <ele>1466</ele>
        <time>2016-07-18T08:05:01.000Z</time>
      </trkpt>
      <trkpt lat="44.35109" lon="6.39249">
        <ele>1468.4000244141</ele>
        <time>2016-07-18T08:05:10.000Z</time>
      </trkpt>
      <trkpt lat="44.35111" lon="6.39255">
        <ele>1469.4000244141</ele>
        <time>2016-07-18T08:05:16.000Z</time>
      </trkpt>
      <trkpt lat="44.35109" lon="6.39258">
        <ele>1469.4000244141</ele>
        <time>2016-07-18T08:05:19.000Z</time>
      </trkpt>
      <trkpt lat="44.35105" lon="6.39267">
        <ele>1469</ele>
        <time>2016-07-18T08:05:25.000Z</time>
      </trkpt>
      <trkpt lat="44.35102" lon="6.39272">
        <ele>1468.8000488281</ele>
        <time>2016-07-18T08:05:29.000Z</time>
      </trkpt>
      <trkpt lat="44.35102" lon="6.39282">
        <ele>1470</ele>
        <time>2016-07-18T08:05:34.000Z</time>
      </trkpt>
      <trkpt lat="44.35102" lon="6.39289">
        <ele>1470.5999755859</ele>
        <time>2016-07-18T08:05:38.000Z</time>
      </trkpt>
      <trkpt lat="44.35105" lon="6.39304">
        <ele>1473</ele>
        <time>2016-07-18T08:05:47.000Z</time>
      </trkpt>
      <trkpt lat="44.35109" lon="6.39319">
        <ele>1475.4000244141</ele>
        <time>2016-07-18T08:05:56.000Z</time>
      </trkpt>
      <trkpt lat="44.35112" lon="6.39329">
        <ele>1477</ele>
        <time>2016-07-18T08:06:02.000Z</time>
      </trkpt>
      <trkpt lat="44.35113" lon="6.39336">
        <ele>1477.8000488281</ele>
        <time>2016-07-18T08:06:07.000Z</time>
      </trkpt>
      <trkpt lat="44.35116" lon="6.39348">
        <ele>1479.4000244141</ele>
        <time>2016-07-18T08:06:15.000Z</time>
      </trkpt>
      <trkpt lat="44.35119" lon="6.39362">
        <ele>1481.1999511719</ele>
        <time>2016-07-18T08:06:24.000Z</time>
      </trkpt>
      <trkpt lat="44.35121" lon="6.39373">
        <ele>1482.4000244141</ele>
        <time>2016-07-18T08:06:31.000Z</time>
      </trkpt>
      <trkpt lat="44.35121" lon="6.39378">
        <ele>1483</ele>
        <time>2016-07-18T08:06:36.000Z</time>
      </trkpt>
      <trkpt lat="44.35125" lon="6.3938">
        <ele>1484.1999511719</ele>
        <time>2016-07-18T08:06:42.000Z</time>
      </trkpt>
      <trkpt lat="44.35128" lon="6.3938">
        <ele>1485</ele>
        <time>2016-07-18T08:06:46.000Z</time>
      </trkpt>
      <trkpt lat="44.35134" lon="6.3938">
        <ele>1486.8000488281</ele>
        <time>2016-07-18T08:06:51.000Z</time>
      </trkpt>
      <trkpt lat="44.35144" lon="6.39382">
        <ele>1490.1999511719</ele>
        <time>2016-07-18T08:07:00.000Z</time>
      </trkpt>
      <trkpt lat="44.35152" lon="6.39384">
        <ele>1492.4000244141</ele>
        <time>2016-07-18T08:07:07.000Z</time>
      </trkpt>
      <trkpt lat="44.3516" lon="6.39385">
        <ele>1494.8000488281</ele>
        <time>2016-07-18T08:07:13.000Z</time>
      </trkpt>
      <trkpt lat="44.3517" lon="6.39386">
        <ele>1497.8000488281</ele>
        <time>2016-07-18T08:07:21.000Z</time>
      </trkpt>
      <trkpt lat="44.3518" lon="6.39391">
        <ele>1501.1999511719</ele>
        <time>2016-07-18T08:07:30.000Z</time>
      </trkpt>
      <trkpt lat="44.35193" lon="6.39395">
        <ele>1505.5999755859</ele>
        <time>2016-07-18T08:07:38.000Z</time>
      </trkpt>
      <trkpt lat="44.35204" lon="6.39395">
        <ele>1507.5999755859</ele>
        <time>2016-07-18T08:07:46.000Z</time>
      </trkpt>
      <trkpt lat="44.35214" lon="6.39397">
        <ele>1509.4000244141</ele>
        <time>2016-07-18T08:07:54.000Z</time>
      </trkpt>
      <trkpt lat="44.35225" lon="6.39405">
        <ele>1511.5999755859</ele>
        <time>2016-07-18T08:08:03.000Z</time>
      </trkpt>
      <trkpt lat="44.35233" lon="6.39415">
        <ele>1513.4000244141</ele>
        <time>2016-07-18T08:08:12.000Z</time>
      </trkpt>
      <trkpt lat="44.35234" lon="6.39416">
        <ele>1513.4000244141</ele>
        <time>2016-07-18T08:08:13.000Z</time>
      </trkpt>
      <trkpt lat="44.35241" lon="6.39421">
        <ele>1514.8000488281</ele>
        <time>2016-07-18T08:08:20.000Z</time>
      </trkpt>
      <trkpt lat="44.35244" lon="6.39425">
        <ele>1515.4000244141</ele>
        <time>2016-07-18T08:08:23.000Z</time>
      </trkpt>
      <trkpt lat="44.35246" lon="6.39429">
        <ele>1516</ele>
        <time>2016-07-18T08:08:26.000Z</time>
      </trkpt>
      <trkpt lat="44.35248" lon="6.39435">
        <ele>1516.5999755859</ele>
        <time>2016-07-18T08:08:31.000Z</time>
      </trkpt>
      <trkpt lat="44.35253" lon="6.39447">
        <ele>1518</ele>
        <time>2016-07-18T08:08:39.000Z</time>
      </trkpt>
      <trkpt lat="44.35253" lon="6.39449">
        <ele>1518.1999511719</ele>
        <time>2016-07-18T08:08:40.000Z</time>
      </trkpt>
      <trkpt lat="44.35258" lon="6.39456">
        <ele>1519.1999511719</ele>
        <time>2016-07-18T08:08:46.000Z</time>
      </trkpt>
      <trkpt lat="44.35264" lon="6.39467">
        <ele>1520.4000244141</ele>
        <time>2016-07-18T08:08:54.000Z</time>
      </trkpt>
      <trkpt lat="44.35265" lon="6.3947">
        <ele>1520.5999755859</ele>
        <time>2016-07-18T08:08:56.000Z</time>
      </trkpt>
      <trkpt lat="44.35275" lon="6.3948">
        <ele>1522.5999755859</ele>
        <time>2016-07-18T08:09:06.000Z</time>
      </trkpt>
      <trkpt lat="44.35276" lon="6.39481">
        <ele>1523</ele>
        <time>2016-07-18T08:09:07.000Z</time>
      </trkpt>
      <trkpt lat="44.35287" lon="6.39485">
        <ele>1525</ele>
        <time>2016-07-18T08:09:15.000Z</time>
      </trkpt>
      <trkpt lat="44.35294" lon="6.39487">
        <ele>1526.4000244141</ele>
        <time>2016-07-18T08:09:21.000Z</time>
      </trkpt>
      <trkpt lat="44.35301" lon="6.39487">
        <ele>1528.1999511719</ele>
        <time>2016-07-18T08:09:26.000Z</time>
      </trkpt>
      <trkpt lat="44.35308" lon="6.39483">
        <ele>1531</ele>
        <time>2016-07-18T08:09:32.000Z</time>
      </trkpt>
      <trkpt lat="44.35315" lon="6.39476">
        <ele>1532.8000488281</ele>
        <time>2016-07-18T08:09:40.000Z</time>
      </trkpt>
      <trkpt lat="44.35321" lon="6.39468">
        <ele>1534</ele>
        <time>2016-07-18T08:09:46.000Z</time>
      </trkpt>
      <trkpt lat="44.35329" lon="6.39461">
        <ele>1535.5999755859</ele>
        <time>2016-07-18T08:09:55.000Z</time>
      </trkpt>
      <trkpt lat="44.35335" lon="6.39456">
        <ele>1537</ele>
        <time>2016-07-18T08:10:00.000Z</time>
      </trkpt>
      <trkpt lat="44.3534" lon="6.39451">
        <ele>1538.4000244141</ele>
        <time>2016-07-18T08:10:05.000Z</time>
      </trkpt>
      <trkpt lat="44.3535" lon="6.39439">
        <ele>1541.1999511719</ele>
        <time>2016-07-18T08:10:15.000Z</time>
      </trkpt>
      <trkpt lat="44.35356" lon="6.39432">
        <ele>1542.8000488281</ele>
        <time>2016-07-18T08:10:21.000Z</time>
      </trkpt>
      <trkpt lat="44.35365" lon="6.39423">
        <ele>1545.5999755859</ele>
        <time>2016-07-18T08:10:31.000Z</time>
      </trkpt>
      <trkpt lat="44.35371" lon="6.39416">
        <ele>1547.1999511719</ele>
        <time>2016-07-18T08:10:36.000Z</time>
      </trkpt>
      <trkpt lat="44.35373" lon="6.39413">
        <ele>1547.8000488281</ele>
        <time>2016-07-18T08:10:39.000Z</time>
      </trkpt>
      <trkpt lat="44.35381" lon="6.39407">
        <ele>1550.1999511719</ele>
        <time>2016-07-18T08:10:46.000Z</time>
      </trkpt>
      <trkpt lat="44.35384" lon="6.39405">
        <ele>1551.1999511719</ele>
        <time>2016-07-18T08:10:50.000Z</time>
      </trkpt>
      <trkpt lat="44.35387" lon="6.39402">
        <ele>1552.1999511719</ele>
        <time>2016-07-18T08:10:53.000Z</time>
      </trkpt>
      <trkpt lat="44.35397" lon="6.39399">
        <ele>1555.5999755859</ele>
        <time>2016-07-18T08:11:01.000Z</time>
      </trkpt>
      <trkpt lat="44.354" lon="6.39396">
        <ele>1556.1999511719</ele>
        <time>2016-07-18T08:11:04.000Z</time>
      </trkpt>
      <trkpt lat="44.35404" lon="6.39394">
        <ele>1557.4000244141</ele>
        <time>2016-07-18T08:11:07.000Z</time>
      </trkpt>
      <trkpt lat="44.35412" lon="6.39386">
        <ele>1558.8000488281</ele>
        <time>2016-07-18T08:11:16.000Z</time>
      </trkpt>
      <trkpt lat="44.35412" lon="6.39385">
        <ele>1558.8000488281</ele>
        <time>2016-07-18T08:11:18.000Z</time>
      </trkpt>
      <trkpt lat="44.35413" lon="6.39382">
        <ele>1558.5999755859</ele>
        <time>2016-07-18T08:11:27.000Z</time>
      </trkpt>
      <trkpt lat="44.35416" lon="6.39376">
        <ele>1558.8000488281</ele>
        <time>2016-07-18T08:11:34.000Z</time>
      </trkpt>
      <trkpt lat="44.3542" lon="6.39371">
        <ele>1559.5999755859</ele>
        <time>2016-07-18T08:11:39.000Z</time>
      </trkpt>
      <trkpt lat="44.35429" lon="6.39362">
        <ele>1559.8000488281</ele>
        <time>2016-07-18T08:11:46.000Z</time>
      </trkpt>
      <trkpt lat="44.3544" lon="6.39351">
        <ele>1560.5999755859</ele>
        <time>2016-07-18T08:11:56.000Z</time>
      </trkpt>
      <trkpt lat="44.35453" lon="6.39343">
        <ele>1561.8000488281</ele>
        <time>2016-07-18T08:12:07.000Z</time>
      </trkpt>
      <trkpt lat="44.35462" lon="6.39334">
        <ele>1561.8000488281</ele>
        <time>2016-07-18T08:12:16.000Z</time>
      </trkpt>
      <trkpt lat="44.35469" lon="6.39329">
        <ele>1562.5999755859</ele>
        <time>2016-07-18T08:12:23.000Z</time>
      </trkpt>
      <trkpt lat="44.35476" lon="6.39325">
        <ele>1563.5999755859</ele>
        <time>2016-07-18T08:12:28.000Z</time>
      </trkpt>
      <trkpt lat="44.35486" lon="6.39322">
        <ele>1565</ele>
        <time>2016-07-18T08:12:36.000Z</time>
      </trkpt>
      <trkpt lat="44.35498" lon="6.39314">
        <ele>1566.5999755859</ele>
        <time>2016-07-18T08:12:46.000Z</time>
      </trkpt>
      <trkpt lat="44.35502" lon="6.39307">
        <ele>1565.4000244141</ele>
        <time>2016-07-18T08:12:50.000Z</time>
      </trkpt>
      <trkpt lat="44.35514" lon="6.39276">
        <ele>1561.1999511719</ele>
        <time>2016-07-18T08:13:10.000Z</time>
      </trkpt>
      <trkpt lat="44.35516" lon="6.39272">
        <ele>1560.8000488281</ele>
        <time>2016-07-18T08:13:13.000Z</time>
      </trkpt>
      <trkpt lat="44.35524" lon="6.39263">
        <ele>1560.5999755859</ele>
        <time>2016-07-18T08:13:20.000Z</time>
      </trkpt>
      <trkpt lat="44.35528" lon="6.39261">
        <ele>1561</ele>
        <time>2016-07-18T08:13:23.000Z</time>
      </trkpt>
      <trkpt lat="44.35529" lon="6.3926">
        <ele>1561</ele>
        <time>2016-07-18T08:13:25.000Z</time>
      </trkpt>
      <trkpt lat="44.35533" lon="6.39257">
        <ele>1561</ele>
        <time>2016-07-18T08:13:30.000Z</time>
      </trkpt>
      <trkpt lat="44.35538" lon="6.39257">
        <ele>1561.5999755859</ele>
        <time>2016-07-18T08:13:35.000Z</time>
      </trkpt>
      <trkpt lat="44.35539" lon="6.39257">
        <ele>1561.8000488281</ele>
        <time>2016-07-18T08:13:36.000Z</time>
      </trkpt>
      <trkpt lat="44.35545" lon="6.39258">
        <ele>1562.8000488281</ele>
        <time>2016-07-18T08:13:40.000Z</time>
      </trkpt>
      <trkpt lat="44.35554" lon="6.39262">
        <ele>1564.8000488281</ele>
        <time>2016-07-18T08:13:47.000Z</time>
      </trkpt>
      <trkpt lat="44.3556" lon="6.39265">
        <ele>1566.1999511719</ele>
        <time>2016-07-18T08:13:52.000Z</time>
      </trkpt>
      <trkpt lat="44.35566" lon="6.39263">
        <ele>1566.8000488281</ele>
        <time>2016-07-18T08:13:57.000Z</time>
      </trkpt>
      <trkpt lat="44.35567" lon="6.39262">
        <ele>1566.8000488281</ele>
        <time>2016-07-18T08:13:58.000Z</time>
      </trkpt>
      <trkpt lat="44.35569" lon="6.39261">
        <ele>1567</ele>
        <time>2016-07-18T08:14:00.000Z</time>
      </trkpt>
      <trkpt lat="44.35577" lon="6.39247">
        <ele>1566.5999755859</ele>
        <time>2016-07-18T08:14:08.000Z</time>
      </trkpt>
      <trkpt lat="44.35577" lon="6.39245">
        <ele>1566.4000244141</ele>
        <time>2016-07-18T08:14:10.000Z</time>
      </trkpt>
      <trkpt lat="44.35578" lon="6.39241">
        <ele>1566</ele>
        <time>2016-07-18T08:14:11.000Z</time>
      </trkpt>
      <trkpt lat="44.35582" lon="6.39226">
        <ele>1564.5999755859</ele>
        <time>2016-07-18T08:14:19.000Z</time>
      </trkpt>
      <trkpt lat="44.35581" lon="6.3921">
        <ele>1562</ele>
        <time>2016-07-18T08:14:28.000Z</time>
      </trkpt>
      <trkpt lat="44.35582" lon="6.3919">
        <ele>1559.1999511719</ele>
        <time>2016-07-18T08:14:40.000Z</time>
      </trkpt>
      <trkpt lat="44.35586" lon="6.3918">
        <ele>1558.4000244141</ele>
        <time>2016-07-18T08:14:46.000Z</time>
      </trkpt>
      <trkpt lat="44.35588" lon="6.39178">
        <ele>1558.5999755859</ele>
        <time>2016-07-18T08:14:48.000Z</time>
      </trkpt>
      <trkpt lat="44.35594" lon="6.39176">
        <ele>1559.8000488281</ele>
        <time>2016-07-18T08:14:53.000Z</time>
      </trkpt>
      <trkpt lat="44.35607" lon="6.39176">
        <ele>1562.4000244141</ele>
        <time>2016-07-18T08:15:04.000Z</time>
      </trkpt>
      <trkpt lat="44.3561" lon="6.39176">
        <ele>1563</ele>
        <time>2016-07-18T08:15:06.000Z</time>
      </trkpt>
      <trkpt lat="44.35618" lon="6.39173">
        <ele>1564.1999511719</ele>
        <time>2016-07-18T08:15:13.000Z</time>
      </trkpt>
      <trkpt lat="44.35627" lon="6.39172">
        <ele>1565.4000244141</ele>
        <time>2016-07-18T08:15:21.000Z</time>
      </trkpt>
      <trkpt lat="44.35637" lon="6.39178">
        <ele>1568</ele>
        <time>2016-07-18T08:15:30.000Z</time>
      </trkpt>
      <trkpt lat="44.35647" lon="6.39185">
        <ele>1570.8000488281</ele>
        <time>2016-07-18T08:15:39.000Z</time>
      </trkpt>
      <trkpt lat="44.35654" lon="6.39194">
        <ele>1573.1999511719</ele>
        <time>2016-07-18T08:15:46.000Z</time>
      </trkpt>
      <trkpt lat="44.35661" lon="6.39199">
        <ele>1575.1999511719</ele>
        <time>2016-07-18T08:15:53.000Z</time>
      </trkpt>
      <trkpt lat="44.35667" lon="6.39203">
        <ele>1576.8000488281</ele>
        <time>2016-07-18T08:15:57.000Z</time>
      </trkpt>
      <trkpt lat="44.35681" lon="6.39201">
        <ele>1579.4000244141</ele>
        <time>2016-07-18T08:16:06.000Z</time>
      </trkpt>
      <trkpt lat="44.35682" lon="6.392">
        <ele>1579.5999755859</ele>
        <time>2016-07-18T08:16:07.000Z</time>
      </trkpt>
      <trkpt lat="44.35691" lon="6.3919">
        <ele>1580.5999755859</ele>
        <time>2016-07-18T08:16:16.000Z</time>
      </trkpt>
      <trkpt lat="44.35696" lon="6.39179">
        <ele>1580.5999755859</ele>
        <time>2016-07-18T08:16:24.000Z</time>
      </trkpt>
      <trkpt lat="44.35703" lon="6.39173">
        <ele>1581.4000244141</ele>
        <time>2016-07-18T08:16:30.000Z</time>
      </trkpt>
      <trkpt lat="44.35708" lon="6.39166">
        <ele>1582</ele>
        <time>2016-07-18T08:16:36.000Z</time>
      </trkpt>
      <trkpt lat="44.35711" lon="6.39163">
        <ele>1582.4000244141</ele>
        <time>2016-07-18T08:16:41.000Z</time>
      </trkpt>
      <trkpt lat="44.35728" lon="6.3916">
        <ele>1585.5999755859</ele>
        <time>2016-07-18T08:16:55.000Z</time>
      </trkpt>
      <trkpt lat="44.35737" lon="6.39159">
        <ele>1587.4000244141</ele>
        <time>2016-07-18T08:17:01.000Z</time>
      </trkpt>
      <trkpt lat="44.35745" lon="6.3916">
        <ele>1589.4000244141</ele>
        <time>2016-07-18T08:17:07.000Z</time>
      </trkpt>
      <trkpt lat="44.35746" lon="6.3916">
        <ele>1589.5999755859</ele>
        <time>2016-07-18T08:17:09.000Z</time>
      </trkpt>
      <trkpt lat="44.35755" lon="6.39161">
        <ele>1591.8000488281</ele>
        <time>2016-07-18T08:17:16.000Z</time>
      </trkpt>
      <trkpt lat="44.35757" lon="6.39162">
        <ele>1592.1999511719</ele>
        <time>2016-07-18T08:17:17.000Z</time>
      </trkpt>
      <trkpt lat="44.35764" lon="6.39163">
        <ele>1593.8000488281</ele>
        <time>2016-07-18T08:17:23.000Z</time>
      </trkpt>
      <trkpt lat="44.35765" lon="6.39163">
        <ele>1594</ele>
        <time>2016-07-18T08:17:24.000Z</time>
      </trkpt>
      <trkpt lat="44.35769" lon="6.39164">
        <ele>1595</ele>
        <time>2016-07-18T08:17:27.000Z</time>
      </trkpt>
      <trkpt lat="44.35773" lon="6.39162">
        <ele>1595.5999755859</ele>
        <time>2016-07-18T08:17:31.000Z</time>
      </trkpt>
      <trkpt lat="44.35785" lon="6.39157">
        <ele>1597.8000488281</ele>
        <time>2016-07-18T08:17:39.000Z</time>
      </trkpt>
      <trkpt lat="44.35785" lon="6.39156">
        <ele>1597.8000488281</ele>
        <time>2016-07-18T08:17:40.000Z</time>
      </trkpt>
      <trkpt lat="44.35797" lon="6.39142">
        <ele>1597.4000244141</ele>
        <time>2016-07-18T08:17:50.000Z</time>
      </trkpt>
      <trkpt lat="44.35804" lon="6.3913">
        <ele>1597</ele>
        <time>2016-07-18T08:17:58.000Z</time>
      </trkpt>
      <trkpt lat="44.35806" lon="6.39127">
        <ele>1597</ele>
        <time>2016-07-18T08:18:00.000Z</time>
      </trkpt>
      <trkpt lat="44.35815" lon="6.39122">
        <ele>1597.5999755859</ele>
        <time>2016-07-18T08:18:07.000Z</time>
      </trkpt>
      <trkpt lat="44.35825" lon="6.39122">
        <ele>1599</ele>
        <time>2016-07-18T08:18:14.000Z</time>
      </trkpt>
      <trkpt lat="44.35835" lon="6.39124">
        <ele>1600.5999755859</ele>
        <time>2016-07-18T08:18:23.000Z</time>
      </trkpt>
      <trkpt lat="44.35844" lon="6.39116">
        <ele>1601</ele>
        <time>2016-07-18T08:18:30.000Z</time>
      </trkpt>
      <trkpt lat="44.35849" lon="6.39112">
        <ele>1601.5999755859</ele>
        <time>2016-07-18T08:18:37.000Z</time>
      </trkpt>
      <trkpt lat="44.35852" lon="6.39109">
        <ele>1601.8000488281</ele>
        <time>2016-07-18T08:18:43.000Z</time>
      </trkpt>
      <trkpt lat="44.35862" lon="6.39103">
        <ele>1603</ele>
        <time>2016-07-18T08:19:30.000Z</time>
      </trkpt>
      <trkpt lat="44.35866" lon="6.39103">
        <ele>1603.5999755859</ele>
        <time>2016-07-18T08:19:34.000Z</time>
      </trkpt>
      <trkpt lat="44.35871" lon="6.39101">
        <ele>1604.1999511719</ele>
        <time>2016-07-18T08:19:40.000Z</time>
      </trkpt>
      <trkpt lat="44.35879" lon="6.39098">
        <ele>1605</ele>
        <time>2016-07-18T08:19:46.000Z</time>
      </trkpt>
      <trkpt lat="44.35882" lon="6.39098">
        <ele>1605.4000244141</ele>
        <time>2016-07-18T08:19:48.000Z</time>
      </trkpt>
      <trkpt lat="44.35892" lon="6.39091">
        <ele>1606.4000244141</ele>
        <time>2016-07-18T08:19:56.000Z</time>
      </trkpt>
      <trkpt lat="44.35893" lon="6.39096">
        <ele>1607</ele>
        <time>2016-07-18T08:20:02.000Z</time>
      </trkpt>
      <trkpt lat="44.35897" lon="6.39095">
        <ele>1607.5999755859</ele>
        <time>2016-07-18T08:20:14.000Z</time>
      </trkpt>
      <trkpt lat="44.359" lon="6.39092">
        <ele>1607.4000244141</ele>
        <time>2016-07-18T08:20:17.000Z</time>
      </trkpt>
      <trkpt lat="44.35906" lon="6.39089">
        <ele>1607.5999755859</ele>
        <time>2016-07-18T08:20:23.000Z</time>
      </trkpt>
      <trkpt lat="44.35912" lon="6.39087">
        <ele>1608</ele>
        <time>2016-07-18T08:20:29.000Z</time>
      </trkpt>
      <trkpt lat="44.35916" lon="6.39088">
        <ele>1608.5999755859</ele>
        <time>2016-07-18T08:20:33.000Z</time>
      </trkpt>
      <trkpt lat="44.35921" lon="6.39088">
        <ele>1609.1999511719</ele>
        <time>2016-07-18T08:20:37.000Z</time>
      </trkpt>
      <trkpt lat="44.35929" lon="6.39089">
        <ele>1610.1999511719</ele>
        <time>2016-07-18T08:20:44.000Z</time>
      </trkpt>
      <trkpt lat="44.35939" lon="6.39093">
        <ele>1611.5999755859</ele>
        <time>2016-07-18T08:20:50.000Z</time>
      </trkpt>
      <trkpt lat="44.35943" lon="6.39095">
        <ele>1612.4000244141</ele>
        <time>2016-07-18T08:20:54.000Z</time>
      </trkpt>
      <trkpt lat="44.35955" lon="6.39104">
        <ele>1614.8000488281</ele>
        <time>2016-07-18T08:21:03.000Z</time>
      </trkpt>
      <trkpt lat="44.35968" lon="6.39105">
        <ele>1616.5999755859</ele>
        <time>2016-07-18T08:21:12.000Z</time>
      </trkpt>
      <trkpt lat="44.35975" lon="6.39104">
        <ele>1617</ele>
        <time>2016-07-18T08:21:17.000Z</time>
      </trkpt>
      <trkpt lat="44.35981" lon="6.39101">
        <ele>1617.4000244141</ele>
        <time>2016-07-18T08:21:23.000Z</time>
      </trkpt>
      <trkpt lat="44.3599" lon="6.39098">
        <ele>1617.8000488281</ele>
        <time>2016-07-18T08:21:30.000Z</time>
      </trkpt>
      <trkpt lat="44.35997" lon="6.39095">
        <ele>1618.1999511719</ele>
        <time>2016-07-18T08:21:37.000Z</time>
      </trkpt>
      <trkpt lat="44.36004" lon="6.39091">
        <ele>1618.1999511719</ele>
        <time>2016-07-18T08:21:43.000Z</time>
      </trkpt>
      <trkpt lat="44.36015" lon="6.39084">
        <ele>1618.1999511719</ele>
        <time>2016-07-18T08:21:51.000Z</time>
      </trkpt>
      <trkpt lat="44.36023" lon="6.3908">
        <ele>1618.4000244141</ele>
        <time>2016-07-18T08:21:57.000Z</time>
      </trkpt>
      <trkpt lat="44.36024" lon="6.3908">
        <ele>1618.4000244141</ele>
        <time>2016-07-18T08:21:59.000Z</time>
      </trkpt>
      <trkpt lat="44.36029" lon="6.3908">
        <ele>1619</ele>
        <time>2016-07-18T08:22:03.000Z</time>
      </trkpt>
      <trkpt lat="44.36039" lon="6.3908">
        <ele>1620.5999755859</ele>
        <time>2016-07-18T08:22:10.000Z</time>
      </trkpt>
      <trkpt lat="44.36048" lon="6.39079">
        <ele>1622.1999511719</ele>
        <time>2016-07-18T08:22:18.000Z</time>
      </trkpt>
      <trkpt lat="44.36056" lon="6.39076">
        <ele>1623.4000244141</ele>
        <time>2016-07-18T08:22:25.000Z</time>
      </trkpt>
      <trkpt lat="44.36059" lon="6.39073">
        <ele>1623.8000488281</ele>
        <time>2016-07-18T08:22:28.000Z</time>
      </trkpt>
      <trkpt lat="44.36063" lon="6.39059">
        <ele>1622.5999755859</ele>
        <time>2016-07-18T08:22:37.000Z</time>
      </trkpt>
      <trkpt lat="44.36063" lon="6.39058">
        <ele>1622.8000488281</ele>
        <time>2016-07-18T08:22:38.000Z</time>
      </trkpt>
      <trkpt lat="44.36066" lon="6.39052">
        <ele>1622.5999755859</ele>
        <time>2016-07-18T08:22:43.000Z</time>
      </trkpt>
      <trkpt lat="44.36066" lon="6.39051">
        <ele>1622.4000244141</ele>
        <time>2016-07-18T08:22:44.000Z</time>
      </trkpt>
      <trkpt lat="44.36069" lon="6.39041">
        <ele>1621.5999755859</ele>
        <time>2016-07-18T08:22:50.000Z</time>
      </trkpt>
      <trkpt lat="44.36075" lon="6.39032">
        <ele>1621.5999755859</ele>
        <time>2016-07-18T08:22:57.000Z</time>
      </trkpt>
      <trkpt lat="44.36083" lon="6.39025">
        <ele>1622.1999511719</ele>
        <time>2016-07-18T08:23:04.000Z</time>
      </trkpt>
      <trkpt lat="44.36092" lon="6.39026">
        <ele>1624.1999511719</ele>
        <time>2016-07-18T08:23:11.000Z</time>
      </trkpt>
      <trkpt lat="44.36101" lon="6.39025">
        <ele>1625.8000488281</ele>
        <time>2016-07-18T08:23:18.000Z</time>
      </trkpt>
      <trkpt lat="44.3611" lon="6.39028">
        <ele>1628</ele>
        <time>2016-07-18T08:23:25.000Z</time>
      </trkpt>
      <trkpt lat="44.36123" lon="6.39035">
        <ele>1631.4000244141</ele>
        <time>2016-07-18T08:23:35.000Z</time>
      </trkpt>
      <trkpt lat="44.36134" lon="6.39031">
        <ele>1632.8000488281</ele>
        <time>2016-07-18T08:23:42.000Z</time>
      </trkpt>
      <trkpt lat="44.36146" lon="6.39029">
        <ele>1634.8000488281</ele>
        <time>2016-07-18T08:23:50.000Z</time>
      </trkpt>
      <trkpt lat="44.36154" lon="6.39031">
        <ele>1636.8000488281</ele>
        <time>2016-07-18T08:23:57.000Z</time>
      </trkpt>
      <trkpt lat="44.36162" lon="6.39029">
        <ele>1638</ele>
        <time>2016-07-18T08:24:03.000Z</time>
      </trkpt>
      <trkpt lat="44.36171" lon="6.39023">
        <ele>1638.4000244141</ele>
        <time>2016-07-18T08:24:10.000Z</time>
      </trkpt>
      <trkpt lat="44.36181" lon="6.39018">
        <ele>1639</ele>
        <time>2016-07-18T08:24:19.000Z</time>
      </trkpt>
      <trkpt lat="44.3619" lon="6.39019">
        <ele>1640.5999755859</ele>
        <time>2016-07-18T08:24:25.000Z</time>
      </trkpt>
      <trkpt lat="44.36201" lon="6.39024">
        <ele>1642.8000488281</ele>
        <time>2016-07-18T08:24:34.000Z</time>
      </trkpt>
      <trkpt lat="44.36213" lon="6.39033">
        <ele>1644.5999755859</ele>
        <time>2016-07-18T08:24:44.000Z</time>
      </trkpt>
      <trkpt lat="44.36214" lon="6.39035">
        <ele>1645</ele>
        <time>2016-07-18T08:24:46.000Z</time>
      </trkpt>
      <trkpt lat="44.36219" lon="6.3904">
        <ele>1646</ele>
        <time>2016-07-18T08:24:50.000Z</time>
      </trkpt>
      <trkpt lat="44.36226" lon="6.39049">
        <ele>1647.8000488281</ele>
        <time>2016-07-18T08:24:57.000Z</time>
      </trkpt>
      <trkpt lat="44.36234" lon="6.39057">
        <ele>1649.5999755859</ele>
        <time>2016-07-18T08:25:04.000Z</time>
      </trkpt>
      <trkpt lat="44.36241" lon="6.39063">
        <ele>1650.8000488281</ele>
        <time>2016-07-18T08:25:10.000Z</time>
      </trkpt>
      <trkpt lat="44.36252" lon="6.39071">
        <ele>1652.1999511719</ele>
        <time>2016-07-18T08:25:19.000Z</time>
      </trkpt>
      <trkpt lat="44.36257" lon="6.39077">
        <ele>1653</ele>
        <time>2016-07-18T08:25:24.000Z</time>
      </trkpt>
      <trkpt lat="44.36266" lon="6.39084">
        <ele>1654.1999511719</ele>
        <time>2016-07-18T08:25:32.000Z</time>
      </trkpt>
      <trkpt lat="44.36271" lon="6.39091">
        <ele>1655.1999511719</ele>
        <time>2016-07-18T08:25:37.000Z</time>
      </trkpt>
      <trkpt lat="44.36276" lon="6.39094">
        <ele>1655.5999755859</ele>
        <time>2016-07-18T08:25:41.000Z</time>
      </trkpt>
      <trkpt lat="44.36286" lon="6.39103">
        <ele>1657</ele>
        <time>2016-07-18T08:25:49.000Z</time>
      </trkpt>
      <trkpt lat="44.363" lon="6.39113">
        <ele>1658.5999755859</ele>
        <time>2016-07-18T08:26:00.000Z</time>
      </trkpt>
      <trkpt lat="44.36309" lon="6.39122">
        <ele>1659.8000488281</ele>
        <time>2016-07-18T08:26:07.000Z</time>
      </trkpt>
      <trkpt lat="44.3632" lon="6.39133">
        <ele>1661.4000244141</ele>
        <time>2016-07-18T08:26:18.000Z</time>
      </trkpt>
      <trkpt lat="44.36326" lon="6.39139">
        <ele>1662.4000244141</ele>
        <time>2016-07-18T08:26:24.000Z</time>
      </trkpt>
      <trkpt lat="44.36327" lon="6.3914">
        <ele>1662.5999755859</ele>
        <time>2016-07-18T08:26:25.000Z</time>
      </trkpt>
      <trkpt lat="44.36334" lon="6.39147">
        <ele>1663.4000244141</ele>
        <time>2016-07-18T08:26:30.000Z</time>
      </trkpt>
      <trkpt lat="44.36335" lon="6.39147">
        <ele>1663.5999755859</ele>
        <time>2016-07-18T08:26:31.000Z</time>
      </trkpt>
      <trkpt lat="44.36342" lon="6.39153">
        <ele>1665.1999511719</ele>
        <time>2016-07-18T08:26:38.000Z</time>
      </trkpt>
      <trkpt lat="44.36349" lon="6.39159">
        <ele>1666.5999755859</ele>
        <time>2016-07-18T08:26:44.000Z</time>
      </trkpt>
      <trkpt lat="44.36354" lon="6.39163">
        <ele>1667.8000488281</ele>
        <time>2016-07-18T08:26:50.000Z</time>
      </trkpt>
      <trkpt lat="44.36355" lon="6.39163">
        <ele>1667.8000488281</ele>
        <time>2016-07-18T08:26:51.000Z</time>
      </trkpt>
      <trkpt lat="44.36358" lon="6.39165">
        <ele>1668.4000244141</ele>
        <time>2016-07-18T08:26:54.000Z</time>
      </trkpt>
      <trkpt lat="44.36368" lon="6.3917">
        <ele>1669.8000488281</ele>
        <time>2016-07-18T08:27:01.000Z</time>
      </trkpt>
      <trkpt lat="44.36369" lon="6.3917">
        <ele>1670</ele>
        <time>2016-07-18T08:27:02.000Z</time>
      </trkpt>
      <trkpt lat="44.36377" lon="6.39173">
        <ele>1671</ele>
        <time>2016-07-18T08:27:09.000Z</time>
      </trkpt>
      <trkpt lat="44.36388" lon="6.39172">
        <ele>1671.4000244141</ele>
        <time>2016-07-18T08:27:16.000Z</time>
      </trkpt>
      <trkpt lat="44.36395" lon="6.39173">
        <ele>1672</ele>
        <time>2016-07-18T08:27:21.000Z</time>
      </trkpt>
      <trkpt lat="44.36405" lon="6.39173">
        <ele>1672.1999511719</ele>
        <time>2016-07-18T08:27:28.000Z</time>
      </trkpt>
      <trkpt lat="44.36414" lon="6.39177">
        <ele>1673.5999755859</ele>
        <time>2016-07-18T08:27:35.000Z</time>
      </trkpt>
      <trkpt lat="44.36423" lon="6.39185">
        <ele>1676.1999511719</ele>
        <time>2016-07-18T08:27:43.000Z</time>
      </trkpt>
      <trkpt lat="44.36434" lon="6.39193">
        <ele>1678.8000488281</ele>
        <time>2016-07-18T08:27:52.000Z</time>
      </trkpt>
      <trkpt lat="44.36442" lon="6.39204">
        <ele>1682.1999511719</ele>
        <time>2016-07-18T08:28:02.000Z</time>
      </trkpt>
      <trkpt lat="44.36446" lon="6.39211">
        <ele>1684.4000244141</ele>
        <time>2016-07-18T08:28:06.000Z</time>
      </trkpt>
      <trkpt lat="44.36448" lon="6.39216">
        <ele>1685.8000488281</ele>
        <time>2016-07-18T08:28:10.000Z</time>
      </trkpt>
      <trkpt lat="44.36456" lon="6.39223">
        <ele>1687.5999755859</ele>
        <time>2016-07-18T08:28:17.000Z</time>
      </trkpt>
      <trkpt lat="44.36465" lon="6.39223">
        <ele>1687.4000244141</ele>
        <time>2016-07-18T08:28:24.000Z</time>
      </trkpt>
      <trkpt lat="44.36473" lon="6.39219">
        <ele>1686.1999511719</ele>
        <time>2016-07-18T08:28:30.000Z</time>
      </trkpt>
      <trkpt lat="44.36482" lon="6.39212">
        <ele>1684.1999511719</ele>
        <time>2016-07-18T08:28:38.000Z</time>
      </trkpt>
      <trkpt lat="44.36491" lon="6.39207">
        <ele>1682.5999755859</ele>
        <time>2016-07-18T08:28:45.000Z</time>
      </trkpt>
      <trkpt lat="44.36503" lon="6.39207">
        <ele>1682.4000244141</ele>
        <time>2016-07-18T08:28:54.000Z</time>
      </trkpt>
      <trkpt lat="44.36509" lon="6.39212">
        <ele>1683.8000488281</ele>
        <time>2016-07-18T08:28:59.000Z</time>
      </trkpt>
      <trkpt lat="44.36513" lon="6.39225">
        <ele>1687.4000244141</ele>
        <time>2016-07-18T08:29:08.000Z</time>
      </trkpt>
      <trkpt lat="44.36517" lon="6.39228">
        <ele>1688.1999511719</ele>
        <time>2016-07-18T08:29:12.000Z</time>
      </trkpt>
      <trkpt lat="44.36524" lon="6.39225">
        <ele>1687.1999511719</ele>
        <time>2016-07-18T08:29:19.000Z</time>
      </trkpt>
      <trkpt lat="44.36531" lon="6.39218">
        <ele>1686</ele>
        <time>2016-07-18T08:29:26.000Z</time>
      </trkpt>
      <trkpt lat="44.36537" lon="6.39213">
        <ele>1685</ele>
        <time>2016-07-18T08:29:32.000Z</time>
      </trkpt>
      <trkpt lat="44.36545" lon="6.39209">
        <ele>1684.4000244141</ele>
        <time>2016-07-18T08:29:40.000Z</time>
      </trkpt>
      <trkpt lat="44.36551" lon="6.39209">
        <ele>1684.5999755859</ele>
        <time>2016-07-18T08:29:45.000Z</time>
      </trkpt>
      <trkpt lat="44.36554" lon="6.3921">
        <ele>1685</ele>
        <time>2016-07-18T08:29:47.000Z</time>
      </trkpt>
      <trkpt lat="44.3656" lon="6.39219">
        <ele>1687</ele>
        <time>2016-07-18T08:29:54.000Z</time>
      </trkpt>
      <trkpt lat="44.36565" lon="6.39228">
        <ele>1689.4000244141</ele>
        <time>2016-07-18T08:29:59.000Z</time>
      </trkpt>
      <trkpt lat="44.3657" lon="6.39238">
        <ele>1691.5999755859</ele>
        <time>2016-07-18T08:30:06.000Z</time>
      </trkpt>
      <trkpt lat="44.36572" lon="6.39245">
        <ele>1692.8000488281</ele>
        <time>2016-07-18T08:30:10.000Z</time>
      </trkpt>
      <trkpt lat="44.36574" lon="6.39256">
        <ele>1694.8000488281</ele>
        <time>2016-07-18T08:30:17.000Z</time>
      </trkpt>
      <trkpt lat="44.36574" lon="6.39259">
        <ele>1695.5999755859</ele>
        <time>2016-07-18T08:30:19.000Z</time>
      </trkpt>
      <trkpt lat="44.36576" lon="6.39267">
        <ele>1697</ele>
        <time>2016-07-18T08:30:26.000Z</time>
      </trkpt>
      <trkpt lat="44.36576" lon="6.39268">
        <ele>1697.1999511719</ele>
        <time>2016-07-18T08:30:27.000Z</time>
      </trkpt>
      <trkpt lat="44.36577" lon="6.39269">
        <ele>1697.4000244141</ele>
        <time>2016-07-18T08:30:28.000Z</time>
      </trkpt>
      <trkpt lat="44.36586" lon="6.39281">
        <ele>1699.8000488281</ele>
        <time>2016-07-18T08:30:35.000Z</time>
      </trkpt>
      <trkpt lat="44.36593" lon="6.39283">
        <ele>1700.5999755859</ele>
        <time>2016-07-18T08:30:41.000Z</time>
      </trkpt>
      <trkpt lat="44.36601" lon="6.39271">
        <ele>1698.5999755859</ele>
        <time>2016-07-18T08:30:52.000Z</time>
      </trkpt>
      <trkpt lat="44.36605" lon="6.39274">
        <ele>1699.1999511719</ele>
        <time>2016-07-18T08:30:56.000Z</time>
      </trkpt>
      <trkpt lat="44.3661" lon="6.39282">
        <ele>1701</ele>
        <time>2016-07-18T08:31:03.000Z</time>
      </trkpt>
      <trkpt lat="44.36611" lon="6.39282">
        <ele>1701</ele>
        <time>2016-07-18T08:31:04.000Z</time>
      </trkpt>
      <trkpt lat="44.3662" lon="6.3928">
        <ele>1701.5999755859</ele>
        <time>2016-07-18T08:31:11.000Z</time>
      </trkpt>
      <trkpt lat="44.36625" lon="6.39276">
        <ele>1701.8000488281</ele>
        <time>2016-07-18T08:31:16.000Z</time>
      </trkpt>
      <trkpt lat="44.36633" lon="6.39271">
        <ele>1702.1999511719</ele>
        <time>2016-07-18T08:31:24.000Z</time>
      </trkpt>
      <trkpt lat="44.3664" lon="6.39264">
        <ele>1702.1999511719</ele>
        <time>2016-07-18T08:31:31.000Z</time>
      </trkpt>
      <trkpt lat="44.36642" lon="6.39262">
        <ele>1702</ele>
        <time>2016-07-18T08:31:33.000Z</time>
      </trkpt>
      <trkpt lat="44.36646" lon="6.39258">
        <ele>1702.1999511719</ele>
        <time>2016-07-18T08:31:37.000Z</time>
      </trkpt>
      <trkpt lat="44.36656" lon="6.39243">
        <ele>1702.1999511719</ele>
        <time>2016-07-18T08:31:46.000Z</time>
      </trkpt>
      <trkpt lat="44.36665" lon="6.39234">
        <ele>1702.8000488281</ele>
        <time>2016-07-18T08:31:55.000Z</time>
      </trkpt>
      <trkpt lat="44.36673" lon="6.39229">
        <ele>1703.5999755859</ele>
        <time>2016-07-18T08:32:01.000Z</time>
      </trkpt>
      <trkpt lat="44.36684" lon="6.39213">
        <ele>1703.8000488281</ele>
        <time>2016-07-18T08:32:15.000Z</time>
      </trkpt>
      <trkpt lat="44.36687" lon="6.39204">
        <ele>1704</ele>
        <time>2016-07-18T08:32:21.000Z</time>
      </trkpt>
      <trkpt lat="44.3669" lon="6.39196">
        <ele>1704.1999511719</ele>
        <time>2016-07-18T08:32:27.000Z</time>
      </trkpt>
      <trkpt lat="44.36695" lon="6.39196">
        <ele>1705.4000244141</ele>
        <time>2016-07-18T08:32:30.000Z</time>
      </trkpt>
      <trkpt lat="44.36704" lon="6.39194">
        <ele>1706.5999755859</ele>
        <time>2016-07-18T08:32:38.000Z</time>
      </trkpt>
      <trkpt lat="44.36713" lon="6.39195">
        <ele>1707.5999755859</ele>
        <time>2016-07-18T08:32:45.000Z</time>
      </trkpt>
      <trkpt lat="44.36718" lon="6.39196">
        <ele>1708.1999511719</ele>
        <time>2016-07-18T08:32:49.000Z</time>
      </trkpt>
      <trkpt lat="44.36727" lon="6.392">
        <ele>1709.5999755859</ele>
        <time>2016-07-18T08:32:56.000Z</time>
      </trkpt>
      <trkpt lat="44.36741" lon="6.39202">
        <ele>1711.1999511719</ele>
        <time>2016-07-18T08:33:06.000Z</time>
      </trkpt>
      <trkpt lat="44.36754" lon="6.39206">
        <ele>1713</ele>
        <time>2016-07-18T08:33:15.000Z</time>
      </trkpt>
      <trkpt lat="44.36765" lon="6.39213">
        <ele>1714.8000488281</ele>
        <time>2016-07-18T08:33:23.000Z</time>
      </trkpt>
      <trkpt lat="44.36776" lon="6.3922">
        <ele>1716.5999755859</ele>
        <time>2016-07-18T08:33:33.000Z</time>
      </trkpt>
      <trkpt lat="44.36788" lon="6.39227">
        <ele>1718.1999511719</ele>
        <time>2016-07-18T08:33:42.000Z</time>
      </trkpt>
      <trkpt lat="44.36813" lon="6.39243">
        <ele>1722.1999511719</ele>
        <time>2016-07-18T08:34:02.000Z</time>
      </trkpt>
      <trkpt lat="44.36827" lon="6.3925">
        <ele>1724.1999511719</ele>
        <time>2016-07-18T08:34:13.000Z</time>
      </trkpt>
      <trkpt lat="44.36839" lon="6.39251">
        <ele>1725.4000244141</ele>
        <time>2016-07-18T08:34:21.000Z</time>
      </trkpt>
      <trkpt lat="44.36847" lon="6.39251">
        <ele>1726.1999511719</ele>
        <time>2016-07-18T08:34:27.000Z</time>
      </trkpt>
      <trkpt lat="44.36848" lon="6.39251">
        <ele>1726.1999511719</ele>
        <time>2016-07-18T08:34:32.000Z</time>
      </trkpt>
      <trkpt lat="44.36856" lon="6.39249">
        <ele>1726.5999755859</ele>
        <time>2016-07-18T08:34:39.000Z</time>
      </trkpt>
      <trkpt lat="44.36869" lon="6.39248">
        <ele>1727.8000488281</ele>
        <time>2016-07-18T08:34:49.000Z</time>
      </trkpt>
      <trkpt lat="44.3688" lon="6.39253">
        <ele>1729.5999755859</ele>
        <time>2016-07-18T08:34:57.000Z</time>
      </trkpt>
      <trkpt lat="44.36884" lon="6.39256">
        <ele>1730.5999755859</ele>
        <time>2016-07-18T08:35:03.000Z</time>
      </trkpt>
      <trkpt lat="44.36893" lon="6.39261">
        <ele>1732.4000244141</ele>
        <time>2016-07-18T08:35:11.000Z</time>
      </trkpt>
      <trkpt lat="44.36905" lon="6.39265">
        <ele>1734.4000244141</ele>
        <time>2016-07-18T08:35:20.000Z</time>
      </trkpt>
      <trkpt lat="44.36911" lon="6.39265">
        <ele>1735.1999511719</ele>
        <time>2016-07-18T08:35:26.000Z</time>
      </trkpt>
      <trkpt lat="44.3692" lon="6.39261">
        <ele>1736.1999511719</ele>
        <time>2016-07-18T08:35:33.000Z</time>
      </trkpt>
      <trkpt lat="44.3693" lon="6.39255">
        <ele>1737</ele>
        <time>2016-07-18T08:35:41.000Z</time>
      </trkpt>
      <trkpt lat="44.36939" lon="6.39252">
        <ele>1738</ele>
        <time>2016-07-18T08:35:48.000Z</time>
      </trkpt>
      <trkpt lat="44.3694" lon="6.39253">
        <ele>1738.1999511719</ele>
        <time>2016-07-18T08:35:49.000Z</time>
      </trkpt>
      <trkpt lat="44.36947" lon="6.39249">
        <ele>1738.5999755859</ele>
        <time>2016-07-18T08:35:56.000Z</time>
      </trkpt>
      <trkpt lat="44.36948" lon="6.39248">
        <ele>1738.8000488281</ele>
        <time>2016-07-18T08:35:57.000Z</time>
      </trkpt>
      <trkpt lat="44.36956" lon="6.39236">
        <ele>1739</ele>
        <time>2016-07-18T08:36:05.000Z</time>
      </trkpt>
      <trkpt lat="44.36961" lon="6.39225">
        <ele>1738.1999511719</ele>
        <time>2016-07-18T08:36:12.000Z</time>
      </trkpt>
      <trkpt lat="44.36972" lon="6.39212">
        <ele>1737.8000488281</ele>
        <time>2016-07-18T08:36:22.000Z</time>
      </trkpt>
      <trkpt lat="44.36981" lon="6.39207">
        <ele>1738.5999755859</ele>
        <time>2016-07-18T08:36:29.000Z</time>
      </trkpt>
      <trkpt lat="44.3699" lon="6.39203">
        <ele>1739.4000244141</ele>
        <time>2016-07-18T08:36:36.000Z</time>
      </trkpt>
      <trkpt lat="44.37001" lon="6.39198">
        <ele>1740.5999755859</ele>
        <time>2016-07-18T08:36:44.000Z</time>
      </trkpt>
      <trkpt lat="44.37013" lon="6.39192">
        <ele>1742.8000488281</ele>
        <time>2016-07-18T08:36:53.000Z</time>
      </trkpt>
      <trkpt lat="44.3702" lon="6.39186">
        <ele>1743.8000488281</ele>
        <time>2016-07-18T08:37:00.000Z</time>
      </trkpt>
      <trkpt lat="44.37028" lon="6.3918">
        <ele>1745.1999511719</ele>
        <time>2016-07-18T08:37:07.000Z</time>
      </trkpt>
      <trkpt lat="44.37037" lon="6.39176">
        <ele>1746.5999755859</ele>
        <time>2016-07-18T08:37:15.000Z</time>
      </trkpt>
      <trkpt lat="44.37038" lon="6.39174">
        <ele>1746.5999755859</ele>
        <time>2016-07-18T08:37:16.000Z</time>
      </trkpt>
      <trkpt lat="44.37042" lon="6.39171">
        <ele>1747</ele>
        <time>2016-07-18T08:37:20.000Z</time>
      </trkpt>
      <trkpt lat="44.37053" lon="6.39166">
        <ele>1748.4000244141</ele>
        <time>2016-07-18T08:37:29.000Z</time>
      </trkpt>
      <trkpt lat="44.37061" lon="6.39163">
        <ele>1749.5999755859</ele>
        <time>2016-07-18T08:37:36.000Z</time>
      </trkpt>
      <trkpt lat="44.37069" lon="6.39161">
        <ele>1750.8000488281</ele>
        <time>2016-07-18T08:37:42.000Z</time>
      </trkpt>
      <trkpt lat="44.3708" lon="6.39158">
        <ele>1752.8000488281</ele>
        <time>2016-07-18T08:37:50.000Z</time>
      </trkpt>
      <trkpt lat="44.3709" lon="6.39151">
        <ele>1753.8000488281</ele>
        <time>2016-07-18T08:37:57.000Z</time>
      </trkpt>
      <trkpt lat="44.37101" lon="6.39146">
        <ele>1755.1999511719</ele>
        <time>2016-07-18T08:38:05.000Z</time>
      </trkpt>
      <trkpt lat="44.37108" lon="6.39141">
        <ele>1755.8000488281</ele>
        <time>2016-07-18T08:38:11.000Z</time>
      </trkpt>
      <trkpt lat="44.37117" lon="6.39138">
        <ele>1757</ele>
        <time>2016-07-18T08:38:17.000Z</time>
      </trkpt>
      <trkpt lat="44.37127" lon="6.39136">
        <ele>1758.4000244141</ele>
        <time>2016-07-18T08:38:24.000Z</time>
      </trkpt>
      <trkpt lat="44.37138" lon="6.39134">
        <ele>1760</ele>
        <time>2016-07-18T08:38:32.000Z</time>
      </trkpt>
      <trkpt lat="44.37148" lon="6.3913">
        <ele>1761.1999511719</ele>
        <time>2016-07-18T08:38:40.000Z</time>
      </trkpt>
      <trkpt lat="44.37161" lon="6.39131">
        <ele>1763.5999755859</ele>
        <time>2016-07-18T08:38:49.000Z</time>
      </trkpt>
      <trkpt lat="44.37169" lon="6.39136">
        <ele>1765.5999755859</ele>
        <time>2016-07-18T08:38:56.000Z</time>
      </trkpt>
      <trkpt lat="44.3717" lon="6.39137">
        <ele>1765.8000488281</ele>
        <time>2016-07-18T08:38:57.000Z</time>
      </trkpt>
      <trkpt lat="44.37174" lon="6.39139">
        <ele>1766.8000488281</ele>
        <time>2016-07-18T08:39:00.000Z</time>
      </trkpt>
      <trkpt lat="44.37187" lon="6.39148">
        <ele>1770.1999511719</ele>
        <time>2016-07-18T08:39:12.000Z</time>
      </trkpt>
      <trkpt lat="44.37192" lon="6.39155">
        <ele>1772.4000244141</ele>
        <time>2016-07-18T08:39:18.000Z</time>
      </trkpt>
      <trkpt lat="44.37201" lon="6.39163">
        <ele>1775.1999511719</ele>
        <time>2016-07-18T08:39:26.000Z</time>
      </trkpt>
      <trkpt lat="44.37212" lon="6.39165">
        <ele>1776.4000244141</ele>
        <time>2016-07-18T08:39:35.000Z</time>
      </trkpt>
      <trkpt lat="44.37219" lon="6.39167">
        <ele>1777</ele>
        <time>2016-07-18T08:39:41.000Z</time>
      </trkpt>
      <trkpt lat="44.3722" lon="6.39167">
        <ele>1777</ele>
        <time>2016-07-18T08:39:49.000Z</time>
      </trkpt>
      <trkpt lat="44.37224" lon="6.39167">
        <ele>1777.1999511719</ele>
        <time>2016-07-18T08:40:06.000Z</time>
      </trkpt>
      <trkpt lat="44.37239" lon="6.39169">
        <ele>1777.8000488281</ele>
        <time>2016-07-18T08:40:17.000Z</time>
      </trkpt>
      <trkpt lat="44.37248" lon="6.3917">
        <ele>1778.4000244141</ele>
        <time>2016-07-18T08:40:24.000Z</time>
      </trkpt>
      <trkpt lat="44.37257" lon="6.39171">
        <ele>1779</ele>
        <time>2016-07-18T08:40:31.000Z</time>
      </trkpt>
      <trkpt lat="44.37264" lon="6.39172">
        <ele>1779.1999511719</ele>
        <time>2016-07-18T08:40:38.000Z</time>
      </trkpt>
      <trkpt lat="44.37273" lon="6.39168">
        <ele>1778.4000244141</ele>
        <time>2016-07-18T08:40:46.000Z</time>
      </trkpt>
      <trkpt lat="44.37275" lon="6.39167">
        <ele>1778.4000244141</ele>
        <time>2016-07-18T08:40:47.000Z</time>
      </trkpt>
      <trkpt lat="44.37281" lon="6.39162">
        <ele>1777.1999511719</ele>
        <time>2016-07-18T08:40:52.000Z</time>
      </trkpt>
      <trkpt lat="44.37289" lon="6.39156">
        <ele>1778</ele>
        <time>2016-07-18T08:40:59.000Z</time>
      </trkpt>
      <trkpt lat="44.3729" lon="6.39155">
        <ele>1778.1999511719</ele>
        <time>2016-07-18T08:41:00.000Z</time>
      </trkpt>
      <trkpt lat="44.37291" lon="6.39154">
        <ele>1778</ele>
        <time>2016-07-18T08:41:01.000Z</time>
      </trkpt>
      <trkpt lat="44.37301" lon="6.39144">
        <ele>1778.5999755859</ele>
        <time>2016-07-18T08:41:10.000Z</time>
      </trkpt>
      <trkpt lat="44.37303" lon="6.39142">
        <ele>1778.8000488281</ele>
        <time>2016-07-18T08:41:12.000Z</time>
      </trkpt>
      <trkpt lat="44.37308" lon="6.39135">
        <ele>1779.4000244141</ele>
        <time>2016-07-18T08:41:19.000Z</time>
      </trkpt>
      <trkpt lat="44.3731" lon="6.39134">
        <ele>1779.5999755859</ele>
        <time>2016-07-18T08:41:20.000Z</time>
      </trkpt>
      <trkpt lat="44.37318" lon="6.39126">
        <ele>1781</ele>
        <time>2016-07-18T08:41:28.000Z</time>
      </trkpt>
      <trkpt lat="44.37327" lon="6.39119">
        <ele>1782.1999511719</ele>
        <time>2016-07-18T08:41:35.000Z</time>
      </trkpt>
      <trkpt lat="44.37332" lon="6.39115">
        <ele>1783.1999511719</ele>
        <time>2016-07-18T08:41:40.000Z</time>
      </trkpt>
      <trkpt lat="44.37334" lon="6.39113">
        <ele>1783</ele>
        <time>2016-07-18T08:41:42.000Z</time>
      </trkpt>
      <trkpt lat="44.37341" lon="6.39108">
        <ele>1782.8000488281</ele>
        <time>2016-07-18T08:41:49.000Z</time>
      </trkpt>
      <trkpt lat="44.37351" lon="6.39102">
        <ele>1782.8000488281</ele>
        <time>2016-07-18T08:41:59.000Z</time>
      </trkpt>
      <trkpt lat="44.3736" lon="6.39099">
        <ele>1783.1999511719</ele>
        <time>2016-07-18T08:42:05.000Z</time>
      </trkpt>
      <trkpt lat="44.37369" lon="6.39095">
        <ele>1784.1999511719</ele>
        <time>2016-07-18T08:42:12.000Z</time>
      </trkpt>
      <trkpt lat="44.3738" lon="6.39092">
        <ele>1786.1999511719</ele>
        <time>2016-07-18T08:42:20.000Z</time>
      </trkpt>
      <trkpt lat="44.37386" lon="6.39091">
        <ele>1787.5999755859</ele>
        <time>2016-07-18T08:42:26.000Z</time>
      </trkpt>
      <trkpt lat="44.37396" lon="6.39089">
        <ele>1789.1999511719</ele>
        <time>2016-07-18T08:42:34.000Z</time>
      </trkpt>
      <trkpt lat="44.37407" lon="6.39088">
        <ele>1790.5999755859</ele>
        <time>2016-07-18T08:42:42.000Z</time>
      </trkpt>
      <trkpt lat="44.37413" lon="6.39088">
        <ele>1791.8000488281</ele>
        <time>2016-07-18T08:42:47.000Z</time>
      </trkpt>
      <trkpt lat="44.3742" lon="6.39088">
        <ele>1793.1999511719</ele>
        <time>2016-07-18T08:42:52.000Z</time>
      </trkpt>
      <trkpt lat="44.37431" lon="6.39099">
        <ele>1798.5999755859</ele>
        <time>2016-07-18T08:43:03.000Z</time>
      </trkpt>
      <trkpt lat="44.37438" lon="6.39113">
        <ele>1804.1999511719</ele>
        <time>2016-07-18T08:43:13.000Z</time>
      </trkpt>
      <trkpt lat="44.37441" lon="6.39118">
        <ele>1806.4000244141</ele>
        <time>2016-07-18T08:43:17.000Z</time>
      </trkpt>
      <trkpt lat="44.37452" lon="6.3913">
        <ele>1811.1999511719</ele>
        <time>2016-07-18T08:43:26.000Z</time>
      </trkpt>
      <trkpt lat="44.37453" lon="6.39133">
        <ele>1811.8000488281</ele>
        <time>2016-07-18T08:43:28.000Z</time>
      </trkpt>
      <trkpt lat="44.37457" lon="6.39141">
        <ele>1814.1999511719</ele>
        <time>2016-07-18T08:43:34.000Z</time>
      </trkpt>
      <trkpt lat="44.37464" lon="6.3915">
        <ele>1816.4000244141</ele>
        <time>2016-07-18T08:43:40.000Z</time>
      </trkpt>
      <trkpt lat="44.37465" lon="6.39151">
        <ele>1816.8000488281</ele>
        <time>2016-07-18T08:43:41.000Z</time>
      </trkpt>
      <trkpt lat="44.37476" lon="6.39162">
        <ele>1819.5999755859</ele>
        <time>2016-07-18T08:43:51.000Z</time>
      </trkpt>
      <trkpt lat="44.37481" lon="6.39166">
        <ele>1820.4000244141</ele>
        <time>2016-07-18T08:43:59.000Z</time>
      </trkpt>
      <trkpt lat="44.37481" lon="6.39167">
        <ele>1820.8000488281</ele>
        <time>2016-07-18T08:44:03.000Z</time>
      </trkpt>
      <trkpt lat="44.37483" lon="6.39165">
        <ele>1820.1999511719</ele>
        <time>2016-07-18T08:44:10.000Z</time>
      </trkpt>
      <trkpt lat="44.37484" lon="6.39167">
        <ele>1820.5999755859</ele>
        <time>2016-07-18T08:44:17.000Z</time>
      </trkpt>
      <trkpt lat="44.37478" lon="6.39172">
        <ele>1822.5999755859</ele>
        <time>2016-07-18T08:45:04.000Z</time>
      </trkpt>
      <trkpt lat="44.37481" lon="6.39167">
        <ele>1821</ele>
        <time>2016-07-18T08:45:14.000Z</time>
      </trkpt>
      <trkpt lat="44.37481" lon="6.39166">
        <ele>1820.5999755859</ele>
        <time>2016-07-18T08:45:20.000Z</time>
      </trkpt>
      <trkpt lat="44.37478" lon="6.3917">
        <ele>1822</ele>
        <time>2016-07-18T08:45:26.000Z</time>
      </trkpt>
      <trkpt lat="44.37475" lon="6.39172">
        <ele>1822.8000488281</ele>
        <time>2016-07-18T08:45:32.000Z</time>
      </trkpt>
      <trkpt lat="44.37476" lon="6.39172">
        <ele>1822.5999755859</ele>
        <time>2016-07-18T08:45:45.000Z</time>
      </trkpt>
      <trkpt lat="44.37479" lon="6.3917">
        <ele>1822</ele>
        <time>2016-07-18T08:45:51.000Z</time>
      </trkpt>
      <trkpt lat="44.3748" lon="6.39173">
        <ele>1822.8000488281</ele>
        <time>2016-07-18T08:46:16.000Z</time>
      </trkpt>
      <trkpt lat="44.37478" lon="6.39174">
        <ele>1823.1999511719</ele>
        <time>2016-07-18T08:46:50.000Z</time>
      </trkpt>
      <trkpt lat="44.37481" lon="6.39176">
        <ele>1823.5999755859</ele>
        <time>2016-07-18T08:47:36.000Z</time>
      </trkpt>
      <trkpt lat="44.37483" lon="6.39172">
        <ele>1822.4000244141</ele>
        <time>2016-07-18T08:47:45.000Z</time>
      </trkpt>
      <trkpt lat="44.37498" lon="6.39157">
        <ele>1816.8000488281</ele>
        <time>2016-07-18T08:48:01.000Z</time>
      </trkpt>
      <trkpt lat="44.37502" lon="6.39151">
        <ele>1814.5999755859</ele>
        <time>2016-07-18T08:48:06.000Z</time>
      </trkpt>
      <trkpt lat="44.37507" lon="6.39141">
        <ele>1811.4000244141</ele>
        <time>2016-07-18T08:48:13.000Z</time>
      </trkpt>
      <trkpt lat="44.37512" lon="6.39129">
        <ele>1807</ele>
        <time>2016-07-18T08:48:22.000Z</time>
      </trkpt>
      <trkpt lat="44.37517" lon="6.39117">
        <ele>1804</ele>
        <time>2016-07-18T08:48:30.000Z</time>
      </trkpt>
      <trkpt lat="44.37523" lon="6.39108">
        <ele>1801.5999755859</ele>
        <time>2016-07-18T08:48:38.000Z</time>
      </trkpt>
      <trkpt lat="44.37526" lon="6.39105">
        <ele>1800.8000488281</ele>
        <time>2016-07-18T08:48:41.000Z</time>
      </trkpt>
      <trkpt lat="44.37533" lon="6.39099">
        <ele>1799.4000244141</ele>
        <time>2016-07-18T08:48:48.000Z</time>
      </trkpt>
      <trkpt lat="44.37545" lon="6.39092">
        <ele>1801.8000488281</ele>
        <time>2016-07-18T08:48:59.000Z</time>
      </trkpt>
      <trkpt lat="44.37552" lon="6.39088">
        <ele>1802.5999755859</ele>
        <time>2016-07-18T08:49:05.000Z</time>
      </trkpt>
      <trkpt lat="44.37552" lon="6.39087">
        <ele>1802.5999755859</ele>
        <time>2016-07-18T08:49:06.000Z</time>
      </trkpt>
      <trkpt lat="44.37558" lon="6.39087">
        <ele>1804.1999511719</ele>
        <time>2016-07-18T08:49:12.000Z</time>
      </trkpt>
      <trkpt lat="44.37569" lon="6.39087">
        <ele>1807.8000488281</ele>
        <time>2016-07-18T08:49:22.000Z</time>
      </trkpt>
      <trkpt lat="44.37572" lon="6.39088">
        <ele>1808.8000488281</ele>
        <time>2016-07-18T08:49:24.000Z</time>
      </trkpt>
      <trkpt lat="44.37576" lon="6.39085">
        <ele>1809.4000244141</ele>
        <time>2016-07-18T08:49:29.000Z</time>
      </trkpt>
      <trkpt lat="44.37582" lon="6.39076">
        <ele>1808.4000244141</ele>
        <time>2016-07-18T08:49:36.000Z</time>
      </trkpt>
      <trkpt lat="44.37584" lon="6.39071">
        <ele>1807.5999755859</ele>
        <time>2016-07-18T08:49:40.000Z</time>
      </trkpt>
      <trkpt lat="44.37588" lon="6.39065">
        <ele>1807.1999511719</ele>
        <time>2016-07-18T08:49:45.000Z</time>
      </trkpt>
      <trkpt lat="44.37595" lon="6.3906">
        <ele>1808.1999511719</ele>
        <time>2016-07-18T08:49:52.000Z</time>
      </trkpt>
      <trkpt lat="44.37602" lon="6.39057">
        <ele>1809.8000488281</ele>
        <time>2016-07-18T08:49:58.000Z</time>
      </trkpt>
      <trkpt lat="44.3761" lon="6.39057">
        <ele>1812</ele>
        <time>2016-07-18T08:50:05.000Z</time>
      </trkpt>
      <trkpt lat="44.37611" lon="6.39057">
        <ele>1812.1999511719</ele>
        <time>2016-07-18T08:50:06.000Z</time>
      </trkpt>
      <trkpt lat="44.37612" lon="6.39058">
        <ele>1812.8000488281</ele>
        <time>2016-07-18T08:50:08.000Z</time>
      </trkpt>
      <trkpt lat="44.37615" lon="6.39057">
        <ele>1813.1999511719</ele>
        <time>2016-07-18T08:50:12.000Z</time>
      </trkpt>
      <trkpt lat="44.37618" lon="6.39056">
        <ele>1813.5999755859</ele>
        <time>2016-07-18T08:50:21.000Z</time>
      </trkpt>
      <trkpt lat="44.3762" lon="6.39055">
        <ele>1813.8000488281</ele>
        <time>2016-07-18T08:50:26.000Z</time>
      </trkpt>
      <trkpt lat="44.37626" lon="6.39053">
        <ele>1814.8000488281</ele>
        <time>2016-07-18T08:50:32.000Z</time>
      </trkpt>
      <trkpt lat="44.37635" lon="6.39051">
        <ele>1816</ele>
        <time>2016-07-18T08:50:39.000Z</time>
      </trkpt>
      <trkpt lat="44.37641" lon="6.39051">
        <ele>1817.1999511719</ele>
        <time>2016-07-18T08:50:44.000Z</time>
      </trkpt>
      <trkpt lat="44.3765" lon="6.39051">
        <ele>1819.4000244141</ele>
        <time>2016-07-18T08:50:52.000Z</time>
      </trkpt>
      <trkpt lat="44.37652" lon="6.39051">
        <ele>1819.5999755859</ele>
        <time>2016-07-18T08:50:53.000Z</time>
      </trkpt>
      <trkpt lat="44.37659" lon="6.39048">
        <ele>1820.4000244141</ele>
        <time>2016-07-18T08:50:59.000Z</time>
      </trkpt>
      <trkpt lat="44.37668" lon="6.39042">
        <ele>1821</ele>
        <time>2016-07-18T08:51:06.000Z</time>
      </trkpt>
      <trkpt lat="44.37676" lon="6.39039">
        <ele>1822.4000244141</ele>
        <time>2016-07-18T08:51:14.000Z</time>
      </trkpt>
      <trkpt lat="44.37677" lon="6.39039">
        <ele>1822.4000244141</ele>
        <time>2016-07-18T08:51:15.000Z</time>
      </trkpt>
      <trkpt lat="44.37682" lon="6.39038">
        <ele>1823.1999511719</ele>
        <time>2016-07-18T08:51:19.000Z</time>
      </trkpt>
      <trkpt lat="44.37692" lon="6.39038">
        <ele>1825.5999755859</ele>
        <time>2016-07-18T08:51:28.000Z</time>
      </trkpt>
      <trkpt lat="44.377" lon="6.39037">
        <ele>1827.1999511719</ele>
        <time>2016-07-18T08:51:36.000Z</time>
      </trkpt>
      <trkpt lat="44.37701" lon="6.39037">
        <ele>1827.1999511719</ele>
        <time>2016-07-18T08:51:37.000Z</time>
      </trkpt>
      <trkpt lat="44.37707" lon="6.39038">
        <ele>1827.8000488281</ele>
        <time>2016-07-18T08:51:43.000Z</time>
      </trkpt>
      <trkpt lat="44.37709" lon="6.39038">
        <ele>1828</ele>
        <time>2016-07-18T08:51:45.000Z</time>
      </trkpt>
      <trkpt lat="44.37715" lon="6.39041">
        <ele>1828.8000488281</ele>
        <time>2016-07-18T08:51:52.000Z</time>
      </trkpt>
      <trkpt lat="44.37721" lon="6.39045">
        <ele>1830</ele>
        <time>2016-07-18T08:51:57.000Z</time>
      </trkpt>
      <trkpt lat="44.37723" lon="6.39046">
        <ele>1830.5999755859</ele>
        <time>2016-07-18T08:52:00.000Z</time>
      </trkpt>
      <trkpt lat="44.37727" lon="6.39048">
        <ele>1831.1999511719</ele>
        <time>2016-07-18T08:52:03.000Z</time>
      </trkpt>
      <trkpt lat="44.37729" lon="6.3905">
        <ele>1831.5999755859</ele>
        <time>2016-07-18T08:52:05.000Z</time>
      </trkpt>
      <trkpt lat="44.37733" lon="6.39055">
        <ele>1833</ele>
        <time>2016-07-18T08:52:11.000Z</time>
      </trkpt>
      <trkpt lat="44.3774" lon="6.39058">
        <ele>1834</ele>
        <time>2016-07-18T08:52:18.000Z</time>
      </trkpt>
      <trkpt lat="44.37746" lon="6.39059">
        <ele>1834.5999755859</ele>
        <time>2016-07-18T08:52:23.000Z</time>
      </trkpt>
      <trkpt lat="44.37752" lon="6.39063">
        <ele>1835.8000488281</ele>
        <time>2016-07-18T08:52:29.000Z</time>
      </trkpt>
      <trkpt lat="44.37753" lon="6.39064">
        <ele>1836</ele>
        <time>2016-07-18T08:52:30.000Z</time>
      </trkpt>
      <trkpt lat="44.37757" lon="6.39071">
        <ele>1838</ele>
        <time>2016-07-18T08:52:36.000Z</time>
      </trkpt>
      <trkpt lat="44.37758" lon="6.39076">
        <ele>1839.4000244141</ele>
        <time>2016-07-18T08:52:41.000Z</time>
      </trkpt>
      <trkpt lat="44.3776" lon="6.39083">
        <ele>1841.1999511719</ele>
        <time>2016-07-18T08:52:46.000Z</time>
      </trkpt>
      <trkpt lat="44.37761" lon="6.39084">
        <ele>1841.5999755859</ele>
        <time>2016-07-18T08:52:47.000Z</time>
      </trkpt>
      <trkpt lat="44.37761" lon="6.39086">
        <ele>1842.1999511719</ele>
        <time>2016-07-18T08:52:49.000Z</time>
      </trkpt>
      <trkpt lat="44.37764" lon="6.39093">
        <ele>1844</ele>
        <time>2016-07-18T08:52:55.000Z</time>
      </trkpt>
      <trkpt lat="44.37766" lon="6.39097">
        <ele>1845.1999511719</ele>
        <time>2016-07-18T08:52:59.000Z</time>
      </trkpt>
      <trkpt lat="44.37769" lon="6.391">
        <ele>1846</ele>
        <time>2016-07-18T08:53:01.000Z</time>
      </trkpt>
      <trkpt lat="44.37774" lon="6.39106">
        <ele>1847.8000488281</ele>
        <time>2016-07-18T08:53:07.000Z</time>
      </trkpt>
      <trkpt lat="44.37781" lon="6.39114">
        <ele>1850.4000244141</ele>
        <time>2016-07-18T08:53:14.000Z</time>
      </trkpt>
      <trkpt lat="44.37783" lon="6.39117">
        <ele>1850.8000488281</ele>
        <time>2016-07-18T08:53:16.000Z</time>
      </trkpt>
      <trkpt lat="44.37789" lon="6.39123">
        <ele>1851.1999511719</ele>
        <time>2016-07-18T08:53:21.000Z</time>
      </trkpt>
      <trkpt lat="44.37794" lon="6.39128">
        <ele>1851.8000488281</ele>
        <time>2016-07-18T08:53:27.000Z</time>
      </trkpt>
      <trkpt lat="44.37795" lon="6.39128">
        <ele>1851.5999755859</ele>
        <time>2016-07-18T08:53:36.000Z</time>
      </trkpt>
      <trkpt lat="44.37796" lon="6.39125">
        <ele>1850.5999755859</ele>
        <time>2016-07-18T08:53:55.000Z</time>
      </trkpt>
      <trkpt lat="44.37799" lon="6.39128">
        <ele>1850.8000488281</ele>
        <time>2016-07-18T08:54:08.000Z</time>
      </trkpt>
      <trkpt lat="44.37798" lon="6.39129">
        <ele>1851.4000244141</ele>
        <time>2016-07-18T08:54:09.000Z</time>
      </trkpt>
      <trkpt lat="44.37798" lon="6.39134">
        <ele>1852.5999755859</ele>
        <time>2016-07-18T08:54:13.000Z</time>
      </trkpt>
      <trkpt lat="44.37799" lon="6.39142">
        <ele>1854.4000244141</ele>
        <time>2016-07-18T08:54:19.000Z</time>
      </trkpt>
      <trkpt lat="44.37801" lon="6.39148">
        <ele>1855.5999755859</ele>
        <time>2016-07-18T08:54:24.000Z</time>
      </trkpt>
      <trkpt lat="44.37806" lon="6.39155">
        <ele>1857.1999511719</ele>
        <time>2016-07-18T08:54:31.000Z</time>
      </trkpt>
      <trkpt lat="44.37807" lon="6.3916">
        <ele>1858.4000244141</ele>
        <time>2016-07-18T08:54:35.000Z</time>
      </trkpt>
      <trkpt lat="44.37812" lon="6.39167">
        <ele>1859.8000488281</ele>
        <time>2016-07-18T08:54:41.000Z</time>
      </trkpt>
      <trkpt lat="44.37818" lon="6.39174">
        <ele>1861.1999511719</ele>
        <time>2016-07-18T08:54:47.000Z</time>
      </trkpt>
      <trkpt lat="44.37825" lon="6.39181">
        <ele>1862.4000244141</ele>
        <time>2016-07-18T08:54:53.000Z</time>
      </trkpt>
      <trkpt lat="44.37829" lon="6.39186">
        <ele>1863.1999511719</ele>
        <time>2016-07-18T08:54:57.000Z</time>
      </trkpt>
      <trkpt lat="44.37842" lon="6.39194">
        <ele>1863.8000488281</ele>
        <time>2016-07-18T08:55:08.000Z</time>
      </trkpt>
      <trkpt lat="44.37853" lon="6.39199">
        <ele>1863.5999755859</ele>
        <time>2016-07-18T08:55:16.000Z</time>
      </trkpt>
      <trkpt lat="44.37857" lon="6.39203">
        <ele>1864.1999511719</ele>
        <time>2016-07-18T08:55:21.000Z</time>
      </trkpt>
      <trkpt lat="44.37867" lon="6.39207">
        <ele>1864</ele>
        <time>2016-07-18T08:55:29.000Z</time>
      </trkpt>
      <trkpt lat="44.37876" lon="6.39207">
        <ele>1863</ele>
        <time>2016-07-18T08:55:37.000Z</time>
      </trkpt>
      <trkpt lat="44.37883" lon="6.39206">
        <ele>1862</ele>
        <time>2016-07-18T08:55:43.000Z</time>
      </trkpt>
      <trkpt lat="44.37892" lon="6.39204">
        <ele>1860.8000488281</ele>
        <time>2016-07-18T08:55:51.000Z</time>
      </trkpt>
      <trkpt lat="44.37907" lon="6.39204">
        <ele>1859.4000244141</ele>
        <time>2016-07-18T08:56:02.000Z</time>
      </trkpt>
      <trkpt lat="44.37921" lon="6.39202">
        <ele>1858</ele>
        <time>2016-07-18T08:56:13.000Z</time>
      </trkpt>
      <trkpt lat="44.37927" lon="6.392">
        <ele>1857.5999755859</ele>
        <time>2016-07-18T08:56:21.000Z</time>
      </trkpt>
      <trkpt lat="44.3793" lon="6.392">
        <ele>1857.5999755859</ele>
        <time>2016-07-18T08:57:10.000Z</time>
      </trkpt>
      <trkpt lat="44.37933" lon="6.39208">
        <ele>1859.4000244141</ele>
        <time>2016-07-18T08:58:10.000Z</time>
      </trkpt>
      <trkpt lat="44.37934" lon="6.39212">
        <ele>1860.1999511719</ele>
        <time>2016-07-18T08:58:40.000Z</time>
      </trkpt>
      <trkpt lat="44.37934" lon="6.39213">
        <ele>1860.5999755859</ele>
        <time>2016-07-18T08:58:51.000Z</time>
      </trkpt>
      <trkpt lat="44.37933" lon="6.39215">
        <ele>1861.1999511719</ele>
        <time>2016-07-18T08:59:10.000Z</time>
      </trkpt>
      <trkpt lat="44.37938" lon="6.39219">
        <ele>1862</ele>
        <time>2016-07-18T08:59:27.000Z</time>
      </trkpt>
      <trkpt lat="44.3795" lon="6.39214">
        <ele>1861.4000244141</ele>
        <time>2016-07-18T08:59:36.000Z</time>
      </trkpt>
      <trkpt lat="44.37963" lon="6.39211">
        <ele>1862.5999755859</ele>
        <time>2016-07-18T08:59:46.000Z</time>
      </trkpt>
      <trkpt lat="44.37964" lon="6.39211">
        <ele>1862.8000488281</ele>
        <time>2016-07-18T08:59:47.000Z</time>
      </trkpt>
      <trkpt lat="44.37971" lon="6.39214">
        <ele>1864.4000244141</ele>
        <time>2016-07-18T08:59:54.000Z</time>
      </trkpt>
      <trkpt lat="44.37977" lon="6.39218">
        <ele>1866.4000244141</ele>
        <time>2016-07-18T09:00:00.000Z</time>
      </trkpt>
      <trkpt lat="44.37989" lon="6.39225">
        <ele>1869.8000488281</ele>
        <time>2016-07-18T09:00:10.000Z</time>
      </trkpt>
      <trkpt lat="44.37996" lon="6.39225">
        <ele>1871.1999511719</ele>
        <time>2016-07-18T09:00:16.000Z</time>
      </trkpt>
      <trkpt lat="44.38003" lon="6.39223">
        <ele>1871.5999755859</ele>
        <time>2016-07-18T09:00:22.000Z</time>
      </trkpt>
      <trkpt lat="44.38009" lon="6.39215">
        <ele>1870.5999755859</ele>
        <time>2016-07-18T09:00:29.000Z</time>
      </trkpt>
      <trkpt lat="44.38016" lon="6.39203">
        <ele>1869</ele>
        <time>2016-07-18T09:00:37.000Z</time>
      </trkpt>
      <trkpt lat="44.38023" lon="6.39194">
        <ele>1867.8000488281</ele>
        <time>2016-07-18T09:00:45.000Z</time>
      </trkpt>
      <trkpt lat="44.3804" lon="6.39179">
        <ele>1867</ele>
        <time>2016-07-18T09:01:00.000Z</time>
      </trkpt>
      <trkpt lat="44.38046" lon="6.39174">
        <ele>1867.5999755859</ele>
        <time>2016-07-18T09:01:06.000Z</time>
      </trkpt>
      <trkpt lat="44.38053" lon="6.39171">
        <ele>1868.1999511719</ele>
        <time>2016-07-18T09:01:12.000Z</time>
      </trkpt>
      <trkpt lat="44.38062" lon="6.39168">
        <ele>1869.5999755859</ele>
        <time>2016-07-18T09:01:19.000Z</time>
      </trkpt>
      <trkpt lat="44.38065" lon="6.39167">
        <ele>1870</ele>
        <time>2016-07-18T09:01:21.000Z</time>
      </trkpt>
      <trkpt lat="44.38072" lon="6.39166">
        <ele>1871.1999511719</ele>
        <time>2016-07-18T09:01:27.000Z</time>
      </trkpt>
      <trkpt lat="44.38077" lon="6.39163">
        <ele>1871.8000488281</ele>
        <time>2016-07-18T09:01:31.000Z</time>
      </trkpt>
      <trkpt lat="44.38088" lon="6.39157">
        <ele>1872.8000488281</ele>
        <time>2016-07-18T09:01:40.000Z</time>
      </trkpt>
      <trkpt lat="44.38098" lon="6.3915">
        <ele>1873.5999755859</ele>
        <time>2016-07-18T09:01:48.000Z</time>
      </trkpt>
      <trkpt lat="44.38104" lon="6.39148">
        <ele>1874.5999755859</ele>
        <time>2016-07-18T09:01:53.000Z</time>
      </trkpt>
      <trkpt lat="44.38113" lon="6.39143">
        <ele>1875.4000244141</ele>
        <time>2016-07-18T09:02:01.000Z</time>
      </trkpt>
      <trkpt lat="44.3812" lon="6.39137">
        <ele>1876</ele>
        <time>2016-07-18T09:02:08.000Z</time>
      </trkpt>
      <trkpt lat="44.38121" lon="6.39136">
        <ele>1876.1999511719</ele>
        <time>2016-07-18T09:02:09.000Z</time>
      </trkpt>
      <trkpt lat="44.38126" lon="6.39132">
        <ele>1876.4000244141</ele>
        <time>2016-07-18T09:02:13.000Z</time>
      </trkpt>
      <trkpt lat="44.38132" lon="6.39128">
        <ele>1877</ele>
        <time>2016-07-18T09:02:17.000Z</time>
      </trkpt>
      <trkpt lat="44.38136" lon="6.39124">
        <ele>1877.1999511719</ele>
        <time>2016-07-18T09:02:21.000Z</time>
      </trkpt>
      <trkpt lat="44.38137" lon="6.39123">
        <ele>1877.1999511719</ele>
        <time>2016-07-18T09:02:22.000Z</time>
      </trkpt>
      <trkpt lat="44.38147" lon="6.39115">
        <ele>1878</ele>
        <time>2016-07-18T09:02:30.000Z</time>
      </trkpt>
      <trkpt lat="44.38157" lon="6.39112">
        <ele>1879.8000488281</ele>
        <time>2016-07-18T09:02:38.000Z</time>
      </trkpt>
      <trkpt lat="44.38168" lon="6.3911">
        <ele>1881.4000244141</ele>
        <time>2016-07-18T09:02:46.000Z</time>
      </trkpt>
      <trkpt lat="44.38177" lon="6.39107">
        <ele>1882.5999755859</ele>
        <time>2016-07-18T09:02:53.000Z</time>
      </trkpt>
      <trkpt lat="44.38186" lon="6.39102">
        <ele>1883</ele>
        <time>2016-07-18T09:03:01.000Z</time>
      </trkpt>
      <trkpt lat="44.38197" lon="6.39094">
        <ele>1883.1999511719</ele>
        <time>2016-07-18T09:03:10.000Z</time>
      </trkpt>
      <trkpt lat="44.38205" lon="6.39087">
        <ele>1883.8000488281</ele>
        <time>2016-07-18T09:03:18.000Z</time>
      </trkpt>
      <trkpt lat="44.38214" lon="6.39084">
        <ele>1885.8000488281</ele>
        <time>2016-07-18T09:03:25.000Z</time>
      </trkpt>
      <trkpt lat="44.38221" lon="6.3908">
        <ele>1886.4000244141</ele>
        <time>2016-07-18T09:03:31.000Z</time>
      </trkpt>
      <trkpt lat="44.38226" lon="6.39079">
        <ele>1887</ele>
        <time>2016-07-18T09:03:35.000Z</time>
      </trkpt>
      <trkpt lat="44.38232" lon="6.39078">
        <ele>1888.1999511719</ele>
        <time>2016-07-18T09:03:39.000Z</time>
      </trkpt>
      <trkpt lat="44.38234" lon="6.39077">
        <ele>1888.1999511719</ele>
        <time>2016-07-18T09:03:40.000Z</time>
      </trkpt>
      <trkpt lat="44.38246" lon="6.39076">
        <ele>1890.5999755859</ele>
        <time>2016-07-18T09:03:49.000Z</time>
      </trkpt>
      <trkpt lat="44.38262" lon="6.39074">
        <ele>1893.5999755859</ele>
        <time>2016-07-18T09:04:01.000Z</time>
      </trkpt>
      <trkpt lat="44.38273" lon="6.39075">
        <ele>1896.5999755859</ele>
        <time>2016-07-18T09:04:09.000Z</time>
      </trkpt>
      <trkpt lat="44.38287" lon="6.39079">
        <ele>1899.5999755859</ele>
        <time>2016-07-18T09:04:19.000Z</time>
      </trkpt>
      <trkpt lat="44.38298" lon="6.39083">
        <ele>1901</ele>
        <time>2016-07-18T09:04:28.000Z</time>
      </trkpt>
      <trkpt lat="44.38313" lon="6.39087">
        <ele>1902.1999511719</ele>
        <time>2016-07-18T09:04:38.000Z</time>
      </trkpt>
      <trkpt lat="44.38325" lon="6.39091">
        <ele>1903.5999755859</ele>
        <time>2016-07-18T09:04:47.000Z</time>
      </trkpt>
      <trkpt lat="44.38335" lon="6.39093">
        <ele>1904.1999511719</ele>
        <time>2016-07-18T09:04:55.000Z</time>
      </trkpt>
      <trkpt lat="44.38351" lon="6.39091">
        <ele>1903.5999755859</ele>
        <time>2016-07-18T09:05:07.000Z</time>
      </trkpt>
      <trkpt lat="44.38362" lon="6.3909">
        <ele>1903</ele>
        <time>2016-07-18T09:05:16.000Z</time>
      </trkpt>
      <trkpt lat="44.38371" lon="6.39091">
        <ele>1903.5999755859</ele>
        <time>2016-07-18T09:05:22.000Z</time>
      </trkpt>
      <trkpt lat="44.38381" lon="6.39095">
        <ele>1905</ele>
        <time>2016-07-18T09:05:30.000Z</time>
      </trkpt>
      <trkpt lat="44.38389" lon="6.39101">
        <ele>1907</ele>
        <time>2016-07-18T09:05:38.000Z</time>
      </trkpt>
      <trkpt lat="44.38396" lon="6.39104">
        <ele>1908.1999511719</ele>
        <time>2016-07-18T09:05:45.000Z</time>
      </trkpt>
      <trkpt lat="44.38403" lon="6.39105">
        <ele>1908.4000244141</ele>
        <time>2016-07-18T09:05:51.000Z</time>
      </trkpt>
      <trkpt lat="44.38411" lon="6.39102">
        <ele>1907.4000244141</ele>
        <time>2016-07-18T09:05:57.000Z</time>
      </trkpt>
      <trkpt lat="44.38426" lon="6.39099">
        <ele>1906.1999511719</ele>
        <time>2016-07-18T09:06:08.000Z</time>
      </trkpt>
      <trkpt lat="44.38442" lon="6.39098">
        <ele>1905.5999755859</ele>
        <time>2016-07-18T09:06:19.000Z</time>
      </trkpt>
      <trkpt lat="44.38458" lon="6.39097">
        <ele>1905.8000488281</ele>
        <time>2016-07-18T09:06:31.000Z</time>
      </trkpt>
      <trkpt lat="44.38473" lon="6.39099">
        <ele>1907.5999755859</ele>
        <time>2016-07-18T09:06:42.000Z</time>
      </trkpt>
      <trkpt lat="44.38486" lon="6.39103">
        <ele>1910.1999511719</ele>
        <time>2016-07-18T09:06:52.000Z</time>
      </trkpt>
      <trkpt lat="44.38496" lon="6.39107">
        <ele>1912.4000244141</ele>
        <time>2016-07-18T09:07:00.000Z</time>
      </trkpt>
      <trkpt lat="44.3851" lon="6.39104">
        <ele>1913.4000244141</ele>
        <time>2016-07-18T09:07:10.000Z</time>
      </trkpt>
      <trkpt lat="44.38515" lon="6.39101">
        <ele>1913.1999511719</ele>
        <time>2016-07-18T09:07:15.000Z</time>
      </trkpt>
      <trkpt lat="44.3852" lon="6.39097">
        <ele>1912.5999755859</ele>
        <time>2016-07-18T09:07:22.000Z</time>
      </trkpt>
      <trkpt lat="44.38527" lon="6.39095">
        <ele>1913.1999511719</ele>
        <time>2016-07-18T09:07:28.000Z</time>
      </trkpt>
      <trkpt lat="44.38528" lon="6.39094">
        <ele>1913</ele>
        <time>2016-07-18T09:07:29.000Z</time>
      </trkpt>
      <trkpt lat="44.38532" lon="6.39092">
        <ele>1913</ele>
        <time>2016-07-18T09:07:34.000Z</time>
      </trkpt>
      <trkpt lat="44.38533" lon="6.39091">
        <ele>1913</ele>
        <time>2016-07-18T09:07:35.000Z</time>
      </trkpt>
      <trkpt lat="44.38539" lon="6.39086">
        <ele>1913</ele>
        <time>2016-07-18T09:07:42.000Z</time>
      </trkpt>
      <trkpt lat="44.3854" lon="6.39085">
        <ele>1913</ele>
        <time>2016-07-18T09:07:43.000Z</time>
      </trkpt>
      <trkpt lat="44.38545" lon="6.39079">
        <ele>1912.8000488281</ele>
        <time>2016-07-18T09:07:48.000Z</time>
      </trkpt>
      <trkpt lat="44.38552" lon="6.39071">
        <ele>1911.5999755859</ele>
        <time>2016-07-18T09:07:55.000Z</time>
      </trkpt>
      <trkpt lat="44.3856" lon="6.39062">
        <ele>1910.8000488281</ele>
        <time>2016-07-18T09:08:04.000Z</time>
      </trkpt>
      <trkpt lat="44.38568" lon="6.39057">
        <ele>1911.8000488281</ele>
        <time>2016-07-18T09:08:11.000Z</time>
      </trkpt>
      <trkpt lat="44.38575" lon="6.39053">
        <ele>1912.4000244141</ele>
        <time>2016-07-18T09:08:17.000Z</time>
      </trkpt>
      <trkpt lat="44.38581" lon="6.39052">
        <ele>1913.8000488281</ele>
        <time>2016-07-18T09:08:22.000Z</time>
      </trkpt>
      <trkpt lat="44.38589" lon="6.39057">
        <ele>1916.1999511719</ele>
        <time>2016-07-18T09:08:29.000Z</time>
      </trkpt>
      <trkpt lat="44.38592" lon="6.39067">
        <ele>1918.5999755859</ele>
        <time>2016-07-18T09:08:36.000Z</time>
      </trkpt>
      <trkpt lat="44.38586" lon="6.39071">
        <ele>1918.8000488281</ele>
        <time>2016-07-18T09:08:42.000Z</time>
      </trkpt>
      <trkpt lat="44.38578" lon="6.39078">
        <ele>1919.5999755859</ele>
        <time>2016-07-18T09:08:50.000Z</time>
      </trkpt>
      <trkpt lat="44.3857" lon="6.39087">
        <ele>1920.8000488281</ele>
        <time>2016-07-18T09:08:59.000Z</time>
      </trkpt>
      <trkpt lat="44.38563" lon="6.39098">
        <ele>1923</ele>
        <time>2016-07-18T09:09:08.000Z</time>
      </trkpt>
      <trkpt lat="44.38561" lon="6.39103">
        <ele>1923.5999755859</ele>
        <time>2016-07-18T09:09:11.000Z</time>
      </trkpt>
      <trkpt lat="44.38555" lon="6.39112">
        <ele>1924.8000488281</ele>
        <time>2016-07-18T09:09:18.000Z</time>
      </trkpt>
      <trkpt lat="44.38549" lon="6.3912">
        <ele>1925.4000244141</ele>
        <time>2016-07-18T09:09:24.000Z</time>
      </trkpt>
      <trkpt lat="44.38543" lon="6.39128">
        <ele>1926</ele>
        <time>2016-07-18T09:09:31.000Z</time>
      </trkpt>
      <trkpt lat="44.38536" lon="6.39134">
        <ele>1926</ele>
        <time>2016-07-18T09:09:38.000Z</time>
      </trkpt>
      <trkpt lat="44.38528" lon="6.39139">
        <ele>1926</ele>
        <time>2016-07-18T09:09:45.000Z</time>
      </trkpt>
      <trkpt lat="44.38521" lon="6.39143">
        <ele>1926.5999755859</ele>
        <time>2016-07-18T09:09:52.000Z</time>
      </trkpt>
      <trkpt lat="44.3852" lon="6.39144">
        <ele>1926.8000488281</ele>
        <time>2016-07-18T09:09:53.000Z</time>
      </trkpt>
      <trkpt lat="44.3851" lon="6.39152">
        <ele>1929.4000244141</ele>
        <time>2016-07-18T09:10:02.000Z</time>
      </trkpt>
      <trkpt lat="44.38505" lon="6.39155">
        <ele>1930.4000244141</ele>
        <time>2016-07-18T09:10:06.000Z</time>
      </trkpt>
      <trkpt lat="44.38494" lon="6.3916">
        <ele>1932.1999511719</ele>
        <time>2016-07-18T09:10:15.000Z</time>
      </trkpt>
      <trkpt lat="44.38484" lon="6.39164">
        <ele>1933.5999755859</ele>
        <time>2016-07-18T09:10:23.000Z</time>
      </trkpt>
      <trkpt lat="44.38475" lon="6.39168">
        <ele>1934.8000488281</ele>
        <time>2016-07-18T09:10:30.000Z</time>
      </trkpt>
      <trkpt lat="44.38462" lon="6.39173">
        <ele>1935.1999511719</ele>
        <time>2016-07-18T09:10:40.000Z</time>
      </trkpt>
      <trkpt lat="44.38453" lon="6.39176">
        <ele>1934.5999755859</ele>
        <time>2016-07-18T09:10:48.000Z</time>
      </trkpt>
      <trkpt lat="44.38445" lon="6.39182">
        <ele>1935.8000488281</ele>
        <time>2016-07-18T09:10:56.000Z</time>
      </trkpt>
      <trkpt lat="44.38442" lon="6.39185">
        <ele>1937</ele>
        <time>2016-07-18T09:11:00.000Z</time>
      </trkpt>
      <trkpt lat="44.38435" lon="6.3919">
        <ele>1939</ele>
        <time>2016-07-18T09:11:06.000Z</time>
      </trkpt>
      <trkpt lat="44.38425" lon="6.39196">
        <ele>1941.1999511719</ele>
        <time>2016-07-18T09:11:14.000Z</time>
      </trkpt>
      <trkpt lat="44.38424" lon="6.39197">
        <ele>1941.4000244141</ele>
        <time>2016-07-18T09:11:15.000Z</time>
      </trkpt>
      <trkpt lat="44.38413" lon="6.392">
        <ele>1942.4000244141</ele>
        <time>2016-07-18T09:11:24.000Z</time>
      </trkpt>
      <trkpt lat="44.384" lon="6.39204">
        <ele>1943.1999511719</ele>
        <time>2016-07-18T09:11:34.000Z</time>
      </trkpt>
      <trkpt lat="44.38392" lon="6.39206">
        <ele>1943.5999755859</ele>
        <time>2016-07-18T09:11:40.000Z</time>
      </trkpt>
      <trkpt lat="44.3838" lon="6.39209">
        <ele>1944.4000244141</ele>
        <time>2016-07-18T09:11:49.000Z</time>
      </trkpt>
      <trkpt lat="44.38364" lon="6.39214">
        <ele>1945.8000488281</ele>
        <time>2016-07-18T09:12:01.000Z</time>
      </trkpt>
      <trkpt lat="44.38352" lon="6.39214">
        <ele>1945.5999755859</ele>
        <time>2016-07-18T09:12:10.000Z</time>
      </trkpt>
      <trkpt lat="44.38341" lon="6.39212">
        <ele>1945.1999511719</ele>
        <time>2016-07-18T09:12:19.000Z</time>
      </trkpt>
      <trkpt lat="44.38329" lon="6.39212">
        <ele>1944.5999755859</ele>
        <time>2016-07-18T09:12:28.000Z</time>
      </trkpt>
      <trkpt lat="44.38319" lon="6.39212">
        <ele>1944.4000244141</ele>
        <time>2016-07-18T09:12:37.000Z</time>
      </trkpt>
      <trkpt lat="44.38313" lon="6.39213">
        <ele>1944.4000244141</ele>
        <time>2016-07-18T09:12:42.000Z</time>
      </trkpt>
      <trkpt lat="44.38301" lon="6.39216">
        <ele>1944.8000488281</ele>
        <time>2016-07-18T09:12:51.000Z</time>
      </trkpt>
      <trkpt lat="44.38289" lon="6.39221">
        <ele>1945.8000488281</ele>
        <time>2016-07-18T09:13:00.000Z</time>
      </trkpt>
      <trkpt lat="44.38283" lon="6.39225">
        <ele>1947</ele>
        <time>2016-07-18T09:13:05.000Z</time>
      </trkpt>
      <trkpt lat="44.3828" lon="6.39228">
        <ele>1947.1999511719</ele>
        <time>2016-07-18T09:13:08.000Z</time>
      </trkpt>
      <trkpt lat="44.38269" lon="6.39235">
        <ele>1946</ele>
        <time>2016-07-18T09:13:17.000Z</time>
      </trkpt>
      <trkpt lat="44.38263" lon="6.39238">
        <ele>1945</ele>
        <time>2016-07-18T09:13:22.000Z</time>
      </trkpt>
      <trkpt lat="44.38255" lon="6.39241">
        <ele>1943.4000244141</ele>
        <time>2016-07-18T09:13:29.000Z</time>
      </trkpt>
      <trkpt lat="44.38248" lon="6.39245">
        <ele>1942.5999755859</ele>
        <time>2016-07-18T09:13:35.000Z</time>
      </trkpt>
      <trkpt lat="44.38241" lon="6.3925">
        <ele>1941.8000488281</ele>
        <time>2016-07-18T09:13:41.000Z</time>
      </trkpt>
      <trkpt lat="44.38234" lon="6.39255">
        <ele>1941.1999511719</ele>
        <time>2016-07-18T09:13:47.000Z</time>
      </trkpt>
      <trkpt lat="44.38213" lon="6.39276">
        <ele>1939</ele>
        <time>2016-07-18T09:14:07.000Z</time>
      </trkpt>
      <trkpt lat="44.38204" lon="6.39285">
        <ele>1937.4000244141</ele>
        <time>2016-07-18T09:14:16.000Z</time>
      </trkpt>
      <trkpt lat="44.38199" lon="6.39291">
        <ele>1936.8000488281</ele>
        <time>2016-07-18T09:14:22.000Z</time>
      </trkpt>
      <trkpt lat="44.38195" lon="6.39297">
        <ele>1937</ele>
        <time>2016-07-18T09:14:28.000Z</time>
      </trkpt>
      <trkpt lat="44.38193" lon="6.393">
        <ele>1937.5999755859</ele>
        <time>2016-07-18T09:14:30.000Z</time>
      </trkpt>
      <trkpt lat="44.38191" lon="6.39304">
        <ele>1937.8000488281</ele>
        <time>2016-07-18T09:14:32.000Z</time>
      </trkpt>
      <trkpt lat="44.38187" lon="6.39318">
        <ele>1940.4000244141</ele>
        <time>2016-07-18T09:14:40.000Z</time>
      </trkpt>
      <trkpt lat="44.38179" lon="6.3933">
        <ele>1943</ele>
        <time>2016-07-18T09:14:49.000Z</time>
      </trkpt>
      <trkpt lat="44.3817" lon="6.39344">
        <ele>1945.4000244141</ele>
        <time>2016-07-18T09:14:58.000Z</time>
      </trkpt>
      <trkpt lat="44.38161" lon="6.39362">
        <ele>1949.4000244141</ele>
        <time>2016-07-18T09:15:09.000Z</time>
      </trkpt>
      <trkpt lat="44.38153" lon="6.39374">
        <ele>1949</ele>
        <time>2016-07-18T09:15:18.000Z</time>
      </trkpt>
      <trkpt lat="44.38145" lon="6.39384">
        <ele>1948</ele>
        <time>2016-07-18T09:15:26.000Z</time>
      </trkpt>
      <trkpt lat="44.38138" lon="6.39395">
        <ele>1947.5999755859</ele>
        <time>2016-07-18T09:15:34.000Z</time>
      </trkpt>
      <trkpt lat="44.38131" lon="6.39407">
        <ele>1948.4000244141</ele>
        <time>2016-07-18T09:15:43.000Z</time>
      </trkpt>
      <trkpt lat="44.38125" lon="6.39416">
        <ele>1949.5999755859</ele>
        <time>2016-07-18T09:15:49.000Z</time>
      </trkpt>
      <trkpt lat="44.38117" lon="6.39431">
        <ele>1951.1999511719</ele>
        <time>2016-07-18T09:16:00.000Z</time>
      </trkpt>
      <trkpt lat="44.38111" lon="6.3944">
        <ele>1953.5999755859</ele>
        <time>2016-07-18T09:16:07.000Z</time>
      </trkpt>
      <trkpt lat="44.38107" lon="6.39449">
        <ele>1956.1999511719</ele>
        <time>2016-07-18T09:16:14.000Z</time>
      </trkpt>
      <trkpt lat="44.38104" lon="6.39454">
        <ele>1957.5999755859</ele>
        <time>2016-07-18T09:16:18.000Z</time>
      </trkpt>
      <trkpt lat="44.38097" lon="6.39461">
        <ele>1959.4000244141</ele>
        <time>2016-07-18T09:16:24.000Z</time>
      </trkpt>
      <trkpt lat="44.38095" lon="6.39466">
        <ele>1960.4000244141</ele>
        <time>2016-07-18T09:16:27.000Z</time>
      </trkpt>
      <trkpt lat="44.3809" lon="6.39473">
        <ele>1961.5999755859</ele>
        <time>2016-07-18T09:16:32.000Z</time>
      </trkpt>
      <trkpt lat="44.3808" lon="6.39488">
        <ele>1964.1999511719</ele>
        <time>2016-07-18T09:16:44.000Z</time>
      </trkpt>
      <trkpt lat="44.38071" lon="6.395">
        <ele>1966</ele>
        <time>2016-07-18T09:16:54.000Z</time>
      </trkpt>
      <trkpt lat="44.38061" lon="6.39509">
        <ele>1966.8000488281</ele>
        <time>2016-07-18T09:17:03.000Z</time>
      </trkpt>
      <trkpt lat="44.38049" lon="6.39518">
        <ele>1968</ele>
        <time>2016-07-18T09:17:13.000Z</time>
      </trkpt>
      <trkpt lat="44.38041" lon="6.39523">
        <ele>1968</ele>
        <time>2016-07-18T09:17:20.000Z</time>
      </trkpt>
      <trkpt lat="44.38028" lon="6.39532">
        <ele>1969.4000244141</ele>
        <time>2016-07-18T09:17:31.000Z</time>
      </trkpt>
      <trkpt lat="44.38019" lon="6.39536">
        <ele>1971.8000488281</ele>
        <time>2016-07-18T09:17:38.000Z</time>
      </trkpt>
      <trkpt lat="44.38009" lon="6.3954">
        <ele>1973.5999755859</ele>
        <time>2016-07-18T09:17:46.000Z</time>
      </trkpt>
      <trkpt lat="44.37997" lon="6.39543">
        <ele>1976</ele>
        <time>2016-07-18T09:17:56.000Z</time>
      </trkpt>
      <trkpt lat="44.37985" lon="6.39547">
        <ele>1979.1999511719</ele>
        <time>2016-07-18T09:18:06.000Z</time>
      </trkpt>
      <trkpt lat="44.37976" lon="6.39551">
        <ele>1982</ele>
        <time>2016-07-18T09:18:13.000Z</time>
      </trkpt>
      <trkpt lat="44.37967" lon="6.39554">
        <ele>1984</ele>
        <time>2016-07-18T09:18:20.000Z</time>
      </trkpt>
      <trkpt lat="44.37958" lon="6.39553">
        <ele>1984.5999755859</ele>
        <time>2016-07-18T09:18:27.000Z</time>
      </trkpt>
      <trkpt lat="44.37946" lon="6.3955">
        <ele>1984.4000244141</ele>
        <time>2016-07-18T09:18:36.000Z</time>
      </trkpt>
      <trkpt lat="44.37934" lon="6.39545">
        <ele>1986</ele>
        <time>2016-07-18T09:18:45.000Z</time>
      </trkpt>
      <trkpt lat="44.37924" lon="6.39544">
        <ele>1988.8000488281</ele>
        <time>2016-07-18T09:18:54.000Z</time>
      </trkpt>
      <trkpt lat="44.37921" lon="6.39546">
        <ele>1990.5999755859</ele>
        <time>2016-07-18T09:19:08.000Z</time>
      </trkpt>
      <trkpt lat="44.37925" lon="6.3955">
        <ele>1991.1999511719</ele>
        <time>2016-07-18T09:20:08.000Z</time>
      </trkpt>
      <trkpt lat="44.37931" lon="6.39554">
        <ele>1991.4000244141</ele>
        <time>2016-07-18T09:20:15.000Z</time>
      </trkpt>
      <trkpt lat="44.37934" lon="6.39559">
        <ele>1992.5999755859</ele>
        <time>2016-07-18T09:20:21.000Z</time>
      </trkpt>
      <trkpt lat="44.37943" lon="6.39565">
        <ele>1992.5999755859</ele>
        <time>2016-07-18T09:20:29.000Z</time>
      </trkpt>
      <trkpt lat="44.37951" lon="6.39571">
        <ele>1993.5999755859</ele>
        <time>2016-07-18T09:20:37.000Z</time>
      </trkpt>
      <trkpt lat="44.37962" lon="6.39575">
        <ele>1994.4000244141</ele>
        <time>2016-07-18T09:20:46.000Z</time>
      </trkpt>
      <trkpt lat="44.37971" lon="6.39576">
        <ele>1994</ele>
        <time>2016-07-18T09:20:54.000Z</time>
      </trkpt>
      <trkpt lat="44.37982" lon="6.39577">
        <ele>1993.4000244141</ele>
        <time>2016-07-18T09:21:03.000Z</time>
      </trkpt>
      <trkpt lat="44.37993" lon="6.39578">
        <ele>1992.5999755859</ele>
        <time>2016-07-18T09:21:12.000Z</time>
      </trkpt>
      <trkpt lat="44.38005" lon="6.39579">
        <ele>1991.8000488281</ele>
        <time>2016-07-18T09:21:22.000Z</time>
      </trkpt>
      <trkpt lat="44.38017" lon="6.3958">
        <ele>1991.4000244141</ele>
        <time>2016-07-18T09:21:32.000Z</time>
      </trkpt>
      <trkpt lat="44.38026" lon="6.3958">
        <ele>1990.5999755859</ele>
        <time>2016-07-18T09:21:39.000Z</time>
      </trkpt>
      <trkpt lat="44.38036" lon="6.39582">
        <ele>1990.5999755859</ele>
        <time>2016-07-18T09:21:47.000Z</time>
      </trkpt>
      <trkpt lat="44.38045" lon="6.39581">
        <ele>1990.1999511719</ele>
        <time>2016-07-18T09:21:55.000Z</time>
      </trkpt>
      <trkpt lat="44.38046" lon="6.3958">
        <ele>1989.5999755859</ele>
        <time>2016-07-18T09:22:04.000Z</time>
      </trkpt>
      <trkpt lat="44.38049" lon="6.39583">
        <ele>1990.8000488281</ele>
        <time>2016-07-18T09:22:13.000Z</time>
      </trkpt>
      <trkpt lat="44.38054" lon="6.39585">
        <ele>1992.4000244141</ele>
        <time>2016-07-18T09:22:18.000Z</time>
      </trkpt>
      <trkpt lat="44.38059" lon="6.39586">
        <ele>1994</ele>
        <time>2016-07-18T09:22:22.000Z</time>
      </trkpt>
      <trkpt lat="44.38061" lon="6.39592">
        <ele>1995.5999755859</ele>
        <time>2016-07-18T09:22:28.000Z</time>
      </trkpt>
      <trkpt lat="44.38063" lon="6.39594">
        <ele>1996.4000244141</ele>
        <time>2016-07-18T09:22:30.000Z</time>
      </trkpt>
      <trkpt lat="44.38067" lon="6.39599">
        <ele>1998.4000244141</ele>
        <time>2016-07-18T09:22:35.000Z</time>
      </trkpt>
      <trkpt lat="44.38075" lon="6.39605">
        <ele>2001.5999755859</ele>
        <time>2016-07-18T09:22:43.000Z</time>
      </trkpt>
      <trkpt lat="44.38078" lon="6.3961">
        <ele>2003.4000244141</ele>
        <time>2016-07-18T09:22:48.000Z</time>
      </trkpt>
      <trkpt lat="44.38079" lon="6.39611">
        <ele>2003.8000488281</ele>
        <time>2016-07-18T09:22:49.000Z</time>
      </trkpt>
      <trkpt lat="44.38079" lon="6.39616">
        <ele>2005.5999755859</ele>
        <time>2016-07-18T09:22:54.000Z</time>
      </trkpt>
      <trkpt lat="44.38081" lon="6.39618">
        <ele>2006.8000488281</ele>
        <time>2016-07-18T09:22:57.000Z</time>
      </trkpt>
      <trkpt lat="44.3809" lon="6.39615">
        <ele>2007</ele>
        <time>2016-07-18T09:23:06.000Z</time>
      </trkpt>
      <trkpt lat="44.38097" lon="6.39608">
        <ele>2007.1999511719</ele>
        <time>2016-07-18T09:23:14.000Z</time>
      </trkpt>
      <trkpt lat="44.381" lon="6.39607">
        <ele>2007.8000488281</ele>
        <time>2016-07-18T09:23:17.000Z</time>
      </trkpt>
      <trkpt lat="44.38105" lon="6.39609">
        <ele>2009.4000244141</ele>
        <time>2016-07-18T09:23:22.000Z</time>
      </trkpt>
      <trkpt lat="44.38107" lon="6.39608">
        <ele>2009.5999755859</ele>
        <time>2016-07-18T09:23:24.000Z</time>
      </trkpt>
      <trkpt lat="44.38111" lon="6.39604">
        <ele>2009.5999755859</ele>
        <time>2016-07-18T09:23:28.000Z</time>
      </trkpt>
      <trkpt lat="44.38119" lon="6.39607">
        <ele>2012.1999511719</ele>
        <time>2016-07-18T09:23:36.000Z</time>
      </trkpt>
      <trkpt lat="44.38121" lon="6.39607">
        <ele>2012.8000488281</ele>
        <time>2016-07-18T09:23:38.000Z</time>
      </trkpt>
      <trkpt lat="44.38124" lon="6.3961">
        <ele>2014.4000244141</ele>
        <time>2016-07-18T09:23:42.000Z</time>
      </trkpt>
      <trkpt lat="44.38126" lon="6.39612">
        <ele>2015.4000244141</ele>
        <time>2016-07-18T09:23:46.000Z</time>
      </trkpt>
      <trkpt lat="44.3813" lon="6.3961">
        <ele>2016.4000244141</ele>
        <time>2016-07-18T09:23:50.000Z</time>
      </trkpt>
      <trkpt lat="44.38133" lon="6.39614">
        <ele>2018</ele>
        <time>2016-07-18T09:23:54.000Z</time>
      </trkpt>
      <trkpt lat="44.38136" lon="6.39617">
        <ele>2019.1999511719</ele>
        <time>2016-07-18T09:23:58.000Z</time>
      </trkpt>
      <trkpt lat="44.38138" lon="6.3962">
        <ele>2020.4000244141</ele>
        <time>2016-07-18T09:24:01.000Z</time>
      </trkpt>
      <trkpt lat="44.38143" lon="6.39627">
        <ele>2023.5999755859</ele>
        <time>2016-07-18T09:24:08.000Z</time>
      </trkpt>
      <trkpt lat="44.38147" lon="6.39639">
        <ele>2027.1999511719</ele>
        <time>2016-07-18T09:24:16.000Z</time>
      </trkpt>
      <trkpt lat="44.38152" lon="6.39643">
        <ele>2029.4000244141</ele>
        <time>2016-07-18T09:24:22.000Z</time>
      </trkpt>
      <trkpt lat="44.38154" lon="6.39646">
        <ele>2031</ele>
        <time>2016-07-18T09:24:26.000Z</time>
      </trkpt>
      <trkpt lat="44.38155" lon="6.3965">
        <ele>2031.8000488281</ele>
        <time>2016-07-18T09:24:28.000Z</time>
      </trkpt>
      <trkpt lat="44.38154" lon="6.39655">
        <ele>2032.4000244141</ele>
        <time>2016-07-18T09:24:32.000Z</time>
      </trkpt>
      <trkpt lat="44.38155" lon="6.39662">
        <ele>2033.8000488281</ele>
        <time>2016-07-18T09:24:37.000Z</time>
      </trkpt>
      <trkpt lat="44.38154" lon="6.39668">
        <ele>2034.8000488281</ele>
        <time>2016-07-18T09:24:42.000Z</time>
      </trkpt>
      <trkpt lat="44.38155" lon="6.39673">
        <ele>2035.5999755859</ele>
        <time>2016-07-18T09:24:46.000Z</time>
      </trkpt>
      <trkpt lat="44.38157" lon="6.39674">
        <ele>2036.4000244141</ele>
        <time>2016-07-18T09:24:49.000Z</time>
      </trkpt>
      <trkpt lat="44.38163" lon="6.39671">
        <ele>2037.8000488281</ele>
        <time>2016-07-18T09:24:56.000Z</time>
      </trkpt>
      <trkpt lat="44.38165" lon="6.39673">
        <ele>2038.5999755859</ele>
        <time>2016-07-18T09:24:58.000Z</time>
      </trkpt>
      <trkpt lat="44.38167" lon="6.39678">
        <ele>2040</ele>
        <time>2016-07-18T09:25:03.000Z</time>
      </trkpt>
      <trkpt lat="44.38174" lon="6.3968">
        <ele>2042.4000244141</ele>
        <time>2016-07-18T09:25:11.000Z</time>
      </trkpt>
      <trkpt lat="44.38176" lon="6.39681">
        <ele>2043.1999511719</ele>
        <time>2016-07-18T09:25:13.000Z</time>
      </trkpt>
      <trkpt lat="44.38177" lon="6.39683">
        <ele>2043.8000488281</ele>
        <time>2016-07-18T09:25:15.000Z</time>
      </trkpt>
      <trkpt lat="44.38182" lon="6.39685">
        <ele>2045.4000244141</ele>
        <time>2016-07-18T09:25:20.000Z</time>
      </trkpt>
      <trkpt lat="44.38187" lon="6.39692">
        <ele>2048.1999511719</ele>
        <time>2016-07-18T09:25:28.000Z</time>
      </trkpt>
      <trkpt lat="44.38188" lon="6.39692">
        <ele>2048.6000976562</ele>
        <time>2016-07-18T09:25:29.000Z</time>
      </trkpt>
      <trkpt lat="44.38192" lon="6.39698">
        <ele>2050.8000488281</ele>
        <time>2016-07-18T09:25:35.000Z</time>
      </trkpt>
      <trkpt lat="44.38195" lon="6.39703">
        <ele>2052.1999511719</ele>
        <time>2016-07-18T09:25:40.000Z</time>
      </trkpt>
      <trkpt lat="44.382" lon="6.39704">
        <ele>2053.8000488281</ele>
        <time>2016-07-18T09:25:45.000Z</time>
      </trkpt>
      <trkpt lat="44.382" lon="6.39703">
        <ele>2054</ele>
        <time>2016-07-18T09:25:46.000Z</time>
      </trkpt>
      <trkpt lat="44.38205" lon="6.39704">
        <ele>2055.3999023438</ele>
        <time>2016-07-18T09:25:52.000Z</time>
      </trkpt>
      <trkpt lat="44.38204" lon="6.39705">
        <ele>2055.3999023438</ele>
        <time>2016-07-18T09:25:54.000Z</time>
      </trkpt>
      <trkpt lat="44.38202" lon="6.39711">
        <ele>2055.8000488281</ele>
        <time>2016-07-18T09:25:59.000Z</time>
      </trkpt>
      <trkpt lat="44.38201" lon="6.39716">
        <ele>2056.3999023438</ele>
        <time>2016-07-18T09:26:02.000Z</time>
      </trkpt>
      <trkpt lat="44.38206" lon="6.3972">
        <ele>2058.3999023438</ele>
        <time>2016-07-18T09:26:09.000Z</time>
      </trkpt>
      <trkpt lat="44.38207" lon="6.39722">
        <ele>2059.1999511719</ele>
        <time>2016-07-18T09:26:12.000Z</time>
      </trkpt>
      <trkpt lat="44.38211" lon="6.39726">
        <ele>2061</ele>
        <time>2016-07-18T09:26:18.000Z</time>
      </trkpt>
      <trkpt lat="44.38212" lon="6.39727">
        <ele>2061.3999023438</ele>
        <time>2016-07-18T09:26:19.000Z</time>
      </trkpt>
      <trkpt lat="44.38217" lon="6.3973">
        <ele>2063.8000488281</ele>
        <time>2016-07-18T09:26:26.000Z</time>
      </trkpt>
      <trkpt lat="44.38224" lon="6.39734">
        <ele>2066.1999511719</ele>
        <time>2016-07-18T09:26:33.000Z</time>
      </trkpt>
      <trkpt lat="44.38229" lon="6.3974">
        <ele>2068</ele>
        <time>2016-07-18T09:26:40.000Z</time>
      </trkpt>
      <trkpt lat="44.3823" lon="6.39743">
        <ele>2068.1999511719</ele>
        <time>2016-07-18T09:26:45.000Z</time>
      </trkpt>
      <trkpt lat="44.38231" lon="6.39745">
        <ele>2068.8000488281</ele>
        <time>2016-07-18T09:26:47.000Z</time>
      </trkpt>
      <trkpt lat="44.38236" lon="6.39752">
        <ele>2070.8000488281</ele>
        <time>2016-07-18T09:26:54.000Z</time>
      </trkpt>
      <trkpt lat="44.38238" lon="6.39753">
        <ele>2071.1999511719</ele>
        <time>2016-07-18T09:26:55.000Z</time>
      </trkpt>
      <trkpt lat="44.3824" lon="6.39756">
        <ele>2072</ele>
        <time>2016-07-18T09:26:58.000Z</time>
      </trkpt>
      <trkpt lat="44.38243" lon="6.39756">
        <ele>2073</ele>
        <time>2016-07-18T09:27:01.000Z</time>
      </trkpt>
      <trkpt lat="44.3825" lon="6.39762">
        <ele>2075.1999511719</ele>
        <time>2016-07-18T09:27:08.000Z</time>
      </trkpt>
      <trkpt lat="44.38256" lon="6.39768">
        <ele>2077.1999511719</ele>
        <time>2016-07-18T09:27:15.000Z</time>
      </trkpt>
      <trkpt lat="44.38258" lon="6.39771">
        <ele>2078.1999511719</ele>
        <time>2016-07-18T09:27:20.000Z</time>
      </trkpt>
      <trkpt lat="44.38262" lon="6.39781">
        <ele>2079.8000488281</ele>
        <time>2016-07-18T09:27:28.000Z</time>
      </trkpt>
      <trkpt lat="44.38263" lon="6.39782">
        <ele>2080</ele>
        <time>2016-07-18T09:27:29.000Z</time>
      </trkpt>
      <trkpt lat="44.38267" lon="6.39787">
        <ele>2081.6000976562</ele>
        <time>2016-07-18T09:27:34.000Z</time>
      </trkpt>
      <trkpt lat="44.38269" lon="6.39794">
        <ele>2082.3999023438</ele>
        <time>2016-07-18T09:27:40.000Z</time>
      </trkpt>
      <trkpt lat="44.3827" lon="6.39796">
        <ele>2082.6000976562</ele>
        <time>2016-07-18T09:27:42.000Z</time>
      </trkpt>
      <trkpt lat="44.38271" lon="6.39805">
        <ele>2083.3999023438</ele>
        <time>2016-07-18T09:27:48.000Z</time>
      </trkpt>
      <trkpt lat="44.38274" lon="6.39817">
        <ele>2086.8000488281</ele>
        <time>2016-07-18T09:27:57.000Z</time>
      </trkpt>
      <trkpt lat="44.38275" lon="6.39818">
        <ele>2087</ele>
        <time>2016-07-18T09:27:58.000Z</time>
      </trkpt>
      <trkpt lat="44.38278" lon="6.39824">
        <ele>2088.8000488281</ele>
        <time>2016-07-18T09:28:05.000Z</time>
      </trkpt>
      <trkpt lat="44.38278" lon="6.39831">
        <ele>2090.3999023438</ele>
        <time>2016-07-18T09:28:10.000Z</time>
      </trkpt>
      <trkpt lat="44.38275" lon="6.39835">
        <ele>2091.1999511719</ele>
        <time>2016-07-18T09:28:15.000Z</time>
      </trkpt>
      <trkpt lat="44.38272" lon="6.39845">
        <ele>2093.1999511719</ele>
        <time>2016-07-18T09:28:22.000Z</time>
      </trkpt>
      <trkpt lat="44.38272" lon="6.39847">
        <ele>2093.6000976562</ele>
        <time>2016-07-18T09:28:24.000Z</time>
      </trkpt>
      <trkpt lat="44.38265" lon="6.39852">
        <ele>2094.1999511719</ele>
        <time>2016-07-18T09:28:30.000Z</time>
      </trkpt>
      <trkpt lat="44.38259" lon="6.39858">
        <ele>2095.1999511719</ele>
        <time>2016-07-18T09:28:36.000Z</time>
      </trkpt>
      <trkpt lat="44.38253" lon="6.39868">
        <ele>2097</ele>
        <time>2016-07-18T09:28:43.000Z</time>
      </trkpt>
      <trkpt lat="44.38252" lon="6.39871">
        <ele>2097.6000976562</ele>
        <time>2016-07-18T09:28:45.000Z</time>
      </trkpt>
      <trkpt lat="44.38251" lon="6.39873">
        <ele>2098.3999023438</ele>
        <time>2016-07-18T09:28:47.000Z</time>
      </trkpt>
      <trkpt lat="44.38258" lon="6.39878">
        <ele>2100</ele>
        <time>2016-07-18T09:28:56.000Z</time>
      </trkpt>
      <trkpt lat="44.3826" lon="6.39878">
        <ele>2100</ele>
        <time>2016-07-18T09:28:59.000Z</time>
      </trkpt>
      <trkpt lat="44.38265" lon="6.39876">
        <ele>2100</ele>
        <time>2016-07-18T09:29:05.000Z</time>
      </trkpt>
      <trkpt lat="44.38268" lon="6.3988">
        <ele>2101.1999511719</ele>
        <time>2016-07-18T09:29:10.000Z</time>
      </trkpt>
      <trkpt lat="44.38275" lon="6.39881">
        <ele>2102.1999511719</ele>
        <time>2016-07-18T09:29:16.000Z</time>
      </trkpt>
      <trkpt lat="44.3828" lon="6.39885">
        <ele>2103.6000976562</ele>
        <time>2016-07-18T09:29:21.000Z</time>
      </trkpt>
      <trkpt lat="44.38285" lon="6.39887">
        <ele>2104.1999511719</ele>
        <time>2016-07-18T09:29:26.000Z</time>
      </trkpt>
      <trkpt lat="44.38296" lon="6.3989">
        <ele>2105</ele>
        <time>2016-07-18T09:29:36.000Z</time>
      </trkpt>
      <trkpt lat="44.38303" lon="6.39894">
        <ele>2106</ele>
        <time>2016-07-18T09:29:41.000Z</time>
      </trkpt>
      <trkpt lat="44.38308" lon="6.39895">
        <ele>2106.1999511719</ele>
        <time>2016-07-18T09:29:45.000Z</time>
      </trkpt>
      <trkpt lat="44.3832" lon="6.39898">
        <ele>2106.8000488281</ele>
        <time>2016-07-18T09:29:54.000Z</time>
      </trkpt>
      <trkpt lat="44.38327" lon="6.399">
        <ele>2107</ele>
        <time>2016-07-18T09:30:00.000Z</time>
      </trkpt>
      <trkpt lat="44.38329" lon="6.39908">
        <ele>2107.1999511719</ele>
        <time>2016-07-18T09:30:06.000Z</time>
      </trkpt>
      <trkpt lat="44.38327" lon="6.3991">
        <ele>2107.1999511719</ele>
        <time>2016-07-18T09:30:21.000Z</time>
      </trkpt>
      <trkpt lat="44.38322" lon="6.39907">
        <ele>2107.1999511719</ele>
        <time>2016-07-18T09:30:27.000Z</time>
      </trkpt>
      <trkpt lat="44.38321" lon="6.39907">
        <ele>2107.1999511719</ele>
        <time>2016-07-18T09:30:34.000Z</time>
      </trkpt>
      <trkpt lat="44.3832" lon="6.39907">
        <ele>2107.1999511719</ele>
        <time>2016-07-18T09:30:42.000Z</time>
      </trkpt>
      <trkpt lat="44.38323" lon="6.39911">
        <ele>2107.3999023438</ele>
        <time>2016-07-18T09:30:52.000Z</time>
      </trkpt>
      <trkpt lat="44.38325" lon="6.3991">
        <ele>2107.1999511719</ele>
        <time>2016-07-18T09:30:59.000Z</time>
      </trkpt>
      <trkpt lat="44.3832" lon="6.39905">
        <ele>2107.1999511719</ele>
        <time>2016-07-18T09:31:06.000Z</time>
      </trkpt>
      <trkpt lat="44.38317" lon="6.39902">
        <ele>2107</ele>
        <time>2016-07-18T09:31:10.000Z</time>
      </trkpt>
      <trkpt lat="44.3832" lon="6.399">
        <ele>2107</ele>
        <time>2016-07-18T09:31:16.000Z</time>
      </trkpt>
      <trkpt lat="44.38321" lon="6.39901">
        <ele>2107</ele>
        <time>2016-07-18T09:31:17.000Z</time>
      </trkpt>
      <trkpt lat="44.38322" lon="6.39903">
        <ele>2107.1999511719</ele>
        <time>2016-07-18T09:31:24.000Z</time>
      </trkpt>
      <trkpt lat="44.38321" lon="6.39905">
        <ele>2107.1999511719</ele>
        <time>2016-07-18T09:31:26.000Z</time>
      </trkpt>
      <trkpt lat="44.3832" lon="6.39906">
        <ele>2107.1999511719</ele>
        <time>2016-07-18T09:31:33.000Z</time>
      </trkpt>
      <trkpt lat="44.38321" lon="6.39906">
        <ele>2107.1999511719</ele>
        <time>2016-07-18T09:31:45.000Z</time>
      </trkpt>
      <trkpt lat="44.38326" lon="6.39911">
        <ele>2107.3999023438</ele>
        <time>2016-07-18T09:32:32.000Z</time>
      </trkpt>
      <trkpt lat="44.38328" lon="6.39921">
        <ele>2107.6000976562</ele>
        <time>2016-07-18T09:32:39.000Z</time>
      </trkpt>
      <trkpt lat="44.38327" lon="6.39932">
        <ele>2107.8000488281</ele>
        <time>2016-07-18T09:32:47.000Z</time>
      </trkpt>
      <trkpt lat="44.38331" lon="6.39927">
        <ele>2107.6000976562</ele>
        <time>2016-07-18T09:33:00.000Z</time>
      </trkpt>
      <trkpt lat="44.38332" lon="6.39923">
        <ele>2107.6000976562</ele>
        <time>2016-07-18T09:33:03.000Z</time>
      </trkpt>
      <trkpt lat="44.38332" lon="6.39921">
        <ele>2107.6000976562</ele>
        <time>2016-07-18T09:33:05.000Z</time>
      </trkpt>
      <trkpt lat="44.38333" lon="6.39922">
        <ele>2107.6000976562</ele>
        <time>2016-07-18T09:33:10.000Z</time>
      </trkpt>
      <trkpt lat="44.38333" lon="6.39925">
        <ele>2107.6000976562</ele>
        <time>2016-07-18T09:33:17.000Z</time>
      </trkpt>
      <trkpt lat="44.38332" lon="6.39923">
        <ele>2107.6000976562</ele>
        <time>2016-07-18T09:35:57.000Z</time>
      </trkpt>
      <trkpt lat="44.38331" lon="6.39922">
        <ele>2107.6000976562</ele>
        <time>2016-07-18T09:36:08.000Z</time>
      </trkpt>
      <trkpt lat="44.38331" lon="6.39923">
        <ele>2107.6000976562</ele>
        <time>2016-07-18T09:36:14.000Z</time>
      </trkpt>
      <trkpt lat="44.38337" lon="6.3993">
        <ele>2107.8000488281</ele>
        <time>2016-07-18T09:36:22.000Z</time>
      </trkpt>
      <trkpt lat="44.38346" lon="6.39938">
        <ele>2108</ele>
        <time>2016-07-18T09:36:30.000Z</time>
      </trkpt>
      <trkpt lat="44.38354" lon="6.39947">
        <ele>2108.1999511719</ele>
        <time>2016-07-18T09:36:38.000Z</time>
      </trkpt>
      <trkpt lat="44.38361" lon="6.39953">
        <ele>2108.3999023438</ele>
        <time>2016-07-18T09:36:45.000Z</time>
      </trkpt>
      <trkpt lat="44.3837" lon="6.39957">
        <ele>2108.3999023438</ele>
        <time>2016-07-18T09:36:52.000Z</time>
      </trkpt>
      <trkpt lat="44.38378" lon="6.39961">
        <ele>2108.6000976562</ele>
        <time>2016-07-18T09:36:58.000Z</time>
      </trkpt>
      <trkpt lat="44.38388" lon="6.39966">
        <ele>2108.8000488281</ele>
        <time>2016-07-18T09:37:06.000Z</time>
      </trkpt>
      <trkpt lat="44.38398" lon="6.39971">
        <ele>2109.1999511719</ele>
        <time>2016-07-18T09:37:14.000Z</time>
      </trkpt>
      <trkpt lat="44.38406" lon="6.39976">
        <ele>2109.3999023438</ele>
        <time>2016-07-18T09:37:21.000Z</time>
      </trkpt>
      <trkpt lat="44.38417" lon="6.39981">
        <ele>2109.6000976562</ele>
        <time>2016-07-18T09:37:30.000Z</time>
      </trkpt>
      <trkpt lat="44.38422" lon="6.39981">
        <ele>2109.6000976562</ele>
        <time>2016-07-18T09:37:34.000Z</time>
      </trkpt>
      <trkpt lat="44.38434" lon="6.39986">
        <ele>2109.6000976562</ele>
        <time>2016-07-18T09:37:43.000Z</time>
      </trkpt>
      <trkpt lat="44.38446" lon="6.39991">
        <ele>2109.6000976562</ele>
        <time>2016-07-18T09:37:53.000Z</time>
      </trkpt>
      <trkpt lat="44.38456" lon="6.39997">
        <ele>2109.8000488281</ele>
        <time>2016-07-18T09:38:02.000Z</time>
      </trkpt>
      <trkpt lat="44.38466" lon="6.40004">
        <ele>2110</ele>
        <time>2016-07-18T09:38:11.000Z</time>
      </trkpt>
      <trkpt lat="44.38474" lon="6.40008">
        <ele>2110.1999511719</ele>
        <time>2016-07-18T09:38:18.000Z</time>
      </trkpt>
      <trkpt lat="44.38484" lon="6.40013">
        <ele>2110.3999023438</ele>
        <time>2016-07-18T09:38:26.000Z</time>
      </trkpt>
      <trkpt lat="44.38495" lon="6.40021">
        <ele>2110.6000976562</ele>
        <time>2016-07-18T09:38:35.000Z</time>
      </trkpt>
      <trkpt lat="44.38503" lon="6.40027">
        <ele>2110.8000488281</ele>
        <time>2016-07-18T09:38:42.000Z</time>
      </trkpt>
      <trkpt lat="44.38511" lon="6.40032">
        <ele>2111</ele>
        <time>2016-07-18T09:38:49.000Z</time>
      </trkpt>
      <trkpt lat="44.38522" lon="6.40035">
        <ele>2111.1999511719</ele>
        <time>2016-07-18T09:38:58.000Z</time>
      </trkpt>
      <trkpt lat="44.38533" lon="6.40042">
        <ele>2111.1999511719</ele>
        <time>2016-07-18T09:39:07.000Z</time>
      </trkpt>
      <trkpt lat="44.3854" lon="6.40053">
        <ele>2111.1999511719</ele>
        <time>2016-07-18T09:39:16.000Z</time>
      </trkpt>
      <trkpt lat="44.38548" lon="6.40064">
        <ele>2111</ele>
        <time>2016-07-18T09:39:25.000Z</time>
      </trkpt>
      <trkpt lat="44.38554" lon="6.40072">
        <ele>2110.6000976562</ele>
        <time>2016-07-18T09:39:32.000Z</time>
      </trkpt>
      <trkpt lat="44.38558" lon="6.40074">
        <ele>2110.6000976562</ele>
        <time>2016-07-18T09:39:38.000Z</time>
      </trkpt>
      <trkpt lat="44.38558" lon="6.40076">
        <ele>2110.3999023438</ele>
        <time>2016-07-18T09:39:45.000Z</time>
      </trkpt>
      <trkpt lat="44.38559" lon="6.40086">
        <ele>2110</ele>
        <time>2016-07-18T09:39:52.000Z</time>
      </trkpt>
      <trkpt lat="44.38565" lon="6.40097">
        <ele>2109.3999023438</ele>
        <time>2016-07-18T09:40:01.000Z</time>
      </trkpt>
      <trkpt lat="44.38571" lon="6.40106">
        <ele>2109</ele>
        <time>2016-07-18T09:40:08.000Z</time>
      </trkpt>
      <trkpt lat="44.38579" lon="6.40113">
        <ele>2108.8000488281</ele>
        <time>2016-07-18T09:40:16.000Z</time>
      </trkpt>
      <trkpt lat="44.3859" lon="6.4012">
        <ele>2108.3999023438</ele>
        <time>2016-07-18T09:40:26.000Z</time>
      </trkpt>
      <trkpt lat="44.38596" lon="6.40125">
        <ele>2108.1999511719</ele>
        <time>2016-07-18T09:40:32.000Z</time>
      </trkpt>
      <trkpt lat="44.38603" lon="6.40129">
        <ele>2108</ele>
        <time>2016-07-18T09:40:39.000Z</time>
      </trkpt>
      <trkpt lat="44.38605" lon="6.40128">
        <ele>2108</ele>
        <time>2016-07-18T09:40:46.000Z</time>
      </trkpt>
      <trkpt lat="44.38604" lon="6.40128">
        <ele>2108</ele>
        <time>2016-07-18T09:40:50.000Z</time>
      </trkpt>
      <trkpt lat="44.38609" lon="6.40128">
        <ele>2108</ele>
        <time>2016-07-18T09:40:57.000Z</time>
      </trkpt>
      <trkpt lat="44.38618" lon="6.40132">
        <ele>2107.3999023438</ele>
        <time>2016-07-18T09:41:04.000Z</time>
      </trkpt>
      <trkpt lat="44.38629" lon="6.40139">
        <ele>2105.6000976562</ele>
        <time>2016-07-18T09:41:12.000Z</time>
      </trkpt>
      <trkpt lat="44.38641" lon="6.40144">
        <ele>2103.8000488281</ele>
        <time>2016-07-18T09:41:21.000Z</time>
      </trkpt>
      <trkpt lat="44.38651" lon="6.40147">
        <ele>2102.3999023438</ele>
        <time>2016-07-18T09:41:27.000Z</time>
      </trkpt>
      <trkpt lat="44.38662" lon="6.40157">
        <ele>2100.6000976562</ele>
        <time>2016-07-18T09:41:36.000Z</time>
      </trkpt>
      <trkpt lat="44.38671" lon="6.40159">
        <ele>2099.1999511719</ele>
        <time>2016-07-18T09:41:43.000Z</time>
      </trkpt>
      <trkpt lat="44.38681" lon="6.40161">
        <ele>2097.8000488281</ele>
        <time>2016-07-18T09:41:50.000Z</time>
      </trkpt>
      <trkpt lat="44.38697" lon="6.40161">
        <ele>2095.8000488281</ele>
        <time>2016-07-18T09:42:01.000Z</time>
      </trkpt>
      <trkpt lat="44.38711" lon="6.40159">
        <ele>2095.6000976562</ele>
        <time>2016-07-18T09:42:11.000Z</time>
      </trkpt>
      <trkpt lat="44.38723" lon="6.40162">
        <ele>2095.3999023438</ele>
        <time>2016-07-18T09:42:20.000Z</time>
      </trkpt>
      <trkpt lat="44.38734" lon="6.40164">
        <ele>2095.3999023438</ele>
        <time>2016-07-18T09:42:28.000Z</time>
      </trkpt>
      <trkpt lat="44.38748" lon="6.40165">
        <ele>2095.3999023438</ele>
        <time>2016-07-18T09:42:38.000Z</time>
      </trkpt>
      <trkpt lat="44.38753" lon="6.40166">
        <ele>2095.3999023438</ele>
        <time>2016-07-18T09:42:58.000Z</time>
      </trkpt>
      <trkpt lat="44.38762" lon="6.40165">
        <ele>2095.3999023438</ele>
        <time>2016-07-18T09:43:05.000Z</time>
      </trkpt>
      <trkpt lat="44.38773" lon="6.40161">
        <ele>2095.6000976562</ele>
        <time>2016-07-18T09:43:13.000Z</time>
      </trkpt>
      <trkpt lat="44.38782" lon="6.4016">
        <ele>2095.6000976562</ele>
        <time>2016-07-18T09:43:20.000Z</time>
      </trkpt>
      <trkpt lat="44.38788" lon="6.40159">
        <ele>2095.3999023438</ele>
        <time>2016-07-18T09:43:25.000Z</time>
      </trkpt>
      <trkpt lat="44.38793" lon="6.40159">
        <ele>2095.3999023438</ele>
        <time>2016-07-18T09:43:29.000Z</time>
      </trkpt>
      <trkpt lat="44.38801" lon="6.40153">
        <ele>2095.8000488281</ele>
        <time>2016-07-18T09:43:36.000Z</time>
      </trkpt>
      <trkpt lat="44.38814" lon="6.4015">
        <ele>2096.3999023438</ele>
        <time>2016-07-18T09:43:45.000Z</time>
      </trkpt>
      <trkpt lat="44.38822" lon="6.40148">
        <ele>2096.3999023438</ele>
        <time>2016-07-18T09:43:52.000Z</time>
      </trkpt>
      <trkpt lat="44.38833" lon="6.40148">
        <ele>2096.6000976562</ele>
        <time>2016-07-18T09:44:00.000Z</time>
      </trkpt>
      <trkpt lat="44.38842" lon="6.40142">
        <ele>2097.3999023438</ele>
        <time>2016-07-18T09:44:07.000Z</time>
      </trkpt>
      <trkpt lat="44.38855" lon="6.40138">
        <ele>2098</ele>
        <time>2016-07-18T09:44:16.000Z</time>
      </trkpt>
      <trkpt lat="44.38857" lon="6.40137">
        <ele>2098.1999511719</ele>
        <time>2016-07-18T09:44:18.000Z</time>
      </trkpt>
      <trkpt lat="44.38862" lon="6.40136">
        <ele>2098.6000976562</ele>
        <time>2016-07-18T09:44:25.000Z</time>
      </trkpt>
      <trkpt lat="44.38878" lon="6.40132">
        <ele>2099.6000976562</ele>
        <time>2016-07-18T09:44:36.000Z</time>
      </trkpt>
      <trkpt lat="44.3889" lon="6.4013">
        <ele>2100.1999511719</ele>
        <time>2016-07-18T09:44:45.000Z</time>
      </trkpt>
      <trkpt lat="44.38904" lon="6.40125">
        <ele>2101.1999511719</ele>
        <time>2016-07-18T09:44:55.000Z</time>
      </trkpt>
      <trkpt lat="44.38907" lon="6.40124">
        <ele>2101.6000976562</ele>
        <time>2016-07-18T09:44:58.000Z</time>
      </trkpt>
      <trkpt lat="44.38911" lon="6.40124">
        <ele>2101.6000976562</ele>
        <time>2016-07-18T09:45:01.000Z</time>
      </trkpt>
      <trkpt lat="44.38918" lon="6.4012">
        <ele>2102.3999023438</ele>
        <time>2016-07-18T09:45:06.000Z</time>
      </trkpt>
      <trkpt lat="44.38919" lon="6.4012">
        <ele>2102.3999023438</ele>
        <time>2016-07-18T09:45:07.000Z</time>
      </trkpt>
      <trkpt lat="44.38926" lon="6.40118">
        <ele>2102.6000976562</ele>
        <time>2016-07-18T09:45:13.000Z</time>
      </trkpt>
      <trkpt lat="44.38935" lon="6.40117">
        <ele>2102.8000488281</ele>
        <time>2016-07-18T09:45:20.000Z</time>
      </trkpt>
      <trkpt lat="44.38941" lon="6.40118">
        <ele>2102.6000976562</ele>
        <time>2016-07-18T09:45:25.000Z</time>
      </trkpt>
      <trkpt lat="44.38947" lon="6.40117">
        <ele>2102.8000488281</ele>
        <time>2016-07-18T09:45:30.000Z</time>
      </trkpt>
      <trkpt lat="44.3895" lon="6.40116">
        <ele>2103</ele>
        <time>2016-07-18T09:45:32.000Z</time>
      </trkpt>
      <trkpt lat="44.3896" lon="6.40113">
        <ele>2104.3999023438</ele>
        <time>2016-07-18T09:45:40.000Z</time>
      </trkpt>
      <trkpt lat="44.3897" lon="6.40111">
        <ele>2105.1999511719</ele>
        <time>2016-07-18T09:45:47.000Z</time>
      </trkpt>
      <trkpt lat="44.38991" lon="6.40121">
        <ele>2105.8000488281</ele>
        <time>2016-07-18T09:46:03.000Z</time>
      </trkpt>
      <trkpt lat="44.38998" lon="6.40127">
        <ele>2105.8000488281</ele>
        <time>2016-07-18T09:46:09.000Z</time>
      </trkpt>
      <trkpt lat="44.39002" lon="6.40137">
        <ele>2104.8000488281</ele>
        <time>2016-07-18T09:46:15.000Z</time>
      </trkpt>
      <trkpt lat="44.39006" lon="6.40145">
        <ele>2104.3999023438</ele>
        <time>2016-07-18T09:46:21.000Z</time>
      </trkpt>
      <trkpt lat="44.39007" lon="6.40146">
        <ele>2104.1999511719</ele>
        <time>2016-07-18T09:46:22.000Z</time>
      </trkpt>
      <trkpt lat="44.39017" lon="6.4015">
        <ele>2104.6000976562</ele>
        <time>2016-07-18T09:46:30.000Z</time>
      </trkpt>
      <trkpt lat="44.39027" lon="6.40145">
        <ele>2106</ele>
        <time>2016-07-18T09:46:38.000Z</time>
      </trkpt>
      <trkpt lat="44.39035" lon="6.40139">
        <ele>2107.8000488281</ele>
        <time>2016-07-18T09:46:45.000Z</time>
      </trkpt>
      <trkpt lat="44.39045" lon="6.40129">
        <ele>2110.8000488281</ele>
        <time>2016-07-18T09:46:54.000Z</time>
      </trkpt>
      <trkpt lat="44.39055" lon="6.40121">
        <ele>2113.8000488281</ele>
        <time>2016-07-18T09:47:03.000Z</time>
      </trkpt>
      <trkpt lat="44.39063" lon="6.40115">
        <ele>2115.8000488281</ele>
        <time>2016-07-18T09:47:10.000Z</time>
      </trkpt>
      <trkpt lat="44.39071" lon="6.40112">
        <ele>2117.3999023438</ele>
        <time>2016-07-18T09:47:17.000Z</time>
      </trkpt>
      <trkpt lat="44.39083" lon="6.40108">
        <ele>2119.6000976562</ele>
        <time>2016-07-18T09:47:26.000Z</time>
      </trkpt>
      <trkpt lat="44.39094" lon="6.40108">
        <ele>2121.1999511719</ele>
        <time>2016-07-18T09:47:35.000Z</time>
      </trkpt>
      <trkpt lat="44.39101" lon="6.40115">
        <ele>2121.1999511719</ele>
        <time>2016-07-18T09:47:42.000Z</time>
      </trkpt>
      <trkpt lat="44.39102" lon="6.40117">
        <ele>2121</ele>
        <time>2016-07-18T09:47:43.000Z</time>
      </trkpt>
      <trkpt lat="44.39108" lon="6.40126">
        <ele>2120.3999023438</ele>
        <time>2016-07-18T09:47:51.000Z</time>
      </trkpt>
      <trkpt lat="44.39118" lon="6.40131">
        <ele>2120.8000488281</ele>
        <time>2016-07-18T09:48:00.000Z</time>
      </trkpt>
      <trkpt lat="44.39126" lon="6.40132">
        <ele>2121.1999511719</ele>
        <time>2016-07-18T09:48:07.000Z</time>
      </trkpt>
      <trkpt lat="44.39134" lon="6.40133">
        <ele>2121.6000976562</ele>
        <time>2016-07-18T09:48:14.000Z</time>
      </trkpt>
      <trkpt lat="44.39144" lon="6.40132">
        <ele>2122.3999023438</ele>
        <time>2016-07-18T09:48:22.000Z</time>
      </trkpt>
      <trkpt lat="44.39154" lon="6.40128">
        <ele>2123.6000976562</ele>
        <time>2016-07-18T09:48:30.000Z</time>
      </trkpt>
      <trkpt lat="44.39163" lon="6.40122">
        <ele>2125</ele>
        <time>2016-07-18T09:48:38.000Z</time>
      </trkpt>
      <trkpt lat="44.39172" lon="6.40113">
        <ele>2126</ele>
        <time>2016-07-18T09:48:46.000Z</time>
      </trkpt>
      <trkpt lat="44.39178" lon="6.401">
        <ele>2126.6000976562</ele>
        <time>2016-07-18T09:48:54.000Z</time>
      </trkpt>
      <trkpt lat="44.39174" lon="6.40088">
        <ele>2127.3999023438</ele>
        <time>2016-07-18T09:49:01.000Z</time>
      </trkpt>
      <trkpt lat="44.39169" lon="6.40072">
        <ele>2128.6000976562</ele>
        <time>2016-07-18T09:49:10.000Z</time>
      </trkpt>
      <trkpt lat="44.39168" lon="6.40056">
        <ele>2130.6000976562</ele>
        <time>2016-07-18T09:49:19.000Z</time>
      </trkpt>
      <trkpt lat="44.39164" lon="6.40046">
        <ele>2132.3999023438</ele>
        <time>2016-07-18T09:49:27.000Z</time>
      </trkpt>
      <trkpt lat="44.39166" lon="6.40032">
        <ele>2134.6000976562</ele>
        <time>2016-07-18T09:49:34.000Z</time>
      </trkpt>
      <trkpt lat="44.39167" lon="6.40031">
        <ele>2134.6000976562</ele>
        <time>2016-07-18T09:49:35.000Z</time>
      </trkpt>
      <trkpt lat="44.39173" lon="6.40023">
        <ele>2133.6000976562</ele>
        <time>2016-07-18T09:49:42.000Z</time>
      </trkpt>
      <trkpt lat="44.39179" lon="6.40017">
        <ele>2132.6000976562</ele>
        <time>2016-07-18T09:49:49.000Z</time>
      </trkpt>
      <trkpt lat="44.39184" lon="6.40015">
        <ele>2131.8000488281</ele>
        <time>2016-07-18T09:49:54.000Z</time>
      </trkpt>
      <trkpt lat="44.39196" lon="6.40004">
        <ele>2130</ele>
        <time>2016-07-18T09:50:08.000Z</time>
      </trkpt>
      <trkpt lat="44.39197" lon="6.40001">
        <ele>2129.8000488281</ele>
        <time>2016-07-18T09:50:10.000Z</time>
      </trkpt>
      <trkpt lat="44.39197" lon="6.39998">
        <ele>2129.8000488281</ele>
        <time>2016-07-18T09:50:12.000Z</time>
      </trkpt>
      <trkpt lat="44.39199" lon="6.39987">
        <ele>2129.6000976562</ele>
        <time>2016-07-18T09:50:19.000Z</time>
      </trkpt>
      <trkpt lat="44.39203" lon="6.39984">
        <ele>2129</ele>
        <time>2016-07-18T09:50:22.000Z</time>
      </trkpt>
      <trkpt lat="44.39215" lon="6.39985">
        <ele>2126.1999511719</ele>
        <time>2016-07-18T09:50:30.000Z</time>
      </trkpt>
      <trkpt lat="44.39226" lon="6.39987">
        <ele>2123.6000976562</ele>
        <time>2016-07-18T09:50:38.000Z</time>
      </trkpt>
      <trkpt lat="44.39237" lon="6.39979">
        <ele>2121</ele>
        <time>2016-07-18T09:50:45.000Z</time>
      </trkpt>
      <trkpt lat="44.39248" lon="6.39961">
        <ele>2117.3999023438</ele>
        <time>2016-07-18T09:50:52.000Z</time>
      </trkpt>
      <trkpt lat="44.39256" lon="6.39948">
        <ele>2115.8000488281</ele>
        <time>2016-07-18T09:50:59.000Z</time>
      </trkpt>
      <trkpt lat="44.39268" lon="6.39946">
        <ele>2114.6000976562</ele>
        <time>2016-07-18T09:51:06.000Z</time>
      </trkpt>
      <trkpt lat="44.39282" lon="6.39948">
        <ele>2113</ele>
        <time>2016-07-18T09:51:14.000Z</time>
      </trkpt>
      <trkpt lat="44.39296" lon="6.3995">
        <ele>2111.3999023438</ele>
        <time>2016-07-18T09:51:23.000Z</time>
      </trkpt>
      <trkpt lat="44.39312" lon="6.39953">
        <ele>2109.8000488281</ele>
        <time>2016-07-18T09:51:34.000Z</time>
      </trkpt>
      <trkpt lat="44.39326" lon="6.39953">
        <ele>2108.3999023438</ele>
        <time>2016-07-18T09:51:43.000Z</time>
      </trkpt>
      <trkpt lat="44.39332" lon="6.39955">
        <ele>2107.8000488281</ele>
        <time>2016-07-18T09:51:48.000Z</time>
      </trkpt>
      <trkpt lat="44.39341" lon="6.39957">
        <ele>2106.8000488281</ele>
        <time>2016-07-18T09:51:55.000Z</time>
      </trkpt>
      <trkpt lat="44.39354" lon="6.39961">
        <ele>2105.8000488281</ele>
        <time>2016-07-18T09:52:04.000Z</time>
      </trkpt>
      <trkpt lat="44.39363" lon="6.39965">
        <ele>2104.8000488281</ele>
        <time>2016-07-18T09:52:10.000Z</time>
      </trkpt>
      <trkpt lat="44.39373" lon="6.39967">
        <ele>2104</ele>
        <time>2016-07-18T09:52:17.000Z</time>
      </trkpt>
      <trkpt lat="44.39377" lon="6.39968">
        <ele>2103.8000488281</ele>
        <time>2016-07-18T09:52:20.000Z</time>
      </trkpt>
      <trkpt lat="44.39385" lon="6.39964">
        <ele>2103.8000488281</ele>
        <time>2016-07-18T09:52:27.000Z</time>
      </trkpt>
      <trkpt lat="44.39398" lon="6.39964">
        <ele>2103</ele>
        <time>2016-07-18T09:52:36.000Z</time>
      </trkpt>
      <trkpt lat="44.39412" lon="6.39965">
        <ele>2102</ele>
        <time>2016-07-18T09:52:42.000Z</time>
      </trkpt>
      <trkpt lat="44.39429" lon="6.3997">
        <ele>2100.3999023438</ele>
        <time>2016-07-18T09:52:48.000Z</time>
      </trkpt>
      <trkpt lat="44.39447" lon="6.39976">
        <ele>2098.6000976562</ele>
        <time>2016-07-18T09:52:54.000Z</time>
      </trkpt>
      <trkpt lat="44.39466" lon="6.39987">
        <ele>2097.1999511719</ele>
        <time>2016-07-18T09:53:01.000Z</time>
      </trkpt>
      <trkpt lat="44.39477" lon="6.39998">
        <ele>2095</ele>
        <time>2016-07-18T09:53:08.000Z</time>
      </trkpt>
      <trkpt lat="44.39488" lon="6.40009">
        <ele>2092.6000976562</ele>
        <time>2016-07-18T09:53:17.000Z</time>
      </trkpt>
      <trkpt lat="44.39496" lon="6.40017">
        <ele>2091.1999511719</ele>
        <time>2016-07-18T09:53:24.000Z</time>
      </trkpt>
      <trkpt lat="44.39499" lon="6.40018">
        <ele>2090.8000488281</ele>
        <time>2016-07-18T09:53:26.000Z</time>
      </trkpt>
      <trkpt lat="44.39504" lon="6.40016">
        <ele>2091.6000976562</ele>
        <time>2016-07-18T09:53:30.000Z</time>
      </trkpt>
      <trkpt lat="44.39506" lon="6.40014">
        <ele>2092</ele>
        <time>2016-07-18T09:53:32.000Z</time>
      </trkpt>
      <trkpt lat="44.39509" lon="6.40019">
        <ele>2091</ele>
        <time>2016-07-18T09:53:37.000Z</time>
      </trkpt>
      <trkpt lat="44.39509" lon="6.40022">
        <ele>2090.3999023438</ele>
        <time>2016-07-18T09:53:39.000Z</time>
      </trkpt>
      <trkpt lat="44.39507" lon="6.40026">
        <ele>2089.1999511719</ele>
        <time>2016-07-18T09:53:42.000Z</time>
      </trkpt>
      <trkpt lat="44.39506" lon="6.40031">
        <ele>2088.1999511719</ele>
        <time>2016-07-18T09:53:49.000Z</time>
      </trkpt>
      <trkpt lat="44.39509" lon="6.40036">
        <ele>2087.1999511719</ele>
        <time>2016-07-18T09:53:54.000Z</time>
      </trkpt>
      <trkpt lat="44.39512" lon="6.40039">
        <ele>2086.6000976562</ele>
        <time>2016-07-18T09:53:58.000Z</time>
      </trkpt>
      <trkpt lat="44.39518" lon="6.40041">
        <ele>2086</ele>
        <time>2016-07-18T09:54:04.000Z</time>
      </trkpt>
      <trkpt lat="44.3952" lon="6.40045">
        <ele>2085.1999511719</ele>
        <time>2016-07-18T09:54:08.000Z</time>
      </trkpt>
      <trkpt lat="44.39526" lon="6.40051">
        <ele>2084</ele>
        <time>2016-07-18T09:54:15.000Z</time>
      </trkpt>
      <trkpt lat="44.3953" lon="6.40059">
        <ele>2082.3999023438</ele>
        <time>2016-07-18T09:54:22.000Z</time>
      </trkpt>
      <trkpt lat="44.39537" lon="6.40069">
        <ele>2080.1999511719</ele>
        <time>2016-07-18T09:54:32.000Z</time>
      </trkpt>
      <trkpt lat="44.39542" lon="6.40076">
        <ele>2078.6000976562</ele>
        <time>2016-07-18T09:54:39.000Z</time>
      </trkpt>
      <trkpt lat="44.39546" lon="6.40084">
        <ele>2076.6000976562</ele>
        <time>2016-07-18T09:54:47.000Z</time>
      </trkpt>
      <trkpt lat="44.3955" lon="6.40087">
        <ele>2075.8000488281</ele>
        <time>2016-07-18T09:54:51.000Z</time>
      </trkpt>
      <trkpt lat="44.39558" lon="6.40096">
        <ele>2073.8000488281</ele>
        <time>2016-07-18T09:55:00.000Z</time>
      </trkpt>
      <trkpt lat="44.39566" lon="6.40102">
        <ele>2072.6000976562</ele>
        <time>2016-07-18T09:55:07.000Z</time>
      </trkpt>
      <trkpt lat="44.39574" lon="6.40107">
        <ele>2071.3999023438</ele>
        <time>2016-07-18T09:55:14.000Z</time>
      </trkpt>
      <trkpt lat="44.3958" lon="6.40109">
        <ele>2071.1999511719</ele>
        <time>2016-07-18T09:55:20.000Z</time>
      </trkpt>
      <trkpt lat="44.39581" lon="6.40109">
        <ele>2071</ele>
        <time>2016-07-18T09:55:21.000Z</time>
      </trkpt>
      <trkpt lat="44.39587" lon="6.40112">
        <ele>2070.6000976562</ele>
        <time>2016-07-18T09:55:26.000Z</time>
      </trkpt>
      <trkpt lat="44.39597" lon="6.40121">
        <ele>2068.6000976562</ele>
        <time>2016-07-18T09:55:35.000Z</time>
      </trkpt>
      <trkpt lat="44.39606" lon="6.4013">
        <ele>2066.6000976562</ele>
        <time>2016-07-18T09:55:43.000Z</time>
      </trkpt>
      <trkpt lat="44.3961" lon="6.40132">
        <ele>2066.3999023438</ele>
        <time>2016-07-18T09:55:48.000Z</time>
      </trkpt>
      <trkpt lat="44.39613" lon="6.40134">
        <ele>2066</ele>
        <time>2016-07-18T09:55:53.000Z</time>
      </trkpt>
      <trkpt lat="44.39619" lon="6.40141">
        <ele>2064.1999511719</ele>
        <time>2016-07-18T09:55:59.000Z</time>
      </trkpt>
      <trkpt lat="44.39621" lon="6.40142">
        <ele>2064</ele>
        <time>2016-07-18T09:56:01.000Z</time>
      </trkpt>
      <trkpt lat="44.39625" lon="6.40148">
        <ele>2062.3999023438</ele>
        <time>2016-07-18T09:56:06.000Z</time>
      </trkpt>
      <trkpt lat="44.39626" lon="6.40149">
        <ele>2062.1999511719</ele>
        <time>2016-07-18T09:56:07.000Z</time>
      </trkpt>
      <trkpt lat="44.39635" lon="6.40154">
        <ele>2061.8000488281</ele>
        <time>2016-07-18T09:56:14.000Z</time>
      </trkpt>
      <trkpt lat="44.39641" lon="6.40158">
        <ele>2061.1999511719</ele>
        <time>2016-07-18T09:56:20.000Z</time>
      </trkpt>
      <trkpt lat="44.39644" lon="6.4016">
        <ele>2061</ele>
        <time>2016-07-18T09:56:22.000Z</time>
      </trkpt>
      <trkpt lat="44.3965" lon="6.40164">
        <ele>2060.6000976562</ele>
        <time>2016-07-18T09:56:27.000Z</time>
      </trkpt>
      <trkpt lat="44.39656" lon="6.4017">
        <ele>2059.8000488281</ele>
        <time>2016-07-18T09:56:33.000Z</time>
      </trkpt>
      <trkpt lat="44.39665" lon="6.40179">
        <ele>2058.8000488281</ele>
        <time>2016-07-18T09:56:41.000Z</time>
      </trkpt>
      <trkpt lat="44.39673" lon="6.40185">
        <ele>2058.1999511719</ele>
        <time>2016-07-18T09:56:48.000Z</time>
      </trkpt>
      <trkpt lat="44.39682" lon="6.40189">
        <ele>2057.8000488281</ele>
        <time>2016-07-18T09:56:55.000Z</time>
      </trkpt>
      <trkpt lat="44.3969" lon="6.4019">
        <ele>2057.8000488281</ele>
        <time>2016-07-18T09:57:01.000Z</time>
      </trkpt>
      <trkpt lat="44.39692" lon="6.40191">
        <ele>2057.8000488281</ele>
        <time>2016-07-18T09:57:02.000Z</time>
      </trkpt>
      <trkpt lat="44.39696" lon="6.40192">
        <ele>2057.6000976562</ele>
        <time>2016-07-18T09:57:09.000Z</time>
      </trkpt>
      <trkpt lat="44.39697" lon="6.40193">
        <ele>2057.6000976562</ele>
        <time>2016-07-18T09:57:11.000Z</time>
      </trkpt>
      <trkpt lat="44.39705" lon="6.40199">
        <ele>2056.1999511719</ele>
        <time>2016-07-18T09:57:18.000Z</time>
      </trkpt>
      <trkpt lat="44.39706" lon="6.402">
        <ele>2056</ele>
        <time>2016-07-18T09:57:19.000Z</time>
      </trkpt>
      <trkpt lat="44.39713" lon="6.402">
        <ele>2055.3999023438</ele>
        <time>2016-07-18T09:57:26.000Z</time>
      </trkpt>
      <trkpt lat="44.39717" lon="6.402">
        <ele>2055.1999511719</ele>
        <time>2016-07-18T09:57:30.000Z</time>
      </trkpt>
      <trkpt lat="44.39724" lon="6.40199">
        <ele>2054.8000488281</ele>
        <time>2016-07-18T09:57:36.000Z</time>
      </trkpt>
      <trkpt lat="44.3973" lon="6.40195">
        <ele>2055</ele>
        <time>2016-07-18T09:57:43.000Z</time>
      </trkpt>
      <trkpt lat="44.39732" lon="6.40189">
        <ele>2055.8000488281</ele>
        <time>2016-07-18T09:57:49.000Z</time>
      </trkpt>
      <trkpt lat="44.39734" lon="6.40186">
        <ele>2056</ele>
        <time>2016-07-18T09:57:52.000Z</time>
      </trkpt>
      <trkpt lat="44.3974" lon="6.40171">
        <ele>2056.3999023438</ele>
        <time>2016-07-18T09:58:01.000Z</time>
      </trkpt>
      <trkpt lat="44.39745" lon="6.40173">
        <ele>2055.6000976562</ele>
        <time>2016-07-18T09:58:05.000Z</time>
      </trkpt>
      <trkpt lat="44.39753" lon="6.40183">
        <ele>2053.6000976562</ele>
        <time>2016-07-18T09:58:13.000Z</time>
      </trkpt>
      <trkpt lat="44.39754" lon="6.40184">
        <ele>2053.3999023438</ele>
        <time>2016-07-18T09:58:15.000Z</time>
      </trkpt>
      <trkpt lat="44.39753" lon="6.40187">
        <ele>2053.3999023438</ele>
        <time>2016-07-18T09:58:28.000Z</time>
      </trkpt>
      <trkpt lat="44.39753" lon="6.40193">
        <ele>2053</ele>
        <time>2016-07-18T09:58:45.000Z</time>
      </trkpt>
      <trkpt lat="44.39754" lon="6.40198">
        <ele>2052.3999023438</ele>
        <time>2016-07-18T09:58:49.000Z</time>
      </trkpt>
      <trkpt lat="44.39759" lon="6.40206">
        <ele>2051.1999511719</ele>
        <time>2016-07-18T09:58:54.000Z</time>
      </trkpt>
      <trkpt lat="44.39762" lon="6.40204">
        <ele>2050.8000488281</ele>
        <time>2016-07-18T09:58:59.000Z</time>
      </trkpt>
      <trkpt lat="44.39763" lon="6.40202">
        <ele>2050.8000488281</ele>
        <time>2016-07-18T09:59:00.000Z</time>
      </trkpt>
      <trkpt lat="44.39766" lon="6.40198">
        <ele>2050.8000488281</ele>
        <time>2016-07-18T09:59:06.000Z</time>
      </trkpt>
      <trkpt lat="44.39764" lon="6.402">
        <ele>2050.8000488281</ele>
        <time>2016-07-18T09:59:09.000Z</time>
      </trkpt>
      <trkpt lat="44.39766" lon="6.40198">
        <ele>2050.8000488281</ele>
        <time>2016-07-18T09:59:16.000Z</time>
      </trkpt>
      <trkpt lat="44.39767" lon="6.40191">
        <ele>2051.1999511719</ele>
        <time>2016-07-18T09:59:20.000Z</time>
      </trkpt>
      <trkpt lat="44.39769" lon="6.40176">
        <ele>2051.8000488281</ele>
        <time>2016-07-18T09:59:28.000Z</time>
      </trkpt>
      <trkpt lat="44.39774" lon="6.4016">
        <ele>2052.1999511719</ele>
        <time>2016-07-18T09:59:37.000Z</time>
      </trkpt>
      <trkpt lat="44.3978" lon="6.40151">
        <ele>2052</ele>
        <time>2016-07-18T09:59:44.000Z</time>
      </trkpt>
      <trkpt lat="44.39793" lon="6.40146">
        <ele>2052.8000488281</ele>
        <time>2016-07-18T09:59:54.000Z</time>
      </trkpt>
      <trkpt lat="44.39804" lon="6.40141">
        <ele>2053.6000976562</ele>
        <time>2016-07-18T10:00:02.000Z</time>
      </trkpt>
      <trkpt lat="44.39815" lon="6.40134">
        <ele>2054.3999023438</ele>
        <time>2016-07-18T10:00:10.000Z</time>
      </trkpt>
      <trkpt lat="44.39823" lon="6.40124">
        <ele>2055</ele>
        <time>2016-07-18T10:00:18.000Z</time>
      </trkpt>
      <trkpt lat="44.39825" lon="6.40122">
        <ele>2055.1999511719</ele>
        <time>2016-07-18T10:00:20.000Z</time>
      </trkpt>
      <trkpt lat="44.39838" lon="6.40117">
        <ele>2056</ele>
        <time>2016-07-18T10:00:29.000Z</time>
      </trkpt>
      <trkpt lat="44.39847" lon="6.40113">
        <ele>2056.1999511719</ele>
        <time>2016-07-18T10:00:36.000Z</time>
      </trkpt>
      <trkpt lat="44.39856" lon="6.40109">
        <ele>2056.1999511719</ele>
        <time>2016-07-18T10:00:42.000Z</time>
      </trkpt>
      <trkpt lat="44.39878" lon="6.401">
        <ele>2056.8000488281</ele>
        <time>2016-07-18T10:00:59.000Z</time>
      </trkpt>
      <trkpt lat="44.39895" lon="6.40095">
        <ele>2057.3999023438</ele>
        <time>2016-07-18T10:01:12.000Z</time>
      </trkpt>
      <trkpt lat="44.39906" lon="6.40094">
        <ele>2058.6000976562</ele>
        <time>2016-07-18T10:01:20.000Z</time>
      </trkpt>
      <trkpt lat="44.39913" lon="6.40101">
        <ele>2059</ele>
        <time>2016-07-18T10:01:27.000Z</time>
      </trkpt>
      <trkpt lat="44.39925" lon="6.40111">
        <ele>2059.8000488281</ele>
        <time>2016-07-18T10:01:36.000Z</time>
      </trkpt>
      <trkpt lat="44.39935" lon="6.40121">
        <ele>2060.1999511719</ele>
        <time>2016-07-18T10:01:45.000Z</time>
      </trkpt>
      <trkpt lat="44.3994" lon="6.40136">
        <ele>2059.8000488281</ele>
        <time>2016-07-18T10:01:53.000Z</time>
      </trkpt>
      <trkpt lat="44.39941" lon="6.40143">
        <ele>2059.6000976562</ele>
        <time>2016-07-18T10:01:57.000Z</time>
      </trkpt>
      <trkpt lat="44.3994" lon="6.40148">
        <ele>2059.6000976562</ele>
        <time>2016-07-18T10:02:00.000Z</time>
      </trkpt>
      <trkpt lat="44.3994" lon="6.40151">
        <ele>2059.3999023438</ele>
        <time>2016-07-18T10:02:08.000Z</time>
      </trkpt>
      <trkpt lat="44.39945" lon="6.40153">
        <ele>2059</ele>
        <time>2016-07-18T10:02:18.000Z</time>
      </trkpt>
      <trkpt lat="44.39947" lon="6.40155">
        <ele>2058.6000976562</ele>
        <time>2016-07-18T10:02:21.000Z</time>
      </trkpt>
      <trkpt lat="44.39951" lon="6.40155">
        <ele>2059</ele>
        <time>2016-07-18T10:02:25.000Z</time>
      </trkpt>
      <trkpt lat="44.39951" lon="6.40153">
        <ele>2059.3999023438</ele>
        <time>2016-07-18T10:02:35.000Z</time>
      </trkpt>
      <trkpt lat="44.3995" lon="6.40154">
        <ele>2059</ele>
        <time>2016-07-18T10:02:52.000Z</time>
      </trkpt>
      <trkpt lat="44.39948" lon="6.40157">
        <ele>2058.3999023438</ele>
        <time>2016-07-18T10:03:14.000Z</time>
      </trkpt>
      <trkpt lat="44.39945" lon="6.40159">
        <ele>2058</ele>
        <time>2016-07-18T10:03:41.000Z</time>
      </trkpt>
      <trkpt lat="44.39941" lon="6.4016">
        <ele>2057.6000976562</ele>
        <time>2016-07-18T10:03:49.000Z</time>
      </trkpt>
      <trkpt lat="44.39946" lon="6.40157">
        <ele>2058.1999511719</ele>
        <time>2016-07-18T10:05:30.000Z</time>
      </trkpt>
      <trkpt lat="44.39949" lon="6.40153">
        <ele>2059.1999511719</ele>
        <time>2016-07-18T10:05:37.000Z</time>
      </trkpt>
      <trkpt lat="44.39951" lon="6.4015">
        <ele>2059.8000488281</ele>
        <time>2016-07-18T10:05:45.000Z</time>
      </trkpt>
      <trkpt lat="44.39951" lon="6.40148">
        <ele>2060.1999511719</ele>
        <time>2016-07-18T10:05:54.000Z</time>
      </trkpt>
      <trkpt lat="44.39958" lon="6.40149">
        <ele>2060.6000976562</ele>
        <time>2016-07-18T10:06:00.000Z</time>
      </trkpt>
      <trkpt lat="44.39968" lon="6.40154">
        <ele>2060.3999023438</ele>
        <time>2016-07-18T10:06:08.000Z</time>
      </trkpt>
      <trkpt lat="44.39978" lon="6.40154">
        <ele>2061.1999511719</ele>
        <time>2016-07-18T10:06:15.000Z</time>
      </trkpt>
      <trkpt lat="44.39987" lon="6.40148">
        <ele>2062.8000488281</ele>
        <time>2016-07-18T10:06:22.000Z</time>
      </trkpt>
      <trkpt lat="44.39995" lon="6.40144">
        <ele>2063.6000976562</ele>
        <time>2016-07-18T10:06:29.000Z</time>
      </trkpt>
      <trkpt lat="44.40001" lon="6.40143">
        <ele>2064.1999511719</ele>
        <time>2016-07-18T10:06:34.000Z</time>
      </trkpt>
      <trkpt lat="44.40008" lon="6.40138">
        <ele>2065</ele>
        <time>2016-07-18T10:06:40.000Z</time>
      </trkpt>
      <trkpt lat="44.40013" lon="6.40139">
        <ele>2065.1999511719</ele>
        <time>2016-07-18T10:06:44.000Z</time>
      </trkpt>
      <trkpt lat="44.40019" lon="6.40141">
        <ele>2065.6000976562</ele>
        <time>2016-07-18T10:06:49.000Z</time>
      </trkpt>
      <trkpt lat="44.4003" lon="6.40145">
        <ele>2066</ele>
        <time>2016-07-18T10:06:57.000Z</time>
      </trkpt>
      <trkpt lat="44.4004" lon="6.4015">
        <ele>2066.1999511719</ele>
        <time>2016-07-18T10:07:05.000Z</time>
      </trkpt>
      <trkpt lat="44.40041" lon="6.4015">
        <ele>2066.1999511719</ele>
        <time>2016-07-18T10:07:06.000Z</time>
      </trkpt>
      <trkpt lat="44.40049" lon="6.40157">
        <ele>2066</ele>
        <time>2016-07-18T10:07:14.000Z</time>
      </trkpt>
      <trkpt lat="44.40056" lon="6.40162">
        <ele>2065.8000488281</ele>
        <time>2016-07-18T10:07:20.000Z</time>
      </trkpt>
      <trkpt lat="44.40063" lon="6.40166">
        <ele>2065.8000488281</ele>
        <time>2016-07-18T10:07:27.000Z</time>
      </trkpt>
      <trkpt lat="44.40067" lon="6.40169">
        <ele>2065.8000488281</ele>
        <time>2016-07-18T10:07:31.000Z</time>
      </trkpt>
      <trkpt lat="44.40072" lon="6.40171">
        <ele>2065.8000488281</ele>
        <time>2016-07-18T10:07:35.000Z</time>
      </trkpt>
      <trkpt lat="44.4008" lon="6.40173">
        <ele>2066</ele>
        <time>2016-07-18T10:07:42.000Z</time>
      </trkpt>
      <trkpt lat="44.40085" lon="6.40175">
        <ele>2066</ele>
        <time>2016-07-18T10:07:46.000Z</time>
      </trkpt>
      <trkpt lat="44.4009" lon="6.40177">
        <ele>2066</ele>
        <time>2016-07-18T10:07:50.000Z</time>
      </trkpt>
      <trkpt lat="44.40092" lon="6.40179">
        <ele>2066</ele>
        <time>2016-07-18T10:07:52.000Z</time>
      </trkpt>
      <trkpt lat="44.40098" lon="6.40187">
        <ele>2065.6000976562</ele>
        <time>2016-07-18T10:07:58.000Z</time>
      </trkpt>
      <trkpt lat="44.40099" lon="6.40195">
        <ele>2065</ele>
        <time>2016-07-18T10:08:04.000Z</time>
      </trkpt>
      <trkpt lat="44.401" lon="6.40196">
        <ele>2065</ele>
        <time>2016-07-18T10:08:05.000Z</time>
      </trkpt>
      <trkpt lat="44.40103" lon="6.40194">
        <ele>2065.1999511719</ele>
        <time>2016-07-18T10:08:10.000Z</time>
      </trkpt>
      <trkpt lat="44.40105" lon="6.40191">
        <ele>2065.6000976562</ele>
        <time>2016-07-18T10:08:12.000Z</time>
      </trkpt>
      <trkpt lat="44.40109" lon="6.40193">
        <ele>2065.6000976562</ele>
        <time>2016-07-18T10:08:18.000Z</time>
      </trkpt>
      <trkpt lat="44.40109" lon="6.40194">
        <ele>2065.3999023438</ele>
        <time>2016-07-18T10:08:19.000Z</time>
      </trkpt>
      <trkpt lat="44.4011" lon="6.40205">
        <ele>2064.8000488281</ele>
        <time>2016-07-18T10:08:26.000Z</time>
      </trkpt>
      <trkpt lat="44.4011" lon="6.40208">
        <ele>2064.6000976562</ele>
        <time>2016-07-18T10:08:28.000Z</time>
      </trkpt>
      <trkpt lat="44.40109" lon="6.40213">
        <ele>2064.1999511719</ele>
        <time>2016-07-18T10:08:32.000Z</time>
      </trkpt>
      <trkpt lat="44.40113" lon="6.40219">
        <ele>2063.8000488281</ele>
        <time>2016-07-18T10:08:38.000Z</time>
      </trkpt>
      <trkpt lat="44.40114" lon="6.40221">
        <ele>2063.8000488281</ele>
        <time>2016-07-18T10:08:40.000Z</time>
      </trkpt>
      <trkpt lat="44.40115" lon="6.40222">
        <ele>2063.8000488281</ele>
        <time>2016-07-18T10:08:44.000Z</time>
      </trkpt>
      <trkpt lat="44.40114" lon="6.40221">
        <ele>2063.8000488281</ele>
        <time>2016-07-18T10:08:47.000Z</time>
      </trkpt>
      <trkpt lat="44.40096" lon="6.40171">
        <ele>2066.6000976562</ele>
        <time>2016-07-18T11:26:47.000Z</time>
      </trkpt>
      <trkpt lat="44.40094" lon="6.40169">
        <ele>2066.8000488281</ele>
        <time>2016-07-18T11:26:49.000Z</time>
      </trkpt>
      <trkpt lat="44.40092" lon="6.40161">
        <ele>2067.1999511719</ele>
        <time>2016-07-18T11:26:54.000Z</time>
      </trkpt>
      <trkpt lat="44.40088" lon="6.40152">
        <ele>2067.8000488281</ele>
        <time>2016-07-18T11:27:01.000Z</time>
      </trkpt>
      <trkpt lat="44.40083" lon="6.40142">
        <ele>2067.8000488281</ele>
        <time>2016-07-18T11:27:09.000Z</time>
      </trkpt>
      <trkpt lat="44.40076" lon="6.4013">
        <ele>2067.6000976562</ele>
        <time>2016-07-18T11:27:20.000Z</time>
      </trkpt>
      <trkpt lat="44.40071" lon="6.40118">
        <ele>2067.3999023438</ele>
        <time>2016-07-18T11:27:28.000Z</time>
      </trkpt>
      <trkpt lat="44.40066" lon="6.40105">
        <ele>2067.1999511719</ele>
        <time>2016-07-18T11:27:37.000Z</time>
      </trkpt>
      <trkpt lat="44.40064" lon="6.40101">
        <ele>2067.1999511719</ele>
        <time>2016-07-18T11:27:40.000Z</time>
      </trkpt>
      <trkpt lat="44.40062" lon="6.40096">
        <ele>2067</ele>
        <time>2016-07-18T11:27:44.000Z</time>
      </trkpt>
      <trkpt lat="44.40062" lon="6.40098">
        <ele>2067</ele>
        <time>2016-07-18T11:27:50.000Z</time>
      </trkpt>
      <trkpt lat="44.40056" lon="6.40072">
        <ele>2065.8000488281</ele>
        <time>2016-07-18T11:28:06.000Z</time>
      </trkpt>
      <trkpt lat="44.40051" lon="6.40055">
        <ele>2066.1999511719</ele>
        <time>2016-07-18T11:28:15.000Z</time>
      </trkpt>
      <trkpt lat="44.40049" lon="6.40047">
        <ele>2066.6000976562</ele>
        <time>2016-07-18T11:28:19.000Z</time>
      </trkpt>
      <trkpt lat="44.40051" lon="6.40022">
        <ele>2068.1999511719</ele>
        <time>2016-07-18T11:28:30.000Z</time>
      </trkpt>
      <trkpt lat="44.40053" lon="6.40002">
        <ele>2069.1999511719</ele>
        <time>2016-07-18T11:28:39.000Z</time>
      </trkpt>
      <trkpt lat="44.40058" lon="6.39987">
        <ele>2068.3999023438</ele>
        <time>2016-07-18T11:28:47.000Z</time>
      </trkpt>
      <trkpt lat="44.40071" lon="6.39964">
        <ele>2069.1999511719</ele>
        <time>2016-07-18T11:29:01.000Z</time>
      </trkpt>
      <trkpt lat="44.40073" lon="6.39945">
        <ele>2071.3999023438</ele>
        <time>2016-07-18T11:29:10.000Z</time>
      </trkpt>
      <trkpt lat="44.40074" lon="6.39924">
        <ele>2073</ele>
        <time>2016-07-18T11:29:20.000Z</time>
      </trkpt>
      <trkpt lat="44.40075" lon="6.39911">
        <ele>2073.8000488281</ele>
        <time>2016-07-18T11:29:27.000Z</time>
      </trkpt>
      <trkpt lat="44.40076" lon="6.3991">
        <ele>2073.6000976562</ele>
        <time>2016-07-18T11:29:28.000Z</time>
      </trkpt>
      <trkpt lat="44.40079" lon="6.39905">
        <ele>2073.3999023438</ele>
        <time>2016-07-18T11:29:33.000Z</time>
      </trkpt>
      <trkpt lat="44.40082" lon="6.39911">
        <ele>2072.8000488281</ele>
        <time>2016-07-18T11:29:38.000Z</time>
      </trkpt>
      <trkpt lat="44.4008" lon="6.39905">
        <ele>2073.3999023438</ele>
        <time>2016-07-18T11:29:43.000Z</time>
      </trkpt>
      <trkpt lat="44.4008" lon="6.39902">
        <ele>2073.6000976562</ele>
        <time>2016-07-18T11:29:44.000Z</time>
      </trkpt>
      <trkpt lat="44.40074" lon="6.39898">
        <ele>2074.8000488281</ele>
        <time>2016-07-18T11:29:50.000Z</time>
      </trkpt>
      <trkpt lat="44.40071" lon="6.39891">
        <ele>2075.8000488281</ele>
        <time>2016-07-18T11:29:54.000Z</time>
      </trkpt>
      <trkpt lat="44.40071" lon="6.39887">
        <ele>2076.1999511719</ele>
        <time>2016-07-18T11:29:56.000Z</time>
      </trkpt>
      <trkpt lat="44.40071" lon="6.39885">
        <ele>2076.1999511719</ele>
        <time>2016-07-18T11:29:57.000Z</time>
      </trkpt>
      <trkpt lat="44.40072" lon="6.39865">
        <ele>2077.1999511719</ele>
        <time>2016-07-18T11:30:07.000Z</time>
      </trkpt>
      <trkpt lat="44.40074" lon="6.39856">
        <ele>2077.6000976562</ele>
        <time>2016-07-18T11:30:12.000Z</time>
      </trkpt>
      <trkpt lat="44.40074" lon="6.3985">
        <ele>2078.6000976562</ele>
        <time>2016-07-18T11:30:16.000Z</time>
      </trkpt>
      <trkpt lat="44.4007" lon="6.39844">
        <ele>2079.8000488281</ele>
        <time>2016-07-18T11:30:21.000Z</time>
      </trkpt>
      <trkpt lat="44.40071" lon="6.3983">
        <ele>2082.1999511719</ele>
        <time>2016-07-18T11:30:29.000Z</time>
      </trkpt>
      <trkpt lat="44.40071" lon="6.39815">
        <ele>2084.6000976562</ele>
        <time>2016-07-18T11:30:37.000Z</time>
      </trkpt>
      <trkpt lat="44.4007" lon="6.39798">
        <ele>2086.1999511719</ele>
        <time>2016-07-18T11:30:46.000Z</time>
      </trkpt>
      <trkpt lat="44.40067" lon="6.3978">
        <ele>2087.8000488281</ele>
        <time>2016-07-18T11:30:55.000Z</time>
      </trkpt>
      <trkpt lat="44.40066" lon="6.39773">
        <ele>2088.3999023438</ele>
        <time>2016-07-18T11:31:00.000Z</time>
      </trkpt>
      <trkpt lat="44.40066" lon="6.39771">
        <ele>2088.6000976562</ele>
        <time>2016-07-18T11:31:01.000Z</time>
      </trkpt>
      <trkpt lat="44.40067" lon="6.39758">
        <ele>2089.8000488281</ele>
        <time>2016-07-18T11:31:08.000Z</time>
      </trkpt>
      <trkpt lat="44.40065" lon="6.39741">
        <ele>2091.6000976562</ele>
        <time>2016-07-18T11:31:17.000Z</time>
      </trkpt>
      <trkpt lat="44.40063" lon="6.39723">
        <ele>2093.8000488281</ele>
        <time>2016-07-18T11:31:26.000Z</time>
      </trkpt>
      <trkpt lat="44.40065" lon="6.39711">
        <ele>2095.8000488281</ele>
        <time>2016-07-18T11:31:33.000Z</time>
      </trkpt>
      <trkpt lat="44.40066" lon="6.39695">
        <ele>2098.1999511719</ele>
        <time>2016-07-18T11:31:42.000Z</time>
      </trkpt>
      <trkpt lat="44.4007" lon="6.39679">
        <ele>2100</ele>
        <time>2016-07-18T11:31:51.000Z</time>
      </trkpt>
      <trkpt lat="44.40074" lon="6.39664">
        <ele>2101.1999511719</ele>
        <time>2016-07-18T11:32:00.000Z</time>
      </trkpt>
      <trkpt lat="44.40081" lon="6.39646">
        <ele>2102.6000976562</ele>
        <time>2016-07-18T11:32:10.000Z</time>
      </trkpt>
      <trkpt lat="44.40088" lon="6.39637">
        <ele>2103.3999023438</ele>
        <time>2016-07-18T11:32:17.000Z</time>
      </trkpt>
      <trkpt lat="44.40094" lon="6.39625">
        <ele>2104.8000488281</ele>
        <time>2016-07-18T11:32:24.000Z</time>
      </trkpt>
      <trkpt lat="44.40097" lon="6.39613">
        <ele>2106.3999023438</ele>
        <time>2016-07-18T11:32:30.000Z</time>
      </trkpt>
      <trkpt lat="44.401" lon="6.39602">
        <ele>2107.8000488281</ele>
        <time>2016-07-18T11:32:36.000Z</time>
      </trkpt>
      <trkpt lat="44.40101" lon="6.39584">
        <ele>2110.3999023438</ele>
        <time>2016-07-18T11:32:45.000Z</time>
      </trkpt>
      <trkpt lat="44.40101" lon="6.39567">
        <ele>2113.1999511719</ele>
        <time>2016-07-18T11:32:54.000Z</time>
      </trkpt>
      <trkpt lat="44.40099" lon="6.39548">
        <ele>2115.8000488281</ele>
        <time>2016-07-18T11:33:01.000Z</time>
      </trkpt>
      <trkpt lat="44.40097" lon="6.39529">
        <ele>2118.8000488281</ele>
        <time>2016-07-18T11:33:06.000Z</time>
      </trkpt>
      <trkpt lat="44.40098" lon="6.39518">
        <ele>2120.1999511719</ele>
        <time>2016-07-18T11:33:11.000Z</time>
      </trkpt>
      <trkpt lat="44.40103" lon="6.39503">
        <ele>2122.3999023438</ele>
        <time>2016-07-18T11:33:20.000Z</time>
      </trkpt>
      <trkpt lat="44.40108" lon="6.39485">
        <ele>2125</ele>
        <time>2016-07-18T11:33:30.000Z</time>
      </trkpt>
      <trkpt lat="44.40109" lon="6.39474">
        <ele>2125.6000976562</ele>
        <time>2016-07-18T11:33:36.000Z</time>
      </trkpt>
      <trkpt lat="44.40108" lon="6.39457">
        <ele>2128.1999511719</ele>
        <time>2016-07-18T11:33:43.000Z</time>
      </trkpt>
      <trkpt lat="44.40105" lon="6.3945">
        <ele>2128.8000488281</ele>
        <time>2016-07-18T11:33:47.000Z</time>
      </trkpt>
      <trkpt lat="44.40103" lon="6.39437">
        <ele>2130.6000976562</ele>
        <time>2016-07-18T11:33:54.000Z</time>
      </trkpt>
      <trkpt lat="44.40095" lon="6.39427">
        <ele>2131.3999023438</ele>
        <time>2016-07-18T11:34:01.000Z</time>
      </trkpt>
      <trkpt lat="44.40089" lon="6.39416">
        <ele>2132.3999023438</ele>
        <time>2016-07-18T11:34:08.000Z</time>
      </trkpt>
      <trkpt lat="44.4008" lon="6.39405">
        <ele>2133.1999511719</ele>
        <time>2016-07-18T11:34:17.000Z</time>
      </trkpt>
      <trkpt lat="44.40073" lon="6.39397">
        <ele>2133.6000976562</ele>
        <time>2016-07-18T11:34:25.000Z</time>
      </trkpt>
      <trkpt lat="44.40072" lon="6.39397">
        <ele>2133.3999023438</ele>
        <time>2016-07-18T11:34:42.000Z</time>
      </trkpt>
      <trkpt lat="44.40071" lon="6.39397">
        <ele>2133.3999023438</ele>
        <time>2016-07-18T11:34:52.000Z</time>
      </trkpt>
      <trkpt lat="44.40069" lon="6.39398">
        <ele>2133</ele>
        <time>2016-07-18T11:35:06.000Z</time>
      </trkpt>
      <trkpt lat="44.40066" lon="6.3939">
        <ele>2133.1999511719</ele>
        <time>2016-07-18T11:35:12.000Z</time>
      </trkpt>
      <trkpt lat="44.40065" lon="6.3939">
        <ele>2133.1999511719</ele>
        <time>2016-07-18T11:35:14.000Z</time>
      </trkpt>
      <trkpt lat="44.4006" lon="6.39396">
        <ele>2132.1999511719</ele>
        <time>2016-07-18T11:35:19.000Z</time>
      </trkpt>
      <trkpt lat="44.40054" lon="6.39406">
        <ele>2130.1999511719</ele>
        <time>2016-07-18T11:35:26.000Z</time>
      </trkpt>
      <trkpt lat="44.40051" lon="6.3941">
        <ele>2129.3999023438</ele>
        <time>2016-07-18T11:35:28.000Z</time>
      </trkpt>
      <trkpt lat="44.40042" lon="6.39418">
        <ele>2128.6000976562</ele>
        <time>2016-07-18T11:35:35.000Z</time>
      </trkpt>
      <trkpt lat="44.40033" lon="6.3942">
        <ele>2129.1999511719</ele>
        <time>2016-07-18T11:35:42.000Z</time>
      </trkpt>
      <trkpt lat="44.40025" lon="6.39428">
        <ele>2129.3999023438</ele>
        <time>2016-07-18T11:35:48.000Z</time>
      </trkpt>
      <trkpt lat="44.40015" lon="6.39438">
        <ele>2129.6000976562</ele>
        <time>2016-07-18T11:35:56.000Z</time>
      </trkpt>
      <trkpt lat="44.40003" lon="6.39446">
        <ele>2130</ele>
        <time>2016-07-18T11:36:05.000Z</time>
      </trkpt>
      <trkpt lat="44.39992" lon="6.39458">
        <ele>2130</ele>
        <time>2016-07-18T11:36:14.000Z</time>
      </trkpt>
      <trkpt lat="44.3998" lon="6.39474">
        <ele>2130</ele>
        <time>2016-07-18T11:36:25.000Z</time>
      </trkpt>
      <trkpt lat="44.3997" lon="6.39489">
        <ele>2129.1999511719</ele>
        <time>2016-07-18T11:36:35.000Z</time>
      </trkpt>
      <trkpt lat="44.39968" lon="6.39493">
        <ele>2128.8000488281</ele>
        <time>2016-07-18T11:36:41.000Z</time>
      </trkpt>
      <trkpt lat="44.39968" lon="6.39496">
        <ele>2128.3999023438</ele>
        <time>2016-07-18T11:37:09.000Z</time>
      </trkpt>
      <trkpt lat="44.39968" lon="6.39497">
        <ele>2128.3999023438</ele>
        <time>2016-07-18T11:37:20.000Z</time>
      </trkpt>
      <trkpt lat="44.39967" lon="6.39495">
        <ele>2128.6000976562</ele>
        <time>2016-07-18T11:38:05.000Z</time>
      </trkpt>
      <trkpt lat="44.39964" lon="6.39498">
        <ele>2128.1999511719</ele>
        <time>2016-07-18T11:38:19.000Z</time>
      </trkpt>
      <trkpt lat="44.39957" lon="6.39512">
        <ele>2126.1999511719</ele>
        <time>2016-07-18T11:38:26.000Z</time>
      </trkpt>
      <trkpt lat="44.3994" lon="6.39529">
        <ele>2126</ele>
        <time>2016-07-18T11:38:39.000Z</time>
      </trkpt>
      <trkpt lat="44.39932" lon="6.39536">
        <ele>2127.3999023438</ele>
        <time>2016-07-18T11:38:46.000Z</time>
      </trkpt>
      <trkpt lat="44.39921" lon="6.3955">
        <ele>2127.8000488281</ele>
        <time>2016-07-18T11:38:55.000Z</time>
      </trkpt>
      <trkpt lat="44.39907" lon="6.39556">
        <ele>2129.1999511719</ele>
        <time>2016-07-18T11:39:03.000Z</time>
      </trkpt>
      <trkpt lat="44.399" lon="6.39563">
        <ele>2129.3999023438</ele>
        <time>2016-07-18T11:39:08.000Z</time>
      </trkpt>
      <trkpt lat="44.39897" lon="6.39566">
        <ele>2129.1999511719</ele>
        <time>2016-07-18T11:39:10.000Z</time>
      </trkpt>
      <trkpt lat="44.39888" lon="6.39571">
        <ele>2130.3999023438</ele>
        <time>2016-07-18T11:39:17.000Z</time>
      </trkpt>
      <trkpt lat="44.39881" lon="6.39575">
        <ele>2131.1999511719</ele>
        <time>2016-07-18T11:39:24.000Z</time>
      </trkpt>
      <trkpt lat="44.39879" lon="6.39578">
        <ele>2131.1999511719</ele>
        <time>2016-07-18T11:39:27.000Z</time>
      </trkpt>
      <trkpt lat="44.39879" lon="6.39577">
        <ele>2131.1999511719</ele>
        <time>2016-07-18T11:39:35.000Z</time>
      </trkpt>
      <trkpt lat="44.3988" lon="6.39576">
        <ele>2131.1999511719</ele>
        <time>2016-07-18T11:39:36.000Z</time>
      </trkpt>
      <trkpt lat="44.39886" lon="6.39572">
        <ele>2130.6000976562</ele>
        <time>2016-07-18T11:39:41.000Z</time>
      </trkpt>
      <trkpt lat="44.39894" lon="6.39567">
        <ele>2130</ele>
        <time>2016-07-18T11:39:47.000Z</time>
      </trkpt>
      <trkpt lat="44.39897" lon="6.39566">
        <ele>2129.3999023438</ele>
        <time>2016-07-18T11:39:51.000Z</time>
      </trkpt>
      <trkpt lat="44.39904" lon="6.39557">
        <ele>2129.6000976562</ele>
        <time>2016-07-18T11:39:59.000Z</time>
      </trkpt>
      <trkpt lat="44.39915" lon="6.39551">
        <ele>2128.6000976562</ele>
        <time>2016-07-18T11:40:09.000Z</time>
      </trkpt>
      <trkpt lat="44.39923" lon="6.39547">
        <ele>2127.8000488281</ele>
        <time>2016-07-18T11:40:15.000Z</time>
      </trkpt>
      <trkpt lat="44.39932" lon="6.3955">
        <ele>2125.3999023438</ele>
        <time>2016-07-18T11:40:21.000Z</time>
      </trkpt>
      <trkpt lat="44.39942" lon="6.3956">
        <ele>2121.1999511719</ele>
        <time>2016-07-18T11:40:30.000Z</time>
      </trkpt>
      <trkpt lat="44.3995" lon="6.39574">
        <ele>2117.6000976562</ele>
        <time>2016-07-18T11:40:38.000Z</time>
      </trkpt>
      <trkpt lat="44.39957" lon="6.39609">
        <ele>2112.1999511719</ele>
        <time>2016-07-18T11:40:55.000Z</time>
      </trkpt>
      <trkpt lat="44.39955" lon="6.39621">
        <ele>2110.1999511719</ele>
        <time>2016-07-18T11:41:01.000Z</time>
      </trkpt>
      <trkpt lat="44.39951" lon="6.39635">
        <ele>2108.1999511719</ele>
        <time>2016-07-18T11:41:07.000Z</time>
      </trkpt>
      <trkpt lat="44.3995" lon="6.39651">
        <ele>2105.6000976562</ele>
        <time>2016-07-18T11:41:14.000Z</time>
      </trkpt>
      <trkpt lat="44.39951" lon="6.39668">
        <ele>2103.6000976562</ele>
        <time>2016-07-18T11:41:22.000Z</time>
      </trkpt>
      <trkpt lat="44.39955" lon="6.39681">
        <ele>2102</ele>
        <time>2016-07-18T11:41:29.000Z</time>
      </trkpt>
      <trkpt lat="44.39955" lon="6.39682">
        <ele>2101.8000488281</ele>
        <time>2016-07-18T11:41:30.000Z</time>
      </trkpt>
      <trkpt lat="44.39958" lon="6.39701">
        <ele>2099.3999023438</ele>
        <time>2016-07-18T11:41:39.000Z</time>
      </trkpt>
      <trkpt lat="44.39959" lon="6.39717">
        <ele>2097.6000976562</ele>
        <time>2016-07-18T11:41:46.000Z</time>
      </trkpt>
      <trkpt lat="44.39954" lon="6.39737">
        <ele>2095.3999023438</ele>
        <time>2016-07-18T11:41:55.000Z</time>
      </trkpt>
      <trkpt lat="44.39948" lon="6.39757">
        <ele>2094.1999511719</ele>
        <time>2016-07-18T11:42:05.000Z</time>
      </trkpt>
      <trkpt lat="44.39947" lon="6.39777">
        <ele>2092.8000488281</ele>
        <time>2016-07-18T11:42:10.000Z</time>
      </trkpt>
      <trkpt lat="44.39945" lon="6.39805">
        <ele>2090.8000488281</ele>
        <time>2016-07-18T11:42:14.000Z</time>
      </trkpt>
      <trkpt lat="44.39944" lon="6.39811">
        <ele>2090.3999023438</ele>
        <time>2016-07-18T11:42:15.000Z</time>
      </trkpt>
      <trkpt lat="44.39941" lon="6.39823">
        <ele>2089.8000488281</ele>
        <time>2016-07-18T11:42:17.000Z</time>
      </trkpt>
      <trkpt lat="44.39926" lon="6.39848">
        <ele>2088.6000976562</ele>
        <time>2016-07-18T11:42:22.000Z</time>
      </trkpt>
      <trkpt lat="44.39918" lon="6.39858">
        <ele>2088.3999023438</ele>
        <time>2016-07-18T11:42:26.000Z</time>
      </trkpt>
      <trkpt lat="44.39908" lon="6.3987">
        <ele>2086.8000488281</ele>
        <time>2016-07-18T11:42:34.000Z</time>
      </trkpt>
      <trkpt lat="44.39898" lon="6.39881">
        <ele>2084.6000976562</ele>
        <time>2016-07-18T11:42:41.000Z</time>
      </trkpt>
      <trkpt lat="44.39889" lon="6.39894">
        <ele>2082.3999023438</ele>
        <time>2016-07-18T11:42:48.000Z</time>
      </trkpt>
      <trkpt lat="44.39884" lon="6.39924">
        <ele>2076.6000976562</ele>
        <time>2016-07-18T11:43:01.000Z</time>
      </trkpt>
      <trkpt lat="44.39885" lon="6.39943">
        <ele>2073.1999511719</ele>
        <time>2016-07-18T11:43:09.000Z</time>
      </trkpt>
      <trkpt lat="44.39887" lon="6.39963">
        <ele>2069.3999023438</ele>
        <time>2016-07-18T11:43:18.000Z</time>
      </trkpt>
      <trkpt lat="44.39891" lon="6.39978">
        <ele>2067</ele>
        <time>2016-07-18T11:43:25.000Z</time>
      </trkpt>
      <trkpt lat="44.39895" lon="6.39995">
        <ele>2065.6000976562</ele>
        <time>2016-07-18T11:43:33.000Z</time>
      </trkpt>
      <trkpt lat="44.399" lon="6.40014">
        <ele>2064.6000976562</ele>
        <time>2016-07-18T11:43:41.000Z</time>
      </trkpt>
      <trkpt lat="44.39901" lon="6.40039">
        <ele>2062.3999023438</ele>
        <time>2016-07-18T11:43:47.000Z</time>
      </trkpt>
      <trkpt lat="44.39901" lon="6.40064">
        <ele>2060</ele>
        <time>2016-07-18T11:43:51.000Z</time>
      </trkpt>
      <trkpt lat="44.39901" lon="6.4008">
        <ele>2059</ele>
        <time>2016-07-18T11:43:53.000Z</time>
      </trkpt>
      <trkpt lat="44.39894" lon="6.40102">
        <ele>2057.3999023438</ele>
        <time>2016-07-18T11:43:58.000Z</time>
      </trkpt>
      <trkpt lat="44.39887" lon="6.40105">
        <ele>2057.1999511719</ele>
        <time>2016-07-18T11:44:03.000Z</time>
      </trkpt>
      <trkpt lat="44.39871" lon="6.4011">
        <ele>2056.8000488281</ele>
        <time>2016-07-18T11:44:14.000Z</time>
      </trkpt>
      <trkpt lat="44.39858" lon="6.40115">
        <ele>2056.3999023438</ele>
        <time>2016-07-18T11:44:21.000Z</time>
      </trkpt>
      <trkpt lat="44.39839" lon="6.40122">
        <ele>2056</ele>
        <time>2016-07-18T11:44:31.000Z</time>
      </trkpt>
      <trkpt lat="44.39825" lon="6.40133">
        <ele>2055</ele>
        <time>2016-07-18T11:44:40.000Z</time>
      </trkpt>
      <trkpt lat="44.3981" lon="6.40144">
        <ele>2053.8000488281</ele>
        <time>2016-07-18T11:44:50.000Z</time>
      </trkpt>
      <trkpt lat="44.39797" lon="6.40147">
        <ele>2053</ele>
        <time>2016-07-18T11:44:58.000Z</time>
      </trkpt>
      <trkpt lat="44.39785" lon="6.40151">
        <ele>2051.8000488281</ele>
        <time>2016-07-18T11:45:06.000Z</time>
      </trkpt>
      <trkpt lat="44.39777" lon="6.40162">
        <ele>2051.8000488281</ele>
        <time>2016-07-18T11:45:14.000Z</time>
      </trkpt>
      <trkpt lat="44.39774" lon="6.40168">
        <ele>2051.6000976562</ele>
        <time>2016-07-18T11:45:17.000Z</time>
      </trkpt>
      <trkpt lat="44.39768" lon="6.40174">
        <ele>2052.1999511719</ele>
        <time>2016-07-18T11:45:23.000Z</time>
      </trkpt>
      <trkpt lat="44.39761" lon="6.40173">
        <ele>2053.1999511719</ele>
        <time>2016-07-18T11:45:28.000Z</time>
      </trkpt>
      <trkpt lat="44.3976" lon="6.40173">
        <ele>2053.3999023438</ele>
        <time>2016-07-18T11:45:38.000Z</time>
      </trkpt>
      <trkpt lat="44.39752" lon="6.40173">
        <ele>2054.3999023438</ele>
        <time>2016-07-18T11:46:17.000Z</time>
      </trkpt>
      <trkpt lat="44.39742" lon="6.40176">
        <ele>2055.6000976562</ele>
        <time>2016-07-18T11:46:24.000Z</time>
      </trkpt>
      <trkpt lat="44.39736" lon="6.40189">
        <ele>2055.3999023438</ele>
        <time>2016-07-18T11:46:27.000Z</time>
      </trkpt>
      <trkpt lat="44.39731" lon="6.40201">
        <ele>2054</ele>
        <time>2016-07-18T11:46:33.000Z</time>
      </trkpt>
      <trkpt lat="44.39723" lon="6.40204">
        <ele>2054.1999511719</ele>
        <time>2016-07-18T11:46:40.000Z</time>
      </trkpt>
      <trkpt lat="44.3971" lon="6.40205">
        <ele>2055</ele>
        <time>2016-07-18T11:46:49.000Z</time>
      </trkpt>
      <trkpt lat="44.39695" lon="6.40197">
        <ele>2056.8000488281</ele>
        <time>2016-07-18T11:46:55.000Z</time>
      </trkpt>
      <trkpt lat="44.3968" lon="6.4019">
        <ele>2057.6000976562</ele>
        <time>2016-07-18T11:47:02.000Z</time>
      </trkpt>
      <trkpt lat="44.39669" lon="6.40184">
        <ele>2058.1999511719</ele>
        <time>2016-07-18T11:47:10.000Z</time>
      </trkpt>
      <trkpt lat="44.3966" lon="6.40177">
        <ele>2059</ele>
        <time>2016-07-18T11:47:17.000Z</time>
      </trkpt>
      <trkpt lat="44.39651" lon="6.40169">
        <ele>2059.8000488281</ele>
        <time>2016-07-18T11:47:24.000Z</time>
      </trkpt>
      <trkpt lat="44.39639" lon="6.4016">
        <ele>2061</ele>
        <time>2016-07-18T11:47:32.000Z</time>
      </trkpt>
      <trkpt lat="44.3963" lon="6.40153">
        <ele>2061.6000976562</ele>
        <time>2016-07-18T11:47:39.000Z</time>
      </trkpt>
      <trkpt lat="44.3962" lon="6.40146">
        <ele>2062.8000488281</ele>
        <time>2016-07-18T11:47:48.000Z</time>
      </trkpt>
      <trkpt lat="44.39612" lon="6.4014">
        <ele>2064</ele>
        <time>2016-07-18T11:47:54.000Z</time>
      </trkpt>
      <trkpt lat="44.39602" lon="6.40133">
        <ele>2065.3999023438</ele>
        <time>2016-07-18T11:48:02.000Z</time>
      </trkpt>
      <trkpt lat="44.39594" lon="6.40126">
        <ele>2067.1999511719</ele>
        <time>2016-07-18T11:48:08.000Z</time>
      </trkpt>
      <trkpt lat="44.39581" lon="6.40115">
        <ele>2069.3999023438</ele>
        <time>2016-07-18T11:48:20.000Z</time>
      </trkpt>
      <trkpt lat="44.39569" lon="6.4011">
        <ele>2070.6000976562</ele>
        <time>2016-07-18T11:48:30.000Z</time>
      </trkpt>
      <trkpt lat="44.39559" lon="6.401">
        <ele>2072.8000488281</ele>
        <time>2016-07-18T11:48:38.000Z</time>
      </trkpt>
      <trkpt lat="44.39551" lon="6.40091">
        <ele>2075</ele>
        <time>2016-07-18T11:48:45.000Z</time>
      </trkpt>
      <trkpt lat="44.39546" lon="6.40084">
        <ele>2076.3999023438</ele>
        <time>2016-07-18T11:48:50.000Z</time>
      </trkpt>
      <trkpt lat="44.3954" lon="6.40075">
        <ele>2078.6000976562</ele>
        <time>2016-07-18T11:48:56.000Z</time>
      </trkpt>
      <trkpt lat="44.39533" lon="6.40063">
        <ele>2081.3999023438</ele>
        <time>2016-07-18T11:49:05.000Z</time>
      </trkpt>
      <trkpt lat="44.39525" lon="6.40051">
        <ele>2084</ele>
        <time>2016-07-18T11:49:14.000Z</time>
      </trkpt>
      <trkpt lat="44.39515" lon="6.40039">
        <ele>2086.3999023438</ele>
        <time>2016-07-18T11:49:25.000Z</time>
      </trkpt>
      <trkpt lat="44.3951" lon="6.40033">
        <ele>2087.8000488281</ele>
        <time>2016-07-18T11:49:30.000Z</time>
      </trkpt>
      <trkpt lat="44.39502" lon="6.40025">
        <ele>2089.3999023438</ele>
        <time>2016-07-18T11:49:39.000Z</time>
      </trkpt>
      <trkpt lat="44.39493" lon="6.40017">
        <ele>2091</ele>
        <time>2016-07-18T11:49:47.000Z</time>
      </trkpt>
      <trkpt lat="44.39482" lon="6.40007">
        <ele>2093.1999511719</ele>
        <time>2016-07-18T11:49:56.000Z</time>
      </trkpt>
      <trkpt lat="44.39471" lon="6.39995">
        <ele>2095.6000976562</ele>
        <time>2016-07-18T11:50:05.000Z</time>
      </trkpt>
      <trkpt lat="44.39459" lon="6.39987">
        <ele>2097</ele>
        <time>2016-07-18T11:50:14.000Z</time>
      </trkpt>
      <trkpt lat="44.39444" lon="6.3998">
        <ele>2098.3999023438</ele>
        <time>2016-07-18T11:50:25.000Z</time>
      </trkpt>
      <trkpt lat="44.39417" lon="6.3997">
        <ele>2101.1999511719</ele>
        <time>2016-07-18T11:50:44.000Z</time>
      </trkpt>
      <trkpt lat="44.39402" lon="6.39964">
        <ele>2102.6000976562</ele>
        <time>2016-07-18T11:50:54.000Z</time>
      </trkpt>
      <trkpt lat="44.39387" lon="6.3996">
        <ele>2104</ele>
        <time>2016-07-18T11:51:04.000Z</time>
      </trkpt>
      <trkpt lat="44.39374" lon="6.39957">
        <ele>2105</ele>
        <time>2016-07-18T11:51:13.000Z</time>
      </trkpt>
      <trkpt lat="44.39362" lon="6.39953">
        <ele>2106.1999511719</ele>
        <time>2016-07-18T11:51:20.000Z</time>
      </trkpt>
      <trkpt lat="44.39349" lon="6.39949">
        <ele>2107.3999023438</ele>
        <time>2016-07-18T11:51:30.000Z</time>
      </trkpt>
      <trkpt lat="44.39336" lon="6.39945">
        <ele>2108.3999023438</ele>
        <time>2016-07-18T11:51:39.000Z</time>
      </trkpt>
      <trkpt lat="44.39334" lon="6.39945">
        <ele>2108.3999023438</ele>
        <time>2016-07-18T11:51:40.000Z</time>
      </trkpt>
      <trkpt lat="44.39315" lon="6.39936">
        <ele>2110.3999023438</ele>
        <time>2016-07-18T11:51:53.000Z</time>
      </trkpt>
      <trkpt lat="44.39313" lon="6.39936">
        <ele>2110.8000488281</ele>
        <time>2016-07-18T11:51:54.000Z</time>
      </trkpt>
      <trkpt lat="44.39299" lon="6.39932">
        <ele>2112.1999511719</ele>
        <time>2016-07-18T11:52:04.000Z</time>
      </trkpt>
      <trkpt lat="44.39287" lon="6.39926">
        <ele>2113.8000488281</ele>
        <time>2016-07-18T11:52:13.000Z</time>
      </trkpt>
      <trkpt lat="44.39274" lon="6.39913">
        <ele>2116</ele>
        <time>2016-07-18T11:52:24.000Z</time>
      </trkpt>
      <trkpt lat="44.39266" lon="6.39905">
        <ele>2117.1999511719</ele>
        <time>2016-07-18T11:52:31.000Z</time>
      </trkpt>
      <trkpt lat="44.39258" lon="6.39892">
        <ele>2118.3999023438</ele>
        <time>2016-07-18T11:52:40.000Z</time>
      </trkpt>
      <trkpt lat="44.39245" lon="6.39872">
        <ele>2119</ele>
        <time>2016-07-18T11:52:53.000Z</time>
      </trkpt>
      <trkpt lat="44.39238" lon="6.39862">
        <ele>2119.3999023438</ele>
        <time>2016-07-18T11:53:00.000Z</time>
      </trkpt>
      <trkpt lat="44.3923" lon="6.39851">
        <ele>2119.8000488281</ele>
        <time>2016-07-18T11:53:06.000Z</time>
      </trkpt>
      <trkpt lat="44.39221" lon="6.39838">
        <ele>2120.3999023438</ele>
        <time>2016-07-18T11:53:15.000Z</time>
      </trkpt>
      <trkpt lat="44.39213" lon="6.39826">
        <ele>2121.1999511719</ele>
        <time>2016-07-18T11:53:23.000Z</time>
      </trkpt>
      <trkpt lat="44.39201" lon="6.39814">
        <ele>2122.1999511719</ele>
        <time>2016-07-18T11:53:30.000Z</time>
      </trkpt>
      <trkpt lat="44.392" lon="6.39811">
        <ele>2122.3999023438</ele>
        <time>2016-07-18T11:53:32.000Z</time>
      </trkpt>
      <trkpt lat="44.39199" lon="6.398">
        <ele>2124</ele>
        <time>2016-07-18T11:53:38.000Z</time>
      </trkpt>
      <trkpt lat="44.39199" lon="6.39798">
        <ele>2124.1999511719</ele>
        <time>2016-07-18T11:53:39.000Z</time>
      </trkpt>
      <trkpt lat="44.39197" lon="6.39786">
        <ele>2126</ele>
        <time>2016-07-18T11:53:45.000Z</time>
      </trkpt>
      <trkpt lat="44.3919" lon="6.39773">
        <ele>2128.3999023438</ele>
        <time>2016-07-18T11:53:54.000Z</time>
      </trkpt>
      <trkpt lat="44.39188" lon="6.39759">
        <ele>2130.3999023438</ele>
        <time>2016-07-18T11:54:00.000Z</time>
      </trkpt>
      <trkpt lat="44.39184" lon="6.39743">
        <ele>2133</ele>
        <time>2016-07-18T11:54:10.000Z</time>
      </trkpt>
      <trkpt lat="44.39181" lon="6.39739">
        <ele>2133.8000488281</ele>
        <time>2016-07-18T11:54:13.000Z</time>
      </trkpt>
      <trkpt lat="44.39176" lon="6.39735">
        <ele>2135</ele>
        <time>2016-07-18T11:54:17.000Z</time>
      </trkpt>
      <trkpt lat="44.39171" lon="6.39729">
        <ele>2136.1999511719</ele>
        <time>2016-07-18T11:54:22.000Z</time>
      </trkpt>
      <trkpt lat="44.39164" lon="6.39728">
        <ele>2137</ele>
        <time>2016-07-18T11:54:25.000Z</time>
      </trkpt>
      <trkpt lat="44.39144" lon="6.39722">
        <ele>2139.6000976562</ele>
        <time>2016-07-18T11:54:37.000Z</time>
      </trkpt>
      <trkpt lat="44.39115" lon="6.39715">
        <ele>2143.3999023438</ele>
        <time>2016-07-18T11:54:55.000Z</time>
      </trkpt>
      <trkpt lat="44.39104" lon="6.39706">
        <ele>2145.6000976562</ele>
        <time>2016-07-18T11:55:05.000Z</time>
      </trkpt>
      <trkpt lat="44.39095" lon="6.39697">
        <ele>2147.6000976562</ele>
        <time>2016-07-18T11:55:13.000Z</time>
      </trkpt>
      <trkpt lat="44.39087" lon="6.39688">
        <ele>2149.3999023438</ele>
        <time>2016-07-18T11:55:20.000Z</time>
      </trkpt>
      <trkpt lat="44.3908" lon="6.39673">
        <ele>2151.6000976562</ele>
        <time>2016-07-18T11:55:28.000Z</time>
      </trkpt>
      <trkpt lat="44.39073" lon="6.39656">
        <ele>2153.8000488281</ele>
        <time>2016-07-18T11:55:38.000Z</time>
      </trkpt>
      <trkpt lat="44.39068" lon="6.39642">
        <ele>2155.3999023438</ele>
        <time>2016-07-18T11:55:46.000Z</time>
      </trkpt>
      <trkpt lat="44.39062" lon="6.39627">
        <ele>2156.6000976562</ele>
        <time>2016-07-18T11:55:54.000Z</time>
      </trkpt>
      <trkpt lat="44.39058" lon="6.39609">
        <ele>2158</ele>
        <time>2016-07-18T11:56:05.000Z</time>
      </trkpt>
      <trkpt lat="44.39054" lon="6.39589">
        <ele>2159.1999511719</ele>
        <time>2016-07-18T11:56:14.000Z</time>
      </trkpt>
      <trkpt lat="44.39052" lon="6.39572">
        <ele>2159.6000976562</ele>
        <time>2016-07-18T11:56:23.000Z</time>
      </trkpt>
      <trkpt lat="44.39052" lon="6.39555">
        <ele>2161</ele>
        <time>2016-07-18T11:56:30.000Z</time>
      </trkpt>
      <trkpt lat="44.3905" lon="6.39531">
        <ele>2164.1999511719</ele>
        <time>2016-07-18T11:56:42.000Z</time>
      </trkpt>
      <trkpt lat="44.3905" lon="6.39515">
        <ele>2166</ele>
        <time>2016-07-18T11:56:49.000Z</time>
      </trkpt>
      <trkpt lat="44.39051" lon="6.39511">
        <ele>2166.3999023438</ele>
        <time>2016-07-18T11:56:52.000Z</time>
      </trkpt>
      <trkpt lat="44.3905" lon="6.39499">
        <ele>2167.8000488281</ele>
        <time>2016-07-18T11:56:57.000Z</time>
      </trkpt>
      <trkpt lat="44.39052" lon="6.39486">
        <ele>2168.8000488281</ele>
        <time>2016-07-18T11:57:04.000Z</time>
      </trkpt>
      <trkpt lat="44.39052" lon="6.39483">
        <ele>2169.1999511719</ele>
        <time>2016-07-18T11:57:05.000Z</time>
      </trkpt>
      <trkpt lat="44.39045" lon="6.39479">
        <ele>2171</ele>
        <time>2016-07-18T11:57:10.000Z</time>
      </trkpt>
      <trkpt lat="44.39041" lon="6.39474">
        <ele>2172.1999511719</ele>
        <time>2016-07-18T11:57:14.000Z</time>
      </trkpt>
      <trkpt lat="44.39034" lon="6.39455">
        <ele>2176</ele>
        <time>2016-07-18T11:57:20.000Z</time>
      </trkpt>
      <trkpt lat="44.3903" lon="6.39442">
        <ele>2178</ele>
        <time>2016-07-18T11:57:29.000Z</time>
      </trkpt>
      <trkpt lat="44.39023" lon="6.39439">
        <ele>2178</ele>
        <time>2016-07-18T11:57:35.000Z</time>
      </trkpt>
      <trkpt lat="44.3902" lon="6.39439">
        <ele>2178</ele>
        <time>2016-07-18T11:57:37.000Z</time>
      </trkpt>
      <trkpt lat="44.39014" lon="6.39435">
        <ele>2178.1999511719</ele>
        <time>2016-07-18T11:57:42.000Z</time>
      </trkpt>
      <trkpt lat="44.38996" lon="6.39426">
        <ele>2178.1999511719</ele>
        <time>2016-07-18T11:57:55.000Z</time>
      </trkpt>
      <trkpt lat="44.38985" lon="6.39422">
        <ele>2178</ele>
        <time>2016-07-18T11:58:04.000Z</time>
      </trkpt>
      <trkpt lat="44.38974" lon="6.39416">
        <ele>2178.1999511719</ele>
        <time>2016-07-18T11:58:12.000Z</time>
      </trkpt>
      <trkpt lat="44.38966" lon="6.39413">
        <ele>2178.1999511719</ele>
        <time>2016-07-18T11:58:18.000Z</time>
      </trkpt>
      <trkpt lat="44.38953" lon="6.39408">
        <ele>2178.8000488281</ele>
        <time>2016-07-18T11:58:26.000Z</time>
      </trkpt>
      <trkpt lat="44.3894" lon="6.39406">
        <ele>2175.6000976562</ele>
        <time>2016-07-18T11:58:35.000Z</time>
      </trkpt>
      <trkpt lat="44.38924" lon="6.39399">
        <ele>2168.3999023438</ele>
        <time>2016-07-18T11:58:47.000Z</time>
      </trkpt>
      <trkpt lat="44.38916" lon="6.39399">
        <ele>2165</ele>
        <time>2016-07-18T11:58:52.000Z</time>
      </trkpt>
      <trkpt lat="44.38907" lon="6.3941">
        <ele>2161.3999023438</ele>
        <time>2016-07-18T11:59:02.000Z</time>
      </trkpt>
      <trkpt lat="44.38903" lon="6.39425">
        <ele>2160</ele>
        <time>2016-07-18T11:59:10.000Z</time>
      </trkpt>
      <trkpt lat="44.38905" lon="6.3944">
        <ele>2162</ele>
        <time>2016-07-18T11:59:17.000Z</time>
      </trkpt>
      <trkpt lat="44.38906" lon="6.39458">
        <ele>2167.1999511719</ele>
        <time>2016-07-18T11:59:25.000Z</time>
      </trkpt>
      <trkpt lat="44.38909" lon="6.3947">
        <ele>2171</ele>
        <time>2016-07-18T11:59:32.000Z</time>
      </trkpt>
      <trkpt lat="44.38914" lon="6.39485">
        <ele>2175.1999511719</ele>
        <time>2016-07-18T11:59:40.000Z</time>
      </trkpt>
      <trkpt lat="44.38921" lon="6.39502">
        <ele>2177</ele>
        <time>2016-07-18T11:59:50.000Z</time>
      </trkpt>
      <trkpt lat="44.38925" lon="6.3951">
        <ele>2178.1999511719</ele>
        <time>2016-07-18T11:59:55.000Z</time>
      </trkpt>
      <trkpt lat="44.38935" lon="6.39513">
        <ele>2180.3999023438</ele>
        <time>2016-07-18T12:00:02.000Z</time>
      </trkpt>
      <trkpt lat="44.38937" lon="6.39514">
        <ele>2180.8000488281</ele>
        <time>2016-07-18T12:00:04.000Z</time>
      </trkpt>
      <trkpt lat="44.38944" lon="6.39521">
        <ele>2182.3999023438</ele>
        <time>2016-07-18T12:00:10.000Z</time>
      </trkpt>
      <trkpt lat="44.38952" lon="6.39526">
        <ele>2182.6000976562</ele>
        <time>2016-07-18T12:00:17.000Z</time>
      </trkpt>
      <trkpt lat="44.38953" lon="6.39526">
        <ele>2182.1999511719</ele>
        <time>2016-07-18T12:00:18.000Z</time>
      </trkpt>
      <trkpt lat="44.38963" lon="6.39521">
        <ele>2179.6000976562</ele>
        <time>2016-07-18T12:00:25.000Z</time>
      </trkpt>
      <trkpt lat="44.38966" lon="6.39519">
        <ele>2179</ele>
        <time>2016-07-18T12:00:29.000Z</time>
      </trkpt>
      <trkpt lat="44.38973" lon="6.39518">
        <ele>2177.1999511719</ele>
        <time>2016-07-18T12:00:34.000Z</time>
      </trkpt>
      <trkpt lat="44.38983" lon="6.39515">
        <ele>2174.8000488281</ele>
        <time>2016-07-18T12:00:42.000Z</time>
      </trkpt>
      <trkpt lat="44.38991" lon="6.39514">
        <ele>2174</ele>
        <time>2016-07-18T12:00:48.000Z</time>
      </trkpt>
      <trkpt lat="44.39001" lon="6.39509">
        <ele>2173.3999023438</ele>
        <time>2016-07-18T12:00:55.000Z</time>
      </trkpt>
      <trkpt lat="44.39004" lon="6.39509">
        <ele>2173</ele>
        <time>2016-07-18T12:01:00.000Z</time>
      </trkpt>
      <trkpt lat="44.39008" lon="6.39509">
        <ele>2172.6000976562</ele>
        <time>2016-07-18T12:01:05.000Z</time>
      </trkpt>
      <trkpt lat="44.39015" lon="6.39508">
        <ele>2171.8000488281</ele>
        <time>2016-07-18T12:01:12.000Z</time>
      </trkpt>
      <trkpt lat="44.39018" lon="6.3951">
        <ele>2171.1999511719</ele>
        <time>2016-07-18T12:01:14.000Z</time>
      </trkpt>
      <trkpt lat="44.39025" lon="6.39509">
        <ele>2170.6000976562</ele>
        <time>2016-07-18T12:01:20.000Z</time>
      </trkpt>
      <trkpt lat="44.3903" lon="6.3951">
        <ele>2169.8000488281</ele>
        <time>2016-07-18T12:01:25.000Z</time>
      </trkpt>
      <trkpt lat="44.39041" lon="6.39512">
        <ele>2167.8000488281</ele>
        <time>2016-07-18T12:01:32.000Z</time>
      </trkpt>
      <trkpt lat="44.39049" lon="6.39528">
        <ele>2164.6000976562</ele>
        <time>2016-07-18T12:01:42.000Z</time>
      </trkpt>
      <trkpt lat="44.39055" lon="6.39544">
        <ele>2161.8000488281</ele>
        <time>2016-07-18T12:01:50.000Z</time>
      </trkpt>
      <trkpt lat="44.39056" lon="6.39561">
        <ele>2159.6000976562</ele>
        <time>2016-07-18T12:01:59.000Z</time>
      </trkpt>
      <trkpt lat="44.39057" lon="6.39575">
        <ele>2158.8000488281</ele>
        <time>2016-07-18T12:02:05.000Z</time>
      </trkpt>
      <trkpt lat="44.39059" lon="6.39587">
        <ele>2158.3999023438</ele>
        <time>2016-07-18T12:02:12.000Z</time>
      </trkpt>
      <trkpt lat="44.39059" lon="6.39593">
        <ele>2158.3999023438</ele>
        <time>2016-07-18T12:02:15.000Z</time>
      </trkpt>
      <trkpt lat="44.39061" lon="6.39608">
        <ele>2157.6000976562</ele>
        <time>2016-07-18T12:02:23.000Z</time>
      </trkpt>
      <trkpt lat="44.39063" lon="6.39625">
        <ele>2156.6000976562</ele>
        <time>2016-07-18T12:02:32.000Z</time>
      </trkpt>
      <trkpt lat="44.39068" lon="6.39641">
        <ele>2155.6000976562</ele>
        <time>2016-07-18T12:02:40.000Z</time>
      </trkpt>
      <trkpt lat="44.39072" lon="6.39656">
        <ele>2154</ele>
        <time>2016-07-18T12:02:48.000Z</time>
      </trkpt>
      <trkpt lat="44.39075" lon="6.39672">
        <ele>2152.1999511719</ele>
        <time>2016-07-18T12:02:56.000Z</time>
      </trkpt>
      <trkpt lat="44.3908" lon="6.39687">
        <ele>2150.3999023438</ele>
        <time>2016-07-18T12:03:04.000Z</time>
      </trkpt>
      <trkpt lat="44.39084" lon="6.397">
        <ele>2148.8000488281</ele>
        <time>2016-07-18T12:03:11.000Z</time>
      </trkpt>
      <trkpt lat="44.39087" lon="6.39718">
        <ele>2148.1999511719</ele>
        <time>2016-07-18T12:03:20.000Z</time>
      </trkpt>
      <trkpt lat="44.39091" lon="6.39734">
        <ele>2148</ele>
        <time>2016-07-18T12:03:28.000Z</time>
      </trkpt>
      <trkpt lat="44.39104" lon="6.39758">
        <ele>2145.6000976562</ele>
        <time>2016-07-18T12:03:44.000Z</time>
      </trkpt>
      <trkpt lat="44.39112" lon="6.3977">
        <ele>2144</ele>
        <time>2016-07-18T12:03:52.000Z</time>
      </trkpt>
      <trkpt lat="44.39121" lon="6.39778">
        <ele>2141.8000488281</ele>
        <time>2016-07-18T12:04:00.000Z</time>
      </trkpt>
      <trkpt lat="44.39133" lon="6.39784">
        <ele>2138.8000488281</ele>
        <time>2016-07-18T12:04:09.000Z</time>
      </trkpt>
      <trkpt lat="44.39144" lon="6.39794">
        <ele>2136.3999023438</ele>
        <time>2016-07-18T12:04:18.000Z</time>
      </trkpt>
      <trkpt lat="44.39152" lon="6.398">
        <ele>2134.1999511719</ele>
        <time>2016-07-18T12:04:25.000Z</time>
      </trkpt>
      <trkpt lat="44.39161" lon="6.39806">
        <ele>2132</ele>
        <time>2016-07-18T12:04:32.000Z</time>
      </trkpt>
      <trkpt lat="44.39172" lon="6.39813">
        <ele>2129.3999023438</ele>
        <time>2016-07-18T12:04:41.000Z</time>
      </trkpt>
      <trkpt lat="44.39179" lon="6.3983">
        <ele>2127.8000488281</ele>
        <time>2016-07-18T12:04:52.000Z</time>
      </trkpt>
      <trkpt lat="44.3918" lon="6.39834">
        <ele>2127.8000488281</ele>
        <time>2016-07-18T12:04:54.000Z</time>
      </trkpt>
      <trkpt lat="44.39184" lon="6.39848">
        <ele>2127.1999511719</ele>
        <time>2016-07-18T12:05:03.000Z</time>
      </trkpt>
      <trkpt lat="44.39191" lon="6.39854">
        <ele>2125.6000976562</ele>
        <time>2016-07-18T12:05:09.000Z</time>
      </trkpt>
      <trkpt lat="44.39193" lon="6.39864">
        <ele>2125.1999511719</ele>
        <time>2016-07-18T12:05:14.000Z</time>
      </trkpt>
      <trkpt lat="44.39193" lon="6.3988">
        <ele>2125.8000488281</ele>
        <time>2016-07-18T12:05:23.000Z</time>
      </trkpt>
      <trkpt lat="44.39195" lon="6.39889">
        <ele>2125.3999023438</ele>
        <time>2016-07-18T12:05:28.000Z</time>
      </trkpt>
      <trkpt lat="44.392" lon="6.399">
        <ele>2124.8000488281</ele>
        <time>2016-07-18T12:05:34.000Z</time>
      </trkpt>
      <trkpt lat="44.392" lon="6.39901">
        <ele>2124.8000488281</ele>
        <time>2016-07-18T12:05:35.000Z</time>
      </trkpt>
      <trkpt lat="44.39204" lon="6.39911">
        <ele>2124.6000976562</ele>
        <time>2016-07-18T12:05:41.000Z</time>
      </trkpt>
      <trkpt lat="44.39207" lon="6.39924">
        <ele>2124.6000976562</ele>
        <time>2016-07-18T12:05:49.000Z</time>
      </trkpt>
      <trkpt lat="44.39207" lon="6.39926">
        <ele>2124.6000976562</ele>
        <time>2016-07-18T12:05:50.000Z</time>
      </trkpt>
      <trkpt lat="44.39209" lon="6.39928">
        <ele>2124.1999511719</ele>
        <time>2016-07-18T12:05:52.000Z</time>
      </trkpt>
      <trkpt lat="44.39212" lon="6.39926">
        <ele>2123.6000976562</ele>
        <time>2016-07-18T12:05:57.000Z</time>
      </trkpt>
      <trkpt lat="44.39212" lon="6.39925">
        <ele>2123.6000976562</ele>
        <time>2016-07-18T12:06:02.000Z</time>
      </trkpt>
      <trkpt lat="44.39211" lon="6.39927">
        <ele>2123.8000488281</ele>
        <time>2016-07-18T12:06:06.000Z</time>
      </trkpt>
      <trkpt lat="44.39215" lon="6.39929">
        <ele>2123</ele>
        <time>2016-07-18T12:06:12.000Z</time>
      </trkpt>
      <trkpt lat="44.39223" lon="6.39939">
        <ele>2121.8000488281</ele>
        <time>2016-07-18T12:06:18.000Z</time>
      </trkpt>
      <trkpt lat="44.39227" lon="6.39955">
        <ele>2121.8000488281</ele>
        <time>2016-07-18T12:06:26.000Z</time>
      </trkpt>
      <trkpt lat="44.39226" lon="6.3997">
        <ele>2123</ele>
        <time>2016-07-18T12:06:33.000Z</time>
      </trkpt>
      <trkpt lat="44.39219" lon="6.39981">
        <ele>2125.1999511719</ele>
        <time>2016-07-18T12:06:41.000Z</time>
      </trkpt>
      <trkpt lat="44.3921" lon="6.39987">
        <ele>2127.1999511719</ele>
        <time>2016-07-18T12:06:48.000Z</time>
      </trkpt>
      <trkpt lat="44.39204" lon="6.39993">
        <ele>2128.6000976562</ele>
        <time>2016-07-18T12:06:54.000Z</time>
      </trkpt>
      <trkpt lat="44.39199" lon="6.40006">
        <ele>2129.1999511719</ele>
        <time>2016-07-18T12:07:02.000Z</time>
      </trkpt>
      <trkpt lat="44.39197" lon="6.40011">
        <ele>2129.6000976562</ele>
        <time>2016-07-18T12:07:06.000Z</time>
      </trkpt>
      <trkpt lat="44.39188" lon="6.40016">
        <ele>2131</ele>
        <time>2016-07-18T12:07:13.000Z</time>
      </trkpt>
      <trkpt lat="44.39187" lon="6.40017">
        <ele>2131.1999511719</ele>
        <time>2016-07-18T12:07:14.000Z</time>
      </trkpt>
      <trkpt lat="44.39178" lon="6.40024">
        <ele>2132.6000976562</ele>
        <time>2016-07-18T12:07:22.000Z</time>
      </trkpt>
      <trkpt lat="44.3917" lon="6.40037">
        <ele>2133.6000976562</ele>
        <time>2016-07-18T12:07:32.000Z</time>
      </trkpt>
      <trkpt lat="44.39169" lon="6.40055">
        <ele>2130.6000976562</ele>
        <time>2016-07-18T12:07:42.000Z</time>
      </trkpt>
      <trkpt lat="44.39172" lon="6.40071">
        <ele>2128.6000976562</ele>
        <time>2016-07-18T12:07:50.000Z</time>
      </trkpt>
      <trkpt lat="44.39165" lon="6.40075">
        <ele>2128.6000976562</ele>
        <time>2016-07-18T12:07:57.000Z</time>
      </trkpt>
      <trkpt lat="44.39159" lon="6.40075">
        <ele>2128.8000488281</ele>
        <time>2016-07-18T12:08:02.000Z</time>
      </trkpt>
      <trkpt lat="44.3915" lon="6.40077">
        <ele>2129</ele>
        <time>2016-07-18T12:08:08.000Z</time>
      </trkpt>
      <trkpt lat="44.39143" lon="6.40079">
        <ele>2129.1999511719</ele>
        <time>2016-07-18T12:08:15.000Z</time>
      </trkpt>
      <trkpt lat="44.39141" lon="6.40079">
        <ele>2129.1999511719</ele>
        <time>2016-07-18T12:08:16.000Z</time>
      </trkpt>
      <trkpt lat="44.39134" lon="6.40073">
        <ele>2129.8000488281</ele>
        <time>2016-07-18T12:08:23.000Z</time>
      </trkpt>
      <trkpt lat="44.39131" lon="6.40073">
        <ele>2130</ele>
        <time>2016-07-18T12:08:28.000Z</time>
      </trkpt>
      <trkpt lat="44.39127" lon="6.40077">
        <ele>2129.8000488281</ele>
        <time>2016-07-18T12:08:34.000Z</time>
      </trkpt>
      <trkpt lat="44.39119" lon="6.40084">
        <ele>2128.1999511719</ele>
        <time>2016-07-18T12:08:43.000Z</time>
      </trkpt>
      <trkpt lat="44.39112" lon="6.40082">
        <ele>2128</ele>
        <time>2016-07-18T12:08:49.000Z</time>
      </trkpt>
      <trkpt lat="44.391" lon="6.40081">
        <ele>2126.3999023438</ele>
        <time>2016-07-18T12:08:58.000Z</time>
      </trkpt>
      <trkpt lat="44.39093" lon="6.40079">
        <ele>2125.6000976562</ele>
        <time>2016-07-18T12:09:05.000Z</time>
      </trkpt>
      <trkpt lat="44.39089" lon="6.40082">
        <ele>2124.6000976562</ele>
        <time>2016-07-18T12:09:09.000Z</time>
      </trkpt>
      <trkpt lat="44.39087" lon="6.40084">
        <ele>2124.1999511719</ele>
        <time>2016-07-18T12:09:11.000Z</time>
      </trkpt>
      <trkpt lat="44.39084" lon="6.40086">
        <ele>2123.1999511719</ele>
        <time>2016-07-18T12:09:14.000Z</time>
      </trkpt>
      <trkpt lat="44.39073" lon="6.40087">
        <ele>2121.3999023438</ele>
        <time>2016-07-18T12:09:23.000Z</time>
      </trkpt>
      <trkpt lat="44.39071" lon="6.40087">
        <ele>2121.3999023438</ele>
        <time>2016-07-18T12:09:24.000Z</time>
      </trkpt>
      <trkpt lat="44.39067" lon="6.40087">
        <ele>2120.6000976562</ele>
        <time>2016-07-18T12:09:28.000Z</time>
      </trkpt>
      <trkpt lat="44.39066" lon="6.40085">
        <ele>2120.8000488281</ele>
        <time>2016-07-18T12:09:30.000Z</time>
      </trkpt>
      <trkpt lat="44.3906" lon="6.40084">
        <ele>2120.1999511719</ele>
        <time>2016-07-18T12:09:34.000Z</time>
      </trkpt>
      <trkpt lat="44.39059" lon="6.40084">
        <ele>2120</ele>
        <time>2016-07-18T12:09:35.000Z</time>
      </trkpt>
      <trkpt lat="44.39055" lon="6.4008">
        <ele>2120</ele>
        <time>2016-07-18T12:09:41.000Z</time>
      </trkpt>
      <trkpt lat="44.39049" lon="6.4008">
        <ele>2119.1999511719</ele>
        <time>2016-07-18T12:09:48.000Z</time>
      </trkpt>
      <trkpt lat="44.39045" lon="6.40075">
        <ele>2119.1999511719</ele>
        <time>2016-07-18T12:09:53.000Z</time>
      </trkpt>
      <trkpt lat="44.39043" lon="6.4007">
        <ele>2119.8000488281</ele>
        <time>2016-07-18T12:09:57.000Z</time>
      </trkpt>
      <trkpt lat="44.39037" lon="6.40065">
        <ele>2119.8000488281</ele>
        <time>2016-07-18T12:10:03.000Z</time>
      </trkpt>
      <trkpt lat="44.39035" lon="6.40064">
        <ele>2119.8000488281</ele>
        <time>2016-07-18T12:10:05.000Z</time>
      </trkpt>
      <trkpt lat="44.39025" lon="6.4006">
        <ele>2119.1999511719</ele>
        <time>2016-07-18T12:10:13.000Z</time>
      </trkpt>
      <trkpt lat="44.39022" lon="6.40061">
        <ele>2118.8000488281</ele>
        <time>2016-07-18T12:10:15.000Z</time>
      </trkpt>
      <trkpt lat="44.39012" lon="6.40059">
        <ele>2117.8000488281</ele>
        <time>2016-07-18T12:10:22.000Z</time>
      </trkpt>
      <trkpt lat="44.39011" lon="6.40059">
        <ele>2117.8000488281</ele>
        <time>2016-07-18T12:10:23.000Z</time>
      </trkpt>
      <trkpt lat="44.39002" lon="6.40054">
        <ele>2117.6000976562</ele>
        <time>2016-07-18T12:10:31.000Z</time>
      </trkpt>
      <trkpt lat="44.38979" lon="6.40046">
        <ele>2116.6000976562</ele>
        <time>2016-07-18T12:10:50.000Z</time>
      </trkpt>
      <trkpt lat="44.38974" lon="6.40042">
        <ele>2116.8000488281</ele>
        <time>2016-07-18T12:10:54.000Z</time>
      </trkpt>
      <trkpt lat="44.38969" lon="6.40041">
        <ele>2116.3999023438</ele>
        <time>2016-07-18T12:10:59.000Z</time>
      </trkpt>
      <trkpt lat="44.38962" lon="6.40031">
        <ele>2117.6000976562</ele>
        <time>2016-07-18T12:11:07.000Z</time>
      </trkpt>
      <trkpt lat="44.38954" lon="6.40023">
        <ele>2118.1999511719</ele>
        <time>2016-07-18T12:11:14.000Z</time>
      </trkpt>
      <trkpt lat="44.38953" lon="6.40022">
        <ele>2118.3999023438</ele>
        <time>2016-07-18T12:11:15.000Z</time>
      </trkpt>
      <trkpt lat="44.38948" lon="6.40014">
        <ele>2119.6000976562</ele>
        <time>2016-07-18T12:11:21.000Z</time>
      </trkpt>
      <trkpt lat="44.38941" lon="6.40005">
        <ele>2121</ele>
        <time>2016-07-18T12:11:28.000Z</time>
      </trkpt>
      <trkpt lat="44.38934" lon="6.39999">
        <ele>2122.1999511719</ele>
        <time>2016-07-18T12:11:34.000Z</time>
      </trkpt>
      <trkpt lat="44.38927" lon="6.39994">
        <ele>2123</ele>
        <time>2016-07-18T12:11:40.000Z</time>
      </trkpt>
      <trkpt lat="44.38925" lon="6.39991">
        <ele>2123.3999023438</ele>
        <time>2016-07-18T12:11:42.000Z</time>
      </trkpt>
      <trkpt lat="44.38923" lon="6.39991">
        <ele>2123.6000976562</ele>
        <time>2016-07-18T12:11:44.000Z</time>
      </trkpt>
      <trkpt lat="44.38918" lon="6.39985">
        <ele>2124.6000976562</ele>
        <time>2016-07-18T12:11:48.000Z</time>
      </trkpt>
      <trkpt lat="44.38912" lon="6.39982">
        <ele>2125</ele>
        <time>2016-07-18T12:11:56.000Z</time>
      </trkpt>
      <trkpt lat="44.38909" lon="6.39981">
        <ele>2125.1999511719</ele>
        <time>2016-07-18T12:12:03.000Z</time>
      </trkpt>
      <trkpt lat="44.3891" lon="6.39981">
        <ele>2125.1999511719</ele>
        <time>2016-07-18T12:12:10.000Z</time>
      </trkpt>
      <trkpt lat="44.38907" lon="6.39982">
        <ele>2125</ele>
        <time>2016-07-18T12:12:40.000Z</time>
      </trkpt>
      <trkpt lat="44.38898" lon="6.39985">
        <ele>2124</ele>
        <time>2016-07-18T12:12:51.000Z</time>
      </trkpt>
      <trkpt lat="44.38888" lon="6.39987">
        <ele>2123.3999023438</ele>
        <time>2016-07-18T12:12:59.000Z</time>
      </trkpt>
      <trkpt lat="44.38887" lon="6.39987">
        <ele>2123.3999023438</ele>
        <time>2016-07-18T12:13:00.000Z</time>
      </trkpt>
      <trkpt lat="44.38878" lon="6.39985">
        <ele>2123.6000976562</ele>
        <time>2016-07-18T12:13:07.000Z</time>
      </trkpt>
      <trkpt lat="44.3887" lon="6.39987">
        <ele>2123.1999511719</ele>
        <time>2016-07-18T12:13:13.000Z</time>
      </trkpt>
      <trkpt lat="44.38865" lon="6.39989">
        <ele>2122.8000488281</ele>
        <time>2016-07-18T12:13:17.000Z</time>
      </trkpt>
      <trkpt lat="44.38857" lon="6.39985">
        <ele>2122.8000488281</ele>
        <time>2016-07-18T12:13:23.000Z</time>
      </trkpt>
      <trkpt lat="44.38846" lon="6.39982">
        <ele>2122.3999023438</ele>
        <time>2016-07-18T12:13:32.000Z</time>
      </trkpt>
      <trkpt lat="44.38832" lon="6.39979">
        <ele>2122</ele>
        <time>2016-07-18T12:13:44.000Z</time>
      </trkpt>
      <trkpt lat="44.38824" lon="6.3998">
        <ele>2121</ele>
        <time>2016-07-18T12:13:52.000Z</time>
      </trkpt>
      <trkpt lat="44.38822" lon="6.3998">
        <ele>2121</ele>
        <time>2016-07-18T12:13:54.000Z</time>
      </trkpt>
      <trkpt lat="44.38814" lon="6.39982">
        <ele>2119.8000488281</ele>
        <time>2016-07-18T12:14:02.000Z</time>
      </trkpt>
      <trkpt lat="44.38812" lon="6.39982">
        <ele>2119.6000976562</ele>
        <time>2016-07-18T12:14:04.000Z</time>
      </trkpt>
      <trkpt lat="44.3881" lon="6.39987">
        <ele>2118.3999023438</ele>
        <time>2016-07-18T12:14:10.000Z</time>
      </trkpt>
      <trkpt lat="44.38806" lon="6.39991">
        <ele>2117.3999023438</ele>
        <time>2016-07-18T12:14:14.000Z</time>
      </trkpt>
      <trkpt lat="44.38799" lon="6.39991">
        <ele>2116.8000488281</ele>
        <time>2016-07-18T12:14:20.000Z</time>
      </trkpt>
      <trkpt lat="44.38795" lon="6.39992">
        <ele>2116.1999511719</ele>
        <time>2016-07-18T12:14:24.000Z</time>
      </trkpt>
      <trkpt lat="44.38793" lon="6.39992">
        <ele>2116</ele>
        <time>2016-07-18T12:14:26.000Z</time>
      </trkpt>
      <trkpt lat="44.38789" lon="6.3999">
        <ele>2116.1999511719</ele>
        <time>2016-07-18T12:14:30.000Z</time>
      </trkpt>
      <trkpt lat="44.38778" lon="6.39986">
        <ele>2116.3999023438</ele>
        <time>2016-07-18T12:14:42.000Z</time>
      </trkpt>
      <trkpt lat="44.38768" lon="6.39988">
        <ele>2116.1999511719</ele>
        <time>2016-07-18T12:14:51.000Z</time>
      </trkpt>
      <trkpt lat="44.38764" lon="6.39988">
        <ele>2116</ele>
        <time>2016-07-18T12:14:55.000Z</time>
      </trkpt>
      <trkpt lat="44.38757" lon="6.3999">
        <ele>2115.8000488281</ele>
        <time>2016-07-18T12:15:01.000Z</time>
      </trkpt>
      <trkpt lat="44.3875" lon="6.39994">
        <ele>2115.1999511719</ele>
        <time>2016-07-18T12:15:09.000Z</time>
      </trkpt>
      <trkpt lat="44.38749" lon="6.39995">
        <ele>2115.1999511719</ele>
        <time>2016-07-18T12:15:10.000Z</time>
      </trkpt>
      <trkpt lat="44.38743" lon="6.39997">
        <ele>2114.8000488281</ele>
        <time>2016-07-18T12:15:16.000Z</time>
      </trkpt>
      <trkpt lat="44.38742" lon="6.39997">
        <ele>2114.8000488281</ele>
        <time>2016-07-18T12:15:17.000Z</time>
      </trkpt>
      <trkpt lat="44.38731" lon="6.4">
        <ele>2114.3999023438</ele>
        <time>2016-07-18T12:15:26.000Z</time>
      </trkpt>
      <trkpt lat="44.38722" lon="6.40003">
        <ele>2114</ele>
        <time>2016-07-18T12:15:33.000Z</time>
      </trkpt>
      <trkpt lat="44.38713" lon="6.40007">
        <ele>2113.8000488281</ele>
        <time>2016-07-18T12:15:40.000Z</time>
      </trkpt>
      <trkpt lat="44.38701" lon="6.40013">
        <ele>2113.6000976562</ele>
        <time>2016-07-18T12:15:50.000Z</time>
      </trkpt>
      <trkpt lat="44.38689" lon="6.40017">
        <ele>2113.6000976562</ele>
        <time>2016-07-18T12:15:59.000Z</time>
      </trkpt>
      <trkpt lat="44.38679" lon="6.40021">
        <ele>2113.8000488281</ele>
        <time>2016-07-18T12:16:07.000Z</time>
      </trkpt>
      <trkpt lat="44.38671" lon="6.40023">
        <ele>2113.8000488281</ele>
        <time>2016-07-18T12:16:16.000Z</time>
      </trkpt>
      <trkpt lat="44.38671" lon="6.40024">
        <ele>2113.8000488281</ele>
        <time>2016-07-18T12:16:17.000Z</time>
      </trkpt>
      <trkpt lat="44.38672" lon="6.40023">
        <ele>2113.8000488281</ele>
        <time>2016-07-18T12:16:25.000Z</time>
      </trkpt>
      <trkpt lat="44.38672" lon="6.40024">
        <ele>2113.6000976562</ele>
        <time>2016-07-18T12:16:30.000Z</time>
      </trkpt>
      <trkpt lat="44.38657" lon="6.40037">
        <ele>2112.8000488281</ele>
        <time>2016-07-18T12:16:42.000Z</time>
      </trkpt>
      <trkpt lat="44.38644" lon="6.40051">
        <ele>2111.6000976562</ele>
        <time>2016-07-18T12:16:53.000Z</time>
      </trkpt>
      <trkpt lat="44.38634" lon="6.40059">
        <ele>2111</ele>
        <time>2016-07-18T12:17:01.000Z</time>
      </trkpt>
      <trkpt lat="44.38622" lon="6.4007">
        <ele>2110</ele>
        <time>2016-07-18T12:17:10.000Z</time>
      </trkpt>
      <trkpt lat="44.38611" lon="6.40088">
        <ele>2109.8000488281</ele>
        <time>2016-07-18T12:17:21.000Z</time>
      </trkpt>
      <trkpt lat="44.38597" lon="6.40102">
        <ele>2109.1999511719</ele>
        <time>2016-07-18T12:17:33.000Z</time>
      </trkpt>
      <trkpt lat="44.38584" lon="6.40107">
        <ele>2109</ele>
        <time>2016-07-18T12:17:42.000Z</time>
      </trkpt>
      <trkpt lat="44.3857" lon="6.40104">
        <ele>2109.1999511719</ele>
        <time>2016-07-18T12:17:52.000Z</time>
      </trkpt>
      <trkpt lat="44.38563" lon="6.40094">
        <ele>2109.6000976562</ele>
        <time>2016-07-18T12:17:59.000Z</time>
      </trkpt>
      <trkpt lat="44.38552" lon="6.40079">
        <ele>2110.3999023438</ele>
        <time>2016-07-18T12:18:10.000Z</time>
      </trkpt>
      <trkpt lat="44.38543" lon="6.40062">
        <ele>2111</ele>
        <time>2016-07-18T12:18:21.000Z</time>
      </trkpt>
      <trkpt lat="44.38534" lon="6.40051">
        <ele>2111.1999511719</ele>
        <time>2016-07-18T12:18:30.000Z</time>
      </trkpt>
      <trkpt lat="44.38522" lon="6.40037">
        <ele>2111.1999511719</ele>
        <time>2016-07-18T12:18:40.000Z</time>
      </trkpt>
      <trkpt lat="44.38511" lon="6.40031">
        <ele>2111</ele>
        <time>2016-07-18T12:18:49.000Z</time>
      </trkpt>
      <trkpt lat="44.38499" lon="6.40024">
        <ele>2110.8000488281</ele>
        <time>2016-07-18T12:18:58.000Z</time>
      </trkpt>
      <trkpt lat="44.38484" lon="6.40008">
        <ele>2110.6000976562</ele>
        <time>2016-07-18T12:19:10.000Z</time>
      </trkpt>
      <trkpt lat="44.38472" lon="6.39997">
        <ele>2110.3999023438</ele>
        <time>2016-07-18T12:19:19.000Z</time>
      </trkpt>
      <trkpt lat="44.38456" lon="6.39985">
        <ele>2110.1999511719</ele>
        <time>2016-07-18T12:19:31.000Z</time>
      </trkpt>
      <trkpt lat="44.38438" lon="6.39977">
        <ele>2109.8000488281</ele>
        <time>2016-07-18T12:19:43.000Z</time>
      </trkpt>
      <trkpt lat="44.38422" lon="6.3997">
        <ele>2109.3999023438</ele>
        <time>2016-07-18T12:19:54.000Z</time>
      </trkpt>
      <trkpt lat="44.3841" lon="6.39965">
        <ele>2109.1999511719</ele>
        <time>2016-07-18T12:20:02.000Z</time>
      </trkpt>
      <trkpt lat="44.38394" lon="6.39957">
        <ele>2108.8000488281</ele>
        <time>2016-07-18T12:20:13.000Z</time>
      </trkpt>
      <trkpt lat="44.38383" lon="6.39948">
        <ele>2108.3999023438</ele>
        <time>2016-07-18T12:20:21.000Z</time>
      </trkpt>
      <trkpt lat="44.38372" lon="6.39939">
        <ele>2108</ele>
        <time>2016-07-18T12:20:29.000Z</time>
      </trkpt>
      <trkpt lat="44.3836" lon="6.3993">
        <ele>2107.8000488281</ele>
        <time>2016-07-18T12:20:37.000Z</time>
      </trkpt>
      <trkpt lat="44.38351" lon="6.39925">
        <ele>2107.6000976562</ele>
        <time>2016-07-18T12:20:43.000Z</time>
      </trkpt>
      <trkpt lat="44.38341" lon="6.39913">
        <ele>2107.3999023438</ele>
        <time>2016-07-18T12:20:52.000Z</time>
      </trkpt>
      <trkpt lat="44.38328" lon="6.39903">
        <ele>2107.1999511719</ele>
        <time>2016-07-18T12:21:01.000Z</time>
      </trkpt>
      <trkpt lat="44.3832" lon="6.39899">
        <ele>2107</ele>
        <time>2016-07-18T12:21:09.000Z</time>
      </trkpt>
      <trkpt lat="44.38319" lon="6.39898">
        <ele>2106.8000488281</ele>
        <time>2016-07-18T12:21:18.000Z</time>
      </trkpt>
      <trkpt lat="44.38318" lon="6.39899">
        <ele>2107</ele>
        <time>2016-07-18T12:21:43.000Z</time>
      </trkpt>
      <trkpt lat="44.38317" lon="6.399">
        <ele>2107</ele>
        <time>2016-07-18T12:22:15.000Z</time>
      </trkpt>
      <trkpt lat="44.38318" lon="6.39899">
        <ele>2107</ele>
        <time>2016-07-18T12:23:28.000Z</time>
      </trkpt>
      <trkpt lat="44.38317" lon="6.39899">
        <ele>2107</ele>
        <time>2016-07-18T12:23:33.000Z</time>
      </trkpt>
      <trkpt lat="44.38315" lon="6.39897">
        <ele>2106.8000488281</ele>
        <time>2016-07-18T12:23:45.000Z</time>
      </trkpt>
      <trkpt lat="44.38312" lon="6.39896">
        <ele>2106.3999023438</ele>
        <time>2016-07-18T12:24:12.000Z</time>
      </trkpt>
      <trkpt lat="44.38313" lon="6.39896">
        <ele>2106.3999023438</ele>
        <time>2016-07-18T12:24:24.000Z</time>
      </trkpt>
      <trkpt lat="44.38312" lon="6.39896">
        <ele>2106.3999023438</ele>
        <time>2016-07-18T12:24:25.000Z</time>
      </trkpt>
      <trkpt lat="44.38304" lon="6.39894">
        <ele>2106</ele>
        <time>2016-07-18T12:24:32.000Z</time>
      </trkpt>
      <trkpt lat="44.38292" lon="6.39894">
        <ele>2106</ele>
        <time>2016-07-18T12:24:39.000Z</time>
      </trkpt>
      <trkpt lat="44.38281" lon="6.39893">
        <ele>2105.6000976562</ele>
        <time>2016-07-18T12:24:47.000Z</time>
      </trkpt>
      <trkpt lat="44.38273" lon="6.39895">
        <ele>2105.8000488281</ele>
        <time>2016-07-18T12:24:53.000Z</time>
      </trkpt>
      <trkpt lat="44.38266" lon="6.39896">
        <ele>2105.8000488281</ele>
        <time>2016-07-18T12:24:58.000Z</time>
      </trkpt>
      <trkpt lat="44.38258" lon="6.39897">
        <ele>2106</ele>
        <time>2016-07-18T12:25:04.000Z</time>
      </trkpt>
      <trkpt lat="44.38249" lon="6.39898">
        <ele>2106.1999511719</ele>
        <time>2016-07-18T12:25:10.000Z</time>
      </trkpt>
      <trkpt lat="44.38237" lon="6.399">
        <ele>2106.1999511719</ele>
        <time>2016-07-18T12:25:18.000Z</time>
      </trkpt>
      <trkpt lat="44.38229" lon="6.39902">
        <ele>2106.1999511719</ele>
        <time>2016-07-18T12:25:23.000Z</time>
      </trkpt>
      <trkpt lat="44.38215" lon="6.39906">
        <ele>2106.3999023438</ele>
        <time>2016-07-18T12:25:32.000Z</time>
      </trkpt>
      <trkpt lat="44.38207" lon="6.39909">
        <ele>2106.8000488281</ele>
        <time>2016-07-18T12:25:37.000Z</time>
      </trkpt>
      <trkpt lat="44.38191" lon="6.39907">
        <ele>2109.6000976562</ele>
        <time>2016-07-18T12:25:46.000Z</time>
      </trkpt>
      <trkpt lat="44.3818" lon="6.39904">
        <ele>2111.6000976562</ele>
        <time>2016-07-18T12:25:54.000Z</time>
      </trkpt>
      <trkpt lat="44.38178" lon="6.39903">
        <ele>2112</ele>
        <time>2016-07-18T12:25:56.000Z</time>
      </trkpt>
      <trkpt lat="44.38168" lon="6.39896">
        <ele>2112</ele>
        <time>2016-07-18T12:26:02.000Z</time>
      </trkpt>
      <trkpt lat="44.38159" lon="6.39889">
        <ele>2111.1999511719</ele>
        <time>2016-07-18T12:26:09.000Z</time>
      </trkpt>
      <trkpt lat="44.38151" lon="6.39883">
        <ele>2110.3999023438</ele>
        <time>2016-07-18T12:26:15.000Z</time>
      </trkpt>
      <trkpt lat="44.38141" lon="6.39874">
        <ele>2109</ele>
        <time>2016-07-18T12:26:24.000Z</time>
      </trkpt>
      <trkpt lat="44.38131" lon="6.3987">
        <ele>2109.3999023438</ele>
        <time>2016-07-18T12:26:31.000Z</time>
      </trkpt>
      <trkpt lat="44.38121" lon="6.39864">
        <ele>2109.1999511719</ele>
        <time>2016-07-18T12:26:39.000Z</time>
      </trkpt>
      <trkpt lat="44.38111" lon="6.39854">
        <ele>2107.3999023438</ele>
        <time>2016-07-18T12:26:47.000Z</time>
      </trkpt>
      <trkpt lat="44.38103" lon="6.39844">
        <ele>2105.3999023438</ele>
        <time>2016-07-18T12:26:55.000Z</time>
      </trkpt>
      <trkpt lat="44.38096" lon="6.39838">
        <ele>2104.3999023438</ele>
        <time>2016-07-18T12:27:01.000Z</time>
      </trkpt>
      <trkpt lat="44.38087" lon="6.3983">
        <ele>2104</ele>
        <time>2016-07-18T12:27:09.000Z</time>
      </trkpt>
      <trkpt lat="44.38078" lon="6.39825">
        <ele>2104.3999023438</ele>
        <time>2016-07-18T12:27:15.000Z</time>
      </trkpt>
      <trkpt lat="44.38069" lon="6.3982">
        <ele>2105.3999023438</ele>
        <time>2016-07-18T12:27:22.000Z</time>
      </trkpt>
      <trkpt lat="44.38058" lon="6.39815">
        <ele>2106.6000976562</ele>
        <time>2016-07-18T12:27:30.000Z</time>
      </trkpt>
      <trkpt lat="44.38051" lon="6.3981">
        <ele>2105.3999023438</ele>
        <time>2016-07-18T12:27:36.000Z</time>
      </trkpt>
      <trkpt lat="44.38042" lon="6.398">
        <ele>2102.1999511719</ele>
        <time>2016-07-18T12:27:45.000Z</time>
      </trkpt>
      <trkpt lat="44.38039" lon="6.39797">
        <ele>2101.6000976562</ele>
        <time>2016-07-18T12:27:47.000Z</time>
      </trkpt>
      <trkpt lat="44.38033" lon="6.39794">
        <ele>2101.1999511719</ele>
        <time>2016-07-18T12:27:51.000Z</time>
      </trkpt>
      <trkpt lat="44.3802" lon="6.39785">
        <ele>2099.3999023438</ele>
        <time>2016-07-18T12:28:01.000Z</time>
      </trkpt>
      <trkpt lat="44.38011" lon="6.39777">
        <ele>2096.8000488281</ele>
        <time>2016-07-18T12:28:08.000Z</time>
      </trkpt>
      <trkpt lat="44.38002" lon="6.39773">
        <ele>2096.6000976562</ele>
        <time>2016-07-18T12:28:15.000Z</time>
      </trkpt>
      <trkpt lat="44.37995" lon="6.39769">
        <ele>2095.8000488281</ele>
        <time>2016-07-18T12:28:20.000Z</time>
      </trkpt>
      <trkpt lat="44.37993" lon="6.39767">
        <ele>2095.6000976562</ele>
        <time>2016-07-18T12:28:22.000Z</time>
      </trkpt>
      <trkpt lat="44.37982" lon="6.39758">
        <ele>2092.6000976562</ele>
        <time>2016-07-18T12:28:31.000Z</time>
      </trkpt>
      <trkpt lat="44.37961" lon="6.39742">
        <ele>2087.8000488281</ele>
        <time>2016-07-18T12:28:48.000Z</time>
      </trkpt>
      <trkpt lat="44.37951" lon="6.39729">
        <ele>2082.8000488281</ele>
        <time>2016-07-18T12:28:58.000Z</time>
      </trkpt>
      <trkpt lat="44.3794" lon="6.39722">
        <ele>2081</ele>
        <time>2016-07-18T12:29:07.000Z</time>
      </trkpt>
      <trkpt lat="44.37931" lon="6.39717">
        <ele>2079.3999023438</ele>
        <time>2016-07-18T12:29:14.000Z</time>
      </trkpt>
      <trkpt lat="44.37924" lon="6.39716">
        <ele>2079.1999511719</ele>
        <time>2016-07-18T12:29:20.000Z</time>
      </trkpt>
      <trkpt lat="44.37912" lon="6.39716">
        <ele>2079.3999023438</ele>
        <time>2016-07-18T12:29:29.000Z</time>
      </trkpt>
      <trkpt lat="44.37903" lon="6.39713">
        <ele>2078.1999511719</ele>
        <time>2016-07-18T12:29:36.000Z</time>
      </trkpt>
      <trkpt lat="44.37893" lon="6.39704">
        <ele>2074.8000488281</ele>
        <time>2016-07-18T12:29:45.000Z</time>
      </trkpt>
      <trkpt lat="44.37883" lon="6.39701">
        <ele>2073.6000976562</ele>
        <time>2016-07-18T12:29:54.000Z</time>
      </trkpt>
      <trkpt lat="44.37874" lon="6.39699">
        <ele>2072.8000488281</ele>
        <time>2016-07-18T12:30:01.000Z</time>
      </trkpt>
      <trkpt lat="44.37867" lon="6.39694">
        <ele>2071</ele>
        <time>2016-07-18T12:30:07.000Z</time>
      </trkpt>
      <trkpt lat="44.3786" lon="6.39685">
        <ele>2066.3999023438</ele>
        <time>2016-07-18T12:30:14.000Z</time>
      </trkpt>
      <trkpt lat="44.37853" lon="6.39677">
        <ele>2061.6000976562</ele>
        <time>2016-07-18T12:30:22.000Z</time>
      </trkpt>
      <trkpt lat="44.37847" lon="6.39671">
        <ele>2057.8000488281</ele>
        <time>2016-07-18T12:30:28.000Z</time>
      </trkpt>
      <trkpt lat="44.37843" lon="6.39663">
        <ele>2053.8000488281</ele>
        <time>2016-07-18T12:30:34.000Z</time>
      </trkpt>
      <trkpt lat="44.37837" lon="6.39652">
        <ele>2048</ele>
        <time>2016-07-18T12:30:43.000Z</time>
      </trkpt>
      <trkpt lat="44.3783" lon="6.39646">
        <ele>2044.1999511719</ele>
        <time>2016-07-18T12:30:50.000Z</time>
      </trkpt>
      <trkpt lat="44.3782" lon="6.39642">
        <ele>2041.1999511719</ele>
        <time>2016-07-18T12:30:58.000Z</time>
      </trkpt>
      <trkpt lat="44.3781" lon="6.39638">
        <ele>2038</ele>
        <time>2016-07-18T12:31:06.000Z</time>
      </trkpt>
      <trkpt lat="44.37803" lon="6.39634">
        <ele>2035.1999511719</ele>
        <time>2016-07-18T12:31:14.000Z</time>
      </trkpt>
      <trkpt lat="44.37802" lon="6.39634">
        <ele>2035.1999511719</ele>
        <time>2016-07-18T12:31:15.000Z</time>
      </trkpt>
      <trkpt lat="44.37796" lon="6.39639">
        <ele>2035.1999511719</ele>
        <time>2016-07-18T12:31:22.000Z</time>
      </trkpt>
      <trkpt lat="44.37795" lon="6.3964">
        <ele>2035.5999755859</ele>
        <time>2016-07-18T12:31:23.000Z</time>
      </trkpt>
      <trkpt lat="44.3779" lon="6.39647">
        <ele>2036.4000244141</ele>
        <time>2016-07-18T12:31:29.000Z</time>
      </trkpt>
      <trkpt lat="44.37784" lon="6.39651">
        <ele>2036.5999755859</ele>
        <time>2016-07-18T12:31:34.000Z</time>
      </trkpt>
      <trkpt lat="44.37781" lon="6.39658">
        <ele>2039</ele>
        <time>2016-07-18T12:31:40.000Z</time>
      </trkpt>
      <trkpt lat="44.3778" lon="6.39659">
        <ele>2039.4000244141</ele>
        <time>2016-07-18T12:31:41.000Z</time>
      </trkpt>
      <trkpt lat="44.37777" lon="6.39664">
        <ele>2041.4000244141</ele>
        <time>2016-07-18T12:31:46.000Z</time>
      </trkpt>
      <trkpt lat="44.37776" lon="6.39664">
        <ele>2041.8000488281</ele>
        <time>2016-07-18T12:31:47.000Z</time>
      </trkpt>
      <trkpt lat="44.37772" lon="6.39677">
        <ele>2046.8000488281</ele>
        <time>2016-07-18T12:31:54.000Z</time>
      </trkpt>
      <trkpt lat="44.37764" lon="6.39687">
        <ele>2051.1999511719</ele>
        <time>2016-07-18T12:32:00.000Z</time>
      </trkpt>
      <trkpt lat="44.37763" lon="6.39688">
        <ele>2051.3999023438</ele>
        <time>2016-07-18T12:32:01.000Z</time>
      </trkpt>
      <trkpt lat="44.37751" lon="6.39691">
        <ele>2052.8000488281</ele>
        <time>2016-07-18T12:32:09.000Z</time>
      </trkpt>
      <trkpt lat="44.3774" lon="6.39689">
        <ele>2052.1999511719</ele>
        <time>2016-07-18T12:32:16.000Z</time>
      </trkpt>
      <trkpt lat="44.3773" lon="6.39688">
        <ele>2051.1999511719</ele>
        <time>2016-07-18T12:32:23.000Z</time>
      </trkpt>
      <trkpt lat="44.3772" lon="6.39686">
        <ele>2050</ele>
        <time>2016-07-18T12:32:30.000Z</time>
      </trkpt>
      <trkpt lat="44.37708" lon="6.39682">
        <ele>2048.1999511719</ele>
        <time>2016-07-18T12:32:39.000Z</time>
      </trkpt>
      <trkpt lat="44.37702" lon="6.3968">
        <ele>2046.8000488281</ele>
        <time>2016-07-18T12:32:44.000Z</time>
      </trkpt>
      <trkpt lat="44.37697" lon="6.39678">
        <ele>2045.8000488281</ele>
        <time>2016-07-18T12:32:47.000Z</time>
      </trkpt>
      <trkpt lat="44.37688" lon="6.39671">
        <ele>2042.1999511719</ele>
        <time>2016-07-18T12:32:54.000Z</time>
      </trkpt>
      <trkpt lat="44.3768" lon="6.39665">
        <ele>2039.1999511719</ele>
        <time>2016-07-18T12:33:01.000Z</time>
      </trkpt>
      <trkpt lat="44.37671" lon="6.39661">
        <ele>2036.5999755859</ele>
        <time>2016-07-18T12:33:08.000Z</time>
      </trkpt>
      <trkpt lat="44.37662" lon="6.3966">
        <ele>2035.4000244141</ele>
        <time>2016-07-18T12:33:15.000Z</time>
      </trkpt>
      <trkpt lat="44.37652" lon="6.39659">
        <ele>2034.1999511719</ele>
        <time>2016-07-18T12:33:22.000Z</time>
      </trkpt>
      <trkpt lat="44.37645" lon="6.3966">
        <ele>2033.5999755859</ele>
        <time>2016-07-18T12:33:27.000Z</time>
      </trkpt>
      <trkpt lat="44.37631" lon="6.39664">
        <ele>2033.5999755859</ele>
        <time>2016-07-18T12:33:37.000Z</time>
      </trkpt>
      <trkpt lat="44.37614" lon="6.39668">
        <ele>2031.4000244141</ele>
        <time>2016-07-18T12:33:51.000Z</time>
      </trkpt>
      <trkpt lat="44.37605" lon="6.39674">
        <ele>2031.1999511719</ele>
        <time>2016-07-18T12:33:58.000Z</time>
      </trkpt>
      <trkpt lat="44.37598" lon="6.39675">
        <ele>2030</ele>
        <time>2016-07-18T12:34:03.000Z</time>
      </trkpt>
      <trkpt lat="44.37589" lon="6.39676">
        <ele>2028.5999755859</ele>
        <time>2016-07-18T12:34:09.000Z</time>
      </trkpt>
      <trkpt lat="44.37582" lon="6.39677">
        <ele>2027.1999511719</ele>
        <time>2016-07-18T12:34:15.000Z</time>
      </trkpt>
      <trkpt lat="44.37574" lon="6.3968">
        <ele>2026.4000244141</ele>
        <time>2016-07-18T12:34:21.000Z</time>
      </trkpt>
      <trkpt lat="44.37565" lon="6.39684">
        <ele>2025.4000244141</ele>
        <time>2016-07-18T12:34:28.000Z</time>
      </trkpt>
      <trkpt lat="44.37563" lon="6.39684">
        <ele>2025</ele>
        <time>2016-07-18T12:34:29.000Z</time>
      </trkpt>
      <trkpt lat="44.37548" lon="6.3969">
        <ele>2023.1999511719</ele>
        <time>2016-07-18T12:34:42.000Z</time>
      </trkpt>
      <trkpt lat="44.37536" lon="6.39691">
        <ele>2020.8000488281</ele>
        <time>2016-07-18T12:34:50.000Z</time>
      </trkpt>
      <trkpt lat="44.3753" lon="6.39692">
        <ele>2019.8000488281</ele>
        <time>2016-07-18T12:34:54.000Z</time>
      </trkpt>
      <trkpt lat="44.37528" lon="6.39692">
        <ele>2019.4000244141</ele>
        <time>2016-07-18T12:34:56.000Z</time>
      </trkpt>
      <trkpt lat="44.37519" lon="6.39696">
        <ele>2018.4000244141</ele>
        <time>2016-07-18T12:35:02.000Z</time>
      </trkpt>
      <trkpt lat="44.37513" lon="6.39699">
        <ele>2018</ele>
        <time>2016-07-18T12:35:07.000Z</time>
      </trkpt>
      <trkpt lat="44.37506" lon="6.39705">
        <ele>2017.8000488281</ele>
        <time>2016-07-18T12:35:13.000Z</time>
      </trkpt>
      <trkpt lat="44.37499" lon="6.39707">
        <ele>2016.5999755859</ele>
        <time>2016-07-18T12:35:18.000Z</time>
      </trkpt>
      <trkpt lat="44.37491" lon="6.39706">
        <ele>2014.1999511719</ele>
        <time>2016-07-18T12:35:24.000Z</time>
      </trkpt>
      <trkpt lat="44.3748" lon="6.39704">
        <ele>2011</ele>
        <time>2016-07-18T12:35:32.000Z</time>
      </trkpt>
      <trkpt lat="44.37476" lon="6.39705">
        <ele>2010.4000244141</ele>
        <time>2016-07-18T12:35:36.000Z</time>
      </trkpt>
      <trkpt lat="44.37476" lon="6.39706">
        <ele>2010.4000244141</ele>
        <time>2016-07-18T12:35:41.000Z</time>
      </trkpt>
      <trkpt lat="44.37476" lon="6.39705">
        <ele>2010.1999511719</ele>
        <time>2016-07-18T12:35:47.000Z</time>
      </trkpt>
      <trkpt lat="44.37476" lon="6.39703">
        <ele>2010</ele>
        <time>2016-07-18T12:36:18.000Z</time>
      </trkpt>
      <trkpt lat="44.37477" lon="6.39705">
        <ele>2010.8000488281</ele>
        <time>2016-07-18T12:36:38.000Z</time>
      </trkpt>
      <trkpt lat="44.37477" lon="6.39708">
        <ele>2011.1999511719</ele>
        <time>2016-07-18T12:36:43.000Z</time>
      </trkpt>
      <trkpt lat="44.37477" lon="6.39705">
        <ele>2010.5999755859</ele>
        <time>2016-07-18T12:37:15.000Z</time>
      </trkpt>
      <trkpt lat="44.37475" lon="6.39703">
        <ele>2009.8000488281</ele>
        <time>2016-07-18T12:37:28.000Z</time>
      </trkpt>
      <trkpt lat="44.3747" lon="6.397">
        <ele>2007.5999755859</ele>
        <time>2016-07-18T12:38:16.000Z</time>
      </trkpt>
      <trkpt lat="44.37471" lon="6.39695">
        <ele>2006.5999755859</ele>
        <time>2016-07-18T12:38:22.000Z</time>
      </trkpt>
      <trkpt lat="44.3747" lon="6.39699">
        <ele>2007.1999511719</ele>
        <time>2016-07-18T12:40:13.000Z</time>
      </trkpt>
      <trkpt lat="44.37469" lon="6.39698">
        <ele>2007</ele>
        <time>2016-07-18T12:40:24.000Z</time>
      </trkpt>
      <trkpt lat="44.37469" lon="6.397">
        <ele>2007.1999511719</ele>
        <time>2016-07-18T12:40:29.000Z</time>
      </trkpt>
      <trkpt lat="44.37471" lon="6.397">
        <ele>2007.5999755859</ele>
        <time>2016-07-18T12:40:34.000Z</time>
      </trkpt>
      <trkpt lat="44.37471" lon="6.39699">
        <ele>2007.8000488281</ele>
        <time>2016-07-18T12:40:38.000Z</time>
      </trkpt>
      <trkpt lat="44.37465" lon="6.39699">
        <ele>2006</ele>
        <time>2016-07-18T12:40:47.000Z</time>
      </trkpt>
      <trkpt lat="44.37457" lon="6.39701">
        <ele>2004.5999755859</ele>
        <time>2016-07-18T12:40:53.000Z</time>
      </trkpt>
      <trkpt lat="44.37451" lon="6.39706">
        <ele>2004.4000244141</ele>
        <time>2016-07-18T12:40:58.000Z</time>
      </trkpt>
      <trkpt lat="44.37443" lon="6.39712">
        <ele>2003</ele>
        <time>2016-07-18T12:41:05.000Z</time>
      </trkpt>
      <trkpt lat="44.37438" lon="6.39715">
        <ele>2001.4000244141</ele>
        <time>2016-07-18T12:41:10.000Z</time>
      </trkpt>
      <trkpt lat="44.37437" lon="6.39717">
        <ele>2001.4000244141</ele>
        <time>2016-07-18T12:41:11.000Z</time>
      </trkpt>
      <trkpt lat="44.37429" lon="6.39722">
        <ele>2000.5999755859</ele>
        <time>2016-07-18T12:41:19.000Z</time>
      </trkpt>
      <trkpt lat="44.37428" lon="6.39723">
        <ele>2000.4000244141</ele>
        <time>2016-07-18T12:41:20.000Z</time>
      </trkpt>
      <trkpt lat="44.37427" lon="6.39724">
        <ele>2000.5999755859</ele>
        <time>2016-07-18T12:41:21.000Z</time>
      </trkpt>
      <trkpt lat="44.37423" lon="6.39729">
        <ele>2001</ele>
        <time>2016-07-18T12:41:27.000Z</time>
      </trkpt>
      <trkpt lat="44.37418" lon="6.39731">
        <ele>2000.4000244141</ele>
        <time>2016-07-18T12:41:30.000Z</time>
      </trkpt>
      <trkpt lat="44.37417" lon="6.39732">
        <ele>2000.4000244141</ele>
        <time>2016-07-18T12:41:31.000Z</time>
      </trkpt>
      <trkpt lat="44.37416" lon="6.39732">
        <ele>2000.4000244141</ele>
        <time>2016-07-18T12:41:32.000Z</time>
      </trkpt>
      <trkpt lat="44.37408" lon="6.39738">
        <ele>1999.8000488281</ele>
        <time>2016-07-18T12:41:39.000Z</time>
      </trkpt>
      <trkpt lat="44.37405" lon="6.39734">
        <ele>1997.5999755859</ele>
        <time>2016-07-18T12:41:43.000Z</time>
      </trkpt>
      <trkpt lat="44.37406" lon="6.39733">
        <ele>1997.1999511719</ele>
        <time>2016-07-18T12:41:44.000Z</time>
      </trkpt>
      <trkpt lat="44.37413" lon="6.39717">
        <ele>1993.8000488281</ele>
        <time>2016-07-18T12:41:54.000Z</time>
      </trkpt>
      <trkpt lat="44.37418" lon="6.39706">
        <ele>1991</ele>
        <time>2016-07-18T12:42:01.000Z</time>
      </trkpt>
      <trkpt lat="44.37421" lon="6.39696">
        <ele>1989.1999511719</ele>
        <time>2016-07-18T12:42:08.000Z</time>
      </trkpt>
      <trkpt lat="44.37422" lon="6.39685">
        <ele>1987.1999511719</ele>
        <time>2016-07-18T12:42:14.000Z</time>
      </trkpt>
      <trkpt lat="44.37426" lon="6.39674">
        <ele>1985.8000488281</ele>
        <time>2016-07-18T12:42:21.000Z</time>
      </trkpt>
      <trkpt lat="44.3743" lon="6.39662">
        <ele>1984.5999755859</ele>
        <time>2016-07-18T12:42:29.000Z</time>
      </trkpt>
      <trkpt lat="44.37433" lon="6.39657">
        <ele>1984.5999755859</ele>
        <time>2016-07-18T12:42:33.000Z</time>
      </trkpt>
      <trkpt lat="44.37436" lon="6.39649">
        <ele>1983.8000488281</ele>
        <time>2016-07-18T12:42:38.000Z</time>
      </trkpt>
      <trkpt lat="44.37439" lon="6.39642">
        <ele>1983.4000244141</ele>
        <time>2016-07-18T12:42:43.000Z</time>
      </trkpt>
      <trkpt lat="44.37441" lon="6.39639">
        <ele>1983.4000244141</ele>
        <time>2016-07-18T12:42:47.000Z</time>
      </trkpt>
      <trkpt lat="44.37438" lon="6.39639">
        <ele>1982.1999511719</ele>
        <time>2016-07-18T12:42:51.000Z</time>
      </trkpt>
      <trkpt lat="44.37432" lon="6.39638">
        <ele>1979.5999755859</ele>
        <time>2016-07-18T12:42:57.000Z</time>
      </trkpt>
      <trkpt lat="44.37426" lon="6.39641">
        <ele>1977.8000488281</ele>
        <time>2016-07-18T12:43:04.000Z</time>
      </trkpt>
      <trkpt lat="44.37424" lon="6.39641">
        <ele>1976.8000488281</ele>
        <time>2016-07-18T12:43:06.000Z</time>
      </trkpt>
      <trkpt lat="44.37419" lon="6.39642">
        <ele>1975</ele>
        <time>2016-07-18T12:43:10.000Z</time>
      </trkpt>
      <trkpt lat="44.37412" lon="6.39643">
        <ele>1972.1999511719</ele>
        <time>2016-07-18T12:43:17.000Z</time>
      </trkpt>
      <trkpt lat="44.3741" lon="6.39644">
        <ele>1971.4000244141</ele>
        <time>2016-07-18T12:43:19.000Z</time>
      </trkpt>
      <trkpt lat="44.37403" lon="6.39649">
        <ele>1970</ele>
        <time>2016-07-18T12:43:26.000Z</time>
      </trkpt>
      <trkpt lat="44.37402" lon="6.39651">
        <ele>1970</ele>
        <time>2016-07-18T12:43:28.000Z</time>
      </trkpt>
      <trkpt lat="44.37396" lon="6.39654">
        <ele>1967.8000488281</ele>
        <time>2016-07-18T12:43:35.000Z</time>
      </trkpt>
      <trkpt lat="44.37393" lon="6.39656">
        <ele>1967.1999511719</ele>
        <time>2016-07-18T12:43:38.000Z</time>
      </trkpt>
      <trkpt lat="44.37382" lon="6.39659">
        <ele>1963.1999511719</ele>
        <time>2016-07-18T12:43:47.000Z</time>
      </trkpt>
      <trkpt lat="44.37372" lon="6.39667">
        <ele>1962.1999511719</ele>
        <time>2016-07-18T12:43:55.000Z</time>
      </trkpt>
      <trkpt lat="44.37363" lon="6.39671">
        <ele>1960.8000488281</ele>
        <time>2016-07-18T12:44:03.000Z</time>
      </trkpt>
      <trkpt lat="44.37356" lon="6.39675">
        <ele>1961</ele>
        <time>2016-07-18T12:44:09.000Z</time>
      </trkpt>
      <trkpt lat="44.37348" lon="6.39681">
        <ele>1961</ele>
        <time>2016-07-18T12:44:17.000Z</time>
      </trkpt>
      <trkpt lat="44.37341" lon="6.39683">
        <ele>1960.1999511719</ele>
        <time>2016-07-18T12:44:22.000Z</time>
      </trkpt>
      <trkpt lat="44.37336" lon="6.39685">
        <ele>1959.4000244141</ele>
        <time>2016-07-18T12:44:27.000Z</time>
      </trkpt>
      <trkpt lat="44.37331" lon="6.39685">
        <ele>1958.1999511719</ele>
        <time>2016-07-18T12:44:35.000Z</time>
      </trkpt>
      <trkpt lat="44.37328" lon="6.39684">
        <ele>1957.1999511719</ele>
        <time>2016-07-18T12:44:37.000Z</time>
      </trkpt>
      <trkpt lat="44.37323" lon="6.39679">
        <ele>1954</ele>
        <time>2016-07-18T12:44:41.000Z</time>
      </trkpt>
      <trkpt lat="44.3732" lon="6.39678">
        <ele>1952.5999755859</ele>
        <time>2016-07-18T12:44:44.000Z</time>
      </trkpt>
      <trkpt lat="44.37314" lon="6.39682">
        <ele>1953</ele>
        <time>2016-07-18T12:44:50.000Z</time>
      </trkpt>
      <trkpt lat="44.37309" lon="6.39685">
        <ele>1953</ele>
        <time>2016-07-18T12:44:54.000Z</time>
      </trkpt>
      <trkpt lat="44.37308" lon="6.39686">
        <ele>1952.8000488281</ele>
        <time>2016-07-18T12:44:55.000Z</time>
      </trkpt>
      <trkpt lat="44.37306" lon="6.39686">
        <ele>1952.5999755859</ele>
        <time>2016-07-18T12:44:56.000Z</time>
      </trkpt>
      <trkpt lat="44.37298" lon="6.3968">
        <ele>1948.5999755859</ele>
        <time>2016-07-18T12:45:04.000Z</time>
      </trkpt>
      <trkpt lat="44.37294" lon="6.39676">
        <ele>1946</ele>
        <time>2016-07-18T12:45:08.000Z</time>
      </trkpt>
      <trkpt lat="44.3729" lon="6.39673">
        <ele>1943.5999755859</ele>
        <time>2016-07-18T12:45:13.000Z</time>
      </trkpt>
      <trkpt lat="44.37287" lon="6.3967">
        <ele>1942</ele>
        <time>2016-07-18T12:45:17.000Z</time>
      </trkpt>
      <trkpt lat="44.37281" lon="6.39673">
        <ele>1941.5999755859</ele>
        <time>2016-07-18T12:45:24.000Z</time>
      </trkpt>
      <trkpt lat="44.37277" lon="6.39676">
        <ele>1941.5999755859</ele>
        <time>2016-07-18T12:45:28.000Z</time>
      </trkpt>
      <trkpt lat="44.37268" lon="6.39681">
        <ele>1941.1999511719</ele>
        <time>2016-07-18T12:45:36.000Z</time>
      </trkpt>
      <trkpt lat="44.37264" lon="6.39682">
        <ele>1940</ele>
        <time>2016-07-18T12:45:39.000Z</time>
      </trkpt>
      <trkpt lat="44.37255" lon="6.39674">
        <ele>1934.4000244141</ele>
        <time>2016-07-18T12:45:47.000Z</time>
      </trkpt>
      <trkpt lat="44.37253" lon="6.39673">
        <ele>1933.1999511719</ele>
        <time>2016-07-18T12:45:49.000Z</time>
      </trkpt>
      <trkpt lat="44.3725" lon="6.39669">
        <ele>1931</ele>
        <time>2016-07-18T12:45:53.000Z</time>
      </trkpt>
      <trkpt lat="44.37248" lon="6.39669">
        <ele>1930.4000244141</ele>
        <time>2016-07-18T12:45:55.000Z</time>
      </trkpt>
      <trkpt lat="44.37242" lon="6.39672">
        <ele>1929.4000244141</ele>
        <time>2016-07-18T12:46:02.000Z</time>
      </trkpt>
      <trkpt lat="44.37236" lon="6.39672">
        <ele>1928</ele>
        <time>2016-07-18T12:46:06.000Z</time>
      </trkpt>
      <trkpt lat="44.37234" lon="6.39672">
        <ele>1927.1999511719</ele>
        <time>2016-07-18T12:46:08.000Z</time>
      </trkpt>
      <trkpt lat="44.37228" lon="6.39673">
        <ele>1925.8000488281</ele>
        <time>2016-07-18T12:46:13.000Z</time>
      </trkpt>
      <trkpt lat="44.37227" lon="6.39673">
        <ele>1925.5999755859</ele>
        <time>2016-07-18T12:46:15.000Z</time>
      </trkpt>
      <trkpt lat="44.37219" lon="6.39669">
        <ele>1921.5999755859</ele>
        <time>2016-07-18T12:46:23.000Z</time>
      </trkpt>
      <trkpt lat="44.37215" lon="6.3967">
        <ele>1920.5999755859</ele>
        <time>2016-07-18T12:46:27.000Z</time>
      </trkpt>
      <trkpt lat="44.37213" lon="6.39672">
        <ele>1920.4000244141</ele>
        <time>2016-07-18T12:46:30.000Z</time>
      </trkpt>
      <trkpt lat="44.37211" lon="6.39671">
        <ele>1919.4000244141</ele>
        <time>2016-07-18T12:46:33.000Z</time>
      </trkpt>
      <trkpt lat="44.37207" lon="6.39674">
        <ele>1919.4000244141</ele>
        <time>2016-07-18T12:46:37.000Z</time>
      </trkpt>
      <trkpt lat="44.37207" lon="6.39682">
        <ele>1922.4000244141</ele>
        <time>2016-07-18T12:46:56.000Z</time>
      </trkpt>
      <trkpt lat="44.37208" lon="6.39687">
        <ele>1924.1999511719</ele>
        <time>2016-07-18T12:47:03.000Z</time>
      </trkpt>
      <trkpt lat="44.37207" lon="6.39691">
        <ele>1925.4000244141</ele>
        <time>2016-07-18T12:47:06.000Z</time>
      </trkpt>
      <trkpt lat="44.37202" lon="6.39696">
        <ele>1925.4000244141</ele>
        <time>2016-07-18T12:47:11.000Z</time>
      </trkpt>
      <trkpt lat="44.37196" lon="6.39701">
        <ele>1925.1999511719</ele>
        <time>2016-07-18T12:47:18.000Z</time>
      </trkpt>
      <trkpt lat="44.37194" lon="6.39701">
        <ele>1924.5999755859</ele>
        <time>2016-07-18T12:47:21.000Z</time>
      </trkpt>
      <trkpt lat="44.37193" lon="6.39698">
        <ele>1923.4000244141</ele>
        <time>2016-07-18T12:47:32.000Z</time>
      </trkpt>
      <trkpt lat="44.37189" lon="6.39698">
        <ele>1922</ele>
        <time>2016-07-18T12:47:37.000Z</time>
      </trkpt>
      <trkpt lat="44.37188" lon="6.39698">
        <ele>1921.5999755859</ele>
        <time>2016-07-18T12:47:38.000Z</time>
      </trkpt>
      <trkpt lat="44.37179" lon="6.39699">
        <ele>1919.4000244141</ele>
        <time>2016-07-18T12:47:46.000Z</time>
      </trkpt>
      <trkpt lat="44.37171" lon="6.39695">
        <ele>1915.5999755859</ele>
        <time>2016-07-18T12:47:52.000Z</time>
      </trkpt>
      <trkpt lat="44.37162" lon="6.39692">
        <ele>1911.5999755859</ele>
        <time>2016-07-18T12:48:00.000Z</time>
      </trkpt>
      <trkpt lat="44.37155" lon="6.3969">
        <ele>1909</ele>
        <time>2016-07-18T12:48:06.000Z</time>
      </trkpt>
      <trkpt lat="44.37152" lon="6.39691">
        <ele>1908.1999511719</ele>
        <time>2016-07-18T12:48:09.000Z</time>
      </trkpt>
      <trkpt lat="44.37149" lon="6.39694">
        <ele>1908.8000488281</ele>
        <time>2016-07-18T12:48:13.000Z</time>
      </trkpt>
      <trkpt lat="44.37145" lon="6.397">
        <ele>1909.8000488281</ele>
        <time>2016-07-18T12:48:17.000Z</time>
      </trkpt>
      <trkpt lat="44.37142" lon="6.39701">
        <ele>1909.5999755859</ele>
        <time>2016-07-18T12:48:19.000Z</time>
      </trkpt>
      <trkpt lat="44.37135" lon="6.39701">
        <ele>1907.5999755859</ele>
        <time>2016-07-18T12:48:24.000Z</time>
      </trkpt>
      <trkpt lat="44.37128" lon="6.39694">
        <ele>1902.8000488281</ele>
        <time>2016-07-18T12:48:31.000Z</time>
      </trkpt>
      <trkpt lat="44.37122" lon="6.39686">
        <ele>1897.8000488281</ele>
        <time>2016-07-18T12:48:39.000Z</time>
      </trkpt>
      <trkpt lat="44.37116" lon="6.39688">
        <ele>1897.1999511719</ele>
        <time>2016-07-18T12:48:46.000Z</time>
      </trkpt>
      <trkpt lat="44.37114" lon="6.39688">
        <ele>1896.8000488281</ele>
        <time>2016-07-18T12:48:48.000Z</time>
      </trkpt>
      <trkpt lat="44.37112" lon="6.39688">
        <ele>1895.8000488281</ele>
        <time>2016-07-18T12:48:50.000Z</time>
      </trkpt>
      <trkpt lat="44.37108" lon="6.39685">
        <ele>1893.1999511719</ele>
        <time>2016-07-18T12:48:55.000Z</time>
      </trkpt>
      <trkpt lat="44.37101" lon="6.39681">
        <ele>1889.4000244141</ele>
        <time>2016-07-18T12:49:02.000Z</time>
      </trkpt>
      <trkpt lat="44.37095" lon="6.39683">
        <ele>1888.1999511719</ele>
        <time>2016-07-18T12:49:08.000Z</time>
      </trkpt>
      <trkpt lat="44.37094" lon="6.39685">
        <ele>1888.4000244141</ele>
        <time>2016-07-18T12:49:10.000Z</time>
      </trkpt>
      <trkpt lat="44.37092" lon="6.39686">
        <ele>1888.1999511719</ele>
        <time>2016-07-18T12:49:12.000Z</time>
      </trkpt>
      <trkpt lat="44.37086" lon="6.39685">
        <ele>1885.5999755859</ele>
        <time>2016-07-18T12:49:17.000Z</time>
      </trkpt>
      <trkpt lat="44.37084" lon="6.39683">
        <ele>1884.1999511719</ele>
        <time>2016-07-18T12:49:20.000Z</time>
      </trkpt>
      <trkpt lat="44.37075" lon="6.39687">
        <ele>1882.8000488281</ele>
        <time>2016-07-18T12:49:29.000Z</time>
      </trkpt>
      <trkpt lat="44.37074" lon="6.39689">
        <ele>1883</ele>
        <time>2016-07-18T12:49:30.000Z</time>
      </trkpt>
      <trkpt lat="44.37071" lon="6.39692">
        <ele>1882.8000488281</ele>
        <time>2016-07-18T12:49:33.000Z</time>
      </trkpt>
      <trkpt lat="44.37063" lon="6.39695">
        <ele>1880</ele>
        <time>2016-07-18T12:49:40.000Z</time>
      </trkpt>
      <trkpt lat="44.37055" lon="6.39698">
        <ele>1877.5999755859</ele>
        <time>2016-07-18T12:49:46.000Z</time>
      </trkpt>
      <trkpt lat="44.37052" lon="6.39702">
        <ele>1877.1999511719</ele>
        <time>2016-07-18T12:49:50.000Z</time>
      </trkpt>
      <trkpt lat="44.37048" lon="6.39705">
        <ele>1876.8000488281</ele>
        <time>2016-07-18T12:49:54.000Z</time>
      </trkpt>
      <trkpt lat="44.37043" lon="6.39708">
        <ele>1875.1999511719</ele>
        <time>2016-07-18T12:50:00.000Z</time>
      </trkpt>
      <trkpt lat="44.37038" lon="6.39706">
        <ele>1872.4000244141</ele>
        <time>2016-07-18T12:50:05.000Z</time>
      </trkpt>
      <trkpt lat="44.37036" lon="6.39705">
        <ele>1871.4000244141</ele>
        <time>2016-07-18T12:50:07.000Z</time>
      </trkpt>
      <trkpt lat="44.37027" lon="6.39705">
        <ele>1868</ele>
        <time>2016-07-18T12:50:15.000Z</time>
      </trkpt>
      <trkpt lat="44.37023" lon="6.39705">
        <ele>1866.8000488281</ele>
        <time>2016-07-18T12:50:19.000Z</time>
      </trkpt>
      <trkpt lat="44.37018" lon="6.39711">
        <ele>1867.1999511719</ele>
        <time>2016-07-18T12:50:25.000Z</time>
      </trkpt>
      <trkpt lat="44.37013" lon="6.39719">
        <ele>1868</ele>
        <time>2016-07-18T12:50:31.000Z</time>
      </trkpt>
      <trkpt lat="44.37011" lon="6.39724">
        <ele>1868.4000244141</ele>
        <time>2016-07-18T12:50:34.000Z</time>
      </trkpt>
      <trkpt lat="44.37009" lon="6.39726">
        <ele>1868.4000244141</ele>
        <time>2016-07-18T12:50:36.000Z</time>
      </trkpt>
      <trkpt lat="44.37003" lon="6.39731">
        <ele>1867.8000488281</ele>
        <time>2016-07-18T12:50:42.000Z</time>
      </trkpt>
      <trkpt lat="44.37002" lon="6.39731">
        <ele>1867.4000244141</ele>
        <time>2016-07-18T12:50:43.000Z</time>
      </trkpt>
      <trkpt lat="44.37001" lon="6.39732">
        <ele>1867.4000244141</ele>
        <time>2016-07-18T12:50:44.000Z</time>
      </trkpt>
      <trkpt lat="44.36994" lon="6.39737">
        <ele>1867</ele>
        <time>2016-07-18T12:50:51.000Z</time>
      </trkpt>
      <trkpt lat="44.36994" lon="6.39738">
        <ele>1867.1999511719</ele>
        <time>2016-07-18T12:50:52.000Z</time>
      </trkpt>
      <trkpt lat="44.36992" lon="6.3974">
        <ele>1867.5999755859</ele>
        <time>2016-07-18T12:50:54.000Z</time>
      </trkpt>
      <trkpt lat="44.36985" lon="6.39748">
        <ele>1868.1999511719</ele>
        <time>2016-07-18T12:51:00.000Z</time>
      </trkpt>
      <trkpt lat="44.36977" lon="6.39747">
        <ele>1865.4000244141</ele>
        <time>2016-07-18T12:51:07.000Z</time>
      </trkpt>
      <trkpt lat="44.36972" lon="6.39747">
        <ele>1863.4000244141</ele>
        <time>2016-07-18T12:51:12.000Z</time>
      </trkpt>
      <trkpt lat="44.36968" lon="6.39745">
        <ele>1861.4000244141</ele>
        <time>2016-07-18T12:51:17.000Z</time>
      </trkpt>
      <trkpt lat="44.36959" lon="6.39745">
        <ele>1858.5999755859</ele>
        <time>2016-07-18T12:51:26.000Z</time>
      </trkpt>
      <trkpt lat="44.36954" lon="6.39747">
        <ele>1857</ele>
        <time>2016-07-18T12:51:31.000Z</time>
      </trkpt>
      <trkpt lat="44.3695" lon="6.3975">
        <ele>1856.4000244141</ele>
        <time>2016-07-18T12:51:36.000Z</time>
      </trkpt>
      <trkpt lat="44.36946" lon="6.39752">
        <ele>1855.5999755859</ele>
        <time>2016-07-18T12:51:40.000Z</time>
      </trkpt>
      <trkpt lat="44.36941" lon="6.39756">
        <ele>1856</ele>
        <time>2016-07-18T12:51:45.000Z</time>
      </trkpt>
      <trkpt lat="44.36939" lon="6.39758">
        <ele>1856</ele>
        <time>2016-07-18T12:51:47.000Z</time>
      </trkpt>
      <trkpt lat="44.36934" lon="6.39761">
        <ele>1856</ele>
        <time>2016-07-18T12:51:52.000Z</time>
      </trkpt>
      <trkpt lat="44.3693" lon="6.39767">
        <ele>1857</ele>
        <time>2016-07-18T12:51:58.000Z</time>
      </trkpt>
      <trkpt lat="44.36925" lon="6.39769">
        <ele>1857</ele>
        <time>2016-07-18T12:52:02.000Z</time>
      </trkpt>
      <trkpt lat="44.36918" lon="6.39768">
        <ele>1855</ele>
        <time>2016-07-18T12:52:08.000Z</time>
      </trkpt>
      <trkpt lat="44.36912" lon="6.39762">
        <ele>1852.1999511719</ele>
        <time>2016-07-18T12:52:14.000Z</time>
      </trkpt>
      <trkpt lat="44.36911" lon="6.39761">
        <ele>1851.8000488281</ele>
        <time>2016-07-18T12:52:15.000Z</time>
      </trkpt>
      <trkpt lat="44.3691" lon="6.39758">
        <ele>1850.4000244141</ele>
        <time>2016-07-18T12:52:18.000Z</time>
      </trkpt>
      <trkpt lat="44.36906" lon="6.39753">
        <ele>1848.4000244141</ele>
        <time>2016-07-18T12:52:24.000Z</time>
      </trkpt>
      <trkpt lat="44.36904" lon="6.39748">
        <ele>1846.4000244141</ele>
        <time>2016-07-18T12:52:29.000Z</time>
      </trkpt>
      <trkpt lat="44.36903" lon="6.39747">
        <ele>1846</ele>
        <time>2016-07-18T12:52:30.000Z</time>
      </trkpt>
      <trkpt lat="44.36895" lon="6.39749">
        <ele>1845</ele>
        <time>2016-07-18T12:52:40.000Z</time>
      </trkpt>
      <trkpt lat="44.3689" lon="6.3975">
        <ele>1844.4000244141</ele>
        <time>2016-07-18T12:52:44.000Z</time>
      </trkpt>
      <trkpt lat="44.36881" lon="6.39753">
        <ele>1843.1999511719</ele>
        <time>2016-07-18T12:52:52.000Z</time>
      </trkpt>
      <trkpt lat="44.36874" lon="6.39756">
        <ele>1842</ele>
        <time>2016-07-18T12:53:01.000Z</time>
      </trkpt>
      <trkpt lat="44.36872" lon="6.39756">
        <ele>1841.4000244141</ele>
        <time>2016-07-18T12:53:03.000Z</time>
      </trkpt>
      <trkpt lat="44.36865" lon="6.39762">
        <ele>1841.1999511719</ele>
        <time>2016-07-18T12:53:11.000Z</time>
      </trkpt>
      <trkpt lat="44.3686" lon="6.3976">
        <ele>1840</ele>
        <time>2016-07-18T12:53:17.000Z</time>
      </trkpt>
      <trkpt lat="44.36855" lon="6.39758">
        <ele>1839.1999511719</ele>
        <time>2016-07-18T12:53:23.000Z</time>
      </trkpt>
      <trkpt lat="44.36852" lon="6.39757">
        <ele>1838.8000488281</ele>
        <time>2016-07-18T12:53:26.000Z</time>
      </trkpt>
      <trkpt lat="44.36846" lon="6.39754">
        <ele>1837.8000488281</ele>
        <time>2016-07-18T12:53:33.000Z</time>
      </trkpt>
      <trkpt lat="44.36845" lon="6.39754">
        <ele>1837.5999755859</ele>
        <time>2016-07-18T12:53:34.000Z</time>
      </trkpt>
      <trkpt lat="44.36839" lon="6.3975">
        <ele>1836.4000244141</ele>
        <time>2016-07-18T12:53:40.000Z</time>
      </trkpt>
      <trkpt lat="44.36839" lon="6.39749">
        <ele>1836.1999511719</ele>
        <time>2016-07-18T12:53:41.000Z</time>
      </trkpt>
      <trkpt lat="44.3683" lon="6.39749">
        <ele>1835.4000244141</ele>
        <time>2016-07-18T12:53:48.000Z</time>
      </trkpt>
      <trkpt lat="44.36829" lon="6.39748">
        <ele>1835.1999511719</ele>
        <time>2016-07-18T12:53:49.000Z</time>
      </trkpt>
      <trkpt lat="44.36823" lon="6.39738">
        <ele>1832.4000244141</ele>
        <time>2016-07-18T12:53:58.000Z</time>
      </trkpt>
      <trkpt lat="44.36819" lon="6.39733">
        <ele>1831</ele>
        <time>2016-07-18T12:54:03.000Z</time>
      </trkpt>
      <trkpt lat="44.36812" lon="6.39724">
        <ele>1829</ele>
        <time>2016-07-18T12:54:11.000Z</time>
      </trkpt>
      <trkpt lat="44.36807" lon="6.3972">
        <ele>1827.8000488281</ele>
        <time>2016-07-18T12:54:17.000Z</time>
      </trkpt>
      <trkpt lat="44.36805" lon="6.39719">
        <ele>1827.5999755859</ele>
        <time>2016-07-18T12:54:19.000Z</time>
      </trkpt>
      <trkpt lat="44.36798" lon="6.39719">
        <ele>1826.8000488281</ele>
        <time>2016-07-18T12:54:26.000Z</time>
      </trkpt>
      <trkpt lat="44.36797" lon="6.39719">
        <ele>1826.8000488281</ele>
        <time>2016-07-18T12:54:42.000Z</time>
      </trkpt>
      <trkpt lat="44.36793" lon="6.39714">
        <ele>1825.8000488281</ele>
        <time>2016-07-18T12:54:48.000Z</time>
      </trkpt>
      <trkpt lat="44.36786" lon="6.39708">
        <ele>1824.1999511719</ele>
        <time>2016-07-18T12:54:55.000Z</time>
      </trkpt>
      <trkpt lat="44.36782" lon="6.39706">
        <ele>1823.5999755859</ele>
        <time>2016-07-18T12:55:01.000Z</time>
      </trkpt>
      <trkpt lat="44.36778" lon="6.39701">
        <ele>1822.4000244141</ele>
        <time>2016-07-18T12:55:06.000Z</time>
      </trkpt>
      <trkpt lat="44.36777" lon="6.397">
        <ele>1822.1999511719</ele>
        <time>2016-07-18T12:55:08.000Z</time>
      </trkpt>
      <trkpt lat="44.36772" lon="6.39692">
        <ele>1820.4000244141</ele>
        <time>2016-07-18T12:55:16.000Z</time>
      </trkpt>
      <trkpt lat="44.3677" lon="6.39682">
        <ele>1818.5999755859</ele>
        <time>2016-07-18T12:55:24.000Z</time>
      </trkpt>
      <trkpt lat="44.36769" lon="6.39678">
        <ele>1818</ele>
        <time>2016-07-18T12:55:27.000Z</time>
      </trkpt>
      <trkpt lat="44.36767" lon="6.39672">
        <ele>1816.8000488281</ele>
        <time>2016-07-18T12:55:32.000Z</time>
      </trkpt>
      <trkpt lat="44.36766" lon="6.3967">
        <ele>1816.4000244141</ele>
        <time>2016-07-18T12:55:34.000Z</time>
      </trkpt>
      <trkpt lat="44.36764" lon="6.39667">
        <ele>1815.8000488281</ele>
        <time>2016-07-18T12:55:38.000Z</time>
      </trkpt>
      <trkpt lat="44.36761" lon="6.3966">
        <ele>1814.4000244141</ele>
        <time>2016-07-18T12:55:44.000Z</time>
      </trkpt>
      <trkpt lat="44.36756" lon="6.39651">
        <ele>1812.5999755859</ele>
        <time>2016-07-18T12:55:52.000Z</time>
      </trkpt>
      <trkpt lat="44.36751" lon="6.39642">
        <ele>1810.5999755859</ele>
        <time>2016-07-18T12:55:59.000Z</time>
      </trkpt>
      <trkpt lat="44.36748" lon="6.39634">
        <ele>1809</ele>
        <time>2016-07-18T12:56:05.000Z</time>
      </trkpt>
      <trkpt lat="44.36745" lon="6.39626">
        <ele>1807.1999511719</ele>
        <time>2016-07-18T12:56:10.000Z</time>
      </trkpt>
      <trkpt lat="44.36741" lon="6.39618">
        <ele>1805.4000244141</ele>
        <time>2016-07-18T12:56:17.000Z</time>
      </trkpt>
      <trkpt lat="44.3674" lon="6.39613">
        <ele>1804.1999511719</ele>
        <time>2016-07-18T12:56:22.000Z</time>
      </trkpt>
      <trkpt lat="44.36738" lon="6.39607">
        <ele>1803</ele>
        <time>2016-07-18T12:56:27.000Z</time>
      </trkpt>
      <trkpt lat="44.36736" lon="6.39598">
        <ele>1801</ele>
        <time>2016-07-18T12:56:33.000Z</time>
      </trkpt>
      <trkpt lat="44.36732" lon="6.39586">
        <ele>1798</ele>
        <time>2016-07-18T12:56:42.000Z</time>
      </trkpt>
      <trkpt lat="44.36729" lon="6.39577">
        <ele>1796</ele>
        <time>2016-07-18T12:56:49.000Z</time>
      </trkpt>
      <trkpt lat="44.36724" lon="6.39567">
        <ele>1793.4000244141</ele>
        <time>2016-07-18T12:56:57.000Z</time>
      </trkpt>
      <trkpt lat="44.36717" lon="6.39557">
        <ele>1791.1999511719</ele>
        <time>2016-07-18T12:57:05.000Z</time>
      </trkpt>
      <trkpt lat="44.3671" lon="6.39547">
        <ele>1788.8000488281</ele>
        <time>2016-07-18T12:57:14.000Z</time>
      </trkpt>
      <trkpt lat="44.36703" lon="6.39538">
        <ele>1787</ele>
        <time>2016-07-18T12:57:22.000Z</time>
      </trkpt>
      <trkpt lat="44.36699" lon="6.39534">
        <ele>1785.8000488281</ele>
        <time>2016-07-18T12:57:28.000Z</time>
      </trkpt>
      <trkpt lat="44.36693" lon="6.39529">
        <ele>1784.4000244141</ele>
        <time>2016-07-18T12:57:34.000Z</time>
      </trkpt>
      <trkpt lat="44.36685" lon="6.39524">
        <ele>1782</ele>
        <time>2016-07-18T12:57:43.000Z</time>
      </trkpt>
      <trkpt lat="44.36679" lon="6.39523">
        <ele>1781</ele>
        <time>2016-07-18T12:57:49.000Z</time>
      </trkpt>
      <trkpt lat="44.36672" lon="6.39521">
        <ele>1779.5999755859</ele>
        <time>2016-07-18T12:57:57.000Z</time>
      </trkpt>
      <trkpt lat="44.3667" lon="6.39522">
        <ele>1779.5999755859</ele>
        <time>2016-07-18T12:57:59.000Z</time>
      </trkpt>
      <trkpt lat="44.36665" lon="6.39528">
        <ele>1780.1999511719</ele>
        <time>2016-07-18T12:58:05.000Z</time>
      </trkpt>
      <trkpt lat="44.36659" lon="6.39533">
        <ele>1780.4000244141</ele>
        <time>2016-07-18T12:58:12.000Z</time>
      </trkpt>
      <trkpt lat="44.36656" lon="6.39536">
        <ele>1780.5999755859</ele>
        <time>2016-07-18T12:58:16.000Z</time>
      </trkpt>
      <trkpt lat="44.36653" lon="6.39536">
        <ele>1780.4000244141</ele>
        <time>2016-07-18T12:58:19.000Z</time>
      </trkpt>
      <trkpt lat="44.36648" lon="6.39533">
        <ele>1779</ele>
        <time>2016-07-18T12:58:26.000Z</time>
      </trkpt>
      <trkpt lat="44.36646" lon="6.39528">
        <ele>1777.5999755859</ele>
        <time>2016-07-18T12:58:38.000Z</time>
      </trkpt>
      <trkpt lat="44.36644" lon="6.39514">
        <ele>1774.1999511719</ele>
        <time>2016-07-18T12:58:47.000Z</time>
      </trkpt>
      <trkpt lat="44.36643" lon="6.39514">
        <ele>1774</ele>
        <time>2016-07-18T12:58:48.000Z</time>
      </trkpt>
      <trkpt lat="44.36643" lon="6.3951">
        <ele>1773.1999511719</ele>
        <time>2016-07-18T12:58:55.000Z</time>
      </trkpt>
      <trkpt lat="44.36643" lon="6.39516">
        <ele>1774.4000244141</ele>
        <time>2016-07-18T12:59:01.000Z</time>
      </trkpt>
      <trkpt lat="44.36642" lon="6.39518">
        <ele>1774.8000488281</ele>
        <time>2016-07-18T12:59:02.000Z</time>
      </trkpt>
      <trkpt lat="44.3664" lon="6.39526">
        <ele>1776.1999511719</ele>
        <time>2016-07-18T12:59:07.000Z</time>
      </trkpt>
      <trkpt lat="44.36637" lon="6.39534">
        <ele>1777.5999755859</ele>
        <time>2016-07-18T12:59:12.000Z</time>
      </trkpt>
      <trkpt lat="44.3664" lon="6.39547">
        <ele>1781</ele>
        <time>2016-07-18T12:59:20.000Z</time>
      </trkpt>
      <trkpt lat="44.36641" lon="6.39549">
        <ele>1781.4000244141</ele>
        <time>2016-07-18T12:59:21.000Z</time>
      </trkpt>
      <trkpt lat="44.36641" lon="6.39555">
        <ele>1782.5999755859</ele>
        <time>2016-07-18T12:59:25.000Z</time>
      </trkpt>
      <trkpt lat="44.36641" lon="6.39558">
        <ele>1783.4000244141</ele>
        <time>2016-07-18T12:59:32.000Z</time>
      </trkpt>
      <trkpt lat="44.36642" lon="6.39561">
        <ele>1784</ele>
        <time>2016-07-18T12:59:40.000Z</time>
      </trkpt>
      <trkpt lat="44.36642" lon="6.39563">
        <ele>1784.4000244141</ele>
        <time>2016-07-18T12:59:53.000Z</time>
      </trkpt>
      <trkpt lat="44.36642" lon="6.39561">
        <ele>1784.1999511719</ele>
        <time>2016-07-18T13:00:17.000Z</time>
      </trkpt>
      <trkpt lat="44.36641" lon="6.39562">
        <ele>1784.4000244141</ele>
        <time>2016-07-18T13:00:25.000Z</time>
      </trkpt>
      <trkpt lat="44.3664" lon="6.39568">
        <ele>1785.1999511719</ele>
        <time>2016-07-18T13:00:30.000Z</time>
      </trkpt>
      <trkpt lat="44.36631" lon="6.39579">
        <ele>1786.1999511719</ele>
        <time>2016-07-18T13:00:39.000Z</time>
      </trkpt>
      <trkpt lat="44.3662" lon="6.39592">
        <ele>1787.4000244141</ele>
        <time>2016-07-18T13:00:51.000Z</time>
      </trkpt>
      <trkpt lat="44.36608" lon="6.39591">
        <ele>1788.1999511719</ele>
        <time>2016-07-18T13:00:57.000Z</time>
      </trkpt>
      <trkpt lat="44.36605" lon="6.39592">
        <ele>1789</ele>
        <time>2016-07-18T13:00:59.000Z</time>
      </trkpt>
      <trkpt lat="44.36598" lon="6.39595">
        <ele>1791</ele>
        <time>2016-07-18T13:01:04.000Z</time>
      </trkpt>
      <trkpt lat="44.36592" lon="6.39601">
        <ele>1794</ele>
        <time>2016-07-18T13:01:10.000Z</time>
      </trkpt>
      <trkpt lat="44.36589" lon="6.39605">
        <ele>1795.5999755859</ele>
        <time>2016-07-18T13:01:13.000Z</time>
      </trkpt>
      <trkpt lat="44.36585" lon="6.39615">
        <ele>1798.4000244141</ele>
        <time>2016-07-18T13:01:19.000Z</time>
      </trkpt>
      <trkpt lat="44.36582" lon="6.39618">
        <ele>1799.8000488281</ele>
        <time>2016-07-18T13:01:22.000Z</time>
      </trkpt>
      <trkpt lat="44.36579" lon="6.39627">
        <ele>1802.1999511719</ele>
        <time>2016-07-18T13:01:27.000Z</time>
      </trkpt>
      <trkpt lat="44.36577" lon="6.39641">
        <ele>1805.5999755859</ele>
        <time>2016-07-18T13:01:34.000Z</time>
      </trkpt>
      <trkpt lat="44.36576" lon="6.39646">
        <ele>1806.8000488281</ele>
        <time>2016-07-18T13:01:37.000Z</time>
      </trkpt>
      <trkpt lat="44.36573" lon="6.39657">
        <ele>1810</ele>
        <time>2016-07-18T13:01:43.000Z</time>
      </trkpt>
      <trkpt lat="44.3657" lon="6.39669">
        <ele>1813.8000488281</ele>
        <time>2016-07-18T13:01:50.000Z</time>
      </trkpt>
      <trkpt lat="44.36569" lon="6.39671">
        <ele>1814.4000244141</ele>
        <time>2016-07-18T13:01:51.000Z</time>
      </trkpt>
      <trkpt lat="44.36568" lon="6.39674">
        <ele>1815.5999755859</ele>
        <time>2016-07-18T13:01:57.000Z</time>
      </trkpt>
      <trkpt lat="44.36566" lon="6.39678">
        <ele>1817.1999511719</ele>
        <time>2016-07-18T13:02:04.000Z</time>
      </trkpt>
      <trkpt lat="44.36561" lon="6.3969">
        <ele>1819.5999755859</ele>
        <time>2016-07-18T13:02:11.000Z</time>
      </trkpt>
      <trkpt lat="44.36556" lon="6.39701">
        <ele>1821.5999755859</ele>
        <time>2016-07-18T13:02:17.000Z</time>
      </trkpt>
      <trkpt lat="44.36555" lon="6.39702">
        <ele>1821.8000488281</ele>
        <time>2016-07-18T13:02:18.000Z</time>
      </trkpt>
      <trkpt lat="44.36548" lon="6.39704">
        <ele>1822.5999755859</ele>
        <time>2016-07-18T13:02:25.000Z</time>
      </trkpt>
      <trkpt lat="44.36542" lon="6.39703">
        <ele>1823.1999511719</ele>
        <time>2016-07-18T13:02:30.000Z</time>
      </trkpt>
      <trkpt lat="44.36541" lon="6.39703">
        <ele>1823.1999511719</ele>
        <time>2016-07-18T13:02:31.000Z</time>
      </trkpt>
      <trkpt lat="44.36539" lon="6.39704">
        <ele>1823.5999755859</ele>
        <time>2016-07-18T13:02:37.000Z</time>
      </trkpt>
      <trkpt lat="44.36535" lon="6.39705">
        <ele>1824</ele>
        <time>2016-07-18T13:02:44.000Z</time>
      </trkpt>
      <trkpt lat="44.3653" lon="6.397">
        <ele>1824.1999511719</ele>
        <time>2016-07-18T13:02:50.000Z</time>
      </trkpt>
      <trkpt lat="44.36525" lon="6.39696">
        <ele>1825.8000488281</ele>
        <time>2016-07-18T13:02:54.000Z</time>
      </trkpt>
      <trkpt lat="44.3652" lon="6.39687">
        <ele>1827.1999511719</ele>
        <time>2016-07-18T13:02:59.000Z</time>
      </trkpt>
      <trkpt lat="44.36513" lon="6.3967">
        <ele>1827.8000488281</ele>
        <time>2016-07-18T13:03:08.000Z</time>
      </trkpt>
      <trkpt lat="44.36511" lon="6.39665">
        <ele>1828</ele>
        <time>2016-07-18T13:03:11.000Z</time>
      </trkpt>
      <trkpt lat="44.36506" lon="6.39657">
        <ele>1829</ele>
        <time>2016-07-18T13:03:18.000Z</time>
      </trkpt>
      <trkpt lat="44.36501" lon="6.39649">
        <ele>1830.5999755859</ele>
        <time>2016-07-18T13:03:25.000Z</time>
      </trkpt>
      <trkpt lat="44.36497" lon="6.39641">
        <ele>1830.4000244141</ele>
        <time>2016-07-18T13:03:31.000Z</time>
      </trkpt>
      <trkpt lat="44.36491" lon="6.39632">
        <ele>1831</ele>
        <time>2016-07-18T13:03:37.000Z</time>
      </trkpt>
      <trkpt lat="44.36484" lon="6.39623">
        <ele>1832</ele>
        <time>2016-07-18T13:03:44.000Z</time>
      </trkpt>
      <trkpt lat="44.36478" lon="6.39613">
        <ele>1832.1999511719</ele>
        <time>2016-07-18T13:03:51.000Z</time>
      </trkpt>
      <trkpt lat="44.36477" lon="6.39611">
        <ele>1832</ele>
        <time>2016-07-18T13:03:52.000Z</time>
      </trkpt>
      <trkpt lat="44.36473" lon="6.39606">
        <ele>1832.4000244141</ele>
        <time>2016-07-18T13:03:56.000Z</time>
      </trkpt>
      <trkpt lat="44.36465" lon="6.39595">
        <ele>1833.4000244141</ele>
        <time>2016-07-18T13:04:04.000Z</time>
      </trkpt>
      <trkpt lat="44.36459" lon="6.39587">
        <ele>1834.5999755859</ele>
        <time>2016-07-18T13:04:10.000Z</time>
      </trkpt>
      <trkpt lat="44.36448" lon="6.39577">
        <ele>1836.8000488281</ele>
        <time>2016-07-18T13:04:18.000Z</time>
      </trkpt>
      <trkpt lat="44.36441" lon="6.39569">
        <ele>1835.1999511719</ele>
        <time>2016-07-18T13:04:25.000Z</time>
      </trkpt>
      <trkpt lat="44.36434" lon="6.39564">
        <ele>1833.8000488281</ele>
        <time>2016-07-18T13:04:31.000Z</time>
      </trkpt>
      <trkpt lat="44.36428" lon="6.3956">
        <ele>1832</ele>
        <time>2016-07-18T13:04:36.000Z</time>
      </trkpt>
      <trkpt lat="44.36423" lon="6.39558">
        <ele>1831.4000244141</ele>
        <time>2016-07-18T13:04:40.000Z</time>
      </trkpt>
      <trkpt lat="44.36416" lon="6.39554">
        <ele>1829.8000488281</ele>
        <time>2016-07-18T13:04:47.000Z</time>
      </trkpt>
      <trkpt lat="44.36406" lon="6.3955">
        <ele>1828</ele>
        <time>2016-07-18T13:04:55.000Z</time>
      </trkpt>
      <trkpt lat="44.36405" lon="6.39549">
        <ele>1827.8000488281</ele>
        <time>2016-07-18T13:04:56.000Z</time>
      </trkpt>
      <trkpt lat="44.364" lon="6.39549">
        <ele>1827.8000488281</ele>
        <time>2016-07-18T13:05:01.000Z</time>
      </trkpt>
      <trkpt lat="44.36395" lon="6.39553">
        <ele>1829.4000244141</ele>
        <time>2016-07-18T13:05:06.000Z</time>
      </trkpt>
      <trkpt lat="44.36394" lon="6.39554">
        <ele>1829.8000488281</ele>
        <time>2016-07-18T13:05:07.000Z</time>
      </trkpt>
      <trkpt lat="44.36389" lon="6.39557">
        <ele>1831.1999511719</ele>
        <time>2016-07-18T13:05:12.000Z</time>
      </trkpt>
      <trkpt lat="44.36382" lon="6.39559">
        <ele>1832</ele>
        <time>2016-07-18T13:05:18.000Z</time>
      </trkpt>
      <trkpt lat="44.36377" lon="6.3956">
        <ele>1832.8000488281</ele>
        <time>2016-07-18T13:05:22.000Z</time>
      </trkpt>
      <trkpt lat="44.36369" lon="6.39561">
        <ele>1833.4000244141</ele>
        <time>2016-07-18T13:05:29.000Z</time>
      </trkpt>
      <trkpt lat="44.36365" lon="6.39561">
        <ele>1833.4000244141</ele>
        <time>2016-07-18T13:05:32.000Z</time>
      </trkpt>
      <trkpt lat="44.3635" lon="6.39556">
        <ele>1828.1999511719</ele>
        <time>2016-07-18T13:05:42.000Z</time>
      </trkpt>
      <trkpt lat="44.36338" lon="6.39552">
        <ele>1823.4000244141</ele>
        <time>2016-07-18T13:05:50.000Z</time>
      </trkpt>
      <trkpt lat="44.36326" lon="6.39545">
        <ele>1817.8000488281</ele>
        <time>2016-07-18T13:05:58.000Z</time>
      </trkpt>
      <trkpt lat="44.36318" lon="6.39538">
        <ele>1813</ele>
        <time>2016-07-18T13:06:05.000Z</time>
      </trkpt>
      <trkpt lat="44.36313" lon="6.39536">
        <ele>1811</ele>
        <time>2016-07-18T13:06:11.000Z</time>
      </trkpt>
      <trkpt lat="44.36311" lon="6.39536">
        <ele>1810.5999755859</ele>
        <time>2016-07-18T13:06:28.000Z</time>
      </trkpt>
      <trkpt lat="44.36314" lon="6.39538">
        <ele>1812</ele>
        <time>2016-07-18T13:07:07.000Z</time>
      </trkpt>
      <trkpt lat="44.36321" lon="6.39541">
        <ele>1815.1999511719</ele>
        <time>2016-07-18T13:07:13.000Z</time>
      </trkpt>
      <trkpt lat="44.36324" lon="6.39544">
        <ele>1816.5999755859</ele>
        <time>2016-07-18T13:07:15.000Z</time>
      </trkpt>
      <trkpt lat="44.36322" lon="6.39552">
        <ele>1819.4000244141</ele>
        <time>2016-07-18T13:07:21.000Z</time>
      </trkpt>
      <trkpt lat="44.36318" lon="6.39553">
        <ele>1818.8000488281</ele>
        <time>2016-07-18T13:07:27.000Z</time>
      </trkpt>
      <trkpt lat="44.36317" lon="6.39551">
        <ele>1817.8000488281</ele>
        <time>2016-07-18T13:07:55.000Z</time>
      </trkpt>
      <trkpt lat="44.36318" lon="6.39552">
        <ele>1818</ele>
        <time>2016-07-18T13:08:05.000Z</time>
      </trkpt>
      <trkpt lat="44.36321" lon="6.39549">
        <ele>1818</ele>
        <time>2016-07-18T13:08:15.000Z</time>
      </trkpt>
      <trkpt lat="44.36322" lon="6.39547">
        <ele>1817.1999511719</ele>
        <time>2016-07-18T13:08:17.000Z</time>
      </trkpt>
      <trkpt lat="44.36322" lon="6.3954">
        <ele>1814.5999755859</ele>
        <time>2016-07-18T13:08:21.000Z</time>
      </trkpt>
      <trkpt lat="44.3632" lon="6.39539">
        <ele>1813.5999755859</ele>
        <time>2016-07-18T13:08:27.000Z</time>
      </trkpt>
      <trkpt lat="44.3631" lon="6.39534">
        <ele>1809.1999511719</ele>
        <time>2016-07-18T13:08:37.000Z</time>
      </trkpt>
      <trkpt lat="44.36297" lon="6.39532">
        <ele>1805.5999755859</ele>
        <time>2016-07-18T13:08:48.000Z</time>
      </trkpt>
      <trkpt lat="44.36295" lon="6.39533">
        <ele>1805.1999511719</ele>
        <time>2016-07-18T13:08:50.000Z</time>
      </trkpt>
      <trkpt lat="44.36289" lon="6.39535">
        <ele>1804.4000244141</ele>
        <time>2016-07-18T13:08:56.000Z</time>
      </trkpt>
      <trkpt lat="44.36288" lon="6.39535">
        <ele>1804.1999511719</ele>
        <time>2016-07-18T13:08:57.000Z</time>
      </trkpt>
      <trkpt lat="44.36277" lon="6.39536">
        <ele>1801.8000488281</ele>
        <time>2016-07-18T13:09:06.000Z</time>
      </trkpt>
      <trkpt lat="44.3627" lon="6.39538">
        <ele>1801</ele>
        <time>2016-07-18T13:09:12.000Z</time>
      </trkpt>
      <trkpt lat="44.36263" lon="6.39539">
        <ele>1799.5999755859</ele>
        <time>2016-07-18T13:09:17.000Z</time>
      </trkpt>
      <trkpt lat="44.36257" lon="6.39537">
        <ele>1797.1999511719</ele>
        <time>2016-07-18T13:09:22.000Z</time>
      </trkpt>
      <trkpt lat="44.36255" lon="6.39538">
        <ele>1797</ele>
        <time>2016-07-18T13:09:23.000Z</time>
      </trkpt>
      <trkpt lat="44.36251" lon="6.3954">
        <ele>1796.1999511719</ele>
        <time>2016-07-18T13:09:28.000Z</time>
      </trkpt>
      <trkpt lat="44.36244" lon="6.39541">
        <ele>1794.1999511719</ele>
        <time>2016-07-18T13:09:33.000Z</time>
      </trkpt>
      <trkpt lat="44.36243" lon="6.39542">
        <ele>1794</ele>
        <time>2016-07-18T13:09:34.000Z</time>
      </trkpt>
      <trkpt lat="44.36239" lon="6.39543">
        <ele>1793</ele>
        <time>2016-07-18T13:09:37.000Z</time>
      </trkpt>
      <trkpt lat="44.36232" lon="6.39547">
        <ele>1791.4000244141</ele>
        <time>2016-07-18T13:09:43.000Z</time>
      </trkpt>
      <trkpt lat="44.36221" lon="6.3955">
        <ele>1788</ele>
        <time>2016-07-18T13:09:51.000Z</time>
      </trkpt>
      <trkpt lat="44.36215" lon="6.39553">
        <ele>1787</ele>
        <time>2016-07-18T13:09:56.000Z</time>
      </trkpt>
      <trkpt lat="44.36209" lon="6.39552">
        <ele>1784.4000244141</ele>
        <time>2016-07-18T13:10:01.000Z</time>
      </trkpt>
      <trkpt lat="44.36207" lon="6.39554">
        <ele>1784.1999511719</ele>
        <time>2016-07-18T13:10:07.000Z</time>
      </trkpt>
      <trkpt lat="44.36207" lon="6.39553">
        <ele>1784</ele>
        <time>2016-07-18T13:10:12.000Z</time>
      </trkpt>
      <trkpt lat="44.36206" lon="6.39554">
        <ele>1783.8000488281</ele>
        <time>2016-07-18T13:10:17.000Z</time>
      </trkpt>
      <trkpt lat="44.36199" lon="6.39556">
        <ele>1782</ele>
        <time>2016-07-18T13:10:23.000Z</time>
      </trkpt>
      <trkpt lat="44.36193" lon="6.39557">
        <ele>1780.1999511719</ele>
        <time>2016-07-18T13:10:29.000Z</time>
      </trkpt>
      <trkpt lat="44.36186" lon="6.39562">
        <ele>1779</ele>
        <time>2016-07-18T13:10:34.000Z</time>
      </trkpt>
      <trkpt lat="44.3617" lon="6.39575">
        <ele>1775.1999511719</ele>
        <time>2016-07-18T13:10:47.000Z</time>
      </trkpt>
      <trkpt lat="44.36159" lon="6.39584">
        <ele>1772.1999511719</ele>
        <time>2016-07-18T13:10:55.000Z</time>
      </trkpt>
      <trkpt lat="44.3615" lon="6.39596">
        <ele>1771</ele>
        <time>2016-07-18T13:11:04.000Z</time>
      </trkpt>
      <trkpt lat="44.36147" lon="6.39608">
        <ele>1772</ele>
        <time>2016-07-18T13:11:10.000Z</time>
      </trkpt>
      <trkpt lat="44.36141" lon="6.3962">
        <ele>1771.8000488281</ele>
        <time>2016-07-18T13:11:17.000Z</time>
      </trkpt>
      <trkpt lat="44.36136" lon="6.39633">
        <ele>1772.1999511719</ele>
        <time>2016-07-18T13:11:24.000Z</time>
      </trkpt>
      <trkpt lat="44.36129" lon="6.39648">
        <ele>1772.4000244141</ele>
        <time>2016-07-18T13:11:32.000Z</time>
      </trkpt>
      <trkpt lat="44.3612" lon="6.39662">
        <ele>1770</ele>
        <time>2016-07-18T13:11:41.000Z</time>
      </trkpt>
      <trkpt lat="44.36115" lon="6.39674">
        <ele>1768</ele>
        <time>2016-07-18T13:11:48.000Z</time>
      </trkpt>
      <trkpt lat="44.36112" lon="6.39682">
        <ele>1766.8000488281</ele>
        <time>2016-07-18T13:11:54.000Z</time>
      </trkpt>
      <trkpt lat="44.36111" lon="6.39683">
        <ele>1766.5999755859</ele>
        <time>2016-07-18T13:11:55.000Z</time>
      </trkpt>
      <trkpt lat="44.36103" lon="6.39693">
        <ele>1764.1999511719</ele>
        <time>2016-07-18T13:12:02.000Z</time>
      </trkpt>
      <trkpt lat="44.36099" lon="6.39698">
        <ele>1762.8000488281</ele>
        <time>2016-07-18T13:12:06.000Z</time>
      </trkpt>
      <trkpt lat="44.36097" lon="6.39702">
        <ele>1762.4000244141</ele>
        <time>2016-07-18T13:12:08.000Z</time>
      </trkpt>
      <trkpt lat="44.36092" lon="6.39714">
        <ele>1760.5999755859</ele>
        <time>2016-07-18T13:12:16.000Z</time>
      </trkpt>
      <trkpt lat="44.36091" lon="6.39726">
        <ele>1759.5999755859</ele>
        <time>2016-07-18T13:12:22.000Z</time>
      </trkpt>
      <trkpt lat="44.3609" lon="6.39732">
        <ele>1759.1999511719</ele>
        <time>2016-07-18T13:12:25.000Z</time>
      </trkpt>
      <trkpt lat="44.36091" lon="6.39742">
        <ele>1759.1999511719</ele>
        <time>2016-07-18T13:12:30.000Z</time>
      </trkpt>
      <trkpt lat="44.36095" lon="6.39761">
        <ele>1760.4000244141</ele>
        <time>2016-07-18T13:12:39.000Z</time>
      </trkpt>
      <trkpt lat="44.36096" lon="6.39772">
        <ele>1760.5999755859</ele>
        <time>2016-07-18T13:12:44.000Z</time>
      </trkpt>
      <trkpt lat="44.36095" lon="6.39776">
        <ele>1760</ele>
        <time>2016-07-18T13:12:46.000Z</time>
      </trkpt>
      <trkpt lat="44.36087" lon="6.39782">
        <ele>1756.5999755859</ele>
        <time>2016-07-18T13:12:52.000Z</time>
      </trkpt>
      <trkpt lat="44.36076" lon="6.39779">
        <ele>1751.8000488281</ele>
        <time>2016-07-18T13:12:59.000Z</time>
      </trkpt>
      <trkpt lat="44.36064" lon="6.3977">
        <ele>1746.8000488281</ele>
        <time>2016-07-18T13:13:08.000Z</time>
      </trkpt>
      <trkpt lat="44.36053" lon="6.3976">
        <ele>1742.4000244141</ele>
        <time>2016-07-18T13:13:16.000Z</time>
      </trkpt>
      <trkpt lat="44.36043" lon="6.39752">
        <ele>1738</ele>
        <time>2016-07-18T13:13:23.000Z</time>
      </trkpt>
      <trkpt lat="44.36031" lon="6.39744">
        <ele>1733.1999511719</ele>
        <time>2016-07-18T13:13:31.000Z</time>
      </trkpt>
      <trkpt lat="44.36024" lon="6.3973">
        <ele>1731.5999755859</ele>
        <time>2016-07-18T13:13:40.000Z</time>
      </trkpt>
      <trkpt lat="44.36015" lon="6.39715">
        <ele>1728.5999755859</ele>
        <time>2016-07-18T13:13:49.000Z</time>
      </trkpt>
      <trkpt lat="44.3601" lon="6.39702">
        <ele>1726.5999755859</ele>
        <time>2016-07-18T13:13:56.000Z</time>
      </trkpt>
      <trkpt lat="44.36007" lon="6.39696">
        <ele>1725.5999755859</ele>
        <time>2016-07-18T13:14:00.000Z</time>
      </trkpt>
      <trkpt lat="44.36001" lon="6.39684">
        <ele>1723.5999755859</ele>
        <time>2016-07-18T13:14:07.000Z</time>
      </trkpt>
      <trkpt lat="44.36" lon="6.3968">
        <ele>1723.1999511719</ele>
        <time>2016-07-18T13:14:09.000Z</time>
      </trkpt>
      <trkpt lat="44.35999" lon="6.39676">
        <ele>1723</ele>
        <time>2016-07-18T13:14:11.000Z</time>
      </trkpt>
      <trkpt lat="44.35998" lon="6.39668">
        <ele>1722.5999755859</ele>
        <time>2016-07-18T13:14:15.000Z</time>
      </trkpt>
      <trkpt lat="44.35994" lon="6.39653">
        <ele>1721.5999755859</ele>
        <time>2016-07-18T13:14:22.000Z</time>
      </trkpt>
      <trkpt lat="44.35994" lon="6.39636">
        <ele>1721.1999511719</ele>
        <time>2016-07-18T13:14:30.000Z</time>
      </trkpt>
      <trkpt lat="44.35997" lon="6.39623">
        <ele>1722.1999511719</ele>
        <time>2016-07-18T13:14:37.000Z</time>
      </trkpt>
      <trkpt lat="44.35999" lon="6.39612">
        <ele>1722</ele>
        <time>2016-07-18T13:14:43.000Z</time>
      </trkpt>
      <trkpt lat="44.36006" lon="6.39595">
        <ele>1722.5999755859</ele>
        <time>2016-07-18T13:14:53.000Z</time>
      </trkpt>
      <trkpt lat="44.36011" lon="6.39579">
        <ele>1722.5999755859</ele>
        <time>2016-07-18T13:15:01.000Z</time>
      </trkpt>
      <trkpt lat="44.36017" lon="6.39563">
        <ele>1722.5999755859</ele>
        <time>2016-07-18T13:15:09.000Z</time>
      </trkpt>
      <trkpt lat="44.36019" lon="6.39552">
        <ele>1722.1999511719</ele>
        <time>2016-07-18T13:15:15.000Z</time>
      </trkpt>
      <trkpt lat="44.36023" lon="6.39539">
        <ele>1721</ele>
        <time>2016-07-18T13:15:22.000Z</time>
      </trkpt>
      <trkpt lat="44.36029" lon="6.39526">
        <ele>1720.4000244141</ele>
        <time>2016-07-18T13:15:30.000Z</time>
      </trkpt>
      <trkpt lat="44.36034" lon="6.39509">
        <ele>1718.8000488281</ele>
        <time>2016-07-18T13:15:39.000Z</time>
      </trkpt>
      <trkpt lat="44.36041" lon="6.39494">
        <ele>1718</ele>
        <time>2016-07-18T13:15:48.000Z</time>
      </trkpt>
      <trkpt lat="44.36045" lon="6.39483">
        <ele>1716.4000244141</ele>
        <time>2016-07-18T13:15:54.000Z</time>
      </trkpt>
      <trkpt lat="44.36051" lon="6.39469">
        <ele>1715.4000244141</ele>
        <time>2016-07-18T13:16:02.000Z</time>
      </trkpt>
      <trkpt lat="44.36057" lon="6.39456">
        <ele>1714.5999755859</ele>
        <time>2016-07-18T13:16:09.000Z</time>
      </trkpt>
      <trkpt lat="44.36062" lon="6.39446">
        <ele>1714.1999511719</ele>
        <time>2016-07-18T13:16:15.000Z</time>
      </trkpt>
      <trkpt lat="44.36062" lon="6.39445">
        <ele>1714</ele>
        <time>2016-07-18T13:16:16.000Z</time>
      </trkpt>
      <trkpt lat="44.36063" lon="6.39433">
        <ele>1712.1999511719</ele>
        <time>2016-07-18T13:16:22.000Z</time>
      </trkpt>
      <trkpt lat="44.36064" lon="6.39432">
        <ele>1712.1999511719</ele>
        <time>2016-07-18T13:16:23.000Z</time>
      </trkpt>
      <trkpt lat="44.3607" lon="6.39423">
        <ele>1711</ele>
        <time>2016-07-18T13:16:30.000Z</time>
      </trkpt>
      <trkpt lat="44.36072" lon="6.3942">
        <ele>1710.8000488281</ele>
        <time>2016-07-18T13:16:33.000Z</time>
      </trkpt>
      <trkpt lat="44.36078" lon="6.39406">
        <ele>1708.5999755859</ele>
        <time>2016-07-18T13:16:42.000Z</time>
      </trkpt>
      <trkpt lat="44.36082" lon="6.39399">
        <ele>1707.5999755859</ele>
        <time>2016-07-18T13:16:47.000Z</time>
      </trkpt>
      <trkpt lat="44.36083" lon="6.39398">
        <ele>1707.5999755859</ele>
        <time>2016-07-18T13:16:48.000Z</time>
      </trkpt>
      <trkpt lat="44.36085" lon="6.39391">
        <ele>1706.8000488281</ele>
        <time>2016-07-18T13:16:53.000Z</time>
      </trkpt>
      <trkpt lat="44.36086" lon="6.39389">
        <ele>1706.5999755859</ele>
        <time>2016-07-18T13:16:54.000Z</time>
      </trkpt>
      <trkpt lat="44.3609" lon="6.3938">
        <ele>1705.5999755859</ele>
        <time>2016-07-18T13:16:59.000Z</time>
      </trkpt>
      <trkpt lat="44.36092" lon="6.39375">
        <ele>1705</ele>
        <time>2016-07-18T13:17:02.000Z</time>
      </trkpt>
      <trkpt lat="44.36094" lon="6.39368">
        <ele>1703.8000488281</ele>
        <time>2016-07-18T13:17:07.000Z</time>
      </trkpt>
      <trkpt lat="44.36097" lon="6.39362">
        <ele>1702.5999755859</ele>
        <time>2016-07-18T13:17:11.000Z</time>
      </trkpt>
      <trkpt lat="44.36097" lon="6.3936">
        <ele>1702.1999511719</ele>
        <time>2016-07-18T13:17:12.000Z</time>
      </trkpt>
      <trkpt lat="44.36097" lon="6.39359">
        <ele>1702</ele>
        <time>2016-07-18T13:17:13.000Z</time>
      </trkpt>
      <trkpt lat="44.36095" lon="6.39355">
        <ele>1700.8000488281</ele>
        <time>2016-07-18T13:17:17.000Z</time>
      </trkpt>
      <trkpt lat="44.3609" lon="6.39358">
        <ele>1701</ele>
        <time>2016-07-18T13:17:22.000Z</time>
      </trkpt>
      <trkpt lat="44.3608" lon="6.39359">
        <ele>1700</ele>
        <time>2016-07-18T13:17:31.000Z</time>
      </trkpt>
      <trkpt lat="44.36076" lon="6.39362">
        <ele>1700</ele>
        <time>2016-07-18T13:17:34.000Z</time>
      </trkpt>
      <trkpt lat="44.36074" lon="6.39361">
        <ele>1699.5999755859</ele>
        <time>2016-07-18T13:17:39.000Z</time>
      </trkpt>
      <trkpt lat="44.3607" lon="6.39363">
        <ele>1699.1999511719</ele>
        <time>2016-07-18T13:17:42.000Z</time>
      </trkpt>
      <trkpt lat="44.36066" lon="6.39362">
        <ele>1698.4000244141</ele>
        <time>2016-07-18T13:17:46.000Z</time>
      </trkpt>
      <trkpt lat="44.3606" lon="6.39363">
        <ele>1697.5999755859</ele>
        <time>2016-07-18T13:17:51.000Z</time>
      </trkpt>
      <trkpt lat="44.36056" lon="6.39363">
        <ele>1696.8000488281</ele>
        <time>2016-07-18T13:17:55.000Z</time>
      </trkpt>
      <trkpt lat="44.36055" lon="6.39363">
        <ele>1696.5999755859</ele>
        <time>2016-07-18T13:17:56.000Z</time>
      </trkpt>
      <trkpt lat="44.36047" lon="6.39363">
        <ele>1695.4000244141</ele>
        <time>2016-07-18T13:18:02.000Z</time>
      </trkpt>
      <trkpt lat="44.36041" lon="6.39364">
        <ele>1694.4000244141</ele>
        <time>2016-07-18T13:18:07.000Z</time>
      </trkpt>
      <trkpt lat="44.3604" lon="6.39364">
        <ele>1694.4000244141</ele>
        <time>2016-07-18T13:18:08.000Z</time>
      </trkpt>
      <trkpt lat="44.36038" lon="6.39365">
        <ele>1694.1999511719</ele>
        <time>2016-07-18T13:18:09.000Z</time>
      </trkpt>
      <trkpt lat="44.36032" lon="6.39363">
        <ele>1693</ele>
        <time>2016-07-18T13:18:13.000Z</time>
      </trkpt>
      <trkpt lat="44.36021" lon="6.39364">
        <ele>1689.4000244141</ele>
        <time>2016-07-18T13:18:20.000Z</time>
      </trkpt>
      <trkpt lat="44.36015" lon="6.39364">
        <ele>1687</ele>
        <time>2016-07-18T13:18:25.000Z</time>
      </trkpt>
      <trkpt lat="44.36008" lon="6.39366">
        <ele>1684.8000488281</ele>
        <time>2016-07-18T13:18:30.000Z</time>
      </trkpt>
      <trkpt lat="44.36006" lon="6.39367">
        <ele>1684.4000244141</ele>
        <time>2016-07-18T13:18:31.000Z</time>
      </trkpt>
      <trkpt lat="44.35997" lon="6.39372">
        <ele>1682.4000244141</ele>
        <time>2016-07-18T13:18:37.000Z</time>
      </trkpt>
      <trkpt lat="44.35995" lon="6.39376">
        <ele>1682.1999511719</ele>
        <time>2016-07-18T13:18:40.000Z</time>
      </trkpt>
      <trkpt lat="44.35989" lon="6.39383">
        <ele>1681.5999755859</ele>
        <time>2016-07-18T13:18:44.000Z</time>
      </trkpt>
      <trkpt lat="44.35981" lon="6.39397">
        <ele>1681.1999511719</ele>
        <time>2016-07-18T13:18:53.000Z</time>
      </trkpt>
      <trkpt lat="44.35979" lon="6.394">
        <ele>1681</ele>
        <time>2016-07-18T13:18:55.000Z</time>
      </trkpt>
      <trkpt lat="44.35976" lon="6.3941">
        <ele>1681.8000488281</ele>
        <time>2016-07-18T13:19:01.000Z</time>
      </trkpt>
      <trkpt lat="44.35974" lon="6.39414">
        <ele>1681.8000488281</ele>
        <time>2016-07-18T13:19:03.000Z</time>
      </trkpt>
      <trkpt lat="44.35973" lon="6.39417">
        <ele>1681.8000488281</ele>
        <time>2016-07-18T13:19:05.000Z</time>
      </trkpt>
      <trkpt lat="44.35969" lon="6.39422">
        <ele>1681.5999755859</ele>
        <time>2016-07-18T13:19:09.000Z</time>
      </trkpt>
      <trkpt lat="44.35964" lon="6.39428">
        <ele>1681.8000488281</ele>
        <time>2016-07-18T13:19:14.000Z</time>
      </trkpt>
      <trkpt lat="44.35956" lon="6.39434">
        <ele>1680.8000488281</ele>
        <time>2016-07-18T13:19:21.000Z</time>
      </trkpt>
      <trkpt lat="44.3595" lon="6.3944">
        <ele>1680.5999755859</ele>
        <time>2016-07-18T13:19:26.000Z</time>
      </trkpt>
      <trkpt lat="44.35946" lon="6.39446">
        <ele>1681</ele>
        <time>2016-07-18T13:19:30.000Z</time>
      </trkpt>
      <trkpt lat="44.35939" lon="6.39453">
        <ele>1681.4000244141</ele>
        <time>2016-07-18T13:19:37.000Z</time>
      </trkpt>
      <trkpt lat="44.35932" lon="6.3946">
        <ele>1681.5999755859</ele>
        <time>2016-07-18T13:19:44.000Z</time>
      </trkpt>
      <trkpt lat="44.3593" lon="6.3946">
        <ele>1681.1999511719</ele>
        <time>2016-07-18T13:19:50.000Z</time>
      </trkpt>
      <trkpt lat="44.35927" lon="6.39461">
        <ele>1680.8000488281</ele>
        <time>2016-07-18T13:19:56.000Z</time>
      </trkpt>
      <trkpt lat="44.35921" lon="6.39465">
        <ele>1679.4000244141</ele>
        <time>2016-07-18T13:20:01.000Z</time>
      </trkpt>
      <trkpt lat="44.35917" lon="6.39468">
        <ele>1678.1999511719</ele>
        <time>2016-07-18T13:20:05.000Z</time>
      </trkpt>
      <trkpt lat="44.35909" lon="6.39476">
        <ele>1676.4000244141</ele>
        <time>2016-07-18T13:20:12.000Z</time>
      </trkpt>
      <trkpt lat="44.35907" lon="6.39477">
        <ele>1675.8000488281</ele>
        <time>2016-07-18T13:20:13.000Z</time>
      </trkpt>
      <trkpt lat="44.35899" lon="6.39482">
        <ele>1673.8000488281</ele>
        <time>2016-07-18T13:20:19.000Z</time>
      </trkpt>
      <trkpt lat="44.35898" lon="6.39482">
        <ele>1673.4000244141</ele>
        <time>2016-07-18T13:20:20.000Z</time>
      </trkpt>
      <trkpt lat="44.35893" lon="6.39483">
        <ele>1671.5999755859</ele>
        <time>2016-07-18T13:20:25.000Z</time>
      </trkpt>
      <trkpt lat="44.35892" lon="6.39482">
        <ele>1671.4000244141</ele>
        <time>2016-07-18T13:20:26.000Z</time>
      </trkpt>
      <trkpt lat="44.35877" lon="6.39483">
        <ele>1666.4000244141</ele>
        <time>2016-07-18T13:20:43.000Z</time>
      </trkpt>
      <trkpt lat="44.35875" lon="6.39483">
        <ele>1665.5999755859</ele>
        <time>2016-07-18T13:20:45.000Z</time>
      </trkpt>
      <trkpt lat="44.35875" lon="6.3948">
        <ele>1665.4000244141</ele>
        <time>2016-07-18T13:20:51.000Z</time>
      </trkpt>
      <trkpt lat="44.35876" lon="6.39479">
        <ele>1665.5999755859</ele>
        <time>2016-07-18T13:20:52.000Z</time>
      </trkpt>
      <trkpt lat="44.35881" lon="6.39473">
        <ele>1666.5999755859</ele>
        <time>2016-07-18T13:20:58.000Z</time>
      </trkpt>
      <trkpt lat="44.35883" lon="6.3947">
        <ele>1667</ele>
        <time>2016-07-18T13:21:01.000Z</time>
      </trkpt>
      <trkpt lat="44.35885" lon="6.39466">
        <ele>1667.1999511719</ele>
        <time>2016-07-18T13:21:05.000Z</time>
      </trkpt>
      <trkpt lat="44.35889" lon="6.39462">
        <ele>1668.1999511719</ele>
        <time>2016-07-18T13:21:09.000Z</time>
      </trkpt>
      <trkpt lat="44.3589" lon="6.39461">
        <ele>1668.5999755859</ele>
        <time>2016-07-18T13:21:11.000Z</time>
      </trkpt>
      <trkpt lat="44.3589" lon="6.39453">
        <ele>1667.5999755859</ele>
        <time>2016-07-18T13:21:16.000Z</time>
      </trkpt>
      <trkpt lat="44.35889" lon="6.39452">
        <ele>1667</ele>
        <time>2016-07-18T13:21:17.000Z</time>
      </trkpt>
      <trkpt lat="44.35886" lon="6.39451">
        <ele>1665.8000488281</ele>
        <time>2016-07-18T13:21:20.000Z</time>
      </trkpt>
      <trkpt lat="44.35881" lon="6.39451">
        <ele>1664.1999511719</ele>
        <time>2016-07-18T13:21:25.000Z</time>
      </trkpt>
      <trkpt lat="44.35879" lon="6.3945">
        <ele>1663.5999755859</ele>
        <time>2016-07-18T13:21:26.000Z</time>
      </trkpt>
      <trkpt lat="44.35868" lon="6.39445">
        <ele>1659.1999511719</ele>
        <time>2016-07-18T13:21:34.000Z</time>
      </trkpt>
      <trkpt lat="44.35858" lon="6.39441">
        <ele>1656</ele>
        <time>2016-07-18T13:21:41.000Z</time>
      </trkpt>
      <trkpt lat="44.35849" lon="6.39439">
        <ele>1653.5999755859</ele>
        <time>2016-07-18T13:21:48.000Z</time>
      </trkpt>
      <trkpt lat="44.35848" lon="6.39439">
        <ele>1653.4000244141</ele>
        <time>2016-07-18T13:21:49.000Z</time>
      </trkpt>
      <trkpt lat="44.35838" lon="6.39439">
        <ele>1651.1999511719</ele>
        <time>2016-07-18T13:21:57.000Z</time>
      </trkpt>
      <trkpt lat="44.3583" lon="6.39436">
        <ele>1648.8000488281</ele>
        <time>2016-07-18T13:22:05.000Z</time>
      </trkpt>
      <trkpt lat="44.35829" lon="6.39435">
        <ele>1648.4000244141</ele>
        <time>2016-07-18T13:22:06.000Z</time>
      </trkpt>
      <trkpt lat="44.35827" lon="6.39428">
        <ele>1647.1999511719</ele>
        <time>2016-07-18T13:22:11.000Z</time>
      </trkpt>
      <trkpt lat="44.35827" lon="6.39425">
        <ele>1647</ele>
        <time>2016-07-18T13:22:13.000Z</time>
      </trkpt>
      <trkpt lat="44.35831" lon="6.39419">
        <ele>1647.4000244141</ele>
        <time>2016-07-18T13:22:18.000Z</time>
      </trkpt>
      <trkpt lat="44.35836" lon="6.39413">
        <ele>1647.8000488281</ele>
        <time>2016-07-18T13:22:24.000Z</time>
      </trkpt>
      <trkpt lat="44.35841" lon="6.39409">
        <ele>1648.4000244141</ele>
        <time>2016-07-18T13:22:30.000Z</time>
      </trkpt>
      <trkpt lat="44.35861" lon="6.39399">
        <ele>1652.1999511719</ele>
        <time>2016-07-18T13:22:46.000Z</time>
      </trkpt>
      <trkpt lat="44.35867" lon="6.39396">
        <ele>1653</ele>
        <time>2016-07-18T13:22:52.000Z</time>
      </trkpt>
      <trkpt lat="44.35873" lon="6.39393">
        <ele>1653.8000488281</ele>
        <time>2016-07-18T13:22:59.000Z</time>
      </trkpt>
      <trkpt lat="44.3588" lon="6.3939">
        <ele>1654.8000488281</ele>
        <time>2016-07-18T13:23:05.000Z</time>
      </trkpt>
      <trkpt lat="44.35884" lon="6.39386">
        <ele>1654.8000488281</ele>
        <time>2016-07-18T13:23:10.000Z</time>
      </trkpt>
      <trkpt lat="44.35885" lon="6.39384">
        <ele>1655</ele>
        <time>2016-07-18T13:23:11.000Z</time>
      </trkpt>
      <trkpt lat="44.35895" lon="6.3938">
        <ele>1656.1999511719</ele>
        <time>2016-07-18T13:23:18.000Z</time>
      </trkpt>
      <trkpt lat="44.35895" lon="6.39379">
        <ele>1656</ele>
        <time>2016-07-18T13:23:19.000Z</time>
      </trkpt>
      <trkpt lat="44.35897" lon="6.39375">
        <ele>1655.8000488281</ele>
        <time>2016-07-18T13:23:22.000Z</time>
      </trkpt>
      <trkpt lat="44.35899" lon="6.39372">
        <ele>1655.5999755859</ele>
        <time>2016-07-18T13:23:24.000Z</time>
      </trkpt>
      <trkpt lat="44.35902" lon="6.39364">
        <ele>1654.8000488281</ele>
        <time>2016-07-18T13:23:29.000Z</time>
      </trkpt>
      <trkpt lat="44.35902" lon="6.39361">
        <ele>1654.4000244141</ele>
        <time>2016-07-18T13:23:30.000Z</time>
      </trkpt>
      <trkpt lat="44.35902" lon="6.39358">
        <ele>1654</ele>
        <time>2016-07-18T13:23:32.000Z</time>
      </trkpt>
      <trkpt lat="44.35901" lon="6.39349">
        <ele>1652.1999511719</ele>
        <time>2016-07-18T13:23:37.000Z</time>
      </trkpt>
      <trkpt lat="44.35901" lon="6.39338">
        <ele>1649.8000488281</ele>
        <time>2016-07-18T13:23:44.000Z</time>
      </trkpt>
      <trkpt lat="44.359" lon="6.39336">
        <ele>1649.5999755859</ele>
        <time>2016-07-18T13:23:45.000Z</time>
      </trkpt>
      <trkpt lat="44.359" lon="6.39331">
        <ele>1648.5999755859</ele>
        <time>2016-07-18T13:23:49.000Z</time>
      </trkpt>
      <trkpt lat="44.359" lon="6.39324">
        <ele>1647</ele>
        <time>2016-07-18T13:23:53.000Z</time>
      </trkpt>
      <trkpt lat="44.35898" lon="6.39316">
        <ele>1645.1999511719</ele>
        <time>2016-07-18T13:23:57.000Z</time>
      </trkpt>
      <trkpt lat="44.35895" lon="6.39308">
        <ele>1643.4000244141</ele>
        <time>2016-07-18T13:24:02.000Z</time>
      </trkpt>
      <trkpt lat="44.35893" lon="6.393">
        <ele>1641.4000244141</ele>
        <time>2016-07-18T13:24:08.000Z</time>
      </trkpt>
      <trkpt lat="44.35891" lon="6.39299">
        <ele>1640.5999755859</ele>
        <time>2016-07-18T13:24:10.000Z</time>
      </trkpt>
      <trkpt lat="44.35888" lon="6.39299">
        <ele>1640.1999511719</ele>
        <time>2016-07-18T13:24:12.000Z</time>
      </trkpt>
      <trkpt lat="44.35885" lon="6.39304">
        <ele>1640.5999755859</ele>
        <time>2016-07-18T13:24:17.000Z</time>
      </trkpt>
      <trkpt lat="44.3588" lon="6.39303">
        <ele>1639.5999755859</ele>
        <time>2016-07-18T13:24:22.000Z</time>
      </trkpt>
      <trkpt lat="44.35879" lon="6.39301">
        <ele>1639</ele>
        <time>2016-07-18T13:24:27.000Z</time>
      </trkpt>
      <trkpt lat="44.35873" lon="6.39302">
        <ele>1638</ele>
        <time>2016-07-18T13:24:33.000Z</time>
      </trkpt>
      <trkpt lat="44.35867" lon="6.39299">
        <ele>1636.4000244141</ele>
        <time>2016-07-18T13:24:38.000Z</time>
      </trkpt>
      <trkpt lat="44.35866" lon="6.39297">
        <ele>1636</ele>
        <time>2016-07-18T13:24:39.000Z</time>
      </trkpt>
      <trkpt lat="44.35866" lon="6.39295">
        <ele>1635.5999755859</ele>
        <time>2016-07-18T13:24:41.000Z</time>
      </trkpt>
      <trkpt lat="44.35868" lon="6.39293">
        <ele>1635.4000244141</ele>
        <time>2016-07-18T13:24:47.000Z</time>
      </trkpt>
      <trkpt lat="44.35867" lon="6.39293">
        <ele>1635.4000244141</ele>
        <time>2016-07-18T13:24:54.000Z</time>
      </trkpt>
      <trkpt lat="44.35867" lon="6.39292">
        <ele>1635</ele>
        <time>2016-07-18T13:24:55.000Z</time>
      </trkpt>
      <trkpt lat="44.35865" lon="6.39285">
        <ele>1633.4000244141</ele>
        <time>2016-07-18T13:25:00.000Z</time>
      </trkpt>
      <trkpt lat="44.35866" lon="6.39277">
        <ele>1632</ele>
        <time>2016-07-18T13:25:05.000Z</time>
      </trkpt>
      <trkpt lat="44.35866" lon="6.39276">
        <ele>1631.5999755859</ele>
        <time>2016-07-18T13:25:06.000Z</time>
      </trkpt>
      <trkpt lat="44.35865" lon="6.39267">
        <ele>1630</ele>
        <time>2016-07-18T13:25:12.000Z</time>
      </trkpt>
      <trkpt lat="44.35865" lon="6.39266">
        <ele>1629.8000488281</ele>
        <time>2016-07-18T13:25:13.000Z</time>
      </trkpt>
      <trkpt lat="44.35868" lon="6.39258">
        <ele>1628.8000488281</ele>
        <time>2016-07-18T13:25:19.000Z</time>
      </trkpt>
      <trkpt lat="44.35869" lon="6.39249">
        <ele>1627.1999511719</ele>
        <time>2016-07-18T13:25:25.000Z</time>
      </trkpt>
      <trkpt lat="44.35868" lon="6.39245">
        <ele>1626</ele>
        <time>2016-07-18T13:25:29.000Z</time>
      </trkpt>
      <trkpt lat="44.35867" lon="6.39244">
        <ele>1625.8000488281</ele>
        <time>2016-07-18T13:25:30.000Z</time>
      </trkpt>
      <trkpt lat="44.35859" lon="6.3924">
        <ele>1623.5999755859</ele>
        <time>2016-07-18T13:25:38.000Z</time>
      </trkpt>
      <trkpt lat="44.35858" lon="6.3924">
        <ele>1623.1999511719</ele>
        <time>2016-07-18T13:25:39.000Z</time>
      </trkpt>
      <trkpt lat="44.35857" lon="6.39239">
        <ele>1622.8000488281</ele>
        <time>2016-07-18T13:25:40.000Z</time>
      </trkpt>
      <trkpt lat="44.35851" lon="6.39236">
        <ele>1620.8000488281</ele>
        <time>2016-07-18T13:25:47.000Z</time>
      </trkpt>
      <trkpt lat="44.35853" lon="6.39228">
        <ele>1620</ele>
        <time>2016-07-18T13:25:54.000Z</time>
      </trkpt>
      <trkpt lat="44.35858" lon="6.39221">
        <ele>1620.1999511719</ele>
        <time>2016-07-18T13:26:00.000Z</time>
      </trkpt>
      <trkpt lat="44.35862" lon="6.39212">
        <ele>1619</ele>
        <time>2016-07-18T13:26:07.000Z</time>
      </trkpt>
      <trkpt lat="44.35863" lon="6.39203">
        <ele>1617.1999511719</ele>
        <time>2016-07-18T13:26:12.000Z</time>
      </trkpt>
      <trkpt lat="44.35862" lon="6.39199">
        <ele>1616.4000244141</ele>
        <time>2016-07-18T13:26:14.000Z</time>
      </trkpt>
      <trkpt lat="44.35862" lon="6.39196">
        <ele>1615.8000488281</ele>
        <time>2016-07-18T13:26:17.000Z</time>
      </trkpt>
      <trkpt lat="44.35863" lon="6.3919">
        <ele>1614.8000488281</ele>
        <time>2016-07-18T13:26:21.000Z</time>
      </trkpt>
      <trkpt lat="44.35864" lon="6.3918">
        <ele>1613</ele>
        <time>2016-07-18T13:26:28.000Z</time>
      </trkpt>
      <trkpt lat="44.35866" lon="6.39176">
        <ele>1612.5999755859</ele>
        <time>2016-07-18T13:26:31.000Z</time>
      </trkpt>
      <trkpt lat="44.3587" lon="6.39169">
        <ele>1611.8000488281</ele>
        <time>2016-07-18T13:26:37.000Z</time>
      </trkpt>
      <trkpt lat="44.35874" lon="6.39164">
        <ele>1611.5999755859</ele>
        <time>2016-07-18T13:26:42.000Z</time>
      </trkpt>
      <trkpt lat="44.35877" lon="6.39158">
        <ele>1611</ele>
        <time>2016-07-18T13:26:47.000Z</time>
      </trkpt>
      <trkpt lat="44.35878" lon="6.39154">
        <ele>1610.4000244141</ele>
        <time>2016-07-18T13:26:50.000Z</time>
      </trkpt>
      <trkpt lat="44.3588" lon="6.39148">
        <ele>1609.4000244141</ele>
        <time>2016-07-18T13:26:55.000Z</time>
      </trkpt>
      <trkpt lat="44.35878" lon="6.39143">
        <ele>1608.5999755859</ele>
        <time>2016-07-18T13:27:01.000Z</time>
      </trkpt>
      <trkpt lat="44.35873" lon="6.3914">
        <ele>1607.5999755859</ele>
        <time>2016-07-18T13:27:07.000Z</time>
      </trkpt>
      <trkpt lat="44.35872" lon="6.39139">
        <ele>1607.4000244141</ele>
        <time>2016-07-18T13:27:08.000Z</time>
      </trkpt>
      <trkpt lat="44.35868" lon="6.39131">
        <ele>1606</ele>
        <time>2016-07-18T13:27:15.000Z</time>
      </trkpt>
      <trkpt lat="44.35867" lon="6.3913">
        <ele>1605.8000488281</ele>
        <time>2016-07-18T13:27:16.000Z</time>
      </trkpt>
      <trkpt lat="44.35863" lon="6.39126">
        <ele>1605</ele>
        <time>2016-07-18T13:27:21.000Z</time>
      </trkpt>
      <trkpt lat="44.35859" lon="6.39123">
        <ele>1604</ele>
        <time>2016-07-18T13:27:27.000Z</time>
      </trkpt>
      <trkpt lat="44.35857" lon="6.39121">
        <ele>1603.5999755859</ele>
        <time>2016-07-18T13:27:29.000Z</time>
      </trkpt>
      <trkpt lat="44.35856" lon="6.39118">
        <ele>1603.1999511719</ele>
        <time>2016-07-18T13:27:32.000Z</time>
      </trkpt>
      <trkpt lat="44.35853" lon="6.39113">
        <ele>1602.4000244141</ele>
        <time>2016-07-18T13:27:36.000Z</time>
      </trkpt>
      <trkpt lat="44.35851" lon="6.39116">
        <ele>1602.1999511719</ele>
        <time>2016-07-18T13:27:44.000Z</time>
      </trkpt>
      <trkpt lat="44.3585" lon="6.39117">
        <ele>1602.1999511719</ele>
        <time>2016-07-18T13:27:45.000Z</time>
      </trkpt>
      <trkpt lat="44.35845" lon="6.39123">
        <ele>1601.8000488281</ele>
        <time>2016-07-18T13:27:50.000Z</time>
      </trkpt>
      <trkpt lat="44.35842" lon="6.39125">
        <ele>1601.5999755859</ele>
        <time>2016-07-18T13:27:53.000Z</time>
      </trkpt>
      <trkpt lat="44.35831" lon="6.39131">
        <ele>1600.5999755859</ele>
        <time>2016-07-18T13:28:02.000Z</time>
      </trkpt>
      <trkpt lat="44.35828" lon="6.39132">
        <ele>1600.4000244141</ele>
        <time>2016-07-18T13:28:05.000Z</time>
      </trkpt>
      <trkpt lat="44.35826" lon="6.39132">
        <ele>1600.1999511719</ele>
        <time>2016-07-18T13:28:07.000Z</time>
      </trkpt>
      <trkpt lat="44.35823" lon="6.39132">
        <ele>1599.8000488281</ele>
        <time>2016-07-18T13:28:11.000Z</time>
      </trkpt>
      <trkpt lat="44.35819" lon="6.39135">
        <ele>1599.5999755859</ele>
        <time>2016-07-18T13:28:14.000Z</time>
      </trkpt>
      <trkpt lat="44.35814" lon="6.39144">
        <ele>1599.8000488281</ele>
        <time>2016-07-18T13:28:21.000Z</time>
      </trkpt>
      <trkpt lat="44.35813" lon="6.39145">
        <ele>1600</ele>
        <time>2016-07-18T13:28:22.000Z</time>
      </trkpt>
      <trkpt lat="44.35809" lon="6.39157">
        <ele>1601.4000244141</ele>
        <time>2016-07-18T13:28:30.000Z</time>
      </trkpt>
      <trkpt lat="44.35808" lon="6.39158">
        <ele>1601.4000244141</ele>
        <time>2016-07-18T13:28:31.000Z</time>
      </trkpt>
      <trkpt lat="44.35806" lon="6.39162">
        <ele>1602</ele>
        <time>2016-07-18T13:28:34.000Z</time>
      </trkpt>
      <trkpt lat="44.35805" lon="6.39165">
        <ele>1602.4000244141</ele>
        <time>2016-07-18T13:28:42.000Z</time>
      </trkpt>
      <trkpt lat="44.358" lon="6.39167">
        <ele>1602.1999511719</ele>
        <time>2016-07-18T13:29:23.000Z</time>
      </trkpt>
      <trkpt lat="44.35797" lon="6.39164">
        <ele>1601</ele>
        <time>2016-07-18T13:30:37.000Z</time>
      </trkpt>
      <trkpt lat="44.35796" lon="6.39162">
        <ele>1600.5999755859</ele>
        <time>2016-07-18T13:30:55.000Z</time>
      </trkpt>
      <trkpt lat="44.35794" lon="6.39165">
        <ele>1600.5999755859</ele>
        <time>2016-07-18T13:31:05.000Z</time>
      </trkpt>
      <trkpt lat="44.35797" lon="6.39164">
        <ele>1601.1999511719</ele>
        <time>2016-07-18T13:31:56.000Z</time>
      </trkpt>
      <trkpt lat="44.35797" lon="6.39165">
        <ele>1601.1999511719</ele>
        <time>2016-07-18T13:32:06.000Z</time>
      </trkpt>
      <trkpt lat="44.35795" lon="6.39167">
        <ele>1601</ele>
        <time>2016-07-18T13:33:14.000Z</time>
      </trkpt>
      <trkpt lat="44.35799" lon="6.39159">
        <ele>1600.4000244141</ele>
        <time>2016-07-18T13:33:57.000Z</time>
      </trkpt>
      <trkpt lat="44.35795" lon="6.3916">
        <ele>1600.1999511719</ele>
        <time>2016-07-18T13:34:08.000Z</time>
      </trkpt>
      <trkpt lat="44.35795" lon="6.39162">
        <ele>1600.4000244141</ele>
        <time>2016-07-18T13:34:09.000Z</time>
      </trkpt>
      <trkpt lat="44.35793" lon="6.39164">
        <ele>1600.1999511719</ele>
        <time>2016-07-18T13:34:12.000Z</time>
      </trkpt>
      <trkpt lat="44.35788" lon="6.39166">
        <ele>1599.1999511719</ele>
        <time>2016-07-18T13:34:16.000Z</time>
      </trkpt>
      <trkpt lat="44.35779" lon="6.39166">
        <ele>1597.4000244141</ele>
        <time>2016-07-18T13:34:23.000Z</time>
      </trkpt>
      <trkpt lat="44.35777" lon="6.39167">
        <ele>1596.8000488281</ele>
        <time>2016-07-18T13:34:25.000Z</time>
      </trkpt>
      <trkpt lat="44.35771" lon="6.39167">
        <ele>1595.5999755859</ele>
        <time>2016-07-18T13:34:30.000Z</time>
      </trkpt>
      <trkpt lat="44.35764" lon="6.39168">
        <ele>1594.4000244141</ele>
        <time>2016-07-18T13:34:35.000Z</time>
      </trkpt>
      <trkpt lat="44.35756" lon="6.39165">
        <ele>1592.1999511719</ele>
        <time>2016-07-18T13:34:41.000Z</time>
      </trkpt>
      <trkpt lat="44.3575" lon="6.39165">
        <ele>1590.8000488281</ele>
        <time>2016-07-18T13:34:45.000Z</time>
      </trkpt>
      <trkpt lat="44.35748" lon="6.39164">
        <ele>1590.5999755859</ele>
        <time>2016-07-18T13:34:46.000Z</time>
      </trkpt>
      <trkpt lat="44.35741" lon="6.39164">
        <ele>1588.8000488281</ele>
        <time>2016-07-18T13:34:52.000Z</time>
      </trkpt>
      <trkpt lat="44.35739" lon="6.39163">
        <ele>1588.4000244141</ele>
        <time>2016-07-18T13:34:53.000Z</time>
      </trkpt>
      <trkpt lat="44.35736" lon="6.39163">
        <ele>1587.5999755859</ele>
        <time>2016-07-18T13:34:55.000Z</time>
      </trkpt>
      <trkpt lat="44.35726" lon="6.39168">
        <ele>1585.8000488281</ele>
        <time>2016-07-18T13:35:02.000Z</time>
      </trkpt>
      <trkpt lat="44.35717" lon="6.39177">
        <ele>1585</ele>
        <time>2016-07-18T13:35:10.000Z</time>
      </trkpt>
      <trkpt lat="44.35716" lon="6.39178">
        <ele>1584.8000488281</ele>
        <time>2016-07-18T13:35:11.000Z</time>
      </trkpt>
      <trkpt lat="44.35713" lon="6.3918">
        <ele>1584.4000244141</ele>
        <time>2016-07-18T13:35:14.000Z</time>
      </trkpt>
      <trkpt lat="44.35706" lon="6.39188">
        <ele>1583.8000488281</ele>
        <time>2016-07-18T13:35:21.000Z</time>
      </trkpt>
      <trkpt lat="44.35701" lon="6.39196">
        <ele>1583.1999511719</ele>
        <time>2016-07-18T13:35:27.000Z</time>
      </trkpt>
      <trkpt lat="44.35698" lon="6.39201">
        <ele>1583.1999511719</ele>
        <time>2016-07-18T13:35:31.000Z</time>
      </trkpt>
      <trkpt lat="44.35688" lon="6.39212">
        <ele>1582</ele>
        <time>2016-07-18T13:35:40.000Z</time>
      </trkpt>
      <trkpt lat="44.35687" lon="6.39213">
        <ele>1582</ele>
        <time>2016-07-18T13:35:41.000Z</time>
      </trkpt>
      <trkpt lat="44.35671" lon="6.39206">
        <ele>1577.8000488281</ele>
        <time>2016-07-18T13:35:53.000Z</time>
      </trkpt>
      <trkpt lat="44.35661" lon="6.392">
        <ele>1575.4000244141</ele>
        <time>2016-07-18T13:36:00.000Z</time>
      </trkpt>
      <trkpt lat="44.35652" lon="6.39192">
        <ele>1572.5999755859</ele>
        <time>2016-07-18T13:36:07.000Z</time>
      </trkpt>
      <trkpt lat="44.35642" lon="6.39185">
        <ele>1570</ele>
        <time>2016-07-18T13:36:14.000Z</time>
      </trkpt>
      <trkpt lat="44.35633" lon="6.39182">
        <ele>1568</ele>
        <time>2016-07-18T13:36:22.000Z</time>
      </trkpt>
      <trkpt lat="44.35622" lon="6.39186">
        <ele>1566.5999755859</ele>
        <time>2016-07-18T13:36:30.000Z</time>
      </trkpt>
      <trkpt lat="44.3561" lon="6.39188">
        <ele>1564.8000488281</ele>
        <time>2016-07-18T13:36:38.000Z</time>
      </trkpt>
      <trkpt lat="44.35599" lon="6.39187">
        <ele>1562.4000244141</ele>
        <time>2016-07-18T13:36:45.000Z</time>
      </trkpt>
      <trkpt lat="44.3559" lon="6.3919">
        <ele>1560.8000488281</ele>
        <time>2016-07-18T13:36:51.000Z</time>
      </trkpt>
      <trkpt lat="44.35588" lon="6.39199">
        <ele>1561.5999755859</ele>
        <time>2016-07-18T13:36:56.000Z</time>
      </trkpt>
      <trkpt lat="44.35588" lon="6.39218">
        <ele>1564.5999755859</ele>
        <time>2016-07-18T13:37:05.000Z</time>
      </trkpt>
      <trkpt lat="44.3559" lon="6.39233">
        <ele>1567.1999511719</ele>
        <time>2016-07-18T13:37:12.000Z</time>
      </trkpt>
      <trkpt lat="44.35588" lon="6.39247">
        <ele>1569</ele>
        <time>2016-07-18T13:37:19.000Z</time>
      </trkpt>
      <trkpt lat="44.35582" lon="6.39262">
        <ele>1569.8000488281</ele>
        <time>2016-07-18T13:37:27.000Z</time>
      </trkpt>
      <trkpt lat="44.35559" lon="6.39267">
        <ele>1566.1999511719</ele>
        <time>2016-07-18T13:37:48.000Z</time>
      </trkpt>
      <trkpt lat="44.35557" lon="6.39266">
        <ele>1566</ele>
        <time>2016-07-18T13:37:49.000Z</time>
      </trkpt>
      <trkpt lat="44.35544" lon="6.39262">
        <ele>1563.4000244141</ele>
        <time>2016-07-18T13:37:59.000Z</time>
      </trkpt>
      <trkpt lat="44.35535" lon="6.39263">
        <ele>1562.5999755859</ele>
        <time>2016-07-18T13:38:05.000Z</time>
      </trkpt>
      <trkpt lat="44.35521" lon="6.3927">
        <ele>1561.4000244141</ele>
        <time>2016-07-18T13:38:16.000Z</time>
      </trkpt>
      <trkpt lat="44.35513" lon="6.39282">
        <ele>1562.4000244141</ele>
        <time>2016-07-18T13:38:24.000Z</time>
      </trkpt>
      <trkpt lat="44.35507" lon="6.39297">
        <ele>1564.4000244141</ele>
        <time>2016-07-18T13:38:33.000Z</time>
      </trkpt>
      <trkpt lat="44.35502" lon="6.39306">
        <ele>1565.5999755859</ele>
        <time>2016-07-18T13:38:39.000Z</time>
      </trkpt>
      <trkpt lat="44.35486" lon="6.39318">
        <ele>1564.1999511719</ele>
        <time>2016-07-18T13:38:53.000Z</time>
      </trkpt>
      <trkpt lat="44.35475" lon="6.39323">
        <ele>1562.5999755859</ele>
        <time>2016-07-18T13:39:02.000Z</time>
      </trkpt>
      <trkpt lat="44.35467" lon="6.39328">
        <ele>1562</ele>
        <time>2016-07-18T13:39:08.000Z</time>
      </trkpt>
      <trkpt lat="44.35456" lon="6.39339">
        <ele>1561.5999755859</ele>
        <time>2016-07-18T13:39:17.000Z</time>
      </trkpt>
      <trkpt lat="44.35443" lon="6.39348">
        <ele>1560.5999755859</ele>
        <time>2016-07-18T13:39:27.000Z</time>
      </trkpt>
      <trkpt lat="44.35431" lon="6.3936">
        <ele>1560</ele>
        <time>2016-07-18T13:39:36.000Z</time>
      </trkpt>
      <trkpt lat="44.35418" lon="6.39374">
        <ele>1559.1999511719</ele>
        <time>2016-07-18T13:39:47.000Z</time>
      </trkpt>
      <trkpt lat="44.35411" lon="6.39384">
        <ele>1558.1999511719</ele>
        <time>2016-07-18T13:39:56.000Z</time>
      </trkpt>
      <trkpt lat="44.35407" lon="6.39389">
        <ele>1557.5999755859</ele>
        <time>2016-07-18T13:40:04.000Z</time>
      </trkpt>
      <trkpt lat="44.35399" lon="6.39392">
        <ele>1555.5999755859</ele>
        <time>2016-07-18T13:40:10.000Z</time>
      </trkpt>
      <trkpt lat="44.35391" lon="6.39395">
        <ele>1553.1999511719</ele>
        <time>2016-07-18T13:40:17.000Z</time>
      </trkpt>
      <trkpt lat="44.35387" lon="6.394">
        <ele>1552.1999511719</ele>
        <time>2016-07-18T13:40:22.000Z</time>
      </trkpt>
      <trkpt lat="44.35382" lon="6.39404">
        <ele>1550.8000488281</ele>
        <time>2016-07-18T13:40:26.000Z</time>
      </trkpt>
      <trkpt lat="44.35376" lon="6.39408">
        <ele>1548.8000488281</ele>
        <time>2016-07-18T13:40:31.000Z</time>
      </trkpt>
      <trkpt lat="44.35372" lon="6.39415">
        <ele>1547.4000244141</ele>
        <time>2016-07-18T13:40:37.000Z</time>
      </trkpt>
      <trkpt lat="44.35369" lon="6.39418">
        <ele>1546.5999755859</ele>
        <time>2016-07-18T13:40:40.000Z</time>
      </trkpt>
      <trkpt lat="44.35356" lon="6.39429">
        <ele>1543</ele>
        <time>2016-07-18T13:40:51.000Z</time>
      </trkpt>
      <trkpt lat="44.35356" lon="6.39428">
        <ele>1542.8000488281</ele>
        <time>2016-07-18T13:40:52.000Z</time>
      </trkpt>
      <trkpt lat="44.35355" lon="6.39429">
        <ele>1542.8000488281</ele>
        <time>2016-07-18T13:40:53.000Z</time>
      </trkpt>
      <trkpt lat="44.35352" lon="6.39433">
        <ele>1541.8000488281</ele>
        <time>2016-07-18T13:40:58.000Z</time>
      </trkpt>
      <trkpt lat="44.35351" lon="6.39436">
        <ele>1541.4000244141</ele>
        <time>2016-07-18T13:41:00.000Z</time>
      </trkpt>
      <trkpt lat="44.35349" lon="6.39439">
        <ele>1540.8000488281</ele>
        <time>2016-07-18T13:41:07.000Z</time>
      </trkpt>
      <trkpt lat="44.35346" lon="6.39443">
        <ele>1540</ele>
        <time>2016-07-18T13:41:12.000Z</time>
      </trkpt>
      <trkpt lat="44.35341" lon="6.39449">
        <ele>1538.5999755859</ele>
        <time>2016-07-18T13:41:17.000Z</time>
      </trkpt>
      <trkpt lat="44.35336" lon="6.39455">
        <ele>1537.4000244141</ele>
        <time>2016-07-18T13:41:22.000Z</time>
      </trkpt>
      <trkpt lat="44.35332" lon="6.39459">
        <ele>1536.4000244141</ele>
        <time>2016-07-18T13:41:27.000Z</time>
      </trkpt>
      <trkpt lat="44.35331" lon="6.3946">
        <ele>1536.1999511719</ele>
        <time>2016-07-18T13:41:28.000Z</time>
      </trkpt>
      <trkpt lat="44.35329" lon="6.39463">
        <ele>1535.8000488281</ele>
        <time>2016-07-18T13:41:30.000Z</time>
      </trkpt>
      <trkpt lat="44.35324" lon="6.39468">
        <ele>1534.8000488281</ele>
        <time>2016-07-18T13:41:35.000Z</time>
      </trkpt>
      <trkpt lat="44.35319" lon="6.39479">
        <ele>1534</ele>
        <time>2016-07-18T13:41:42.000Z</time>
      </trkpt>
      <trkpt lat="44.35318" lon="6.39481">
        <ele>1533.8000488281</ele>
        <time>2016-07-18T13:41:43.000Z</time>
      </trkpt>
      <trkpt lat="44.35312" lon="6.39486">
        <ele>1531.4000244141</ele>
        <time>2016-07-18T13:41:49.000Z</time>
      </trkpt>
      <trkpt lat="44.35305" lon="6.39489">
        <ele>1528.8000488281</ele>
        <time>2016-07-18T13:41:55.000Z</time>
      </trkpt>
      <trkpt lat="44.35299" lon="6.39491">
        <ele>1527</ele>
        <time>2016-07-18T13:41:59.000Z</time>
      </trkpt>
      <trkpt lat="44.35292" lon="6.3949">
        <ele>1525.1999511719</ele>
        <time>2016-07-18T13:42:04.000Z</time>
      </trkpt>
      <trkpt lat="44.35286" lon="6.39488">
        <ele>1524.1999511719</ele>
        <time>2016-07-18T13:42:08.000Z</time>
      </trkpt>
      <trkpt lat="44.35279" lon="6.39484">
        <ele>1523.1999511719</ele>
        <time>2016-07-18T13:42:15.000Z</time>
      </trkpt>
      <trkpt lat="44.35272" lon="6.39476">
        <ele>1522</ele>
        <time>2016-07-18T13:42:23.000Z</time>
      </trkpt>
      <trkpt lat="44.35269" lon="6.39472">
        <ele>1521.5999755859</ele>
        <time>2016-07-18T13:42:26.000Z</time>
      </trkpt>
      <trkpt lat="44.35265" lon="6.39464">
        <ele>1520.5999755859</ele>
        <time>2016-07-18T13:42:32.000Z</time>
      </trkpt>
      <trkpt lat="44.35265" lon="6.39463">
        <ele>1520.5999755859</ele>
        <time>2016-07-18T13:42:34.000Z</time>
      </trkpt>
      <trkpt lat="44.3526" lon="6.39454">
        <ele>1519.4000244141</ele>
        <time>2016-07-18T13:42:52.000Z</time>
      </trkpt>
      <trkpt lat="44.35257" lon="6.39444">
        <ele>1518.4000244141</ele>
        <time>2016-07-18T13:42:58.000Z</time>
      </trkpt>
      <trkpt lat="44.35256" lon="6.39441">
        <ele>1518.1999511719</ele>
        <time>2016-07-18T13:43:00.000Z</time>
      </trkpt>
      <trkpt lat="44.35252" lon="6.39434">
        <ele>1517.1999511719</ele>
        <time>2016-07-18T13:43:06.000Z</time>
      </trkpt>
      <trkpt lat="44.35247" lon="6.39428">
        <ele>1516.1999511719</ele>
        <time>2016-07-18T13:43:11.000Z</time>
      </trkpt>
      <trkpt lat="44.35241" lon="6.39422">
        <ele>1515</ele>
        <time>2016-07-18T13:43:17.000Z</time>
      </trkpt>
      <trkpt lat="44.35235" lon="6.39415">
        <ele>1513.5999755859</ele>
        <time>2016-07-18T13:43:24.000Z</time>
      </trkpt>
      <trkpt lat="44.3523" lon="6.3941">
        <ele>1512.5999755859</ele>
        <time>2016-07-18T13:43:29.000Z</time>
      </trkpt>
      <trkpt lat="44.35229" lon="6.39409">
        <ele>1512.4000244141</ele>
        <time>2016-07-18T13:43:30.000Z</time>
      </trkpt>
      <trkpt lat="44.35225" lon="6.39406">
        <ele>1511.8000488281</ele>
        <time>2016-07-18T13:43:33.000Z</time>
      </trkpt>
      <trkpt lat="44.35218" lon="6.39402">
        <ele>1510.4000244141</ele>
        <time>2016-07-18T13:43:40.000Z</time>
      </trkpt>
      <trkpt lat="44.35211" lon="6.394">
        <ele>1509.1999511719</ele>
        <time>2016-07-18T13:43:46.000Z</time>
      </trkpt>
      <trkpt lat="44.35208" lon="6.39398">
        <ele>1508.5999755859</ele>
        <time>2016-07-18T13:43:48.000Z</time>
      </trkpt>
      <trkpt lat="44.35203" lon="6.39396">
        <ele>1507.5999755859</ele>
        <time>2016-07-18T13:43:53.000Z</time>
      </trkpt>
      <trkpt lat="44.35202" lon="6.39396">
        <ele>1507.4000244141</ele>
        <time>2016-07-18T13:43:54.000Z</time>
      </trkpt>
      <trkpt lat="44.35196" lon="6.39392">
        <ele>1505.8000488281</ele>
        <time>2016-07-18T13:44:00.000Z</time>
      </trkpt>
      <trkpt lat="44.35195" lon="6.39392">
        <ele>1505.5999755859</ele>
        <time>2016-07-18T13:44:01.000Z</time>
      </trkpt>
      <trkpt lat="44.35192" lon="6.3939">
        <ele>1504.8000488281</ele>
        <time>2016-07-18T13:44:04.000Z</time>
      </trkpt>
      <trkpt lat="44.35188" lon="6.39389">
        <ele>1503.5999755859</ele>
        <time>2016-07-18T13:44:08.000Z</time>
      </trkpt>
      <trkpt lat="44.35186" lon="6.39389">
        <ele>1503</ele>
        <time>2016-07-18T13:44:10.000Z</time>
      </trkpt>
      <trkpt lat="44.35179" lon="6.39391">
        <ele>1501</ele>
        <time>2016-07-18T13:44:16.000Z</time>
      </trkpt>
      <trkpt lat="44.35172" lon="6.39392">
        <ele>1499</ele>
        <time>2016-07-18T13:44:21.000Z</time>
      </trkpt>
      <trkpt lat="44.35162" lon="6.39389">
        <ele>1495.8000488281</ele>
        <time>2016-07-18T13:44:28.000Z</time>
      </trkpt>
      <trkpt lat="44.3516" lon="6.39388">
        <ele>1495.1999511719</ele>
        <time>2016-07-18T13:44:30.000Z</time>
      </trkpt>
      <trkpt lat="44.3515" lon="6.39386">
        <ele>1492</ele>
        <time>2016-07-18T13:44:37.000Z</time>
      </trkpt>
      <trkpt lat="44.35135" lon="6.39391">
        <ele>1487.5999755859</ele>
        <time>2016-07-18T13:44:49.000Z</time>
      </trkpt>
      <trkpt lat="44.35131" lon="6.39389">
        <ele>1486.5999755859</ele>
        <time>2016-07-18T13:44:52.000Z</time>
      </trkpt>
      <trkpt lat="44.35127" lon="6.3938">
        <ele>1484.8000488281</ele>
        <time>2016-07-18T13:44:59.000Z</time>
      </trkpt>
      <trkpt lat="44.35125" lon="6.39373">
        <ele>1483.5999755859</ele>
        <time>2016-07-18T13:45:05.000Z</time>
      </trkpt>
      <trkpt lat="44.35121" lon="6.39363">
        <ele>1482</ele>
        <time>2016-07-18T13:45:12.000Z</time>
      </trkpt>
      <trkpt lat="44.35118" lon="6.39353">
        <ele>1480.5999755859</ele>
        <time>2016-07-18T13:45:18.000Z</time>
      </trkpt>
      <trkpt lat="44.35116" lon="6.39344">
        <ele>1479.1999511719</ele>
        <time>2016-07-18T13:45:24.000Z</time>
      </trkpt>
      <trkpt lat="44.35115" lon="6.39341">
        <ele>1478.8000488281</ele>
        <time>2016-07-18T13:45:26.000Z</time>
      </trkpt>
      <trkpt lat="44.35112" lon="6.39332">
        <ele>1477.1999511719</ele>
        <time>2016-07-18T13:45:32.000Z</time>
      </trkpt>
      <trkpt lat="44.35108" lon="6.39319">
        <ele>1475.1999511719</ele>
        <time>2016-07-18T13:45:40.000Z</time>
      </trkpt>
      <trkpt lat="44.35104" lon="6.39306">
        <ele>1473</ele>
        <time>2016-07-18T13:45:49.000Z</time>
      </trkpt>
      <trkpt lat="44.35102" lon="6.39294">
        <ele>1471.1999511719</ele>
        <time>2016-07-18T13:45:56.000Z</time>
      </trkpt>
      <trkpt lat="44.35103" lon="6.39277">
        <ele>1469.5999755859</ele>
        <time>2016-07-18T13:46:06.000Z</time>
      </trkpt>
      <trkpt lat="44.35104" lon="6.39274">
        <ele>1469.4000244141</ele>
        <time>2016-07-18T13:46:08.000Z</time>
      </trkpt>
      <trkpt lat="44.35107" lon="6.39266">
        <ele>1469.5999755859</ele>
        <time>2016-07-18T13:46:14.000Z</time>
      </trkpt>
      <trkpt lat="44.35108" lon="6.39265">
        <ele>1469.5999755859</ele>
        <time>2016-07-18T13:46:15.000Z</time>
      </trkpt>
      <trkpt lat="44.35112" lon="6.39255">
        <ele>1470</ele>
        <time>2016-07-18T13:46:22.000Z</time>
      </trkpt>
      <trkpt lat="44.35113" lon="6.39254">
        <ele>1470</ele>
        <time>2016-07-18T13:46:23.000Z</time>
      </trkpt>
      <trkpt lat="44.35109" lon="6.39251">
        <ele>1468.5999755859</ele>
        <time>2016-07-18T13:46:28.000Z</time>
      </trkpt>
      <trkpt lat="44.35108" lon="6.39251">
        <ele>1468.1999511719</ele>
        <time>2016-07-18T13:46:29.000Z</time>
      </trkpt>
      <trkpt lat="44.35091" lon="6.39267">
        <ele>1464.8000488281</ele>
        <time>2016-07-18T13:46:49.000Z</time>
      </trkpt>
      <trkpt lat="44.35087" lon="6.39279">
        <ele>1465</ele>
        <time>2016-07-18T13:46:57.000Z</time>
      </trkpt>
      <trkpt lat="44.35084" lon="6.39294">
        <ele>1465.4000244141</ele>
        <time>2016-07-18T13:47:06.000Z</time>
      </trkpt>
      <trkpt lat="44.3508" lon="6.39306">
        <ele>1465.1999511719</ele>
        <time>2016-07-18T13:47:14.000Z</time>
      </trkpt>
      <trkpt lat="44.35079" lon="6.39309">
        <ele>1465</ele>
        <time>2016-07-18T13:47:19.000Z</time>
      </trkpt>
      <trkpt lat="44.35077" lon="6.39315">
        <ele>1465</ele>
        <time>2016-07-18T13:47:25.000Z</time>
      </trkpt>
      <trkpt lat="44.35069" lon="6.39335">
        <ele>1463.5999755859</ele>
        <time>2016-07-18T13:47:39.000Z</time>
      </trkpt>
      <trkpt lat="44.35067" lon="6.39336">
        <ele>1463</ele>
        <time>2016-07-18T13:47:41.000Z</time>
      </trkpt>
      <trkpt lat="44.35067" lon="6.3933">
        <ele>1462.5999755859</ele>
        <time>2016-07-18T13:47:44.000Z</time>
      </trkpt>
      <trkpt lat="44.35063" lon="6.39318">
        <ele>1460.5999755859</ele>
        <time>2016-07-18T13:47:52.000Z</time>
      </trkpt>
      <trkpt lat="44.35062" lon="6.39314">
        <ele>1460.1999511719</ele>
        <time>2016-07-18T13:47:54.000Z</time>
      </trkpt>
      <trkpt lat="44.35062" lon="6.39301">
        <ele>1458.8000488281</ele>
        <time>2016-07-18T13:48:03.000Z</time>
      </trkpt>
      <trkpt lat="44.3506" lon="6.39289">
        <ele>1457.1999511719</ele>
        <time>2016-07-18T13:48:10.000Z</time>
      </trkpt>
      <trkpt lat="44.35059" lon="6.39286">
        <ele>1456.8000488281</ele>
        <time>2016-07-18T13:48:12.000Z</time>
      </trkpt>
      <trkpt lat="44.35059" lon="6.3928">
        <ele>1456</ele>
        <time>2016-07-18T13:48:16.000Z</time>
      </trkpt>
      <trkpt lat="44.35056" lon="6.39271">
        <ele>1454.4000244141</ele>
        <time>2016-07-18T13:48:23.000Z</time>
      </trkpt>
      <trkpt lat="44.35055" lon="6.39265">
        <ele>1453.4000244141</ele>
        <time>2016-07-18T13:48:28.000Z</time>
      </trkpt>
      <trkpt lat="44.35054" lon="6.39261">
        <ele>1453</ele>
        <time>2016-07-18T13:48:30.000Z</time>
      </trkpt>
      <trkpt lat="44.35049" lon="6.39251">
        <ele>1450.5999755859</ele>
        <time>2016-07-18T13:48:37.000Z</time>
      </trkpt>
      <trkpt lat="44.35046" lon="6.39241">
        <ele>1448.5999755859</ele>
        <time>2016-07-18T13:48:44.000Z</time>
      </trkpt>
      <trkpt lat="44.35044" lon="6.3923">
        <ele>1446.8000488281</ele>
        <time>2016-07-18T13:48:51.000Z</time>
      </trkpt>
      <trkpt lat="44.35045" lon="6.39216">
        <ele>1446.4000244141</ele>
        <time>2016-07-18T13:48:59.000Z</time>
      </trkpt>
      <trkpt lat="44.35047" lon="6.3921">
        <ele>1446.4000244141</ele>
        <time>2016-07-18T13:49:03.000Z</time>
      </trkpt>
      <trkpt lat="44.3505" lon="6.39199">
        <ele>1447</ele>
        <time>2016-07-18T13:49:10.000Z</time>
      </trkpt>
      <trkpt lat="44.35052" lon="6.3919">
        <ele>1447</ele>
        <time>2016-07-18T13:49:16.000Z</time>
      </trkpt>
      <trkpt lat="44.35054" lon="6.39184">
        <ele>1447.1999511719</ele>
        <time>2016-07-18T13:49:20.000Z</time>
      </trkpt>
      <trkpt lat="44.35058" lon="6.3918">
        <ele>1447.8000488281</ele>
        <time>2016-07-18T13:49:24.000Z</time>
      </trkpt>
      <trkpt lat="44.3506" lon="6.3917">
        <ele>1447.4000244141</ele>
        <time>2016-07-18T13:49:30.000Z</time>
      </trkpt>
      <trkpt lat="44.3506" lon="6.39168">
        <ele>1447.1999511719</ele>
        <time>2016-07-18T13:49:32.000Z</time>
      </trkpt>
      <trkpt lat="44.35057" lon="6.39165">
        <ele>1446</ele>
        <time>2016-07-18T13:49:35.000Z</time>
      </trkpt>
      <trkpt lat="44.35053" lon="6.39168">
        <ele>1445.4000244141</ele>
        <time>2016-07-18T13:49:40.000Z</time>
      </trkpt>
      <trkpt lat="44.35045" lon="6.39169">
        <ele>1443.5999755859</ele>
        <time>2016-07-18T13:49:48.000Z</time>
      </trkpt>
      <trkpt lat="44.35038" lon="6.39174">
        <ele>1441.5999755859</ele>
        <time>2016-07-18T13:49:56.000Z</time>
      </trkpt>
      <trkpt lat="44.35037" lon="6.39174">
        <ele>1441.4000244141</ele>
        <time>2016-07-18T13:49:57.000Z</time>
      </trkpt>
      <trkpt lat="44.35032" lon="6.39176">
        <ele>1440.1999511719</ele>
        <time>2016-07-18T13:50:02.000Z</time>
      </trkpt>
      <trkpt lat="44.35027" lon="6.39179">
        <ele>1438.8000488281</ele>
        <time>2016-07-18T13:50:08.000Z</time>
      </trkpt>
      <trkpt lat="44.35024" lon="6.39181">
        <ele>1438</ele>
        <time>2016-07-18T13:50:11.000Z</time>
      </trkpt>
      <trkpt lat="44.35018" lon="6.39187">
        <ele>1436</ele>
        <time>2016-07-18T13:50:19.000Z</time>
      </trkpt>
      <trkpt lat="44.35015" lon="6.39189">
        <ele>1435.4000244141</ele>
        <time>2016-07-18T13:50:21.000Z</time>
      </trkpt>
      <trkpt lat="44.35008" lon="6.39194">
        <ele>1433.4000244141</ele>
        <time>2016-07-18T13:50:28.000Z</time>
      </trkpt>
      <trkpt lat="44.35006" lon="6.39196">
        <ele>1432.8000488281</ele>
        <time>2016-07-18T13:50:30.000Z</time>
      </trkpt>
      <trkpt lat="44.35001" lon="6.39192">
        <ele>1431</ele>
        <time>2016-07-18T13:50:36.000Z</time>
      </trkpt>
      <trkpt lat="44.34998" lon="6.39189">
        <ele>1429.8000488281</ele>
        <time>2016-07-18T13:50:40.000Z</time>
      </trkpt>
      <trkpt lat="44.34996" lon="6.39183">
        <ele>1428.8000488281</ele>
        <time>2016-07-18T13:50:45.000Z</time>
      </trkpt>
      <trkpt lat="44.34992" lon="6.39176">
        <ele>1427</ele>
        <time>2016-07-18T13:50:52.000Z</time>
      </trkpt>
      <trkpt lat="44.3499" lon="6.39173">
        <ele>1426.1999511719</ele>
        <time>2016-07-18T13:50:55.000Z</time>
      </trkpt>
      <trkpt lat="44.34988" lon="6.39168">
        <ele>1425.4000244141</ele>
        <time>2016-07-18T13:51:00.000Z</time>
      </trkpt>
      <trkpt lat="44.34987" lon="6.39167">
        <ele>1425</ele>
        <time>2016-07-18T13:51:02.000Z</time>
      </trkpt>
      <trkpt lat="44.34982" lon="6.3916">
        <ele>1423</ele>
        <time>2016-07-18T13:51:09.000Z</time>
      </trkpt>
      <trkpt lat="44.34982" lon="6.39159">
        <ele>1422.5999755859</ele>
        <time>2016-07-18T13:51:10.000Z</time>
      </trkpt>
      <trkpt lat="44.34977" lon="6.39152">
        <ele>1420.8000488281</ele>
        <time>2016-07-18T13:51:16.000Z</time>
      </trkpt>
      <trkpt lat="44.34976" lon="6.3915">
        <ele>1420.4000244141</ele>
        <time>2016-07-18T13:51:17.000Z</time>
      </trkpt>
      <trkpt lat="44.34975" lon="6.39139">
        <ele>1419.5999755859</ele>
        <time>2016-07-18T13:51:24.000Z</time>
      </trkpt>
      <trkpt lat="44.34976" lon="6.39133">
        <ele>1419.4000244141</ele>
        <time>2016-07-18T13:51:28.000Z</time>
      </trkpt>
      <trkpt lat="44.34977" lon="6.39126">
        <ele>1419.4000244141</ele>
        <time>2016-07-18T13:51:32.000Z</time>
      </trkpt>
      <trkpt lat="44.34977" lon="6.39119">
        <ele>1419</ele>
        <time>2016-07-18T13:51:37.000Z</time>
      </trkpt>
      <trkpt lat="44.34977" lon="6.39113">
        <ele>1419</ele>
        <time>2016-07-18T13:51:41.000Z</time>
      </trkpt>
      <trkpt lat="44.34977" lon="6.391">
        <ele>1418</ele>
        <time>2016-07-18T13:51:49.000Z</time>
      </trkpt>
      <trkpt lat="44.34974" lon="6.39089">
        <ele>1416.5999755859</ele>
        <time>2016-07-18T13:51:56.000Z</time>
      </trkpt>
      <trkpt lat="44.34972" lon="6.39084">
        <ele>1415.5999755859</ele>
        <time>2016-07-18T13:51:59.000Z</time>
      </trkpt>
      <trkpt lat="44.34969" lon="6.39078">
        <ele>1414.1999511719</ele>
        <time>2016-07-18T13:52:03.000Z</time>
      </trkpt>
      <trkpt lat="44.34964" lon="6.39068">
        <ele>1412</ele>
        <time>2016-07-18T13:52:10.000Z</time>
      </trkpt>
      <trkpt lat="44.34963" lon="6.39053">
        <ele>1410.4000244141</ele>
        <time>2016-07-18T13:52:18.000Z</time>
      </trkpt>
      <trkpt lat="44.34965" lon="6.39039">
        <ele>1409.8000488281</ele>
        <time>2016-07-18T13:52:27.000Z</time>
      </trkpt>
      <trkpt lat="44.34965" lon="6.39038">
        <ele>1409.8000488281</ele>
        <time>2016-07-18T13:52:28.000Z</time>
      </trkpt>
      <trkpt lat="44.34965" lon="6.39027">
        <ele>1408.8000488281</ele>
        <time>2016-07-18T13:52:34.000Z</time>
      </trkpt>
      <trkpt lat="44.34968" lon="6.39013">
        <ele>1408.4000244141</ele>
        <time>2016-07-18T13:52:43.000Z</time>
      </trkpt>
      <trkpt lat="44.34971" lon="6.38999">
        <ele>1408</ele>
        <time>2016-07-18T13:52:51.000Z</time>
      </trkpt>
      <trkpt lat="44.34974" lon="6.38987">
        <ele>1407.8000488281</ele>
        <time>2016-07-18T13:52:58.000Z</time>
      </trkpt>
      <trkpt lat="44.34978" lon="6.38973">
        <ele>1406.4000244141</ele>
        <time>2016-07-18T13:53:07.000Z</time>
      </trkpt>
      <trkpt lat="44.34983" lon="6.38961">
        <ele>1405.1999511719</ele>
        <time>2016-07-18T13:53:15.000Z</time>
      </trkpt>
      <trkpt lat="44.34987" lon="6.38951">
        <ele>1404.1999511719</ele>
        <time>2016-07-18T13:53:22.000Z</time>
      </trkpt>
      <trkpt lat="44.34988" lon="6.3895">
        <ele>1404.1999511719</ele>
        <time>2016-07-18T13:53:23.000Z</time>
      </trkpt>
      <trkpt lat="44.3499" lon="6.38943">
        <ele>1403.1999511719</ele>
        <time>2016-07-18T13:53:28.000Z</time>
      </trkpt>
      <trkpt lat="44.34992" lon="6.38931">
        <ele>1401.1999511719</ele>
        <time>2016-07-18T13:53:35.000Z</time>
      </trkpt>
      <trkpt lat="44.34996" lon="6.3892">
        <ele>1399.5999755859</ele>
        <time>2016-07-18T13:53:42.000Z</time>
      </trkpt>
      <trkpt lat="44.35" lon="6.38906">
        <ele>1397.4000244141</ele>
        <time>2016-07-18T13:53:51.000Z</time>
      </trkpt>
      <trkpt lat="44.35003" lon="6.38897">
        <ele>1396.1999511719</ele>
        <time>2016-07-18T13:53:57.000Z</time>
      </trkpt>
      <trkpt lat="44.35007" lon="6.38889">
        <ele>1396.5999755859</ele>
        <time>2016-07-18T13:54:03.000Z</time>
      </trkpt>
      <trkpt lat="44.3501" lon="6.38881">
        <ele>1396.8000488281</ele>
        <time>2016-07-18T13:54:09.000Z</time>
      </trkpt>
      <trkpt lat="44.35014" lon="6.38871">
        <ele>1396.5999755859</ele>
        <time>2016-07-18T13:54:16.000Z</time>
      </trkpt>
      <trkpt lat="44.35015" lon="6.3887">
        <ele>1396.4000244141</ele>
        <time>2016-07-18T13:54:17.000Z</time>
      </trkpt>
      <trkpt lat="44.35017" lon="6.38867">
        <ele>1396.4000244141</ele>
        <time>2016-07-18T13:54:20.000Z</time>
      </trkpt>
      <trkpt lat="44.3502" lon="6.38858">
        <ele>1395.8000488281</ele>
        <time>2016-07-18T13:54:26.000Z</time>
      </trkpt>
      <trkpt lat="44.35024" lon="6.38851">
        <ele>1395.5999755859</ele>
        <time>2016-07-18T13:54:32.000Z</time>
      </trkpt>
      <trkpt lat="44.35029" lon="6.38842">
        <ele>1395.1999511719</ele>
        <time>2016-07-18T13:54:39.000Z</time>
      </trkpt>
      <trkpt lat="44.35031" lon="6.38834">
        <ele>1394.8000488281</ele>
        <time>2016-07-18T13:54:45.000Z</time>
      </trkpt>
      <trkpt lat="44.35033" lon="6.38828">
        <ele>1394.4000244141</ele>
        <time>2016-07-18T13:54:50.000Z</time>
      </trkpt>
      <trkpt lat="44.35034" lon="6.3882">
        <ele>1393.4000244141</ele>
        <time>2016-07-18T13:54:55.000Z</time>
      </trkpt>
      <trkpt lat="44.35035" lon="6.38808">
        <ele>1392.1999511719</ele>
        <time>2016-07-18T13:55:02.000Z</time>
      </trkpt>
      <trkpt lat="44.35035" lon="6.38806">
        <ele>1392.1999511719</ele>
        <time>2016-07-18T13:55:03.000Z</time>
      </trkpt>
      <trkpt lat="44.35036" lon="6.38798">
        <ele>1391.8000488281</ele>
        <time>2016-07-18T13:55:08.000Z</time>
      </trkpt>
      <trkpt lat="44.35036" lon="6.38788">
        <ele>1391.1999511719</ele>
        <time>2016-07-18T13:55:14.000Z</time>
      </trkpt>
      <trkpt lat="44.35036" lon="6.38786">
        <ele>1391</ele>
        <time>2016-07-18T13:55:15.000Z</time>
      </trkpt>
      <trkpt lat="44.35035" lon="6.38773">
        <ele>1389.8000488281</ele>
        <time>2016-07-18T13:55:22.000Z</time>
      </trkpt>
      <trkpt lat="44.35035" lon="6.38761">
        <ele>1389</ele>
        <time>2016-07-18T13:55:29.000Z</time>
      </trkpt>
      <trkpt lat="44.35035" lon="6.38752">
        <ele>1388.4000244141</ele>
        <time>2016-07-18T13:55:35.000Z</time>
      </trkpt>
      <trkpt lat="44.35034" lon="6.38736">
        <ele>1387</ele>
        <time>2016-07-18T13:55:44.000Z</time>
      </trkpt>
      <trkpt lat="44.35033" lon="6.38723">
        <ele>1386.1999511719</ele>
        <time>2016-07-18T13:55:51.000Z</time>
      </trkpt>
      <trkpt lat="44.35027" lon="6.38706">
        <ele>1384.8000488281</ele>
        <time>2016-07-18T13:56:01.000Z</time>
      </trkpt>
      <trkpt lat="44.3502" lon="6.38693">
        <ele>1383.4000244141</ele>
        <time>2016-07-18T13:56:10.000Z</time>
      </trkpt>
      <trkpt lat="44.35013" lon="6.3868">
        <ele>1382.1999511719</ele>
        <time>2016-07-18T13:56:18.000Z</time>
      </trkpt>
      <trkpt lat="44.35005" lon="6.38668">
        <ele>1380.5999755859</ele>
        <time>2016-07-18T13:56:27.000Z</time>
      </trkpt>
      <trkpt lat="44.34998" lon="6.38662">
        <ele>1379.5999755859</ele>
        <time>2016-07-18T13:56:33.000Z</time>
      </trkpt>
      <trkpt lat="44.34987" lon="6.38649">
        <ele>1377.5999755859</ele>
        <time>2016-07-18T13:56:44.000Z</time>
      </trkpt>
      <trkpt lat="44.3498" lon="6.38642">
        <ele>1376.5999755859</ele>
        <time>2016-07-18T13:56:51.000Z</time>
      </trkpt>
      <trkpt lat="44.34972" lon="6.38634">
        <ele>1375.1999511719</ele>
        <time>2016-07-18T13:56:59.000Z</time>
      </trkpt>
      <trkpt lat="44.34962" lon="6.38628">
        <ele>1373.5999755859</ele>
        <time>2016-07-18T13:57:08.000Z</time>
      </trkpt>
      <trkpt lat="44.3496" lon="6.38627">
        <ele>1373.4000244141</ele>
        <time>2016-07-18T13:57:09.000Z</time>
      </trkpt>
      <trkpt lat="44.34956" lon="6.38624">
        <ele>1372.5999755859</ele>
        <time>2016-07-18T13:57:13.000Z</time>
      </trkpt>
      <trkpt lat="44.34945" lon="6.38616">
        <ele>1371</ele>
        <time>2016-07-18T13:57:22.000Z</time>
      </trkpt>
      <trkpt lat="44.34936" lon="6.38609">
        <ele>1370</ele>
        <time>2016-07-18T13:57:30.000Z</time>
      </trkpt>
      <trkpt lat="44.34926" lon="6.38602">
        <ele>1368.8000488281</ele>
        <time>2016-07-18T13:57:39.000Z</time>
      </trkpt>
      <trkpt lat="44.34916" lon="6.38595">
        <ele>1367.5999755859</ele>
        <time>2016-07-18T13:57:48.000Z</time>
      </trkpt>
      <trkpt lat="44.34901" lon="6.38573">
        <ele>1365.8000488281</ele>
        <time>2016-07-18T13:58:05.000Z</time>
      </trkpt>
      <trkpt lat="44.34896" lon="6.3856">
        <ele>1364.8000488281</ele>
        <time>2016-07-18T13:58:14.000Z</time>
      </trkpt>
      <trkpt lat="44.3489" lon="6.3855">
        <ele>1363.5999755859</ele>
        <time>2016-07-18T13:58:22.000Z</time>
      </trkpt>
      <trkpt lat="44.34884" lon="6.3854">
        <ele>1362.4000244141</ele>
        <time>2016-07-18T13:58:30.000Z</time>
      </trkpt>
      <trkpt lat="44.34879" lon="6.38527">
        <ele>1361</ele>
        <time>2016-07-18T13:58:39.000Z</time>
      </trkpt>
      <trkpt lat="44.34873" lon="6.38515">
        <ele>1359.8000488281</ele>
        <time>2016-07-18T13:58:47.000Z</time>
      </trkpt>
      <trkpt lat="44.34868" lon="6.38502">
        <ele>1358.5999755859</ele>
        <time>2016-07-18T13:58:56.000Z</time>
      </trkpt>
      <trkpt lat="44.34863" lon="6.38493">
        <ele>1357.5999755859</ele>
        <time>2016-07-18T13:59:02.000Z</time>
      </trkpt>
      <trkpt lat="44.34862" lon="6.3848">
        <ele>1356.5999755859</ele>
        <time>2016-07-18T13:59:09.000Z</time>
      </trkpt>
      <trkpt lat="44.34862" lon="6.38477">
        <ele>1356.4000244141</ele>
        <time>2016-07-18T13:59:11.000Z</time>
      </trkpt>
      <trkpt lat="44.34862" lon="6.38474">
        <ele>1356.1999511719</ele>
        <time>2016-07-18T13:59:19.000Z</time>
      </trkpt>
      <trkpt lat="44.3486" lon="6.38462">
        <ele>1355.4000244141</ele>
        <time>2016-07-18T13:59:26.000Z</time>
      </trkpt>
      <trkpt lat="44.3486" lon="6.3846">
        <ele>1355.1999511719</ele>
        <time>2016-07-18T13:59:27.000Z</time>
      </trkpt>
      <trkpt lat="44.34861" lon="6.38457">
        <ele>1355.1999511719</ele>
        <time>2016-07-18T13:59:29.000Z</time>
      </trkpt>
      <trkpt lat="44.34863" lon="6.38448">
        <ele>1354.8000488281</ele>
        <time>2016-07-18T13:59:35.000Z</time>
      </trkpt>
      <trkpt lat="44.34863" lon="6.38446">
        <ele>1354.8000488281</ele>
        <time>2016-07-18T13:59:36.000Z</time>
      </trkpt>
      <trkpt lat="44.34865" lon="6.38441">
        <ele>1354.8000488281</ele>
        <time>2016-07-18T13:59:39.000Z</time>
      </trkpt>
      <trkpt lat="44.34872" lon="6.38428">
        <ele>1354.8000488281</ele>
        <time>2016-07-18T13:59:48.000Z</time>
      </trkpt>
      <trkpt lat="44.34873" lon="6.38426">
        <ele>1354.8000488281</ele>
        <time>2016-07-18T13:59:50.000Z</time>
      </trkpt>
      <trkpt lat="44.34872" lon="6.38425">
        <ele>1354.5999755859</ele>
        <time>2016-07-18T13:59:57.000Z</time>
      </trkpt>
      <trkpt lat="44.34873" lon="6.38422">
        <ele>1354.4000244141</ele>
        <time>2016-07-18T14:00:05.000Z</time>
      </trkpt>
      <trkpt lat="44.34874" lon="6.38417">
        <ele>1354.4000244141</ele>
        <time>2016-07-18T14:00:08.000Z</time>
      </trkpt>
      <trkpt lat="44.34877" lon="6.38414">
        <ele>1354.5999755859</ele>
        <time>2016-07-18T14:00:11.000Z</time>
      </trkpt>
      <trkpt lat="44.34883" lon="6.38401">
        <ele>1354.1999511719</ele>
        <time>2016-07-18T14:00:20.000Z</time>
      </trkpt>
      <trkpt lat="44.34884" lon="6.38399">
        <ele>1354.1999511719</ele>
        <time>2016-07-18T14:00:21.000Z</time>
      </trkpt>
      <trkpt lat="44.34887" lon="6.38396">
        <ele>1354.4000244141</ele>
        <time>2016-07-18T14:00:24.000Z</time>
      </trkpt>
      <trkpt lat="44.3489" lon="6.38393">
        <ele>1354.4000244141</ele>
        <time>2016-07-18T14:00:34.000Z</time>
      </trkpt>
      <trkpt lat="44.34891" lon="6.38394">
        <ele>1354.5999755859</ele>
        <time>2016-07-18T14:00:44.000Z</time>
      </trkpt>
      <trkpt lat="44.34892" lon="6.38393">
        <ele>1354.5999755859</ele>
        <time>2016-07-18T14:00:54.000Z</time>
      </trkpt>
      <trkpt lat="44.3489" lon="6.3839">
        <ele>1354.1999511719</ele>
        <time>2016-07-18T14:01:08.000Z</time>
      </trkpt>
      <trkpt lat="44.3489" lon="6.38389">
        <ele>1354.1999511719</ele>
        <time>2016-07-18T14:01:17.000Z</time>
      </trkpt>
      <trkpt lat="44.3489" lon="6.38391">
        <ele>1354.1999511719</ele>
        <time>2016-07-18T14:01:27.000Z</time>
      </trkpt>
      <trkpt lat="44.34891" lon="6.38387">
        <ele>1354.1999511719</ele>
        <time>2016-07-18T14:01:54.000Z</time>
      </trkpt>
      <trkpt lat="44.34893" lon="6.38387">
        <ele>1354.4000244141</ele>
        <time>2016-07-18T14:02:02.000Z</time>
      </trkpt>
      <trkpt lat="44.34893" lon="6.38386">
        <ele>1354.1999511719</ele>
        <time>2016-07-18T14:02:49.000Z</time>
      </trkpt>
      <trkpt lat="44.34894" lon="6.38385">
        <ele>1354.1999511719</ele>
        <time>2016-07-18T14:02:51.000Z</time>
      </trkpt>
      <trkpt lat="44.34898" lon="6.38372">
        <ele>1353.8000488281</ele>
        <time>2016-07-18T14:02:59.000Z</time>
      </trkpt>
      <trkpt lat="44.34902" lon="6.38363">
        <ele>1353.5999755859</ele>
        <time>2016-07-18T14:03:05.000Z</time>
      </trkpt>
      <trkpt lat="44.34906" lon="6.38351">
        <ele>1353.1999511719</ele>
        <time>2016-07-18T14:03:12.000Z</time>
      </trkpt>
      <trkpt lat="44.34909" lon="6.38339">
        <ele>1352.8000488281</ele>
        <time>2016-07-18T14:03:19.000Z</time>
      </trkpt>
      <trkpt lat="44.34911" lon="6.38327">
        <ele>1352.4000244141</ele>
        <time>2016-07-18T14:03:25.000Z</time>
      </trkpt>
      <trkpt lat="44.34917" lon="6.38308">
        <ele>1352.4000244141</ele>
        <time>2016-07-18T14:03:35.000Z</time>
      </trkpt>
      <trkpt lat="44.3492" lon="6.38293">
        <ele>1353</ele>
        <time>2016-07-18T14:03:42.000Z</time>
      </trkpt>
      <trkpt lat="44.34921" lon="6.38275">
        <ele>1352.5999755859</ele>
        <time>2016-07-18T14:03:50.000Z</time>
      </trkpt>
      <trkpt lat="44.34921" lon="6.3826">
        <ele>1352.1999511719</ele>
        <time>2016-07-18T14:03:57.000Z</time>
      </trkpt>
      <trkpt lat="44.34921" lon="6.38242">
        <ele>1351.5999755859</ele>
        <time>2016-07-18T14:04:05.000Z</time>
      </trkpt>
      <trkpt lat="44.34923" lon="6.38223">
        <ele>1351.4000244141</ele>
        <time>2016-07-18T14:04:14.000Z</time>
      </trkpt>
      <trkpt lat="44.34925" lon="6.38205">
        <ele>1351.5999755859</ele>
        <time>2016-07-18T14:04:23.000Z</time>
      </trkpt>
      <trkpt lat="44.34926" lon="6.3819">
        <ele>1351.8000488281</ele>
        <time>2016-07-18T14:04:30.000Z</time>
      </trkpt>
      <trkpt lat="44.34929" lon="6.38174">
        <ele>1351.8000488281</ele>
        <time>2016-07-18T14:04:38.000Z</time>
      </trkpt>
      <trkpt lat="44.34933" lon="6.38159">
        <ele>1352.1999511719</ele>
        <time>2016-07-18T14:04:46.000Z</time>
      </trkpt>
      <trkpt lat="44.34937" lon="6.38144">
        <ele>1352.1999511719</ele>
        <time>2016-07-18T14:04:54.000Z</time>
      </trkpt>
      <trkpt lat="44.34944" lon="6.38134">
        <ele>1353</ele>
        <time>2016-07-18T14:05:02.000Z</time>
      </trkpt>
      <trkpt lat="44.34945" lon="6.38131">
        <ele>1353.1999511719</ele>
        <time>2016-07-18T14:05:12.000Z</time>
      </trkpt>
      <trkpt lat="44.34953" lon="6.3812">
        <ele>1354</ele>
        <time>2016-07-18T14:05:19.000Z</time>
      </trkpt>
      <trkpt lat="44.34962" lon="6.38109">
        <ele>1354.8000488281</ele>
        <time>2016-07-18T14:05:27.000Z</time>
      </trkpt>
      <trkpt lat="44.34971" lon="6.38097">
        <ele>1355.5999755859</ele>
        <time>2016-07-18T14:05:35.000Z</time>
      </trkpt>
      <trkpt lat="44.34978" lon="6.38082">
        <ele>1356.1999511719</ele>
        <time>2016-07-18T14:05:44.000Z</time>
      </trkpt>
      <trkpt lat="44.34983" lon="6.3807">
        <ele>1356.5999755859</ele>
        <time>2016-07-18T14:05:51.000Z</time>
      </trkpt>
      <trkpt lat="44.34989" lon="6.38057">
        <ele>1356.8000488281</ele>
        <time>2016-07-18T14:05:59.000Z</time>
      </trkpt>
      <trkpt lat="44.34997" lon="6.38041">
        <ele>1356.5999755859</ele>
        <time>2016-07-18T14:06:09.000Z</time>
      </trkpt>
      <trkpt lat="44.35002" lon="6.38028">
        <ele>1356.1999511719</ele>
        <time>2016-07-18T14:06:17.000Z</time>
      </trkpt>
      <trkpt lat="44.35002" lon="6.38026">
        <ele>1356.1999511719</ele>
        <time>2016-07-18T14:06:18.000Z</time>
      </trkpt>
      <trkpt lat="44.35003" lon="6.38014">
        <ele>1355.8000488281</ele>
        <time>2016-07-18T14:06:26.000Z</time>
      </trkpt>
      <trkpt lat="44.35002" lon="6.3801">
        <ele>1355.5999755859</ele>
        <time>2016-07-18T14:06:29.000Z</time>
      </trkpt>
      <trkpt lat="44.35003" lon="6.38002">
        <ele>1355.4000244141</ele>
        <time>2016-07-18T14:06:34.000Z</time>
      </trkpt>
      <trkpt lat="44.35007" lon="6.37992">
        <ele>1355.1999511719</ele>
        <time>2016-07-18T14:06:41.000Z</time>
      </trkpt>
      <trkpt lat="44.35009" lon="6.37971">
        <ele>1353.8000488281</ele>
        <time>2016-07-18T14:06:51.000Z</time>
      </trkpt>
      <trkpt lat="44.35009" lon="6.37952">
        <ele>1352</ele>
        <time>2016-07-18T14:06:59.000Z</time>
      </trkpt>
      <trkpt lat="44.35012" lon="6.37937">
        <ele>1350.5999755859</ele>
        <time>2016-07-18T14:07:06.000Z</time>
      </trkpt>
      <trkpt lat="44.35015" lon="6.37918">
        <ele>1349</ele>
        <time>2016-07-18T14:07:15.000Z</time>
      </trkpt>
      <trkpt lat="44.35016" lon="6.3791">
        <ele>1348.1999511719</ele>
        <time>2016-07-18T14:07:21.000Z</time>
      </trkpt>
      <trkpt lat="44.35016" lon="6.37909">
        <ele>1348.1999511719</ele>
        <time>2016-07-18T14:07:22.000Z</time>
      </trkpt>
      <trkpt lat="44.35013" lon="6.3791">
        <ele>1348</ele>
        <time>2016-07-18T14:07:27.000Z</time>
      </trkpt>
      <trkpt lat="44.35013" lon="6.37911">
        <ele>1348.1999511719</ele>
        <time>2016-07-18T14:07:31.000Z</time>
      </trkpt>
      <trkpt lat="44.3501" lon="6.3791">
        <ele>1347.8000488281</ele>
        <time>2016-07-18T14:07:37.000Z</time>
      </trkpt>
      <trkpt lat="44.35009" lon="6.37911">
        <ele>1348</ele>
        <time>2016-07-18T14:07:43.000Z</time>
      </trkpt>
      <trkpt lat="44.35015" lon="6.37914">
        <ele>1348.5999755859</ele>
        <time>2016-07-18T14:08:26.000Z</time>
      </trkpt>
      <trkpt lat="44.35019" lon="6.3791">
        <ele>1348.4000244141</ele>
        <time>2016-07-18T14:08:36.000Z</time>
      </trkpt>
      <trkpt lat="44.35022" lon="6.37899">
        <ele>1347.5999755859</ele>
        <time>2016-07-18T14:08:42.000Z</time>
      </trkpt>
      <trkpt lat="44.35026" lon="6.37879">
        <ele>1347.1999511719</ele>
        <time>2016-07-18T14:08:52.000Z</time>
      </trkpt>
      <trkpt lat="44.35029" lon="6.37856">
        <ele>1346.8000488281</ele>
        <time>2016-07-18T14:09:03.000Z</time>
      </trkpt>
      <trkpt lat="44.35029" lon="6.37839">
        <ele>1346.4000244141</ele>
        <time>2016-07-18T14:09:11.000Z</time>
      </trkpt>
      <trkpt lat="44.35031" lon="6.37823">
        <ele>1346.1999511719</ele>
        <time>2016-07-18T14:09:19.000Z</time>
      </trkpt>
      <trkpt lat="44.35036" lon="6.3781">
        <ele>1346.4000244141</ele>
        <time>2016-07-18T14:09:26.000Z</time>
      </trkpt>
      <trkpt lat="44.35039" lon="6.37795">
        <ele>1346.4000244141</ele>
        <time>2016-07-18T14:09:33.000Z</time>
      </trkpt>
      <trkpt lat="44.35041" lon="6.3778">
        <ele>1346.5999755859</ele>
        <time>2016-07-18T14:09:40.000Z</time>
      </trkpt>
      <trkpt lat="44.35045" lon="6.37761">
        <ele>1346.8000488281</ele>
        <time>2016-07-18T14:09:49.000Z</time>
      </trkpt>
      <trkpt lat="44.35047" lon="6.37741">
        <ele>1346.8000488281</ele>
        <time>2016-07-18T14:09:59.000Z</time>
      </trkpt>
      <trkpt lat="44.35049" lon="6.37724">
        <ele>1346.5999755859</ele>
        <time>2016-07-18T14:10:07.000Z</time>
      </trkpt>
      <trkpt lat="44.35052" lon="6.37707">
        <ele>1346.8000488281</ele>
        <time>2016-07-18T14:10:15.000Z</time>
      </trkpt>
      <trkpt lat="44.35054" lon="6.37694">
        <ele>1346.8000488281</ele>
        <time>2016-07-18T14:10:21.000Z</time>
      </trkpt>
      <trkpt lat="44.35056" lon="6.37674">
        <ele>1347</ele>
        <time>2016-07-18T14:10:30.000Z</time>
      </trkpt>
      <trkpt lat="44.35059" lon="6.37645">
        <ele>1347</ele>
        <time>2016-07-18T14:10:43.000Z</time>
      </trkpt>
      <trkpt lat="44.35062" lon="6.3762">
        <ele>1346.8000488281</ele>
        <time>2016-07-18T14:10:54.000Z</time>
      </trkpt>
      <trkpt lat="44.35067" lon="6.37599">
        <ele>1346.5999755859</ele>
        <time>2016-07-18T14:11:04.000Z</time>
      </trkpt>
      <trkpt lat="44.35072" lon="6.37584">
        <ele>1346.1999511719</ele>
        <time>2016-07-18T14:11:12.000Z</time>
      </trkpt>
      <trkpt lat="44.35081" lon="6.37574">
        <ele>1346</ele>
        <time>2016-07-18T14:11:19.000Z</time>
      </trkpt>
      <trkpt lat="44.35094" lon="6.37564">
        <ele>1345.8000488281</ele>
        <time>2016-07-18T14:11:29.000Z</time>
      </trkpt>
      <trkpt lat="44.35104" lon="6.37554">
        <ele>1345.5999755859</ele>
        <time>2016-07-18T14:11:45.000Z</time>
      </trkpt>
      <trkpt lat="44.35101" lon="6.37555">
        <ele>1345.5999755859</ele>
        <time>2016-07-18T14:11:52.000Z</time>
      </trkpt>
      <trkpt lat="44.351" lon="6.37556">
        <ele>1345.5999755859</ele>
        <time>2016-07-18T14:12:52.000Z</time>
      </trkpt>
      <trkpt lat="44.351" lon="6.37557">
        <ele>1345.5999755859</ele>
        <time>2016-07-18T14:12:55.000Z</time>
      </trkpt>
      <trkpt lat="44.35101" lon="6.37555">
        <ele>1345.5999755859</ele>
        <time>2016-07-18T14:13:00.000Z</time>
      </trkpt>
      <trkpt lat="44.35101" lon="6.3755">
        <ele>1345.4000244141</ele>
        <time>2016-07-18T14:13:18.000Z</time>
      </trkpt>
      <trkpt lat="44.35101" lon="6.37553">
        <ele>1345.5999755859</ele>
        <time>2016-07-18T14:13:23.000Z</time>
      </trkpt>
      <trkpt lat="44.35101" lon="6.37554">
        <ele>1345.5999755859</ele>
        <time>2016-07-18T14:13:27.000Z</time>
      </trkpt>
      <trkpt lat="44.35101" lon="6.37552">
        <ele>1345.5999755859</ele>
        <time>2016-07-18T14:13:40.000Z</time>
      </trkpt>
      <trkpt lat="44.35101" lon="6.37547">
        <ele>1345.1999511719</ele>
        <time>2016-07-18T14:13:45.000Z</time>
      </trkpt>
      <trkpt lat="44.35101" lon="6.37545">
        <ele>1345.1999511719</ele>
        <time>2016-07-18T14:13:46.000Z</time>
      </trkpt>
      <trkpt lat="44.35101" lon="6.37535">
        <ele>1344.8000488281</ele>
        <time>2016-07-18T14:13:52.000Z</time>
      </trkpt>
      <trkpt lat="44.35101" lon="6.37533">
        <ele>1344.5999755859</ele>
        <time>2016-07-18T14:13:53.000Z</time>
      </trkpt>
      <trkpt lat="44.35104" lon="6.37525">
        <ele>1344.1999511719</ele>
        <time>2016-07-18T14:14:00.000Z</time>
      </trkpt>
      <trkpt lat="44.35104" lon="6.37523">
        <ele>1344.1999511719</ele>
        <time>2016-07-18T14:14:01.000Z</time>
      </trkpt>
      <trkpt lat="44.35105" lon="6.37518">
        <ele>1343.8000488281</ele>
        <time>2016-07-18T14:14:05.000Z</time>
      </trkpt>
      <trkpt lat="44.35104" lon="6.3751">
        <ele>1343.5999755859</ele>
        <time>2016-07-18T14:14:10.000Z</time>
      </trkpt>
      <trkpt lat="44.35104" lon="6.37509">
        <ele>1343.4000244141</ele>
        <time>2016-07-18T14:14:11.000Z</time>
      </trkpt>
      <trkpt lat="44.35102" lon="6.37501">
        <ele>1343</ele>
        <time>2016-07-18T14:14:16.000Z</time>
      </trkpt>
      <trkpt lat="44.35103" lon="6.37494">
        <ele>1342.8000488281</ele>
        <time>2016-07-18T14:14:21.000Z</time>
      </trkpt>
      <trkpt lat="44.35103" lon="6.37489">
        <ele>1342.5999755859</ele>
        <time>2016-07-18T14:14:25.000Z</time>
      </trkpt>
      <trkpt lat="44.35102" lon="6.37482">
        <ele>1342.1999511719</ele>
        <time>2016-07-18T14:14:29.000Z</time>
      </trkpt>
      <trkpt lat="44.35102" lon="6.37479">
        <ele>1342</ele>
        <time>2016-07-18T14:14:31.000Z</time>
      </trkpt>
      <trkpt lat="44.35102" lon="6.37473">
        <ele>1341.8000488281</ele>
        <time>2016-07-18T14:14:35.000Z</time>
      </trkpt>
      <trkpt lat="44.35103" lon="6.37464">
        <ele>1341.1999511719</ele>
        <time>2016-07-18T14:14:41.000Z</time>
      </trkpt>
      <trkpt lat="44.35103" lon="6.37462">
        <ele>1341.1999511719</ele>
        <time>2016-07-18T14:14:48.000Z</time>
      </trkpt>
      <trkpt lat="44.35103" lon="6.37459">
        <ele>1340.8000488281</ele>
        <time>2016-07-18T14:14:59.000Z</time>
      </trkpt>
      <trkpt lat="44.35103" lon="6.37456">
        <ele>1340.5999755859</ele>
        <time>2016-07-18T14:15:09.000Z</time>
      </trkpt>
      <trkpt lat="44.35103" lon="6.37454">
        <ele>1340.5999755859</ele>
        <time>2016-07-18T14:15:24.000Z</time>
      </trkpt>
      <trkpt lat="44.35102" lon="6.3745">
        <ele>1340.4000244141</ele>
        <time>2016-07-18T14:16:01.000Z</time>
      </trkpt>
      <trkpt lat="44.35103" lon="6.37452">
        <ele>1340.4000244141</ele>
        <time>2016-07-18T14:16:41.000Z</time>
      </trkpt>
      <trkpt lat="44.35103" lon="6.37453">
        <ele>1340.5999755859</ele>
        <time>2016-07-18T14:16:59.000Z</time>
      </trkpt>
      <trkpt lat="44.35102" lon="6.37454">
        <ele>1340.5999755859</ele>
        <time>2016-07-18T14:17:51.000Z</time>
      </trkpt>
      <trkpt lat="44.35101" lon="6.3745">
        <ele>1340.4000244141</ele>
        <time>2016-07-18T14:19:05.000Z</time>
      </trkpt>
      <trkpt lat="44.35103" lon="6.37452">
        <ele>1340.4000244141</ele>
        <time>2016-07-18T14:19:50.000Z</time>
      </trkpt>
      <trkpt lat="44.35104" lon="6.37455">
        <ele>1340.5999755859</ele>
        <time>2016-07-18T14:20:28.000Z</time>
      </trkpt>
      <trkpt lat="44.35103" lon="6.37454">
        <ele>1340.5999755859</ele>
        <time>2016-07-18T14:20:33.000Z</time>
      </trkpt>
      <trkpt lat="44.35104" lon="6.37455">
        <ele>1340.5999755859</ele>
        <time>2016-07-18T14:21:33.000Z</time>
      </trkpt>
      <trkpt lat="44.35103" lon="6.37451">
        <ele>1340.4000244141</ele>
        <time>2016-07-18T14:22:11.000Z</time>
      </trkpt>
      <trkpt lat="44.35102" lon="6.37453">
        <ele>1340.5999755859</ele>
        <time>2016-07-18T14:23:12.000Z</time>
      </trkpt>
      <trkpt lat="44.35103" lon="6.37454">
        <ele>1340.5999755859</ele>
        <time>2016-07-18T14:23:17.000Z</time>
      </trkpt>
      <trkpt lat="44.35102" lon="6.37454">
        <ele>1340.5999755859</ele>
        <time>2016-07-18T14:23:22.000Z</time>
      </trkpt>
      <trkpt lat="44.35103" lon="6.37453">
        <ele>1340.5999755859</ele>
        <time>2016-07-18T14:23:31.000Z</time>
      </trkpt>
      <trkpt lat="44.35102" lon="6.37453">
        <ele>1340.5999755859</ele>
        <time>2016-07-18T14:23:39.000Z</time>
      </trkpt>
      <trkpt lat="44.35104" lon="6.37456">
        <ele>1340.5999755859</ele>
        <time>2016-07-18T14:23:45.000Z</time>
      </trkpt>
      <trkpt lat="44.35104" lon="6.37457">
        <ele>1340.8000488281</ele>
        <time>2016-07-18T14:23:52.000Z</time>
      </trkpt>
      <trkpt lat="44.35104" lon="6.37458">
        <ele>1340.8000488281</ele>
        <time>2016-07-18T14:23:56.000Z</time>
      </trkpt>
      <trkpt lat="44.35103" lon="6.37459">
        <ele>1341</ele>
        <time>2016-07-18T14:24:02.000Z</time>
      </trkpt>
      <trkpt lat="44.35103" lon="6.37454">
        <ele>1340.5999755859</ele>
        <time>2016-07-18T14:24:23.000Z</time>
      </trkpt>
      <trkpt lat="44.35104" lon="6.37448">
        <ele>1340</ele>
        <time>2016-07-18T14:24:28.000Z</time>
      </trkpt>
      <trkpt lat="44.35105" lon="6.37442">
        <ele>1339.5999755859</ele>
        <time>2016-07-18T14:24:33.000Z</time>
      </trkpt>
      <trkpt lat="44.35105" lon="6.37441">
        <ele>1339.5999755859</ele>
        <time>2016-07-18T14:24:34.000Z</time>
      </trkpt>
      <trkpt lat="44.35107" lon="6.3743">
        <ele>1338.5999755859</ele>
        <time>2016-07-18T14:24:41.000Z</time>
      </trkpt>
      <trkpt lat="44.35107" lon="6.37429">
        <ele>1338.5999755859</ele>
        <time>2016-07-18T14:24:42.000Z</time>
      </trkpt>
      <trkpt lat="44.3511" lon="6.37424">
        <ele>1338</ele>
        <time>2016-07-18T14:24:46.000Z</time>
      </trkpt>
      <trkpt lat="44.35114" lon="6.37413">
        <ele>1337</ele>
        <time>2016-07-18T14:24:54.000Z</time>
      </trkpt>
      <trkpt lat="44.35113" lon="6.37412">
        <ele>1337</ele>
        <time>2016-07-18T14:24:55.000Z</time>
      </trkpt>
      <trkpt lat="44.35114" lon="6.37407">
        <ele>1336.5999755859</ele>
        <time>2016-07-18T14:24:58.000Z</time>
      </trkpt>
      <trkpt lat="44.35117" lon="6.37398">
        <ele>1336</ele>
        <time>2016-07-18T14:25:04.000Z</time>
      </trkpt>
      <trkpt lat="44.35117" lon="6.37397">
        <ele>1336</ele>
        <time>2016-07-18T14:25:05.000Z</time>
      </trkpt>
      <trkpt lat="44.35121" lon="6.3739">
        <ele>1335.5999755859</ele>
        <time>2016-07-18T14:25:15.000Z</time>
      </trkpt>
      <trkpt lat="44.35122" lon="6.37387">
        <ele>1335.5999755859</ele>
        <time>2016-07-18T14:25:17.000Z</time>
      </trkpt>
      <trkpt lat="44.35125" lon="6.37376">
        <ele>1335</ele>
        <time>2016-07-18T14:25:24.000Z</time>
      </trkpt>
      <trkpt lat="44.35126" lon="6.3737">
        <ele>1334.8000488281</ele>
        <time>2016-07-18T14:25:28.000Z</time>
      </trkpt>
      <trkpt lat="44.35126" lon="6.37361">
        <ele>1334.4000244141</ele>
        <time>2016-07-18T14:25:34.000Z</time>
      </trkpt>
      <trkpt lat="44.35126" lon="6.37359">
        <ele>1334.1999511719</ele>
        <time>2016-07-18T14:25:35.000Z</time>
      </trkpt>
      <trkpt lat="44.35125" lon="6.3735">
        <ele>1333.8000488281</ele>
        <time>2016-07-18T14:25:41.000Z</time>
      </trkpt>
      <trkpt lat="44.35123" lon="6.3734">
        <ele>1333.4000244141</ele>
        <time>2016-07-18T14:25:47.000Z</time>
      </trkpt>
      <trkpt lat="44.35123" lon="6.37336">
        <ele>1333.1999511719</ele>
        <time>2016-07-18T14:25:49.000Z</time>
      </trkpt>
      <trkpt lat="44.35122" lon="6.37327">
        <ele>1332.8000488281</ele>
        <time>2016-07-18T14:25:54.000Z</time>
      </trkpt>
      <trkpt lat="44.35122" lon="6.37321">
        <ele>1332.4000244141</ele>
        <time>2016-07-18T14:25:57.000Z</time>
      </trkpt>
      <trkpt lat="44.35123" lon="6.37318">
        <ele>1332</ele>
        <time>2016-07-18T14:25:59.000Z</time>
      </trkpt>
      <trkpt lat="44.35125" lon="6.37312">
        <ele>1331.8000488281</ele>
        <time>2016-07-18T14:26:04.000Z</time>
      </trkpt>
      <trkpt lat="44.35129" lon="6.37291">
        <ele>1331.4000244141</ele>
        <time>2016-07-18T14:26:17.000Z</time>
      </trkpt>
      <trkpt lat="44.3513" lon="6.37287">
        <ele>1331.1999511719</ele>
        <time>2016-07-18T14:26:19.000Z</time>
      </trkpt>
      <trkpt lat="44.35132" lon="6.37279">
        <ele>1331.1999511719</ele>
        <time>2016-07-18T14:26:25.000Z</time>
      </trkpt>
      <trkpt lat="44.35133" lon="6.3727">
        <ele>1331</ele>
        <time>2016-07-18T14:26:30.000Z</time>
      </trkpt>
      <trkpt lat="44.35133" lon="6.37268">
        <ele>1331</ele>
        <time>2016-07-18T14:26:31.000Z</time>
      </trkpt>
      <trkpt lat="44.35133" lon="6.37264">
        <ele>1331</ele>
        <time>2016-07-18T14:26:33.000Z</time>
      </trkpt>
      <trkpt lat="44.35135" lon="6.37256">
        <ele>1330.8000488281</ele>
        <time>2016-07-18T14:26:37.000Z</time>
      </trkpt>
      <trkpt lat="44.35135" lon="6.37255">
        <ele>1330.8000488281</ele>
        <time>2016-07-18T14:26:38.000Z</time>
      </trkpt>
      <trkpt lat="44.35136" lon="6.37254">
        <ele>1330.8000488281</ele>
        <time>2016-07-18T14:26:39.000Z</time>
      </trkpt>
      <trkpt lat="44.3514" lon="6.37243">
        <ele>1329</ele>
        <time>2016-07-18T14:26:47.000Z</time>
      </trkpt>
      <trkpt lat="44.35143" lon="6.37234">
        <ele>1327.5999755859</ele>
        <time>2016-07-18T14:26:52.000Z</time>
      </trkpt>
      <trkpt lat="44.35145" lon="6.3723">
        <ele>1327</ele>
        <time>2016-07-18T14:26:55.000Z</time>
      </trkpt>
      <trkpt lat="44.35146" lon="6.37228">
        <ele>1326.8000488281</ele>
        <time>2016-07-18T14:26:57.000Z</time>
      </trkpt>
      <trkpt lat="44.35145" lon="6.37226">
        <ele>1327</ele>
        <time>2016-07-18T14:27:02.000Z</time>
      </trkpt>
      <trkpt lat="44.35145" lon="6.37222">
        <ele>1326.8000488281</ele>
        <time>2016-07-18T14:27:09.000Z</time>
      </trkpt>
      <trkpt lat="44.35144" lon="6.37216">
        <ele>1327</ele>
        <time>2016-07-18T14:27:28.000Z</time>
      </trkpt>
      <trkpt lat="44.35143" lon="6.37215">
        <ele>1327</ele>
        <time>2016-07-18T14:27:42.000Z</time>
      </trkpt>
      <trkpt lat="44.35144" lon="6.37215">
        <ele>1327</ele>
        <time>2016-07-18T14:27:50.000Z</time>
      </trkpt>
      <trkpt lat="44.35144" lon="6.37213">
        <ele>1326.8000488281</ele>
        <time>2016-07-18T14:28:15.000Z</time>
      </trkpt>
      <trkpt lat="44.35145" lon="6.37209">
        <ele>1326.5999755859</ele>
        <time>2016-07-18T14:29:13.000Z</time>
      </trkpt>
      <trkpt lat="44.35145" lon="6.37208">
        <ele>1326.5999755859</ele>
        <time>2016-07-18T14:29:36.000Z</time>
      </trkpt>
      <trkpt lat="44.35143" lon="6.372">
        <ele>1326.8000488281</ele>
        <time>2016-07-18T14:31:01.000Z</time>
      </trkpt>
      <trkpt lat="44.35144" lon="6.37205">
        <ele>1326.8000488281</ele>
        <time>2016-07-18T14:31:07.000Z</time>
      </trkpt>
      <trkpt lat="44.35144" lon="6.37206">
        <ele>1326.8000488281</ele>
        <time>2016-07-18T14:31:13.000Z</time>
      </trkpt>
      <trkpt lat="44.35145" lon="6.37208">
        <ele>1326.5999755859</ele>
        <time>2016-07-18T14:31:32.000Z</time>
      </trkpt>
      <trkpt lat="44.35146" lon="6.37203">
        <ele>1326.4000244141</ele>
        <time>2016-07-18T14:31:50.000Z</time>
      </trkpt>
      <trkpt lat="44.35147" lon="6.37201">
        <ele>1326.1999511719</ele>
        <time>2016-07-18T14:31:52.000Z</time>
      </trkpt>
      <trkpt lat="44.35151" lon="6.37195">
        <ele>1325.8000488281</ele>
        <time>2016-07-18T14:31:57.000Z</time>
      </trkpt>
      <trkpt lat="44.35153" lon="6.37191">
        <ele>1325.4000244141</ele>
        <time>2016-07-18T14:32:00.000Z</time>
      </trkpt>
      <trkpt lat="44.35157" lon="6.37183">
        <ele>1324.5999755859</ele>
        <time>2016-07-18T14:32:06.000Z</time>
      </trkpt>
      <trkpt lat="44.35158" lon="6.37181">
        <ele>1324.4000244141</ele>
        <time>2016-07-18T14:32:07.000Z</time>
      </trkpt>
      <trkpt lat="44.35158" lon="6.37178">
        <ele>1324.1999511719</ele>
        <time>2016-07-18T14:32:09.000Z</time>
      </trkpt>
      <trkpt lat="44.3516" lon="6.37169">
        <ele>1323.5999755859</ele>
        <time>2016-07-18T14:32:14.000Z</time>
      </trkpt>
      <trkpt lat="44.35163" lon="6.37161">
        <ele>1323</ele>
        <time>2016-07-18T14:32:19.000Z</time>
      </trkpt>
      <trkpt lat="44.35166" lon="6.37153">
        <ele>1322.1999511719</ele>
        <time>2016-07-18T14:32:25.000Z</time>
      </trkpt>
      <trkpt lat="44.35166" lon="6.37151">
        <ele>1322</ele>
        <time>2016-07-18T14:32:26.000Z</time>
      </trkpt>
      <trkpt lat="44.35166" lon="6.3715">
        <ele>1322</ele>
        <time>2016-07-18T14:32:27.000Z</time>
      </trkpt>
      <trkpt lat="44.35168" lon="6.37145">
        <ele>1321.4000244141</ele>
        <time>2016-07-18T14:32:30.000Z</time>
      </trkpt>
      <trkpt lat="44.35169" lon="6.37141">
        <ele>1321.1999511719</ele>
        <time>2016-07-18T14:32:36.000Z</time>
      </trkpt>
      <trkpt lat="44.35171" lon="6.37139">
        <ele>1320.8000488281</ele>
        <time>2016-07-18T14:32:40.000Z</time>
      </trkpt>
      <trkpt lat="44.35175" lon="6.37136">
        <ele>1320.1999511719</ele>
        <time>2016-07-18T14:32:51.000Z</time>
      </trkpt>
      <trkpt lat="44.35177" lon="6.37134">
        <ele>1319.5999755859</ele>
        <time>2016-07-18T14:33:01.000Z</time>
      </trkpt>
      <trkpt lat="44.35178" lon="6.37132">
        <ele>1319.5999755859</ele>
        <time>2016-07-18T14:33:05.000Z</time>
      </trkpt>
      <trkpt lat="44.3518" lon="6.37124">
        <ele>1318.8000488281</ele>
        <time>2016-07-18T14:33:10.000Z</time>
      </trkpt>
      <trkpt lat="44.35181" lon="6.37121">
        <ele>1318.5999755859</ele>
        <time>2016-07-18T14:33:12.000Z</time>
      </trkpt>
      <trkpt lat="44.35183" lon="6.37111">
        <ele>1318</ele>
        <time>2016-07-18T14:33:18.000Z</time>
      </trkpt>
      <trkpt lat="44.35184" lon="6.37104">
        <ele>1317.5999755859</ele>
        <time>2016-07-18T14:33:23.000Z</time>
      </trkpt>
      <trkpt lat="44.35184" lon="6.37102">
        <ele>1317.5999755859</ele>
        <time>2016-07-18T14:33:24.000Z</time>
      </trkpt>
      <trkpt lat="44.35184" lon="6.37101">
        <ele>1317.4000244141</ele>
        <time>2016-07-18T14:33:25.000Z</time>
      </trkpt>
      <trkpt lat="44.35182" lon="6.37097">
        <ele>1317.5999755859</ele>
        <time>2016-07-18T14:33:36.000Z</time>
      </trkpt>
      <trkpt lat="44.35182" lon="6.37096">
        <ele>1317.5999755859</ele>
        <time>2016-07-18T14:33:40.000Z</time>
      </trkpt>
      <trkpt lat="44.35181" lon="6.37096">
        <ele>1317.5999755859</ele>
        <time>2016-07-18T14:33:48.000Z</time>
      </trkpt>
      <trkpt lat="44.35181" lon="6.37094">
        <ele>1317.8000488281</ele>
        <time>2016-07-18T14:34:01.000Z</time>
      </trkpt>
      <trkpt lat="44.35177" lon="6.37087">
        <ele>1318</ele>
        <time>2016-07-18T14:35:11.000Z</time>
      </trkpt>
      <trkpt lat="44.35178" lon="6.37087">
        <ele>1317.8000488281</ele>
        <time>2016-07-18T14:35:20.000Z</time>
      </trkpt>
      <trkpt lat="44.35178" lon="6.37088">
        <ele>1317.8000488281</ele>
        <time>2016-07-18T14:35:29.000Z</time>
      </trkpt>
      <trkpt lat="44.35178" lon="6.37089">
        <ele>1318</ele>
        <time>2016-07-18T14:35:31.000Z</time>
      </trkpt>
      <trkpt lat="44.35178" lon="6.37085">
        <ele>1317.8000488281</ele>
        <time>2016-07-18T14:35:36.000Z</time>
      </trkpt>
      <trkpt lat="44.35179" lon="6.37088">
        <ele>1317.8000488281</ele>
        <time>2016-07-18T14:35:42.000Z</time>
      </trkpt>
      <trkpt lat="44.3518" lon="6.37093">
        <ele>1317.8000488281</ele>
        <time>2016-07-18T14:36:17.000Z</time>
      </trkpt>
      <trkpt lat="44.35182" lon="6.37091">
        <ele>1317.4000244141</ele>
        <time>2016-07-18T14:36:50.000Z</time>
      </trkpt>
      <trkpt lat="44.35183" lon="6.3709">
        <ele>1317.1999511719</ele>
        <time>2016-07-18T14:36:54.000Z</time>
      </trkpt>
      <trkpt lat="44.35182" lon="6.37088">
        <ele>1317.1999511719</ele>
        <time>2016-07-18T14:36:55.000Z</time>
      </trkpt>
      <trkpt lat="44.35183" lon="6.37084">
        <ele>1317</ele>
        <time>2016-07-18T14:36:59.000Z</time>
      </trkpt>
      <trkpt lat="44.35186" lon="6.37078">
        <ele>1316.4000244141</ele>
        <time>2016-07-18T14:37:03.000Z</time>
      </trkpt>
      <trkpt lat="44.35187" lon="6.37073">
        <ele>1316</ele>
        <time>2016-07-18T14:37:06.000Z</time>
      </trkpt>
      <trkpt lat="44.35189" lon="6.37068">
        <ele>1315.5999755859</ele>
        <time>2016-07-18T14:37:09.000Z</time>
      </trkpt>
      <trkpt lat="44.35189" lon="6.37056">
        <ele>1314.4000244141</ele>
        <time>2016-07-18T14:37:16.000Z</time>
      </trkpt>
      <trkpt lat="44.3519" lon="6.37056">
        <ele>1314.4000244141</ele>
        <time>2016-07-18T14:37:17.000Z</time>
      </trkpt>
      <trkpt lat="44.35191" lon="6.37056">
        <ele>1314.1999511719</ele>
        <time>2016-07-18T14:37:19.000Z</time>
      </trkpt>
      <trkpt lat="44.35193" lon="6.3705">
        <ele>1313.5999755859</ele>
        <time>2016-07-18T14:37:24.000Z</time>
      </trkpt>
      <trkpt lat="44.35195" lon="6.3705">
        <ele>1313.4000244141</ele>
        <time>2016-07-18T14:37:26.000Z</time>
      </trkpt>
      <trkpt lat="44.35196" lon="6.37049">
        <ele>1313.1999511719</ele>
        <time>2016-07-18T14:37:28.000Z</time>
      </trkpt>
      <trkpt lat="44.35195" lon="6.37042">
        <ele>1313</ele>
        <time>2016-07-18T14:37:32.000Z</time>
      </trkpt>
      <trkpt lat="44.35192" lon="6.37036">
        <ele>1312.8000488281</ele>
        <time>2016-07-18T14:37:36.000Z</time>
      </trkpt>
      <trkpt lat="44.35195" lon="6.37032">
        <ele>1312.4000244141</ele>
        <time>2016-07-18T14:37:40.000Z</time>
      </trkpt>
      <trkpt lat="44.35195" lon="6.37029">
        <ele>1312</ele>
        <time>2016-07-18T14:37:42.000Z</time>
      </trkpt>
      <trkpt lat="44.35196" lon="6.37026">
        <ele>1311.8000488281</ele>
        <time>2016-07-18T14:37:44.000Z</time>
      </trkpt>
      <trkpt lat="44.35197" lon="6.37019">
        <ele>1311.4000244141</ele>
        <time>2016-07-18T14:37:48.000Z</time>
      </trkpt>
      <trkpt lat="44.35197" lon="6.37017">
        <ele>1311.1999511719</ele>
        <time>2016-07-18T14:37:49.000Z</time>
      </trkpt>
      <trkpt lat="44.35197" lon="6.37009">
        <ele>1310.8000488281</ele>
        <time>2016-07-18T14:37:55.000Z</time>
      </trkpt>
      <trkpt lat="44.35197" lon="6.37002">
        <ele>1310.1999511719</ele>
        <time>2016-07-18T14:37:59.000Z</time>
      </trkpt>
      <trkpt lat="44.35198" lon="6.36992">
        <ele>1309.5999755859</ele>
        <time>2016-07-18T14:38:05.000Z</time>
      </trkpt>
      <trkpt lat="44.35196" lon="6.36983">
        <ele>1309.1999511719</ele>
        <time>2016-07-18T14:38:10.000Z</time>
      </trkpt>
      <trkpt lat="44.35196" lon="6.36981">
        <ele>1309.1999511719</ele>
        <time>2016-07-18T14:38:12.000Z</time>
      </trkpt>
      <trkpt lat="44.35195" lon="6.36971">
        <ele>1308.1999511719</ele>
        <time>2016-07-18T14:38:16.000Z</time>
      </trkpt>
      <trkpt lat="44.35195" lon="6.36969">
        <ele>1308.1999511719</ele>
        <time>2016-07-18T14:38:17.000Z</time>
      </trkpt>
      <trkpt lat="44.35195" lon="6.36966">
        <ele>1307.8000488281</ele>
        <time>2016-07-18T14:38:19.000Z</time>
      </trkpt>
      <trkpt lat="44.35192" lon="6.36956">
        <ele>1307.1999511719</ele>
        <time>2016-07-18T14:38:24.000Z</time>
      </trkpt>
      <trkpt lat="44.35192" lon="6.36954">
        <ele>1307</ele>
        <time>2016-07-18T14:38:25.000Z</time>
      </trkpt>
      <trkpt lat="44.35192" lon="6.36951">
        <ele>1306.8000488281</ele>
        <time>2016-07-18T14:38:27.000Z</time>
      </trkpt>
      <trkpt lat="44.35192" lon="6.36947">
        <ele>1306.1999511719</ele>
        <time>2016-07-18T14:38:30.000Z</time>
      </trkpt>
      <trkpt lat="44.35192" lon="6.36937">
        <ele>1305.4000244141</ele>
        <time>2016-07-18T14:38:36.000Z</time>
      </trkpt>
      <trkpt lat="44.35192" lon="6.36923">
        <ele>1304</ele>
        <time>2016-07-18T14:38:45.000Z</time>
      </trkpt>
      <trkpt lat="44.35191" lon="6.36915">
        <ele>1303.4000244141</ele>
        <time>2016-07-18T14:38:51.000Z</time>
      </trkpt>
      <trkpt lat="44.35192" lon="6.36914">
        <ele>1303.1999511719</ele>
        <time>2016-07-18T14:38:53.000Z</time>
      </trkpt>
      <trkpt lat="44.35192" lon="6.36912">
        <ele>1303</ele>
        <time>2016-07-18T14:38:55.000Z</time>
      </trkpt>
      <trkpt lat="44.35189" lon="6.36901">
        <ele>1302.4000244141</ele>
        <time>2016-07-18T14:39:01.000Z</time>
      </trkpt>
      <trkpt lat="44.35187" lon="6.36894">
        <ele>1302</ele>
        <time>2016-07-18T14:39:05.000Z</time>
      </trkpt>
      <trkpt lat="44.35185" lon="6.36887">
        <ele>1301.8000488281</ele>
        <time>2016-07-18T14:39:10.000Z</time>
      </trkpt>
      <trkpt lat="44.35184" lon="6.36879">
        <ele>1301.4000244141</ele>
        <time>2016-07-18T14:39:15.000Z</time>
      </trkpt>
      <trkpt lat="44.35183" lon="6.36877">
        <ele>1301.1999511719</ele>
        <time>2016-07-18T14:39:17.000Z</time>
      </trkpt>
      <trkpt lat="44.35182" lon="6.36873">
        <ele>1301</ele>
        <time>2016-07-18T14:39:19.000Z</time>
      </trkpt>
      <trkpt lat="44.35182" lon="6.36861">
        <ele>1300.1999511719</ele>
        <time>2016-07-18T14:39:25.000Z</time>
      </trkpt>
      <trkpt lat="44.3518" lon="6.36855">
        <ele>1300</ele>
        <time>2016-07-18T14:39:28.000Z</time>
      </trkpt>
      <trkpt lat="44.3518" lon="6.36849">
        <ele>1299.4000244141</ele>
        <time>2016-07-18T14:39:31.000Z</time>
      </trkpt>
      <trkpt lat="44.35181" lon="6.36841">
        <ele>1298.5999755859</ele>
        <time>2016-07-18T14:39:36.000Z</time>
      </trkpt>
      <trkpt lat="44.35181" lon="6.3684">
        <ele>1298.4000244141</ele>
        <time>2016-07-18T14:39:37.000Z</time>
      </trkpt>
      <trkpt lat="44.35181" lon="6.36836">
        <ele>1298.1999511719</ele>
        <time>2016-07-18T14:39:40.000Z</time>
      </trkpt>
      <trkpt lat="44.35179" lon="6.36829">
        <ele>1297.8000488281</ele>
        <time>2016-07-18T14:39:43.000Z</time>
      </trkpt>
      <trkpt lat="44.35177" lon="6.36817">
        <ele>1297.1999511719</ele>
        <time>2016-07-18T14:39:49.000Z</time>
      </trkpt>
      <trkpt lat="44.35176" lon="6.36815">
        <ele>1297.1999511719</ele>
        <time>2016-07-18T14:39:50.000Z</time>
      </trkpt>
      <trkpt lat="44.35173" lon="6.36807">
        <ele>1297.1999511719</ele>
        <time>2016-07-18T14:39:55.000Z</time>
      </trkpt>
      <trkpt lat="44.35169" lon="6.36795">
        <ele>1297.4000244141</ele>
        <time>2016-07-18T14:40:01.000Z</time>
      </trkpt>
      <trkpt lat="44.35167" lon="6.36786">
        <ele>1297.4000244141</ele>
        <time>2016-07-18T14:40:06.000Z</time>
      </trkpt>
      <trkpt lat="44.35167" lon="6.36782">
        <ele>1297.1999511719</ele>
        <time>2016-07-18T14:40:09.000Z</time>
      </trkpt>
      <trkpt lat="44.35167" lon="6.36773">
        <ele>1295.8000488281</ele>
        <time>2016-07-18T14:40:15.000Z</time>
      </trkpt>
      <trkpt lat="44.35164" lon="6.3677">
        <ele>1296.1999511719</ele>
        <time>2016-07-18T14:40:26.000Z</time>
      </trkpt>
      <trkpt lat="44.35166" lon="6.36768">
        <ele>1295.5999755859</ele>
        <time>2016-07-18T14:40:31.000Z</time>
      </trkpt>
      <trkpt lat="44.35165" lon="6.36763">
        <ele>1295</ele>
        <time>2016-07-18T14:40:40.000Z</time>
      </trkpt>
      <trkpt lat="44.35165" lon="6.36758">
        <ele>1294.4000244141</ele>
        <time>2016-07-18T14:40:52.000Z</time>
      </trkpt>
      <trkpt lat="44.35165" lon="6.36756">
        <ele>1294.1999511719</ele>
        <time>2016-07-18T14:41:41.000Z</time>
      </trkpt>
      <trkpt lat="44.35166" lon="6.36758">
        <ele>1294.1999511719</ele>
        <time>2016-07-18T14:41:47.000Z</time>
      </trkpt>
      <trkpt lat="44.35166" lon="6.36756">
        <ele>1293.8000488281</ele>
        <time>2016-07-18T14:41:59.000Z</time>
      </trkpt>
      <trkpt lat="44.35164" lon="6.36751">
        <ele>1293.5999755859</ele>
        <time>2016-07-18T14:42:50.000Z</time>
      </trkpt>
      <trkpt lat="44.35166" lon="6.36751">
        <ele>1293.4000244141</ele>
        <time>2016-07-18T14:42:56.000Z</time>
      </trkpt>
      <trkpt lat="44.35165" lon="6.3675">
        <ele>1293.1999511719</ele>
        <time>2016-07-18T14:43:04.000Z</time>
      </trkpt>
      <trkpt lat="44.35166" lon="6.3675">
        <ele>1293.1999511719</ele>
        <time>2016-07-18T14:43:10.000Z</time>
      </trkpt>
      <trkpt lat="44.35165" lon="6.36751">
        <ele>1293.4000244141</ele>
        <time>2016-07-18T14:43:51.000Z</time>
      </trkpt>
      <trkpt lat="44.35166" lon="6.36749">
        <ele>1293</ele>
        <time>2016-07-18T14:44:07.000Z</time>
      </trkpt>
      <trkpt lat="44.35165" lon="6.36752">
        <ele>1293.5999755859</ele>
        <time>2016-07-18T14:45:20.000Z</time>
      </trkpt>
      <trkpt lat="44.35165" lon="6.3675">
        <ele>1293.4000244141</ele>
        <time>2016-07-18T14:45:25.000Z</time>
      </trkpt>
      <trkpt lat="44.35167" lon="6.3675">
        <ele>1292.8000488281</ele>
        <time>2016-07-18T14:45:37.000Z</time>
      </trkpt>
      <trkpt lat="44.3517" lon="6.36752">
        <ele>1292.1999511719</ele>
        <time>2016-07-18T14:46:07.000Z</time>
      </trkpt>
      <trkpt lat="44.35171" lon="6.36753">
        <ele>1292.1999511719</ele>
        <time>2016-07-18T14:46:13.000Z</time>
      </trkpt>
      <trkpt lat="44.3517" lon="6.36753">
        <ele>1292.5999755859</ele>
        <time>2016-07-18T14:46:20.000Z</time>
      </trkpt>
      <trkpt lat="44.3517" lon="6.36751">
        <ele>1292.4000244141</ele>
        <time>2016-07-18T14:46:30.000Z</time>
      </trkpt>
      <trkpt lat="44.35167" lon="6.36748">
        <ele>1292.5999755859</ele>
        <time>2016-07-18T14:46:35.000Z</time>
      </trkpt>
      <trkpt lat="44.35167" lon="6.36741">
        <ele>1291.5999755859</ele>
        <time>2016-07-18T14:46:40.000Z</time>
      </trkpt>
      <trkpt lat="44.35166" lon="6.36732">
        <ele>1290.5999755859</ele>
        <time>2016-07-18T14:46:47.000Z</time>
      </trkpt>
      <trkpt lat="44.35168" lon="6.36731">
        <ele>1290</ele>
        <time>2016-07-18T14:46:50.000Z</time>
      </trkpt>
      <trkpt lat="44.35169" lon="6.36725">
        <ele>1289</ele>
        <time>2016-07-18T14:46:54.000Z</time>
      </trkpt>
      <trkpt lat="44.3517" lon="6.36716">
        <ele>1287.1999511719</ele>
        <time>2016-07-18T14:47:00.000Z</time>
      </trkpt>
      <trkpt lat="44.35169" lon="6.36709">
        <ele>1286.4000244141</ele>
        <time>2016-07-18T14:47:05.000Z</time>
      </trkpt>
      <trkpt lat="44.35169" lon="6.36706">
        <ele>1286</ele>
        <time>2016-07-18T14:47:08.000Z</time>
      </trkpt>
      <trkpt lat="44.35168" lon="6.36702">
        <ele>1285.5999755859</ele>
        <time>2016-07-18T14:47:10.000Z</time>
      </trkpt>
      <trkpt lat="44.35169" lon="6.36694">
        <ele>1284</ele>
        <time>2016-07-18T14:47:15.000Z</time>
      </trkpt>
      <trkpt lat="44.35168" lon="6.36693">
        <ele>1284</ele>
        <time>2016-07-18T14:47:17.000Z</time>
      </trkpt>
      <trkpt lat="44.35167" lon="6.36689">
        <ele>1283.5999755859</ele>
        <time>2016-07-18T14:47:19.000Z</time>
      </trkpt>
      <trkpt lat="44.35163" lon="6.3668">
        <ele>1283</ele>
        <time>2016-07-18T14:47:25.000Z</time>
      </trkpt>
      <trkpt lat="44.35162" lon="6.36675">
        <ele>1282.5999755859</ele>
        <time>2016-07-18T14:47:29.000Z</time>
      </trkpt>
      <trkpt lat="44.3516" lon="6.3667">
        <ele>1282.1999511719</ele>
        <time>2016-07-18T14:47:40.000Z</time>
      </trkpt>
      <trkpt lat="44.35158" lon="6.3666">
        <ele>1281</ele>
        <time>2016-07-18T14:47:47.000Z</time>
      </trkpt>
      <trkpt lat="44.35158" lon="6.36657">
        <ele>1280.5999755859</ele>
        <time>2016-07-18T14:47:49.000Z</time>
      </trkpt>
      <trkpt lat="44.35157" lon="6.36654">
        <ele>1280.4000244141</ele>
        <time>2016-07-18T14:47:53.000Z</time>
      </trkpt>
      <trkpt lat="44.35159" lon="6.36647">
        <ele>1278.4000244141</ele>
        <time>2016-07-18T14:48:00.000Z</time>
      </trkpt>
      <trkpt lat="44.35158" lon="6.36641">
        <ele>1277</ele>
        <time>2016-07-18T14:48:04.000Z</time>
      </trkpt>
      <trkpt lat="44.35158" lon="6.3664">
        <ele>1276.5999755859</ele>
        <time>2016-07-18T14:48:05.000Z</time>
      </trkpt>
      <trkpt lat="44.35158" lon="6.36632">
        <ele>1274.4000244141</ele>
        <time>2016-07-18T14:48:10.000Z</time>
      </trkpt>
      <trkpt lat="44.35159" lon="6.36631">
        <ele>1273.8000488281</ele>
        <time>2016-07-18T14:48:12.000Z</time>
      </trkpt>
      <trkpt lat="44.35159" lon="6.36628">
        <ele>1272.8000488281</ele>
        <time>2016-07-18T14:48:14.000Z</time>
      </trkpt>
      <trkpt lat="44.3516" lon="6.36625">
        <ele>1272.1999511719</ele>
        <time>2016-07-18T14:48:15.000Z</time>
      </trkpt>
      <trkpt lat="44.35161" lon="6.36621">
        <ele>1270.5999755859</ele>
        <time>2016-07-18T14:48:20.000Z</time>
      </trkpt>
      <trkpt lat="44.35162" lon="6.36612">
        <ele>1267.8000488281</ele>
        <time>2016-07-18T14:48:28.000Z</time>
      </trkpt>
      <trkpt lat="44.35163" lon="6.36611">
        <ele>1267.1999511719</ele>
        <time>2016-07-18T14:48:29.000Z</time>
      </trkpt>
      <trkpt lat="44.35164" lon="6.3661">
        <ele>1266.5999755859</ele>
        <time>2016-07-18T14:48:30.000Z</time>
      </trkpt>
      <trkpt lat="44.3516" lon="6.36605">
        <ele>1266.1999511719</ele>
        <time>2016-07-18T14:48:35.000Z</time>
      </trkpt>
      <trkpt lat="44.35155" lon="6.36599">
        <ele>1265.5999755859</ele>
        <time>2016-07-18T14:48:42.000Z</time>
      </trkpt>
      <trkpt lat="44.35149" lon="6.36593">
        <ele>1265.4000244141</ele>
        <time>2016-07-18T14:48:49.000Z</time>
      </trkpt>
      <trkpt lat="44.35148" lon="6.36591">
        <ele>1265.1999511719</ele>
        <time>2016-07-18T14:48:50.000Z</time>
      </trkpt>
      <trkpt lat="44.35146" lon="6.36586">
        <ele>1264.1999511719</ele>
        <time>2016-07-18T14:48:55.000Z</time>
      </trkpt>
      <trkpt lat="44.35144" lon="6.36579">
        <ele>1262.8000488281</ele>
        <time>2016-07-18T14:49:00.000Z</time>
      </trkpt>
      <trkpt lat="44.35141" lon="6.36573">
        <ele>1261.5999755859</ele>
        <time>2016-07-18T14:49:07.000Z</time>
      </trkpt>
      <trkpt lat="44.35139" lon="6.36563">
        <ele>1259.4000244141</ele>
        <time>2016-07-18T14:49:13.000Z</time>
      </trkpt>
      <trkpt lat="44.35138" lon="6.36561">
        <ele>1259</ele>
        <time>2016-07-18T14:49:14.000Z</time>
      </trkpt>
      <trkpt lat="44.35135" lon="6.36553">
        <ele>1257</ele>
        <time>2016-07-18T14:49:20.000Z</time>
      </trkpt>
      <trkpt lat="44.3513" lon="6.36545">
        <ele>1255.5999755859</ele>
        <time>2016-07-18T14:49:24.000Z</time>
      </trkpt>
      <trkpt lat="44.35121" lon="6.36529">
        <ele>1252.8000488281</ele>
        <time>2016-07-18T14:49:32.000Z</time>
      </trkpt>
      <trkpt lat="44.35115" lon="6.36517">
        <ele>1250.5999755859</ele>
        <time>2016-07-18T14:49:41.000Z</time>
      </trkpt>
      <trkpt lat="44.35114" lon="6.3651">
        <ele>1248.4000244141</ele>
        <time>2016-07-18T14:49:49.000Z</time>
      </trkpt>
      <trkpt lat="44.35114" lon="6.36511">
        <ele>1248.8000488281</ele>
        <time>2016-07-18T14:49:53.000Z</time>
      </trkpt>
      <trkpt lat="44.35114" lon="6.36506">
        <ele>1247</ele>
        <time>2016-07-18T14:50:25.000Z</time>
      </trkpt>
      <trkpt lat="44.35112" lon="6.36505">
        <ele>1246.4000244141</ele>
        <time>2016-07-18T14:50:55.000Z</time>
      </trkpt>
      <trkpt lat="44.3511" lon="6.365">
        <ele>1244.8000488281</ele>
        <time>2016-07-18T14:50:59.000Z</time>
      </trkpt>
      <trkpt lat="44.35105" lon="6.36492">
        <ele>1241.4000244141</ele>
        <time>2016-07-18T14:51:05.000Z</time>
      </trkpt>
      <trkpt lat="44.35104" lon="6.3649">
        <ele>1240.5999755859</ele>
        <time>2016-07-18T14:51:07.000Z</time>
      </trkpt>
      <trkpt lat="44.351" lon="6.36485">
        <ele>1238.4000244141</ele>
        <time>2016-07-18T14:51:12.000Z</time>
      </trkpt>
      <trkpt lat="44.35096" lon="6.36478">
        <ele>1235.8000488281</ele>
        <time>2016-07-18T14:51:17.000Z</time>
      </trkpt>
      <trkpt lat="44.35091" lon="6.36469">
        <ele>1232.8000488281</ele>
        <time>2016-07-18T14:51:24.000Z</time>
      </trkpt>
      <trkpt lat="44.3509" lon="6.36467">
        <ele>1232.1999511719</ele>
        <time>2016-07-18T14:51:25.000Z</time>
      </trkpt>
      <trkpt lat="44.35088" lon="6.36465">
        <ele>1231.1999511719</ele>
        <time>2016-07-18T14:51:29.000Z</time>
      </trkpt>
      <trkpt lat="44.35086" lon="6.36458">
        <ele>1229.4000244141</ele>
        <time>2016-07-18T14:51:32.000Z</time>
      </trkpt>
      <trkpt lat="44.35084" lon="6.36454">
        <ele>1227.8000488281</ele>
        <time>2016-07-18T14:51:35.000Z</time>
      </trkpt>
      <trkpt lat="44.3508" lon="6.36447">
        <ele>1225.5999755859</ele>
        <time>2016-07-18T14:51:40.000Z</time>
      </trkpt>
      <trkpt lat="44.35077" lon="6.36444">
        <ele>1224.1999511719</ele>
        <time>2016-07-18T14:51:44.000Z</time>
      </trkpt>
      <trkpt lat="44.35075" lon="6.36443">
        <ele>1223.5999755859</ele>
        <time>2016-07-18T14:51:45.000Z</time>
      </trkpt>
      <trkpt lat="44.35071" lon="6.36438">
        <ele>1221.8000488281</ele>
        <time>2016-07-18T14:51:50.000Z</time>
      </trkpt>
      <trkpt lat="44.35063" lon="6.36433">
        <ele>1219.5999755859</ele>
        <time>2016-07-18T14:51:56.000Z</time>
      </trkpt>
      <trkpt lat="44.3506" lon="6.36431">
        <ele>1218.5999755859</ele>
        <time>2016-07-18T14:52:00.000Z</time>
      </trkpt>
      <trkpt lat="44.35055" lon="6.3643">
        <ele>1217.8000488281</ele>
        <time>2016-07-18T14:52:05.000Z</time>
      </trkpt>
      <trkpt lat="44.35047" lon="6.36429">
        <ele>1216.4000244141</ele>
        <time>2016-07-18T14:52:10.000Z</time>
      </trkpt>
      <trkpt lat="44.35043" lon="6.36425">
        <ele>1214.8000488281</ele>
        <time>2016-07-18T14:52:15.000Z</time>
      </trkpt>
      <trkpt lat="44.35044" lon="6.36421">
        <ele>1213.8000488281</ele>
        <time>2016-07-18T14:52:19.000Z</time>
      </trkpt>
      <trkpt lat="44.35047" lon="6.36415">
        <ele>1212.8000488281</ele>
        <time>2016-07-18T14:52:24.000Z</time>
      </trkpt>
      <trkpt lat="44.3505" lon="6.36411">
        <ele>1211.8000488281</ele>
        <time>2016-07-18T14:52:28.000Z</time>
      </trkpt>
      <trkpt lat="44.3505" lon="6.36409">
        <ele>1211.1999511719</ele>
        <time>2016-07-18T14:52:30.000Z</time>
      </trkpt>
      <trkpt lat="44.3505" lon="6.36403">
        <ele>1209.5999755859</ele>
        <time>2016-07-18T14:52:35.000Z</time>
      </trkpt>
      <trkpt lat="44.35049" lon="6.3639">
        <ele>1206.5999755859</ele>
        <time>2016-07-18T14:52:43.000Z</time>
      </trkpt>
      <trkpt lat="44.35047" lon="6.36386">
        <ele>1205.8000488281</ele>
        <time>2016-07-18T14:52:45.000Z</time>
      </trkpt>
      <trkpt lat="44.35046" lon="6.36384">
        <ele>1205.4000244141</ele>
        <time>2016-07-18T14:52:48.000Z</time>
      </trkpt>
      <trkpt lat="44.35045" lon="6.36383">
        <ele>1205</ele>
        <time>2016-07-18T14:53:05.000Z</time>
      </trkpt>
      <trkpt lat="44.35042" lon="6.3638">
        <ele>1204.1999511719</ele>
        <time>2016-07-18T14:54:20.000Z</time>
      </trkpt>
      <trkpt lat="44.35044" lon="6.36381">
        <ele>1204.4000244141</ele>
        <time>2016-07-18T14:54:35.000Z</time>
      </trkpt>
      <trkpt lat="44.35041" lon="6.36383">
        <ele>1204.5999755859</ele>
        <time>2016-07-18T14:54:43.000Z</time>
      </trkpt>
      <trkpt lat="44.3503" lon="6.36385">
        <ele>1203.5999755859</ele>
        <time>2016-07-18T14:54:52.000Z</time>
      </trkpt>
      <trkpt lat="44.3502" lon="6.36387">
        <ele>1203</ele>
        <time>2016-07-18T14:54:59.000Z</time>
      </trkpt>
      <trkpt lat="44.35019" lon="6.36387">
        <ele>1202.8000488281</ele>
        <time>2016-07-18T14:55:00.000Z</time>
      </trkpt>
      <trkpt lat="44.35015" lon="6.36387">
        <ele>1202</ele>
        <time>2016-07-18T14:55:04.000Z</time>
      </trkpt>
      <trkpt lat="44.35011" lon="6.36381">
        <ele>1200.5999755859</ele>
        <time>2016-07-18T14:55:08.000Z</time>
      </trkpt>
      <trkpt lat="44.35011" lon="6.36379">
        <ele>1200.4000244141</ele>
        <time>2016-07-18T14:55:10.000Z</time>
      </trkpt>
      <trkpt lat="44.3501" lon="6.36376">
        <ele>1199.8000488281</ele>
        <time>2016-07-18T14:55:12.000Z</time>
      </trkpt>
      <trkpt lat="44.35017" lon="6.36374">
        <ele>1200.1999511719</ele>
        <time>2016-07-18T14:55:17.000Z</time>
      </trkpt>
      <trkpt lat="44.3502" lon="6.36373">
        <ele>1200.4000244141</ele>
        <time>2016-07-18T14:55:20.000Z</time>
      </trkpt>
      <trkpt lat="44.35026" lon="6.36368">
        <ele>1200.4000244141</ele>
        <time>2016-07-18T14:55:26.000Z</time>
      </trkpt>
      <trkpt lat="44.35031" lon="6.36363">
        <ele>1200.1999511719</ele>
        <time>2016-07-18T14:55:37.000Z</time>
      </trkpt>
      <trkpt lat="44.35042" lon="6.36355">
        <ele>1200</ele>
        <time>2016-07-18T14:55:44.000Z</time>
      </trkpt>
      <trkpt lat="44.35048" lon="6.36349">
        <ele>1199.5999755859</ele>
        <time>2016-07-18T14:55:50.000Z</time>
      </trkpt>
      <trkpt lat="44.35057" lon="6.36339">
        <ele>1199</ele>
        <time>2016-07-18T14:55:58.000Z</time>
      </trkpt>
      <trkpt lat="44.35058" lon="6.36336">
        <ele>1198.5999755859</ele>
        <time>2016-07-18T14:56:00.000Z</time>
      </trkpt>
      <trkpt lat="44.35058" lon="6.36329">
        <ele>1197.8000488281</ele>
        <time>2016-07-18T14:56:02.000Z</time>
      </trkpt>
      <trkpt lat="44.3505" lon="6.3632">
        <ele>1195.4000244141</ele>
        <time>2016-07-18T14:56:10.000Z</time>
      </trkpt>
      <trkpt lat="44.3504" lon="6.3631">
        <ele>1192.8000488281</ele>
        <time>2016-07-18T14:56:19.000Z</time>
      </trkpt>
      <trkpt lat="44.35027" lon="6.363">
        <ele>1190.4000244141</ele>
        <time>2016-07-18T14:56:28.000Z</time>
      </trkpt>
      <trkpt lat="44.35016" lon="6.363">
        <ele>1189</ele>
        <time>2016-07-18T14:56:35.000Z</time>
      </trkpt>
      <trkpt lat="44.35005" lon="6.36304">
        <ele>1188</ele>
        <time>2016-07-18T14:56:43.000Z</time>
      </trkpt>
      <trkpt lat="44.34992" lon="6.36315">
        <ele>1187.1999511719</ele>
        <time>2016-07-18T14:56:52.000Z</time>
      </trkpt>
      <trkpt lat="44.34978" lon="6.36324">
        <ele>1187.1999511719</ele>
        <time>2016-07-18T14:57:02.000Z</time>
      </trkpt>
      <trkpt lat="44.34967" lon="6.36335">
        <ele>1187.8000488281</ele>
        <time>2016-07-18T14:57:10.000Z</time>
      </trkpt>
      <trkpt lat="44.34956" lon="6.36343">
        <ele>1186.8000488281</ele>
        <time>2016-07-18T14:57:19.000Z</time>
      </trkpt>
      <trkpt lat="44.34945" lon="6.36345">
        <ele>1185.4000244141</ele>
        <time>2016-07-18T14:57:25.000Z</time>
      </trkpt>
      <trkpt lat="44.34932" lon="6.36352">
        <ele>1184.4000244141</ele>
        <time>2016-07-18T14:57:35.000Z</time>
      </trkpt>
      <trkpt lat="44.34917" lon="6.36363">
        <ele>1183.8000488281</ele>
        <time>2016-07-18T14:57:47.000Z</time>
      </trkpt>
      <trkpt lat="44.34911" lon="6.36366">
        <ele>1182.8000488281</ele>
        <time>2016-07-18T14:57:52.000Z</time>
      </trkpt>
      <trkpt lat="44.34907" lon="6.36365">
        <ele>1182</ele>
        <time>2016-07-18T14:57:56.000Z</time>
      </trkpt>
      <trkpt lat="44.34899" lon="6.36354">
        <ele>1179.8000488281</ele>
        <time>2016-07-18T14:58:05.000Z</time>
      </trkpt>
      <trkpt lat="44.34901" lon="6.36342">
        <ele>1179.1999511719</ele>
        <time>2016-07-18T14:58:10.000Z</time>
      </trkpt>
      <trkpt lat="44.34911" lon="6.36329">
        <ele>1179</ele>
        <time>2016-07-18T14:58:20.000Z</time>
      </trkpt>
      <trkpt lat="44.3492" lon="6.36317">
        <ele>1178.5999755859</ele>
        <time>2016-07-18T14:58:28.000Z</time>
      </trkpt>
      <trkpt lat="44.34929" lon="6.36302">
        <ele>1178.8000488281</ele>
        <time>2016-07-18T14:58:37.000Z</time>
      </trkpt>
      <trkpt lat="44.34936" lon="6.36283">
        <ele>1178.1999511719</ele>
        <time>2016-07-18T14:58:47.000Z</time>
      </trkpt>
      <trkpt lat="44.34945" lon="6.36264">
        <ele>1177.5999755859</ele>
        <time>2016-07-18T14:58:58.000Z</time>
      </trkpt>
      <trkpt lat="44.34952" lon="6.36252">
        <ele>1177.1999511719</ele>
        <time>2016-07-18T14:59:05.000Z</time>
      </trkpt>
      <trkpt lat="44.34954" lon="6.3624">
        <ele>1176.5999755859</ele>
        <time>2016-07-18T14:59:12.000Z</time>
      </trkpt>
      <trkpt lat="44.34949" lon="6.36231">
        <ele>1175.1999511719</ele>
        <time>2016-07-18T14:59:18.000Z</time>
      </trkpt>
      <trkpt lat="44.34936" lon="6.36226">
        <ele>1173.8000488281</ele>
        <time>2016-07-18T14:59:26.000Z</time>
      </trkpt>
      <trkpt lat="44.34928" lon="6.36235">
        <ele>1173.4000244141</ele>
        <time>2016-07-18T14:59:34.000Z</time>
      </trkpt>
      <trkpt lat="44.34918" lon="6.36251">
        <ele>1173.8000488281</ele>
        <time>2016-07-18T14:59:44.000Z</time>
      </trkpt>
      <trkpt lat="44.3491" lon="6.36267">
        <ele>1174.4000244141</ele>
        <time>2016-07-18T14:59:54.000Z</time>
      </trkpt>
      <trkpt lat="44.34901" lon="6.3627">
        <ele>1173.8000488281</ele>
        <time>2016-07-18T15:00:00.000Z</time>
      </trkpt>
      <trkpt lat="44.34892" lon="6.36261">
        <ele>1172.1999511719</ele>
        <time>2016-07-18T15:00:07.000Z</time>
      </trkpt>
      <trkpt lat="44.34889" lon="6.36246">
        <ele>1170.5999755859</ele>
        <time>2016-07-18T15:00:13.000Z</time>
      </trkpt>
      <trkpt lat="44.34889" lon="6.36232">
        <ele>1169.5999755859</ele>
        <time>2016-07-18T15:00:20.000Z</time>
      </trkpt>
      <trkpt lat="44.3489" lon="6.36214">
        <ele>1169.4000244141</ele>
        <time>2016-07-18T15:00:29.000Z</time>
      </trkpt>
      <trkpt lat="44.34891" lon="6.36202">
        <ele>1169.1999511719</ele>
        <time>2016-07-18T15:00:35.000Z</time>
      </trkpt>
      <trkpt lat="44.34892" lon="6.36191">
        <ele>1169.1999511719</ele>
        <time>2016-07-18T15:00:40.000Z</time>
      </trkpt>
      <trkpt lat="44.34893" lon="6.3618">
        <ele>1169.1999511719</ele>
        <time>2016-07-18T15:00:45.000Z</time>
      </trkpt>
      <trkpt lat="44.34892" lon="6.36164">
        <ele>1168.8000488281</ele>
        <time>2016-07-18T15:00:53.000Z</time>
      </trkpt>
      <trkpt lat="44.34889" lon="6.36143">
        <ele>1168</ele>
        <time>2016-07-18T15:01:02.000Z</time>
      </trkpt>
      <trkpt lat="44.34881" lon="6.36129">
        <ele>1167.1999511719</ele>
        <time>2016-07-18T15:01:10.000Z</time>
      </trkpt>
      <trkpt lat="44.34874" lon="6.36114">
        <ele>1166.4000244141</ele>
        <time>2016-07-18T15:01:18.000Z</time>
      </trkpt>
      <trkpt lat="44.34864" lon="6.36099">
        <ele>1165.4000244141</ele>
        <time>2016-07-18T15:01:25.000Z</time>
      </trkpt>
      <trkpt lat="44.34857" lon="6.36088">
        <ele>1165</ele>
        <time>2016-07-18T15:01:33.000Z</time>
      </trkpt>
      <trkpt lat="44.34838" lon="6.36059">
        <ele>1163.8000488281</ele>
        <time>2016-07-18T15:01:50.000Z</time>
      </trkpt>
      <trkpt lat="44.3483" lon="6.36041">
        <ele>1163</ele>
        <time>2016-07-18T15:02:00.000Z</time>
      </trkpt>
      <trkpt lat="44.34829" lon="6.36034">
        <ele>1162.5999755859</ele>
        <time>2016-07-18T15:02:02.000Z</time>
      </trkpt>
      <trkpt lat="44.34828" lon="6.36022">
        <ele>1162.1999511719</ele>
        <time>2016-07-18T15:02:08.000Z</time>
      </trkpt>
      <trkpt lat="44.34829" lon="6.36004">
        <ele>1161.5999755859</ele>
        <time>2016-07-18T15:02:15.000Z</time>
      </trkpt>
      <trkpt lat="44.34831" lon="6.35986">
        <ele>1161</ele>
        <time>2016-07-18T15:02:23.000Z</time>
      </trkpt>
      <trkpt lat="44.34833" lon="6.35969">
        <ele>1160.1999511719</ele>
        <time>2016-07-18T15:02:30.000Z</time>
      </trkpt>
      <trkpt lat="44.34836" lon="6.35946">
        <ele>1159.5999755859</ele>
        <time>2016-07-18T15:02:40.000Z</time>
      </trkpt>
      <trkpt lat="44.34839" lon="6.35931">
        <ele>1159.8000488281</ele>
        <time>2016-07-18T15:02:49.000Z</time>
      </trkpt>
      <trkpt lat="44.34839" lon="6.35929">
        <ele>1160</ele>
        <time>2016-07-18T15:02:54.000Z</time>
      </trkpt>
      <trkpt lat="44.3484" lon="6.35926">
        <ele>1160</ele>
        <time>2016-07-18T15:02:59.000Z</time>
      </trkpt>
      <trkpt lat="44.34835" lon="6.35921">
        <ele>1159.5999755859</ele>
        <time>2016-07-18T15:03:07.000Z</time>
      </trkpt>
      <trkpt lat="44.34823" lon="6.35916">
        <ele>1158.5999755859</ele>
        <time>2016-07-18T15:03:15.000Z</time>
      </trkpt>
      <trkpt lat="44.34814" lon="6.35914">
        <ele>1157.8000488281</ele>
        <time>2016-07-18T15:03:22.000Z</time>
      </trkpt>
      <trkpt lat="44.34802" lon="6.3591">
        <ele>1156.8000488281</ele>
        <time>2016-07-18T15:03:30.000Z</time>
      </trkpt>
      <trkpt lat="44.3479" lon="6.35913">
        <ele>1156</ele>
        <time>2016-07-18T15:03:37.000Z</time>
      </trkpt>
      <trkpt lat="44.34781" lon="6.35913">
        <ele>1155.8000488281</ele>
        <time>2016-07-18T15:03:43.000Z</time>
      </trkpt>
      <trkpt lat="44.34771" lon="6.35915">
        <ele>1156</ele>
        <time>2016-07-18T15:03:50.000Z</time>
      </trkpt>
      <trkpt lat="44.3476" lon="6.35918">
        <ele>1156.1999511719</ele>
        <time>2016-07-18T15:03:56.000Z</time>
      </trkpt>
      <trkpt lat="44.34747" lon="6.35922">
        <ele>1156.5999755859</ele>
        <time>2016-07-18T15:04:05.000Z</time>
      </trkpt>
      <trkpt lat="44.34736" lon="6.35924">
        <ele>1156.8000488281</ele>
        <time>2016-07-18T15:04:13.000Z</time>
      </trkpt>
      <trkpt lat="44.34734" lon="6.35925">
        <ele>1156.8000488281</ele>
        <time>2016-07-18T15:04:14.000Z</time>
      </trkpt>
      <trkpt lat="44.34722" lon="6.35923">
        <ele>1156.8000488281</ele>
        <time>2016-07-18T15:04:20.000Z</time>
      </trkpt>
      <trkpt lat="44.34712" lon="6.35921">
        <ele>1156.5999755859</ele>
        <time>2016-07-18T15:04:27.000Z</time>
      </trkpt>
      <trkpt lat="44.34701" lon="6.35915">
        <ele>1156.1999511719</ele>
        <time>2016-07-18T15:04:34.000Z</time>
      </trkpt>
      <trkpt lat="44.34688" lon="6.35914">
        <ele>1156.1999511719</ele>
        <time>2016-07-18T15:04:42.000Z</time>
      </trkpt>
      <trkpt lat="44.34675" lon="6.35913">
        <ele>1156.1999511719</ele>
        <time>2016-07-18T15:04:50.000Z</time>
      </trkpt>
      <trkpt lat="44.34665" lon="6.35911">
        <ele>1156.1999511719</ele>
        <time>2016-07-18T15:04:57.000Z</time>
      </trkpt>
      <trkpt lat="44.34655" lon="6.35907">
        <ele>1156.1999511719</ele>
        <time>2016-07-18T15:05:04.000Z</time>
      </trkpt>
      <trkpt lat="44.34646" lon="6.35903">
        <ele>1156</ele>
        <time>2016-07-18T15:05:10.000Z</time>
      </trkpt>
      <trkpt lat="44.34637" lon="6.359">
        <ele>1156</ele>
        <time>2016-07-18T15:05:18.000Z</time>
      </trkpt>
      <trkpt lat="44.34629" lon="6.35897">
        <ele>1156</ele>
        <time>2016-07-18T15:05:24.000Z</time>
      </trkpt>
      <trkpt lat="44.34619" lon="6.35894">
        <ele>1156</ele>
        <time>2016-07-18T15:05:30.000Z</time>
      </trkpt>
      <trkpt lat="44.34604" lon="6.35887">
        <ele>1155.8000488281</ele>
        <time>2016-07-18T15:05:40.000Z</time>
      </trkpt>
      <trkpt lat="44.34593" lon="6.35886">
        <ele>1155.8000488281</ele>
        <time>2016-07-18T15:05:47.000Z</time>
      </trkpt>
      <trkpt lat="44.34582" lon="6.35885">
        <ele>1155.8000488281</ele>
        <time>2016-07-18T15:05:54.000Z</time>
      </trkpt>
      <trkpt lat="44.34566" lon="6.35886">
        <ele>1155.8000488281</ele>
        <time>2016-07-18T15:06:04.000Z</time>
      </trkpt>
      <trkpt lat="44.34554" lon="6.35887">
        <ele>1155.8000488281</ele>
        <time>2016-07-18T15:06:10.000Z</time>
      </trkpt>
      <trkpt lat="44.3454" lon="6.35888">
        <ele>1155.8000488281</ele>
        <time>2016-07-18T15:06:20.000Z</time>
      </trkpt>
      <trkpt lat="44.34524" lon="6.3589">
        <ele>1156</ele>
        <time>2016-07-18T15:06:30.000Z</time>
      </trkpt>
      <trkpt lat="44.34508" lon="6.35891">
        <ele>1156.5999755859</ele>
        <time>2016-07-18T15:06:40.000Z</time>
      </trkpt>
      <trkpt lat="44.34494" lon="6.35892">
        <ele>1157.1999511719</ele>
        <time>2016-07-18T15:06:49.000Z</time>
      </trkpt>
      <trkpt lat="44.34478" lon="6.35894">
        <ele>1157.8000488281</ele>
        <time>2016-07-18T15:06:59.000Z</time>
      </trkpt>
      <trkpt lat="44.34464" lon="6.35896">
        <ele>1158.4000244141</ele>
        <time>2016-07-18T15:07:08.000Z</time>
      </trkpt>
      <trkpt lat="44.34447" lon="6.35897">
        <ele>1159</ele>
        <time>2016-07-18T15:07:19.000Z</time>
      </trkpt>
      <trkpt lat="44.34434" lon="6.35895">
        <ele>1158.5999755859</ele>
        <time>2016-07-18T15:07:28.000Z</time>
      </trkpt>
      <trkpt lat="44.3442" lon="6.35889">
        <ele>1158.1999511719</ele>
        <time>2016-07-18T15:07:37.000Z</time>
      </trkpt>
      <trkpt lat="44.34405" lon="6.35878">
        <ele>1157.8000488281</ele>
        <time>2016-07-18T15:07:50.000Z</time>
      </trkpt>
      <trkpt lat="44.344" lon="6.35874">
        <ele>1157.5999755859</ele>
        <time>2016-07-18T15:07:54.000Z</time>
      </trkpt>
      <trkpt lat="44.34397" lon="6.35857">
        <ele>1157.4000244141</ele>
        <time>2016-07-18T15:08:03.000Z</time>
      </trkpt>
      <trkpt lat="44.34397" lon="6.35855">
        <ele>1157.1999511719</ele>
        <time>2016-07-18T15:08:04.000Z</time>
      </trkpt>
      <trkpt lat="44.34398" lon="6.35839">
        <ele>1156.8000488281</ele>
        <time>2016-07-18T15:08:12.000Z</time>
      </trkpt>
      <trkpt lat="44.34398" lon="6.35834">
        <ele>1156.8000488281</ele>
        <time>2016-07-18T15:08:14.000Z</time>
      </trkpt>
      <trkpt lat="44.34399" lon="6.35831">
        <ele>1156.5999755859</ele>
        <time>2016-07-18T15:08:16.000Z</time>
      </trkpt>
      <trkpt lat="44.344" lon="6.35814">
        <ele>1156</ele>
        <time>2016-07-18T15:08:24.000Z</time>
      </trkpt>
      <trkpt lat="44.34401" lon="6.35803">
        <ele>1155.5999755859</ele>
        <time>2016-07-18T15:08:30.000Z</time>
      </trkpt>
      <trkpt lat="44.34401" lon="6.35788">
        <ele>1155</ele>
        <time>2016-07-18T15:08:37.000Z</time>
      </trkpt>
      <trkpt lat="44.34402" lon="6.35772">
        <ele>1154.4000244141</ele>
        <time>2016-07-18T15:08:44.000Z</time>
      </trkpt>
      <trkpt lat="44.34403" lon="6.35758">
        <ele>1154.1999511719</ele>
        <time>2016-07-18T15:08:50.000Z</time>
      </trkpt>
      <trkpt lat="44.34403" lon="6.35749">
        <ele>1154.1999511719</ele>
        <time>2016-07-18T15:08:56.000Z</time>
      </trkpt>
      <trkpt lat="44.34403" lon="6.35744">
        <ele>1154</ele>
        <time>2016-07-18T15:08:58.000Z</time>
      </trkpt>
      <trkpt lat="44.34403" lon="6.35739">
        <ele>1154</ele>
        <time>2016-07-18T15:09:00.000Z</time>
      </trkpt>
      <trkpt lat="44.34406" lon="6.35728">
        <ele>1154</ele>
        <time>2016-07-18T15:09:07.000Z</time>
      </trkpt>
      <trkpt lat="44.34406" lon="6.3572">
        <ele>1153.8000488281</ele>
        <time>2016-07-18T15:09:12.000Z</time>
      </trkpt>
      <trkpt lat="44.34406" lon="6.35699">
        <ele>1153.1999511719</ele>
        <time>2016-07-18T15:09:22.000Z</time>
      </trkpt>
      <trkpt lat="44.34407" lon="6.3569">
        <ele>1153</ele>
        <time>2016-07-18T15:09:27.000Z</time>
      </trkpt>
      <trkpt lat="44.34406" lon="6.35672">
        <ele>1152.5999755859</ele>
        <time>2016-07-18T15:09:35.000Z</time>
      </trkpt>
      <trkpt lat="44.34406" lon="6.35656">
        <ele>1152.1999511719</ele>
        <time>2016-07-18T15:09:43.000Z</time>
      </trkpt>
      <trkpt lat="44.34405" lon="6.35634">
        <ele>1152</ele>
        <time>2016-07-18T15:09:53.000Z</time>
      </trkpt>
      <trkpt lat="44.34406" lon="6.35621">
        <ele>1152</ele>
        <time>2016-07-18T15:10:00.000Z</time>
      </trkpt>
      <trkpt lat="44.34406" lon="6.3562">
        <ele>1152</ele>
        <time>2016-07-18T15:10:01.000Z</time>
      </trkpt>
      <trkpt lat="44.34406" lon="6.35609">
        <ele>1152</ele>
        <time>2016-07-18T15:10:06.000Z</time>
      </trkpt>
      <trkpt lat="44.34407" lon="6.35603">
        <ele>1152</ele>
        <time>2016-07-18T15:10:09.000Z</time>
      </trkpt>
      <trkpt lat="44.34407" lon="6.35594">
        <ele>1152</ele>
        <time>2016-07-18T15:10:13.000Z</time>
      </trkpt>
      <trkpt lat="44.34408" lon="6.35592">
        <ele>1152</ele>
        <time>2016-07-18T15:10:14.000Z</time>
      </trkpt>
      <trkpt lat="44.34407" lon="6.35576">
        <ele>1152</ele>
        <time>2016-07-18T15:10:21.000Z</time>
      </trkpt>
      <trkpt lat="44.34408" lon="6.3557">
        <ele>1152</ele>
        <time>2016-07-18T15:10:24.000Z</time>
      </trkpt>
      <trkpt lat="44.3441" lon="6.35555">
        <ele>1151.5999755859</ele>
        <time>2016-07-18T15:10:31.000Z</time>
      </trkpt>
      <trkpt lat="44.3441" lon="6.35544">
        <ele>1151.1999511719</ele>
        <time>2016-07-18T15:10:35.000Z</time>
      </trkpt>
      <trkpt lat="44.34411" lon="6.35532">
        <ele>1150.5999755859</ele>
        <time>2016-07-18T15:10:42.000Z</time>
      </trkpt>
      <trkpt lat="44.34411" lon="6.3552">
        <ele>1150.4000244141</ele>
        <time>2016-07-18T15:10:48.000Z</time>
      </trkpt>
      <trkpt lat="44.34413" lon="6.35509">
        <ele>1150.5999755859</ele>
        <time>2016-07-18T15:10:54.000Z</time>
      </trkpt>
      <trkpt lat="44.34412" lon="6.35506">
        <ele>1150.4000244141</ele>
        <time>2016-07-18T15:10:55.000Z</time>
      </trkpt>
      <trkpt lat="44.34412" lon="6.35494">
        <ele>1150.4000244141</ele>
        <time>2016-07-18T15:11:01.000Z</time>
      </trkpt>
      <trkpt lat="44.34412" lon="6.35483">
        <ele>1150.4000244141</ele>
        <time>2016-07-18T15:11:06.000Z</time>
      </trkpt>
      <trkpt lat="44.34413" lon="6.35473">
        <ele>1150.5999755859</ele>
        <time>2016-07-18T15:11:11.000Z</time>
      </trkpt>
      <trkpt lat="44.34414" lon="6.35462">
        <ele>1150.8000488281</ele>
        <time>2016-07-18T15:11:15.000Z</time>
      </trkpt>
      <trkpt lat="44.34415" lon="6.3546">
        <ele>1151</ele>
        <time>2016-07-18T15:11:17.000Z</time>
      </trkpt>
      <trkpt lat="44.34418" lon="6.35456">
        <ele>1151.1999511719</ele>
        <time>2016-07-18T15:11:20.000Z</time>
      </trkpt>
      <trkpt lat="44.34424" lon="6.35451">
        <ele>1151.5999755859</ele>
        <time>2016-07-18T15:11:26.000Z</time>
      </trkpt>
      <trkpt lat="44.34431" lon="6.35447">
        <ele>1152</ele>
        <time>2016-07-18T15:11:31.000Z</time>
      </trkpt>
      <trkpt lat="44.34433" lon="6.35442">
        <ele>1152.1999511719</ele>
        <time>2016-07-18T15:11:33.000Z</time>
      </trkpt>
      <trkpt lat="44.34433" lon="6.35438">
        <ele>1152.1999511719</ele>
        <time>2016-07-18T15:11:35.000Z</time>
      </trkpt>
      <trkpt lat="44.34433" lon="6.35432">
        <ele>1152.1999511719</ele>
        <time>2016-07-18T15:11:38.000Z</time>
      </trkpt>
      <trkpt lat="44.34436" lon="6.35419">
        <ele>1152.4000244141</ele>
        <time>2016-07-18T15:11:46.000Z</time>
      </trkpt>
      <trkpt lat="44.34435" lon="6.35405">
        <ele>1152.1999511719</ele>
        <time>2016-07-18T15:11:53.000Z</time>
      </trkpt>
      <trkpt lat="44.34434" lon="6.35403">
        <ele>1152.1999511719</ele>
        <time>2016-07-18T15:11:54.000Z</time>
      </trkpt>
      <trkpt lat="44.34433" lon="6.35398">
        <ele>1152.1999511719</ele>
        <time>2016-07-18T15:11:57.000Z</time>
      </trkpt>
      <trkpt lat="44.34434" lon="6.3539">
        <ele>1152.1999511719</ele>
        <time>2016-07-18T15:12:01.000Z</time>
      </trkpt>
      <trkpt lat="44.34434" lon="6.35381">
        <ele>1152.1999511719</ele>
        <time>2016-07-18T15:12:04.000Z</time>
      </trkpt>
      <trkpt lat="44.34436" lon="6.35378">
        <ele>1152.1999511719</ele>
        <time>2016-07-18T15:12:05.000Z</time>
      </trkpt>
      <trkpt lat="44.34438" lon="6.35373">
        <ele>1152</ele>
        <time>2016-07-18T15:12:09.000Z</time>
      </trkpt>
      <trkpt lat="44.34439" lon="6.35367">
        <ele>1151.8000488281</ele>
        <time>2016-07-18T15:12:11.000Z</time>
      </trkpt>
      <trkpt lat="44.34443" lon="6.35366">
        <ele>1151.8000488281</ele>
        <time>2016-07-18T15:12:15.000Z</time>
      </trkpt>
      <trkpt lat="44.34444" lon="6.35363">
        <ele>1151.8000488281</ele>
        <time>2016-07-18T15:12:24.000Z</time>
      </trkpt>
      <trkpt lat="44.34439" lon="6.35357">
        <ele>1151.4000244141</ele>
        <time>2016-07-18T15:12:50.000Z</time>
      </trkpt>
      <trkpt lat="44.34438" lon="6.35352">
        <ele>1151.1999511719</ele>
        <time>2016-07-18T15:12:57.000Z</time>
      </trkpt>
      <trkpt lat="44.34432" lon="6.35346">
        <ele>1151</ele>
        <time>2016-07-18T15:13:02.000Z</time>
      </trkpt>
      <trkpt lat="44.34429" lon="6.35333">
        <ele>1150.4000244141</ele>
        <time>2016-07-18T15:13:10.000Z</time>
      </trkpt>
      <trkpt lat="44.34431" lon="6.35319">
        <ele>1150</ele>
        <time>2016-07-18T15:13:18.000Z</time>
      </trkpt>
      <trkpt lat="44.34432" lon="6.35318">
        <ele>1150</ele>
        <time>2016-07-18T15:13:19.000Z</time>
      </trkpt>
      <trkpt lat="44.34434" lon="6.35307">
        <ele>1149.8000488281</ele>
        <time>2016-07-18T15:13:24.000Z</time>
      </trkpt>
      <trkpt lat="44.34436" lon="6.35298">
        <ele>1149.5999755859</ele>
        <time>2016-07-18T15:13:29.000Z</time>
      </trkpt>
      <trkpt lat="44.34438" lon="6.35285">
        <ele>1149.5999755859</ele>
        <time>2016-07-18T15:13:35.000Z</time>
      </trkpt>
      <trkpt lat="44.3444" lon="6.35277">
        <ele>1149.4000244141</ele>
        <time>2016-07-18T15:13:41.000Z</time>
      </trkpt>
      <trkpt lat="44.3444" lon="6.35268">
        <ele>1149.4000244141</ele>
        <time>2016-07-18T15:13:49.000Z</time>
      </trkpt>
      <trkpt lat="44.34441" lon="6.35259">
        <ele>1149.1999511719</ele>
        <time>2016-07-18T15:13:55.000Z</time>
      </trkpt>
      <trkpt lat="44.34444" lon="6.35254">
        <ele>1149.1999511719</ele>
        <time>2016-07-18T15:13:59.000Z</time>
      </trkpt>
      <trkpt lat="44.34445" lon="6.35244">
        <ele>1149.1999511719</ele>
        <time>2016-07-18T15:14:05.000Z</time>
      </trkpt>
      <trkpt lat="44.34443" lon="6.35232">
        <ele>1149</ele>
        <time>2016-07-18T15:14:12.000Z</time>
      </trkpt>
      <trkpt lat="44.34442" lon="6.35225">
        <ele>1148.8000488281</ele>
        <time>2016-07-18T15:14:16.000Z</time>
      </trkpt>
      <trkpt lat="44.34447" lon="6.35209">
        <ele>1147.8000488281</ele>
        <time>2016-07-18T15:14:24.000Z</time>
      </trkpt>
      <trkpt lat="44.34453" lon="6.35198">
        <ele>1147</ele>
        <time>2016-07-18T15:14:31.000Z</time>
      </trkpt>
      <trkpt lat="44.34457" lon="6.35194">
        <ele>1146.8000488281</ele>
        <time>2016-07-18T15:14:35.000Z</time>
      </trkpt>
      <trkpt lat="44.34463" lon="6.3518">
        <ele>1146</ele>
        <time>2016-07-18T15:14:45.000Z</time>
      </trkpt>
      <trkpt lat="44.34465" lon="6.35176">
        <ele>1145.8000488281</ele>
        <time>2016-07-18T15:14:47.000Z</time>
      </trkpt>
      <trkpt lat="44.34468" lon="6.35169">
        <ele>1145.1999511719</ele>
        <time>2016-07-18T15:14:50.000Z</time>
      </trkpt>
      <trkpt lat="44.34473" lon="6.35162">
        <ele>1145.1999511719</ele>
        <time>2016-07-18T15:14:55.000Z</time>
      </trkpt>
      <trkpt lat="44.34476" lon="6.35156">
        <ele>1145</ele>
        <time>2016-07-18T15:14:59.000Z</time>
      </trkpt>
      <trkpt lat="44.3448" lon="6.35135">
        <ele>1144.4000244141</ele>
        <time>2016-07-18T15:15:08.000Z</time>
      </trkpt>
      <trkpt lat="44.3448" lon="6.35133">
        <ele>1144.1999511719</ele>
        <time>2016-07-18T15:15:09.000Z</time>
      </trkpt>
      <trkpt lat="44.34477" lon="6.35119">
        <ele>1143.5999755859</ele>
        <time>2016-07-18T15:15:16.000Z</time>
      </trkpt>
      <trkpt lat="44.34476" lon="6.35105">
        <ele>1143.1999511719</ele>
        <time>2016-07-18T15:15:22.000Z</time>
      </trkpt>
      <trkpt lat="44.34477" lon="6.35089">
        <ele>1142.5999755859</ele>
        <time>2016-07-18T15:15:29.000Z</time>
      </trkpt>
      <trkpt lat="44.34478" lon="6.35088">
        <ele>1142.5999755859</ele>
        <time>2016-07-18T15:15:30.000Z</time>
      </trkpt>
      <trkpt lat="44.34484" lon="6.35079">
        <ele>1142.4000244141</ele>
        <time>2016-07-18T15:15:35.000Z</time>
      </trkpt>
      <trkpt lat="44.34489" lon="6.35071">
        <ele>1142.1999511719</ele>
        <time>2016-07-18T15:15:40.000Z</time>
      </trkpt>
      <trkpt lat="44.34495" lon="6.35056">
        <ele>1142</ele>
        <time>2016-07-18T15:15:47.000Z</time>
      </trkpt>
      <trkpt lat="44.34495" lon="6.35055">
        <ele>1142</ele>
        <time>2016-07-18T15:15:48.000Z</time>
      </trkpt>
      <trkpt lat="44.34499" lon="6.35045">
        <ele>1141.8000488281</ele>
        <time>2016-07-18T15:15:53.000Z</time>
      </trkpt>
      <trkpt lat="44.34504" lon="6.35033">
        <ele>1141.5999755859</ele>
        <time>2016-07-18T15:15:59.000Z</time>
      </trkpt>
      <trkpt lat="44.34505" lon="6.35017">
        <ele>1141.4000244141</ele>
        <time>2016-07-18T15:16:07.000Z</time>
      </trkpt>
      <trkpt lat="44.34507" lon="6.34998">
        <ele>1141.4000244141</ele>
        <time>2016-07-18T15:16:15.000Z</time>
      </trkpt>
      <trkpt lat="44.34509" lon="6.34986">
        <ele>1141.1999511719</ele>
        <time>2016-07-18T15:16:22.000Z</time>
      </trkpt>
      <trkpt lat="44.34508" lon="6.34972">
        <ele>1141.1999511719</ele>
        <time>2016-07-18T15:16:28.000Z</time>
      </trkpt>
      <trkpt lat="44.3451" lon="6.34956">
        <ele>1141.4000244141</ele>
        <time>2016-07-18T15:16:35.000Z</time>
      </trkpt>
      <trkpt lat="44.34511" lon="6.34952">
        <ele>1141.4000244141</ele>
        <time>2016-07-18T15:16:38.000Z</time>
      </trkpt>
      <trkpt lat="44.34511" lon="6.34943">
        <ele>1141.8000488281</ele>
        <time>2016-07-18T15:16:43.000Z</time>
      </trkpt>
      <trkpt lat="44.34512" lon="6.34937">
        <ele>1142</ele>
        <time>2016-07-18T15:16:45.000Z</time>
      </trkpt>
      <trkpt lat="44.34514" lon="6.34931">
        <ele>1142.1999511719</ele>
        <time>2016-07-18T15:16:50.000Z</time>
      </trkpt>
      <trkpt lat="44.34515" lon="6.34927">
        <ele>1142.4000244141</ele>
        <time>2016-07-18T15:16:53.000Z</time>
      </trkpt>
      <trkpt lat="44.34518" lon="6.34915">
        <ele>1142.8000488281</ele>
        <time>2016-07-18T15:16:59.000Z</time>
      </trkpt>
      <trkpt lat="44.3452" lon="6.34903">
        <ele>1143.1999511719</ele>
        <time>2016-07-18T15:17:05.000Z</time>
      </trkpt>
      <trkpt lat="44.34522" lon="6.34888">
        <ele>1143.4000244141</ele>
        <time>2016-07-18T15:17:12.000Z</time>
      </trkpt>
      <trkpt lat="44.34523" lon="6.34885">
        <ele>1143.4000244141</ele>
        <time>2016-07-18T15:17:14.000Z</time>
      </trkpt>
      <trkpt lat="44.3452" lon="6.34871">
        <ele>1143</ele>
        <time>2016-07-18T15:17:22.000Z</time>
      </trkpt>
      <trkpt lat="44.34516" lon="6.34864">
        <ele>1142.5999755859</ele>
        <time>2016-07-18T15:17:27.000Z</time>
      </trkpt>
      <trkpt lat="44.34511" lon="6.34851">
        <ele>1142.1999511719</ele>
        <time>2016-07-18T15:17:34.000Z</time>
      </trkpt>
      <trkpt lat="44.34506" lon="6.34836">
        <ele>1141.8000488281</ele>
        <time>2016-07-18T15:17:42.000Z</time>
      </trkpt>
      <trkpt lat="44.34504" lon="6.34829">
        <ele>1141.5999755859</ele>
        <time>2016-07-18T15:17:47.000Z</time>
      </trkpt>
      <trkpt lat="44.34501" lon="6.34818">
        <ele>1141.1999511719</ele>
        <time>2016-07-18T15:17:53.000Z</time>
      </trkpt>
      <trkpt lat="44.34497" lon="6.34805">
        <ele>1141</ele>
        <time>2016-07-18T15:18:01.000Z</time>
      </trkpt>
      <trkpt lat="44.34496" lon="6.34791">
        <ele>1141</ele>
        <time>2016-07-18T15:18:07.000Z</time>
      </trkpt>
      <trkpt lat="44.34496" lon="6.34787">
        <ele>1140.8000488281</ele>
        <time>2016-07-18T15:18:09.000Z</time>
      </trkpt>
      <trkpt lat="44.34499" lon="6.3477">
        <ele>1140.5999755859</ele>
        <time>2016-07-18T15:18:15.000Z</time>
      </trkpt>
      <trkpt lat="44.34506" lon="6.34753">
        <ele>1140.1999511719</ele>
        <time>2016-07-18T15:18:23.000Z</time>
      </trkpt>
      <trkpt lat="44.34508" lon="6.34735">
        <ele>1139.5999755859</ele>
        <time>2016-07-18T15:18:30.000Z</time>
      </trkpt>
      <trkpt lat="44.34485" lon="6.34684">
        <ele>1139.4000244141</ele>
        <time>2016-07-18T15:18:55.000Z</time>
      </trkpt>
      <trkpt lat="44.34478" lon="6.34665">
        <ele>1139</ele>
        <time>2016-07-18T15:19:05.000Z</time>
      </trkpt>
      <trkpt lat="44.34472" lon="6.34647">
        <ele>1138.8000488281</ele>
        <time>2016-07-18T15:19:14.000Z</time>
      </trkpt>
      <trkpt lat="44.3447" lon="6.34645">
        <ele>1138.5999755859</ele>
        <time>2016-07-18T15:19:16.000Z</time>
      </trkpt>
      <trkpt lat="44.34472" lon="6.34631">
        <ele>1138.5999755859</ele>
        <time>2016-07-18T15:19:23.000Z</time>
      </trkpt>
      <trkpt lat="44.34481" lon="6.34621">
        <ele>1138.1999511719</ele>
        <time>2016-07-18T15:19:30.000Z</time>
      </trkpt>
      <trkpt lat="44.34494" lon="6.34618">
        <ele>1138</ele>
        <time>2016-07-18T15:19:39.000Z</time>
      </trkpt>
      <trkpt lat="44.34506" lon="6.34622">
        <ele>1138</ele>
        <time>2016-07-18T15:19:48.000Z</time>
      </trkpt>
      <trkpt lat="44.34508" lon="6.34622">
        <ele>1138</ele>
        <time>2016-07-18T15:19:50.000Z</time>
      </trkpt>
      <trkpt lat="44.34519" lon="6.34613">
        <ele>1138</ele>
        <time>2016-07-18T15:19:59.000Z</time>
      </trkpt>
      <trkpt lat="44.34521" lon="6.34608">
        <ele>1138</ele>
        <time>2016-07-18T15:20:02.000Z</time>
      </trkpt>
      <trkpt lat="44.34523" lon="6.34596">
        <ele>1138</ele>
        <time>2016-07-18T15:20:24.000Z</time>
      </trkpt>
      <trkpt lat="44.34526" lon="6.34581">
        <ele>1138</ele>
        <time>2016-07-18T15:20:32.000Z</time>
      </trkpt>
      <trkpt lat="44.34534" lon="6.34565">
        <ele>1138</ele>
        <time>2016-07-18T15:20:40.000Z</time>
      </trkpt>
      <trkpt lat="44.34539" lon="6.34558">
        <ele>1137.8000488281</ele>
        <time>2016-07-18T15:20:46.000Z</time>
      </trkpt>
      <trkpt lat="44.3454" lon="6.34557">
        <ele>1137.8000488281</ele>
        <time>2016-07-18T15:20:52.000Z</time>
      </trkpt>
      <trkpt lat="44.34542" lon="6.34555">
        <ele>1137.8000488281</ele>
        <time>2016-07-18T15:21:09.000Z</time>
      </trkpt>
      <trkpt lat="44.34552" lon="6.3456">
        <ele>1137.5999755859</ele>
        <time>2016-07-18T15:21:17.000Z</time>
      </trkpt>
      <trkpt lat="44.3456" lon="6.34563">
        <ele>1137.5999755859</ele>
        <time>2016-07-18T15:21:25.000Z</time>
      </trkpt>
      <trkpt lat="44.34567" lon="6.34559">
        <ele>1137.5999755859</ele>
        <time>2016-07-18T15:21:43.000Z</time>
      </trkpt>
      <trkpt lat="44.34577" lon="6.34558">
        <ele>1137.4000244141</ele>
        <time>2016-07-18T15:21:51.000Z</time>
      </trkpt>
      <trkpt lat="44.34584" lon="6.3456">
        <ele>1137.4000244141</ele>
        <time>2016-07-18T15:21:57.000Z</time>
      </trkpt>
      <trkpt lat="44.34593" lon="6.34563">
        <ele>1137.1999511719</ele>
        <time>2016-07-18T15:22:04.000Z</time>
      </trkpt>
      <trkpt lat="44.34597" lon="6.34563">
        <ele>1137.1999511719</ele>
        <time>2016-07-18T15:22:07.000Z</time>
      </trkpt>
      <trkpt lat="44.34601" lon="6.34558">
        <ele>1137</ele>
        <time>2016-07-18T15:22:12.000Z</time>
      </trkpt>
      <trkpt lat="44.34605" lon="6.34542">
        <ele>1136.5999755859</ele>
        <time>2016-07-18T15:22:21.000Z</time>
      </trkpt>
      <trkpt lat="44.34606" lon="6.34534">
        <ele>1136.4000244141</ele>
        <time>2016-07-18T15:22:28.000Z</time>
      </trkpt>
      <trkpt lat="44.34606" lon="6.34533">
        <ele>1136.4000244141</ele>
        <time>2016-07-18T15:22:32.000Z</time>
      </trkpt>
    </trkseg>
  </trk>
  <trk>
    <name><![CDATA[04 - Seyne nord - Montclar]]></name>
    <extensions>
      <line xmlns="http://www.topografix.com/GPX/gpx_style/0/2">
        <color>FF0000</color>
        <width>4</width>
      </line>
    </extensions>
    <trkseg>
      <trkpt lat="44.34603" lon="6.34549">
        <ele>1136.8000488281</ele>
        <time>2016-07-11T06:56:07.000Z</time>
      </trkpt>
      <trkpt lat="44.34603" lon="6.34549">
        <ele>1136.8000488281</ele>
        <time>2016-07-11T06:56:07.000Z</time>
      </trkpt>
      <trkpt lat="44.34605" lon="6.34555">
        <ele>1137</ele>
        <time>2016-07-11T06:56:11.000Z</time>
      </trkpt>
      <trkpt lat="44.34604" lon="6.34564">
        <ele>1137.1999511719</ele>
        <time>2016-07-11T06:56:16.000Z</time>
      </trkpt>
      <trkpt lat="44.34605" lon="6.34566">
        <ele>1137.1999511719</ele>
        <time>2016-07-11T06:56:17.000Z</time>
      </trkpt>
      <trkpt lat="44.34605" lon="6.34567">
        <ele>1137.1999511719</ele>
        <time>2016-07-11T06:56:18.000Z</time>
      </trkpt>
      <trkpt lat="44.34611" lon="6.34571">
        <ele>1137</ele>
        <time>2016-07-11T06:56:23.000Z</time>
      </trkpt>
      <trkpt lat="44.34623" lon="6.34575">
        <ele>1136.4000244141</ele>
        <time>2016-07-11T06:56:32.000Z</time>
      </trkpt>
      <trkpt lat="44.34635" lon="6.34577">
        <ele>1136</ele>
        <time>2016-07-11T06:56:41.000Z</time>
      </trkpt>
      <trkpt lat="44.34639" lon="6.34577">
        <ele>1135.8000488281</ele>
        <time>2016-07-11T06:56:44.000Z</time>
      </trkpt>
      <trkpt lat="44.34651" lon="6.34579">
        <ele>1135.4000244141</ele>
        <time>2016-07-11T06:56:53.000Z</time>
      </trkpt>
      <trkpt lat="44.34661" lon="6.34579">
        <ele>1135</ele>
        <time>2016-07-11T06:57:00.000Z</time>
      </trkpt>
      <trkpt lat="44.34668" lon="6.3458">
        <ele>1134.5999755859</ele>
        <time>2016-07-11T06:57:06.000Z</time>
      </trkpt>
      <trkpt lat="44.34668" lon="6.34581">
        <ele>1134.5999755859</ele>
        <time>2016-07-11T06:57:07.000Z</time>
      </trkpt>
      <trkpt lat="44.34669" lon="6.34582">
        <ele>1134.5999755859</ele>
        <time>2016-07-11T06:57:15.000Z</time>
      </trkpt>
      <trkpt lat="44.34671" lon="6.3458">
        <ele>1134.5999755859</ele>
        <time>2016-07-11T06:57:22.000Z</time>
      </trkpt>
      <trkpt lat="44.34677" lon="6.3458">
        <ele>1134.4000244141</ele>
        <time>2016-07-11T06:57:27.000Z</time>
      </trkpt>
      <trkpt lat="44.34685" lon="6.34579">
        <ele>1134.1999511719</ele>
        <time>2016-07-11T06:57:33.000Z</time>
      </trkpt>
      <trkpt lat="44.34692" lon="6.34576">
        <ele>1133.8000488281</ele>
        <time>2016-07-11T06:57:39.000Z</time>
      </trkpt>
      <trkpt lat="44.34704" lon="6.34575">
        <ele>1133.5999755859</ele>
        <time>2016-07-11T06:57:47.000Z</time>
      </trkpt>
      <trkpt lat="44.34712" lon="6.34574">
        <ele>1133.1999511719</ele>
        <time>2016-07-11T06:57:53.000Z</time>
      </trkpt>
      <trkpt lat="44.34724" lon="6.34578">
        <ele>1132.5999755859</ele>
        <time>2016-07-11T06:58:01.000Z</time>
      </trkpt>
      <trkpt lat="44.34736" lon="6.34583">
        <ele>1131.8000488281</ele>
        <time>2016-07-11T06:58:10.000Z</time>
      </trkpt>
      <trkpt lat="44.34748" lon="6.34588">
        <ele>1131.1999511719</ele>
        <time>2016-07-11T06:58:19.000Z</time>
      </trkpt>
      <trkpt lat="44.34759" lon="6.34596">
        <ele>1130.5999755859</ele>
        <time>2016-07-11T06:58:27.000Z</time>
      </trkpt>
      <trkpt lat="44.34762" lon="6.34609">
        <ele>1130.5999755859</ele>
        <time>2016-07-11T06:58:33.000Z</time>
      </trkpt>
      <trkpt lat="44.3476" lon="6.34649">
        <ele>1130.5999755859</ele>
        <time>2016-07-11T06:58:50.000Z</time>
      </trkpt>
      <trkpt lat="44.34758" lon="6.34665">
        <ele>1131</ele>
        <time>2016-07-11T06:58:58.000Z</time>
      </trkpt>
      <trkpt lat="44.34757" lon="6.34684">
        <ele>1131.4000244141</ele>
        <time>2016-07-11T06:59:07.000Z</time>
      </trkpt>
      <trkpt lat="44.34757" lon="6.347">
        <ele>1131.8000488281</ele>
        <time>2016-07-11T06:59:15.000Z</time>
      </trkpt>
      <trkpt lat="44.34759" lon="6.34721">
        <ele>1132</ele>
        <time>2016-07-11T06:59:25.000Z</time>
      </trkpt>
      <trkpt lat="44.34763" lon="6.3474">
        <ele>1132.1999511719</ele>
        <time>2016-07-11T06:59:35.000Z</time>
      </trkpt>
      <trkpt lat="44.34769" lon="6.34756">
        <ele>1132.5999755859</ele>
        <time>2016-07-11T06:59:44.000Z</time>
      </trkpt>
      <trkpt lat="44.34772" lon="6.34763">
        <ele>1132.8000488281</ele>
        <time>2016-07-11T06:59:48.000Z</time>
      </trkpt>
      <trkpt lat="44.34774" lon="6.34763">
        <ele>1132.8000488281</ele>
        <time>2016-07-11T06:59:54.000Z</time>
      </trkpt>
      <trkpt lat="44.34776" lon="6.34769">
        <ele>1133</ele>
        <time>2016-07-11T06:59:59.000Z</time>
      </trkpt>
      <trkpt lat="44.34783" lon="6.34782">
        <ele>1133.1999511719</ele>
        <time>2016-07-11T07:00:08.000Z</time>
      </trkpt>
      <trkpt lat="44.3479" lon="6.34792">
        <ele>1133.4000244141</ele>
        <time>2016-07-11T07:00:16.000Z</time>
      </trkpt>
      <trkpt lat="44.34797" lon="6.34802">
        <ele>1133.5999755859</ele>
        <time>2016-07-11T07:00:23.000Z</time>
      </trkpt>
      <trkpt lat="44.34801" lon="6.34808">
        <ele>1133.8000488281</ele>
        <time>2016-07-11T07:00:28.000Z</time>
      </trkpt>
      <trkpt lat="44.34804" lon="6.34806">
        <ele>1133.8000488281</ele>
        <time>2016-07-11T07:00:33.000Z</time>
      </trkpt>
      <trkpt lat="44.34803" lon="6.34807">
        <ele>1133.8000488281</ele>
        <time>2016-07-11T07:00:38.000Z</time>
      </trkpt>
      <trkpt lat="44.34803" lon="6.34808">
        <ele>1133.8000488281</ele>
        <time>2016-07-11T07:00:39.000Z</time>
      </trkpt>
      <trkpt lat="44.34812" lon="6.34824">
        <ele>1134.1999511719</ele>
        <time>2016-07-11T07:00:50.000Z</time>
      </trkpt>
      <trkpt lat="44.3482" lon="6.34836">
        <ele>1134.5999755859</ele>
        <time>2016-07-11T07:00:59.000Z</time>
      </trkpt>
      <trkpt lat="44.34828" lon="6.34847">
        <ele>1134.8000488281</ele>
        <time>2016-07-11T07:01:08.000Z</time>
      </trkpt>
      <trkpt lat="44.34839" lon="6.34859">
        <ele>1135</ele>
        <time>2016-07-11T07:01:18.000Z</time>
      </trkpt>
      <trkpt lat="44.34851" lon="6.34871">
        <ele>1135.4000244141</ele>
        <time>2016-07-11T07:01:28.000Z</time>
      </trkpt>
      <trkpt lat="44.34859" lon="6.3488">
        <ele>1135.5999755859</ele>
        <time>2016-07-11T07:01:36.000Z</time>
      </trkpt>
      <trkpt lat="44.34869" lon="6.34893">
        <ele>1135.8000488281</ele>
        <time>2016-07-11T07:01:46.000Z</time>
      </trkpt>
      <trkpt lat="44.34878" lon="6.34906">
        <ele>1136.1999511719</ele>
        <time>2016-07-11T07:01:56.000Z</time>
      </trkpt>
      <trkpt lat="44.34885" lon="6.34918">
        <ele>1136.4000244141</ele>
        <time>2016-07-11T07:02:04.000Z</time>
      </trkpt>
      <trkpt lat="44.34891" lon="6.34931">
        <ele>1136.8000488281</ele>
        <time>2016-07-11T07:02:12.000Z</time>
      </trkpt>
      <trkpt lat="44.34891" lon="6.34933">
        <ele>1136.8000488281</ele>
        <time>2016-07-11T07:02:13.000Z</time>
      </trkpt>
      <trkpt lat="44.34893" lon="6.3494">
        <ele>1136.8000488281</ele>
        <time>2016-07-11T07:02:18.000Z</time>
      </trkpt>
      <trkpt lat="44.34894" lon="6.34942">
        <ele>1136.8000488281</ele>
        <time>2016-07-11T07:02:19.000Z</time>
      </trkpt>
      <trkpt lat="44.34901" lon="6.34958">
        <ele>1137.1999511719</ele>
        <time>2016-07-11T07:02:29.000Z</time>
      </trkpt>
      <trkpt lat="44.34903" lon="6.3496">
        <ele>1137.1999511719</ele>
        <time>2016-07-11T07:02:31.000Z</time>
      </trkpt>
      <trkpt lat="44.34906" lon="6.3497">
        <ele>1137.4000244141</ele>
        <time>2016-07-11T07:02:37.000Z</time>
      </trkpt>
      <trkpt lat="44.34915" lon="6.34991">
        <ele>1137.8000488281</ele>
        <time>2016-07-11T07:02:49.000Z</time>
      </trkpt>
      <trkpt lat="44.34922" lon="6.35005">
        <ele>1138</ele>
        <time>2016-07-11T07:02:58.000Z</time>
      </trkpt>
      <trkpt lat="44.34929" lon="6.35017">
        <ele>1138.1999511719</ele>
        <time>2016-07-11T07:03:06.000Z</time>
      </trkpt>
      <trkpt lat="44.3493" lon="6.35018">
        <ele>1138.1999511719</ele>
        <time>2016-07-11T07:03:07.000Z</time>
      </trkpt>
      <trkpt lat="44.34931" lon="6.35019">
        <ele>1138.1999511719</ele>
        <time>2016-07-11T07:03:35.000Z</time>
      </trkpt>
      <trkpt lat="44.34933" lon="6.35019">
        <ele>1138.1999511719</ele>
        <time>2016-07-11T07:03:47.000Z</time>
      </trkpt>
      <trkpt lat="44.34942" lon="6.35034">
        <ele>1138.5999755859</ele>
        <time>2016-07-11T07:04:03.000Z</time>
      </trkpt>
      <trkpt lat="44.34949" lon="6.35047">
        <ele>1138.8000488281</ele>
        <time>2016-07-11T07:04:10.000Z</time>
      </trkpt>
      <trkpt lat="44.34956" lon="6.35063">
        <ele>1139</ele>
        <time>2016-07-11T07:04:19.000Z</time>
      </trkpt>
      <trkpt lat="44.34958" lon="6.35076">
        <ele>1140.5999755859</ele>
        <time>2016-07-11T07:04:25.000Z</time>
      </trkpt>
      <trkpt lat="44.34957" lon="6.3508">
        <ele>1140.8000488281</ele>
        <time>2016-07-11T07:04:27.000Z</time>
      </trkpt>
      <trkpt lat="44.3495" lon="6.35099">
        <ele>1141.5999755859</ele>
        <time>2016-07-11T07:04:37.000Z</time>
      </trkpt>
      <trkpt lat="44.34944" lon="6.35109">
        <ele>1142.1999511719</ele>
        <time>2016-07-11T07:04:43.000Z</time>
      </trkpt>
      <trkpt lat="44.34938" lon="6.35122">
        <ele>1142.8000488281</ele>
        <time>2016-07-11T07:04:50.000Z</time>
      </trkpt>
      <trkpt lat="44.3493" lon="6.35135">
        <ele>1143.4000244141</ele>
        <time>2016-07-11T07:04:58.000Z</time>
      </trkpt>
      <trkpt lat="44.3492" lon="6.3515">
        <ele>1143.4000244141</ele>
        <time>2016-07-11T07:05:08.000Z</time>
      </trkpt>
      <trkpt lat="44.34912" lon="6.35165">
        <ele>1144.4000244141</ele>
        <time>2016-07-11T07:05:16.000Z</time>
      </trkpt>
      <trkpt lat="44.34903" lon="6.35179">
        <ele>1145.5999755859</ele>
        <time>2016-07-11T07:05:25.000Z</time>
      </trkpt>
      <trkpt lat="44.34894" lon="6.35195">
        <ele>1145.5999755859</ele>
        <time>2016-07-11T07:05:34.000Z</time>
      </trkpt>
      <trkpt lat="44.34884" lon="6.3521">
        <ele>1145</ele>
        <time>2016-07-11T07:05:43.000Z</time>
      </trkpt>
      <trkpt lat="44.3488" lon="6.35217">
        <ele>1144.5999755859</ele>
        <time>2016-07-11T07:05:47.000Z</time>
      </trkpt>
      <trkpt lat="44.34874" lon="6.35237">
        <ele>1145.4000244141</ele>
        <time>2016-07-11T07:05:58.000Z</time>
      </trkpt>
      <trkpt lat="44.34862" lon="6.35254">
        <ele>1144.4000244141</ele>
        <time>2016-07-11T07:06:09.000Z</time>
      </trkpt>
      <trkpt lat="44.34859" lon="6.35259">
        <ele>1144.5999755859</ele>
        <time>2016-07-11T07:06:14.000Z</time>
      </trkpt>
      <trkpt lat="44.34854" lon="6.35267">
        <ele>1144.8000488281</ele>
        <time>2016-07-11T07:06:19.000Z</time>
      </trkpt>
      <trkpt lat="44.34851" lon="6.35274">
        <ele>1145.1999511719</ele>
        <time>2016-07-11T07:06:24.000Z</time>
      </trkpt>
      <trkpt lat="44.34845" lon="6.35286">
        <ele>1145.5999755859</ele>
        <time>2016-07-11T07:06:31.000Z</time>
      </trkpt>
      <trkpt lat="44.34841" lon="6.35297">
        <ele>1146</ele>
        <time>2016-07-11T07:06:37.000Z</time>
      </trkpt>
      <trkpt lat="44.34841" lon="6.35302">
        <ele>1146.1999511719</ele>
        <time>2016-07-11T07:06:40.000Z</time>
      </trkpt>
      <trkpt lat="44.34844" lon="6.35309">
        <ele>1146.5999755859</ele>
        <time>2016-07-11T07:06:45.000Z</time>
      </trkpt>
      <trkpt lat="44.34846" lon="6.35319">
        <ele>1147</ele>
        <time>2016-07-11T07:06:51.000Z</time>
      </trkpt>
      <trkpt lat="44.34847" lon="6.35321">
        <ele>1147</ele>
        <time>2016-07-11T07:06:52.000Z</time>
      </trkpt>
      <trkpt lat="44.34849" lon="6.3533">
        <ele>1147</ele>
        <time>2016-07-11T07:06:58.000Z</time>
      </trkpt>
      <trkpt lat="44.3485" lon="6.35332">
        <ele>1147.1999511719</ele>
        <time>2016-07-11T07:06:59.000Z</time>
      </trkpt>
      <trkpt lat="44.34852" lon="6.35336">
        <ele>1147.1999511719</ele>
        <time>2016-07-11T07:07:03.000Z</time>
      </trkpt>
      <trkpt lat="44.34858" lon="6.35343">
        <ele>1147.5999755859</ele>
        <time>2016-07-11T07:07:10.000Z</time>
      </trkpt>
      <trkpt lat="44.34863" lon="6.35343">
        <ele>1148</ele>
        <time>2016-07-11T07:07:14.000Z</time>
      </trkpt>
      <trkpt lat="44.3487" lon="6.35345">
        <ele>1148.8000488281</ele>
        <time>2016-07-11T07:07:19.000Z</time>
      </trkpt>
      <trkpt lat="44.34871" lon="6.35345">
        <ele>1149</ele>
        <time>2016-07-11T07:07:20.000Z</time>
      </trkpt>
      <trkpt lat="44.34881" lon="6.35347">
        <ele>1150.5999755859</ele>
        <time>2016-07-11T07:07:27.000Z</time>
      </trkpt>
      <trkpt lat="44.34886" lon="6.35348">
        <ele>1151.4000244141</ele>
        <time>2016-07-11T07:07:31.000Z</time>
      </trkpt>
      <trkpt lat="44.34897" lon="6.35353">
        <ele>1153</ele>
        <time>2016-07-11T07:07:39.000Z</time>
      </trkpt>
      <trkpt lat="44.34912" lon="6.35363">
        <ele>1155.4000244141</ele>
        <time>2016-07-11T07:07:49.000Z</time>
      </trkpt>
      <trkpt lat="44.34914" lon="6.35366">
        <ele>1155.8000488281</ele>
        <time>2016-07-11T07:07:51.000Z</time>
      </trkpt>
      <trkpt lat="44.34918" lon="6.35369">
        <ele>1156.4000244141</ele>
        <time>2016-07-11T07:07:54.000Z</time>
      </trkpt>
      <trkpt lat="44.34924" lon="6.35376">
        <ele>1157.4000244141</ele>
        <time>2016-07-11T07:07:59.000Z</time>
      </trkpt>
      <trkpt lat="44.34934" lon="6.35385">
        <ele>1159</ele>
        <time>2016-07-11T07:08:07.000Z</time>
      </trkpt>
      <trkpt lat="44.34943" lon="6.35394">
        <ele>1160.4000244141</ele>
        <time>2016-07-11T07:08:14.000Z</time>
      </trkpt>
      <trkpt lat="44.34944" lon="6.35396">
        <ele>1160.4000244141</ele>
        <time>2016-07-11T07:08:15.000Z</time>
      </trkpt>
      <trkpt lat="44.34951" lon="6.35405">
        <ele>1162</ele>
        <time>2016-07-11T07:08:22.000Z</time>
      </trkpt>
      <trkpt lat="44.34952" lon="6.35406">
        <ele>1162.1999511719</ele>
        <time>2016-07-11T07:08:23.000Z</time>
      </trkpt>
      <trkpt lat="44.34957" lon="6.35412">
        <ele>1163.8000488281</ele>
        <time>2016-07-11T07:08:27.000Z</time>
      </trkpt>
      <trkpt lat="44.34964" lon="6.35419">
        <ele>1165.5999755859</ele>
        <time>2016-07-11T07:08:34.000Z</time>
      </trkpt>
      <trkpt lat="44.34967" lon="6.35424">
        <ele>1166.4000244141</ele>
        <time>2016-07-11T07:08:39.000Z</time>
      </trkpt>
      <trkpt lat="44.3497" lon="6.35426">
        <ele>1167.1999511719</ele>
        <time>2016-07-11T07:08:41.000Z</time>
      </trkpt>
      <trkpt lat="44.34976" lon="6.35428">
        <ele>1168.8000488281</ele>
        <time>2016-07-11T07:08:46.000Z</time>
      </trkpt>
      <trkpt lat="44.34977" lon="6.35431">
        <ele>1169.1999511719</ele>
        <time>2016-07-11T07:08:48.000Z</time>
      </trkpt>
      <trkpt lat="44.34975" lon="6.35442">
        <ele>1168.5999755859</ele>
        <time>2016-07-11T07:08:55.000Z</time>
      </trkpt>
      <trkpt lat="44.3497" lon="6.3546">
        <ele>1167.5999755859</ele>
        <time>2016-07-11T07:09:04.000Z</time>
      </trkpt>
      <trkpt lat="44.34968" lon="6.35468">
        <ele>1167.1999511719</ele>
        <time>2016-07-11T07:09:09.000Z</time>
      </trkpt>
      <trkpt lat="44.34967" lon="6.35472">
        <ele>1167</ele>
        <time>2016-07-11T07:09:11.000Z</time>
      </trkpt>
      <trkpt lat="44.34971" lon="6.35479">
        <ele>1168.1999511719</ele>
        <time>2016-07-11T07:09:17.000Z</time>
      </trkpt>
      <trkpt lat="44.34972" lon="6.3548">
        <ele>1168.4000244141</ele>
        <time>2016-07-11T07:09:18.000Z</time>
      </trkpt>
      <trkpt lat="44.34978" lon="6.35486">
        <ele>1170.5999755859</ele>
        <time>2016-07-11T07:09:23.000Z</time>
      </trkpt>
      <trkpt lat="44.34979" lon="6.35488">
        <ele>1171</ele>
        <time>2016-07-11T07:09:24.000Z</time>
      </trkpt>
      <trkpt lat="44.34981" lon="6.35494">
        <ele>1172</ele>
        <time>2016-07-11T07:09:29.000Z</time>
      </trkpt>
      <trkpt lat="44.34977" lon="6.35496">
        <ele>1171.1999511719</ele>
        <time>2016-07-11T07:09:33.000Z</time>
      </trkpt>
      <trkpt lat="44.34975" lon="6.35498">
        <ele>1170.8000488281</ele>
        <time>2016-07-11T07:09:35.000Z</time>
      </trkpt>
      <trkpt lat="44.34973" lon="6.35501">
        <ele>1170.5999755859</ele>
        <time>2016-07-11T07:09:38.000Z</time>
      </trkpt>
      <trkpt lat="44.34976" lon="6.35509">
        <ele>1172.1999511719</ele>
        <time>2016-07-11T07:09:43.000Z</time>
      </trkpt>
      <trkpt lat="44.34972" lon="6.35516">
        <ele>1171.5999755859</ele>
        <time>2016-07-11T07:09:48.000Z</time>
      </trkpt>
      <trkpt lat="44.34971" lon="6.35525">
        <ele>1172</ele>
        <time>2016-07-11T07:09:52.000Z</time>
      </trkpt>
      <trkpt lat="44.34972" lon="6.35527">
        <ele>1172.4000244141</ele>
        <time>2016-07-11T07:09:53.000Z</time>
      </trkpt>
      <trkpt lat="44.34984" lon="6.35536">
        <ele>1176.4000244141</ele>
        <time>2016-07-11T07:10:02.000Z</time>
      </trkpt>
      <trkpt lat="44.34986" lon="6.35546">
        <ele>1177.8000488281</ele>
        <time>2016-07-11T07:10:07.000Z</time>
      </trkpt>
      <trkpt lat="44.34986" lon="6.35549">
        <ele>1178.1999511719</ele>
        <time>2016-07-11T07:10:09.000Z</time>
      </trkpt>
      <trkpt lat="44.34988" lon="6.35548">
        <ele>1178.5999755859</ele>
        <time>2016-07-11T07:10:15.000Z</time>
      </trkpt>
      <trkpt lat="44.3499" lon="6.35543">
        <ele>1178.8000488281</ele>
        <time>2016-07-11T07:10:19.000Z</time>
      </trkpt>
      <trkpt lat="44.34994" lon="6.35542">
        <ele>1179.5999755859</ele>
        <time>2016-07-11T07:10:23.000Z</time>
      </trkpt>
      <trkpt lat="44.34996" lon="6.3554">
        <ele>1180.1999511719</ele>
        <time>2016-07-11T07:10:29.000Z</time>
      </trkpt>
      <trkpt lat="44.34997" lon="6.35535">
        <ele>1180</ele>
        <time>2016-07-11T07:10:35.000Z</time>
      </trkpt>
      <trkpt lat="44.34996" lon="6.3554">
        <ele>1180.1999511719</ele>
        <time>2016-07-11T07:10:41.000Z</time>
      </trkpt>
      <trkpt lat="44.34995" lon="6.35547">
        <ele>1180.4000244141</ele>
        <time>2016-07-11T07:10:45.000Z</time>
      </trkpt>
      <trkpt lat="44.35014" lon="6.35555">
        <ele>1186.4000244141</ele>
        <time>2016-07-11T07:10:58.000Z</time>
      </trkpt>
      <trkpt lat="44.35021" lon="6.35555">
        <ele>1188.5999755859</ele>
        <time>2016-07-11T07:11:04.000Z</time>
      </trkpt>
      <trkpt lat="44.35028" lon="6.35549">
        <ele>1189.8000488281</ele>
        <time>2016-07-11T07:11:10.000Z</time>
      </trkpt>
      <trkpt lat="44.35033" lon="6.35545">
        <ele>1190.5999755859</ele>
        <time>2016-07-11T07:11:16.000Z</time>
      </trkpt>
      <trkpt lat="44.35036" lon="6.35541">
        <ele>1191</ele>
        <time>2016-07-11T07:13:07.000Z</time>
      </trkpt>
      <trkpt lat="44.35041" lon="6.35535">
        <ele>1191.1999511719</ele>
        <time>2016-07-11T07:13:13.000Z</time>
      </trkpt>
      <trkpt lat="44.35047" lon="6.35523">
        <ele>1191.4000244141</ele>
        <time>2016-07-11T07:13:20.000Z</time>
      </trkpt>
      <trkpt lat="44.35053" lon="6.35502">
        <ele>1190.8000488281</ele>
        <time>2016-07-11T07:13:31.000Z</time>
      </trkpt>
      <trkpt lat="44.35056" lon="6.35488">
        <ele>1192.1999511719</ele>
        <time>2016-07-11T07:13:38.000Z</time>
      </trkpt>
      <trkpt lat="44.35065" lon="6.35456">
        <ele>1194.8000488281</ele>
        <time>2016-07-11T07:13:55.000Z</time>
      </trkpt>
      <trkpt lat="44.35068" lon="6.35437">
        <ele>1195.4000244141</ele>
        <time>2016-07-11T07:14:04.000Z</time>
      </trkpt>
      <trkpt lat="44.35074" lon="6.35424">
        <ele>1196.4000244141</ele>
        <time>2016-07-11T07:14:12.000Z</time>
      </trkpt>
      <trkpt lat="44.35078" lon="6.35415">
        <ele>1197.1999511719</ele>
        <time>2016-07-11T07:14:18.000Z</time>
      </trkpt>
      <trkpt lat="44.35086" lon="6.35422">
        <ele>1200.1999511719</ele>
        <time>2016-07-11T07:14:26.000Z</time>
      </trkpt>
      <trkpt lat="44.35089" lon="6.35425">
        <ele>1201</ele>
        <time>2016-07-11T07:14:28.000Z</time>
      </trkpt>
      <trkpt lat="44.3509" lon="6.35437">
        <ele>1202</ele>
        <time>2016-07-11T07:14:35.000Z</time>
      </trkpt>
      <trkpt lat="44.35088" lon="6.35448">
        <ele>1202</ele>
        <time>2016-07-11T07:14:42.000Z</time>
      </trkpt>
      <trkpt lat="44.35088" lon="6.35449">
        <ele>1202.1999511719</ele>
        <time>2016-07-11T07:14:43.000Z</time>
      </trkpt>
      <trkpt lat="44.35089" lon="6.35449">
        <ele>1202.4000244141</ele>
        <time>2016-07-11T07:14:45.000Z</time>
      </trkpt>
      <trkpt lat="44.35099" lon="6.35432">
        <ele>1204.5999755859</ele>
        <time>2016-07-11T07:14:56.000Z</time>
      </trkpt>
      <trkpt lat="44.35103" lon="6.35416">
        <ele>1204.8000488281</ele>
        <time>2016-07-11T07:15:04.000Z</time>
      </trkpt>
      <trkpt lat="44.35104" lon="6.35414">
        <ele>1205</ele>
        <time>2016-07-11T07:15:05.000Z</time>
      </trkpt>
      <trkpt lat="44.35107" lon="6.35418">
        <ele>1206</ele>
        <time>2016-07-11T07:15:09.000Z</time>
      </trkpt>
      <trkpt lat="44.35109" lon="6.35434">
        <ele>1207.5999755859</ele>
        <time>2016-07-11T07:15:17.000Z</time>
      </trkpt>
      <trkpt lat="44.35115" lon="6.35454">
        <ele>1210.5999755859</ele>
        <time>2016-07-11T07:15:23.000Z</time>
      </trkpt>
      <trkpt lat="44.35116" lon="6.35457">
        <ele>1211</ele>
        <time>2016-07-11T07:15:24.000Z</time>
      </trkpt>
      <trkpt lat="44.3512" lon="6.35466">
        <ele>1212</ele>
        <time>2016-07-11T07:15:30.000Z</time>
      </trkpt>
      <trkpt lat="44.35118" lon="6.35469">
        <ele>1212</ele>
        <time>2016-07-11T07:15:35.000Z</time>
      </trkpt>
      <trkpt lat="44.35114" lon="6.35465">
        <ele>1210.8000488281</ele>
        <time>2016-07-11T07:16:18.000Z</time>
      </trkpt>
      <trkpt lat="44.35112" lon="6.35453">
        <ele>1209.8000488281</ele>
        <time>2016-07-11T07:16:26.000Z</time>
      </trkpt>
      <trkpt lat="44.35115" lon="6.35457">
        <ele>1210.5999755859</ele>
        <time>2016-07-11T07:16:31.000Z</time>
      </trkpt>
      <trkpt lat="44.35116" lon="6.35469">
        <ele>1211.5999755859</ele>
        <time>2016-07-11T07:16:38.000Z</time>
      </trkpt>
      <trkpt lat="44.35115" lon="6.35479">
        <ele>1212</ele>
        <time>2016-07-11T07:16:45.000Z</time>
      </trkpt>
      <trkpt lat="44.35113" lon="6.35489">
        <ele>1211.1999511719</ele>
        <time>2016-07-11T07:16:52.000Z</time>
      </trkpt>
      <trkpt lat="44.35115" lon="6.35501">
        <ele>1211.1999511719</ele>
        <time>2016-07-11T07:16:59.000Z</time>
      </trkpt>
      <trkpt lat="44.3512" lon="6.35515">
        <ele>1210.8000488281</ele>
        <time>2016-07-11T07:17:07.000Z</time>
      </trkpt>
      <trkpt lat="44.35127" lon="6.35531">
        <ele>1210.1999511719</ele>
        <time>2016-07-11T07:17:16.000Z</time>
      </trkpt>
      <trkpt lat="44.35135" lon="6.35531">
        <ele>1210.1999511719</ele>
        <time>2016-07-11T07:17:22.000Z</time>
      </trkpt>
      <trkpt lat="44.35147" lon="6.35526">
        <ele>1210.4000244141</ele>
        <time>2016-07-11T07:17:31.000Z</time>
      </trkpt>
      <trkpt lat="44.35159" lon="6.35524">
        <ele>1210.8000488281</ele>
        <time>2016-07-11T07:17:38.000Z</time>
      </trkpt>
      <trkpt lat="44.35172" lon="6.35526">
        <ele>1212.5999755859</ele>
        <time>2016-07-11T07:17:48.000Z</time>
      </trkpt>
      <trkpt lat="44.3518" lon="6.35526">
        <ele>1214</ele>
        <time>2016-07-11T07:17:54.000Z</time>
      </trkpt>
      <trkpt lat="44.35184" lon="6.35525">
        <ele>1215</ele>
        <time>2016-07-11T07:17:59.000Z</time>
      </trkpt>
      <trkpt lat="44.35185" lon="6.35525">
        <ele>1215.4000244141</ele>
        <time>2016-07-11T07:18:00.000Z</time>
      </trkpt>
      <trkpt lat="44.35189" lon="6.35523">
        <ele>1216.1999511719</ele>
        <time>2016-07-11T07:18:04.000Z</time>
      </trkpt>
      <trkpt lat="44.35196" lon="6.35518">
        <ele>1218.5999755859</ele>
        <time>2016-07-11T07:18:11.000Z</time>
      </trkpt>
      <trkpt lat="44.35199" lon="6.35516">
        <ele>1219.4000244141</ele>
        <time>2016-07-11T07:18:14.000Z</time>
      </trkpt>
      <trkpt lat="44.35202" lon="6.35515">
        <ele>1219.5999755859</ele>
        <time>2016-07-11T07:18:17.000Z</time>
      </trkpt>
      <trkpt lat="44.35205" lon="6.35514">
        <ele>1220</ele>
        <time>2016-07-11T07:18:19.000Z</time>
      </trkpt>
      <trkpt lat="44.3521" lon="6.35512">
        <ele>1220.5999755859</ele>
        <time>2016-07-11T07:18:24.000Z</time>
      </trkpt>
      <trkpt lat="44.35219" lon="6.35505">
        <ele>1222.4000244141</ele>
        <time>2016-07-11T07:18:31.000Z</time>
      </trkpt>
      <trkpt lat="44.35225" lon="6.35499">
        <ele>1223.5999755859</ele>
        <time>2016-07-11T07:18:37.000Z</time>
      </trkpt>
      <trkpt lat="44.35228" lon="6.35497">
        <ele>1224.1999511719</ele>
        <time>2016-07-11T07:18:39.000Z</time>
      </trkpt>
      <trkpt lat="44.35234" lon="6.35494">
        <ele>1224.8000488281</ele>
        <time>2016-07-11T07:18:44.000Z</time>
      </trkpt>
      <trkpt lat="44.35239" lon="6.35485">
        <ele>1226.8000488281</ele>
        <time>2016-07-11T07:18:51.000Z</time>
      </trkpt>
      <trkpt lat="44.35243" lon="6.35479">
        <ele>1227.8000488281</ele>
        <time>2016-07-11T07:18:56.000Z</time>
      </trkpt>
      <trkpt lat="44.35249" lon="6.35472">
        <ele>1228.8000488281</ele>
        <time>2016-07-11T07:19:03.000Z</time>
      </trkpt>
      <trkpt lat="44.35255" lon="6.35466">
        <ele>1229.4000244141</ele>
        <time>2016-07-11T07:19:08.000Z</time>
      </trkpt>
      <trkpt lat="44.35259" lon="6.35461">
        <ele>1230.1999511719</ele>
        <time>2016-07-11T07:19:15.000Z</time>
      </trkpt>
      <trkpt lat="44.35261" lon="6.35458">
        <ele>1231</ele>
        <time>2016-07-11T07:19:18.000Z</time>
      </trkpt>
      <trkpt lat="44.35264" lon="6.35454">
        <ele>1232.4000244141</ele>
        <time>2016-07-11T07:19:24.000Z</time>
      </trkpt>
      <trkpt lat="44.35271" lon="6.35449">
        <ele>1234.8000488281</ele>
        <time>2016-07-11T07:19:30.000Z</time>
      </trkpt>
      <trkpt lat="44.35279" lon="6.35439">
        <ele>1238.8000488281</ele>
        <time>2016-07-11T07:19:37.000Z</time>
      </trkpt>
      <trkpt lat="44.35286" lon="6.35429">
        <ele>1241.8000488281</ele>
        <time>2016-07-11T07:19:43.000Z</time>
      </trkpt>
      <trkpt lat="44.3531" lon="6.35413">
        <ele>1245.4000244141</ele>
        <time>2016-07-11T07:19:59.000Z</time>
      </trkpt>
      <trkpt lat="44.35329" lon="6.35409">
        <ele>1245</ele>
        <time>2016-07-11T07:20:11.000Z</time>
      </trkpt>
      <trkpt lat="44.35346" lon="6.354">
        <ele>1245.5999755859</ele>
        <time>2016-07-11T07:20:23.000Z</time>
      </trkpt>
      <trkpt lat="44.35358" lon="6.35389">
        <ele>1245.5999755859</ele>
        <time>2016-07-11T07:20:34.000Z</time>
      </trkpt>
      <trkpt lat="44.35366" lon="6.35381">
        <ele>1247.5999755859</ele>
        <time>2016-07-11T07:20:42.000Z</time>
      </trkpt>
      <trkpt lat="44.35375" lon="6.35371">
        <ele>1249.5999755859</ele>
        <time>2016-07-11T07:20:51.000Z</time>
      </trkpt>
      <trkpt lat="44.35386" lon="6.35359">
        <ele>1251.8000488281</ele>
        <time>2016-07-11T07:21:01.000Z</time>
      </trkpt>
      <trkpt lat="44.35395" lon="6.35357">
        <ele>1252.4000244141</ele>
        <time>2016-07-11T07:21:08.000Z</time>
      </trkpt>
      <trkpt lat="44.35404" lon="6.35361">
        <ele>1252.1999511719</ele>
        <time>2016-07-11T07:21:15.000Z</time>
      </trkpt>
      <trkpt lat="44.3541" lon="6.35365">
        <ele>1251.8000488281</ele>
        <time>2016-07-11T07:21:21.000Z</time>
      </trkpt>
      <trkpt lat="44.35415" lon="6.35369">
        <ele>1251.4000244141</ele>
        <time>2016-07-11T07:21:26.000Z</time>
      </trkpt>
      <trkpt lat="44.35416" lon="6.35369">
        <ele>1251.1999511719</ele>
        <time>2016-07-11T07:21:27.000Z</time>
      </trkpt>
      <trkpt lat="44.35421" lon="6.35372">
        <ele>1251.1999511719</ele>
        <time>2016-07-11T07:21:31.000Z</time>
      </trkpt>
      <trkpt lat="44.35429" lon="6.35376">
        <ele>1250.5999755859</ele>
        <time>2016-07-11T07:21:38.000Z</time>
      </trkpt>
      <trkpt lat="44.3543" lon="6.35377">
        <ele>1250.5999755859</ele>
        <time>2016-07-11T07:21:39.000Z</time>
      </trkpt>
      <trkpt lat="44.35432" lon="6.35377">
        <ele>1250.5999755859</ele>
        <time>2016-07-11T07:21:41.000Z</time>
      </trkpt>
      <trkpt lat="44.35443" lon="6.35381">
        <ele>1250.4000244141</ele>
        <time>2016-07-11T07:21:49.000Z</time>
      </trkpt>
      <trkpt lat="44.35452" lon="6.35385">
        <ele>1250.4000244141</ele>
        <time>2016-07-11T07:21:56.000Z</time>
      </trkpt>
      <trkpt lat="44.35464" lon="6.35391">
        <ele>1251</ele>
        <time>2016-07-11T07:22:05.000Z</time>
      </trkpt>
      <trkpt lat="44.35474" lon="6.35396">
        <ele>1251.4000244141</ele>
        <time>2016-07-11T07:22:13.000Z</time>
      </trkpt>
      <trkpt lat="44.35485" lon="6.35401">
        <ele>1252.1999511719</ele>
        <time>2016-07-11T07:22:21.000Z</time>
      </trkpt>
      <trkpt lat="44.35496" lon="6.35405">
        <ele>1253.4000244141</ele>
        <time>2016-07-11T07:22:29.000Z</time>
      </trkpt>
      <trkpt lat="44.35505" lon="6.35407">
        <ele>1254.4000244141</ele>
        <time>2016-07-11T07:22:36.000Z</time>
      </trkpt>
      <trkpt lat="44.3551" lon="6.35408">
        <ele>1254.8000488281</ele>
        <time>2016-07-11T07:22:42.000Z</time>
      </trkpt>
      <trkpt lat="44.35517" lon="6.35413">
        <ele>1255.4000244141</ele>
        <time>2016-07-11T07:23:16.000Z</time>
      </trkpt>
      <trkpt lat="44.35523" lon="6.35426">
        <ele>1255.4000244141</ele>
        <time>2016-07-11T07:23:24.000Z</time>
      </trkpt>
      <trkpt lat="44.3553" lon="6.35441">
        <ele>1255.4000244141</ele>
        <time>2016-07-11T07:23:33.000Z</time>
      </trkpt>
      <trkpt lat="44.35537" lon="6.3546">
        <ele>1255.1999511719</ele>
        <time>2016-07-11T07:23:43.000Z</time>
      </trkpt>
      <trkpt lat="44.35542" lon="6.35473">
        <ele>1255.1999511719</ele>
        <time>2016-07-11T07:23:50.000Z</time>
      </trkpt>
      <trkpt lat="44.35547" lon="6.35485">
        <ele>1255.8000488281</ele>
        <time>2016-07-11T07:23:57.000Z</time>
      </trkpt>
      <trkpt lat="44.35552" lon="6.35504">
        <ele>1257.4000244141</ele>
        <time>2016-07-11T07:24:07.000Z</time>
      </trkpt>
      <trkpt lat="44.35553" lon="6.35506">
        <ele>1257.4000244141</ele>
        <time>2016-07-11T07:24:09.000Z</time>
      </trkpt>
      <trkpt lat="44.35561" lon="6.35526">
        <ele>1259</ele>
        <time>2016-07-11T07:24:20.000Z</time>
      </trkpt>
      <trkpt lat="44.35568" lon="6.35543">
        <ele>1260.5999755859</ele>
        <time>2016-07-11T07:24:29.000Z</time>
      </trkpt>
      <trkpt lat="44.35575" lon="6.35561">
        <ele>1262</ele>
        <time>2016-07-11T07:24:39.000Z</time>
      </trkpt>
      <trkpt lat="44.35582" lon="6.35581">
        <ele>1264.1999511719</ele>
        <time>2016-07-11T07:24:50.000Z</time>
      </trkpt>
      <trkpt lat="44.35588" lon="6.35597">
        <ele>1266.1999511719</ele>
        <time>2016-07-11T07:24:59.000Z</time>
      </trkpt>
      <trkpt lat="44.35593" lon="6.35612">
        <ele>1267.8000488281</ele>
        <time>2016-07-11T07:25:07.000Z</time>
      </trkpt>
      <trkpt lat="44.356" lon="6.35631">
        <ele>1270.1999511719</ele>
        <time>2016-07-11T07:25:18.000Z</time>
      </trkpt>
      <trkpt lat="44.35607" lon="6.35653">
        <ele>1272.8000488281</ele>
        <time>2016-07-11T07:25:30.000Z</time>
      </trkpt>
      <trkpt lat="44.35612" lon="6.35664">
        <ele>1274.8000488281</ele>
        <time>2016-07-11T07:25:37.000Z</time>
      </trkpt>
      <trkpt lat="44.3562" lon="6.35679">
        <ele>1278</ele>
        <time>2016-07-11T07:25:47.000Z</time>
      </trkpt>
      <trkpt lat="44.35623" lon="6.35687">
        <ele>1279.5999755859</ele>
        <time>2016-07-11T07:25:52.000Z</time>
      </trkpt>
      <trkpt lat="44.35629" lon="6.35705">
        <ele>1282.8000488281</ele>
        <time>2016-07-11T07:26:03.000Z</time>
      </trkpt>
      <trkpt lat="44.35627" lon="6.35719">
        <ele>1283.4000244141</ele>
        <time>2016-07-11T07:26:11.000Z</time>
      </trkpt>
      <trkpt lat="44.35623" lon="6.3573">
        <ele>1283.1999511719</ele>
        <time>2016-07-11T07:26:18.000Z</time>
      </trkpt>
      <trkpt lat="44.35621" lon="6.35745">
        <ele>1285.8000488281</ele>
        <time>2016-07-11T07:26:27.000Z</time>
      </trkpt>
      <trkpt lat="44.3562" lon="6.35759">
        <ele>1287.8000488281</ele>
        <time>2016-07-11T07:26:36.000Z</time>
      </trkpt>
      <trkpt lat="44.3562" lon="6.3576">
        <ele>1288.4000244141</ele>
        <time>2016-07-11T07:26:37.000Z</time>
      </trkpt>
      <trkpt lat="44.3563" lon="6.35761">
        <ele>1292.4000244141</ele>
        <time>2016-07-11T07:26:45.000Z</time>
      </trkpt>
      <trkpt lat="44.35632" lon="6.35759">
        <ele>1292.8000488281</ele>
        <time>2016-07-11T07:26:48.000Z</time>
      </trkpt>
      <trkpt lat="44.35641" lon="6.35756">
        <ele>1295.5999755859</ele>
        <time>2016-07-11T07:26:54.000Z</time>
      </trkpt>
      <trkpt lat="44.35642" lon="6.35755">
        <ele>1295.5999755859</ele>
        <time>2016-07-11T07:26:55.000Z</time>
      </trkpt>
      <trkpt lat="44.35652" lon="6.35751">
        <ele>1297.1999511719</ele>
        <time>2016-07-11T07:27:03.000Z</time>
      </trkpt>
      <trkpt lat="44.35659" lon="6.35749">
        <ele>1298.1999511719</ele>
        <time>2016-07-11T07:27:09.000Z</time>
      </trkpt>
      <trkpt lat="44.35667" lon="6.35744">
        <ele>1298.8000488281</ele>
        <time>2016-07-11T07:27:16.000Z</time>
      </trkpt>
      <trkpt lat="44.35674" lon="6.3574">
        <ele>1299.5999755859</ele>
        <time>2016-07-11T07:27:22.000Z</time>
      </trkpt>
      <trkpt lat="44.35675" lon="6.35741">
        <ele>1300</ele>
        <time>2016-07-11T07:27:23.000Z</time>
      </trkpt>
      <trkpt lat="44.35676" lon="6.35742">
        <ele>1300.5999755859</ele>
        <time>2016-07-11T07:27:25.000Z</time>
      </trkpt>
      <trkpt lat="44.35681" lon="6.35737">
        <ele>1300.1999511719</ele>
        <time>2016-07-11T07:27:31.000Z</time>
      </trkpt>
      <trkpt lat="44.35682" lon="6.35736">
        <ele>1300.1999511719</ele>
        <time>2016-07-11T07:27:32.000Z</time>
      </trkpt>
      <trkpt lat="44.35691" lon="6.35731">
        <ele>1301.1999511719</ele>
        <time>2016-07-11T07:27:41.000Z</time>
      </trkpt>
      <trkpt lat="44.35698" lon="6.35728">
        <ele>1302.8000488281</ele>
        <time>2016-07-11T07:27:48.000Z</time>
      </trkpt>
      <trkpt lat="44.35704" lon="6.35725">
        <ele>1304.4000244141</ele>
        <time>2016-07-11T07:27:54.000Z</time>
      </trkpt>
      <trkpt lat="44.35712" lon="6.35719">
        <ele>1306.8000488281</ele>
        <time>2016-07-11T07:28:02.000Z</time>
      </trkpt>
      <trkpt lat="44.35718" lon="6.35715">
        <ele>1308.5999755859</ele>
        <time>2016-07-11T07:28:09.000Z</time>
      </trkpt>
      <trkpt lat="44.35726" lon="6.35706">
        <ele>1310</ele>
        <time>2016-07-11T07:28:17.000Z</time>
      </trkpt>
      <trkpt lat="44.35734" lon="6.35698">
        <ele>1312.1999511719</ele>
        <time>2016-07-11T07:28:26.000Z</time>
      </trkpt>
      <trkpt lat="44.35741" lon="6.35694">
        <ele>1313.8000488281</ele>
        <time>2016-07-11T07:28:32.000Z</time>
      </trkpt>
      <trkpt lat="44.35749" lon="6.35687">
        <ele>1315.1999511719</ele>
        <time>2016-07-11T07:28:40.000Z</time>
      </trkpt>
      <trkpt lat="44.35759" lon="6.35681">
        <ele>1317</ele>
        <time>2016-07-11T07:28:48.000Z</time>
      </trkpt>
      <trkpt lat="44.35766" lon="6.35675">
        <ele>1317.5999755859</ele>
        <time>2016-07-11T07:28:55.000Z</time>
      </trkpt>
      <trkpt lat="44.35771" lon="6.3567">
        <ele>1318.5999755859</ele>
        <time>2016-07-11T07:29:00.000Z</time>
      </trkpt>
      <trkpt lat="44.35778" lon="6.35664">
        <ele>1319.1999511719</ele>
        <time>2016-07-11T07:29:07.000Z</time>
      </trkpt>
      <trkpt lat="44.35784" lon="6.3566">
        <ele>1320.4000244141</ele>
        <time>2016-07-11T07:29:12.000Z</time>
      </trkpt>
      <trkpt lat="44.35792" lon="6.35649">
        <ele>1321.1999511719</ele>
        <time>2016-07-11T07:29:21.000Z</time>
      </trkpt>
      <trkpt lat="44.35801" lon="6.35642">
        <ele>1323.1999511719</ele>
        <time>2016-07-11T07:29:29.000Z</time>
      </trkpt>
      <trkpt lat="44.35804" lon="6.35639">
        <ele>1324</ele>
        <time>2016-07-11T07:29:32.000Z</time>
      </trkpt>
      <trkpt lat="44.35808" lon="6.35637">
        <ele>1325.5999755859</ele>
        <time>2016-07-11T07:29:36.000Z</time>
      </trkpt>
      <trkpt lat="44.35812" lon="6.35636">
        <ele>1327</ele>
        <time>2016-07-11T07:29:39.000Z</time>
      </trkpt>
      <trkpt lat="44.3582" lon="6.35635">
        <ele>1330.1999511719</ele>
        <time>2016-07-11T07:29:46.000Z</time>
      </trkpt>
      <trkpt lat="44.35821" lon="6.35635">
        <ele>1330.5999755859</ele>
        <time>2016-07-11T07:29:47.000Z</time>
      </trkpt>
      <trkpt lat="44.3583" lon="6.35629">
        <ele>1333.4000244141</ele>
        <time>2016-07-11T07:29:55.000Z</time>
      </trkpt>
      <trkpt lat="44.35837" lon="6.35629">
        <ele>1336.5999755859</ele>
        <time>2016-07-11T07:30:01.000Z</time>
      </trkpt>
      <trkpt lat="44.35843" lon="6.35629">
        <ele>1338.8000488281</ele>
        <time>2016-07-11T07:30:04.000Z</time>
      </trkpt>
      <trkpt lat="44.35852" lon="6.35624">
        <ele>1340.8000488281</ele>
        <time>2016-07-11T07:30:12.000Z</time>
      </trkpt>
      <trkpt lat="44.35859" lon="6.35623">
        <ele>1343</ele>
        <time>2016-07-11T07:30:17.000Z</time>
      </trkpt>
      <trkpt lat="44.35861" lon="6.35621">
        <ele>1343.1999511719</ele>
        <time>2016-07-11T07:30:19.000Z</time>
      </trkpt>
      <trkpt lat="44.35871" lon="6.35614">
        <ele>1345.4000244141</ele>
        <time>2016-07-11T07:30:27.000Z</time>
      </trkpt>
      <trkpt lat="44.35879" lon="6.35607">
        <ele>1347.1999511719</ele>
        <time>2016-07-11T07:30:35.000Z</time>
      </trkpt>
      <trkpt lat="44.35886" lon="6.35604">
        <ele>1349.5999755859</ele>
        <time>2016-07-11T07:30:41.000Z</time>
      </trkpt>
      <trkpt lat="44.35891" lon="6.35597">
        <ele>1350.1999511719</ele>
        <time>2016-07-11T07:30:47.000Z</time>
      </trkpt>
      <trkpt lat="44.359" lon="6.35586">
        <ele>1351.4000244141</ele>
        <time>2016-07-11T07:30:56.000Z</time>
      </trkpt>
      <trkpt lat="44.35909" lon="6.35577">
        <ele>1353</ele>
        <time>2016-07-11T07:31:04.000Z</time>
      </trkpt>
      <trkpt lat="44.35917" lon="6.3557">
        <ele>1354.8000488281</ele>
        <time>2016-07-11T07:31:12.000Z</time>
      </trkpt>
      <trkpt lat="44.35921" lon="6.35568">
        <ele>1356.1999511719</ele>
        <time>2016-07-11T07:31:15.000Z</time>
      </trkpt>
      <trkpt lat="44.35926" lon="6.35563">
        <ele>1357.1999511719</ele>
        <time>2016-07-11T07:31:20.000Z</time>
      </trkpt>
      <trkpt lat="44.35934" lon="6.3556">
        <ele>1360.4000244141</ele>
        <time>2016-07-11T07:31:29.000Z</time>
      </trkpt>
      <trkpt lat="44.35941" lon="6.35557">
        <ele>1363</ele>
        <time>2016-07-11T07:31:36.000Z</time>
      </trkpt>
      <trkpt lat="44.35948" lon="6.35554">
        <ele>1365</ele>
        <time>2016-07-11T07:31:43.000Z</time>
      </trkpt>
      <trkpt lat="44.35956" lon="6.35549">
        <ele>1365.8000488281</ele>
        <time>2016-07-11T07:31:50.000Z</time>
      </trkpt>
      <trkpt lat="44.35959" lon="6.35547">
        <ele>1366.4000244141</ele>
        <time>2016-07-11T07:31:53.000Z</time>
      </trkpt>
      <trkpt lat="44.35966" lon="6.35543">
        <ele>1367.1999511719</ele>
        <time>2016-07-11T07:32:00.000Z</time>
      </trkpt>
      <trkpt lat="44.35968" lon="6.35542">
        <ele>1367.5999755859</ele>
        <time>2016-07-11T07:32:02.000Z</time>
      </trkpt>
      <trkpt lat="44.3597" lon="6.35534">
        <ele>1366</ele>
        <time>2016-07-11T07:32:08.000Z</time>
      </trkpt>
      <trkpt lat="44.35969" lon="6.35534">
        <ele>1365.5999755859</ele>
        <time>2016-07-11T07:32:14.000Z</time>
      </trkpt>
      <trkpt lat="44.35975" lon="6.35536">
        <ele>1368</ele>
        <time>2016-07-11T07:32:46.000Z</time>
      </trkpt>
      <trkpt lat="44.35977" lon="6.35536">
        <ele>1368.5999755859</ele>
        <time>2016-07-11T07:32:55.000Z</time>
      </trkpt>
      <trkpt lat="44.35976" lon="6.35537">
        <ele>1368.5999755859</ele>
        <time>2016-07-11T07:33:05.000Z</time>
      </trkpt>
      <trkpt lat="44.35977" lon="6.35538">
        <ele>1369</ele>
        <time>2016-07-11T07:33:11.000Z</time>
      </trkpt>
      <trkpt lat="44.35975" lon="6.35539">
        <ele>1369</ele>
        <time>2016-07-11T07:33:15.000Z</time>
      </trkpt>
      <trkpt lat="44.35972" lon="6.35537">
        <ele>1367.4000244141</ele>
        <time>2016-07-11T07:33:20.000Z</time>
      </trkpt>
      <trkpt lat="44.35972" lon="6.35535">
        <ele>1366.5999755859</ele>
        <time>2016-07-11T07:33:29.000Z</time>
      </trkpt>
      <trkpt lat="44.35972" lon="6.35534">
        <ele>1366.5999755859</ele>
        <time>2016-07-11T07:33:34.000Z</time>
      </trkpt>
      <trkpt lat="44.35972" lon="6.35535">
        <ele>1366.5999755859</ele>
        <time>2016-07-11T07:33:40.000Z</time>
      </trkpt>
      <trkpt lat="44.35973" lon="6.35533">
        <ele>1366.5999755859</ele>
        <time>2016-07-11T07:33:45.000Z</time>
      </trkpt>
      <trkpt lat="44.35972" lon="6.35534">
        <ele>1366.5999755859</ele>
        <time>2016-07-11T07:33:50.000Z</time>
      </trkpt>
      <trkpt lat="44.35973" lon="6.35537">
        <ele>1367.5999755859</ele>
        <time>2016-07-11T07:33:53.000Z</time>
      </trkpt>
      <trkpt lat="44.35974" lon="6.35537">
        <ele>1368</ele>
        <time>2016-07-11T07:33:59.000Z</time>
      </trkpt>
      <trkpt lat="44.35973" lon="6.35537">
        <ele>1368</ele>
        <time>2016-07-11T07:34:06.000Z</time>
      </trkpt>
      <trkpt lat="44.35977" lon="6.35538">
        <ele>1369</ele>
        <time>2016-07-11T07:34:16.000Z</time>
      </trkpt>
      <trkpt lat="44.3598" lon="6.3554">
        <ele>1370.5999755859</ele>
        <time>2016-07-11T07:34:20.000Z</time>
      </trkpt>
      <trkpt lat="44.35985" lon="6.3554">
        <ele>1372.4000244141</ele>
        <time>2016-07-11T07:34:26.000Z</time>
      </trkpt>
      <trkpt lat="44.3599" lon="6.3554">
        <ele>1373.8000488281</ele>
        <time>2016-07-11T07:34:31.000Z</time>
      </trkpt>
      <trkpt lat="44.35995" lon="6.3554">
        <ele>1375.4000244141</ele>
        <time>2016-07-11T07:34:36.000Z</time>
      </trkpt>
      <trkpt lat="44.35999" lon="6.3554">
        <ele>1376.8000488281</ele>
        <time>2016-07-11T07:34:41.000Z</time>
      </trkpt>
      <trkpt lat="44.36003" lon="6.35539">
        <ele>1378</ele>
        <time>2016-07-11T07:34:47.000Z</time>
      </trkpt>
      <trkpt lat="44.36011" lon="6.35537">
        <ele>1380</ele>
        <time>2016-07-11T07:34:54.000Z</time>
      </trkpt>
      <trkpt lat="44.36021" lon="6.35535">
        <ele>1382.4000244141</ele>
        <time>2016-07-11T07:35:02.000Z</time>
      </trkpt>
      <trkpt lat="44.36025" lon="6.35534">
        <ele>1383.8000488281</ele>
        <time>2016-07-11T07:35:06.000Z</time>
      </trkpt>
      <trkpt lat="44.36029" lon="6.35533">
        <ele>1384.5999755859</ele>
        <time>2016-07-11T07:35:10.000Z</time>
      </trkpt>
      <trkpt lat="44.36031" lon="6.35531">
        <ele>1384.8000488281</ele>
        <time>2016-07-11T07:35:13.000Z</time>
      </trkpt>
      <trkpt lat="44.36039" lon="6.35526">
        <ele>1384.4000244141</ele>
        <time>2016-07-11T07:35:21.000Z</time>
      </trkpt>
      <trkpt lat="44.36047" lon="6.3552">
        <ele>1383.5999755859</ele>
        <time>2016-07-11T07:35:28.000Z</time>
      </trkpt>
      <trkpt lat="44.36051" lon="6.35517">
        <ele>1383.1999511719</ele>
        <time>2016-07-11T07:35:32.000Z</time>
      </trkpt>
      <trkpt lat="44.36063" lon="6.3551">
        <ele>1383</ele>
        <time>2016-07-11T07:35:43.000Z</time>
      </trkpt>
      <trkpt lat="44.36074" lon="6.35504">
        <ele>1385.1999511719</ele>
        <time>2016-07-11T07:35:52.000Z</time>
      </trkpt>
      <trkpt lat="44.36075" lon="6.35503">
        <ele>1385.4000244141</ele>
        <time>2016-07-11T07:35:53.000Z</time>
      </trkpt>
      <trkpt lat="44.36081" lon="6.35494">
        <ele>1386.1999511719</ele>
        <time>2016-07-11T07:36:01.000Z</time>
      </trkpt>
      <trkpt lat="44.36083" lon="6.35496">
        <ele>1386.8000488281</ele>
        <time>2016-07-11T07:36:07.000Z</time>
      </trkpt>
      <trkpt lat="44.36082" lon="6.35496">
        <ele>1386.8000488281</ele>
        <time>2016-07-11T07:36:14.000Z</time>
      </trkpt>
      <trkpt lat="44.36082" lon="6.35495">
        <ele>1386.8000488281</ele>
        <time>2016-07-11T07:36:22.000Z</time>
      </trkpt>
      <trkpt lat="44.36087" lon="6.35491">
        <ele>1387.4000244141</ele>
        <time>2016-07-11T07:36:28.000Z</time>
      </trkpt>
      <trkpt lat="44.36095" lon="6.35489">
        <ele>1389.5999755859</ele>
        <time>2016-07-11T07:36:35.000Z</time>
      </trkpt>
      <trkpt lat="44.36096" lon="6.35489">
        <ele>1389.8000488281</ele>
        <time>2016-07-11T07:36:36.000Z</time>
      </trkpt>
      <trkpt lat="44.36099" lon="6.35487">
        <ele>1390.5999755859</ele>
        <time>2016-07-11T07:36:40.000Z</time>
      </trkpt>
      <trkpt lat="44.36107" lon="6.35482">
        <ele>1392</ele>
        <time>2016-07-11T07:36:49.000Z</time>
      </trkpt>
      <trkpt lat="44.36112" lon="6.35478">
        <ele>1392.5999755859</ele>
        <time>2016-07-11T07:36:54.000Z</time>
      </trkpt>
      <trkpt lat="44.36113" lon="6.35476">
        <ele>1392.8000488281</ele>
        <time>2016-07-11T07:36:56.000Z</time>
      </trkpt>
      <trkpt lat="44.36116" lon="6.35473">
        <ele>1392.8000488281</ele>
        <time>2016-07-11T07:37:00.000Z</time>
      </trkpt>
      <trkpt lat="44.36122" lon="6.35464">
        <ele>1392.5999755859</ele>
        <time>2016-07-11T07:37:08.000Z</time>
      </trkpt>
      <trkpt lat="44.36127" lon="6.35454">
        <ele>1392</ele>
        <time>2016-07-11T07:37:15.000Z</time>
      </trkpt>
      <trkpt lat="44.36132" lon="6.35447">
        <ele>1391.8000488281</ele>
        <time>2016-07-11T07:37:20.000Z</time>
      </trkpt>
      <trkpt lat="44.3614" lon="6.35439">
        <ele>1391.8000488281</ele>
        <time>2016-07-11T07:37:27.000Z</time>
      </trkpt>
      <trkpt lat="44.36145" lon="6.35431">
        <ele>1391.5999755859</ele>
        <time>2016-07-11T07:37:32.000Z</time>
      </trkpt>
      <trkpt lat="44.36146" lon="6.3543">
        <ele>1391.5999755859</ele>
        <time>2016-07-11T07:37:33.000Z</time>
      </trkpt>
      <trkpt lat="44.36161" lon="6.35412">
        <ele>1395.5999755859</ele>
        <time>2016-07-11T07:37:47.000Z</time>
      </trkpt>
      <trkpt lat="44.36167" lon="6.35405">
        <ele>1397.4000244141</ele>
        <time>2016-07-11T07:37:53.000Z</time>
      </trkpt>
      <trkpt lat="44.3617" lon="6.354">
        <ele>1398.1999511719</ele>
        <time>2016-07-11T07:37:57.000Z</time>
      </trkpt>
      <trkpt lat="44.36173" lon="6.35389">
        <ele>1397.4000244141</ele>
        <time>2016-07-11T07:38:04.000Z</time>
      </trkpt>
      <trkpt lat="44.36174" lon="6.35388">
        <ele>1397.4000244141</ele>
        <time>2016-07-11T07:38:05.000Z</time>
      </trkpt>
      <trkpt lat="44.36176" lon="6.35385">
        <ele>1397.4000244141</ele>
        <time>2016-07-11T07:38:07.000Z</time>
      </trkpt>
      <trkpt lat="44.3618" lon="6.35378">
        <ele>1397.8000488281</ele>
        <time>2016-07-11T07:38:12.000Z</time>
      </trkpt>
      <trkpt lat="44.36189" lon="6.35369">
        <ele>1400.5999755859</ele>
        <time>2016-07-11T07:38:20.000Z</time>
      </trkpt>
      <trkpt lat="44.36194" lon="6.35363">
        <ele>1402.4000244141</ele>
        <time>2016-07-11T07:38:25.000Z</time>
      </trkpt>
      <trkpt lat="44.36194" lon="6.35361">
        <ele>1402.4000244141</ele>
        <time>2016-07-11T07:38:26.000Z</time>
      </trkpt>
      <trkpt lat="44.36204" lon="6.35341">
        <ele>1403</ele>
        <time>2016-07-11T07:38:39.000Z</time>
      </trkpt>
      <trkpt lat="44.3621" lon="6.35332">
        <ele>1402.8000488281</ele>
        <time>2016-07-11T07:38:46.000Z</time>
      </trkpt>
      <trkpt lat="44.36216" lon="6.35324">
        <ele>1403.8000488281</ele>
        <time>2016-07-11T07:38:52.000Z</time>
      </trkpt>
      <trkpt lat="44.36224" lon="6.35312">
        <ele>1405.8000488281</ele>
        <time>2016-07-11T07:39:00.000Z</time>
      </trkpt>
      <trkpt lat="44.36232" lon="6.35302">
        <ele>1405.8000488281</ele>
        <time>2016-07-11T07:39:09.000Z</time>
      </trkpt>
      <trkpt lat="44.36236" lon="6.35292">
        <ele>1405.4000244141</ele>
        <time>2016-07-11T07:39:16.000Z</time>
      </trkpt>
      <trkpt lat="44.36241" lon="6.35283">
        <ele>1405</ele>
        <time>2016-07-11T07:39:23.000Z</time>
      </trkpt>
      <trkpt lat="44.36242" lon="6.35281">
        <ele>1405</ele>
        <time>2016-07-11T07:39:24.000Z</time>
      </trkpt>
      <trkpt lat="44.36251" lon="6.35272">
        <ele>1407.5999755859</ele>
        <time>2016-07-11T07:39:33.000Z</time>
      </trkpt>
      <trkpt lat="44.36256" lon="6.35265">
        <ele>1409.8000488281</ele>
        <time>2016-07-11T07:39:39.000Z</time>
      </trkpt>
      <trkpt lat="44.36263" lon="6.3526">
        <ele>1412.8000488281</ele>
        <time>2016-07-11T07:39:46.000Z</time>
      </trkpt>
      <trkpt lat="44.36269" lon="6.35249">
        <ele>1415.8000488281</ele>
        <time>2016-07-11T07:39:54.000Z</time>
      </trkpt>
      <trkpt lat="44.36273" lon="6.35242">
        <ele>1417.5999755859</ele>
        <time>2016-07-11T07:39:59.000Z</time>
      </trkpt>
      <trkpt lat="44.36278" lon="6.35235">
        <ele>1419.4000244141</ele>
        <time>2016-07-11T07:40:05.000Z</time>
      </trkpt>
      <trkpt lat="44.36279" lon="6.35233">
        <ele>1420</ele>
        <time>2016-07-11T07:40:07.000Z</time>
      </trkpt>
      <trkpt lat="44.3628" lon="6.35227">
        <ele>1420.1999511719</ele>
        <time>2016-07-11T07:40:11.000Z</time>
      </trkpt>
      <trkpt lat="44.36282" lon="6.35219">
        <ele>1419.8000488281</ele>
        <time>2016-07-11T07:40:18.000Z</time>
      </trkpt>
      <trkpt lat="44.36282" lon="6.35217">
        <ele>1419.5999755859</ele>
        <time>2016-07-11T07:40:19.000Z</time>
      </trkpt>
      <trkpt lat="44.36285" lon="6.35203">
        <ele>1418.4000244141</ele>
        <time>2016-07-11T07:40:27.000Z</time>
      </trkpt>
      <trkpt lat="44.36291" lon="6.35193">
        <ele>1418</ele>
        <time>2016-07-11T07:40:34.000Z</time>
      </trkpt>
      <trkpt lat="44.36299" lon="6.35189">
        <ele>1418.1999511719</ele>
        <time>2016-07-11T07:40:40.000Z</time>
      </trkpt>
      <trkpt lat="44.36303" lon="6.35184">
        <ele>1418.1999511719</ele>
        <time>2016-07-11T07:40:44.000Z</time>
      </trkpt>
      <trkpt lat="44.36311" lon="6.35174">
        <ele>1418.5999755859</ele>
        <time>2016-07-11T07:40:53.000Z</time>
      </trkpt>
      <trkpt lat="44.3632" lon="6.35167">
        <ele>1421.8000488281</ele>
        <time>2016-07-11T07:41:02.000Z</time>
      </trkpt>
      <trkpt lat="44.36326" lon="6.35159">
        <ele>1424.4000244141</ele>
        <time>2016-07-11T07:41:09.000Z</time>
      </trkpt>
      <trkpt lat="44.36333" lon="6.3515">
        <ele>1427.1999511719</ele>
        <time>2016-07-11T07:41:15.000Z</time>
      </trkpt>
      <trkpt lat="44.3634" lon="6.3514">
        <ele>1427.5999755859</ele>
        <time>2016-07-11T07:41:23.000Z</time>
      </trkpt>
      <trkpt lat="44.36341" lon="6.35139">
        <ele>1427.5999755859</ele>
        <time>2016-07-11T07:41:24.000Z</time>
      </trkpt>
      <trkpt lat="44.36343" lon="6.35136">
        <ele>1427.4000244141</ele>
        <time>2016-07-11T07:41:33.000Z</time>
      </trkpt>
      <trkpt lat="44.36351" lon="6.35123">
        <ele>1427.8000488281</ele>
        <time>2016-07-11T07:41:49.000Z</time>
      </trkpt>
      <trkpt lat="44.36358" lon="6.35115">
        <ele>1429</ele>
        <time>2016-07-11T07:41:56.000Z</time>
      </trkpt>
      <trkpt lat="44.36365" lon="6.35109">
        <ele>1430.5999755859</ele>
        <time>2016-07-11T07:42:02.000Z</time>
      </trkpt>
      <trkpt lat="44.36366" lon="6.35109">
        <ele>1430.4000244141</ele>
        <time>2016-07-11T07:42:03.000Z</time>
      </trkpt>
      <trkpt lat="44.36372" lon="6.35106">
        <ele>1429.4000244141</ele>
        <time>2016-07-11T07:42:09.000Z</time>
      </trkpt>
      <trkpt lat="44.36373" lon="6.35105">
        <ele>1429</ele>
        <time>2016-07-11T07:42:10.000Z</time>
      </trkpt>
      <trkpt lat="44.36381" lon="6.35101">
        <ele>1427.5999755859</ele>
        <time>2016-07-11T07:42:18.000Z</time>
      </trkpt>
      <trkpt lat="44.3639" lon="6.35095">
        <ele>1425.8000488281</ele>
        <time>2016-07-11T07:42:27.000Z</time>
      </trkpt>
      <trkpt lat="44.36397" lon="6.35089">
        <ele>1425.5999755859</ele>
        <time>2016-07-11T07:42:34.000Z</time>
      </trkpt>
      <trkpt lat="44.36399" lon="6.35086">
        <ele>1426</ele>
        <time>2016-07-11T07:42:37.000Z</time>
      </trkpt>
      <trkpt lat="44.36409" lon="6.35078">
        <ele>1427.8000488281</ele>
        <time>2016-07-11T07:42:48.000Z</time>
      </trkpt>
      <trkpt lat="44.36419" lon="6.35069">
        <ele>1429.1999511719</ele>
        <time>2016-07-11T07:42:58.000Z</time>
      </trkpt>
      <trkpt lat="44.36425" lon="6.35061">
        <ele>1429</ele>
        <time>2016-07-11T07:43:04.000Z</time>
      </trkpt>
      <trkpt lat="44.36431" lon="6.35054">
        <ele>1427</ele>
        <time>2016-07-11T07:43:11.000Z</time>
      </trkpt>
      <trkpt lat="44.36438" lon="6.35047">
        <ele>1426.1999511719</ele>
        <time>2016-07-11T07:43:19.000Z</time>
      </trkpt>
      <trkpt lat="44.36439" lon="6.35047">
        <ele>1426.4000244141</ele>
        <time>2016-07-11T07:43:20.000Z</time>
      </trkpt>
      <trkpt lat="44.36442" lon="6.35045">
        <ele>1426.5999755859</ele>
        <time>2016-07-11T07:43:23.000Z</time>
      </trkpt>
      <trkpt lat="44.36448" lon="6.35039">
        <ele>1426.8000488281</ele>
        <time>2016-07-11T07:43:31.000Z</time>
      </trkpt>
      <trkpt lat="44.36451" lon="6.35034">
        <ele>1425.1999511719</ele>
        <time>2016-07-11T07:43:36.000Z</time>
      </trkpt>
      <trkpt lat="44.36457" lon="6.35029">
        <ele>1423.1999511719</ele>
        <time>2016-07-11T07:43:42.000Z</time>
      </trkpt>
      <trkpt lat="44.3646" lon="6.35026">
        <ele>1421.8000488281</ele>
        <time>2016-07-11T07:43:46.000Z</time>
      </trkpt>
      <trkpt lat="44.36469" lon="6.35015">
        <ele>1418</ele>
        <time>2016-07-11T07:43:53.000Z</time>
      </trkpt>
      <trkpt lat="44.36477" lon="6.35007">
        <ele>1415.5999755859</ele>
        <time>2016-07-11T07:44:00.000Z</time>
      </trkpt>
      <trkpt lat="44.36478" lon="6.35006">
        <ele>1415.5999755859</ele>
        <time>2016-07-11T07:44:01.000Z</time>
      </trkpt>
      <trkpt lat="44.36482" lon="6.35001">
        <ele>1416.1999511719</ele>
        <time>2016-07-11T07:44:05.000Z</time>
      </trkpt>
      <trkpt lat="44.36494" lon="6.34989">
        <ele>1417.8000488281</ele>
        <time>2016-07-11T07:44:14.000Z</time>
      </trkpt>
      <trkpt lat="44.36495" lon="6.34988">
        <ele>1418</ele>
        <time>2016-07-11T07:44:15.000Z</time>
      </trkpt>
      <trkpt lat="44.365" lon="6.34978">
        <ele>1417.5999755859</ele>
        <time>2016-07-11T07:44:21.000Z</time>
      </trkpt>
      <trkpt lat="44.36505" lon="6.34967">
        <ele>1413.8000488281</ele>
        <time>2016-07-11T07:44:28.000Z</time>
      </trkpt>
      <trkpt lat="44.36509" lon="6.34958">
        <ele>1411</ele>
        <time>2016-07-11T07:44:33.000Z</time>
      </trkpt>
      <trkpt lat="44.36522" lon="6.34938">
        <ele>1411.1999511719</ele>
        <time>2016-07-11T07:44:46.000Z</time>
      </trkpt>
      <trkpt lat="44.36529" lon="6.34922">
        <ele>1410.1999511719</ele>
        <time>2016-07-11T07:44:55.000Z</time>
      </trkpt>
      <trkpt lat="44.36534" lon="6.34913">
        <ele>1408.1999511719</ele>
        <time>2016-07-11T07:45:01.000Z</time>
      </trkpt>
      <trkpt lat="44.36541" lon="6.34906">
        <ele>1405.8000488281</ele>
        <time>2016-07-11T07:45:07.000Z</time>
      </trkpt>
      <trkpt lat="44.36551" lon="6.34896">
        <ele>1406.8000488281</ele>
        <time>2016-07-11T07:45:16.000Z</time>
      </trkpt>
      <trkpt lat="44.36554" lon="6.34892">
        <ele>1406</ele>
        <time>2016-07-11T07:45:19.000Z</time>
      </trkpt>
      <trkpt lat="44.36556" lon="6.3489">
        <ele>1405.5999755859</ele>
        <time>2016-07-11T07:45:21.000Z</time>
      </trkpt>
      <trkpt lat="44.36562" lon="6.34882">
        <ele>1403.5999755859</ele>
        <time>2016-07-11T07:45:27.000Z</time>
      </trkpt>
      <trkpt lat="44.36564" lon="6.34875">
        <ele>1401.8000488281</ele>
        <time>2016-07-11T07:45:32.000Z</time>
      </trkpt>
      <trkpt lat="44.36567" lon="6.34863">
        <ele>1398.5999755859</ele>
        <time>2016-07-11T07:45:39.000Z</time>
      </trkpt>
      <trkpt lat="44.36571" lon="6.34854">
        <ele>1396.4000244141</ele>
        <time>2016-07-11T07:45:45.000Z</time>
      </trkpt>
      <trkpt lat="44.36586" lon="6.34834">
        <ele>1399.1999511719</ele>
        <time>2016-07-11T07:45:59.000Z</time>
      </trkpt>
      <trkpt lat="44.3659" lon="6.34828">
        <ele>1400.1999511719</ele>
        <time>2016-07-11T07:46:04.000Z</time>
      </trkpt>
      <trkpt lat="44.36591" lon="6.34826">
        <ele>1400.4000244141</ele>
        <time>2016-07-11T07:46:06.000Z</time>
      </trkpt>
      <trkpt lat="44.36596" lon="6.34821">
        <ele>1401.4000244141</ele>
        <time>2016-07-11T07:46:11.000Z</time>
      </trkpt>
      <trkpt lat="44.36597" lon="6.34821">
        <ele>1401.4000244141</ele>
        <time>2016-07-11T07:46:12.000Z</time>
      </trkpt>
      <trkpt lat="44.36597" lon="6.3482">
        <ele>1401.5999755859</ele>
        <time>2016-07-11T07:46:13.000Z</time>
      </trkpt>
      <trkpt lat="44.36602" lon="6.34818">
        <ele>1402.8000488281</ele>
        <time>2016-07-11T07:46:19.000Z</time>
      </trkpt>
      <trkpt lat="44.36604" lon="6.34816">
        <ele>1403.1999511719</ele>
        <time>2016-07-11T07:46:21.000Z</time>
      </trkpt>
      <trkpt lat="44.36607" lon="6.34814">
        <ele>1403.8000488281</ele>
        <time>2016-07-11T07:46:24.000Z</time>
      </trkpt>
      <trkpt lat="44.36615" lon="6.34807">
        <ele>1403.5999755859</ele>
        <time>2016-07-11T07:46:31.000Z</time>
      </trkpt>
      <trkpt lat="44.36632" lon="6.34793">
        <ele>1398.4000244141</ele>
        <time>2016-07-11T07:46:45.000Z</time>
      </trkpt>
      <trkpt lat="44.36645" lon="6.34785">
        <ele>1395.1999511719</ele>
        <time>2016-07-11T07:46:55.000Z</time>
      </trkpt>
      <trkpt lat="44.36649" lon="6.34784">
        <ele>1394.5999755859</ele>
        <time>2016-07-11T07:46:59.000Z</time>
      </trkpt>
      <trkpt lat="44.36658" lon="6.34779">
        <ele>1392.5999755859</ele>
        <time>2016-07-11T07:47:04.000Z</time>
      </trkpt>
      <trkpt lat="44.36669" lon="6.34776">
        <ele>1393.4000244141</ele>
        <time>2016-07-11T07:47:11.000Z</time>
      </trkpt>
      <trkpt lat="44.36678" lon="6.34773">
        <ele>1394.8000488281</ele>
        <time>2016-07-11T07:47:17.000Z</time>
      </trkpt>
      <trkpt lat="44.36685" lon="6.3477">
        <ele>1395.8000488281</ele>
        <time>2016-07-11T07:47:23.000Z</time>
      </trkpt>
      <trkpt lat="44.36694" lon="6.34762">
        <ele>1397</ele>
        <time>2016-07-11T07:47:31.000Z</time>
      </trkpt>
      <trkpt lat="44.36709" lon="6.34747">
        <ele>1395</ele>
        <time>2016-07-11T07:47:44.000Z</time>
      </trkpt>
      <trkpt lat="44.36716" lon="6.34737">
        <ele>1394.8000488281</ele>
        <time>2016-07-11T07:47:52.000Z</time>
      </trkpt>
      <trkpt lat="44.3672" lon="6.34733">
        <ele>1395</ele>
        <time>2016-07-11T07:47:56.000Z</time>
      </trkpt>
      <trkpt lat="44.36727" lon="6.34727">
        <ele>1393.8000488281</ele>
        <time>2016-07-11T07:48:02.000Z</time>
      </trkpt>
      <trkpt lat="44.36734" lon="6.3472">
        <ele>1391.5999755859</ele>
        <time>2016-07-11T07:48:07.000Z</time>
      </trkpt>
      <trkpt lat="44.36741" lon="6.3471">
        <ele>1388.5999755859</ele>
        <time>2016-07-11T07:48:12.000Z</time>
      </trkpt>
      <trkpt lat="44.36745" lon="6.34706">
        <ele>1387.1999511719</ele>
        <time>2016-07-11T07:48:15.000Z</time>
      </trkpt>
      <trkpt lat="44.36757" lon="6.34696">
        <ele>1386.8000488281</ele>
        <time>2016-07-11T07:48:24.000Z</time>
      </trkpt>
      <trkpt lat="44.36763" lon="6.34692">
        <ele>1387.8000488281</ele>
        <time>2016-07-11T07:48:29.000Z</time>
      </trkpt>
      <trkpt lat="44.36768" lon="6.34688">
        <ele>1388.8000488281</ele>
        <time>2016-07-11T07:48:34.000Z</time>
      </trkpt>
      <trkpt lat="44.36775" lon="6.34681">
        <ele>1389.8000488281</ele>
        <time>2016-07-11T07:48:41.000Z</time>
      </trkpt>
      <trkpt lat="44.36779" lon="6.34676">
        <ele>1390.5999755859</ele>
        <time>2016-07-11T07:48:45.000Z</time>
      </trkpt>
      <trkpt lat="44.36786" lon="6.34663">
        <ele>1389.5999755859</ele>
        <time>2016-07-11T07:48:55.000Z</time>
      </trkpt>
      <trkpt lat="44.36791" lon="6.34647">
        <ele>1389.1999511719</ele>
        <time>2016-07-11T07:49:04.000Z</time>
      </trkpt>
      <trkpt lat="44.36798" lon="6.3463">
        <ele>1386.1999511719</ele>
        <time>2016-07-11T07:49:14.000Z</time>
      </trkpt>
      <trkpt lat="44.36804" lon="6.3462">
        <ele>1384.5999755859</ele>
        <time>2016-07-11T07:49:21.000Z</time>
      </trkpt>
      <trkpt lat="44.3681" lon="6.34609">
        <ele>1382.8000488281</ele>
        <time>2016-07-11T07:49:28.000Z</time>
      </trkpt>
      <trkpt lat="44.36812" lon="6.34602">
        <ele>1381.5999755859</ele>
        <time>2016-07-11T07:49:33.000Z</time>
      </trkpt>
      <trkpt lat="44.36815" lon="6.34593">
        <ele>1381</ele>
        <time>2016-07-11T07:49:38.000Z</time>
      </trkpt>
      <trkpt lat="44.36819" lon="6.3458">
        <ele>1381.4000244141</ele>
        <time>2016-07-11T07:49:45.000Z</time>
      </trkpt>
      <trkpt lat="44.36822" lon="6.34571">
        <ele>1381.8000488281</ele>
        <time>2016-07-11T07:49:48.000Z</time>
      </trkpt>
      <trkpt lat="44.36823" lon="6.34569">
        <ele>1382</ele>
        <time>2016-07-11T07:49:49.000Z</time>
      </trkpt>
      <trkpt lat="44.36826" lon="6.34545">
        <ele>1378.8000488281</ele>
        <time>2016-07-11T07:49:56.000Z</time>
      </trkpt>
      <trkpt lat="44.36827" lon="6.34542">
        <ele>1378.4000244141</ele>
        <time>2016-07-11T07:49:58.000Z</time>
      </trkpt>
      <trkpt lat="44.36827" lon="6.34529">
        <ele>1376.1999511719</ele>
        <time>2016-07-11T07:50:04.000Z</time>
      </trkpt>
      <trkpt lat="44.36829" lon="6.3452">
        <ele>1376.1999511719</ele>
        <time>2016-07-11T07:50:09.000Z</time>
      </trkpt>
      <trkpt lat="44.36829" lon="6.34517">
        <ele>1376.4000244141</ele>
        <time>2016-07-11T07:50:11.000Z</time>
      </trkpt>
      <trkpt lat="44.36832" lon="6.34505">
        <ele>1377.8000488281</ele>
        <time>2016-07-11T07:50:18.000Z</time>
      </trkpt>
      <trkpt lat="44.36834" lon="6.34503">
        <ele>1378.1999511719</ele>
        <time>2016-07-11T07:50:19.000Z</time>
      </trkpt>
      <trkpt lat="44.36836" lon="6.345">
        <ele>1378.8000488281</ele>
        <time>2016-07-11T07:50:21.000Z</time>
      </trkpt>
      <trkpt lat="44.36839" lon="6.34494">
        <ele>1380.1999511719</ele>
        <time>2016-07-11T07:50:25.000Z</time>
      </trkpt>
      <trkpt lat="44.36841" lon="6.34485">
        <ele>1381.1999511719</ele>
        <time>2016-07-11T07:50:30.000Z</time>
      </trkpt>
      <trkpt lat="44.36845" lon="6.34477">
        <ele>1381.4000244141</ele>
        <time>2016-07-11T07:50:35.000Z</time>
      </trkpt>
      <trkpt lat="44.36845" lon="6.34475">
        <ele>1381.1999511719</ele>
        <time>2016-07-11T07:50:36.000Z</time>
      </trkpt>
      <trkpt lat="44.36852" lon="6.34454">
        <ele>1380.1999511719</ele>
        <time>2016-07-11T07:50:49.000Z</time>
      </trkpt>
      <trkpt lat="44.36854" lon="6.34449">
        <ele>1380.5999755859</ele>
        <time>2016-07-11T07:50:57.000Z</time>
      </trkpt>
      <trkpt lat="44.36855" lon="6.34447">
        <ele>1380.8000488281</ele>
        <time>2016-07-11T07:51:01.000Z</time>
      </trkpt>
      <trkpt lat="44.36859" lon="6.3444">
        <ele>1381.8000488281</ele>
        <time>2016-07-11T07:51:07.000Z</time>
      </trkpt>
      <trkpt lat="44.36861" lon="6.34435">
        <ele>1382.4000244141</ele>
        <time>2016-07-11T07:51:10.000Z</time>
      </trkpt>
      <trkpt lat="44.36866" lon="6.34428">
        <ele>1383</ele>
        <time>2016-07-11T07:51:15.000Z</time>
      </trkpt>
      <trkpt lat="44.36873" lon="6.34421">
        <ele>1381.4000244141</ele>
        <time>2016-07-11T07:51:22.000Z</time>
      </trkpt>
      <trkpt lat="44.3688" lon="6.34412">
        <ele>1380</ele>
        <time>2016-07-11T07:51:30.000Z</time>
      </trkpt>
      <trkpt lat="44.36881" lon="6.34411">
        <ele>1380</ele>
        <time>2016-07-11T07:51:38.000Z</time>
      </trkpt>
      <trkpt lat="44.36885" lon="6.34404">
        <ele>1380.1999511719</ele>
        <time>2016-07-11T07:51:43.000Z</time>
      </trkpt>
      <trkpt lat="44.36887" lon="6.34401">
        <ele>1380.4000244141</ele>
        <time>2016-07-11T07:51:48.000Z</time>
      </trkpt>
      <trkpt lat="44.36892" lon="6.34391">
        <ele>1378.5999755859</ele>
        <time>2016-07-11T07:51:55.000Z</time>
      </trkpt>
      <trkpt lat="44.369" lon="6.34381">
        <ele>1376</ele>
        <time>2016-07-11T07:52:03.000Z</time>
      </trkpt>
      <trkpt lat="44.36905" lon="6.34371">
        <ele>1373.5999755859</ele>
        <time>2016-07-11T07:52:10.000Z</time>
      </trkpt>
      <trkpt lat="44.36911" lon="6.34364">
        <ele>1371.8000488281</ele>
        <time>2016-07-11T07:52:18.000Z</time>
      </trkpt>
      <trkpt lat="44.36912" lon="6.34363">
        <ele>1371.5999755859</ele>
        <time>2016-07-11T07:52:19.000Z</time>
      </trkpt>
      <trkpt lat="44.36915" lon="6.34358">
        <ele>1371.5999755859</ele>
        <time>2016-07-11T07:52:24.000Z</time>
      </trkpt>
      <trkpt lat="44.36917" lon="6.34353">
        <ele>1371.5999755859</ele>
        <time>2016-07-11T07:52:29.000Z</time>
      </trkpt>
      <trkpt lat="44.36918" lon="6.34352">
        <ele>1371.5999755859</ele>
        <time>2016-07-11T07:52:30.000Z</time>
      </trkpt>
      <trkpt lat="44.36919" lon="6.3435">
        <ele>1371.8000488281</ele>
        <time>2016-07-11T07:52:32.000Z</time>
      </trkpt>
      <trkpt lat="44.36922" lon="6.34343">
        <ele>1372</ele>
        <time>2016-07-11T07:52:37.000Z</time>
      </trkpt>
      <trkpt lat="44.3693" lon="6.34329">
        <ele>1372.8000488281</ele>
        <time>2016-07-11T07:52:47.000Z</time>
      </trkpt>
      <trkpt lat="44.36935" lon="6.3432">
        <ele>1373</ele>
        <time>2016-07-11T07:52:52.000Z</time>
      </trkpt>
      <trkpt lat="44.3694" lon="6.3431">
        <ele>1372.5999755859</ele>
        <time>2016-07-11T07:52:58.000Z</time>
      </trkpt>
      <trkpt lat="44.36946" lon="6.34298">
        <ele>1371.5999755859</ele>
        <time>2016-07-11T07:53:05.000Z</time>
      </trkpt>
      <trkpt lat="44.3695" lon="6.34291">
        <ele>1370.4000244141</ele>
        <time>2016-07-11T07:53:10.000Z</time>
      </trkpt>
      <trkpt lat="44.36956" lon="6.34282">
        <ele>1367.5999755859</ele>
        <time>2016-07-11T07:53:16.000Z</time>
      </trkpt>
      <trkpt lat="44.36957" lon="6.3428">
        <ele>1367.1999511719</ele>
        <time>2016-07-11T07:53:17.000Z</time>
      </trkpt>
      <trkpt lat="44.36964" lon="6.34267">
        <ele>1363.4000244141</ele>
        <time>2016-07-11T07:53:25.000Z</time>
      </trkpt>
      <trkpt lat="44.3697" lon="6.34258">
        <ele>1360.5999755859</ele>
        <time>2016-07-11T07:53:32.000Z</time>
      </trkpt>
      <trkpt lat="44.36978" lon="6.3425">
        <ele>1361</ele>
        <time>2016-07-11T07:53:39.000Z</time>
      </trkpt>
      <trkpt lat="44.36984" lon="6.34235">
        <ele>1363.1999511719</ele>
        <time>2016-07-11T07:53:49.000Z</time>
      </trkpt>
      <trkpt lat="44.36988" lon="6.34223">
        <ele>1362</ele>
        <time>2016-07-11T07:53:55.000Z</time>
      </trkpt>
      <trkpt lat="44.36995" lon="6.3421">
        <ele>1359</ele>
        <time>2016-07-11T07:54:03.000Z</time>
      </trkpt>
      <trkpt lat="44.36995" lon="6.34209">
        <ele>1358.8000488281</ele>
        <time>2016-07-11T07:54:04.000Z</time>
      </trkpt>
      <trkpt lat="44.36997" lon="6.342">
        <ele>1356.1999511719</ele>
        <time>2016-07-11T07:54:10.000Z</time>
      </trkpt>
      <trkpt lat="44.37" lon="6.34193">
        <ele>1356.1999511719</ele>
        <time>2016-07-11T07:54:16.000Z</time>
      </trkpt>
      <trkpt lat="44.37002" lon="6.34192">
        <ele>1356.8000488281</ele>
        <time>2016-07-11T07:54:19.000Z</time>
      </trkpt>
      <trkpt lat="44.37007" lon="6.34188">
        <ele>1358.5999755859</ele>
        <time>2016-07-11T07:54:27.000Z</time>
      </trkpt>
      <trkpt lat="44.37015" lon="6.34185">
        <ele>1361.5999755859</ele>
        <time>2016-07-11T07:54:34.000Z</time>
      </trkpt>
      <trkpt lat="44.37019" lon="6.34183">
        <ele>1362.8000488281</ele>
        <time>2016-07-11T07:54:38.000Z</time>
      </trkpt>
      <trkpt lat="44.37023" lon="6.34179">
        <ele>1364.5999755859</ele>
        <time>2016-07-11T07:54:43.000Z</time>
      </trkpt>
      <trkpt lat="44.37029" lon="6.34176">
        <ele>1366.5999755859</ele>
        <time>2016-07-11T07:54:49.000Z</time>
      </trkpt>
      <trkpt lat="44.37036" lon="6.3417">
        <ele>1365.5999755859</ele>
        <time>2016-07-11T07:54:56.000Z</time>
      </trkpt>
      <trkpt lat="44.37042" lon="6.34161">
        <ele>1363.1999511719</ele>
        <time>2016-07-11T07:55:03.000Z</time>
      </trkpt>
      <trkpt lat="44.37043" lon="6.3416">
        <ele>1362.8000488281</ele>
        <time>2016-07-11T07:55:04.000Z</time>
      </trkpt>
      <trkpt lat="44.37049" lon="6.34152">
        <ele>1362.1999511719</ele>
        <time>2016-07-11T07:55:11.000Z</time>
      </trkpt>
      <trkpt lat="44.37053" lon="6.34148">
        <ele>1361.8000488281</ele>
        <time>2016-07-11T07:55:16.000Z</time>
      </trkpt>
      <trkpt lat="44.3706" lon="6.34142">
        <ele>1358.5999755859</ele>
        <time>2016-07-11T07:55:23.000Z</time>
      </trkpt>
      <trkpt lat="44.37067" lon="6.34137">
        <ele>1355.5999755859</ele>
        <time>2016-07-11T07:55:31.000Z</time>
      </trkpt>
      <trkpt lat="44.37068" lon="6.34137">
        <ele>1355.1999511719</ele>
        <time>2016-07-11T07:55:32.000Z</time>
      </trkpt>
      <trkpt lat="44.37071" lon="6.34131">
        <ele>1352.4000244141</ele>
        <time>2016-07-11T07:55:38.000Z</time>
      </trkpt>
      <trkpt lat="44.3709" lon="6.34113">
        <ele>1344.4000244141</ele>
        <time>2016-07-11T07:55:59.000Z</time>
      </trkpt>
      <trkpt lat="44.37095" lon="6.34112">
        <ele>1344.4000244141</ele>
        <time>2016-07-11T07:56:05.000Z</time>
      </trkpt>
      <trkpt lat="44.37097" lon="6.34105">
        <ele>1343.1999511719</ele>
        <time>2016-07-11T07:56:11.000Z</time>
      </trkpt>
      <trkpt lat="44.37097" lon="6.34104">
        <ele>1342.8000488281</ele>
        <time>2016-07-11T07:56:12.000Z</time>
      </trkpt>
      <trkpt lat="44.37098" lon="6.34103">
        <ele>1342.4000244141</ele>
        <time>2016-07-11T07:56:13.000Z</time>
      </trkpt>
      <trkpt lat="44.37102" lon="6.341">
        <ele>1342.1999511719</ele>
        <time>2016-07-11T07:56:18.000Z</time>
      </trkpt>
      <trkpt lat="44.37104" lon="6.341">
        <ele>1342.1999511719</ele>
        <time>2016-07-11T07:56:20.000Z</time>
      </trkpt>
      <trkpt lat="44.37105" lon="6.34098">
        <ele>1342</ele>
        <time>2016-07-11T07:56:31.000Z</time>
      </trkpt>
      <trkpt lat="44.37108" lon="6.341">
        <ele>1342.5999755859</ele>
        <time>2016-07-11T07:56:36.000Z</time>
      </trkpt>
      <trkpt lat="44.37116" lon="6.34098">
        <ele>1342</ele>
        <time>2016-07-11T07:56:43.000Z</time>
      </trkpt>
      <trkpt lat="44.37125" lon="6.341">
        <ele>1340</ele>
        <time>2016-07-11T07:56:52.000Z</time>
      </trkpt>
      <trkpt lat="44.37127" lon="6.34096">
        <ele>1338.4000244141</ele>
        <time>2016-07-11T07:56:58.000Z</time>
      </trkpt>
      <trkpt lat="44.3713" lon="6.34094">
        <ele>1337.1999511719</ele>
        <time>2016-07-11T07:57:04.000Z</time>
      </trkpt>
      <trkpt lat="44.37133" lon="6.34092">
        <ele>1335.8000488281</ele>
        <time>2016-07-11T07:57:10.000Z</time>
      </trkpt>
      <trkpt lat="44.37139" lon="6.34089">
        <ele>1333.5999755859</ele>
        <time>2016-07-11T07:57:17.000Z</time>
      </trkpt>
      <trkpt lat="44.37147" lon="6.34088">
        <ele>1332.4000244141</ele>
        <time>2016-07-11T07:57:24.000Z</time>
      </trkpt>
      <trkpt lat="44.37146" lon="6.34089">
        <ele>1332.4000244141</ele>
        <time>2016-07-11T07:57:31.000Z</time>
      </trkpt>
      <trkpt lat="44.37152" lon="6.34088">
        <ele>1331.4000244141</ele>
        <time>2016-07-11T07:58:12.000Z</time>
      </trkpt>
      <trkpt lat="44.37155" lon="6.34087">
        <ele>1331</ele>
        <time>2016-07-11T07:58:18.000Z</time>
      </trkpt>
      <trkpt lat="44.37153" lon="6.34088">
        <ele>1331.1999511719</ele>
        <time>2016-07-11T07:58:25.000Z</time>
      </trkpt>
      <trkpt lat="44.37158" lon="6.34086">
        <ele>1330.1999511719</ele>
        <time>2016-07-11T07:58:44.000Z</time>
      </trkpt>
      <trkpt lat="44.37164" lon="6.34083">
        <ele>1329.1999511719</ele>
        <time>2016-07-11T07:58:49.000Z</time>
      </trkpt>
      <trkpt lat="44.37171" lon="6.34078">
        <ele>1327.5999755859</ele>
        <time>2016-07-11T07:58:56.000Z</time>
      </trkpt>
      <trkpt lat="44.37175" lon="6.34076">
        <ele>1326.8000488281</ele>
        <time>2016-07-11T07:59:00.000Z</time>
      </trkpt>
      <trkpt lat="44.3718" lon="6.34072">
        <ele>1325.5999755859</ele>
        <time>2016-07-11T07:59:06.000Z</time>
      </trkpt>
      <trkpt lat="44.37186" lon="6.34071">
        <ele>1324.5999755859</ele>
        <time>2016-07-11T07:59:12.000Z</time>
      </trkpt>
      <trkpt lat="44.37187" lon="6.34071">
        <ele>1324.4000244141</ele>
        <time>2016-07-11T07:59:13.000Z</time>
      </trkpt>
      <trkpt lat="44.37189" lon="6.3407">
        <ele>1323.8000488281</ele>
        <time>2016-07-11T07:59:15.000Z</time>
      </trkpt>
      <trkpt lat="44.37194" lon="6.34066">
        <ele>1322.8000488281</ele>
        <time>2016-07-11T07:59:21.000Z</time>
      </trkpt>
      <trkpt lat="44.37201" lon="6.34064">
        <ele>1321.4000244141</ele>
        <time>2016-07-11T07:59:28.000Z</time>
      </trkpt>
      <trkpt lat="44.37204" lon="6.34064">
        <ele>1320.8000488281</ele>
        <time>2016-07-11T07:59:31.000Z</time>
      </trkpt>
      <trkpt lat="44.37209" lon="6.34057">
        <ele>1317.4000244141</ele>
        <time>2016-07-11T07:59:37.000Z</time>
      </trkpt>
      <trkpt lat="44.3722" lon="6.34046">
        <ele>1311.5999755859</ele>
        <time>2016-07-11T07:59:48.000Z</time>
      </trkpt>
      <trkpt lat="44.37222" lon="6.34046">
        <ele>1311</ele>
        <time>2016-07-11T07:59:50.000Z</time>
      </trkpt>
      <trkpt lat="44.37232" lon="6.34039">
        <ele>1307</ele>
        <time>2016-07-11T07:59:58.000Z</time>
      </trkpt>
      <trkpt lat="44.37236" lon="6.34034">
        <ele>1304.4000244141</ele>
        <time>2016-07-11T08:00:03.000Z</time>
      </trkpt>
      <trkpt lat="44.37244" lon="6.34029">
        <ele>1301.1999511719</ele>
        <time>2016-07-11T08:00:10.000Z</time>
      </trkpt>
      <trkpt lat="44.37251" lon="6.34029">
        <ele>1300.8000488281</ele>
        <time>2016-07-11T08:00:16.000Z</time>
      </trkpt>
      <trkpt lat="44.37257" lon="6.34025">
        <ele>1300</ele>
        <time>2016-07-11T08:00:21.000Z</time>
      </trkpt>
      <trkpt lat="44.37265" lon="6.34023">
        <ele>1299.5999755859</ele>
        <time>2016-07-11T08:00:28.000Z</time>
      </trkpt>
      <trkpt lat="44.37266" lon="6.34022">
        <ele>1299.4000244141</ele>
        <time>2016-07-11T08:00:30.000Z</time>
      </trkpt>
      <trkpt lat="44.37274" lon="6.34018">
        <ele>1298.5999755859</ele>
        <time>2016-07-11T08:00:37.000Z</time>
      </trkpt>
      <trkpt lat="44.37282" lon="6.34015">
        <ele>1298</ele>
        <time>2016-07-11T08:00:44.000Z</time>
      </trkpt>
      <trkpt lat="44.37284" lon="6.34015">
        <ele>1297.8000488281</ele>
        <time>2016-07-11T08:00:45.000Z</time>
      </trkpt>
      <trkpt lat="44.37287" lon="6.34015">
        <ele>1297</ele>
        <time>2016-07-11T08:00:47.000Z</time>
      </trkpt>
      <trkpt lat="44.37292" lon="6.34012">
        <ele>1295.1999511719</ele>
        <time>2016-07-11T08:00:52.000Z</time>
      </trkpt>
      <trkpt lat="44.37303" lon="6.34008">
        <ele>1292.4000244141</ele>
        <time>2016-07-11T08:01:00.000Z</time>
      </trkpt>
      <trkpt lat="44.37309" lon="6.34004">
        <ele>1291</ele>
        <time>2016-07-11T08:01:06.000Z</time>
      </trkpt>
      <trkpt lat="44.37311" lon="6.34003">
        <ele>1290.8000488281</ele>
        <time>2016-07-11T08:01:07.000Z</time>
      </trkpt>
      <trkpt lat="44.37314" lon="6.33999">
        <ele>1290.5999755859</ele>
        <time>2016-07-11T08:01:11.000Z</time>
      </trkpt>
      <trkpt lat="44.37321" lon="6.3399">
        <ele>1290.1999511719</ele>
        <time>2016-07-11T08:01:20.000Z</time>
      </trkpt>
      <trkpt lat="44.37327" lon="6.33981">
        <ele>1289.8000488281</ele>
        <time>2016-07-11T08:01:27.000Z</time>
      </trkpt>
      <trkpt lat="44.37331" lon="6.33969">
        <ele>1286.1999511719</ele>
        <time>2016-07-11T08:01:34.000Z</time>
      </trkpt>
      <trkpt lat="44.37333" lon="6.33966">
        <ele>1285.1999511719</ele>
        <time>2016-07-11T08:01:36.000Z</time>
      </trkpt>
      <trkpt lat="44.37334" lon="6.33964">
        <ele>1284.4000244141</ele>
        <time>2016-07-11T08:01:38.000Z</time>
      </trkpt>
      <trkpt lat="44.37338" lon="6.33961">
        <ele>1283.4000244141</ele>
        <time>2016-07-11T08:01:42.000Z</time>
      </trkpt>
      <trkpt lat="44.3734" lon="6.33959">
        <ele>1282.5999755859</ele>
        <time>2016-07-11T08:01:45.000Z</time>
      </trkpt>
      <trkpt lat="44.37344" lon="6.33954">
        <ele>1281.5999755859</ele>
        <time>2016-07-11T08:01:51.000Z</time>
      </trkpt>
      <trkpt lat="44.37345" lon="6.33949">
        <ele>1280.8000488281</ele>
        <time>2016-07-11T08:01:55.000Z</time>
      </trkpt>
      <trkpt lat="44.37346" lon="6.33947">
        <ele>1280.4000244141</ele>
        <time>2016-07-11T08:01:57.000Z</time>
      </trkpt>
      <trkpt lat="44.37349" lon="6.33939">
        <ele>1279.1999511719</ele>
        <time>2016-07-11T08:02:03.000Z</time>
      </trkpt>
      <trkpt lat="44.37351" lon="6.33932">
        <ele>1277.8000488281</ele>
        <time>2016-07-11T08:02:08.000Z</time>
      </trkpt>
      <trkpt lat="44.37354" lon="6.33924">
        <ele>1276.5999755859</ele>
        <time>2016-07-11T08:02:14.000Z</time>
      </trkpt>
      <trkpt lat="44.37355" lon="6.33921">
        <ele>1276</ele>
        <time>2016-07-11T08:02:16.000Z</time>
      </trkpt>
      <trkpt lat="44.37356" lon="6.33919">
        <ele>1275.5999755859</ele>
        <time>2016-07-11T08:02:18.000Z</time>
      </trkpt>
      <trkpt lat="44.37356" lon="6.33908">
        <ele>1273.4000244141</ele>
        <time>2016-07-11T08:02:26.000Z</time>
      </trkpt>
      <trkpt lat="44.37353" lon="6.33908">
        <ele>1273.4000244141</ele>
        <time>2016-07-11T08:02:29.000Z</time>
      </trkpt>
      <trkpt lat="44.37349" lon="6.33909">
        <ele>1273.1999511719</ele>
        <time>2016-07-11T08:02:33.000Z</time>
      </trkpt>
      <trkpt lat="44.37343" lon="6.33905">
        <ele>1272.1999511719</ele>
        <time>2016-07-11T08:02:44.000Z</time>
      </trkpt>
      <trkpt lat="44.37341" lon="6.33904">
        <ele>1271.8000488281</ele>
        <time>2016-07-11T08:02:47.000Z</time>
      </trkpt>
      <trkpt lat="44.37337" lon="6.339">
        <ele>1271</ele>
        <time>2016-07-11T08:02:53.000Z</time>
      </trkpt>
      <trkpt lat="44.37332" lon="6.33897">
        <ele>1270.1999511719</ele>
        <time>2016-07-11T08:03:00.000Z</time>
      </trkpt>
      <trkpt lat="44.37327" lon="6.33896">
        <ele>1269.4000244141</ele>
        <time>2016-07-11T08:03:07.000Z</time>
      </trkpt>
      <trkpt lat="44.37324" lon="6.33895">
        <ele>1268.5999755859</ele>
        <time>2016-07-11T08:03:12.000Z</time>
      </trkpt>
      <trkpt lat="44.3732" lon="6.33891">
        <ele>1267.1999511719</ele>
        <time>2016-07-11T08:03:16.000Z</time>
      </trkpt>
      <trkpt lat="44.37315" lon="6.33886">
        <ele>1265</ele>
        <time>2016-07-11T08:03:23.000Z</time>
      </trkpt>
      <trkpt lat="44.37311" lon="6.33882">
        <ele>1263.4000244141</ele>
        <time>2016-07-11T08:03:28.000Z</time>
      </trkpt>
      <trkpt lat="44.37306" lon="6.33877">
        <ele>1261.4000244141</ele>
        <time>2016-07-11T08:03:34.000Z</time>
      </trkpt>
      <trkpt lat="44.37305" lon="6.33876">
        <ele>1261</ele>
        <time>2016-07-11T08:03:35.000Z</time>
      </trkpt>
      <trkpt lat="44.373" lon="6.33872">
        <ele>1259.4000244141</ele>
        <time>2016-07-11T08:03:41.000Z</time>
      </trkpt>
      <trkpt lat="44.37292" lon="6.33869">
        <ele>1257.8000488281</ele>
        <time>2016-07-11T08:03:48.000Z</time>
      </trkpt>
      <trkpt lat="44.37292" lon="6.33867">
        <ele>1257</ele>
        <time>2016-07-11T08:03:52.000Z</time>
      </trkpt>
      <trkpt lat="44.37289" lon="6.33866">
        <ele>1256.4000244141</ele>
        <time>2016-07-11T08:03:56.000Z</time>
      </trkpt>
      <trkpt lat="44.37288" lon="6.33866">
        <ele>1256.4000244141</ele>
        <time>2016-07-11T08:04:03.000Z</time>
      </trkpt>
      <trkpt lat="44.37287" lon="6.33867">
        <ele>1256.8000488281</ele>
        <time>2016-07-11T08:04:09.000Z</time>
      </trkpt>
      <trkpt lat="44.37285" lon="6.33868">
        <ele>1257.1999511719</ele>
        <time>2016-07-11T08:04:16.000Z</time>
      </trkpt>
      <trkpt lat="44.37284" lon="6.33868">
        <ele>1257</ele>
        <time>2016-07-11T08:04:17.000Z</time>
      </trkpt>
      <trkpt lat="44.37285" lon="6.33867">
        <ele>1256.8000488281</ele>
        <time>2016-07-11T08:04:28.000Z</time>
      </trkpt>
      <trkpt lat="44.37285" lon="6.33865">
        <ele>1255.8000488281</ele>
        <time>2016-07-11T08:04:58.000Z</time>
      </trkpt>
      <trkpt lat="44.37285" lon="6.33863">
        <ele>1255.4000244141</ele>
        <time>2016-07-11T08:05:07.000Z</time>
      </trkpt>
      <trkpt lat="44.37286" lon="6.33863">
        <ele>1255.4000244141</ele>
        <time>2016-07-11T08:05:21.000Z</time>
      </trkpt>
      <trkpt lat="44.37286" lon="6.33866">
        <ele>1256.1999511719</ele>
        <time>2016-07-11T08:05:29.000Z</time>
      </trkpt>
      <trkpt lat="44.37292" lon="6.33863">
        <ele>1255.5999755859</ele>
        <time>2016-07-11T08:05:34.000Z</time>
      </trkpt>
      <trkpt lat="44.37301" lon="6.3386">
        <ele>1255.1999511719</ele>
        <time>2016-07-11T08:05:41.000Z</time>
      </trkpt>
      <trkpt lat="44.37306" lon="6.3386">
        <ele>1255.4000244141</ele>
        <time>2016-07-11T08:05:44.000Z</time>
      </trkpt>
      <trkpt lat="44.37312" lon="6.33859">
        <ele>1255.5999755859</ele>
        <time>2016-07-11T08:05:50.000Z</time>
      </trkpt>
      <trkpt lat="44.37314" lon="6.33859">
        <ele>1255.4000244141</ele>
        <time>2016-07-11T08:05:51.000Z</time>
      </trkpt>
      <trkpt lat="44.37325" lon="6.33855">
        <ele>1255</ele>
        <time>2016-07-11T08:05:59.000Z</time>
      </trkpt>
      <trkpt lat="44.37332" lon="6.33853">
        <ele>1254</ele>
        <time>2016-07-11T08:06:05.000Z</time>
      </trkpt>
      <trkpt lat="44.37343" lon="6.3385">
        <ele>1253.1999511719</ele>
        <time>2016-07-11T08:06:13.000Z</time>
      </trkpt>
      <trkpt lat="44.37352" lon="6.33848">
        <ele>1252.8000488281</ele>
        <time>2016-07-11T08:06:20.000Z</time>
      </trkpt>
      <trkpt lat="44.37357" lon="6.33848">
        <ele>1253</ele>
        <time>2016-07-11T08:06:24.000Z</time>
      </trkpt>
      <trkpt lat="44.3737" lon="6.33849">
        <ele>1252.4000244141</ele>
        <time>2016-07-11T08:06:33.000Z</time>
      </trkpt>
      <trkpt lat="44.37383" lon="6.33852">
        <ele>1251.4000244141</ele>
        <time>2016-07-11T08:06:42.000Z</time>
      </trkpt>
      <trkpt lat="44.37395" lon="6.33859">
        <ele>1251.5999755859</ele>
        <time>2016-07-11T08:06:51.000Z</time>
      </trkpt>
      <trkpt lat="44.37399" lon="6.33863">
        <ele>1252.5999755859</ele>
        <time>2016-07-11T08:06:55.000Z</time>
      </trkpt>
      <trkpt lat="44.37403" lon="6.33866">
        <ele>1253.1999511719</ele>
        <time>2016-07-11T08:07:01.000Z</time>
      </trkpt>
      <trkpt lat="44.3741" lon="6.33876">
        <ele>1255.5999755859</ele>
        <time>2016-07-11T08:07:08.000Z</time>
      </trkpt>
      <trkpt lat="44.37416" lon="6.33888">
        <ele>1259</ele>
        <time>2016-07-11T08:07:15.000Z</time>
      </trkpt>
      <trkpt lat="44.37421" lon="6.33899">
        <ele>1262</ele>
        <time>2016-07-11T08:07:22.000Z</time>
      </trkpt>
      <trkpt lat="44.37426" lon="6.3391">
        <ele>1261.8000488281</ele>
        <time>2016-07-11T08:07:29.000Z</time>
      </trkpt>
      <trkpt lat="44.3743" lon="6.33917">
        <ele>1261.8000488281</ele>
        <time>2016-07-11T08:07:33.000Z</time>
      </trkpt>
      <trkpt lat="44.37437" lon="6.33932">
        <ele>1261.4000244141</ele>
        <time>2016-07-11T08:07:42.000Z</time>
      </trkpt>
      <trkpt lat="44.37441" lon="6.33947">
        <ele>1261.8000488281</ele>
        <time>2016-07-11T08:07:50.000Z</time>
      </trkpt>
      <trkpt lat="44.37443" lon="6.33961">
        <ele>1262.4000244141</ele>
        <time>2016-07-11T08:07:57.000Z</time>
      </trkpt>
      <trkpt lat="44.37443" lon="6.33978">
        <ele>1263.8000488281</ele>
        <time>2016-07-11T08:08:06.000Z</time>
      </trkpt>
      <trkpt lat="44.37443" lon="6.3399">
        <ele>1264.5999755859</ele>
        <time>2016-07-11T08:08:13.000Z</time>
      </trkpt>
      <trkpt lat="44.37441" lon="6.34001">
        <ele>1265.1999511719</ele>
        <time>2016-07-11T08:08:20.000Z</time>
      </trkpt>
      <trkpt lat="44.37438" lon="6.34015">
        <ele>1266</ele>
        <time>2016-07-11T08:08:28.000Z</time>
      </trkpt>
      <trkpt lat="44.37434" lon="6.34026">
        <ele>1267.1999511719</ele>
        <time>2016-07-11T08:08:35.000Z</time>
      </trkpt>
      <trkpt lat="44.37429" lon="6.34038">
        <ele>1268.8000488281</ele>
        <time>2016-07-11T08:08:42.000Z</time>
      </trkpt>
      <trkpt lat="44.37423" lon="6.3405">
        <ele>1270.5999755859</ele>
        <time>2016-07-11T08:08:50.000Z</time>
      </trkpt>
      <trkpt lat="44.37421" lon="6.34062">
        <ele>1271.4000244141</ele>
        <time>2016-07-11T08:08:58.000Z</time>
      </trkpt>
      <trkpt lat="44.37419" lon="6.34069">
        <ele>1271.8000488281</ele>
        <time>2016-07-11T08:09:03.000Z</time>
      </trkpt>
      <trkpt lat="44.37414" lon="6.34082">
        <ele>1272.4000244141</ele>
        <time>2016-07-11T08:09:11.000Z</time>
      </trkpt>
      <trkpt lat="44.37412" lon="6.34087">
        <ele>1272.8000488281</ele>
        <time>2016-07-11T08:09:15.000Z</time>
      </trkpt>
      <trkpt lat="44.37406" lon="6.34102">
        <ele>1273.8000488281</ele>
        <time>2016-07-11T08:09:24.000Z</time>
      </trkpt>
      <trkpt lat="44.37402" lon="6.34113">
        <ele>1274.5999755859</ele>
        <time>2016-07-11T08:09:31.000Z</time>
      </trkpt>
      <trkpt lat="44.37395" lon="6.34125">
        <ele>1275.8000488281</ele>
        <time>2016-07-11T08:09:39.000Z</time>
      </trkpt>
      <trkpt lat="44.37393" lon="6.34134">
        <ele>1276</ele>
        <time>2016-07-11T08:09:44.000Z</time>
      </trkpt>
      <trkpt lat="44.37391" lon="6.34143">
        <ele>1276</ele>
        <time>2016-07-11T08:09:49.000Z</time>
      </trkpt>
      <trkpt lat="44.37389" lon="6.3415">
        <ele>1276.4000244141</ele>
        <time>2016-07-11T08:09:53.000Z</time>
      </trkpt>
      <trkpt lat="44.37388" lon="6.34153">
        <ele>1276.5999755859</ele>
        <time>2016-07-11T08:09:55.000Z</time>
      </trkpt>
      <trkpt lat="44.37382" lon="6.34162">
        <ele>1278.1999511719</ele>
        <time>2016-07-11T08:10:01.000Z</time>
      </trkpt>
      <trkpt lat="44.37377" lon="6.34171">
        <ele>1279</ele>
        <time>2016-07-11T08:10:07.000Z</time>
      </trkpt>
      <trkpt lat="44.3737" lon="6.34183">
        <ele>1280</ele>
        <time>2016-07-11T08:10:15.000Z</time>
      </trkpt>
      <trkpt lat="44.37364" lon="6.34191">
        <ele>1281.1999511719</ele>
        <time>2016-07-11T08:10:21.000Z</time>
      </trkpt>
      <trkpt lat="44.37356" lon="6.34203">
        <ele>1282.4000244141</ele>
        <time>2016-07-11T08:10:29.000Z</time>
      </trkpt>
      <trkpt lat="44.37353" lon="6.34213">
        <ele>1282.8000488281</ele>
        <time>2016-07-11T08:10:35.000Z</time>
      </trkpt>
      <trkpt lat="44.37352" lon="6.34216">
        <ele>1282.8000488281</ele>
        <time>2016-07-11T08:10:37.000Z</time>
      </trkpt>
      <trkpt lat="44.37348" lon="6.34224">
        <ele>1283.4000244141</ele>
        <time>2016-07-11T08:10:42.000Z</time>
      </trkpt>
      <trkpt lat="44.37347" lon="6.34228">
        <ele>1283.5999755859</ele>
        <time>2016-07-11T08:10:45.000Z</time>
      </trkpt>
      <trkpt lat="44.37341" lon="6.3424">
        <ele>1284.4000244141</ele>
        <time>2016-07-11T08:10:53.000Z</time>
      </trkpt>
      <trkpt lat="44.37336" lon="6.34252">
        <ele>1285</ele>
        <time>2016-07-11T08:11:01.000Z</time>
      </trkpt>
      <trkpt lat="44.37328" lon="6.34268">
        <ele>1286.1999511719</ele>
        <time>2016-07-11T08:11:11.000Z</time>
      </trkpt>
      <trkpt lat="44.37322" lon="6.3428">
        <ele>1287.4000244141</ele>
        <time>2016-07-11T08:11:19.000Z</time>
      </trkpt>
      <trkpt lat="44.37319" lon="6.34285">
        <ele>1288</ele>
        <time>2016-07-11T08:11:23.000Z</time>
      </trkpt>
      <trkpt lat="44.37316" lon="6.34292">
        <ele>1288.5999755859</ele>
        <time>2016-07-11T08:11:28.000Z</time>
      </trkpt>
      <trkpt lat="44.37312" lon="6.34296">
        <ele>1289.5999755859</ele>
        <time>2016-07-11T08:11:32.000Z</time>
      </trkpt>
      <trkpt lat="44.37305" lon="6.34311">
        <ele>1290.8000488281</ele>
        <time>2016-07-11T08:11:43.000Z</time>
      </trkpt>
      <trkpt lat="44.37303" lon="6.34319">
        <ele>1291</ele>
        <time>2016-07-11T08:11:51.000Z</time>
      </trkpt>
      <trkpt lat="44.37296" lon="6.34329">
        <ele>1292.4000244141</ele>
        <time>2016-07-11T08:11:58.000Z</time>
      </trkpt>
      <trkpt lat="44.37288" lon="6.34342">
        <ele>1294.1999511719</ele>
        <time>2016-07-11T08:12:07.000Z</time>
      </trkpt>
      <trkpt lat="44.37284" lon="6.34352">
        <ele>1295</ele>
        <time>2016-07-11T08:12:14.000Z</time>
      </trkpt>
      <trkpt lat="44.37279" lon="6.34361">
        <ele>1295.8000488281</ele>
        <time>2016-07-11T08:12:21.000Z</time>
      </trkpt>
      <trkpt lat="44.37274" lon="6.34376">
        <ele>1296.4000244141</ele>
        <time>2016-07-11T08:12:30.000Z</time>
      </trkpt>
      <trkpt lat="44.37272" lon="6.34383">
        <ele>1296.4000244141</ele>
        <time>2016-07-11T08:12:34.000Z</time>
      </trkpt>
      <trkpt lat="44.37269" lon="6.34386">
        <ele>1297.1999511719</ele>
        <time>2016-07-11T08:12:38.000Z</time>
      </trkpt>
      <trkpt lat="44.37265" lon="6.34386">
        <ele>1298.5999755859</ele>
        <time>2016-07-11T08:12:42.000Z</time>
      </trkpt>
      <trkpt lat="44.37263" lon="6.3438">
        <ele>1299.1999511719</ele>
        <time>2016-07-11T08:12:46.000Z</time>
      </trkpt>
      <trkpt lat="44.37263" lon="6.3437">
        <ele>1299.8000488281</ele>
        <time>2016-07-11T08:12:52.000Z</time>
      </trkpt>
      <trkpt lat="44.37263" lon="6.34358">
        <ele>1300.8000488281</ele>
        <time>2016-07-11T08:13:00.000Z</time>
      </trkpt>
      <trkpt lat="44.37262" lon="6.34349">
        <ele>1301.5999755859</ele>
        <time>2016-07-11T08:13:05.000Z</time>
      </trkpt>
      <trkpt lat="44.37262" lon="6.34343">
        <ele>1301.8000488281</ele>
        <time>2016-07-11T08:13:09.000Z</time>
      </trkpt>
      <trkpt lat="44.37263" lon="6.34333">
        <ele>1302</ele>
        <time>2016-07-11T08:13:15.000Z</time>
      </trkpt>
      <trkpt lat="44.37263" lon="6.34329">
        <ele>1302.4000244141</ele>
        <time>2016-07-11T08:13:17.000Z</time>
      </trkpt>
      <trkpt lat="44.37262" lon="6.34319">
        <ele>1303.1999511719</ele>
        <time>2016-07-11T08:13:23.000Z</time>
      </trkpt>
      <trkpt lat="44.37261" lon="6.34313">
        <ele>1304</ele>
        <time>2016-07-11T08:13:26.000Z</time>
      </trkpt>
      <trkpt lat="44.37259" lon="6.34307">
        <ele>1304.8000488281</ele>
        <time>2016-07-11T08:13:29.000Z</time>
      </trkpt>
      <trkpt lat="44.3726" lon="6.34301">
        <ele>1305</ele>
        <time>2016-07-11T08:13:33.000Z</time>
      </trkpt>
      <trkpt lat="44.37259" lon="6.34292">
        <ele>1306</ele>
        <time>2016-07-11T08:13:39.000Z</time>
      </trkpt>
      <trkpt lat="44.37259" lon="6.34289">
        <ele>1306</ele>
        <time>2016-07-11T08:13:40.000Z</time>
      </trkpt>
      <trkpt lat="44.37261" lon="6.34278">
        <ele>1306.4000244141</ele>
        <time>2016-07-11T08:13:46.000Z</time>
      </trkpt>
      <trkpt lat="44.37261" lon="6.34274">
        <ele>1306.4000244141</ele>
        <time>2016-07-11T08:13:48.000Z</time>
      </trkpt>
      <trkpt lat="44.37262" lon="6.34264">
        <ele>1306.5999755859</ele>
        <time>2016-07-11T08:13:54.000Z</time>
      </trkpt>
      <trkpt lat="44.37263" lon="6.34255">
        <ele>1307.1999511719</ele>
        <time>2016-07-11T08:13:59.000Z</time>
      </trkpt>
      <trkpt lat="44.37263" lon="6.34252">
        <ele>1307.1999511719</ele>
        <time>2016-07-11T08:14:01.000Z</time>
      </trkpt>
      <trkpt lat="44.37264" lon="6.34246">
        <ele>1307.1999511719</ele>
        <time>2016-07-11T08:14:04.000Z</time>
      </trkpt>
      <trkpt lat="44.37264" lon="6.34236">
        <ele>1308</ele>
        <time>2016-07-11T08:14:09.000Z</time>
      </trkpt>
      <trkpt lat="44.37265" lon="6.34227">
        <ele>1307.8000488281</ele>
        <time>2016-07-11T08:14:15.000Z</time>
      </trkpt>
      <trkpt lat="44.37265" lon="6.34225">
        <ele>1307.8000488281</ele>
        <time>2016-07-11T08:14:24.000Z</time>
      </trkpt>
      <trkpt lat="44.37267" lon="6.34218">
        <ele>1307.8000488281</ele>
        <time>2016-07-11T08:14:38.000Z</time>
      </trkpt>
      <trkpt lat="44.37267" lon="6.34216">
        <ele>1307.5999755859</ele>
        <time>2016-07-11T08:14:40.000Z</time>
      </trkpt>
      <trkpt lat="44.37268" lon="6.34208">
        <ele>1307.8000488281</ele>
        <time>2016-07-11T08:14:45.000Z</time>
      </trkpt>
      <trkpt lat="44.37267" lon="6.34194">
        <ele>1309</ele>
        <time>2016-07-11T08:14:52.000Z</time>
      </trkpt>
      <trkpt lat="44.37268" lon="6.3418">
        <ele>1309.4000244141</ele>
        <time>2016-07-11T08:14:59.000Z</time>
      </trkpt>
      <trkpt lat="44.37268" lon="6.34179">
        <ele>1309.5999755859</ele>
        <time>2016-07-11T08:15:00.000Z</time>
      </trkpt>
      <trkpt lat="44.37262" lon="6.34179">
        <ele>1311.1999511719</ele>
        <time>2016-07-11T08:15:07.000Z</time>
      </trkpt>
      <trkpt lat="44.3726" lon="6.34185">
        <ele>1311.1999511719</ele>
        <time>2016-07-11T08:15:11.000Z</time>
      </trkpt>
      <trkpt lat="44.37258" lon="6.34195">
        <ele>1311.1999511719</ele>
        <time>2016-07-11T08:15:18.000Z</time>
      </trkpt>
      <trkpt lat="44.37256" lon="6.34201">
        <ele>1311.4000244141</ele>
        <time>2016-07-11T08:15:23.000Z</time>
      </trkpt>
      <trkpt lat="44.37252" lon="6.34209">
        <ele>1312.1999511719</ele>
        <time>2016-07-11T08:15:28.000Z</time>
      </trkpt>
      <trkpt lat="44.37252" lon="6.3421">
        <ele>1312.4000244141</ele>
        <time>2016-07-11T08:15:29.000Z</time>
      </trkpt>
      <trkpt lat="44.37248" lon="6.34217">
        <ele>1313.4000244141</ele>
        <time>2016-07-11T08:15:36.000Z</time>
      </trkpt>
      <trkpt lat="44.37242" lon="6.34225">
        <ele>1314.8000488281</ele>
        <time>2016-07-11T08:15:43.000Z</time>
      </trkpt>
      <trkpt lat="44.3724" lon="6.34232">
        <ele>1315.4000244141</ele>
        <time>2016-07-11T08:15:47.000Z</time>
      </trkpt>
      <trkpt lat="44.37235" lon="6.34241">
        <ele>1316.4000244141</ele>
        <time>2016-07-11T08:15:54.000Z</time>
      </trkpt>
      <trkpt lat="44.3723" lon="6.34252">
        <ele>1317.1999511719</ele>
        <time>2016-07-11T08:16:01.000Z</time>
      </trkpt>
      <trkpt lat="44.37225" lon="6.34261">
        <ele>1318.1999511719</ele>
        <time>2016-07-11T08:16:08.000Z</time>
      </trkpt>
      <trkpt lat="44.37219" lon="6.34268">
        <ele>1319.1999511719</ele>
        <time>2016-07-11T08:16:14.000Z</time>
      </trkpt>
      <trkpt lat="44.37218" lon="6.3427">
        <ele>1319.4000244141</ele>
        <time>2016-07-11T08:16:15.000Z</time>
      </trkpt>
      <trkpt lat="44.37211" lon="6.34283">
        <ele>1320.4000244141</ele>
        <time>2016-07-11T08:16:23.000Z</time>
      </trkpt>
      <trkpt lat="44.37205" lon="6.34291">
        <ele>1321.5999755859</ele>
        <time>2016-07-11T08:16:29.000Z</time>
      </trkpt>
      <trkpt lat="44.37199" lon="6.34297">
        <ele>1322.8000488281</ele>
        <time>2016-07-11T08:16:35.000Z</time>
      </trkpt>
      <trkpt lat="44.37196" lon="6.343">
        <ele>1323.5999755859</ele>
        <time>2016-07-11T08:16:39.000Z</time>
      </trkpt>
      <trkpt lat="44.37192" lon="6.34304">
        <ele>1324.1999511719</ele>
        <time>2016-07-11T08:16:43.000Z</time>
      </trkpt>
      <trkpt lat="44.37186" lon="6.34316">
        <ele>1325</ele>
        <time>2016-07-11T08:16:50.000Z</time>
      </trkpt>
      <trkpt lat="44.37184" lon="6.34323">
        <ele>1325.4000244141</ele>
        <time>2016-07-11T08:16:55.000Z</time>
      </trkpt>
      <trkpt lat="44.37183" lon="6.34326">
        <ele>1325.5999755859</ele>
        <time>2016-07-11T08:16:57.000Z</time>
      </trkpt>
      <trkpt lat="44.37182" lon="6.34329">
        <ele>1325.5999755859</ele>
        <time>2016-07-11T08:16:58.000Z</time>
      </trkpt>
      <trkpt lat="44.37181" lon="6.34342">
        <ele>1325.5999755859</ele>
        <time>2016-07-11T08:17:05.000Z</time>
      </trkpt>
      <trkpt lat="44.3718" lon="6.34344">
        <ele>1325.5999755859</ele>
        <time>2016-07-11T08:17:06.000Z</time>
      </trkpt>
      <trkpt lat="44.37176" lon="6.34357">
        <ele>1326.4000244141</ele>
        <time>2016-07-11T08:17:14.000Z</time>
      </trkpt>
      <trkpt lat="44.37172" lon="6.34366">
        <ele>1326.8000488281</ele>
        <time>2016-07-11T08:17:19.000Z</time>
      </trkpt>
      <trkpt lat="44.37168" lon="6.34378">
        <ele>1327.5999755859</ele>
        <time>2016-07-11T08:17:27.000Z</time>
      </trkpt>
      <trkpt lat="44.37165" lon="6.34389">
        <ele>1328</ele>
        <time>2016-07-11T08:17:34.000Z</time>
      </trkpt>
      <trkpt lat="44.37163" lon="6.34402">
        <ele>1328.1999511719</ele>
        <time>2016-07-11T08:17:41.000Z</time>
      </trkpt>
      <trkpt lat="44.37163" lon="6.34418">
        <ele>1327.8000488281</ele>
        <time>2016-07-11T08:17:50.000Z</time>
      </trkpt>
      <trkpt lat="44.37163" lon="6.34434">
        <ele>1327.4000244141</ele>
        <time>2016-07-11T08:17:58.000Z</time>
      </trkpt>
      <trkpt lat="44.37161" lon="6.3445">
        <ele>1327.5999755859</ele>
        <time>2016-07-11T08:18:06.000Z</time>
      </trkpt>
      <trkpt lat="44.3716" lon="6.34466">
        <ele>1328.4000244141</ele>
        <time>2016-07-11T08:18:14.000Z</time>
      </trkpt>
      <trkpt lat="44.37156" lon="6.34479">
        <ele>1329.5999755859</ele>
        <time>2016-07-11T08:18:21.000Z</time>
      </trkpt>
      <trkpt lat="44.37154" lon="6.34486">
        <ele>1330.1999511719</ele>
        <time>2016-07-11T08:18:25.000Z</time>
      </trkpt>
      <trkpt lat="44.37149" lon="6.34496">
        <ele>1331.8000488281</ele>
        <time>2016-07-11T08:18:31.000Z</time>
      </trkpt>
      <trkpt lat="44.3714" lon="6.34509">
        <ele>1334.5999755859</ele>
        <time>2016-07-11T08:18:41.000Z</time>
      </trkpt>
      <trkpt lat="44.37135" lon="6.34517">
        <ele>1335.5999755859</ele>
        <time>2016-07-11T08:18:47.000Z</time>
      </trkpt>
      <trkpt lat="44.37129" lon="6.34526">
        <ele>1336.5999755859</ele>
        <time>2016-07-11T08:18:53.000Z</time>
      </trkpt>
      <trkpt lat="44.37125" lon="6.34532">
        <ele>1337.4000244141</ele>
        <time>2016-07-11T08:18:59.000Z</time>
      </trkpt>
      <trkpt lat="44.37118" lon="6.34544">
        <ele>1338.8000488281</ele>
        <time>2016-07-11T08:19:07.000Z</time>
      </trkpt>
      <trkpt lat="44.37116" lon="6.34553">
        <ele>1339</ele>
        <time>2016-07-11T08:19:13.000Z</time>
      </trkpt>
      <trkpt lat="44.37113" lon="6.34564">
        <ele>1339.4000244141</ele>
        <time>2016-07-11T08:19:19.000Z</time>
      </trkpt>
      <trkpt lat="44.37106" lon="6.34577">
        <ele>1340.8000488281</ele>
        <time>2016-07-11T08:19:28.000Z</time>
      </trkpt>
      <trkpt lat="44.37105" lon="6.34579">
        <ele>1340.8000488281</ele>
        <time>2016-07-11T08:19:29.000Z</time>
      </trkpt>
      <trkpt lat="44.37101" lon="6.34587">
        <ele>1341.5999755859</ele>
        <time>2016-07-11T08:19:35.000Z</time>
      </trkpt>
      <trkpt lat="44.37097" lon="6.34599">
        <ele>1342.1999511719</ele>
        <time>2016-07-11T08:19:42.000Z</time>
      </trkpt>
      <trkpt lat="44.37091" lon="6.34609">
        <ele>1343.1999511719</ele>
        <time>2016-07-11T08:19:48.000Z</time>
      </trkpt>
      <trkpt lat="44.37088" lon="6.34614">
        <ele>1343.8000488281</ele>
        <time>2016-07-11T08:19:51.000Z</time>
      </trkpt>
      <trkpt lat="44.37082" lon="6.3463">
        <ele>1344</ele>
        <time>2016-07-11T08:19:59.000Z</time>
      </trkpt>
      <trkpt lat="44.37081" lon="6.34632">
        <ele>1343.8000488281</ele>
        <time>2016-07-11T08:20:01.000Z</time>
      </trkpt>
      <trkpt lat="44.3708" lon="6.34636">
        <ele>1343.8000488281</ele>
        <time>2016-07-11T08:20:03.000Z</time>
      </trkpt>
      <trkpt lat="44.37076" lon="6.34639">
        <ele>1344.4000244141</ele>
        <time>2016-07-11T08:20:06.000Z</time>
      </trkpt>
      <trkpt lat="44.37072" lon="6.34647">
        <ele>1344.1999511719</ele>
        <time>2016-07-11T08:20:12.000Z</time>
      </trkpt>
      <trkpt lat="44.37072" lon="6.34649">
        <ele>1344.1999511719</ele>
        <time>2016-07-11T08:20:13.000Z</time>
      </trkpt>
      <trkpt lat="44.3707" lon="6.34659">
        <ele>1344.1999511719</ele>
        <time>2016-07-11T08:20:19.000Z</time>
      </trkpt>
      <trkpt lat="44.37067" lon="6.34669">
        <ele>1344.5999755859</ele>
        <time>2016-07-11T08:20:24.000Z</time>
      </trkpt>
      <trkpt lat="44.37065" lon="6.34679">
        <ele>1344.8000488281</ele>
        <time>2016-07-11T08:20:29.000Z</time>
      </trkpt>
      <trkpt lat="44.37065" lon="6.3468">
        <ele>1344.8000488281</ele>
        <time>2016-07-11T08:20:30.000Z</time>
      </trkpt>
      <trkpt lat="44.37062" lon="6.3469">
        <ele>1344.4000244141</ele>
        <time>2016-07-11T08:20:35.000Z</time>
      </trkpt>
      <trkpt lat="44.37057" lon="6.34706">
        <ele>1343.8000488281</ele>
        <time>2016-07-11T08:20:44.000Z</time>
      </trkpt>
      <trkpt lat="44.37052" lon="6.34717">
        <ele>1343.4000244141</ele>
        <time>2016-07-11T08:20:51.000Z</time>
      </trkpt>
      <trkpt lat="44.37046" lon="6.34724">
        <ele>1343.5999755859</ele>
        <time>2016-07-11T08:20:56.000Z</time>
      </trkpt>
      <trkpt lat="44.3704" lon="6.34734">
        <ele>1343.5999755859</ele>
        <time>2016-07-11T08:21:03.000Z</time>
      </trkpt>
      <trkpt lat="44.37033" lon="6.34751">
        <ele>1343.4000244141</ele>
        <time>2016-07-11T08:21:13.000Z</time>
      </trkpt>
      <trkpt lat="44.37031" lon="6.34759">
        <ele>1343.4000244141</ele>
        <time>2016-07-11T08:21:17.000Z</time>
      </trkpt>
      <trkpt lat="44.37025" lon="6.34771">
        <ele>1344.4000244141</ele>
        <time>2016-07-11T08:21:24.000Z</time>
      </trkpt>
      <trkpt lat="44.37021" lon="6.34779">
        <ele>1344.8000488281</ele>
        <time>2016-07-11T08:21:29.000Z</time>
      </trkpt>
      <trkpt lat="44.37015" lon="6.34793">
        <ele>1345.4000244141</ele>
        <time>2016-07-11T08:21:37.000Z</time>
      </trkpt>
      <trkpt lat="44.3701" lon="6.34803">
        <ele>1346</ele>
        <time>2016-07-11T08:21:43.000Z</time>
      </trkpt>
      <trkpt lat="44.37006" lon="6.34814">
        <ele>1346.4000244141</ele>
        <time>2016-07-11T08:21:50.000Z</time>
      </trkpt>
      <trkpt lat="44.37006" lon="6.34818">
        <ele>1346.1999511719</ele>
        <time>2016-07-11T08:21:59.000Z</time>
      </trkpt>
      <trkpt lat="44.37003" lon="6.34825">
        <ele>1346.5999755859</ele>
        <time>2016-07-11T08:22:07.000Z</time>
      </trkpt>
      <trkpt lat="44.36998" lon="6.34832">
        <ele>1347.4000244141</ele>
        <time>2016-07-11T08:22:12.000Z</time>
      </trkpt>
      <trkpt lat="44.36989" lon="6.34839">
        <ele>1349.4000244141</ele>
        <time>2016-07-11T08:22:18.000Z</time>
      </trkpt>
      <trkpt lat="44.36981" lon="6.34846">
        <ele>1351</ele>
        <time>2016-07-11T08:22:24.000Z</time>
      </trkpt>
      <trkpt lat="44.36975" lon="6.34853">
        <ele>1351.5999755859</ele>
        <time>2016-07-11T08:22:30.000Z</time>
      </trkpt>
      <trkpt lat="44.36969" lon="6.34859">
        <ele>1352</ele>
        <time>2016-07-11T08:22:36.000Z</time>
      </trkpt>
      <trkpt lat="44.36964" lon="6.34869">
        <ele>1352</ele>
        <time>2016-07-11T08:22:42.000Z</time>
      </trkpt>
      <trkpt lat="44.36959" lon="6.34876">
        <ele>1352.1999511719</ele>
        <time>2016-07-11T08:22:47.000Z</time>
      </trkpt>
      <trkpt lat="44.36952" lon="6.34888">
        <ele>1352.1999511719</ele>
        <time>2016-07-11T08:22:54.000Z</time>
      </trkpt>
      <trkpt lat="44.36945" lon="6.34897">
        <ele>1352.5999755859</ele>
        <time>2016-07-11T08:23:01.000Z</time>
      </trkpt>
      <trkpt lat="44.36941" lon="6.34903">
        <ele>1352.4000244141</ele>
        <time>2016-07-11T08:23:04.000Z</time>
      </trkpt>
      <trkpt lat="44.36941" lon="6.34904">
        <ele>1352.4000244141</ele>
        <time>2016-07-11T08:23:05.000Z</time>
      </trkpt>
      <trkpt lat="44.36938" lon="6.34907">
        <ele>1352.4000244141</ele>
        <time>2016-07-11T08:23:07.000Z</time>
      </trkpt>
      <trkpt lat="44.36932" lon="6.34918">
        <ele>1352.1999511719</ele>
        <time>2016-07-11T08:23:14.000Z</time>
      </trkpt>
      <trkpt lat="44.36927" lon="6.3493">
        <ele>1351.5999755859</ele>
        <time>2016-07-11T08:23:21.000Z</time>
      </trkpt>
      <trkpt lat="44.36922" lon="6.3494">
        <ele>1351</ele>
        <time>2016-07-11T08:23:28.000Z</time>
      </trkpt>
      <trkpt lat="44.36917" lon="6.34947">
        <ele>1350.8000488281</ele>
        <time>2016-07-11T08:23:33.000Z</time>
      </trkpt>
      <trkpt lat="44.36913" lon="6.34955">
        <ele>1350.5999755859</ele>
        <time>2016-07-11T08:23:38.000Z</time>
      </trkpt>
      <trkpt lat="44.36912" lon="6.34957">
        <ele>1350.5999755859</ele>
        <time>2016-07-11T08:23:39.000Z</time>
      </trkpt>
      <trkpt lat="44.36905" lon="6.34966">
        <ele>1350.5999755859</ele>
        <time>2016-07-11T08:23:45.000Z</time>
      </trkpt>
      <trkpt lat="44.36897" lon="6.34974">
        <ele>1351.1999511719</ele>
        <time>2016-07-11T08:23:52.000Z</time>
      </trkpt>
      <trkpt lat="44.36888" lon="6.34985">
        <ele>1351.4000244141</ele>
        <time>2016-07-11T08:24:00.000Z</time>
      </trkpt>
      <trkpt lat="44.36882" lon="6.34996">
        <ele>1350.8000488281</ele>
        <time>2016-07-11T08:24:08.000Z</time>
      </trkpt>
      <trkpt lat="44.36876" lon="6.35004">
        <ele>1350.8000488281</ele>
        <time>2016-07-11T08:24:14.000Z</time>
      </trkpt>
      <trkpt lat="44.36869" lon="6.35012">
        <ele>1351</ele>
        <time>2016-07-11T08:24:21.000Z</time>
      </trkpt>
      <trkpt lat="44.3686" lon="6.35025">
        <ele>1351</ele>
        <time>2016-07-11T08:24:29.000Z</time>
      </trkpt>
      <trkpt lat="44.36858" lon="6.35029">
        <ele>1351</ele>
        <time>2016-07-11T08:24:31.000Z</time>
      </trkpt>
      <trkpt lat="44.36829" lon="6.35053">
        <ele>1353.5999755859</ele>
        <time>2016-07-11T08:24:55.000Z</time>
      </trkpt>
      <trkpt lat="44.36823" lon="6.35061">
        <ele>1354</ele>
        <time>2016-07-11T08:25:01.000Z</time>
      </trkpt>
      <trkpt lat="44.3682" lon="6.35064">
        <ele>1354</ele>
        <time>2016-07-11T08:25:03.000Z</time>
      </trkpt>
      <trkpt lat="44.36816" lon="6.35075">
        <ele>1353.8000488281</ele>
        <time>2016-07-11T08:25:10.000Z</time>
      </trkpt>
      <trkpt lat="44.36808" lon="6.35085">
        <ele>1354.4000244141</ele>
        <time>2016-07-11T08:25:17.000Z</time>
      </trkpt>
      <trkpt lat="44.36805" lon="6.35088">
        <ele>1354.4000244141</ele>
        <time>2016-07-11T08:25:19.000Z</time>
      </trkpt>
      <trkpt lat="44.36798" lon="6.35094">
        <ele>1355.4000244141</ele>
        <time>2016-07-11T08:25:24.000Z</time>
      </trkpt>
      <trkpt lat="44.36787" lon="6.35107">
        <ele>1356.1999511719</ele>
        <time>2016-07-11T08:25:33.000Z</time>
      </trkpt>
      <trkpt lat="44.36786" lon="6.35108">
        <ele>1356.1999511719</ele>
        <time>2016-07-11T08:25:34.000Z</time>
      </trkpt>
      <trkpt lat="44.36784" lon="6.35113">
        <ele>1356.1999511719</ele>
        <time>2016-07-11T08:25:37.000Z</time>
      </trkpt>
      <trkpt lat="44.36782" lon="6.35116">
        <ele>1356.1999511719</ele>
        <time>2016-07-11T08:25:39.000Z</time>
      </trkpt>
      <trkpt lat="44.36774" lon="6.35124">
        <ele>1356.1999511719</ele>
        <time>2016-07-11T08:26:33.000Z</time>
      </trkpt>
      <trkpt lat="44.36771" lon="6.35136">
        <ele>1355.1999511719</ele>
        <time>2016-07-11T08:26:41.000Z</time>
      </trkpt>
      <trkpt lat="44.3676" lon="6.35155">
        <ele>1354.1999511719</ele>
        <time>2016-07-11T08:26:54.000Z</time>
      </trkpt>
      <trkpt lat="44.36753" lon="6.35167">
        <ele>1354</ele>
        <time>2016-07-11T08:27:01.000Z</time>
      </trkpt>
      <trkpt lat="44.36753" lon="6.35169">
        <ele>1354</ele>
        <time>2016-07-11T08:27:02.000Z</time>
      </trkpt>
      <trkpt lat="44.36747" lon="6.3518">
        <ele>1354</ele>
        <time>2016-07-11T08:27:09.000Z</time>
      </trkpt>
      <trkpt lat="44.36742" lon="6.35189">
        <ele>1353.8000488281</ele>
        <time>2016-07-11T08:27:15.000Z</time>
      </trkpt>
      <trkpt lat="44.36736" lon="6.35201">
        <ele>1353</ele>
        <time>2016-07-11T08:27:23.000Z</time>
      </trkpt>
      <trkpt lat="44.3673" lon="6.35209">
        <ele>1352.4000244141</ele>
        <time>2016-07-11T08:27:28.000Z</time>
      </trkpt>
      <trkpt lat="44.36727" lon="6.35212">
        <ele>1352</ele>
        <time>2016-07-11T08:27:31.000Z</time>
      </trkpt>
      <trkpt lat="44.36723" lon="6.35217">
        <ele>1351.5999755859</ele>
        <time>2016-07-11T08:27:35.000Z</time>
      </trkpt>
      <trkpt lat="44.36716" lon="6.35234">
        <ele>1350.4000244141</ele>
        <time>2016-07-11T08:27:44.000Z</time>
      </trkpt>
      <trkpt lat="44.36714" lon="6.35239">
        <ele>1350.1999511719</ele>
        <time>2016-07-11T08:27:47.000Z</time>
      </trkpt>
      <trkpt lat="44.36711" lon="6.35247">
        <ele>1349.8000488281</ele>
        <time>2016-07-11T08:27:51.000Z</time>
      </trkpt>
      <trkpt lat="44.36708" lon="6.35252">
        <ele>1349.4000244141</ele>
        <time>2016-07-11T08:27:55.000Z</time>
      </trkpt>
      <trkpt lat="44.36705" lon="6.35259">
        <ele>1348.8000488281</ele>
        <time>2016-07-11T08:27:59.000Z</time>
      </trkpt>
      <trkpt lat="44.36703" lon="6.3527">
        <ele>1347.8000488281</ele>
        <time>2016-07-11T08:28:06.000Z</time>
      </trkpt>
      <trkpt lat="44.367" lon="6.35283">
        <ele>1346.5999755859</ele>
        <time>2016-07-11T08:28:13.000Z</time>
      </trkpt>
      <trkpt lat="44.36696" lon="6.35299">
        <ele>1345.5999755859</ele>
        <time>2016-07-11T08:28:20.000Z</time>
      </trkpt>
      <trkpt lat="44.3669" lon="6.35314">
        <ele>1345</ele>
        <time>2016-07-11T08:28:27.000Z</time>
      </trkpt>
      <trkpt lat="44.36684" lon="6.35325">
        <ele>1345</ele>
        <time>2016-07-11T08:28:33.000Z</time>
      </trkpt>
      <trkpt lat="44.36678" lon="6.3534">
        <ele>1344.5999755859</ele>
        <time>2016-07-11T08:28:41.000Z</time>
      </trkpt>
      <trkpt lat="44.36671" lon="6.35353">
        <ele>1344.1999511719</ele>
        <time>2016-07-11T08:28:49.000Z</time>
      </trkpt>
      <trkpt lat="44.36662" lon="6.3537">
        <ele>1343.8000488281</ele>
        <time>2016-07-11T08:28:59.000Z</time>
      </trkpt>
      <trkpt lat="44.36657" lon="6.35387">
        <ele>1342.1999511719</ele>
        <time>2016-07-11T08:29:08.000Z</time>
      </trkpt>
      <trkpt lat="44.36652" lon="6.35403">
        <ele>1340.5999755859</ele>
        <time>2016-07-11T08:29:16.000Z</time>
      </trkpt>
      <trkpt lat="44.36648" lon="6.35412">
        <ele>1339.8000488281</ele>
        <time>2016-07-11T08:29:21.000Z</time>
      </trkpt>
      <trkpt lat="44.36646" lon="6.35421">
        <ele>1338.5999755859</ele>
        <time>2016-07-11T08:29:26.000Z</time>
      </trkpt>
      <trkpt lat="44.36646" lon="6.35423">
        <ele>1338.4000244141</ele>
        <time>2016-07-11T08:29:27.000Z</time>
      </trkpt>
      <trkpt lat="44.36643" lon="6.35437">
        <ele>1337</ele>
        <time>2016-07-11T08:29:34.000Z</time>
      </trkpt>
      <trkpt lat="44.3664" lon="6.35446">
        <ele>1336.4000244141</ele>
        <time>2016-07-11T08:29:39.000Z</time>
      </trkpt>
      <trkpt lat="44.36638" lon="6.35456">
        <ele>1335.5999755859</ele>
        <time>2016-07-11T08:29:44.000Z</time>
      </trkpt>
      <trkpt lat="44.36635" lon="6.35468">
        <ele>1334.8000488281</ele>
        <time>2016-07-11T08:29:50.000Z</time>
      </trkpt>
      <trkpt lat="44.3663" lon="6.35482">
        <ele>1333.8000488281</ele>
        <time>2016-07-11T08:29:58.000Z</time>
      </trkpt>
      <trkpt lat="44.36629" lon="6.35484">
        <ele>1333.8000488281</ele>
        <time>2016-07-11T08:29:59.000Z</time>
      </trkpt>
      <trkpt lat="44.36628" lon="6.35492">
        <ele>1333.4000244141</ele>
        <time>2016-07-11T08:30:03.000Z</time>
      </trkpt>
      <trkpt lat="44.36624" lon="6.35499">
        <ele>1333.5999755859</ele>
        <time>2016-07-11T08:30:07.000Z</time>
      </trkpt>
      <trkpt lat="44.36623" lon="6.355">
        <ele>1333.5999755859</ele>
        <time>2016-07-11T08:30:08.000Z</time>
      </trkpt>
      <trkpt lat="44.36617" lon="6.35508">
        <ele>1334.4000244141</ele>
        <time>2016-07-11T08:30:14.000Z</time>
      </trkpt>
      <trkpt lat="44.36614" lon="6.35511">
        <ele>1334.5999755859</ele>
        <time>2016-07-11T08:30:17.000Z</time>
      </trkpt>
      <trkpt lat="44.3661" lon="6.35523">
        <ele>1334.8000488281</ele>
        <time>2016-07-11T08:30:24.000Z</time>
      </trkpt>
      <trkpt lat="44.36607" lon="6.35531">
        <ele>1335</ele>
        <time>2016-07-11T08:30:29.000Z</time>
      </trkpt>
      <trkpt lat="44.36607" lon="6.35545">
        <ele>1334.4000244141</ele>
        <time>2016-07-11T08:30:36.000Z</time>
      </trkpt>
      <trkpt lat="44.36606" lon="6.35548">
        <ele>1334.4000244141</ele>
        <time>2016-07-11T08:30:38.000Z</time>
      </trkpt>
      <trkpt lat="44.366" lon="6.35563">
        <ele>1334.4000244141</ele>
        <time>2016-07-11T08:30:46.000Z</time>
      </trkpt>
      <trkpt lat="44.36596" lon="6.35576">
        <ele>1333.5999755859</ele>
        <time>2016-07-11T08:30:52.000Z</time>
      </trkpt>
      <trkpt lat="44.36594" lon="6.35585">
        <ele>1333</ele>
        <time>2016-07-11T08:30:58.000Z</time>
      </trkpt>
      <trkpt lat="44.36592" lon="6.35592">
        <ele>1332.4000244141</ele>
        <time>2016-07-11T08:31:06.000Z</time>
      </trkpt>
      <trkpt lat="44.36585" lon="6.35603">
        <ele>1332.1999511719</ele>
        <time>2016-07-11T08:31:13.000Z</time>
      </trkpt>
      <trkpt lat="44.36579" lon="6.35617">
        <ele>1331.1999511719</ele>
        <time>2016-07-11T08:31:21.000Z</time>
      </trkpt>
      <trkpt lat="44.36571" lon="6.35632">
        <ele>1328.4000244141</ele>
        <time>2016-07-11T08:31:31.000Z</time>
      </trkpt>
      <trkpt lat="44.36565" lon="6.35641">
        <ele>1327</ele>
        <time>2016-07-11T08:31:38.000Z</time>
      </trkpt>
      <trkpt lat="44.36554" lon="6.35655">
        <ele>1325.4000244141</ele>
        <time>2016-07-11T08:31:47.000Z</time>
      </trkpt>
      <trkpt lat="44.36548" lon="6.35665">
        <ele>1324.4000244141</ele>
        <time>2016-07-11T08:31:54.000Z</time>
      </trkpt>
      <trkpt lat="44.36541" lon="6.35677">
        <ele>1323</ele>
        <time>2016-07-11T08:32:02.000Z</time>
      </trkpt>
      <trkpt lat="44.36534" lon="6.35693">
        <ele>1320.8000488281</ele>
        <time>2016-07-11T08:32:11.000Z</time>
      </trkpt>
      <trkpt lat="44.36529" lon="6.35704">
        <ele>1319.4000244141</ele>
        <time>2016-07-11T08:32:18.000Z</time>
      </trkpt>
      <trkpt lat="44.36521" lon="6.35718">
        <ele>1318</ele>
        <time>2016-07-11T08:32:27.000Z</time>
      </trkpt>
      <trkpt lat="44.36514" lon="6.35727">
        <ele>1318</ele>
        <time>2016-07-11T08:32:33.000Z</time>
      </trkpt>
      <trkpt lat="44.36508" lon="6.35734">
        <ele>1318.1999511719</ele>
        <time>2016-07-11T08:32:38.000Z</time>
      </trkpt>
      <trkpt lat="44.36498" lon="6.35745">
        <ele>1318.4000244141</ele>
        <time>2016-07-11T08:32:46.000Z</time>
      </trkpt>
      <trkpt lat="44.36487" lon="6.35759">
        <ele>1318.4000244141</ele>
        <time>2016-07-11T08:32:55.000Z</time>
      </trkpt>
      <trkpt lat="44.36481" lon="6.3577">
        <ele>1318</ele>
        <time>2016-07-11T08:33:02.000Z</time>
      </trkpt>
      <trkpt lat="44.36474" lon="6.35782">
        <ele>1316.5999755859</ele>
        <time>2016-07-11T08:33:10.000Z</time>
      </trkpt>
      <trkpt lat="44.36468" lon="6.35794">
        <ele>1315.1999511719</ele>
        <time>2016-07-11T08:33:17.000Z</time>
      </trkpt>
      <trkpt lat="44.36461" lon="6.35808">
        <ele>1313.5999755859</ele>
        <time>2016-07-11T08:33:25.000Z</time>
      </trkpt>
      <trkpt lat="44.36454" lon="6.35819">
        <ele>1312.8000488281</ele>
        <time>2016-07-11T08:33:32.000Z</time>
      </trkpt>
      <trkpt lat="44.3645" lon="6.35826">
        <ele>1312.4000244141</ele>
        <time>2016-07-11T08:33:38.000Z</time>
      </trkpt>
      <trkpt lat="44.36446" lon="6.35832">
        <ele>1312.1999511719</ele>
        <time>2016-07-11T08:33:50.000Z</time>
      </trkpt>
      <trkpt lat="44.36444" lon="6.35833">
        <ele>1312.4000244141</ele>
        <time>2016-07-11T08:33:51.000Z</time>
      </trkpt>
      <trkpt lat="44.36436" lon="6.35843">
        <ele>1312.4000244141</ele>
        <time>2016-07-11T08:33:59.000Z</time>
      </trkpt>
      <trkpt lat="44.36435" lon="6.35844">
        <ele>1312.4000244141</ele>
        <time>2016-07-11T08:34:01.000Z</time>
      </trkpt>
      <trkpt lat="44.36427" lon="6.35858">
        <ele>1312</ele>
        <time>2016-07-11T08:34:08.000Z</time>
      </trkpt>
      <trkpt lat="44.36425" lon="6.35877">
        <ele>1309.8000488281</ele>
        <time>2016-07-11T08:34:16.000Z</time>
      </trkpt>
      <trkpt lat="44.36422" lon="6.35892">
        <ele>1307</ele>
        <time>2016-07-11T08:34:23.000Z</time>
      </trkpt>
      <trkpt lat="44.36415" lon="6.35901">
        <ele>1306</ele>
        <time>2016-07-11T08:34:30.000Z</time>
      </trkpt>
      <trkpt lat="44.36404" lon="6.35908">
        <ele>1305.8000488281</ele>
        <time>2016-07-11T08:34:38.000Z</time>
      </trkpt>
      <trkpt lat="44.3638" lon="6.35925">
        <ele>1305</ele>
        <time>2016-07-11T08:34:55.000Z</time>
      </trkpt>
      <trkpt lat="44.36375" lon="6.35929">
        <ele>1304.5999755859</ele>
        <time>2016-07-11T08:34:59.000Z</time>
      </trkpt>
      <trkpt lat="44.3637" lon="6.35932">
        <ele>1304.4000244141</ele>
        <time>2016-07-11T08:35:03.000Z</time>
      </trkpt>
      <trkpt lat="44.36357" lon="6.3594">
        <ele>1304.5999755859</ele>
        <time>2016-07-11T08:35:12.000Z</time>
      </trkpt>
      <trkpt lat="44.36345" lon="6.3595">
        <ele>1305.4000244141</ele>
        <time>2016-07-11T08:35:22.000Z</time>
      </trkpt>
      <trkpt lat="44.36335" lon="6.35958">
        <ele>1305.5999755859</ele>
        <time>2016-07-11T08:35:30.000Z</time>
      </trkpt>
      <trkpt lat="44.36323" lon="6.35968">
        <ele>1305.5999755859</ele>
        <time>2016-07-11T08:35:41.000Z</time>
      </trkpt>
      <trkpt lat="44.36305" lon="6.35986">
        <ele>1305.4000244141</ele>
        <time>2016-07-11T08:35:55.000Z</time>
      </trkpt>
      <trkpt lat="44.36292" lon="6.36002">
        <ele>1306</ele>
        <time>2016-07-11T08:36:07.000Z</time>
      </trkpt>
      <trkpt lat="44.36282" lon="6.36012">
        <ele>1306</ele>
        <time>2016-07-11T08:36:16.000Z</time>
      </trkpt>
      <trkpt lat="44.36273" lon="6.36021">
        <ele>1306.8000488281</ele>
        <time>2016-07-11T08:36:26.000Z</time>
      </trkpt>
      <trkpt lat="44.36269" lon="6.36028">
        <ele>1307.1999511719</ele>
        <time>2016-07-11T08:36:33.000Z</time>
      </trkpt>
      <trkpt lat="44.3627" lon="6.36032">
        <ele>1306.5999755859</ele>
        <time>2016-07-11T08:37:18.000Z</time>
      </trkpt>
      <trkpt lat="44.3627" lon="6.3603">
        <ele>1306.5999755859</ele>
        <time>2016-07-11T08:37:23.000Z</time>
      </trkpt>
      <trkpt lat="44.36267" lon="6.3603">
        <ele>1307.4000244141</ele>
        <time>2016-07-11T08:37:28.000Z</time>
      </trkpt>
      <trkpt lat="44.36268" lon="6.36029">
        <ele>1307.1999511719</ele>
        <time>2016-07-11T08:41:46.000Z</time>
      </trkpt>
      <trkpt lat="44.36269" lon="6.36029">
        <ele>1306.8000488281</ele>
        <time>2016-07-11T08:41:52.000Z</time>
      </trkpt>
      <trkpt lat="44.36268" lon="6.3603">
        <ele>1307.1999511719</ele>
        <time>2016-07-11T08:41:58.000Z</time>
      </trkpt>
      <trkpt lat="44.36267" lon="6.36031">
        <ele>1307.4000244141</ele>
        <time>2016-07-11T08:41:59.000Z</time>
      </trkpt>
      <trkpt lat="44.36268" lon="6.36037">
        <ele>1306.4000244141</ele>
        <time>2016-07-11T08:42:05.000Z</time>
      </trkpt>
      <trkpt lat="44.36269" lon="6.36037">
        <ele>1306.1999511719</ele>
        <time>2016-07-11T08:42:06.000Z</time>
      </trkpt>
      <trkpt lat="44.36277" lon="6.36038">
        <ele>1304.5999755859</ele>
        <time>2016-07-11T08:42:13.000Z</time>
      </trkpt>
      <trkpt lat="44.36287" lon="6.36036">
        <ele>1303.1999511719</ele>
        <time>2016-07-11T08:42:22.000Z</time>
      </trkpt>
      <trkpt lat="44.36298" lon="6.36036">
        <ele>1302.1999511719</ele>
        <time>2016-07-11T08:42:30.000Z</time>
      </trkpt>
      <trkpt lat="44.36309" lon="6.36036">
        <ele>1301.4000244141</ele>
        <time>2016-07-11T08:42:37.000Z</time>
      </trkpt>
      <trkpt lat="44.36337" lon="6.36037">
        <ele>1298.8000488281</ele>
        <time>2016-07-11T08:42:58.000Z</time>
      </trkpt>
      <trkpt lat="44.36355" lon="6.36037">
        <ele>1296.4000244141</ele>
        <time>2016-07-11T08:43:10.000Z</time>
      </trkpt>
      <trkpt lat="44.36365" lon="6.36037">
        <ele>1295</ele>
        <time>2016-07-11T08:43:17.000Z</time>
      </trkpt>
      <trkpt lat="44.36374" lon="6.36037">
        <ele>1294.1999511719</ele>
        <time>2016-07-11T08:43:23.000Z</time>
      </trkpt>
      <trkpt lat="44.3639" lon="6.36037">
        <ele>1293.1999511719</ele>
        <time>2016-07-11T08:43:34.000Z</time>
      </trkpt>
      <trkpt lat="44.36398" lon="6.36037">
        <ele>1292.5999755859</ele>
        <time>2016-07-11T08:43:40.000Z</time>
      </trkpt>
      <trkpt lat="44.36404" lon="6.36038">
        <ele>1292.1999511719</ele>
        <time>2016-07-11T08:43:44.000Z</time>
      </trkpt>
      <trkpt lat="44.36418" lon="6.36038">
        <ele>1291</ele>
        <time>2016-07-11T08:43:54.000Z</time>
      </trkpt>
      <trkpt lat="44.36431" lon="6.36039">
        <ele>1290.4000244141</ele>
        <time>2016-07-11T08:44:03.000Z</time>
      </trkpt>
      <trkpt lat="44.36441" lon="6.3604">
        <ele>1289.8000488281</ele>
        <time>2016-07-11T08:44:10.000Z</time>
      </trkpt>
      <trkpt lat="44.36454" lon="6.3604">
        <ele>1289.1999511719</ele>
        <time>2016-07-11T08:44:19.000Z</time>
      </trkpt>
      <trkpt lat="44.3647" lon="6.36041">
        <ele>1288.5999755859</ele>
        <time>2016-07-11T08:44:30.000Z</time>
      </trkpt>
      <trkpt lat="44.36484" lon="6.36042">
        <ele>1288</ele>
        <time>2016-07-11T08:44:40.000Z</time>
      </trkpt>
      <trkpt lat="44.36496" lon="6.36043">
        <ele>1287.5999755859</ele>
        <time>2016-07-11T08:44:48.000Z</time>
      </trkpt>
      <trkpt lat="44.36515" lon="6.36045">
        <ele>1286.8000488281</ele>
        <time>2016-07-11T08:45:01.000Z</time>
      </trkpt>
      <trkpt lat="44.36531" lon="6.36046">
        <ele>1286.5999755859</ele>
        <time>2016-07-11T08:45:12.000Z</time>
      </trkpt>
      <trkpt lat="44.36546" lon="6.36048">
        <ele>1286.1999511719</ele>
        <time>2016-07-11T08:45:22.000Z</time>
      </trkpt>
      <trkpt lat="44.36562" lon="6.36049">
        <ele>1286</ele>
        <time>2016-07-11T08:45:33.000Z</time>
      </trkpt>
      <trkpt lat="44.36578" lon="6.3605">
        <ele>1285.5999755859</ele>
        <time>2016-07-11T08:45:44.000Z</time>
      </trkpt>
      <trkpt lat="44.36593" lon="6.36048">
        <ele>1285.5999755859</ele>
        <time>2016-07-11T08:45:54.000Z</time>
      </trkpt>
      <trkpt lat="44.3661" lon="6.36044">
        <ele>1285.1999511719</ele>
        <time>2016-07-11T08:46:06.000Z</time>
      </trkpt>
      <trkpt lat="44.36622" lon="6.36039">
        <ele>1285</ele>
        <time>2016-07-11T08:46:16.000Z</time>
      </trkpt>
      <trkpt lat="44.36637" lon="6.36035">
        <ele>1284.5999755859</ele>
        <time>2016-07-11T08:46:25.000Z</time>
      </trkpt>
      <trkpt lat="44.36653" lon="6.3603">
        <ele>1284.1999511719</ele>
        <time>2016-07-11T08:46:37.000Z</time>
      </trkpt>
      <trkpt lat="44.36671" lon="6.36025">
        <ele>1284</ele>
        <time>2016-07-11T08:46:49.000Z</time>
      </trkpt>
      <trkpt lat="44.36688" lon="6.36021">
        <ele>1283.8000488281</ele>
        <time>2016-07-11T08:47:01.000Z</time>
      </trkpt>
      <trkpt lat="44.36698" lon="6.36018">
        <ele>1283.8000488281</ele>
        <time>2016-07-11T08:47:08.000Z</time>
      </trkpt>
      <trkpt lat="44.36703" lon="6.36017">
        <ele>1283.8000488281</ele>
        <time>2016-07-11T08:47:11.000Z</time>
      </trkpt>
      <trkpt lat="44.36704" lon="6.36017">
        <ele>1283.8000488281</ele>
        <time>2016-07-11T08:47:14.000Z</time>
      </trkpt>
      <trkpt lat="44.36701" lon="6.36017">
        <ele>1283.8000488281</ele>
        <time>2016-07-11T08:47:19.000Z</time>
      </trkpt>
      <trkpt lat="44.36701" lon="6.36021">
        <ele>1283.5999755859</ele>
        <time>2016-07-11T08:47:30.000Z</time>
      </trkpt>
      <trkpt lat="44.36702" lon="6.36022">
        <ele>1283.5999755859</ele>
        <time>2016-07-11T08:47:31.000Z</time>
      </trkpt>
      <trkpt lat="44.36708" lon="6.36024">
        <ele>1283.5999755859</ele>
        <time>2016-07-11T08:47:35.000Z</time>
      </trkpt>
      <trkpt lat="44.36722" lon="6.36021">
        <ele>1283.8000488281</ele>
        <time>2016-07-11T08:47:44.000Z</time>
      </trkpt>
      <trkpt lat="44.36736" lon="6.36017">
        <ele>1284.1999511719</ele>
        <time>2016-07-11T08:47:54.000Z</time>
      </trkpt>
      <trkpt lat="44.3675" lon="6.36013">
        <ele>1283.8000488281</ele>
        <time>2016-07-11T08:48:03.000Z</time>
      </trkpt>
      <trkpt lat="44.36764" lon="6.36009">
        <ele>1283.1999511719</ele>
        <time>2016-07-11T08:48:12.000Z</time>
      </trkpt>
      <trkpt lat="44.36779" lon="6.36005">
        <ele>1282.8000488281</ele>
        <time>2016-07-11T08:48:22.000Z</time>
      </trkpt>
      <trkpt lat="44.36793" lon="6.36002">
        <ele>1283.8000488281</ele>
        <time>2016-07-11T08:48:31.000Z</time>
      </trkpt>
      <trkpt lat="44.36805" lon="6.36003">
        <ele>1284.5999755859</ele>
        <time>2016-07-11T08:48:39.000Z</time>
      </trkpt>
      <trkpt lat="44.3682" lon="6.35999">
        <ele>1284.8000488281</ele>
        <time>2016-07-11T08:48:49.000Z</time>
      </trkpt>
      <trkpt lat="44.36832" lon="6.35999">
        <ele>1285</ele>
        <time>2016-07-11T08:48:58.000Z</time>
      </trkpt>
      <trkpt lat="44.36845" lon="6.35998">
        <ele>1285.4000244141</ele>
        <time>2016-07-11T08:49:07.000Z</time>
      </trkpt>
      <trkpt lat="44.36856" lon="6.35997">
        <ele>1285.5999755859</ele>
        <time>2016-07-11T08:49:13.000Z</time>
      </trkpt>
      <trkpt lat="44.36869" lon="6.35997">
        <ele>1286</ele>
        <time>2016-07-11T08:49:21.000Z</time>
      </trkpt>
      <trkpt lat="44.36886" lon="6.35997">
        <ele>1287</ele>
        <time>2016-07-11T08:49:32.000Z</time>
      </trkpt>
      <trkpt lat="44.36897" lon="6.36005">
        <ele>1287.8000488281</ele>
        <time>2016-07-11T08:49:41.000Z</time>
      </trkpt>
      <trkpt lat="44.36899" lon="6.36008">
        <ele>1288.1999511719</ele>
        <time>2016-07-11T08:49:44.000Z</time>
      </trkpt>
      <trkpt lat="44.36901" lon="6.36009">
        <ele>1288.4000244141</ele>
        <time>2016-07-11T08:49:52.000Z</time>
      </trkpt>
      <trkpt lat="44.36906" lon="6.36021">
        <ele>1289.4000244141</ele>
        <time>2016-07-11T08:51:23.000Z</time>
      </trkpt>
      <trkpt lat="44.36911" lon="6.36033">
        <ele>1290.1999511719</ele>
        <time>2016-07-11T08:51:31.000Z</time>
      </trkpt>
      <trkpt lat="44.36915" lon="6.36045">
        <ele>1291</ele>
        <time>2016-07-11T08:51:37.000Z</time>
      </trkpt>
      <trkpt lat="44.36919" lon="6.36062">
        <ele>1292.1999511719</ele>
        <time>2016-07-11T08:51:48.000Z</time>
      </trkpt>
      <trkpt lat="44.36922" lon="6.36078">
        <ele>1293.5999755859</ele>
        <time>2016-07-11T08:51:56.000Z</time>
      </trkpt>
      <trkpt lat="44.3693" lon="6.36094">
        <ele>1295.4000244141</ele>
        <time>2016-07-11T08:52:07.000Z</time>
      </trkpt>
      <trkpt lat="44.3693" lon="6.36095">
        <ele>1295.5999755859</ele>
        <time>2016-07-11T08:52:08.000Z</time>
      </trkpt>
      <trkpt lat="44.36941" lon="6.3611">
        <ele>1297.4000244141</ele>
        <time>2016-07-11T08:52:19.000Z</time>
      </trkpt>
      <trkpt lat="44.3695" lon="6.36124">
        <ele>1299</ele>
        <time>2016-07-11T08:52:30.000Z</time>
      </trkpt>
      <trkpt lat="44.36951" lon="6.36129">
        <ele>1299.5999755859</ele>
        <time>2016-07-11T08:52:35.000Z</time>
      </trkpt>
      <trkpt lat="44.36954" lon="6.36133">
        <ele>1300</ele>
        <time>2016-07-11T08:52:37.000Z</time>
      </trkpt>
      <trkpt lat="44.36961" lon="6.36148">
        <ele>1301.5999755859</ele>
        <time>2016-07-11T08:52:48.000Z</time>
      </trkpt>
      <trkpt lat="44.36969" lon="6.36166">
        <ele>1303.4000244141</ele>
        <time>2016-07-11T08:52:58.000Z</time>
      </trkpt>
      <trkpt lat="44.36974" lon="6.3618">
        <ele>1304.8000488281</ele>
        <time>2016-07-11T08:53:07.000Z</time>
      </trkpt>
      <trkpt lat="44.3698" lon="6.36192">
        <ele>1305.8000488281</ele>
        <time>2016-07-11T08:53:17.000Z</time>
      </trkpt>
      <trkpt lat="44.36986" lon="6.36206">
        <ele>1307</ele>
        <time>2016-07-11T08:53:26.000Z</time>
      </trkpt>
      <trkpt lat="44.36991" lon="6.36212">
        <ele>1307.5999755859</ele>
        <time>2016-07-11T08:53:32.000Z</time>
      </trkpt>
      <trkpt lat="44.37009" lon="6.3624">
        <ele>1311.1999511719</ele>
        <time>2016-07-11T08:53:53.000Z</time>
      </trkpt>
      <trkpt lat="44.37015" lon="6.36248">
        <ele>1312.5999755859</ele>
        <time>2016-07-11T08:54:01.000Z</time>
      </trkpt>
      <trkpt lat="44.37022" lon="6.36258">
        <ele>1314.1999511719</ele>
        <time>2016-07-11T08:54:10.000Z</time>
      </trkpt>
      <trkpt lat="44.37029" lon="6.36268">
        <ele>1315.8000488281</ele>
        <time>2016-07-11T08:54:17.000Z</time>
      </trkpt>
      <trkpt lat="44.37036" lon="6.36278">
        <ele>1317.1999511719</ele>
        <time>2016-07-11T08:54:25.000Z</time>
      </trkpt>
      <trkpt lat="44.37041" lon="6.36286">
        <ele>1318</ele>
        <time>2016-07-11T08:54:32.000Z</time>
      </trkpt>
      <trkpt lat="44.37048" lon="6.36295">
        <ele>1319</ele>
        <time>2016-07-11T08:54:40.000Z</time>
      </trkpt>
      <trkpt lat="44.37058" lon="6.36303">
        <ele>1320</ele>
        <time>2016-07-11T08:54:48.000Z</time>
      </trkpt>
      <trkpt lat="44.37069" lon="6.36308">
        <ele>1320.8000488281</ele>
        <time>2016-07-11T08:54:57.000Z</time>
      </trkpt>
      <trkpt lat="44.37081" lon="6.36317">
        <ele>1321.8000488281</ele>
        <time>2016-07-11T08:55:07.000Z</time>
      </trkpt>
      <trkpt lat="44.37082" lon="6.36318">
        <ele>1321.8000488281</ele>
        <time>2016-07-11T08:55:08.000Z</time>
      </trkpt>
      <trkpt lat="44.37088" lon="6.36312">
        <ele>1321.4000244141</ele>
        <time>2016-07-11T08:55:13.000Z</time>
      </trkpt>
      <trkpt lat="44.37096" lon="6.363">
        <ele>1320.1999511719</ele>
        <time>2016-07-11T08:55:21.000Z</time>
      </trkpt>
      <trkpt lat="44.37103" lon="6.36283">
        <ele>1319.4000244141</ele>
        <time>2016-07-11T08:55:31.000Z</time>
      </trkpt>
      <trkpt lat="44.3711" lon="6.36269">
        <ele>1319</ele>
        <time>2016-07-11T08:55:40.000Z</time>
      </trkpt>
      <trkpt lat="44.37119" lon="6.36254">
        <ele>1318.8000488281</ele>
        <time>2016-07-11T08:55:49.000Z</time>
      </trkpt>
      <trkpt lat="44.37127" lon="6.36242">
        <ele>1319</ele>
        <time>2016-07-11T08:55:59.000Z</time>
      </trkpt>
      <trkpt lat="44.37135" lon="6.36232">
        <ele>1320.1999511719</ele>
        <time>2016-07-11T08:56:07.000Z</time>
      </trkpt>
      <trkpt lat="44.37137" lon="6.3623">
        <ele>1320.4000244141</ele>
        <time>2016-07-11T08:56:08.000Z</time>
      </trkpt>
      <trkpt lat="44.37144" lon="6.36223">
        <ele>1321.4000244141</ele>
        <time>2016-07-11T08:56:16.000Z</time>
      </trkpt>
      <trkpt lat="44.37154" lon="6.36225">
        <ele>1322.8000488281</ele>
        <time>2016-07-11T08:56:23.000Z</time>
      </trkpt>
      <trkpt lat="44.37161" lon="6.36232">
        <ele>1324.1999511719</ele>
        <time>2016-07-11T08:56:30.000Z</time>
      </trkpt>
      <trkpt lat="44.37171" lon="6.3624">
        <ele>1325.8000488281</ele>
        <time>2016-07-11T08:56:38.000Z</time>
      </trkpt>
      <trkpt lat="44.37186" lon="6.36245">
        <ele>1328</ele>
        <time>2016-07-11T08:56:50.000Z</time>
      </trkpt>
      <trkpt lat="44.372" lon="6.36237">
        <ele>1330.4000244141</ele>
        <time>2016-07-11T08:57:01.000Z</time>
      </trkpt>
      <trkpt lat="44.3721" lon="6.36229">
        <ele>1332</ele>
        <time>2016-07-11T08:57:09.000Z</time>
      </trkpt>
      <trkpt lat="44.3722" lon="6.36226">
        <ele>1333.4000244141</ele>
        <time>2016-07-11T08:57:17.000Z</time>
      </trkpt>
      <trkpt lat="44.37232" lon="6.36226">
        <ele>1335.4000244141</ele>
        <time>2016-07-11T08:57:26.000Z</time>
      </trkpt>
      <trkpt lat="44.37234" lon="6.36227">
        <ele>1335.8000488281</ele>
        <time>2016-07-11T08:57:28.000Z</time>
      </trkpt>
      <trkpt lat="44.37234" lon="6.36233">
        <ele>1336</ele>
        <time>2016-07-11T08:57:32.000Z</time>
      </trkpt>
      <trkpt lat="44.37232" lon="6.36233">
        <ele>1335.8000488281</ele>
        <time>2016-07-11T08:57:45.000Z</time>
      </trkpt>
      <trkpt lat="44.3723" lon="6.36234">
        <ele>1335.5999755859</ele>
        <time>2016-07-11T09:00:57.000Z</time>
      </trkpt>
      <trkpt lat="44.37232" lon="6.36235">
        <ele>1335.8000488281</ele>
        <time>2016-07-11T09:02:31.000Z</time>
      </trkpt>
      <trkpt lat="44.37233" lon="6.36234">
        <ele>1336</ele>
        <time>2016-07-11T09:02:38.000Z</time>
      </trkpt>
      <trkpt lat="44.37233" lon="6.36235">
        <ele>1336</ele>
        <time>2016-07-11T09:02:44.000Z</time>
      </trkpt>
      <trkpt lat="44.37233" lon="6.36233">
        <ele>1336</ele>
        <time>2016-07-11T09:03:29.000Z</time>
      </trkpt>
      <trkpt lat="44.37233" lon="6.36234">
        <ele>1336</ele>
        <time>2016-07-11T09:04:06.000Z</time>
      </trkpt>
      <trkpt lat="44.37232" lon="6.36234">
        <ele>1336</ele>
        <time>2016-07-11T09:04:23.000Z</time>
      </trkpt>
      <trkpt lat="44.37235" lon="6.36232">
        <ele>1336.1999511719</ele>
        <time>2016-07-11T09:04:27.000Z</time>
      </trkpt>
      <trkpt lat="44.37232" lon="6.36227">
        <ele>1335.4000244141</ele>
        <time>2016-07-11T09:04:31.000Z</time>
      </trkpt>
      <trkpt lat="44.37218" lon="6.36228">
        <ele>1333.1999511719</ele>
        <time>2016-07-11T09:04:41.000Z</time>
      </trkpt>
      <trkpt lat="44.37203" lon="6.36236">
        <ele>1331</ele>
        <time>2016-07-11T09:04:53.000Z</time>
      </trkpt>
      <trkpt lat="44.37187" lon="6.36247">
        <ele>1328.4000244141</ele>
        <time>2016-07-11T09:05:05.000Z</time>
      </trkpt>
      <trkpt lat="44.37175" lon="6.36246">
        <ele>1326.4000244141</ele>
        <time>2016-07-11T09:05:13.000Z</time>
      </trkpt>
      <trkpt lat="44.37165" lon="6.36239">
        <ele>1324.8000488281</ele>
        <time>2016-07-11T09:05:21.000Z</time>
      </trkpt>
      <trkpt lat="44.37153" lon="6.36228">
        <ele>1322.8000488281</ele>
        <time>2016-07-11T09:05:31.000Z</time>
      </trkpt>
      <trkpt lat="44.37143" lon="6.36228">
        <ele>1321.4000244141</ele>
        <time>2016-07-11T09:05:38.000Z</time>
      </trkpt>
      <trkpt lat="44.37134" lon="6.3624">
        <ele>1320</ele>
        <time>2016-07-11T09:05:47.000Z</time>
      </trkpt>
      <trkpt lat="44.37126" lon="6.36255">
        <ele>1319.5999755859</ele>
        <time>2016-07-11T09:05:56.000Z</time>
      </trkpt>
      <trkpt lat="44.37119" lon="6.36267">
        <ele>1319.5999755859</ele>
        <time>2016-07-11T09:06:03.000Z</time>
      </trkpt>
      <trkpt lat="44.37112" lon="6.3628">
        <ele>1319.8000488281</ele>
        <time>2016-07-11T09:06:11.000Z</time>
      </trkpt>
      <trkpt lat="44.37105" lon="6.36293">
        <ele>1320.1999511719</ele>
        <time>2016-07-11T09:06:19.000Z</time>
      </trkpt>
      <trkpt lat="44.371" lon="6.36306">
        <ele>1321</ele>
        <time>2016-07-11T09:06:26.000Z</time>
      </trkpt>
      <trkpt lat="44.37093" lon="6.3632">
        <ele>1322.1999511719</ele>
        <time>2016-07-11T09:06:34.000Z</time>
      </trkpt>
      <trkpt lat="44.3709" lon="6.36325">
        <ele>1322.4000244141</ele>
        <time>2016-07-11T09:06:37.000Z</time>
      </trkpt>
      <trkpt lat="44.37091" lon="6.36325">
        <ele>1322.4000244141</ele>
        <time>2016-07-11T09:06:44.000Z</time>
      </trkpt>
      <trkpt lat="44.37088" lon="6.36327">
        <ele>1322.5999755859</ele>
        <time>2016-07-11T09:06:54.000Z</time>
      </trkpt>
      <trkpt lat="44.3709" lon="6.36339">
        <ele>1323.4000244141</ele>
        <time>2016-07-11T09:07:01.000Z</time>
      </trkpt>
      <trkpt lat="44.37095" lon="6.36356">
        <ele>1324.8000488281</ele>
        <time>2016-07-11T09:07:11.000Z</time>
      </trkpt>
      <trkpt lat="44.37097" lon="6.36366">
        <ele>1325.5999755859</ele>
        <time>2016-07-11T09:07:16.000Z</time>
      </trkpt>
      <trkpt lat="44.37102" lon="6.36379">
        <ele>1326.5999755859</ele>
        <time>2016-07-11T09:07:23.000Z</time>
      </trkpt>
      <trkpt lat="44.37103" lon="6.36385">
        <ele>1327</ele>
        <time>2016-07-11T09:07:26.000Z</time>
      </trkpt>
      <trkpt lat="44.37103" lon="6.36392">
        <ele>1327.4000244141</ele>
        <time>2016-07-11T09:07:30.000Z</time>
      </trkpt>
      <trkpt lat="44.37099" lon="6.36407">
        <ele>1328.4000244141</ele>
        <time>2016-07-11T09:07:38.000Z</time>
      </trkpt>
      <trkpt lat="44.3709" lon="6.3642">
        <ele>1329.4000244141</ele>
        <time>2016-07-11T09:07:47.000Z</time>
      </trkpt>
      <trkpt lat="44.37081" lon="6.36429">
        <ele>1329.8000488281</ele>
        <time>2016-07-11T09:07:55.000Z</time>
      </trkpt>
      <trkpt lat="44.37072" lon="6.36438">
        <ele>1330.4000244141</ele>
        <time>2016-07-11T09:08:03.000Z</time>
      </trkpt>
      <trkpt lat="44.37066" lon="6.36456">
        <ele>1331.5999755859</ele>
        <time>2016-07-11T09:08:12.000Z</time>
      </trkpt>
      <trkpt lat="44.37061" lon="6.36469">
        <ele>1332.4000244141</ele>
        <time>2016-07-11T09:08:18.000Z</time>
      </trkpt>
      <trkpt lat="44.37057" lon="6.36477">
        <ele>1333</ele>
        <time>2016-07-11T09:08:23.000Z</time>
      </trkpt>
      <trkpt lat="44.37048" lon="6.36492">
        <ele>1333.8000488281</ele>
        <time>2016-07-11T09:08:32.000Z</time>
      </trkpt>
      <trkpt lat="44.37026" lon="6.36522">
        <ele>1332.1999511719</ele>
        <time>2016-07-11T09:08:54.000Z</time>
      </trkpt>
      <trkpt lat="44.37017" lon="6.36534">
        <ele>1331</ele>
        <time>2016-07-11T09:09:03.000Z</time>
      </trkpt>
      <trkpt lat="44.37004" lon="6.36548">
        <ele>1329.8000488281</ele>
        <time>2016-07-11T09:09:14.000Z</time>
      </trkpt>
      <trkpt lat="44.36995" lon="6.36557">
        <ele>1329.5999755859</ele>
        <time>2016-07-11T09:09:22.000Z</time>
      </trkpt>
      <trkpt lat="44.36984" lon="6.36565">
        <ele>1329</ele>
        <time>2016-07-11T09:09:31.000Z</time>
      </trkpt>
      <trkpt lat="44.36976" lon="6.36572">
        <ele>1329</ele>
        <time>2016-07-11T09:09:39.000Z</time>
      </trkpt>
      <trkpt lat="44.36969" lon="6.36579">
        <ele>1329</ele>
        <time>2016-07-11T09:09:45.000Z</time>
      </trkpt>
      <trkpt lat="44.36963" lon="6.36595">
        <ele>1329.5999755859</ele>
        <time>2016-07-11T09:09:53.000Z</time>
      </trkpt>
      <trkpt lat="44.36957" lon="6.36611">
        <ele>1330.1999511719</ele>
        <time>2016-07-11T09:10:02.000Z</time>
      </trkpt>
      <trkpt lat="44.36952" lon="6.36629">
        <ele>1331</ele>
        <time>2016-07-11T09:10:11.000Z</time>
      </trkpt>
      <trkpt lat="44.3695" lon="6.36644">
        <ele>1332</ele>
        <time>2016-07-11T09:10:19.000Z</time>
      </trkpt>
      <trkpt lat="44.36949" lon="6.36665">
        <ele>1334</ele>
        <time>2016-07-11T09:10:29.000Z</time>
      </trkpt>
      <trkpt lat="44.36944" lon="6.36679">
        <ele>1335</ele>
        <time>2016-07-11T09:10:37.000Z</time>
      </trkpt>
      <trkpt lat="44.36935" lon="6.36684">
        <ele>1334.8000488281</ele>
        <time>2016-07-11T09:10:44.000Z</time>
      </trkpt>
      <trkpt lat="44.36922" lon="6.36686">
        <ele>1334</ele>
        <time>2016-07-11T09:10:52.000Z</time>
      </trkpt>
      <trkpt lat="44.36909" lon="6.36688">
        <ele>1333</ele>
        <time>2016-07-11T09:11:01.000Z</time>
      </trkpt>
      <trkpt lat="44.36895" lon="6.36689">
        <ele>1332</ele>
        <time>2016-07-11T09:11:11.000Z</time>
      </trkpt>
      <trkpt lat="44.3688" lon="6.36699">
        <ele>1332</ele>
        <time>2016-07-11T09:11:21.000Z</time>
      </trkpt>
      <trkpt lat="44.36872" lon="6.36707">
        <ele>1332</ele>
        <time>2016-07-11T09:11:28.000Z</time>
      </trkpt>
      <trkpt lat="44.36858" lon="6.36717">
        <ele>1332</ele>
        <time>2016-07-11T09:11:37.000Z</time>
      </trkpt>
      <trkpt lat="44.36846" lon="6.36723">
        <ele>1332</ele>
        <time>2016-07-11T09:11:45.000Z</time>
      </trkpt>
      <trkpt lat="44.36828" lon="6.36732">
        <ele>1331.5999755859</ele>
        <time>2016-07-11T09:11:57.000Z</time>
      </trkpt>
      <trkpt lat="44.36818" lon="6.36737">
        <ele>1331.4000244141</ele>
        <time>2016-07-11T09:12:04.000Z</time>
      </trkpt>
      <trkpt lat="44.36812" lon="6.36741">
        <ele>1331.5999755859</ele>
        <time>2016-07-11T09:12:10.000Z</time>
      </trkpt>
      <trkpt lat="44.36803" lon="6.36748">
        <ele>1331.8000488281</ele>
        <time>2016-07-11T09:12:17.000Z</time>
      </trkpt>
      <trkpt lat="44.36794" lon="6.36757">
        <ele>1332</ele>
        <time>2016-07-11T09:12:25.000Z</time>
      </trkpt>
      <trkpt lat="44.36781" lon="6.36768">
        <ele>1332</ele>
        <time>2016-07-11T09:12:35.000Z</time>
      </trkpt>
      <trkpt lat="44.36767" lon="6.36782">
        <ele>1333.1999511719</ele>
        <time>2016-07-11T09:12:46.000Z</time>
      </trkpt>
      <trkpt lat="44.36757" lon="6.36789">
        <ele>1333.5999755859</ele>
        <time>2016-07-11T09:12:54.000Z</time>
      </trkpt>
      <trkpt lat="44.3675" lon="6.36796">
        <ele>1333.4000244141</ele>
        <time>2016-07-11T09:13:00.000Z</time>
      </trkpt>
      <trkpt lat="44.3674" lon="6.36805">
        <ele>1332.5999755859</ele>
        <time>2016-07-11T09:13:08.000Z</time>
      </trkpt>
      <trkpt lat="44.3673" lon="6.36814">
        <ele>1332</ele>
        <time>2016-07-11T09:13:15.000Z</time>
      </trkpt>
      <trkpt lat="44.36722" lon="6.36821">
        <ele>1332</ele>
        <time>2016-07-11T09:13:21.000Z</time>
      </trkpt>
      <trkpt lat="44.36716" lon="6.36826">
        <ele>1331.8000488281</ele>
        <time>2016-07-11T09:13:26.000Z</time>
      </trkpt>
      <trkpt lat="44.36706" lon="6.36835">
        <ele>1331.8000488281</ele>
        <time>2016-07-11T09:13:33.000Z</time>
      </trkpt>
      <trkpt lat="44.36694" lon="6.36847">
        <ele>1331.8000488281</ele>
        <time>2016-07-11T09:13:43.000Z</time>
      </trkpt>
      <trkpt lat="44.36678" lon="6.36861">
        <ele>1332.5999755859</ele>
        <time>2016-07-11T09:13:55.000Z</time>
      </trkpt>
      <trkpt lat="44.36669" lon="6.36874">
        <ele>1333.1999511719</ele>
        <time>2016-07-11T09:14:03.000Z</time>
      </trkpt>
      <trkpt lat="44.36667" lon="6.36887">
        <ele>1334.1999511719</ele>
        <time>2016-07-11T09:14:10.000Z</time>
      </trkpt>
      <trkpt lat="44.36671" lon="6.36898">
        <ele>1335.4000244141</ele>
        <time>2016-07-11T09:14:17.000Z</time>
      </trkpt>
      <trkpt lat="44.36679" lon="6.36907">
        <ele>1336.5999755859</ele>
        <time>2016-07-11T09:14:25.000Z</time>
      </trkpt>
      <trkpt lat="44.36688" lon="6.36921">
        <ele>1338.4000244141</ele>
        <time>2016-07-11T09:14:35.000Z</time>
      </trkpt>
      <trkpt lat="44.36706" lon="6.3695">
        <ele>1342</ele>
        <time>2016-07-11T09:14:56.000Z</time>
      </trkpt>
      <trkpt lat="44.36711" lon="6.36956">
        <ele>1343</ele>
        <time>2016-07-11T09:15:01.000Z</time>
      </trkpt>
      <trkpt lat="44.36717" lon="6.36963">
        <ele>1344</ele>
        <time>2016-07-11T09:15:06.000Z</time>
      </trkpt>
      <trkpt lat="44.36717" lon="6.36964">
        <ele>1344.1999511719</ele>
        <time>2016-07-11T09:15:13.000Z</time>
      </trkpt>
      <trkpt lat="44.3672" lon="6.36971">
        <ele>1345</ele>
        <time>2016-07-11T09:15:17.000Z</time>
      </trkpt>
      <trkpt lat="44.36729" lon="6.36984">
        <ele>1347</ele>
        <time>2016-07-11T09:15:27.000Z</time>
      </trkpt>
      <trkpt lat="44.36741" lon="6.36989">
        <ele>1348.8000488281</ele>
        <time>2016-07-11T09:15:36.000Z</time>
      </trkpt>
      <trkpt lat="44.3677" lon="6.3698">
        <ele>1350</ele>
        <time>2016-07-11T09:15:58.000Z</time>
      </trkpt>
      <trkpt lat="44.36781" lon="6.36974">
        <ele>1350.4000244141</ele>
        <time>2016-07-11T09:16:07.000Z</time>
      </trkpt>
      <trkpt lat="44.36784" lon="6.36977">
        <ele>1351</ele>
        <time>2016-07-11T09:16:11.000Z</time>
      </trkpt>
      <trkpt lat="44.36783" lon="6.36984">
        <ele>1351.4000244141</ele>
        <time>2016-07-11T09:16:15.000Z</time>
      </trkpt>
      <trkpt lat="44.36781" lon="6.36985">
        <ele>1351.5999755859</ele>
        <time>2016-07-11T09:16:19.000Z</time>
      </trkpt>
      <trkpt lat="44.36786" lon="6.36972">
        <ele>1350.8000488281</ele>
        <time>2016-07-11T09:16:25.000Z</time>
      </trkpt>
      <trkpt lat="44.36788" lon="6.36971">
        <ele>1351.1999511719</ele>
        <time>2016-07-11T09:16:26.000Z</time>
      </trkpt>
      <trkpt lat="44.36796" lon="6.36966">
        <ele>1351.8000488281</ele>
        <time>2016-07-11T09:16:32.000Z</time>
      </trkpt>
      <trkpt lat="44.36812" lon="6.36958">
        <ele>1353</ele>
        <time>2016-07-11T09:16:45.000Z</time>
      </trkpt>
      <trkpt lat="44.3682" lon="6.36955">
        <ele>1353.8000488281</ele>
        <time>2016-07-11T09:16:52.000Z</time>
      </trkpt>
      <trkpt lat="44.36834" lon="6.36949">
        <ele>1355</ele>
        <time>2016-07-11T09:17:03.000Z</time>
      </trkpt>
      <trkpt lat="44.36845" lon="6.36945">
        <ele>1356.5999755859</ele>
        <time>2016-07-11T09:17:12.000Z</time>
      </trkpt>
      <trkpt lat="44.36856" lon="6.36941">
        <ele>1358.1999511719</ele>
        <time>2016-07-11T09:17:20.000Z</time>
      </trkpt>
      <trkpt lat="44.36868" lon="6.36936">
        <ele>1359.5999755859</ele>
        <time>2016-07-11T09:17:29.000Z</time>
      </trkpt>
      <trkpt lat="44.36877" lon="6.36931">
        <ele>1360.1999511719</ele>
        <time>2016-07-11T09:17:37.000Z</time>
      </trkpt>
      <trkpt lat="44.3689" lon="6.36927">
        <ele>1361.1999511719</ele>
        <time>2016-07-11T09:17:46.000Z</time>
      </trkpt>
      <trkpt lat="44.36908" lon="6.36922">
        <ele>1363</ele>
        <time>2016-07-11T09:17:59.000Z</time>
      </trkpt>
      <trkpt lat="44.36921" lon="6.36919">
        <ele>1364.4000244141</ele>
        <time>2016-07-11T09:18:09.000Z</time>
      </trkpt>
      <trkpt lat="44.36935" lon="6.36918">
        <ele>1365.8000488281</ele>
        <time>2016-07-11T09:18:19.000Z</time>
      </trkpt>
      <trkpt lat="44.36937" lon="6.36918">
        <ele>1366</ele>
        <time>2016-07-11T09:18:20.000Z</time>
      </trkpt>
      <trkpt lat="44.36943" lon="6.36918">
        <ele>1366.8000488281</ele>
        <time>2016-07-11T09:18:24.000Z</time>
      </trkpt>
      <trkpt lat="44.36954" lon="6.36919">
        <ele>1367.5999755859</ele>
        <time>2016-07-11T09:18:32.000Z</time>
      </trkpt>
      <trkpt lat="44.36961" lon="6.36919">
        <ele>1368</ele>
        <time>2016-07-11T09:18:37.000Z</time>
      </trkpt>
      <trkpt lat="44.36968" lon="6.3692">
        <ele>1368.4000244141</ele>
        <time>2016-07-11T09:18:43.000Z</time>
      </trkpt>
      <trkpt lat="44.36972" lon="6.36918">
        <ele>1368.5999755859</ele>
        <time>2016-07-11T09:18:48.000Z</time>
      </trkpt>
      <trkpt lat="44.36981" lon="6.36916">
        <ele>1368.8000488281</ele>
        <time>2016-07-11T09:18:55.000Z</time>
      </trkpt>
      <trkpt lat="44.36994" lon="6.36913">
        <ele>1368.8000488281</ele>
        <time>2016-07-11T09:19:03.000Z</time>
      </trkpt>
      <trkpt lat="44.37011" lon="6.36912">
        <ele>1369.1999511719</ele>
        <time>2016-07-11T09:19:14.000Z</time>
      </trkpt>
      <trkpt lat="44.37024" lon="6.36911">
        <ele>1369.4000244141</ele>
        <time>2016-07-11T09:19:23.000Z</time>
      </trkpt>
      <trkpt lat="44.3704" lon="6.3691">
        <ele>1370.1999511719</ele>
        <time>2016-07-11T09:19:33.000Z</time>
      </trkpt>
      <trkpt lat="44.37052" lon="6.36908">
        <ele>1371</ele>
        <time>2016-07-11T09:19:41.000Z</time>
      </trkpt>
      <trkpt lat="44.37068" lon="6.36906">
        <ele>1371.8000488281</ele>
        <time>2016-07-11T09:19:48.000Z</time>
      </trkpt>
      <trkpt lat="44.37091" lon="6.36899">
        <ele>1372.5999755859</ele>
        <time>2016-07-11T09:19:59.000Z</time>
      </trkpt>
      <trkpt lat="44.37096" lon="6.369">
        <ele>1373</ele>
        <time>2016-07-11T09:20:06.000Z</time>
      </trkpt>
      <trkpt lat="44.37102" lon="6.36901">
        <ele>1373.4000244141</ele>
        <time>2016-07-11T09:20:12.000Z</time>
      </trkpt>
      <trkpt lat="44.37107" lon="6.36901">
        <ele>1373.8000488281</ele>
        <time>2016-07-11T09:20:16.000Z</time>
      </trkpt>
      <trkpt lat="44.37115" lon="6.36896">
        <ele>1373.8000488281</ele>
        <time>2016-07-11T09:20:23.000Z</time>
      </trkpt>
      <trkpt lat="44.37126" lon="6.36893">
        <ele>1374.4000244141</ele>
        <time>2016-07-11T09:20:30.000Z</time>
      </trkpt>
      <trkpt lat="44.37131" lon="6.36892">
        <ele>1374.5999755859</ele>
        <time>2016-07-11T09:20:35.000Z</time>
      </trkpt>
      <trkpt lat="44.37139" lon="6.36888">
        <ele>1374.8000488281</ele>
        <time>2016-07-11T09:20:53.000Z</time>
      </trkpt>
      <trkpt lat="44.37149" lon="6.3688">
        <ele>1374.5999755859</ele>
        <time>2016-07-11T09:21:01.000Z</time>
      </trkpt>
      <trkpt lat="44.37157" lon="6.36871">
        <ele>1374</ele>
        <time>2016-07-11T09:21:08.000Z</time>
      </trkpt>
      <trkpt lat="44.37164" lon="6.36861">
        <ele>1373.4000244141</ele>
        <time>2016-07-11T09:21:15.000Z</time>
      </trkpt>
      <trkpt lat="44.37169" lon="6.36849">
        <ele>1373.4000244141</ele>
        <time>2016-07-11T09:21:22.000Z</time>
      </trkpt>
      <trkpt lat="44.37174" lon="6.3684">
        <ele>1373.4000244141</ele>
        <time>2016-07-11T09:21:28.000Z</time>
      </trkpt>
      <trkpt lat="44.3718" lon="6.36828">
        <ele>1373.4000244141</ele>
        <time>2016-07-11T09:21:35.000Z</time>
      </trkpt>
      <trkpt lat="44.37188" lon="6.36816">
        <ele>1373.8000488281</ele>
        <time>2016-07-11T09:21:43.000Z</time>
      </trkpt>
      <trkpt lat="44.37199" lon="6.368">
        <ele>1373</ele>
        <time>2016-07-11T09:21:53.000Z</time>
      </trkpt>
      <trkpt lat="44.37206" lon="6.3679">
        <ele>1372.4000244141</ele>
        <time>2016-07-11T09:22:00.000Z</time>
      </trkpt>
      <trkpt lat="44.37211" lon="6.36785">
        <ele>1372</ele>
        <time>2016-07-11T09:22:04.000Z</time>
      </trkpt>
      <trkpt lat="44.37219" lon="6.36774">
        <ele>1371.1999511719</ele>
        <time>2016-07-11T09:22:13.000Z</time>
      </trkpt>
      <trkpt lat="44.37228" lon="6.36766">
        <ele>1371</ele>
        <time>2016-07-11T09:22:20.000Z</time>
      </trkpt>
      <trkpt lat="44.37237" lon="6.36756">
        <ele>1370.8000488281</ele>
        <time>2016-07-11T09:22:28.000Z</time>
      </trkpt>
      <trkpt lat="44.37245" lon="6.36746">
        <ele>1370.8000488281</ele>
        <time>2016-07-11T09:22:35.000Z</time>
      </trkpt>
      <trkpt lat="44.37257" lon="6.3673">
        <ele>1370.5999755859</ele>
        <time>2016-07-11T09:22:46.000Z</time>
      </trkpt>
      <trkpt lat="44.37263" lon="6.36719">
        <ele>1370.4000244141</ele>
        <time>2016-07-11T09:22:53.000Z</time>
      </trkpt>
      <trkpt lat="44.37268" lon="6.36706">
        <ele>1369.5999755859</ele>
        <time>2016-07-11T09:23:00.000Z</time>
      </trkpt>
      <trkpt lat="44.37272" lon="6.36694">
        <ele>1368.8000488281</ele>
        <time>2016-07-11T09:23:07.000Z</time>
      </trkpt>
      <trkpt lat="44.37275" lon="6.36678">
        <ele>1367.4000244141</ele>
        <time>2016-07-11T09:23:15.000Z</time>
      </trkpt>
      <trkpt lat="44.37276" lon="6.36672">
        <ele>1367</ele>
        <time>2016-07-11T09:23:20.000Z</time>
      </trkpt>
      <trkpt lat="44.37274" lon="6.36666">
        <ele>1366</ele>
        <time>2016-07-11T09:23:37.000Z</time>
      </trkpt>
      <trkpt lat="44.37283" lon="6.36648">
        <ele>1365.1999511719</ele>
        <time>2016-07-11T09:23:49.000Z</time>
      </trkpt>
      <trkpt lat="44.37294" lon="6.36633">
        <ele>1364.8000488281</ele>
        <time>2016-07-11T09:23:59.000Z</time>
      </trkpt>
      <trkpt lat="44.37304" lon="6.36627">
        <ele>1365.1999511719</ele>
        <time>2016-07-11T09:24:07.000Z</time>
      </trkpt>
      <trkpt lat="44.37305" lon="6.36627">
        <ele>1365.4000244141</ele>
        <time>2016-07-11T09:24:08.000Z</time>
      </trkpt>
      <trkpt lat="44.37309" lon="6.36627">
        <ele>1365.8000488281</ele>
        <time>2016-07-11T09:24:12.000Z</time>
      </trkpt>
      <trkpt lat="44.37313" lon="6.36625">
        <ele>1366</ele>
        <time>2016-07-11T09:24:16.000Z</time>
      </trkpt>
      <trkpt lat="44.37318" lon="6.36624">
        <ele>1366.4000244141</ele>
        <time>2016-07-11T09:24:21.000Z</time>
      </trkpt>
      <trkpt lat="44.37324" lon="6.36619">
        <ele>1366.5999755859</ele>
        <time>2016-07-11T09:24:27.000Z</time>
      </trkpt>
      <trkpt lat="44.3733" lon="6.36616">
        <ele>1366.8000488281</ele>
        <time>2016-07-11T09:24:31.000Z</time>
      </trkpt>
      <trkpt lat="44.37332" lon="6.36615">
        <ele>1366.8000488281</ele>
        <time>2016-07-11T09:24:32.000Z</time>
      </trkpt>
      <trkpt lat="44.3734" lon="6.36607">
        <ele>1367.8000488281</ele>
        <time>2016-07-11T09:24:40.000Z</time>
      </trkpt>
      <trkpt lat="44.37342" lon="6.36604">
        <ele>1368</ele>
        <time>2016-07-11T09:24:42.000Z</time>
      </trkpt>
      <trkpt lat="44.37344" lon="6.36599">
        <ele>1367.8000488281</ele>
        <time>2016-07-11T09:24:45.000Z</time>
      </trkpt>
      <trkpt lat="44.37343" lon="6.36594">
        <ele>1367.4000244141</ele>
        <time>2016-07-11T09:24:49.000Z</time>
      </trkpt>
      <trkpt lat="44.37342" lon="6.36591">
        <ele>1367.1999511719</ele>
        <time>2016-07-11T09:24:51.000Z</time>
      </trkpt>
      <trkpt lat="44.37338" lon="6.36578">
        <ele>1365.8000488281</ele>
        <time>2016-07-11T09:24:59.000Z</time>
      </trkpt>
      <trkpt lat="44.37336" lon="6.3657">
        <ele>1364.8000488281</ele>
        <time>2016-07-11T09:25:05.000Z</time>
      </trkpt>
      <trkpt lat="44.37336" lon="6.36555">
        <ele>1364.1999511719</ele>
        <time>2016-07-11T09:25:13.000Z</time>
      </trkpt>
      <trkpt lat="44.37337" lon="6.36537">
        <ele>1363.8000488281</ele>
        <time>2016-07-11T09:25:22.000Z</time>
      </trkpt>
      <trkpt lat="44.37338" lon="6.36528">
        <ele>1363.8000488281</ele>
        <time>2016-07-11T09:25:26.000Z</time>
      </trkpt>
      <trkpt lat="44.3734" lon="6.36516">
        <ele>1363.8000488281</ele>
        <time>2016-07-11T09:25:32.000Z</time>
      </trkpt>
      <trkpt lat="44.37344" lon="6.365">
        <ele>1364</ele>
        <time>2016-07-11T09:25:40.000Z</time>
      </trkpt>
      <trkpt lat="44.37345" lon="6.36492">
        <ele>1364</ele>
        <time>2016-07-11T09:25:44.000Z</time>
      </trkpt>
      <trkpt lat="44.37347" lon="6.36478">
        <ele>1364</ele>
        <time>2016-07-11T09:25:50.000Z</time>
      </trkpt>
      <trkpt lat="44.37349" lon="6.36465">
        <ele>1364.1999511719</ele>
        <time>2016-07-11T09:25:57.000Z</time>
      </trkpt>
      <trkpt lat="44.37352" lon="6.36455">
        <ele>1364.4000244141</ele>
        <time>2016-07-11T09:26:03.000Z</time>
      </trkpt>
      <trkpt lat="44.37354" lon="6.36445">
        <ele>1364.4000244141</ele>
        <time>2016-07-11T09:26:08.000Z</time>
      </trkpt>
      <trkpt lat="44.37359" lon="6.36432">
        <ele>1365</ele>
        <time>2016-07-11T09:26:16.000Z</time>
      </trkpt>
      <trkpt lat="44.37364" lon="6.3642">
        <ele>1365.4000244141</ele>
        <time>2016-07-11T09:26:23.000Z</time>
      </trkpt>
      <trkpt lat="44.37367" lon="6.36404">
        <ele>1365.5999755859</ele>
        <time>2016-07-11T09:26:30.000Z</time>
      </trkpt>
      <trkpt lat="44.37373" lon="6.3639">
        <ele>1365.5999755859</ele>
        <time>2016-07-11T09:26:37.000Z</time>
      </trkpt>
      <trkpt lat="44.3738" lon="6.36377">
        <ele>1365.8000488281</ele>
        <time>2016-07-11T09:26:45.000Z</time>
      </trkpt>
      <trkpt lat="44.37386" lon="6.36368">
        <ele>1366.1999511719</ele>
        <time>2016-07-11T09:26:51.000Z</time>
      </trkpt>
      <trkpt lat="44.37394" lon="6.36354">
        <ele>1366.4000244141</ele>
        <time>2016-07-11T09:26:59.000Z</time>
      </trkpt>
      <trkpt lat="44.37402" lon="6.36342">
        <ele>1366.8000488281</ele>
        <time>2016-07-11T09:27:07.000Z</time>
      </trkpt>
      <trkpt lat="44.3741" lon="6.36334">
        <ele>1367.4000244141</ele>
        <time>2016-07-11T09:27:13.000Z</time>
      </trkpt>
      <trkpt lat="44.37417" lon="6.36326">
        <ele>1367.8000488281</ele>
        <time>2016-07-11T09:27:19.000Z</time>
      </trkpt>
      <trkpt lat="44.37425" lon="6.36315">
        <ele>1368.1999511719</ele>
        <time>2016-07-11T09:27:27.000Z</time>
      </trkpt>
      <trkpt lat="44.37434" lon="6.36303">
        <ele>1368.4000244141</ele>
        <time>2016-07-11T09:27:35.000Z</time>
      </trkpt>
      <trkpt lat="44.3744" lon="6.36294">
        <ele>1369</ele>
        <time>2016-07-11T09:27:41.000Z</time>
      </trkpt>
      <trkpt lat="44.37448" lon="6.36281">
        <ele>1369.8000488281</ele>
        <time>2016-07-11T09:27:50.000Z</time>
      </trkpt>
      <trkpt lat="44.37459" lon="6.36266">
        <ele>1371</ele>
        <time>2016-07-11T09:28:00.000Z</time>
      </trkpt>
      <trkpt lat="44.37467" lon="6.36256">
        <ele>1371.8000488281</ele>
        <time>2016-07-11T09:28:08.000Z</time>
      </trkpt>
      <trkpt lat="44.37477" lon="6.3624">
        <ele>1372.8000488281</ele>
        <time>2016-07-11T09:28:18.000Z</time>
      </trkpt>
      <trkpt lat="44.37487" lon="6.36221">
        <ele>1373.1999511719</ele>
        <time>2016-07-11T09:28:28.000Z</time>
      </trkpt>
      <trkpt lat="44.37495" lon="6.36208">
        <ele>1373.1999511719</ele>
        <time>2016-07-11T09:28:36.000Z</time>
      </trkpt>
      <trkpt lat="44.37504" lon="6.36196">
        <ele>1373.4000244141</ele>
        <time>2016-07-11T09:28:44.000Z</time>
      </trkpt>
      <trkpt lat="44.37513" lon="6.36184">
        <ele>1374</ele>
        <time>2016-07-11T09:28:52.000Z</time>
      </trkpt>
      <trkpt lat="44.37522" lon="6.3617">
        <ele>1374.1999511719</ele>
        <time>2016-07-11T09:29:01.000Z</time>
      </trkpt>
      <trkpt lat="44.3753" lon="6.36156">
        <ele>1374.5999755859</ele>
        <time>2016-07-11T09:29:10.000Z</time>
      </trkpt>
      <trkpt lat="44.37541" lon="6.36143">
        <ele>1374.5999755859</ele>
        <time>2016-07-11T09:29:19.000Z</time>
      </trkpt>
      <trkpt lat="44.3755" lon="6.36134">
        <ele>1374.4000244141</ele>
        <time>2016-07-11T09:29:26.000Z</time>
      </trkpt>
      <trkpt lat="44.37556" lon="6.36127">
        <ele>1374.1999511719</ele>
        <time>2016-07-11T09:29:32.000Z</time>
      </trkpt>
      <trkpt lat="44.37561" lon="6.36118">
        <ele>1373.8000488281</ele>
        <time>2016-07-11T09:29:38.000Z</time>
      </trkpt>
      <trkpt lat="44.3757" lon="6.36106">
        <ele>1373</ele>
        <time>2016-07-11T09:29:46.000Z</time>
      </trkpt>
      <trkpt lat="44.37583" lon="6.36089">
        <ele>1374.1999511719</ele>
        <time>2016-07-11T09:29:57.000Z</time>
      </trkpt>
      <trkpt lat="44.37596" lon="6.36075">
        <ele>1376</ele>
        <time>2016-07-11T09:30:07.000Z</time>
      </trkpt>
      <trkpt lat="44.37605" lon="6.36059">
        <ele>1376.1999511719</ele>
        <time>2016-07-11T09:30:16.000Z</time>
      </trkpt>
      <trkpt lat="44.37614" lon="6.36041">
        <ele>1376.4000244141</ele>
        <time>2016-07-11T09:30:26.000Z</time>
      </trkpt>
      <trkpt lat="44.37623" lon="6.36028">
        <ele>1376</ele>
        <time>2016-07-11T09:30:35.000Z</time>
      </trkpt>
      <trkpt lat="44.37628" lon="6.3602">
        <ele>1375.8000488281</ele>
        <time>2016-07-11T09:30:41.000Z</time>
      </trkpt>
      <trkpt lat="44.37634" lon="6.36011">
        <ele>1375.5999755859</ele>
        <time>2016-07-11T09:30:48.000Z</time>
      </trkpt>
      <trkpt lat="44.37641" lon="6.36002">
        <ele>1375.4000244141</ele>
        <time>2016-07-11T09:30:54.000Z</time>
      </trkpt>
      <trkpt lat="44.37651" lon="6.3599">
        <ele>1375</ele>
        <time>2016-07-11T09:31:01.000Z</time>
      </trkpt>
      <trkpt lat="44.37668" lon="6.35976">
        <ele>1375</ele>
        <time>2016-07-11T09:31:08.000Z</time>
      </trkpt>
      <trkpt lat="44.37687" lon="6.35965">
        <ele>1375.4000244141</ele>
        <time>2016-07-11T09:31:14.000Z</time>
      </trkpt>
      <trkpt lat="44.37705" lon="6.35954">
        <ele>1377</ele>
        <time>2016-07-11T09:31:20.000Z</time>
      </trkpt>
      <trkpt lat="44.37721" lon="6.35946">
        <ele>1378.4000244141</ele>
        <time>2016-07-11T09:31:27.000Z</time>
      </trkpt>
      <trkpt lat="44.37733" lon="6.3594">
        <ele>1379.4000244141</ele>
        <time>2016-07-11T09:31:33.000Z</time>
      </trkpt>
      <trkpt lat="44.37744" lon="6.35934">
        <ele>1379.8000488281</ele>
        <time>2016-07-11T09:31:40.000Z</time>
      </trkpt>
      <trkpt lat="44.37767" lon="6.35919">
        <ele>1380.8000488281</ele>
        <time>2016-07-11T09:31:56.000Z</time>
      </trkpt>
      <trkpt lat="44.37781" lon="6.35911">
        <ele>1381.5999755859</ele>
        <time>2016-07-11T09:32:05.000Z</time>
      </trkpt>
      <trkpt lat="44.3779" lon="6.35905">
        <ele>1381.8000488281</ele>
        <time>2016-07-11T09:32:12.000Z</time>
      </trkpt>
      <trkpt lat="44.37803" lon="6.35896">
        <ele>1382.5999755859</ele>
        <time>2016-07-11T09:32:21.000Z</time>
      </trkpt>
      <trkpt lat="44.37815" lon="6.35886">
        <ele>1383.1999511719</ele>
        <time>2016-07-11T09:32:30.000Z</time>
      </trkpt>
      <trkpt lat="44.37829" lon="6.35876">
        <ele>1384</ele>
        <time>2016-07-11T09:32:40.000Z</time>
      </trkpt>
      <trkpt lat="44.37845" lon="6.35863">
        <ele>1384.4000244141</ele>
        <time>2016-07-11T09:32:52.000Z</time>
      </trkpt>
      <trkpt lat="44.37855" lon="6.35854">
        <ele>1384.1999511719</ele>
        <time>2016-07-11T09:33:00.000Z</time>
      </trkpt>
      <trkpt lat="44.37863" lon="6.35849">
        <ele>1384.4000244141</ele>
        <time>2016-07-11T09:33:05.000Z</time>
      </trkpt>
      <trkpt lat="44.37863" lon="6.35848">
        <ele>1384.4000244141</ele>
        <time>2016-07-11T09:33:06.000Z</time>
      </trkpt>
      <trkpt lat="44.37864" lon="6.35846">
        <ele>1384.1999511719</ele>
        <time>2016-07-11T09:33:12.000Z</time>
      </trkpt>
      <trkpt lat="44.37873" lon="6.35841">
        <ele>1384.1999511719</ele>
        <time>2016-07-11T09:33:20.000Z</time>
      </trkpt>
      <trkpt lat="44.37876" lon="6.35839">
        <ele>1384.1999511719</ele>
        <time>2016-07-11T09:33:22.000Z</time>
      </trkpt>
      <trkpt lat="44.37882" lon="6.35836">
        <ele>1384.4000244141</ele>
        <time>2016-07-11T09:33:27.000Z</time>
      </trkpt>
      <trkpt lat="44.37891" lon="6.3583">
        <ele>1384.5999755859</ele>
        <time>2016-07-11T09:33:34.000Z</time>
      </trkpt>
      <trkpt lat="44.37902" lon="6.35822">
        <ele>1384.8000488281</ele>
        <time>2016-07-11T09:33:42.000Z</time>
      </trkpt>
      <trkpt lat="44.37909" lon="6.35817">
        <ele>1385.1999511719</ele>
        <time>2016-07-11T09:33:47.000Z</time>
      </trkpt>
      <trkpt lat="44.37924" lon="6.3581">
        <ele>1386</ele>
        <time>2016-07-11T09:33:57.000Z</time>
      </trkpt>
      <trkpt lat="44.37935" lon="6.35804">
        <ele>1386.4000244141</ele>
        <time>2016-07-11T09:34:05.000Z</time>
      </trkpt>
      <trkpt lat="44.3794" lon="6.35799">
        <ele>1386.8000488281</ele>
        <time>2016-07-11T09:34:12.000Z</time>
      </trkpt>
      <trkpt lat="44.37942" lon="6.35798">
        <ele>1387</ele>
        <time>2016-07-11T09:34:13.000Z</time>
      </trkpt>
      <trkpt lat="44.3795" lon="6.35792">
        <ele>1387.8000488281</ele>
        <time>2016-07-11T09:34:19.000Z</time>
      </trkpt>
      <trkpt lat="44.37951" lon="6.3579">
        <ele>1387.8000488281</ele>
        <time>2016-07-11T09:34:20.000Z</time>
      </trkpt>
      <trkpt lat="44.37958" lon="6.35786">
        <ele>1388</ele>
        <time>2016-07-11T09:34:26.000Z</time>
      </trkpt>
      <trkpt lat="44.37963" lon="6.35781">
        <ele>1388</ele>
        <time>2016-07-11T09:34:32.000Z</time>
      </trkpt>
      <trkpt lat="44.37966" lon="6.35778">
        <ele>1388.1999511719</ele>
        <time>2016-07-11T09:34:38.000Z</time>
      </trkpt>
      <trkpt lat="44.37972" lon="6.35774">
        <ele>1388.4000244141</ele>
        <time>2016-07-11T09:34:44.000Z</time>
      </trkpt>
      <trkpt lat="44.37976" lon="6.35771">
        <ele>1388.4000244141</ele>
        <time>2016-07-11T09:34:49.000Z</time>
      </trkpt>
      <trkpt lat="44.37977" lon="6.3577">
        <ele>1388.4000244141</ele>
        <time>2016-07-11T09:34:50.000Z</time>
      </trkpt>
      <trkpt lat="44.37983" lon="6.35767">
        <ele>1388.5999755859</ele>
        <time>2016-07-11T09:34:55.000Z</time>
      </trkpt>
      <trkpt lat="44.37986" lon="6.35765">
        <ele>1388.8000488281</ele>
        <time>2016-07-11T09:34:57.000Z</time>
      </trkpt>
      <trkpt lat="44.37989" lon="6.35761">
        <ele>1388.5999755859</ele>
        <time>2016-07-11T09:35:01.000Z</time>
      </trkpt>
      <trkpt lat="44.37996" lon="6.35757">
        <ele>1388.8000488281</ele>
        <time>2016-07-11T09:35:11.000Z</time>
      </trkpt>
      <trkpt lat="44.37997" lon="6.35757">
        <ele>1388.8000488281</ele>
        <time>2016-07-11T09:35:12.000Z</time>
      </trkpt>
      <trkpt lat="44.38001" lon="6.35757">
        <ele>1389</ele>
        <time>2016-07-11T09:35:15.000Z</time>
      </trkpt>
      <trkpt lat="44.38009" lon="6.35751">
        <ele>1389</ele>
        <time>2016-07-11T09:35:21.000Z</time>
      </trkpt>
      <trkpt lat="44.38016" lon="6.35745">
        <ele>1389</ele>
        <time>2016-07-11T09:35:28.000Z</time>
      </trkpt>
      <trkpt lat="44.38024" lon="6.3574">
        <ele>1389.1999511719</ele>
        <time>2016-07-11T09:35:34.000Z</time>
      </trkpt>
      <trkpt lat="44.38032" lon="6.35735">
        <ele>1389.1999511719</ele>
        <time>2016-07-11T09:35:40.000Z</time>
      </trkpt>
      <trkpt lat="44.38043" lon="6.35729">
        <ele>1389</ele>
        <time>2016-07-11T09:35:48.000Z</time>
      </trkpt>
      <trkpt lat="44.38044" lon="6.35729">
        <ele>1388.8000488281</ele>
        <time>2016-07-11T09:35:49.000Z</time>
      </trkpt>
      <trkpt lat="44.38048" lon="6.35727">
        <ele>1388.5999755859</ele>
        <time>2016-07-11T09:35:52.000Z</time>
      </trkpt>
      <trkpt lat="44.38054" lon="6.35723">
        <ele>1388.1999511719</ele>
        <time>2016-07-11T09:35:57.000Z</time>
      </trkpt>
      <trkpt lat="44.38056" lon="6.35723">
        <ele>1388.1999511719</ele>
        <time>2016-07-11T09:36:04.000Z</time>
      </trkpt>
      <trkpt lat="44.38064" lon="6.35719">
        <ele>1387.5999755859</ele>
        <time>2016-07-11T09:36:17.000Z</time>
      </trkpt>
      <trkpt lat="44.38071" lon="6.35716">
        <ele>1387.1999511719</ele>
        <time>2016-07-11T09:36:22.000Z</time>
      </trkpt>
      <trkpt lat="44.38078" lon="6.35712">
        <ele>1386.8000488281</ele>
        <time>2016-07-11T09:36:28.000Z</time>
      </trkpt>
      <trkpt lat="44.38085" lon="6.35708">
        <ele>1386.4000244141</ele>
        <time>2016-07-11T09:36:34.000Z</time>
      </trkpt>
      <trkpt lat="44.38095" lon="6.35704">
        <ele>1385.8000488281</ele>
        <time>2016-07-11T09:36:43.000Z</time>
      </trkpt>
      <trkpt lat="44.38104" lon="6.357">
        <ele>1385</ele>
        <time>2016-07-11T09:36:50.000Z</time>
      </trkpt>
      <trkpt lat="44.38112" lon="6.35697">
        <ele>1384.5999755859</ele>
        <time>2016-07-11T09:36:56.000Z</time>
      </trkpt>
      <trkpt lat="44.38114" lon="6.35696">
        <ele>1384.5999755859</ele>
        <time>2016-07-11T09:36:58.000Z</time>
      </trkpt>
      <trkpt lat="44.38121" lon="6.35693">
        <ele>1384.4000244141</ele>
        <time>2016-07-11T09:37:04.000Z</time>
      </trkpt>
      <trkpt lat="44.38126" lon="6.35691">
        <ele>1384.5999755859</ele>
        <time>2016-07-11T09:37:09.000Z</time>
      </trkpt>
      <trkpt lat="44.38131" lon="6.35689">
        <ele>1384.5999755859</ele>
        <time>2016-07-11T09:37:19.000Z</time>
      </trkpt>
      <trkpt lat="44.38135" lon="6.35689">
        <ele>1385</ele>
        <time>2016-07-11T09:37:25.000Z</time>
      </trkpt>
      <trkpt lat="44.38137" lon="6.35689">
        <ele>1385</ele>
        <time>2016-07-11T09:37:27.000Z</time>
      </trkpt>
      <trkpt lat="44.38142" lon="6.35689">
        <ele>1385.5999755859</ele>
        <time>2016-07-11T09:37:32.000Z</time>
      </trkpt>
      <trkpt lat="44.38144" lon="6.35689">
        <ele>1385.5999755859</ele>
        <time>2016-07-11T09:37:36.000Z</time>
      </trkpt>
      <trkpt lat="44.38154" lon="6.35686">
        <ele>1385.8000488281</ele>
        <time>2016-07-11T09:37:49.000Z</time>
      </trkpt>
      <trkpt lat="44.38158" lon="6.35683">
        <ele>1385</ele>
        <time>2016-07-11T09:37:54.000Z</time>
      </trkpt>
      <trkpt lat="44.38166" lon="6.35678">
        <ele>1383.4000244141</ele>
        <time>2016-07-11T09:38:01.000Z</time>
      </trkpt>
      <trkpt lat="44.38174" lon="6.35671">
        <ele>1381.5999755859</ele>
        <time>2016-07-11T09:38:08.000Z</time>
      </trkpt>
      <trkpt lat="44.3818" lon="6.35664">
        <ele>1379.5999755859</ele>
        <time>2016-07-11T09:38:14.000Z</time>
      </trkpt>
      <trkpt lat="44.38185" lon="6.35661">
        <ele>1378.8000488281</ele>
        <time>2016-07-11T09:38:18.000Z</time>
      </trkpt>
      <trkpt lat="44.38188" lon="6.35652">
        <ele>1376.4000244141</ele>
        <time>2016-07-11T09:38:23.000Z</time>
      </trkpt>
      <trkpt lat="44.38193" lon="6.35641">
        <ele>1374.1999511719</ele>
        <time>2016-07-11T09:38:30.000Z</time>
      </trkpt>
      <trkpt lat="44.38197" lon="6.35634">
        <ele>1373.4000244141</ele>
        <time>2016-07-11T09:38:36.000Z</time>
      </trkpt>
      <trkpt lat="44.38198" lon="6.35632">
        <ele>1373.4000244141</ele>
        <time>2016-07-11T09:38:37.000Z</time>
      </trkpt>
      <trkpt lat="44.38206" lon="6.35617">
        <ele>1372.1999511719</ele>
        <time>2016-07-11T09:38:51.000Z</time>
      </trkpt>
      <trkpt lat="44.3821" lon="6.35616">
        <ele>1372.4000244141</ele>
        <time>2016-07-11T09:38:56.000Z</time>
      </trkpt>
      <trkpt lat="44.38211" lon="6.35615">
        <ele>1372.4000244141</ele>
        <time>2016-07-11T09:39:00.000Z</time>
      </trkpt>
      <trkpt lat="44.38212" lon="6.35613">
        <ele>1372.1999511719</ele>
        <time>2016-07-11T09:39:01.000Z</time>
      </trkpt>
      <trkpt lat="44.38216" lon="6.35608">
        <ele>1372</ele>
        <time>2016-07-11T09:39:06.000Z</time>
      </trkpt>
      <trkpt lat="44.38217" lon="6.35606">
        <ele>1371.8000488281</ele>
        <time>2016-07-11T09:39:07.000Z</time>
      </trkpt>
      <trkpt lat="44.3822" lon="6.35602">
        <ele>1371.5999755859</ele>
        <time>2016-07-11T09:39:10.000Z</time>
      </trkpt>
      <trkpt lat="44.38225" lon="6.35597">
        <ele>1371.5999755859</ele>
        <time>2016-07-11T09:39:15.000Z</time>
      </trkpt>
      <trkpt lat="44.38228" lon="6.35596">
        <ele>1371.4000244141</ele>
        <time>2016-07-11T09:39:18.000Z</time>
      </trkpt>
      <trkpt lat="44.38232" lon="6.35587">
        <ele>1370.5999755859</ele>
        <time>2016-07-11T09:39:25.000Z</time>
      </trkpt>
      <trkpt lat="44.38234" lon="6.35587">
        <ele>1370.8000488281</ele>
        <time>2016-07-11T09:39:27.000Z</time>
      </trkpt>
      <trkpt lat="44.38236" lon="6.35589">
        <ele>1371.1999511719</ele>
        <time>2016-07-11T09:39:30.000Z</time>
      </trkpt>
      <trkpt lat="44.3824" lon="6.35596">
        <ele>1372.1999511719</ele>
        <time>2016-07-11T09:39:36.000Z</time>
      </trkpt>
      <trkpt lat="44.38246" lon="6.356">
        <ele>1373</ele>
        <time>2016-07-11T09:39:42.000Z</time>
      </trkpt>
      <trkpt lat="44.38251" lon="6.35598">
        <ele>1373</ele>
        <time>2016-07-11T09:40:00.000Z</time>
      </trkpt>
      <trkpt lat="44.38253" lon="6.35593">
        <ele>1372.4000244141</ele>
        <time>2016-07-11T09:40:06.000Z</time>
      </trkpt>
      <trkpt lat="44.38254" lon="6.35593">
        <ele>1372.4000244141</ele>
        <time>2016-07-11T09:40:11.000Z</time>
      </trkpt>
      <trkpt lat="44.38255" lon="6.35589">
        <ele>1372</ele>
        <time>2016-07-11T09:40:17.000Z</time>
      </trkpt>
      <trkpt lat="44.38253" lon="6.3559">
        <ele>1372</ele>
        <time>2016-07-11T09:40:52.000Z</time>
      </trkpt>
      <trkpt lat="44.38254" lon="6.35589">
        <ele>1372</ele>
        <time>2016-07-11T09:41:00.000Z</time>
      </trkpt>
      <trkpt lat="44.38254" lon="6.35588">
        <ele>1371.8000488281</ele>
        <time>2016-07-11T09:41:12.000Z</time>
      </trkpt>
      <trkpt lat="44.38257" lon="6.35581">
        <ele>1371</ele>
        <time>2016-07-11T09:41:21.000Z</time>
      </trkpt>
      <trkpt lat="44.38264" lon="6.3557">
        <ele>1370</ele>
        <time>2016-07-11T09:41:29.000Z</time>
      </trkpt>
      <trkpt lat="44.38271" lon="6.3556">
        <ele>1369.1999511719</ele>
        <time>2016-07-11T09:41:37.000Z</time>
      </trkpt>
      <trkpt lat="44.38277" lon="6.35553">
        <ele>1368.8000488281</ele>
        <time>2016-07-11T09:41:43.000Z</time>
      </trkpt>
      <trkpt lat="44.38284" lon="6.35546">
        <ele>1368.8000488281</ele>
        <time>2016-07-11T09:41:49.000Z</time>
      </trkpt>
      <trkpt lat="44.38294" lon="6.35537">
        <ele>1368.8000488281</ele>
        <time>2016-07-11T09:41:57.000Z</time>
      </trkpt>
      <trkpt lat="44.38304" lon="6.35526">
        <ele>1369</ele>
        <time>2016-07-11T09:42:06.000Z</time>
      </trkpt>
      <trkpt lat="44.38314" lon="6.35519">
        <ele>1369.4000244141</ele>
        <time>2016-07-11T09:42:14.000Z</time>
      </trkpt>
      <trkpt lat="44.38322" lon="6.35513">
        <ele>1369.5999755859</ele>
        <time>2016-07-11T09:42:21.000Z</time>
      </trkpt>
      <trkpt lat="44.38332" lon="6.35506">
        <ele>1370</ele>
        <time>2016-07-11T09:42:28.000Z</time>
      </trkpt>
      <trkpt lat="44.38341" lon="6.35499">
        <ele>1370.1999511719</ele>
        <time>2016-07-11T09:42:35.000Z</time>
      </trkpt>
      <trkpt lat="44.38349" lon="6.35489">
        <ele>1370.1999511719</ele>
        <time>2016-07-11T09:42:43.000Z</time>
      </trkpt>
      <trkpt lat="44.38354" lon="6.35485">
        <ele>1370.4000244141</ele>
        <time>2016-07-11T09:42:47.000Z</time>
      </trkpt>
      <trkpt lat="44.38363" lon="6.3548">
        <ele>1370.8000488281</ele>
        <time>2016-07-11T09:42:53.000Z</time>
      </trkpt>
      <trkpt lat="44.38366" lon="6.35479">
        <ele>1371</ele>
        <time>2016-07-11T09:42:55.000Z</time>
      </trkpt>
      <trkpt lat="44.38371" lon="6.35477">
        <ele>1371.1999511719</ele>
        <time>2016-07-11T09:43:00.000Z</time>
      </trkpt>
      <trkpt lat="44.38374" lon="6.35475">
        <ele>1371.1999511719</ele>
        <time>2016-07-11T09:43:04.000Z</time>
      </trkpt>
      <trkpt lat="44.38377" lon="6.3547">
        <ele>1371.1999511719</ele>
        <time>2016-07-11T09:43:08.000Z</time>
      </trkpt>
      <trkpt lat="44.38379" lon="6.35468">
        <ele>1371</ele>
        <time>2016-07-11T09:43:10.000Z</time>
      </trkpt>
      <trkpt lat="44.38381" lon="6.35465">
        <ele>1371</ele>
        <time>2016-07-11T09:43:17.000Z</time>
      </trkpt>
      <trkpt lat="44.38383" lon="6.35465">
        <ele>1371.1999511719</ele>
        <time>2016-07-11T09:43:22.000Z</time>
      </trkpt>
      <trkpt lat="44.38386" lon="6.35463">
        <ele>1371.1999511719</ele>
        <time>2016-07-11T09:43:29.000Z</time>
      </trkpt>
      <trkpt lat="44.38394" lon="6.35457">
        <ele>1371.4000244141</ele>
        <time>2016-07-11T09:43:36.000Z</time>
      </trkpt>
      <trkpt lat="44.38407" lon="6.35446">
        <ele>1371.5999755859</ele>
        <time>2016-07-11T09:43:47.000Z</time>
      </trkpt>
      <trkpt lat="44.38418" lon="6.35442">
        <ele>1371.5999755859</ele>
        <time>2016-07-11T09:43:55.000Z</time>
      </trkpt>
      <trkpt lat="44.38427" lon="6.35438">
        <ele>1371.4000244141</ele>
        <time>2016-07-11T09:44:02.000Z</time>
      </trkpt>
      <trkpt lat="44.38429" lon="6.35437">
        <ele>1371.1999511719</ele>
        <time>2016-07-11T09:44:04.000Z</time>
      </trkpt>
      <trkpt lat="44.38437" lon="6.35437">
        <ele>1371.4000244141</ele>
        <time>2016-07-11T09:44:11.000Z</time>
      </trkpt>
      <trkpt lat="44.38438" lon="6.35437">
        <ele>1371.5999755859</ele>
        <time>2016-07-11T09:44:12.000Z</time>
      </trkpt>
      <trkpt lat="44.38448" lon="6.35437">
        <ele>1371.8000488281</ele>
        <time>2016-07-11T09:44:20.000Z</time>
      </trkpt>
      <trkpt lat="44.38452" lon="6.35437">
        <ele>1371.8000488281</ele>
        <time>2016-07-11T09:44:25.000Z</time>
      </trkpt>
      <trkpt lat="44.38454" lon="6.35437">
        <ele>1372</ele>
        <time>2016-07-11T09:44:32.000Z</time>
      </trkpt>
      <trkpt lat="44.38459" lon="6.35438">
        <ele>1372.1999511719</ele>
        <time>2016-07-11T09:44:39.000Z</time>
      </trkpt>
      <trkpt lat="44.38463" lon="6.35438">
        <ele>1372.4000244141</ele>
        <time>2016-07-11T09:44:47.000Z</time>
      </trkpt>
      <trkpt lat="44.38466" lon="6.35438">
        <ele>1372.4000244141</ele>
        <time>2016-07-11T09:44:56.000Z</time>
      </trkpt>
      <trkpt lat="44.38466" lon="6.35437">
        <ele>1372.4000244141</ele>
        <time>2016-07-11T09:45:07.000Z</time>
      </trkpt>
      <trkpt lat="44.38469" lon="6.35437">
        <ele>1372.5999755859</ele>
        <time>2016-07-11T09:45:12.000Z</time>
      </trkpt>
      <trkpt lat="44.3847" lon="6.35439">
        <ele>1372.8000488281</ele>
        <time>2016-07-11T09:45:16.000Z</time>
      </trkpt>
      <trkpt lat="44.38472" lon="6.35439">
        <ele>1372.8000488281</ele>
        <time>2016-07-11T09:45:20.000Z</time>
      </trkpt>
      <trkpt lat="44.38475" lon="6.35441">
        <ele>1373.1999511719</ele>
        <time>2016-07-11T09:45:26.000Z</time>
      </trkpt>
      <trkpt lat="44.38475" lon="6.35442">
        <ele>1373.1999511719</ele>
        <time>2016-07-11T09:45:32.000Z</time>
      </trkpt>
      <trkpt lat="44.38476" lon="6.35442">
        <ele>1373.4000244141</ele>
        <time>2016-07-11T09:45:36.000Z</time>
      </trkpt>
      <trkpt lat="44.38478" lon="6.35444">
        <ele>1373.5999755859</ele>
        <time>2016-07-11T09:45:38.000Z</time>
      </trkpt>
      <trkpt lat="44.3848" lon="6.35443">
        <ele>1373.5999755859</ele>
        <time>2016-07-11T09:45:40.000Z</time>
      </trkpt>
      <trkpt lat="44.38484" lon="6.35446">
        <ele>1374.1999511719</ele>
        <time>2016-07-11T09:45:46.000Z</time>
      </trkpt>
      <trkpt lat="44.3849" lon="6.35449">
        <ele>1374.8000488281</ele>
        <time>2016-07-11T09:45:53.000Z</time>
      </trkpt>
      <trkpt lat="44.38493" lon="6.35453">
        <ele>1375.1999511719</ele>
        <time>2016-07-11T09:45:58.000Z</time>
      </trkpt>
      <trkpt lat="44.38498" lon="6.35457">
        <ele>1376</ele>
        <time>2016-07-11T09:46:04.000Z</time>
      </trkpt>
      <trkpt lat="44.38507" lon="6.35458">
        <ele>1376.4000244141</ele>
        <time>2016-07-11T09:46:10.000Z</time>
      </trkpt>
      <trkpt lat="44.38514" lon="6.35457">
        <ele>1376.1999511719</ele>
        <time>2016-07-11T09:46:16.000Z</time>
      </trkpt>
      <trkpt lat="44.38523" lon="6.35457">
        <ele>1376.1999511719</ele>
        <time>2016-07-11T09:46:23.000Z</time>
      </trkpt>
      <trkpt lat="44.38526" lon="6.35457">
        <ele>1376</ele>
        <time>2016-07-11T09:46:26.000Z</time>
      </trkpt>
      <trkpt lat="44.38529" lon="6.35453">
        <ele>1375.4000244141</ele>
        <time>2016-07-11T09:46:30.000Z</time>
      </trkpt>
      <trkpt lat="44.38536" lon="6.35451">
        <ele>1375</ele>
        <time>2016-07-11T09:46:35.000Z</time>
      </trkpt>
      <trkpt lat="44.38548" lon="6.35453">
        <ele>1375.4000244141</ele>
        <time>2016-07-11T09:46:43.000Z</time>
      </trkpt>
      <trkpt lat="44.38558" lon="6.35452">
        <ele>1375.5999755859</ele>
        <time>2016-07-11T09:46:51.000Z</time>
      </trkpt>
      <trkpt lat="44.38566" lon="6.35449">
        <ele>1375.1999511719</ele>
        <time>2016-07-11T09:46:57.000Z</time>
      </trkpt>
      <trkpt lat="44.38568" lon="6.35449">
        <ele>1375</ele>
        <time>2016-07-11T09:46:59.000Z</time>
      </trkpt>
      <trkpt lat="44.38574" lon="6.35445">
        <ele>1374.5999755859</ele>
        <time>2016-07-11T09:47:03.000Z</time>
      </trkpt>
      <trkpt lat="44.38581" lon="6.35443">
        <ele>1374.1999511719</ele>
        <time>2016-07-11T09:47:08.000Z</time>
      </trkpt>
      <trkpt lat="44.38591" lon="6.3544">
        <ele>1373.1999511719</ele>
        <time>2016-07-11T09:47:17.000Z</time>
      </trkpt>
      <trkpt lat="44.38596" lon="6.35439">
        <ele>1372.8000488281</ele>
        <time>2016-07-11T09:47:21.000Z</time>
      </trkpt>
      <trkpt lat="44.38604" lon="6.35436">
        <ele>1372.1999511719</ele>
        <time>2016-07-11T09:47:28.000Z</time>
      </trkpt>
      <trkpt lat="44.38607" lon="6.35435">
        <ele>1371.8000488281</ele>
        <time>2016-07-11T09:47:32.000Z</time>
      </trkpt>
      <trkpt lat="44.38608" lon="6.35434">
        <ele>1371.5999755859</ele>
        <time>2016-07-11T09:47:33.000Z</time>
      </trkpt>
      <trkpt lat="44.38609" lon="6.35433">
        <ele>1371.4000244141</ele>
        <time>2016-07-11T09:47:34.000Z</time>
      </trkpt>
      <trkpt lat="44.38612" lon="6.35431">
        <ele>1371</ele>
        <time>2016-07-11T09:47:37.000Z</time>
      </trkpt>
      <trkpt lat="44.38616" lon="6.35429">
        <ele>1370.5999755859</ele>
        <time>2016-07-11T09:47:41.000Z</time>
      </trkpt>
      <trkpt lat="44.38618" lon="6.35429">
        <ele>1370.8000488281</ele>
        <time>2016-07-11T09:47:43.000Z</time>
      </trkpt>
      <trkpt lat="44.38621" lon="6.35427">
        <ele>1370.8000488281</ele>
        <time>2016-07-11T09:47:51.000Z</time>
      </trkpt>
      <trkpt lat="44.38627" lon="6.35424">
        <ele>1371</ele>
        <time>2016-07-11T09:47:56.000Z</time>
      </trkpt>
      <trkpt lat="44.38632" lon="6.35422">
        <ele>1371.1999511719</ele>
        <time>2016-07-11T09:48:00.000Z</time>
      </trkpt>
      <trkpt lat="44.38639" lon="6.3542">
        <ele>1371.5999755859</ele>
        <time>2016-07-11T09:48:05.000Z</time>
      </trkpt>
      <trkpt lat="44.38646" lon="6.35418">
        <ele>1371.5999755859</ele>
        <time>2016-07-11T09:48:11.000Z</time>
      </trkpt>
      <trkpt lat="44.38649" lon="6.35417">
        <ele>1371.5999755859</ele>
        <time>2016-07-11T09:48:13.000Z</time>
      </trkpt>
      <trkpt lat="44.38653" lon="6.35413">
        <ele>1371</ele>
        <time>2016-07-11T09:48:19.000Z</time>
      </trkpt>
      <trkpt lat="44.38653" lon="6.35414">
        <ele>1371</ele>
        <time>2016-07-11T09:48:24.000Z</time>
      </trkpt>
      <trkpt lat="44.38653" lon="6.3541">
        <ele>1370.1999511719</ele>
        <time>2016-07-11T09:48:31.000Z</time>
      </trkpt>
      <trkpt lat="44.38654" lon="6.35409">
        <ele>1369.8000488281</ele>
        <time>2016-07-11T09:48:36.000Z</time>
      </trkpt>
      <trkpt lat="44.38662" lon="6.35412">
        <ele>1371.4000244141</ele>
        <time>2016-07-11T09:48:44.000Z</time>
      </trkpt>
      <trkpt lat="44.3866" lon="6.35413">
        <ele>1371.1999511719</ele>
        <time>2016-07-11T09:48:48.000Z</time>
      </trkpt>
      <trkpt lat="44.38657" lon="6.35412">
        <ele>1370.8000488281</ele>
        <time>2016-07-11T09:48:54.000Z</time>
      </trkpt>
      <trkpt lat="44.38658" lon="6.35411">
        <ele>1370.5999755859</ele>
        <time>2016-07-11T09:49:57.000Z</time>
      </trkpt>
      <trkpt lat="44.38659" lon="6.35411">
        <ele>1370.5999755859</ele>
        <time>2016-07-11T09:50:06.000Z</time>
      </trkpt>
      <trkpt lat="44.38659" lon="6.3541">
        <ele>1370.5999755859</ele>
        <time>2016-07-11T09:50:14.000Z</time>
      </trkpt>
      <trkpt lat="44.38666" lon="6.35409">
        <ele>1370.8000488281</ele>
        <time>2016-07-11T09:50:20.000Z</time>
      </trkpt>
      <trkpt lat="44.38667" lon="6.35409">
        <ele>1370.8000488281</ele>
        <time>2016-07-11T09:50:21.000Z</time>
      </trkpt>
      <trkpt lat="44.38676" lon="6.35401">
        <ele>1369.4000244141</ele>
        <time>2016-07-11T09:50:30.000Z</time>
      </trkpt>
      <trkpt lat="44.38685" lon="6.35396">
        <ele>1369</ele>
        <time>2016-07-11T09:50:38.000Z</time>
      </trkpt>
      <trkpt lat="44.38689" lon="6.35396">
        <ele>1369.4000244141</ele>
        <time>2016-07-11T09:50:41.000Z</time>
      </trkpt>
      <trkpt lat="44.38696" lon="6.35393">
        <ele>1369.8000488281</ele>
        <time>2016-07-11T09:50:47.000Z</time>
      </trkpt>
      <trkpt lat="44.38703" lon="6.35389">
        <ele>1370</ele>
        <time>2016-07-11T09:50:52.000Z</time>
      </trkpt>
      <trkpt lat="44.3871" lon="6.35383">
        <ele>1370.1999511719</ele>
        <time>2016-07-11T09:50:59.000Z</time>
      </trkpt>
      <trkpt lat="44.38712" lon="6.35382">
        <ele>1370.1999511719</ele>
        <time>2016-07-11T09:51:00.000Z</time>
      </trkpt>
      <trkpt lat="44.38718" lon="6.35377">
        <ele>1370.4000244141</ele>
        <time>2016-07-11T09:51:06.000Z</time>
      </trkpt>
      <trkpt lat="44.38731" lon="6.35372">
        <ele>1371</ele>
        <time>2016-07-11T09:51:15.000Z</time>
      </trkpt>
      <trkpt lat="44.38742" lon="6.35366">
        <ele>1371.4000244141</ele>
        <time>2016-07-11T09:51:23.000Z</time>
      </trkpt>
      <trkpt lat="44.38749" lon="6.35362">
        <ele>1371.4000244141</ele>
        <time>2016-07-11T09:51:28.000Z</time>
      </trkpt>
      <trkpt lat="44.38752" lon="6.35361">
        <ele>1371</ele>
        <time>2016-07-11T09:51:30.000Z</time>
      </trkpt>
      <trkpt lat="44.38774" lon="6.35359">
        <ele>1369.8000488281</ele>
        <time>2016-07-11T09:51:47.000Z</time>
      </trkpt>
      <trkpt lat="44.38779" lon="6.35357">
        <ele>1369.4000244141</ele>
        <time>2016-07-11T09:51:51.000Z</time>
      </trkpt>
      <trkpt lat="44.38789" lon="6.35349">
        <ele>1368.8000488281</ele>
        <time>2016-07-11T09:52:00.000Z</time>
      </trkpt>
      <trkpt lat="44.38799" lon="6.35341">
        <ele>1368.5999755859</ele>
        <time>2016-07-11T09:52:07.000Z</time>
      </trkpt>
      <trkpt lat="44.38807" lon="6.35335">
        <ele>1368.4000244141</ele>
        <time>2016-07-11T09:52:14.000Z</time>
      </trkpt>
      <trkpt lat="44.38813" lon="6.35328">
        <ele>1367.8000488281</ele>
        <time>2016-07-11T09:52:20.000Z</time>
      </trkpt>
      <trkpt lat="44.3882" lon="6.35322">
        <ele>1367.4000244141</ele>
        <time>2016-07-11T09:52:26.000Z</time>
      </trkpt>
      <trkpt lat="44.38829" lon="6.35314">
        <ele>1366.8000488281</ele>
        <time>2016-07-11T09:52:34.000Z</time>
      </trkpt>
      <trkpt lat="44.3883" lon="6.35312">
        <ele>1366.5999755859</ele>
        <time>2016-07-11T09:52:35.000Z</time>
      </trkpt>
      <trkpt lat="44.38837" lon="6.35306">
        <ele>1366.1999511719</ele>
        <time>2016-07-11T09:52:43.000Z</time>
      </trkpt>
      <trkpt lat="44.38843" lon="6.35298">
        <ele>1365.8000488281</ele>
        <time>2016-07-11T09:52:50.000Z</time>
      </trkpt>
      <trkpt lat="44.38845" lon="6.35296">
        <ele>1365.5999755859</ele>
        <time>2016-07-11T09:52:52.000Z</time>
      </trkpt>
      <trkpt lat="44.3885" lon="6.3529">
        <ele>1364.8000488281</ele>
        <time>2016-07-11T09:52:57.000Z</time>
      </trkpt>
      <trkpt lat="44.38856" lon="6.35281">
        <ele>1363.5999755859</ele>
        <time>2016-07-11T09:53:04.000Z</time>
      </trkpt>
      <trkpt lat="44.38857" lon="6.3528">
        <ele>1363.5999755859</ele>
        <time>2016-07-11T09:53:05.000Z</time>
      </trkpt>
      <trkpt lat="44.38862" lon="6.35273">
        <ele>1362.5999755859</ele>
        <time>2016-07-11T09:53:12.000Z</time>
      </trkpt>
      <trkpt lat="44.3887" lon="6.3527">
        <ele>1361.8000488281</ele>
        <time>2016-07-11T09:53:19.000Z</time>
      </trkpt>
      <trkpt lat="44.38876" lon="6.35265">
        <ele>1360.8000488281</ele>
        <time>2016-07-11T09:53:25.000Z</time>
      </trkpt>
      <trkpt lat="44.38877" lon="6.35265">
        <ele>1360.5999755859</ele>
        <time>2016-07-11T09:53:26.000Z</time>
      </trkpt>
      <trkpt lat="44.38883" lon="6.35262">
        <ele>1360</ele>
        <time>2016-07-11T09:53:32.000Z</time>
      </trkpt>
      <trkpt lat="44.38886" lon="6.3526">
        <ele>1359.4000244141</ele>
        <time>2016-07-11T09:53:35.000Z</time>
      </trkpt>
      <trkpt lat="44.38896" lon="6.35253">
        <ele>1358.1999511719</ele>
        <time>2016-07-11T09:53:43.000Z</time>
      </trkpt>
      <trkpt lat="44.389" lon="6.35247">
        <ele>1357.4000244141</ele>
        <time>2016-07-11T09:53:48.000Z</time>
      </trkpt>
      <trkpt lat="44.38907" lon="6.35235">
        <ele>1355.4000244141</ele>
        <time>2016-07-11T09:55:55.000Z</time>
      </trkpt>
      <trkpt lat="44.38908" lon="6.35235">
        <ele>1355.5999755859</ele>
        <time>2016-07-11T09:56:13.000Z</time>
      </trkpt>
      <trkpt lat="44.3891" lon="6.35236">
        <ele>1355.5999755859</ele>
        <time>2016-07-11T09:56:19.000Z</time>
      </trkpt>
      <trkpt lat="44.38909" lon="6.35237">
        <ele>1355.8000488281</ele>
        <time>2016-07-11T09:56:23.000Z</time>
      </trkpt>
      <trkpt lat="44.38911" lon="6.35239">
        <ele>1356</ele>
        <time>2016-07-11T09:56:28.000Z</time>
      </trkpt>
      <trkpt lat="44.38911" lon="6.3524">
        <ele>1356.1999511719</ele>
        <time>2016-07-11T09:56:34.000Z</time>
      </trkpt>
      <trkpt lat="44.38911" lon="6.35241">
        <ele>1356.1999511719</ele>
        <time>2016-07-11T09:56:39.000Z</time>
      </trkpt>
      <trkpt lat="44.38914" lon="6.35248">
        <ele>1357.1999511719</ele>
        <time>2016-07-11T09:56:49.000Z</time>
      </trkpt>
      <trkpt lat="44.38919" lon="6.35253">
        <ele>1357.5999755859</ele>
        <time>2016-07-11T09:56:54.000Z</time>
      </trkpt>
      <trkpt lat="44.38928" lon="6.35262">
        <ele>1358.5999755859</ele>
        <time>2016-07-11T09:57:03.000Z</time>
      </trkpt>
      <trkpt lat="44.38933" lon="6.35267">
        <ele>1359</ele>
        <time>2016-07-11T09:57:09.000Z</time>
      </trkpt>
      <trkpt lat="44.38935" lon="6.35269">
        <ele>1359.4000244141</ele>
        <time>2016-07-11T09:57:11.000Z</time>
      </trkpt>
      <trkpt lat="44.38937" lon="6.35274">
        <ele>1360</ele>
        <time>2016-07-11T09:57:16.000Z</time>
      </trkpt>
      <trkpt lat="44.38938" lon="6.35276">
        <ele>1360.1999511719</ele>
        <time>2016-07-11T09:57:17.000Z</time>
      </trkpt>
      <trkpt lat="44.38943" lon="6.35285">
        <ele>1361.1999511719</ele>
        <time>2016-07-11T09:57:24.000Z</time>
      </trkpt>
      <trkpt lat="44.38944" lon="6.35286">
        <ele>1361.4000244141</ele>
        <time>2016-07-11T09:57:25.000Z</time>
      </trkpt>
      <trkpt lat="44.3895" lon="6.35293">
        <ele>1362.1999511719</ele>
        <time>2016-07-11T09:57:32.000Z</time>
      </trkpt>
      <trkpt lat="44.38952" lon="6.35296">
        <ele>1362.5999755859</ele>
        <time>2016-07-11T09:57:35.000Z</time>
      </trkpt>
      <trkpt lat="44.38956" lon="6.35304">
        <ele>1363.5999755859</ele>
        <time>2016-07-11T09:57:42.000Z</time>
      </trkpt>
      <trkpt lat="44.38957" lon="6.35307">
        <ele>1364</ele>
        <time>2016-07-11T09:57:53.000Z</time>
      </trkpt>
      <trkpt lat="44.38958" lon="6.35315">
        <ele>1365.1999511719</ele>
        <time>2016-07-11T09:57:59.000Z</time>
      </trkpt>
      <trkpt lat="44.3896" lon="6.35322">
        <ele>1366.5999755859</ele>
        <time>2016-07-11T09:58:04.000Z</time>
      </trkpt>
      <trkpt lat="44.38962" lon="6.35331">
        <ele>1368.1999511719</ele>
        <time>2016-07-11T09:58:11.000Z</time>
      </trkpt>
      <trkpt lat="44.38963" lon="6.35332">
        <ele>1368.5999755859</ele>
        <time>2016-07-11T09:58:12.000Z</time>
      </trkpt>
      <trkpt lat="44.38963" lon="6.35341">
        <ele>1370</ele>
        <time>2016-07-11T09:58:19.000Z</time>
      </trkpt>
      <trkpt lat="44.38964" lon="6.35343">
        <ele>1370.4000244141</ele>
        <time>2016-07-11T09:58:20.000Z</time>
      </trkpt>
      <trkpt lat="44.38964" lon="6.35346">
        <ele>1371</ele>
        <time>2016-07-11T09:58:23.000Z</time>
      </trkpt>
      <trkpt lat="44.38966" lon="6.35353">
        <ele>1372.1999511719</ele>
        <time>2016-07-11T09:58:29.000Z</time>
      </trkpt>
      <trkpt lat="44.38967" lon="6.35358">
        <ele>1373</ele>
        <time>2016-07-11T09:58:34.000Z</time>
      </trkpt>
      <trkpt lat="44.38967" lon="6.35362">
        <ele>1373.8000488281</ele>
        <time>2016-07-11T09:58:37.000Z</time>
      </trkpt>
      <trkpt lat="44.38969" lon="6.35371">
        <ele>1375.4000244141</ele>
        <time>2016-07-11T09:58:44.000Z</time>
      </trkpt>
      <trkpt lat="44.3897" lon="6.35378">
        <ele>1376.5999755859</ele>
        <time>2016-07-11T09:58:49.000Z</time>
      </trkpt>
      <trkpt lat="44.38976" lon="6.35385">
        <ele>1378</ele>
        <time>2016-07-11T09:58:57.000Z</time>
      </trkpt>
      <trkpt lat="44.38977" lon="6.35386">
        <ele>1378.1999511719</ele>
        <time>2016-07-11T09:58:58.000Z</time>
      </trkpt>
      <trkpt lat="44.3898" lon="6.3539">
        <ele>1378.8000488281</ele>
        <time>2016-07-11T09:59:02.000Z</time>
      </trkpt>
      <trkpt lat="44.38987" lon="6.35392">
        <ele>1379.4000244141</ele>
        <time>2016-07-11T09:59:10.000Z</time>
      </trkpt>
      <trkpt lat="44.38989" lon="6.35394">
        <ele>1380</ele>
        <time>2016-07-11T09:59:15.000Z</time>
      </trkpt>
      <trkpt lat="44.38993" lon="6.35399">
        <ele>1381</ele>
        <time>2016-07-11T09:59:35.000Z</time>
      </trkpt>
      <trkpt lat="44.39003" lon="6.35404">
        <ele>1382.4000244141</ele>
        <time>2016-07-11T09:59:42.000Z</time>
      </trkpt>
      <trkpt lat="44.3901" lon="6.35406">
        <ele>1383</ele>
        <time>2016-07-11T09:59:47.000Z</time>
      </trkpt>
      <trkpt lat="44.39018" lon="6.35412">
        <ele>1384.4000244141</ele>
        <time>2016-07-11T09:59:56.000Z</time>
      </trkpt>
      <trkpt lat="44.39021" lon="6.35415">
        <ele>1385.1999511719</ele>
        <time>2016-07-11T09:59:59.000Z</time>
      </trkpt>
      <trkpt lat="44.39022" lon="6.35415">
        <ele>1385.1999511719</ele>
        <time>2016-07-11T10:00:00.000Z</time>
      </trkpt>
      <trkpt lat="44.39026" lon="6.35425">
        <ele>1387.4000244141</ele>
        <time>2016-07-11T10:00:06.000Z</time>
      </trkpt>
      <trkpt lat="44.39026" lon="6.35435">
        <ele>1389.4000244141</ele>
        <time>2016-07-11T10:00:11.000Z</time>
      </trkpt>
      <trkpt lat="44.39026" lon="6.35446">
        <ele>1391.5999755859</ele>
        <time>2016-07-11T10:00:18.000Z</time>
      </trkpt>
      <trkpt lat="44.39023" lon="6.35456">
        <ele>1393.5999755859</ele>
        <time>2016-07-11T10:00:26.000Z</time>
      </trkpt>
      <trkpt lat="44.39023" lon="6.35457">
        <ele>1393.8000488281</ele>
        <time>2016-07-11T10:00:27.000Z</time>
      </trkpt>
      <trkpt lat="44.39022" lon="6.3547">
        <ele>1396.4000244141</ele>
        <time>2016-07-11T10:00:34.000Z</time>
      </trkpt>
      <trkpt lat="44.39022" lon="6.35471">
        <ele>1396.5999755859</ele>
        <time>2016-07-11T10:00:35.000Z</time>
      </trkpt>
      <trkpt lat="44.39023" lon="6.35485">
        <ele>1399.4000244141</ele>
        <time>2016-07-11T10:00:43.000Z</time>
      </trkpt>
      <trkpt lat="44.39025" lon="6.35496">
        <ele>1401.5999755859</ele>
        <time>2016-07-11T10:00:49.000Z</time>
      </trkpt>
      <trkpt lat="44.39026" lon="6.35505">
        <ele>1403.1999511719</ele>
        <time>2016-07-11T10:00:53.000Z</time>
      </trkpt>
      <trkpt lat="44.39029" lon="6.35512">
        <ele>1404.8000488281</ele>
        <time>2016-07-11T10:00:58.000Z</time>
      </trkpt>
      <trkpt lat="44.39029" lon="6.35519">
        <ele>1406.1999511719</ele>
        <time>2016-07-11T10:01:02.000Z</time>
      </trkpt>
      <trkpt lat="44.3903" lon="6.35523">
        <ele>1407</ele>
        <time>2016-07-11T10:01:06.000Z</time>
      </trkpt>
      <trkpt lat="44.3903" lon="6.35527">
        <ele>1407.8000488281</ele>
        <time>2016-07-11T10:01:08.000Z</time>
      </trkpt>
      <trkpt lat="44.39031" lon="6.35531">
        <ele>1408.5999755859</ele>
        <time>2016-07-11T10:01:10.000Z</time>
      </trkpt>
      <trkpt lat="44.39033" lon="6.35536">
        <ele>1409.5999755859</ele>
        <time>2016-07-11T10:01:14.000Z</time>
      </trkpt>
      <trkpt lat="44.39033" lon="6.35538">
        <ele>1410.1999511719</ele>
        <time>2016-07-11T10:01:16.000Z</time>
      </trkpt>
      <trkpt lat="44.39034" lon="6.35546">
        <ele>1411.8000488281</ele>
        <time>2016-07-11T10:01:20.000Z</time>
      </trkpt>
      <trkpt lat="44.39034" lon="6.35549">
        <ele>1412.4000244141</ele>
        <time>2016-07-11T10:01:22.000Z</time>
      </trkpt>
      <trkpt lat="44.39035" lon="6.35555">
        <ele>1413.5999755859</ele>
        <time>2016-07-11T10:01:26.000Z</time>
      </trkpt>
      <trkpt lat="44.39037" lon="6.3556">
        <ele>1414.8000488281</ele>
        <time>2016-07-11T10:01:36.000Z</time>
      </trkpt>
      <trkpt lat="44.39039" lon="6.35565">
        <ele>1415.8000488281</ele>
        <time>2016-07-11T10:01:51.000Z</time>
      </trkpt>
      <trkpt lat="44.39043" lon="6.35575">
        <ele>1418</ele>
        <time>2016-07-11T10:02:38.000Z</time>
      </trkpt>
      <trkpt lat="44.39043" lon="6.35573">
        <ele>1417.8000488281</ele>
        <time>2016-07-11T10:02:45.000Z</time>
      </trkpt>
      <trkpt lat="44.39043" lon="6.35577">
        <ele>1418.4000244141</ele>
        <time>2016-07-11T10:03:35.000Z</time>
      </trkpt>
      <trkpt lat="44.39044" lon="6.35579">
        <ele>1418.8000488281</ele>
        <time>2016-07-11T10:03:40.000Z</time>
      </trkpt>
      <trkpt lat="44.39046" lon="6.35581">
        <ele>1419.1999511719</ele>
        <time>2016-07-11T10:03:48.000Z</time>
      </trkpt>
      <trkpt lat="44.39047" lon="6.35582">
        <ele>1419.5999755859</ele>
        <time>2016-07-11T10:03:53.000Z</time>
      </trkpt>
      <trkpt lat="44.39049" lon="6.35583">
        <ele>1420</ele>
        <time>2016-07-11T10:03:58.000Z</time>
      </trkpt>
      <trkpt lat="44.3905" lon="6.35585">
        <ele>1420.4000244141</ele>
        <time>2016-07-11T10:04:02.000Z</time>
      </trkpt>
      <trkpt lat="44.39051" lon="6.35589">
        <ele>1421.1999511719</ele>
        <time>2016-07-11T10:04:07.000Z</time>
      </trkpt>
      <trkpt lat="44.39054" lon="6.35593">
        <ele>1422.1999511719</ele>
        <time>2016-07-11T10:04:12.000Z</time>
      </trkpt>
      <trkpt lat="44.39056" lon="6.35597">
        <ele>1423</ele>
        <time>2016-07-11T10:04:17.000Z</time>
      </trkpt>
      <trkpt lat="44.39057" lon="6.356">
        <ele>1423.5999755859</ele>
        <time>2016-07-11T10:04:19.000Z</time>
      </trkpt>
      <trkpt lat="44.39056" lon="6.35605">
        <ele>1424.4000244141</ele>
        <time>2016-07-11T10:04:25.000Z</time>
      </trkpt>
      <trkpt lat="44.39058" lon="6.35607">
        <ele>1425</ele>
        <time>2016-07-11T10:04:29.000Z</time>
      </trkpt>
      <trkpt lat="44.39061" lon="6.35609">
        <ele>1425.4000244141</ele>
        <time>2016-07-11T10:04:34.000Z</time>
      </trkpt>
      <trkpt lat="44.39063" lon="6.3561">
        <ele>1426</ele>
        <time>2016-07-11T10:04:41.000Z</time>
      </trkpt>
      <trkpt lat="44.39066" lon="6.35611">
        <ele>1426.4000244141</ele>
        <time>2016-07-11T10:05:24.000Z</time>
      </trkpt>
      <trkpt lat="44.39066" lon="6.3561">
        <ele>1426.4000244141</ele>
        <time>2016-07-11T10:05:30.000Z</time>
      </trkpt>
      <trkpt lat="44.39069" lon="6.35611">
        <ele>1426.8000488281</ele>
        <time>2016-07-11T10:05:35.000Z</time>
      </trkpt>
      <trkpt lat="44.39075" lon="6.35612">
        <ele>1427.5999755859</ele>
        <time>2016-07-11T10:05:41.000Z</time>
      </trkpt>
      <trkpt lat="44.39081" lon="6.35612">
        <ele>1428.4000244141</ele>
        <time>2016-07-11T10:05:47.000Z</time>
      </trkpt>
      <trkpt lat="44.39082" lon="6.35612">
        <ele>1428.4000244141</ele>
        <time>2016-07-11T10:05:48.000Z</time>
      </trkpt>
      <trkpt lat="44.3909" lon="6.3561">
        <ele>1428.8000488281</ele>
        <time>2016-07-11T10:05:55.000Z</time>
      </trkpt>
      <trkpt lat="44.39095" lon="6.3561">
        <ele>1429.1999511719</ele>
        <time>2016-07-11T10:05:59.000Z</time>
      </trkpt>
      <trkpt lat="44.39102" lon="6.35609">
        <ele>1429.8000488281</ele>
        <time>2016-07-11T10:06:05.000Z</time>
      </trkpt>
      <trkpt lat="44.39108" lon="6.35609">
        <ele>1430.1999511719</ele>
        <time>2016-07-11T10:06:10.000Z</time>
      </trkpt>
      <trkpt lat="44.39115" lon="6.3561">
        <ele>1431.1999511719</ele>
        <time>2016-07-11T10:06:16.000Z</time>
      </trkpt>
      <trkpt lat="44.39116" lon="6.3561">
        <ele>1431.4000244141</ele>
        <time>2016-07-11T10:06:17.000Z</time>
      </trkpt>
      <trkpt lat="44.39122" lon="6.35611">
        <ele>1432.1999511719</ele>
        <time>2016-07-11T10:06:21.000Z</time>
      </trkpt>
      <trkpt lat="44.39125" lon="6.35611">
        <ele>1432.8000488281</ele>
        <time>2016-07-11T10:06:26.000Z</time>
      </trkpt>
      <trkpt lat="44.39127" lon="6.35609">
        <ele>1432.8000488281</ele>
        <time>2016-07-11T10:06:37.000Z</time>
      </trkpt>
      <trkpt lat="44.39133" lon="6.35611">
        <ele>1433.8000488281</ele>
        <time>2016-07-11T10:06:58.000Z</time>
      </trkpt>
      <trkpt lat="44.3914" lon="6.35609">
        <ele>1434.1999511719</ele>
        <time>2016-07-11T10:07:04.000Z</time>
      </trkpt>
      <trkpt lat="44.39148" lon="6.35606">
        <ele>1435</ele>
        <time>2016-07-11T10:07:11.000Z</time>
      </trkpt>
      <trkpt lat="44.39158" lon="6.35606">
        <ele>1436.1999511719</ele>
        <time>2016-07-11T10:07:19.000Z</time>
      </trkpt>
      <trkpt lat="44.39167" lon="6.35608">
        <ele>1437.5999755859</ele>
        <time>2016-07-11T10:07:26.000Z</time>
      </trkpt>
      <trkpt lat="44.39178" lon="6.3561">
        <ele>1439.1999511719</ele>
        <time>2016-07-11T10:07:35.000Z</time>
      </trkpt>
      <trkpt lat="44.39189" lon="6.35611">
        <ele>1440.4000244141</ele>
        <time>2016-07-11T10:07:43.000Z</time>
      </trkpt>
      <trkpt lat="44.39201" lon="6.3561">
        <ele>1441.5999755859</ele>
        <time>2016-07-11T10:07:53.000Z</time>
      </trkpt>
      <trkpt lat="44.39208" lon="6.35609">
        <ele>1442.1999511719</ele>
        <time>2016-07-11T10:08:01.000Z</time>
      </trkpt>
      <trkpt lat="44.3921" lon="6.35609">
        <ele>1442.4000244141</ele>
        <time>2016-07-11T10:08:07.000Z</time>
      </trkpt>
      <trkpt lat="44.39214" lon="6.35608">
        <ele>1442.8000488281</ele>
        <time>2016-07-11T10:08:13.000Z</time>
      </trkpt>
      <trkpt lat="44.39217" lon="6.35607">
        <ele>1443</ele>
        <time>2016-07-11T10:08:18.000Z</time>
      </trkpt>
      <trkpt lat="44.39218" lon="6.35607">
        <ele>1443.1999511719</ele>
        <time>2016-07-11T10:08:19.000Z</time>
      </trkpt>
      <trkpt lat="44.39219" lon="6.35608">
        <ele>1443.4000244141</ele>
        <time>2016-07-11T10:08:20.000Z</time>
      </trkpt>
      <trkpt lat="44.39221" lon="6.35614">
        <ele>1444.8000488281</ele>
        <time>2016-07-11T10:08:24.000Z</time>
      </trkpt>
      <trkpt lat="44.39221" lon="6.35619">
        <ele>1446</ele>
        <time>2016-07-11T10:08:31.000Z</time>
      </trkpt>
      <trkpt lat="44.39221" lon="6.35617">
        <ele>1445.5999755859</ele>
        <time>2016-07-11T10:08:37.000Z</time>
      </trkpt>
      <trkpt lat="44.39224" lon="6.35619">
        <ele>1446.1999511719</ele>
        <time>2016-07-11T10:08:47.000Z</time>
      </trkpt>
      <trkpt lat="44.39223" lon="6.35619">
        <ele>1446</ele>
        <time>2016-07-11T10:08:55.000Z</time>
      </trkpt>
      <trkpt lat="44.39223" lon="6.35618">
        <ele>1445.8000488281</ele>
        <time>2016-07-11T10:09:02.000Z</time>
      </trkpt>
      <trkpt lat="44.39225" lon="6.35619">
        <ele>1446.4000244141</ele>
        <time>2016-07-11T10:09:12.000Z</time>
      </trkpt>
      <trkpt lat="44.39224" lon="6.35617">
        <ele>1445.8000488281</ele>
        <time>2016-07-11T10:09:25.000Z</time>
      </trkpt>
      <trkpt lat="44.39226" lon="6.35622">
        <ele>1447.1999511719</ele>
        <time>2016-07-11T10:09:42.000Z</time>
      </trkpt>
      <trkpt lat="44.39228" lon="6.35627">
        <ele>1448.4000244141</ele>
        <time>2016-07-11T10:09:48.000Z</time>
      </trkpt>
      <trkpt lat="44.39229" lon="6.35632">
        <ele>1449.5999755859</ele>
        <time>2016-07-11T10:09:53.000Z</time>
      </trkpt>
      <trkpt lat="44.39228" lon="6.35637">
        <ele>1450.5999755859</ele>
        <time>2016-07-11T10:09:57.000Z</time>
      </trkpt>
      <trkpt lat="44.39229" lon="6.35643">
        <ele>1451.8000488281</ele>
        <time>2016-07-11T10:10:02.000Z</time>
      </trkpt>
      <trkpt lat="44.39228" lon="6.35647">
        <ele>1452.5999755859</ele>
        <time>2016-07-11T10:10:05.000Z</time>
      </trkpt>
      <trkpt lat="44.39229" lon="6.35654">
        <ele>1454.1999511719</ele>
        <time>2016-07-11T10:10:09.000Z</time>
      </trkpt>
      <trkpt lat="44.39227" lon="6.35662">
        <ele>1456</ele>
        <time>2016-07-11T10:10:14.000Z</time>
      </trkpt>
      <trkpt lat="44.39227" lon="6.35667">
        <ele>1457.1999511719</ele>
        <time>2016-07-11T10:10:18.000Z</time>
      </trkpt>
      <trkpt lat="44.39228" lon="6.3567">
        <ele>1458</ele>
        <time>2016-07-11T10:10:20.000Z</time>
      </trkpt>
      <trkpt lat="44.3923" lon="6.35677">
        <ele>1459.8000488281</ele>
        <time>2016-07-11T10:10:25.000Z</time>
      </trkpt>
      <trkpt lat="44.39234" lon="6.35681">
        <ele>1461.4000244141</ele>
        <time>2016-07-11T10:10:31.000Z</time>
      </trkpt>
      <trkpt lat="44.39235" lon="6.35681">
        <ele>1461.5999755859</ele>
        <time>2016-07-11T10:10:32.000Z</time>
      </trkpt>
      <trkpt lat="44.39236" lon="6.35683">
        <ele>1462</ele>
        <time>2016-07-11T10:10:34.000Z</time>
      </trkpt>
      <trkpt lat="44.39238" lon="6.35684">
        <ele>1462.4000244141</ele>
        <time>2016-07-11T10:10:36.000Z</time>
      </trkpt>
      <trkpt lat="44.39239" lon="6.35686">
        <ele>1463.1999511719</ele>
        <time>2016-07-11T10:10:39.000Z</time>
      </trkpt>
      <trkpt lat="44.39242" lon="6.35688">
        <ele>1464</ele>
        <time>2016-07-11T10:10:43.000Z</time>
      </trkpt>
      <trkpt lat="44.39245" lon="6.35692">
        <ele>1465.1999511719</ele>
        <time>2016-07-11T10:10:47.000Z</time>
      </trkpt>
      <trkpt lat="44.39246" lon="6.35694">
        <ele>1465.8000488281</ele>
        <time>2016-07-11T10:10:49.000Z</time>
      </trkpt>
      <trkpt lat="44.39246" lon="6.35695">
        <ele>1466</ele>
        <time>2016-07-11T10:10:53.000Z</time>
      </trkpt>
      <trkpt lat="44.39249" lon="6.35699">
        <ele>1467.4000244141</ele>
        <time>2016-07-11T10:11:03.000Z</time>
      </trkpt>
      <trkpt lat="44.3925" lon="6.357">
        <ele>1467.8000488281</ele>
        <time>2016-07-11T10:11:04.000Z</time>
      </trkpt>
      <trkpt lat="44.39252" lon="6.35705">
        <ele>1469.4000244141</ele>
        <time>2016-07-11T10:11:09.000Z</time>
      </trkpt>
      <trkpt lat="44.39254" lon="6.35708">
        <ele>1470.1999511719</ele>
        <time>2016-07-11T10:11:12.000Z</time>
      </trkpt>
      <trkpt lat="44.39256" lon="6.35712">
        <ele>1471.4000244141</ele>
        <time>2016-07-11T10:11:16.000Z</time>
      </trkpt>
      <trkpt lat="44.39261" lon="6.35717">
        <ele>1473.1999511719</ele>
        <time>2016-07-11T10:11:21.000Z</time>
      </trkpt>
      <trkpt lat="44.39263" lon="6.35729">
        <ele>1476.4000244141</ele>
        <time>2016-07-11T10:11:28.000Z</time>
      </trkpt>
      <trkpt lat="44.39264" lon="6.35734">
        <ele>1477.8000488281</ele>
        <time>2016-07-11T10:11:31.000Z</time>
      </trkpt>
      <trkpt lat="44.39265" lon="6.35737">
        <ele>1478.4000244141</ele>
        <time>2016-07-11T10:11:33.000Z</time>
      </trkpt>
      <trkpt lat="44.3927" lon="6.35744">
        <ele>1480</ele>
        <time>2016-07-11T10:11:38.000Z</time>
      </trkpt>
      <trkpt lat="44.39275" lon="6.35752">
        <ele>1482.1999511719</ele>
        <time>2016-07-11T10:11:45.000Z</time>
      </trkpt>
      <trkpt lat="44.39275" lon="6.35755">
        <ele>1482.5999755859</ele>
        <time>2016-07-11T10:11:47.000Z</time>
      </trkpt>
      <trkpt lat="44.39279" lon="6.35762">
        <ele>1484.4000244141</ele>
        <time>2016-07-11T10:11:53.000Z</time>
      </trkpt>
      <trkpt lat="44.39282" lon="6.35772">
        <ele>1486.1999511719</ele>
        <time>2016-07-11T10:11:59.000Z</time>
      </trkpt>
      <trkpt lat="44.39282" lon="6.35784">
        <ele>1488.4000244141</ele>
        <time>2016-07-11T10:12:03.000Z</time>
      </trkpt>
      <trkpt lat="44.39282" lon="6.3579">
        <ele>1489.5999755859</ele>
        <time>2016-07-11T10:12:06.000Z</time>
      </trkpt>
      <trkpt lat="44.39282" lon="6.35791">
        <ele>1489.8000488281</ele>
        <time>2016-07-11T10:12:07.000Z</time>
      </trkpt>
      <trkpt lat="44.39284" lon="6.35798">
        <ele>1491</ele>
        <time>2016-07-11T10:12:12.000Z</time>
      </trkpt>
      <trkpt lat="44.39291" lon="6.35808">
        <ele>1492.4000244141</ele>
        <time>2016-07-11T10:12:40.000Z</time>
      </trkpt>
      <trkpt lat="44.39292" lon="6.35809">
        <ele>1492.8000488281</ele>
        <time>2016-07-11T10:12:41.000Z</time>
      </trkpt>
      <trkpt lat="44.39293" lon="6.3581">
        <ele>1492.8000488281</ele>
        <time>2016-07-11T10:12:42.000Z</time>
      </trkpt>
      <trkpt lat="44.39295" lon="6.35816">
        <ele>1493.8000488281</ele>
        <time>2016-07-11T10:12:47.000Z</time>
      </trkpt>
      <trkpt lat="44.39296" lon="6.35817">
        <ele>1494.1999511719</ele>
        <time>2016-07-11T10:12:48.000Z</time>
      </trkpt>
      <trkpt lat="44.39298" lon="6.35819">
        <ele>1494.4000244141</ele>
        <time>2016-07-11T10:12:51.000Z</time>
      </trkpt>
      <trkpt lat="44.39301" lon="6.35823">
        <ele>1495.4000244141</ele>
        <time>2016-07-11T10:12:55.000Z</time>
      </trkpt>
      <trkpt lat="44.39303" lon="6.35827">
        <ele>1496.1999511719</ele>
        <time>2016-07-11T10:12:58.000Z</time>
      </trkpt>
      <trkpt lat="44.39306" lon="6.35847">
        <ele>1501</ele>
        <time>2016-07-11T10:13:05.000Z</time>
      </trkpt>
      <trkpt lat="44.39306" lon="6.35849">
        <ele>1501.4000244141</ele>
        <time>2016-07-11T10:13:06.000Z</time>
      </trkpt>
      <trkpt lat="44.39307" lon="6.35854">
        <ele>1502.8000488281</ele>
        <time>2016-07-11T10:13:10.000Z</time>
      </trkpt>
      <trkpt lat="44.39308" lon="6.35859">
        <ele>1503.8000488281</ele>
        <time>2016-07-11T10:13:13.000Z</time>
      </trkpt>
      <trkpt lat="44.39311" lon="6.35869">
        <ele>1506.1999511719</ele>
        <time>2016-07-11T10:13:19.000Z</time>
      </trkpt>
      <trkpt lat="44.39312" lon="6.35871">
        <ele>1506.4000244141</ele>
        <time>2016-07-11T10:13:20.000Z</time>
      </trkpt>
      <trkpt lat="44.39319" lon="6.35882">
        <ele>1509</ele>
        <time>2016-07-11T10:13:29.000Z</time>
      </trkpt>
      <trkpt lat="44.39324" lon="6.35885">
        <ele>1509.5999755859</ele>
        <time>2016-07-11T10:13:33.000Z</time>
      </trkpt>
      <trkpt lat="44.39331" lon="6.35889">
        <ele>1510.1999511719</ele>
        <time>2016-07-11T10:13:40.000Z</time>
      </trkpt>
      <trkpt lat="44.39332" lon="6.3589">
        <ele>1510.4000244141</ele>
        <time>2016-07-11T10:13:41.000Z</time>
      </trkpt>
      <trkpt lat="44.39335" lon="6.35894">
        <ele>1511.1999511719</ele>
        <time>2016-07-11T10:13:45.000Z</time>
      </trkpt>
      <trkpt lat="44.39339" lon="6.35897">
        <ele>1511.8000488281</ele>
        <time>2016-07-11T10:13:51.000Z</time>
      </trkpt>
      <trkpt lat="44.39346" lon="6.35903">
        <ele>1512.8000488281</ele>
        <time>2016-07-11T10:13:58.000Z</time>
      </trkpt>
      <trkpt lat="44.39351" lon="6.3591">
        <ele>1514.4000244141</ele>
        <time>2016-07-11T10:14:03.000Z</time>
      </trkpt>
      <trkpt lat="44.39351" lon="6.35922">
        <ele>1517.4000244141</ele>
        <time>2016-07-11T10:14:10.000Z</time>
      </trkpt>
      <trkpt lat="44.39351" lon="6.35924">
        <ele>1517.8000488281</ele>
        <time>2016-07-11T10:14:11.000Z</time>
      </trkpt>
      <trkpt lat="44.39354" lon="6.35935">
        <ele>1520.4000244141</ele>
        <time>2016-07-11T10:14:18.000Z</time>
      </trkpt>
      <trkpt lat="44.39359" lon="6.35945">
        <ele>1522.5999755859</ele>
        <time>2016-07-11T10:14:25.000Z</time>
      </trkpt>
      <trkpt lat="44.39362" lon="6.35957">
        <ele>1525.1999511719</ele>
        <time>2016-07-11T10:14:33.000Z</time>
      </trkpt>
      <trkpt lat="44.39363" lon="6.35958">
        <ele>1525.4000244141</ele>
        <time>2016-07-11T10:14:34.000Z</time>
      </trkpt>
      <trkpt lat="44.39365" lon="6.35961">
        <ele>1526.1999511719</ele>
        <time>2016-07-11T10:14:37.000Z</time>
      </trkpt>
      <trkpt lat="44.39371" lon="6.35972">
        <ele>1529</ele>
        <time>2016-07-11T10:14:47.000Z</time>
      </trkpt>
      <trkpt lat="44.39373" lon="6.35974">
        <ele>1529.8000488281</ele>
        <time>2016-07-11T10:14:50.000Z</time>
      </trkpt>
      <trkpt lat="44.39375" lon="6.35976">
        <ele>1530.4000244141</ele>
        <time>2016-07-11T10:14:52.000Z</time>
      </trkpt>
      <trkpt lat="44.39381" lon="6.35981">
        <ele>1531.8000488281</ele>
        <time>2016-07-11T10:14:57.000Z</time>
      </trkpt>
      <trkpt lat="44.39384" lon="6.35983">
        <ele>1532.1999511719</ele>
        <time>2016-07-11T10:15:04.000Z</time>
      </trkpt>
      <trkpt lat="44.39386" lon="6.35985">
        <ele>1532.8000488281</ele>
        <time>2016-07-11T10:15:11.000Z</time>
      </trkpt>
      <trkpt lat="44.39388" lon="6.35986">
        <ele>1533</ele>
        <time>2016-07-11T10:15:21.000Z</time>
      </trkpt>
      <trkpt lat="44.39389" lon="6.35988">
        <ele>1533.4000244141</ele>
        <time>2016-07-11T10:15:27.000Z</time>
      </trkpt>
      <trkpt lat="44.39391" lon="6.3599">
        <ele>1533.8000488281</ele>
        <time>2016-07-11T10:16:00.000Z</time>
      </trkpt>
      <trkpt lat="44.39391" lon="6.35989">
        <ele>1533.8000488281</ele>
        <time>2016-07-11T10:16:08.000Z</time>
      </trkpt>
      <trkpt lat="44.3939" lon="6.35992">
        <ele>1534.1999511719</ele>
        <time>2016-07-11T10:16:28.000Z</time>
      </trkpt>
      <trkpt lat="44.39391" lon="6.35991">
        <ele>1534.1999511719</ele>
        <time>2016-07-11T10:16:33.000Z</time>
      </trkpt>
      <trkpt lat="44.3939" lon="6.3599">
        <ele>1534</ele>
        <time>2016-07-11T10:16:40.000Z</time>
      </trkpt>
      <trkpt lat="44.39388" lon="6.35989">
        <ele>1533.5999755859</ele>
        <time>2016-07-11T10:17:03.000Z</time>
      </trkpt>
      <trkpt lat="44.39388" lon="6.35988">
        <ele>1533.5999755859</ele>
        <time>2016-07-11T10:17:07.000Z</time>
      </trkpt>
      <trkpt lat="44.39389" lon="6.35991">
        <ele>1534</ele>
        <time>2016-07-11T10:17:14.000Z</time>
      </trkpt>
      <trkpt lat="44.39391" lon="6.35992">
        <ele>1534.4000244141</ele>
        <time>2016-07-11T10:17:21.000Z</time>
      </trkpt>
      <trkpt lat="44.39391" lon="6.35995">
        <ele>1534.8000488281</ele>
        <time>2016-07-11T10:17:23.000Z</time>
      </trkpt>
      <trkpt lat="44.39389" lon="6.36003">
        <ele>1536.4000244141</ele>
        <time>2016-07-11T10:17:28.000Z</time>
      </trkpt>
      <trkpt lat="44.39391" lon="6.36016">
        <ele>1539</ele>
        <time>2016-07-11T10:17:35.000Z</time>
      </trkpt>
      <trkpt lat="44.39394" lon="6.36022">
        <ele>1540.4000244141</ele>
        <time>2016-07-11T10:17:40.000Z</time>
      </trkpt>
      <trkpt lat="44.39395" lon="6.36025">
        <ele>1541</ele>
        <time>2016-07-11T10:17:42.000Z</time>
      </trkpt>
      <trkpt lat="44.39397" lon="6.36032">
        <ele>1542.4000244141</ele>
        <time>2016-07-11T10:17:46.000Z</time>
      </trkpt>
      <trkpt lat="44.39397" lon="6.36035">
        <ele>1543</ele>
        <time>2016-07-11T10:17:48.000Z</time>
      </trkpt>
      <trkpt lat="44.394" lon="6.36041">
        <ele>1544.5999755859</ele>
        <time>2016-07-11T10:17:52.000Z</time>
      </trkpt>
      <trkpt lat="44.39405" lon="6.36049">
        <ele>1546.4000244141</ele>
        <time>2016-07-11T10:17:58.000Z</time>
      </trkpt>
      <trkpt lat="44.39409" lon="6.36055">
        <ele>1547.5999755859</ele>
        <time>2016-07-11T10:18:02.000Z</time>
      </trkpt>
      <trkpt lat="44.39417" lon="6.36068">
        <ele>1550.4000244141</ele>
        <time>2016-07-11T10:18:12.000Z</time>
      </trkpt>
      <trkpt lat="44.39422" lon="6.36073">
        <ele>1551.1999511719</ele>
        <time>2016-07-11T10:18:17.000Z</time>
      </trkpt>
      <trkpt lat="44.39424" lon="6.36077">
        <ele>1551.8000488281</ele>
        <time>2016-07-11T10:18:20.000Z</time>
      </trkpt>
      <trkpt lat="44.39428" lon="6.36083">
        <ele>1552.8000488281</ele>
        <time>2016-07-11T10:18:26.000Z</time>
      </trkpt>
      <trkpt lat="44.3943" lon="6.36085">
        <ele>1553.1999511719</ele>
        <time>2016-07-11T10:18:32.000Z</time>
      </trkpt>
      <trkpt lat="44.39432" lon="6.36086">
        <ele>1553.4000244141</ele>
        <time>2016-07-11T10:18:38.000Z</time>
      </trkpt>
      <trkpt lat="44.39432" lon="6.36088">
        <ele>1553.5999755859</ele>
        <time>2016-07-11T10:18:43.000Z</time>
      </trkpt>
      <trkpt lat="44.39433" lon="6.3609">
        <ele>1553.8000488281</ele>
        <time>2016-07-11T10:18:49.000Z</time>
      </trkpt>
      <trkpt lat="44.39433" lon="6.36093">
        <ele>1554.1999511719</ele>
        <time>2016-07-11T10:18:55.000Z</time>
      </trkpt>
      <trkpt lat="44.39432" lon="6.36099">
        <ele>1555</ele>
        <time>2016-07-11T10:20:01.000Z</time>
      </trkpt>
      <trkpt lat="44.39434" lon="6.361">
        <ele>1555.1999511719</ele>
        <time>2016-07-11T10:20:09.000Z</time>
      </trkpt>
      <trkpt lat="44.39437" lon="6.361">
        <ele>1555.4000244141</ele>
        <time>2016-07-11T10:20:19.000Z</time>
      </trkpt>
      <trkpt lat="44.3944" lon="6.36096">
        <ele>1555</ele>
        <time>2016-07-11T10:20:23.000Z</time>
      </trkpt>
      <trkpt lat="44.39442" lon="6.36094">
        <ele>1554.5999755859</ele>
        <time>2016-07-11T10:20:25.000Z</time>
      </trkpt>
      <trkpt lat="44.39442" lon="6.36093">
        <ele>1554.5999755859</ele>
        <time>2016-07-11T10:20:26.000Z</time>
      </trkpt>
      <trkpt lat="44.39443" lon="6.36094">
        <ele>1554.5999755859</ele>
        <time>2016-07-11T10:20:39.000Z</time>
      </trkpt>
      <trkpt lat="44.39443" lon="6.36095">
        <ele>1554.8000488281</ele>
        <time>2016-07-11T10:20:50.000Z</time>
      </trkpt>
      <trkpt lat="44.39443" lon="6.36094">
        <ele>1554.8000488281</ele>
        <time>2016-07-11T10:20:54.000Z</time>
      </trkpt>
      <trkpt lat="44.39444" lon="6.36095">
        <ele>1554.8000488281</ele>
        <time>2016-07-11T10:21:07.000Z</time>
      </trkpt>
      <trkpt lat="44.39444" lon="6.36096">
        <ele>1555</ele>
        <time>2016-07-11T10:21:15.000Z</time>
      </trkpt>
      <trkpt lat="44.39443" lon="6.36098">
        <ele>1555.1999511719</ele>
        <time>2016-07-11T10:21:26.000Z</time>
      </trkpt>
      <trkpt lat="44.39443" lon="6.36099">
        <ele>1555.4000244141</ele>
        <time>2016-07-11T10:21:45.000Z</time>
      </trkpt>
      <trkpt lat="44.39446" lon="6.36096">
        <ele>1555.1999511719</ele>
        <time>2016-07-11T10:22:00.000Z</time>
      </trkpt>
      <trkpt lat="44.39447" lon="6.36095">
        <ele>1555</ele>
        <time>2016-07-11T10:22:01.000Z</time>
      </trkpt>
      <trkpt lat="44.3945" lon="6.36086">
        <ele>1554</ele>
        <time>2016-07-11T10:22:08.000Z</time>
      </trkpt>
      <trkpt lat="44.39451" lon="6.36084">
        <ele>1553.8000488281</ele>
        <time>2016-07-11T10:22:09.000Z</time>
      </trkpt>
      <trkpt lat="44.39455" lon="6.36072">
        <ele>1552.4000244141</ele>
        <time>2016-07-11T10:22:16.000Z</time>
      </trkpt>
      <trkpt lat="44.39467" lon="6.36057">
        <ele>1551.4000244141</ele>
        <time>2016-07-11T10:22:26.000Z</time>
      </trkpt>
      <trkpt lat="44.39477" lon="6.36048">
        <ele>1550.5999755859</ele>
        <time>2016-07-11T10:22:34.000Z</time>
      </trkpt>
      <trkpt lat="44.39488" lon="6.36038">
        <ele>1549.8000488281</ele>
        <time>2016-07-11T10:22:43.000Z</time>
      </trkpt>
      <trkpt lat="44.39504" lon="6.36019">
        <ele>1547.1999511719</ele>
        <time>2016-07-11T10:22:57.000Z</time>
      </trkpt>
      <trkpt lat="44.39512" lon="6.36007">
        <ele>1545.1999511719</ele>
        <time>2016-07-11T10:23:05.000Z</time>
      </trkpt>
      <trkpt lat="44.39513" lon="6.36004">
        <ele>1544.5999755859</ele>
        <time>2016-07-11T10:23:07.000Z</time>
      </trkpt>
      <trkpt lat="44.39519" lon="6.35996">
        <ele>1543.4000244141</ele>
        <time>2016-07-11T10:23:13.000Z</time>
      </trkpt>
      <trkpt lat="44.39526" lon="6.35995">
        <ele>1543.5999755859</ele>
        <time>2016-07-11T10:23:19.000Z</time>
      </trkpt>
      <trkpt lat="44.39527" lon="6.35995">
        <ele>1543.5999755859</ele>
        <time>2016-07-11T10:23:20.000Z</time>
      </trkpt>
      <trkpt lat="44.39533" lon="6.35991">
        <ele>1543.4000244141</ele>
        <time>2016-07-11T10:23:27.000Z</time>
      </trkpt>
      <trkpt lat="44.39534" lon="6.35991">
        <ele>1543.4000244141</ele>
        <time>2016-07-11T10:23:28.000Z</time>
      </trkpt>
      <trkpt lat="44.3954" lon="6.35992">
        <ele>1543.8000488281</ele>
        <time>2016-07-11T10:23:33.000Z</time>
      </trkpt>
      <trkpt lat="44.39541" lon="6.35992">
        <ele>1543.8000488281</ele>
        <time>2016-07-11T10:23:34.000Z</time>
      </trkpt>
      <trkpt lat="44.39545" lon="6.3599">
        <ele>1543.4000244141</ele>
        <time>2016-07-11T10:23:37.000Z</time>
      </trkpt>
      <trkpt lat="44.39556" lon="6.35985">
        <ele>1542.1999511719</ele>
        <time>2016-07-11T10:23:46.000Z</time>
      </trkpt>
      <trkpt lat="44.39562" lon="6.35982">
        <ele>1541.8000488281</ele>
        <time>2016-07-11T10:23:52.000Z</time>
      </trkpt>
      <trkpt lat="44.39569" lon="6.3598">
        <ele>1541.4000244141</ele>
        <time>2016-07-11T10:23:57.000Z</time>
      </trkpt>
      <trkpt lat="44.39574" lon="6.35979">
        <ele>1541.1999511719</ele>
        <time>2016-07-11T10:24:01.000Z</time>
      </trkpt>
      <trkpt lat="44.39582" lon="6.35975">
        <ele>1540.8000488281</ele>
        <time>2016-07-11T10:24:08.000Z</time>
      </trkpt>
      <trkpt lat="44.39585" lon="6.35975">
        <ele>1540.8000488281</ele>
        <time>2016-07-11T10:24:10.000Z</time>
      </trkpt>
      <trkpt lat="44.39589" lon="6.35973">
        <ele>1540.5999755859</ele>
        <time>2016-07-11T10:24:14.000Z</time>
      </trkpt>
      <trkpt lat="44.39594" lon="6.35974">
        <ele>1540.8000488281</ele>
        <time>2016-07-11T10:24:20.000Z</time>
      </trkpt>
      <trkpt lat="44.39601" lon="6.35975">
        <ele>1541</ele>
        <time>2016-07-11T10:24:26.000Z</time>
      </trkpt>
      <trkpt lat="44.3961" lon="6.3598">
        <ele>1541.8000488281</ele>
        <time>2016-07-11T10:24:33.000Z</time>
      </trkpt>
      <trkpt lat="44.39616" lon="6.35982">
        <ele>1542.1999511719</ele>
        <time>2016-07-11T10:24:38.000Z</time>
      </trkpt>
      <trkpt lat="44.39618" lon="6.35981">
        <ele>1542</ele>
        <time>2016-07-11T10:24:40.000Z</time>
      </trkpt>
      <trkpt lat="44.39618" lon="6.35977">
        <ele>1541.1999511719</ele>
        <time>2016-07-11T10:24:44.000Z</time>
      </trkpt>
      <trkpt lat="44.39618" lon="6.35972">
        <ele>1540.1999511719</ele>
        <time>2016-07-11T10:24:49.000Z</time>
      </trkpt>
      <trkpt lat="44.39617" lon="6.35957">
        <ele>1537.8000488281</ele>
        <time>2016-07-11T10:25:00.000Z</time>
      </trkpt>
      <trkpt lat="44.39617" lon="6.35956">
        <ele>1537.5999755859</ele>
        <time>2016-07-11T10:25:01.000Z</time>
      </trkpt>
      <trkpt lat="44.39621" lon="6.35947">
        <ele>1536</ele>
        <time>2016-07-11T10:25:06.000Z</time>
      </trkpt>
      <trkpt lat="44.39625" lon="6.35938">
        <ele>1534.1999511719</ele>
        <time>2016-07-11T10:25:11.000Z</time>
      </trkpt>
      <trkpt lat="44.39631" lon="6.35927">
        <ele>1532</ele>
        <time>2016-07-11T10:25:17.000Z</time>
      </trkpt>
      <trkpt lat="44.3964" lon="6.3592">
        <ele>1530.1999511719</ele>
        <time>2016-07-11T10:25:24.000Z</time>
      </trkpt>
      <trkpt lat="44.39641" lon="6.35919">
        <ele>1530</ele>
        <time>2016-07-11T10:25:25.000Z</time>
      </trkpt>
      <trkpt lat="44.39643" lon="6.35919">
        <ele>1530</ele>
        <time>2016-07-11T10:25:27.000Z</time>
      </trkpt>
      <trkpt lat="44.39647" lon="6.3592">
        <ele>1529.8000488281</ele>
        <time>2016-07-11T10:25:31.000Z</time>
      </trkpt>
      <trkpt lat="44.39658" lon="6.35923">
        <ele>1529.4000244141</ele>
        <time>2016-07-11T10:25:40.000Z</time>
      </trkpt>
      <trkpt lat="44.39664" lon="6.35927">
        <ele>1529.8000488281</ele>
        <time>2016-07-11T10:25:45.000Z</time>
      </trkpt>
      <trkpt lat="44.39671" lon="6.35932">
        <ele>1530.1999511719</ele>
        <time>2016-07-11T10:25:51.000Z</time>
      </trkpt>
      <trkpt lat="44.39678" lon="6.35933">
        <ele>1529.8000488281</ele>
        <time>2016-07-11T10:25:56.000Z</time>
      </trkpt>
      <trkpt lat="44.3968" lon="6.35933">
        <ele>1529.8000488281</ele>
        <time>2016-07-11T10:25:57.000Z</time>
      </trkpt>
      <trkpt lat="44.39686" lon="6.35937">
        <ele>1530</ele>
        <time>2016-07-11T10:26:03.000Z</time>
      </trkpt>
      <trkpt lat="44.39699" lon="6.35941">
        <ele>1529.8000488281</ele>
        <time>2016-07-11T10:26:12.000Z</time>
      </trkpt>
      <trkpt lat="44.39713" lon="6.35944">
        <ele>1531</ele>
        <time>2016-07-11T10:26:21.000Z</time>
      </trkpt>
      <trkpt lat="44.39723" lon="6.35943">
        <ele>1531.1999511719</ele>
        <time>2016-07-11T10:26:28.000Z</time>
      </trkpt>
      <trkpt lat="44.39729" lon="6.35931">
        <ele>1529.4000244141</ele>
        <time>2016-07-11T10:26:36.000Z</time>
      </trkpt>
      <trkpt lat="44.39734" lon="6.35923">
        <ele>1527.8000488281</ele>
        <time>2016-07-11T10:26:42.000Z</time>
      </trkpt>
      <trkpt lat="44.39741" lon="6.35913">
        <ele>1525.8000488281</ele>
        <time>2016-07-11T10:26:49.000Z</time>
      </trkpt>
      <trkpt lat="44.39754" lon="6.35907">
        <ele>1524.5999755859</ele>
        <time>2016-07-11T10:26:57.000Z</time>
      </trkpt>
      <trkpt lat="44.39767" lon="6.35905">
        <ele>1524.4000244141</ele>
        <time>2016-07-11T10:27:06.000Z</time>
      </trkpt>
      <trkpt lat="44.3977" lon="6.35896">
        <ele>1522.4000244141</ele>
        <time>2016-07-11T10:27:12.000Z</time>
      </trkpt>
      <trkpt lat="44.3977" lon="6.35894">
        <ele>1522</ele>
        <time>2016-07-11T10:27:13.000Z</time>
      </trkpt>
      <trkpt lat="44.39783" lon="6.3587">
        <ele>1518</ele>
        <time>2016-07-11T10:27:29.000Z</time>
      </trkpt>
      <trkpt lat="44.3979" lon="6.35855">
        <ele>1517</ele>
        <time>2016-07-11T10:27:37.000Z</time>
      </trkpt>
      <trkpt lat="44.39794" lon="6.35844">
        <ele>1515.8000488281</ele>
        <time>2016-07-11T10:27:43.000Z</time>
      </trkpt>
      <trkpt lat="44.39797" lon="6.35829">
        <ele>1513.5999755859</ele>
        <time>2016-07-11T10:27:51.000Z</time>
      </trkpt>
      <trkpt lat="44.39798" lon="6.35826">
        <ele>1513.5999755859</ele>
        <time>2016-07-11T10:27:53.000Z</time>
      </trkpt>
      <trkpt lat="44.39796" lon="6.35811">
        <ele>1511.4000244141</ele>
        <time>2016-07-11T10:28:01.000Z</time>
      </trkpt>
      <trkpt lat="44.39795" lon="6.35805">
        <ele>1510.5999755859</ele>
        <time>2016-07-11T10:28:04.000Z</time>
      </trkpt>
      <trkpt lat="44.39793" lon="6.35792">
        <ele>1508.5999755859</ele>
        <time>2016-07-11T10:28:11.000Z</time>
      </trkpt>
      <trkpt lat="44.39792" lon="6.3578">
        <ele>1506.8000488281</ele>
        <time>2016-07-11T10:28:17.000Z</time>
      </trkpt>
      <trkpt lat="44.39792" lon="6.35768">
        <ele>1505.8000488281</ele>
        <time>2016-07-11T10:28:23.000Z</time>
      </trkpt>
      <trkpt lat="44.39794" lon="6.35764">
        <ele>1506</ele>
        <time>2016-07-11T10:28:26.000Z</time>
      </trkpt>
      <trkpt lat="44.39802" lon="6.35753">
        <ele>1507.4000244141</ele>
        <time>2016-07-11T10:28:34.000Z</time>
      </trkpt>
      <trkpt lat="44.39814" lon="6.35726">
        <ele>1508</ele>
        <time>2016-07-11T10:28:49.000Z</time>
      </trkpt>
      <trkpt lat="44.39821" lon="6.35719">
        <ele>1509.1999511719</ele>
        <time>2016-07-11T10:28:55.000Z</time>
      </trkpt>
      <trkpt lat="44.39828" lon="6.3571">
        <ele>1510.5999755859</ele>
        <time>2016-07-11T10:29:02.000Z</time>
      </trkpt>
      <trkpt lat="44.39835" lon="6.35704">
        <ele>1512</ele>
        <time>2016-07-11T10:29:08.000Z</time>
      </trkpt>
      <trkpt lat="44.3984" lon="6.35697">
        <ele>1511.8000488281</ele>
        <time>2016-07-11T10:29:13.000Z</time>
      </trkpt>
      <trkpt lat="44.39843" lon="6.35693">
        <ele>1511.5999755859</ele>
        <time>2016-07-11T10:29:16.000Z</time>
      </trkpt>
      <trkpt lat="44.39853" lon="6.35682">
        <ele>1511.4000244141</ele>
        <time>2016-07-11T10:29:24.000Z</time>
      </trkpt>
      <trkpt lat="44.39859" lon="6.35671">
        <ele>1510</ele>
        <time>2016-07-11T10:29:31.000Z</time>
      </trkpt>
      <trkpt lat="44.39865" lon="6.35661">
        <ele>1509</ele>
        <time>2016-07-11T10:29:37.000Z</time>
      </trkpt>
      <trkpt lat="44.39866" lon="6.35659">
        <ele>1508.8000488281</ele>
        <time>2016-07-11T10:29:38.000Z</time>
      </trkpt>
      <trkpt lat="44.39868" lon="6.35655">
        <ele>1508.4000244141</ele>
        <time>2016-07-11T10:29:41.000Z</time>
      </trkpt>
      <trkpt lat="44.39881" lon="6.35642">
        <ele>1507.5999755859</ele>
        <time>2016-07-11T10:29:53.000Z</time>
      </trkpt>
      <trkpt lat="44.3989" lon="6.35633">
        <ele>1506.8000488281</ele>
        <time>2016-07-11T10:30:00.000Z</time>
      </trkpt>
      <trkpt lat="44.39895" lon="6.35629">
        <ele>1506.5999755859</ele>
        <time>2016-07-11T10:30:06.000Z</time>
      </trkpt>
      <trkpt lat="44.39901" lon="6.35623">
        <ele>1506.4000244141</ele>
        <time>2016-07-11T10:30:11.000Z</time>
      </trkpt>
      <trkpt lat="44.39907" lon="6.35616">
        <ele>1505.4000244141</ele>
        <time>2016-07-11T10:30:16.000Z</time>
      </trkpt>
      <trkpt lat="44.39913" lon="6.35603">
        <ele>1503.4000244141</ele>
        <time>2016-07-11T10:30:23.000Z</time>
      </trkpt>
      <trkpt lat="44.39919" lon="6.35586">
        <ele>1500.4000244141</ele>
        <time>2016-07-11T10:30:31.000Z</time>
      </trkpt>
      <trkpt lat="44.39922" lon="6.3558">
        <ele>1499</ele>
        <time>2016-07-11T10:30:35.000Z</time>
      </trkpt>
      <trkpt lat="44.39925" lon="6.35571">
        <ele>1497.5999755859</ele>
        <time>2016-07-11T10:30:40.000Z</time>
      </trkpt>
      <trkpt lat="44.39932" lon="6.35559">
        <ele>1496</ele>
        <time>2016-07-11T10:30:49.000Z</time>
      </trkpt>
      <trkpt lat="44.39942" lon="6.35548">
        <ele>1495.4000244141</ele>
        <time>2016-07-11T10:30:58.000Z</time>
      </trkpt>
      <trkpt lat="44.39948" lon="6.35539">
        <ele>1494.4000244141</ele>
        <time>2016-07-11T10:31:05.000Z</time>
      </trkpt>
      <trkpt lat="44.39956" lon="6.35529">
        <ele>1493.1999511719</ele>
        <time>2016-07-11T10:31:13.000Z</time>
      </trkpt>
      <trkpt lat="44.39964" lon="6.35519">
        <ele>1491.8000488281</ele>
        <time>2016-07-11T10:31:21.000Z</time>
      </trkpt>
      <trkpt lat="44.39966" lon="6.35516">
        <ele>1491.5999755859</ele>
        <time>2016-07-11T10:31:23.000Z</time>
      </trkpt>
      <trkpt lat="44.3997" lon="6.3551">
        <ele>1490.5999755859</ele>
        <time>2016-07-11T10:31:28.000Z</time>
      </trkpt>
      <trkpt lat="44.39978" lon="6.35501">
        <ele>1489.5999755859</ele>
        <time>2016-07-11T10:31:35.000Z</time>
      </trkpt>
      <trkpt lat="44.39983" lon="6.35492">
        <ele>1488.1999511719</ele>
        <time>2016-07-11T10:31:41.000Z</time>
      </trkpt>
      <trkpt lat="44.3999" lon="6.35481">
        <ele>1486.4000244141</ele>
        <time>2016-07-11T10:31:48.000Z</time>
      </trkpt>
      <trkpt lat="44.39992" lon="6.35469">
        <ele>1485</ele>
        <time>2016-07-11T10:31:54.000Z</time>
      </trkpt>
      <trkpt lat="44.39995" lon="6.35459">
        <ele>1483.8000488281</ele>
        <time>2016-07-11T10:32:01.000Z</time>
      </trkpt>
      <trkpt lat="44.39996" lon="6.35455">
        <ele>1483.4000244141</ele>
        <time>2016-07-11T10:32:04.000Z</time>
      </trkpt>
      <trkpt lat="44.39997" lon="6.35446">
        <ele>1482.4000244141</ele>
        <time>2016-07-11T10:32:09.000Z</time>
      </trkpt>
      <trkpt lat="44.39997" lon="6.35439">
        <ele>1481.5999755859</ele>
        <time>2016-07-11T10:32:15.000Z</time>
      </trkpt>
      <trkpt lat="44.39997" lon="6.35435">
        <ele>1481</ele>
        <time>2016-07-11T10:32:17.000Z</time>
      </trkpt>
      <trkpt lat="44.39999" lon="6.35428">
        <ele>1480.5999755859</ele>
        <time>2016-07-11T10:32:21.000Z</time>
      </trkpt>
      <trkpt lat="44.40002" lon="6.35412">
        <ele>1479.1999511719</ele>
        <time>2016-07-11T10:32:29.000Z</time>
      </trkpt>
      <trkpt lat="44.40006" lon="6.35399">
        <ele>1478.4000244141</ele>
        <time>2016-07-11T10:32:35.000Z</time>
      </trkpt>
      <trkpt lat="44.40008" lon="6.35392">
        <ele>1477.8000488281</ele>
        <time>2016-07-11T10:32:39.000Z</time>
      </trkpt>
      <trkpt lat="44.40009" lon="6.35366">
        <ele>1474</ele>
        <time>2016-07-11T10:32:55.000Z</time>
      </trkpt>
      <trkpt lat="44.40008" lon="6.35364">
        <ele>1473.8000488281</ele>
        <time>2016-07-11T10:32:56.000Z</time>
      </trkpt>
      <trkpt lat="44.40012" lon="6.35358">
        <ele>1473</ele>
        <time>2016-07-11T10:33:03.000Z</time>
      </trkpt>
      <trkpt lat="44.40014" lon="6.35357">
        <ele>1473</ele>
        <time>2016-07-11T10:33:06.000Z</time>
      </trkpt>
      <trkpt lat="44.4002" lon="6.35355">
        <ele>1473.1999511719</ele>
        <time>2016-07-11T10:33:11.000Z</time>
      </trkpt>
      <trkpt lat="44.40028" lon="6.35356">
        <ele>1474</ele>
        <time>2016-07-11T10:33:17.000Z</time>
      </trkpt>
      <trkpt lat="44.40032" lon="6.35358">
        <ele>1475</ele>
        <time>2016-07-11T10:33:21.000Z</time>
      </trkpt>
      <trkpt lat="44.40037" lon="6.35361">
        <ele>1475.4000244141</ele>
        <time>2016-07-11T10:33:26.000Z</time>
      </trkpt>
      <trkpt lat="44.40043" lon="6.35366">
        <ele>1476.4000244141</ele>
        <time>2016-07-11T10:33:32.000Z</time>
      </trkpt>
      <trkpt lat="44.40058" lon="6.35374">
        <ele>1478</ele>
        <time>2016-07-11T10:33:45.000Z</time>
      </trkpt>
      <trkpt lat="44.40066" lon="6.35378">
        <ele>1478.8000488281</ele>
        <time>2016-07-11T10:33:51.000Z</time>
      </trkpt>
      <trkpt lat="44.40072" lon="6.3538">
        <ele>1479.4000244141</ele>
        <time>2016-07-11T10:33:56.000Z</time>
      </trkpt>
      <trkpt lat="44.40079" lon="6.35383">
        <ele>1480</ele>
        <time>2016-07-11T10:34:01.000Z</time>
      </trkpt>
      <trkpt lat="44.40087" lon="6.35385">
        <ele>1480.4000244141</ele>
        <time>2016-07-11T10:34:07.000Z</time>
      </trkpt>
      <trkpt lat="44.40092" lon="6.35386">
        <ele>1480.5999755859</ele>
        <time>2016-07-11T10:34:12.000Z</time>
      </trkpt>
      <trkpt lat="44.40095" lon="6.35387">
        <ele>1480.8000488281</ele>
        <time>2016-07-11T10:34:16.000Z</time>
      </trkpt>
      <trkpt lat="44.40098" lon="6.35389">
        <ele>1481.1999511719</ele>
        <time>2016-07-11T10:34:20.000Z</time>
      </trkpt>
      <trkpt lat="44.40102" lon="6.3539">
        <ele>1481.4000244141</ele>
        <time>2016-07-11T10:34:23.000Z</time>
      </trkpt>
      <trkpt lat="44.4011" lon="6.35392">
        <ele>1482</ele>
        <time>2016-07-11T10:34:30.000Z</time>
      </trkpt>
      <trkpt lat="44.40112" lon="6.35393">
        <ele>1482</ele>
        <time>2016-07-11T10:34:31.000Z</time>
      </trkpt>
      <trkpt lat="44.40115" lon="6.35395">
        <ele>1482.4000244141</ele>
        <time>2016-07-11T10:34:34.000Z</time>
      </trkpt>
      <trkpt lat="44.40138" lon="6.35408">
        <ele>1483</ele>
        <time>2016-07-11T10:34:51.000Z</time>
      </trkpt>
      <trkpt lat="44.40148" lon="6.35411">
        <ele>1482.4000244141</ele>
        <time>2016-07-11T10:34:58.000Z</time>
      </trkpt>
      <trkpt lat="44.40157" lon="6.35411">
        <ele>1481.5999755859</ele>
        <time>2016-07-11T10:35:04.000Z</time>
      </trkpt>
      <trkpt lat="44.40168" lon="6.35414">
        <ele>1481.1999511719</ele>
        <time>2016-07-11T10:35:11.000Z</time>
      </trkpt>
      <trkpt lat="44.40179" lon="6.35418">
        <ele>1480.8000488281</ele>
        <time>2016-07-11T10:35:18.000Z</time>
      </trkpt>
      <trkpt lat="44.4019" lon="6.35422">
        <ele>1480.4000244141</ele>
        <time>2016-07-11T10:35:26.000Z</time>
      </trkpt>
      <trkpt lat="44.402" lon="6.35423">
        <ele>1480</ele>
        <time>2016-07-11T10:35:33.000Z</time>
      </trkpt>
      <trkpt lat="44.40212" lon="6.35424">
        <ele>1480.8000488281</ele>
        <time>2016-07-11T10:35:41.000Z</time>
      </trkpt>
      <trkpt lat="44.40218" lon="6.35425">
        <ele>1481.1999511719</ele>
        <time>2016-07-11T10:35:46.000Z</time>
      </trkpt>
      <trkpt lat="44.40219" lon="6.35426">
        <ele>1481.4000244141</ele>
        <time>2016-07-11T10:35:47.000Z</time>
      </trkpt>
      <trkpt lat="44.40229" lon="6.35426">
        <ele>1482</ele>
        <time>2016-07-11T10:35:54.000Z</time>
      </trkpt>
      <trkpt lat="44.4024" lon="6.35428">
        <ele>1482</ele>
        <time>2016-07-11T10:36:02.000Z</time>
      </trkpt>
      <trkpt lat="44.40246" lon="6.35428">
        <ele>1482</ele>
        <time>2016-07-11T10:36:07.000Z</time>
      </trkpt>
      <trkpt lat="44.40253" lon="6.35429">
        <ele>1482.1999511719</ele>
        <time>2016-07-11T10:36:12.000Z</time>
      </trkpt>
      <trkpt lat="44.4026" lon="6.35432">
        <ele>1483</ele>
        <time>2016-07-11T10:36:19.000Z</time>
      </trkpt>
      <trkpt lat="44.40261" lon="6.35433">
        <ele>1483</ele>
        <time>2016-07-11T10:36:20.000Z</time>
      </trkpt>
      <trkpt lat="44.4027" lon="6.35434">
        <ele>1483.1999511719</ele>
        <time>2016-07-11T10:36:25.000Z</time>
      </trkpt>
      <trkpt lat="44.40271" lon="6.35435">
        <ele>1483.4000244141</ele>
        <time>2016-07-11T10:36:26.000Z</time>
      </trkpt>
      <trkpt lat="44.40277" lon="6.35437">
        <ele>1483.8000488281</ele>
        <time>2016-07-11T10:36:31.000Z</time>
      </trkpt>
      <trkpt lat="44.4028" lon="6.35438">
        <ele>1484.1999511719</ele>
        <time>2016-07-11T10:36:38.000Z</time>
      </trkpt>
      <trkpt lat="44.40285" lon="6.3544">
        <ele>1484.4000244141</ele>
        <time>2016-07-11T10:36:47.000Z</time>
      </trkpt>
      <trkpt lat="44.40292" lon="6.35443">
        <ele>1485</ele>
        <time>2016-07-11T10:36:52.000Z</time>
      </trkpt>
      <trkpt lat="44.40297" lon="6.35447">
        <ele>1485.8000488281</ele>
        <time>2016-07-11T10:36:56.000Z</time>
      </trkpt>
      <trkpt lat="44.40305" lon="6.35447">
        <ele>1485.1999511719</ele>
        <time>2016-07-11T10:37:01.000Z</time>
      </trkpt>
      <trkpt lat="44.40314" lon="6.35445">
        <ele>1484</ele>
        <time>2016-07-11T10:37:08.000Z</time>
      </trkpt>
      <trkpt lat="44.40326" lon="6.3544">
        <ele>1481.5999755859</ele>
        <time>2016-07-11T10:37:16.000Z</time>
      </trkpt>
      <trkpt lat="44.40332" lon="6.35437">
        <ele>1480.5999755859</ele>
        <time>2016-07-11T10:37:21.000Z</time>
      </trkpt>
      <trkpt lat="44.40343" lon="6.35432">
        <ele>1479.1999511719</ele>
        <time>2016-07-11T10:37:28.000Z</time>
      </trkpt>
      <trkpt lat="44.40352" lon="6.35429">
        <ele>1478.1999511719</ele>
        <time>2016-07-11T10:37:34.000Z</time>
      </trkpt>
      <trkpt lat="44.40366" lon="6.35426">
        <ele>1477.1999511719</ele>
        <time>2016-07-11T10:37:43.000Z</time>
      </trkpt>
      <trkpt lat="44.4037" lon="6.35426">
        <ele>1476.5999755859</ele>
        <time>2016-07-11T10:37:46.000Z</time>
      </trkpt>
      <trkpt lat="44.40381" lon="6.3542">
        <ele>1474</ele>
        <time>2016-07-11T10:37:55.000Z</time>
      </trkpt>
      <trkpt lat="44.40387" lon="6.35417">
        <ele>1472.5999755859</ele>
        <time>2016-07-11T10:38:00.000Z</time>
      </trkpt>
      <trkpt lat="44.40396" lon="6.35414">
        <ele>1471.4000244141</ele>
        <time>2016-07-11T10:38:08.000Z</time>
      </trkpt>
      <trkpt lat="44.40398" lon="6.35412">
        <ele>1471</ele>
        <time>2016-07-11T10:38:10.000Z</time>
      </trkpt>
      <trkpt lat="44.40404" lon="6.3541">
        <ele>1470.1999511719</ele>
        <time>2016-07-11T10:38:17.000Z</time>
      </trkpt>
      <trkpt lat="44.40413" lon="6.35407">
        <ele>1469</ele>
        <time>2016-07-11T10:38:24.000Z</time>
      </trkpt>
      <trkpt lat="44.40421" lon="6.35406">
        <ele>1468.4000244141</ele>
        <time>2016-07-11T10:38:30.000Z</time>
      </trkpt>
      <trkpt lat="44.40431" lon="6.35404">
        <ele>1467.4000244141</ele>
        <time>2016-07-11T10:38:37.000Z</time>
      </trkpt>
      <trkpt lat="44.40436" lon="6.35404">
        <ele>1467</ele>
        <time>2016-07-11T10:38:42.000Z</time>
      </trkpt>
      <trkpt lat="44.40442" lon="6.35405">
        <ele>1466.8000488281</ele>
        <time>2016-07-11T10:38:45.000Z</time>
      </trkpt>
      <trkpt lat="44.40445" lon="6.35408">
        <ele>1467.4000244141</ele>
        <time>2016-07-11T10:38:50.000Z</time>
      </trkpt>
      <trkpt lat="44.4045" lon="6.35413">
        <ele>1467.8000488281</ele>
        <time>2016-07-11T10:39:09.000Z</time>
      </trkpt>
      <trkpt lat="44.40451" lon="6.35412">
        <ele>1467.5999755859</ele>
        <time>2016-07-11T10:39:20.000Z</time>
      </trkpt>
      <trkpt lat="44.40452" lon="6.35408">
        <ele>1466.5999755859</ele>
        <time>2016-07-11T10:39:24.000Z</time>
      </trkpt>
      <trkpt lat="44.40452" lon="6.35406">
        <ele>1466.1999511719</ele>
        <time>2016-07-11T10:39:25.000Z</time>
      </trkpt>
      <trkpt lat="44.40454" lon="6.35405">
        <ele>1465.5999755859</ele>
        <time>2016-07-11T10:39:30.000Z</time>
      </trkpt>
      <trkpt lat="44.40457" lon="6.35412">
        <ele>1466.5999755859</ele>
        <time>2016-07-11T10:43:26.000Z</time>
      </trkpt>
      <trkpt lat="44.40459" lon="6.35412">
        <ele>1466.1999511719</ele>
        <time>2016-07-11T10:43:37.000Z</time>
      </trkpt>
      <trkpt lat="44.40462" lon="6.35409">
        <ele>1465.1999511719</ele>
        <time>2016-07-11T10:43:45.000Z</time>
      </trkpt>
      <trkpt lat="44.40465" lon="6.35409">
        <ele>1465</ele>
        <time>2016-07-11T10:43:47.000Z</time>
      </trkpt>
      <trkpt lat="44.40473" lon="6.35402">
        <ele>1463.1999511719</ele>
        <time>2016-07-11T10:43:54.000Z</time>
      </trkpt>
      <trkpt lat="44.40475" lon="6.354">
        <ele>1462.8000488281</ele>
        <time>2016-07-11T10:43:56.000Z</time>
      </trkpt>
      <trkpt lat="44.40484" lon="6.35391">
        <ele>1461.1999511719</ele>
        <time>2016-07-11T10:44:03.000Z</time>
      </trkpt>
      <trkpt lat="44.40492" lon="6.35387">
        <ele>1460</ele>
        <time>2016-07-11T10:44:09.000Z</time>
      </trkpt>
      <trkpt lat="44.40502" lon="6.3538">
        <ele>1458.5999755859</ele>
        <time>2016-07-11T10:44:17.000Z</time>
      </trkpt>
      <trkpt lat="44.40503" lon="6.35378">
        <ele>1458.4000244141</ele>
        <time>2016-07-11T10:44:18.000Z</time>
      </trkpt>
      <trkpt lat="44.4051" lon="6.35373">
        <ele>1457.4000244141</ele>
        <time>2016-07-11T10:44:24.000Z</time>
      </trkpt>
      <trkpt lat="44.40519" lon="6.35368">
        <ele>1456.1999511719</ele>
        <time>2016-07-11T10:44:31.000Z</time>
      </trkpt>
      <trkpt lat="44.4052" lon="6.35367">
        <ele>1456</ele>
        <time>2016-07-11T10:44:32.000Z</time>
      </trkpt>
      <trkpt lat="44.40521" lon="6.35357">
        <ele>1455.1999511719</ele>
        <time>2016-07-11T10:44:38.000Z</time>
      </trkpt>
      <trkpt lat="44.4052" lon="6.35352">
        <ele>1454.8000488281</ele>
        <time>2016-07-11T10:44:41.000Z</time>
      </trkpt>
      <trkpt lat="44.4052" lon="6.3535">
        <ele>1454.8000488281</ele>
        <time>2016-07-11T10:44:42.000Z</time>
      </trkpt>
      <trkpt lat="44.4052" lon="6.3534">
        <ele>1454</ele>
        <time>2016-07-11T10:44:48.000Z</time>
      </trkpt>
      <trkpt lat="44.4052" lon="6.35333">
        <ele>1453.4000244141</ele>
        <time>2016-07-11T10:44:51.000Z</time>
      </trkpt>
      <trkpt lat="44.4052" lon="6.35325">
        <ele>1453</ele>
        <time>2016-07-11T10:44:56.000Z</time>
      </trkpt>
      <trkpt lat="44.40521" lon="6.35316">
        <ele>1452.1999511719</ele>
        <time>2016-07-11T10:45:01.000Z</time>
      </trkpt>
      <trkpt lat="44.40525" lon="6.35304">
        <ele>1450.5999755859</ele>
        <time>2016-07-11T10:45:08.000Z</time>
      </trkpt>
      <trkpt lat="44.40531" lon="6.35296">
        <ele>1449.4000244141</ele>
        <time>2016-07-11T10:45:15.000Z</time>
      </trkpt>
      <trkpt lat="44.40538" lon="6.35292">
        <ele>1448.1999511719</ele>
        <time>2016-07-11T10:45:21.000Z</time>
      </trkpt>
      <trkpt lat="44.40545" lon="6.35287">
        <ele>1447.1999511719</ele>
        <time>2016-07-11T10:45:27.000Z</time>
      </trkpt>
      <trkpt lat="44.40547" lon="6.35277">
        <ele>1446</ele>
        <time>2016-07-11T10:45:33.000Z</time>
      </trkpt>
      <trkpt lat="44.40546" lon="6.3527">
        <ele>1445.4000244141</ele>
        <time>2016-07-11T10:45:38.000Z</time>
      </trkpt>
      <trkpt lat="44.40544" lon="6.35263">
        <ele>1445</ele>
        <time>2016-07-11T10:45:42.000Z</time>
      </trkpt>
      <trkpt lat="44.40544" lon="6.35262">
        <ele>1444.8000488281</ele>
        <time>2016-07-11T10:45:43.000Z</time>
      </trkpt>
      <trkpt lat="44.40541" lon="6.3525">
        <ele>1444</ele>
        <time>2016-07-11T10:45:50.000Z</time>
      </trkpt>
      <trkpt lat="44.40538" lon="6.35243">
        <ele>1443.5999755859</ele>
        <time>2016-07-11T10:45:54.000Z</time>
      </trkpt>
      <trkpt lat="44.40534" lon="6.35229">
        <ele>1442.1999511719</ele>
        <time>2016-07-11T10:46:03.000Z</time>
      </trkpt>
      <trkpt lat="44.40531" lon="6.3522">
        <ele>1441.4000244141</ele>
        <time>2016-07-11T10:46:10.000Z</time>
      </trkpt>
      <trkpt lat="44.4053" lon="6.35217">
        <ele>1441</ele>
        <time>2016-07-11T10:46:12.000Z</time>
      </trkpt>
      <trkpt lat="44.40524" lon="6.35207">
        <ele>1439.5999755859</ele>
        <time>2016-07-11T10:46:20.000Z</time>
      </trkpt>
      <trkpt lat="44.40524" lon="6.35205">
        <ele>1439.4000244141</ele>
        <time>2016-07-11T10:46:21.000Z</time>
      </trkpt>
      <trkpt lat="44.40522" lon="6.35202">
        <ele>1439</ele>
        <time>2016-07-11T10:46:23.000Z</time>
      </trkpt>
      <trkpt lat="44.40523" lon="6.35194">
        <ele>1437.8000488281</ele>
        <time>2016-07-11T10:46:27.000Z</time>
      </trkpt>
      <trkpt lat="44.4053" lon="6.35189">
        <ele>1436.5999755859</ele>
        <time>2016-07-11T10:46:34.000Z</time>
      </trkpt>
      <trkpt lat="44.40533" lon="6.35184">
        <ele>1435.4000244141</ele>
        <time>2016-07-11T10:46:39.000Z</time>
      </trkpt>
      <trkpt lat="44.40535" lon="6.35182">
        <ele>1435</ele>
        <time>2016-07-11T10:46:41.000Z</time>
      </trkpt>
      <trkpt lat="44.40545" lon="6.35173">
        <ele>1432</ele>
        <time>2016-07-11T10:46:53.000Z</time>
      </trkpt>
      <trkpt lat="44.40546" lon="6.35172">
        <ele>1431.5999755859</ele>
        <time>2016-07-11T10:46:54.000Z</time>
      </trkpt>
      <trkpt lat="44.40547" lon="6.35172">
        <ele>1431.4000244141</ele>
        <time>2016-07-11T10:46:55.000Z</time>
      </trkpt>
      <trkpt lat="44.40554" lon="6.35171">
        <ele>1430</ele>
        <time>2016-07-11T10:47:01.000Z</time>
      </trkpt>
      <trkpt lat="44.40558" lon="6.35168">
        <ele>1428.5999755859</ele>
        <time>2016-07-11T10:47:05.000Z</time>
      </trkpt>
      <trkpt lat="44.40564" lon="6.35166">
        <ele>1426.8000488281</ele>
        <time>2016-07-11T10:47:11.000Z</time>
      </trkpt>
      <trkpt lat="44.40569" lon="6.35166">
        <ele>1426</ele>
        <time>2016-07-11T10:47:15.000Z</time>
      </trkpt>
      <trkpt lat="44.4057" lon="6.35166">
        <ele>1425.8000488281</ele>
        <time>2016-07-11T10:47:16.000Z</time>
      </trkpt>
      <trkpt lat="44.40577" lon="6.35166">
        <ele>1424.1999511719</ele>
        <time>2016-07-11T10:47:22.000Z</time>
      </trkpt>
      <trkpt lat="44.40588" lon="6.35164">
        <ele>1421.5999755859</ele>
        <time>2016-07-11T10:47:30.000Z</time>
      </trkpt>
      <trkpt lat="44.40589" lon="6.35163">
        <ele>1421</ele>
        <time>2016-07-11T10:47:31.000Z</time>
      </trkpt>
      <trkpt lat="44.4059" lon="6.35155">
        <ele>1419</ele>
        <time>2016-07-11T10:47:37.000Z</time>
      </trkpt>
      <trkpt lat="44.4059" lon="6.35147">
        <ele>1417.1999511719</ele>
        <time>2016-07-11T10:47:43.000Z</time>
      </trkpt>
      <trkpt lat="44.40591" lon="6.35141">
        <ele>1415.4000244141</ele>
        <time>2016-07-11T10:47:48.000Z</time>
      </trkpt>
      <trkpt lat="44.40597" lon="6.35145">
        <ele>1415.1999511719</ele>
        <time>2016-07-11T10:47:53.000Z</time>
      </trkpt>
      <trkpt lat="44.40601" lon="6.35149">
        <ele>1415.1999511719</ele>
        <time>2016-07-11T10:47:57.000Z</time>
      </trkpt>
      <trkpt lat="44.40605" lon="6.35152">
        <ele>1415.1999511719</ele>
        <time>2016-07-11T10:48:00.000Z</time>
      </trkpt>
      <trkpt lat="44.40615" lon="6.35161">
        <ele>1414.8000488281</ele>
        <time>2016-07-11T10:48:08.000Z</time>
      </trkpt>
      <trkpt lat="44.40618" lon="6.35162">
        <ele>1414.5999755859</ele>
        <time>2016-07-11T10:48:10.000Z</time>
      </trkpt>
      <trkpt lat="44.4062" lon="6.35161">
        <ele>1414.1999511719</ele>
        <time>2016-07-11T10:48:12.000Z</time>
      </trkpt>
      <trkpt lat="44.40625" lon="6.35162">
        <ele>1413.4000244141</ele>
        <time>2016-07-11T10:48:16.000Z</time>
      </trkpt>
      <trkpt lat="44.40635" lon="6.35159">
        <ele>1410.8000488281</ele>
        <time>2016-07-11T10:48:24.000Z</time>
      </trkpt>
      <trkpt lat="44.40643" lon="6.35154">
        <ele>1408.4000244141</ele>
        <time>2016-07-11T10:48:30.000Z</time>
      </trkpt>
      <trkpt lat="44.40646" lon="6.35153">
        <ele>1407.5999755859</ele>
        <time>2016-07-11T10:48:33.000Z</time>
      </trkpt>
      <trkpt lat="44.4065" lon="6.35147">
        <ele>1405.5999755859</ele>
        <time>2016-07-11T10:48:38.000Z</time>
      </trkpt>
      <trkpt lat="44.40653" lon="6.35144">
        <ele>1404.5999755859</ele>
        <time>2016-07-11T10:48:42.000Z</time>
      </trkpt>
      <trkpt lat="44.40658" lon="6.35139">
        <ele>1402.8000488281</ele>
        <time>2016-07-11T10:48:49.000Z</time>
      </trkpt>
      <trkpt lat="44.40659" lon="6.35139">
        <ele>1402.5999755859</ele>
        <time>2016-07-11T10:48:50.000Z</time>
      </trkpt>
      <trkpt lat="44.40659" lon="6.35138">
        <ele>1402.5999755859</ele>
        <time>2016-07-11T10:48:56.000Z</time>
      </trkpt>
      <trkpt lat="44.40661" lon="6.35136">
        <ele>1401.8000488281</ele>
        <time>2016-07-11T10:49:53.000Z</time>
      </trkpt>
      <trkpt lat="44.40664" lon="6.35139">
        <ele>1401.8000488281</ele>
        <time>2016-07-11T10:50:03.000Z</time>
      </trkpt>
      <trkpt lat="44.40663" lon="6.35141">
        <ele>1402.1999511719</ele>
        <time>2016-07-11T10:50:10.000Z</time>
      </trkpt>
      <trkpt lat="44.4066" lon="6.35145">
        <ele>1403.4000244141</ele>
        <time>2016-07-11T10:50:31.000Z</time>
      </trkpt>
      <trkpt lat="44.40662" lon="6.35142">
        <ele>1402.5999755859</ele>
        <time>2016-07-11T10:51:01.000Z</time>
      </trkpt>
      <trkpt lat="44.40664" lon="6.35139">
        <ele>1401.8000488281</ele>
        <time>2016-07-11T10:51:24.000Z</time>
      </trkpt>
      <trkpt lat="44.40666" lon="6.35139">
        <ele>1401.4000244141</ele>
        <time>2016-07-11T10:51:28.000Z</time>
      </trkpt>
      <trkpt lat="44.40671" lon="6.3514">
        <ele>1400.5999755859</ele>
        <time>2016-07-11T10:51:33.000Z</time>
      </trkpt>
      <trkpt lat="44.40672" lon="6.3514">
        <ele>1400.5999755859</ele>
        <time>2016-07-11T10:51:34.000Z</time>
      </trkpt>
      <trkpt lat="44.40674" lon="6.35142">
        <ele>1400.4000244141</ele>
        <time>2016-07-11T10:51:38.000Z</time>
      </trkpt>
      <trkpt lat="44.40675" lon="6.35142">
        <ele>1400.4000244141</ele>
        <time>2016-07-11T10:51:39.000Z</time>
      </trkpt>
      <trkpt lat="44.40681" lon="6.35139">
        <ele>1398.5999755859</ele>
        <time>2016-07-11T10:51:44.000Z</time>
      </trkpt>
      <trkpt lat="44.4069" lon="6.35142">
        <ele>1397.4000244141</ele>
        <time>2016-07-11T10:51:51.000Z</time>
      </trkpt>
      <trkpt lat="44.40696" lon="6.35144">
        <ele>1396.8000488281</ele>
        <time>2016-07-11T10:51:56.000Z</time>
      </trkpt>
      <trkpt lat="44.40705" lon="6.35152">
        <ele>1396.1999511719</ele>
        <time>2016-07-11T10:52:03.000Z</time>
      </trkpt>
      <trkpt lat="44.4071" lon="6.35158">
        <ele>1395.8000488281</ele>
        <time>2016-07-11T10:52:08.000Z</time>
      </trkpt>
      <trkpt lat="44.40717" lon="6.35167">
        <ele>1395.4000244141</ele>
        <time>2016-07-11T10:52:14.000Z</time>
      </trkpt>
      <trkpt lat="44.40723" lon="6.35174">
        <ele>1395</ele>
        <time>2016-07-11T10:52:20.000Z</time>
      </trkpt>
      <trkpt lat="44.40729" lon="6.35178">
        <ele>1394</ele>
        <time>2016-07-11T10:52:25.000Z</time>
      </trkpt>
      <trkpt lat="44.40734" lon="6.3518">
        <ele>1393.1999511719</ele>
        <time>2016-07-11T10:52:29.000Z</time>
      </trkpt>
      <trkpt lat="44.40742" lon="6.35184">
        <ele>1392</ele>
        <time>2016-07-11T10:52:35.000Z</time>
      </trkpt>
      <trkpt lat="44.40746" lon="6.35187">
        <ele>1391.1999511719</ele>
        <time>2016-07-11T10:52:38.000Z</time>
      </trkpt>
      <trkpt lat="44.40753" lon="6.35188">
        <ele>1389.8000488281</ele>
        <time>2016-07-11T10:52:43.000Z</time>
      </trkpt>
      <trkpt lat="44.40756" lon="6.35187">
        <ele>1389.1999511719</ele>
        <time>2016-07-11T10:52:45.000Z</time>
      </trkpt>
      <trkpt lat="44.40764" lon="6.35183">
        <ele>1386.8000488281</ele>
        <time>2016-07-11T10:52:52.000Z</time>
      </trkpt>
      <trkpt lat="44.40765" lon="6.35182">
        <ele>1386.4000244141</ele>
        <time>2016-07-11T10:52:53.000Z</time>
      </trkpt>
      <trkpt lat="44.4077" lon="6.35177">
        <ele>1384.5999755859</ele>
        <time>2016-07-11T10:52:59.000Z</time>
      </trkpt>
      <trkpt lat="44.40769" lon="6.35169">
        <ele>1383.8000488281</ele>
        <time>2016-07-11T10:53:05.000Z</time>
      </trkpt>
      <trkpt lat="44.40769" lon="6.35167">
        <ele>1383.4000244141</ele>
        <time>2016-07-11T10:53:07.000Z</time>
      </trkpt>
      <trkpt lat="44.40772" lon="6.35165">
        <ele>1382.4000244141</ele>
        <time>2016-07-11T10:53:11.000Z</time>
      </trkpt>
      <trkpt lat="44.40778" lon="6.35156">
        <ele>1380</ele>
        <time>2016-07-11T10:53:18.000Z</time>
      </trkpt>
      <trkpt lat="44.40783" lon="6.35152">
        <ele>1378.4000244141</ele>
        <time>2016-07-11T10:53:22.000Z</time>
      </trkpt>
      <trkpt lat="44.40785" lon="6.35145">
        <ele>1376.8000488281</ele>
        <time>2016-07-11T10:53:28.000Z</time>
      </trkpt>
      <trkpt lat="44.40788" lon="6.35142">
        <ele>1375.8000488281</ele>
        <time>2016-07-11T10:53:31.000Z</time>
      </trkpt>
      <trkpt lat="44.40789" lon="6.35141">
        <ele>1375.1999511719</ele>
        <time>2016-07-11T10:53:33.000Z</time>
      </trkpt>
      <trkpt lat="44.40795" lon="6.35135">
        <ele>1373.1999511719</ele>
        <time>2016-07-11T10:53:39.000Z</time>
      </trkpt>
      <trkpt lat="44.40798" lon="6.3513">
        <ele>1371.5999755859</ele>
        <time>2016-07-11T10:53:44.000Z</time>
      </trkpt>
      <trkpt lat="44.40799" lon="6.35129">
        <ele>1371.1999511719</ele>
        <time>2016-07-11T10:53:46.000Z</time>
      </trkpt>
      <trkpt lat="44.40801" lon="6.35129">
        <ele>1370.5999755859</ele>
        <time>2016-07-11T10:53:52.000Z</time>
      </trkpt>
      <trkpt lat="44.40801" lon="6.35131">
        <ele>1371</ele>
        <time>2016-07-11T10:53:58.000Z</time>
      </trkpt>
      <trkpt lat="44.40801" lon="6.3513">
        <ele>1370.8000488281</ele>
        <time>2016-07-11T10:54:04.000Z</time>
      </trkpt>
      <trkpt lat="44.40801" lon="6.35131">
        <ele>1371</ele>
        <time>2016-07-11T10:54:07.000Z</time>
      </trkpt>
      <trkpt lat="44.40807" lon="6.35137">
        <ele>1370.5999755859</ele>
        <time>2016-07-11T10:54:14.000Z</time>
      </trkpt>
      <trkpt lat="44.40808" lon="6.35139">
        <ele>1370.4000244141</ele>
        <time>2016-07-11T10:54:16.000Z</time>
      </trkpt>
      <trkpt lat="44.40809" lon="6.35151">
        <ele>1372</ele>
        <time>2016-07-11T10:54:24.000Z</time>
      </trkpt>
      <trkpt lat="44.40812" lon="6.35157">
        <ele>1372.4000244141</ele>
        <time>2016-07-11T10:54:28.000Z</time>
      </trkpt>
      <trkpt lat="44.40818" lon="6.35157">
        <ele>1370.8000488281</ele>
        <time>2016-07-11T10:54:34.000Z</time>
      </trkpt>
      <trkpt lat="44.40824" lon="6.35149">
        <ele>1368.1999511719</ele>
        <time>2016-07-11T10:54:41.000Z</time>
      </trkpt>
      <trkpt lat="44.40826" lon="6.35146">
        <ele>1367.1999511719</ele>
        <time>2016-07-11T10:54:44.000Z</time>
      </trkpt>
      <trkpt lat="44.40829" lon="6.3514">
        <ele>1365.4000244141</ele>
        <time>2016-07-11T10:54:49.000Z</time>
      </trkpt>
      <trkpt lat="44.40832" lon="6.35132">
        <ele>1363.5999755859</ele>
        <time>2016-07-11T10:54:54.000Z</time>
      </trkpt>
      <trkpt lat="44.40834" lon="6.3513">
        <ele>1363</ele>
        <time>2016-07-11T10:54:55.000Z</time>
      </trkpt>
      <trkpt lat="44.40837" lon="6.35126">
        <ele>1361.5999755859</ele>
        <time>2016-07-11T10:54:58.000Z</time>
      </trkpt>
      <trkpt lat="44.4084" lon="6.3512">
        <ele>1360</ele>
        <time>2016-07-11T10:55:02.000Z</time>
      </trkpt>
      <trkpt lat="44.40842" lon="6.35118">
        <ele>1359.1999511719</ele>
        <time>2016-07-11T10:55:04.000Z</time>
      </trkpt>
      <trkpt lat="44.40842" lon="6.35115">
        <ele>1358.5999755859</ele>
        <time>2016-07-11T10:55:07.000Z</time>
      </trkpt>
      <trkpt lat="44.40845" lon="6.35109">
        <ele>1356.8000488281</ele>
        <time>2016-07-11T10:55:12.000Z</time>
      </trkpt>
      <trkpt lat="44.40849" lon="6.35108">
        <ele>1355.5999755859</ele>
        <time>2016-07-11T10:55:15.000Z</time>
      </trkpt>
      <trkpt lat="44.40862" lon="6.35112">
        <ele>1352.8000488281</ele>
        <time>2016-07-11T10:55:24.000Z</time>
      </trkpt>
      <trkpt lat="44.40878" lon="6.35121">
        <ele>1350.8000488281</ele>
        <time>2016-07-11T10:55:35.000Z</time>
      </trkpt>
      <trkpt lat="44.40889" lon="6.35127">
        <ele>1349.4000244141</ele>
        <time>2016-07-11T10:55:43.000Z</time>
      </trkpt>
      <trkpt lat="44.40904" lon="6.35132">
        <ele>1347</ele>
        <time>2016-07-11T10:55:52.000Z</time>
      </trkpt>
      <trkpt lat="44.40917" lon="6.35135">
        <ele>1344.8000488281</ele>
        <time>2016-07-11T10:56:01.000Z</time>
      </trkpt>
      <trkpt lat="44.4093" lon="6.35138">
        <ele>1342.4000244141</ele>
        <time>2016-07-11T10:56:10.000Z</time>
      </trkpt>
      <trkpt lat="44.40934" lon="6.35141">
        <ele>1342</ele>
        <time>2016-07-11T10:56:13.000Z</time>
      </trkpt>
      <trkpt lat="44.40939" lon="6.35149">
        <ele>1342.4000244141</ele>
        <time>2016-07-11T10:56:18.000Z</time>
      </trkpt>
      <trkpt lat="44.4095" lon="6.35158">
        <ele>1342</ele>
        <time>2016-07-11T10:56:27.000Z</time>
      </trkpt>
      <trkpt lat="44.40961" lon="6.3516">
        <ele>1341.4000244141</ele>
        <time>2016-07-11T10:56:35.000Z</time>
      </trkpt>
      <trkpt lat="44.40968" lon="6.35158">
        <ele>1341</ele>
        <time>2016-07-11T10:56:40.000Z</time>
      </trkpt>
      <trkpt lat="44.4097" lon="6.35161">
        <ele>1341.4000244141</ele>
        <time>2016-07-11T10:56:43.000Z</time>
      </trkpt>
      <trkpt lat="44.40977" lon="6.3516">
        <ele>1340.8000488281</ele>
        <time>2016-07-11T10:56:49.000Z</time>
      </trkpt>
      <trkpt lat="44.40978" lon="6.3516">
        <ele>1341</ele>
        <time>2016-07-11T10:56:58.000Z</time>
      </trkpt>
      <trkpt lat="44.4098" lon="6.35159">
        <ele>1340.5999755859</ele>
        <time>2016-07-11T10:57:03.000Z</time>
      </trkpt>
      <trkpt lat="44.40984" lon="6.35154">
        <ele>1339.5999755859</ele>
        <time>2016-07-11T10:57:07.000Z</time>
      </trkpt>
      <trkpt lat="44.40997" lon="6.35146">
        <ele>1338</ele>
        <time>2016-07-11T10:57:16.000Z</time>
      </trkpt>
      <trkpt lat="44.41002" lon="6.35144">
        <ele>1337.5999755859</ele>
        <time>2016-07-11T10:57:19.000Z</time>
      </trkpt>
      <trkpt lat="44.41006" lon="6.35144">
        <ele>1337.4000244141</ele>
        <time>2016-07-11T10:57:25.000Z</time>
      </trkpt>
      <trkpt lat="44.41007" lon="6.35145">
        <ele>1337.4000244141</ele>
        <time>2016-07-11T10:57:38.000Z</time>
      </trkpt>
      <trkpt lat="44.41008" lon="6.35145">
        <ele>1337.5999755859</ele>
        <time>2016-07-11T10:57:45.000Z</time>
      </trkpt>
      <trkpt lat="44.41005" lon="6.3514">
        <ele>1336.8000488281</ele>
        <time>2016-07-11T10:57:51.000Z</time>
      </trkpt>
      <trkpt lat="44.41006" lon="6.35139">
        <ele>1336.5999755859</ele>
        <time>2016-07-11T10:57:52.000Z</time>
      </trkpt>
      <trkpt lat="44.41009" lon="6.35136">
        <ele>1336</ele>
        <time>2016-07-11T10:57:56.000Z</time>
      </trkpt>
      <trkpt lat="44.4101" lon="6.35135">
        <ele>1335.8000488281</ele>
        <time>2016-07-11T10:57:58.000Z</time>
      </trkpt>
      <trkpt lat="44.41013" lon="6.35131">
        <ele>1335.1999511719</ele>
        <time>2016-07-11T10:58:04.000Z</time>
      </trkpt>
      <trkpt lat="44.41011" lon="6.35129">
        <ele>1334.8000488281</ele>
        <time>2016-07-11T10:58:09.000Z</time>
      </trkpt>
      <trkpt lat="44.41006" lon="6.35131">
        <ele>1335.4000244141</ele>
        <time>2016-07-11T10:58:15.000Z</time>
      </trkpt>
      <trkpt lat="44.41006" lon="6.35132">
        <ele>1335.4000244141</ele>
        <time>2016-07-11T10:58:16.000Z</time>
      </trkpt>
      <trkpt lat="44.41005" lon="6.3513">
        <ele>1335.1999511719</ele>
        <time>2016-07-11T10:58:24.000Z</time>
      </trkpt>
      <trkpt lat="44.41005" lon="6.35132">
        <ele>1335.5999755859</ele>
        <time>2016-07-11T10:58:29.000Z</time>
      </trkpt>
      <trkpt lat="44.41005" lon="6.35137">
        <ele>1336.1999511719</ele>
        <time>2016-07-11T10:58:32.000Z</time>
      </trkpt>
      <trkpt lat="44.41005" lon="6.35142">
        <ele>1337.1999511719</ele>
        <time>2016-07-11T10:58:39.000Z</time>
      </trkpt>
      <trkpt lat="44.41005" lon="6.35149">
        <ele>1338.1999511719</ele>
        <time>2016-07-11T10:58:51.000Z</time>
      </trkpt>
      <trkpt lat="44.41007" lon="6.35151">
        <ele>1338.4000244141</ele>
        <time>2016-07-11T10:59:06.000Z</time>
      </trkpt>
      <trkpt lat="44.41015" lon="6.35149">
        <ele>1337.8000488281</ele>
        <time>2016-07-11T11:03:37.000Z</time>
      </trkpt>
      <trkpt lat="44.41015" lon="6.35142">
        <ele>1336.8000488281</ele>
        <time>2016-07-11T11:06:38.000Z</time>
      </trkpt>
      <trkpt lat="44.41012" lon="6.35125">
        <ele>1334.4000244141</ele>
        <time>2016-07-11T11:06:55.000Z</time>
      </trkpt>
      <trkpt lat="44.41011" lon="6.35124">
        <ele>1334.1999511719</ele>
        <time>2016-07-11T11:06:56.000Z</time>
      </trkpt>
      <trkpt lat="44.41025" lon="6.35144">
        <ele>1336.8000488281</ele>
        <time>2016-07-11T11:08:21.000Z</time>
      </trkpt>
      <trkpt lat="44.41018" lon="6.35141">
        <ele>1336.4000244141</ele>
        <time>2016-07-11T11:08:26.000Z</time>
      </trkpt>
      <trkpt lat="44.41017" lon="6.35143">
        <ele>1336.8000488281</ele>
        <time>2016-07-11T11:08:28.000Z</time>
      </trkpt>
      <trkpt lat="44.41015" lon="6.35142">
        <ele>1336.5999755859</ele>
        <time>2016-07-11T11:08:33.000Z</time>
      </trkpt>
      <trkpt lat="44.41034" lon="6.35154">
        <ele>1338</ele>
        <time>2016-07-11T11:08:58.000Z</time>
      </trkpt>
      <trkpt lat="44.41043" lon="6.35157">
        <ele>1338.8000488281</ele>
        <time>2016-07-11T11:09:04.000Z</time>
      </trkpt>
      <trkpt lat="44.41052" lon="6.35162">
        <ele>1339.8000488281</ele>
        <time>2016-07-11T11:09:11.000Z</time>
      </trkpt>
      <trkpt lat="44.41062" lon="6.35171">
        <ele>1341.5999755859</ele>
        <time>2016-07-11T11:09:19.000Z</time>
      </trkpt>
      <trkpt lat="44.41065" lon="6.35174">
        <ele>1342.1999511719</ele>
        <time>2016-07-11T11:09:22.000Z</time>
      </trkpt>
      <trkpt lat="44.4107" lon="6.35184">
        <ele>1343.5999755859</ele>
        <time>2016-07-11T11:09:28.000Z</time>
      </trkpt>
      <trkpt lat="44.41075" lon="6.35202">
        <ele>1346.5999755859</ele>
        <time>2016-07-11T11:09:38.000Z</time>
      </trkpt>
      <trkpt lat="44.41081" lon="6.3522">
        <ele>1349.5999755859</ele>
        <time>2016-07-11T11:09:48.000Z</time>
      </trkpt>
      <trkpt lat="44.41084" lon="6.3524">
        <ele>1352.5999755859</ele>
        <time>2016-07-11T11:09:58.000Z</time>
      </trkpt>
      <trkpt lat="44.41087" lon="6.35257">
        <ele>1355.4000244141</ele>
        <time>2016-07-11T11:10:07.000Z</time>
      </trkpt>
      <trkpt lat="44.4109" lon="6.35272">
        <ele>1357.8000488281</ele>
        <time>2016-07-11T11:10:15.000Z</time>
      </trkpt>
      <trkpt lat="44.41095" lon="6.35284">
        <ele>1359.8000488281</ele>
        <time>2016-07-11T11:10:23.000Z</time>
      </trkpt>
      <trkpt lat="44.41099" lon="6.3529">
        <ele>1360.8000488281</ele>
        <time>2016-07-11T11:10:29.000Z</time>
      </trkpt>
      <trkpt lat="44.41101" lon="6.35302">
        <ele>1362.8000488281</ele>
        <time>2016-07-11T11:10:35.000Z</time>
      </trkpt>
      <trkpt lat="44.41102" lon="6.35302">
        <ele>1362.8000488281</ele>
        <time>2016-07-11T11:10:48.000Z</time>
      </trkpt>
      <trkpt lat="44.411" lon="6.35307">
        <ele>1363.8000488281</ele>
        <time>2016-07-11T11:10:56.000Z</time>
      </trkpt>
      <trkpt lat="44.41097" lon="6.35298">
        <ele>1362.1999511719</ele>
        <time>2016-07-11T11:12:22.000Z</time>
      </trkpt>
      <trkpt lat="44.41098" lon="6.353">
        <ele>1362.4000244141</ele>
        <time>2016-07-11T11:12:34.000Z</time>
      </trkpt>
      <trkpt lat="44.41102" lon="6.35302">
        <ele>1362.8000488281</ele>
        <time>2016-07-11T11:12:52.000Z</time>
      </trkpt>
      <trkpt lat="44.41104" lon="6.35303">
        <ele>1363</ele>
        <time>2016-07-11T11:13:13.000Z</time>
      </trkpt>
      <trkpt lat="44.41104" lon="6.35305">
        <ele>1363.4000244141</ele>
        <time>2016-07-11T11:13:18.000Z</time>
      </trkpt>
      <trkpt lat="44.41103" lon="6.35302">
        <ele>1362.8000488281</ele>
        <time>2016-07-11T11:13:20.000Z</time>
      </trkpt>
      <trkpt lat="44.411" lon="6.353">
        <ele>1362.4000244141</ele>
        <time>2016-07-11T11:13:27.000Z</time>
      </trkpt>
      <trkpt lat="44.41098" lon="6.353">
        <ele>1362.4000244141</ele>
        <time>2016-07-11T11:14:29.000Z</time>
      </trkpt>
      <trkpt lat="44.41097" lon="6.353">
        <ele>1362.5999755859</ele>
        <time>2016-07-11T11:15:07.000Z</time>
      </trkpt>
      <trkpt lat="44.41096" lon="6.35298">
        <ele>1362.1999511719</ele>
        <time>2016-07-11T11:15:33.000Z</time>
      </trkpt>
      <trkpt lat="44.41097" lon="6.35299">
        <ele>1362.1999511719</ele>
        <time>2016-07-11T11:17:39.000Z</time>
      </trkpt>
      <trkpt lat="44.41098" lon="6.35299">
        <ele>1362.1999511719</ele>
        <time>2016-07-11T11:17:54.000Z</time>
      </trkpt>
      <trkpt lat="44.41101" lon="6.35301">
        <ele>1362.5999755859</ele>
        <time>2016-07-11T11:18:36.000Z</time>
      </trkpt>
      <trkpt lat="44.411" lon="6.35302">
        <ele>1362.8000488281</ele>
        <time>2016-07-11T11:18:47.000Z</time>
      </trkpt>
      <trkpt lat="44.411" lon="6.35301">
        <ele>1362.5999755859</ele>
        <time>2016-07-11T11:18:52.000Z</time>
      </trkpt>
      <trkpt lat="44.41101" lon="6.35301">
        <ele>1362.5999755859</ele>
        <time>2016-07-11T11:18:57.000Z</time>
      </trkpt>
      <trkpt lat="44.41096" lon="6.35298">
        <ele>1362.1999511719</ele>
        <time>2016-07-11T11:20:56.000Z</time>
      </trkpt>
      <trkpt lat="44.41096" lon="6.35296">
        <ele>1361.8000488281</ele>
        <time>2016-07-11T11:21:12.000Z</time>
      </trkpt>
      <trkpt lat="44.41097" lon="6.35298">
        <ele>1362.1999511719</ele>
        <time>2016-07-11T11:21:49.000Z</time>
      </trkpt>
      <trkpt lat="44.41096" lon="6.35298">
        <ele>1362</ele>
        <time>2016-07-11T11:22:05.000Z</time>
      </trkpt>
      <trkpt lat="44.41097" lon="6.353">
        <ele>1362.5999755859</ele>
        <time>2016-07-11T11:22:50.000Z</time>
      </trkpt>
      <trkpt lat="44.41099" lon="6.35302">
        <ele>1362.8000488281</ele>
        <time>2016-07-11T11:23:07.000Z</time>
      </trkpt>
      <trkpt lat="44.41097" lon="6.35302">
        <ele>1362.8000488281</ele>
        <time>2016-07-11T11:23:32.000Z</time>
      </trkpt>
      <trkpt lat="44.41098" lon="6.35302">
        <ele>1362.8000488281</ele>
        <time>2016-07-11T11:23:37.000Z</time>
      </trkpt>
      <trkpt lat="44.41098" lon="6.35303">
        <ele>1363</ele>
        <time>2016-07-11T11:23:57.000Z</time>
      </trkpt>
      <trkpt lat="44.411" lon="6.35302">
        <ele>1362.8000488281</ele>
        <time>2016-07-11T11:24:01.000Z</time>
      </trkpt>
      <trkpt lat="44.41101" lon="6.35302">
        <ele>1362.8000488281</ele>
        <time>2016-07-11T11:24:06.000Z</time>
      </trkpt>
      <trkpt lat="44.41098" lon="6.35298">
        <ele>1362</ele>
        <time>2016-07-11T11:24:13.000Z</time>
      </trkpt>
      <trkpt lat="44.41098" lon="6.35299">
        <ele>1362.4000244141</ele>
        <time>2016-07-11T11:24:18.000Z</time>
      </trkpt>
      <trkpt lat="44.41096" lon="6.35298">
        <ele>1362.1999511719</ele>
        <time>2016-07-11T11:24:24.000Z</time>
      </trkpt>
      <trkpt lat="44.41096" lon="6.35297">
        <ele>1362</ele>
        <time>2016-07-11T11:24:31.000Z</time>
      </trkpt>
      <trkpt lat="44.41099" lon="6.35297">
        <ele>1362</ele>
        <time>2016-07-11T11:25:06.000Z</time>
      </trkpt>
      <trkpt lat="44.41098" lon="6.35299">
        <ele>1362.4000244141</ele>
        <time>2016-07-11T11:25:12.000Z</time>
      </trkpt>
      <trkpt lat="44.41099" lon="6.35303">
        <ele>1363</ele>
        <time>2016-07-11T11:27:30.000Z</time>
      </trkpt>
      <trkpt lat="44.41098" lon="6.35301">
        <ele>1362.8000488281</ele>
        <time>2016-07-11T11:27:47.000Z</time>
      </trkpt>
      <trkpt lat="44.41098" lon="6.353">
        <ele>1362.5999755859</ele>
        <time>2016-07-11T11:28:51.000Z</time>
      </trkpt>
      <trkpt lat="44.41099" lon="6.353">
        <ele>1362.4000244141</ele>
        <time>2016-07-11T11:30:31.000Z</time>
      </trkpt>
      <trkpt lat="44.41098" lon="6.353">
        <ele>1362.4000244141</ele>
        <time>2016-07-11T11:31:11.000Z</time>
      </trkpt>
      <trkpt lat="44.41099" lon="6.353">
        <ele>1362.5999755859</ele>
        <time>2016-07-11T11:31:59.000Z</time>
      </trkpt>
      <trkpt lat="44.411" lon="6.35302">
        <ele>1362.8000488281</ele>
        <time>2016-07-11T11:32:32.000Z</time>
      </trkpt>
      <trkpt lat="44.41099" lon="6.353">
        <ele>1362.4000244141</ele>
        <time>2016-07-11T11:32:41.000Z</time>
      </trkpt>
      <trkpt lat="44.41096" lon="6.35295">
        <ele>1361.5999755859</ele>
        <time>2016-07-11T11:32:49.000Z</time>
      </trkpt>
      <trkpt lat="44.41102" lon="6.353">
        <ele>1362.4000244141</ele>
        <time>2016-07-11T11:33:29.000Z</time>
      </trkpt>
      <trkpt lat="44.41101" lon="6.353">
        <ele>1362.4000244141</ele>
        <time>2016-07-11T11:33:35.000Z</time>
      </trkpt>
      <trkpt lat="44.411" lon="6.353">
        <ele>1362.4000244141</ele>
        <time>2016-07-11T11:33:55.000Z</time>
      </trkpt>
      <trkpt lat="44.41101" lon="6.35305">
        <ele>1363.4000244141</ele>
        <time>2016-07-11T11:34:02.000Z</time>
      </trkpt>
      <trkpt lat="44.41098" lon="6.35307">
        <ele>1363.8000488281</ele>
        <time>2016-07-11T11:34:24.000Z</time>
      </trkpt>
      <trkpt lat="44.41095" lon="6.35304">
        <ele>1363.1999511719</ele>
        <time>2016-07-11T11:34:31.000Z</time>
      </trkpt>
      <trkpt lat="44.41095" lon="6.35302">
        <ele>1363</ele>
        <time>2016-07-11T11:34:47.000Z</time>
      </trkpt>
      <trkpt lat="44.41095" lon="6.35297">
        <ele>1362</ele>
        <time>2016-07-11T11:35:47.000Z</time>
      </trkpt>
      <trkpt lat="44.41097" lon="6.35302">
        <ele>1362.8000488281</ele>
        <time>2016-07-11T11:35:52.000Z</time>
      </trkpt>
      <trkpt lat="44.41096" lon="6.353">
        <ele>1362.5999755859</ele>
        <time>2016-07-11T11:36:07.000Z</time>
      </trkpt>
      <trkpt lat="44.41097" lon="6.35303">
        <ele>1363.1999511719</ele>
        <time>2016-07-11T11:36:15.000Z</time>
      </trkpt>
      <trkpt lat="44.41095" lon="6.35301">
        <ele>1362.8000488281</ele>
        <time>2016-07-11T11:36:19.000Z</time>
      </trkpt>
      <trkpt lat="44.41094" lon="6.35299">
        <ele>1362.1999511719</ele>
        <time>2016-07-11T11:36:27.000Z</time>
      </trkpt>
      <trkpt lat="44.41093" lon="6.35295">
        <ele>1361.5999755859</ele>
        <time>2016-07-11T11:36:32.000Z</time>
      </trkpt>
      <trkpt lat="44.41091" lon="6.35289">
        <ele>1360.4000244141</ele>
        <time>2016-07-11T11:37:19.000Z</time>
      </trkpt>
      <trkpt lat="44.4109" lon="6.35288">
        <ele>1360.4000244141</ele>
        <time>2016-07-11T11:37:25.000Z</time>
      </trkpt>
      <trkpt lat="44.41093" lon="6.35289">
        <ele>1360.5999755859</ele>
        <time>2016-07-11T11:37:32.000Z</time>
      </trkpt>
      <trkpt lat="44.41095" lon="6.35293">
        <ele>1361.1999511719</ele>
        <time>2016-07-11T11:38:43.000Z</time>
      </trkpt>
      <trkpt lat="44.41095" lon="6.35294">
        <ele>1361.4000244141</ele>
        <time>2016-07-11T11:38:55.000Z</time>
      </trkpt>
      <trkpt lat="44.41098" lon="6.35295">
        <ele>1361.5999755859</ele>
        <time>2016-07-11T11:39:01.000Z</time>
      </trkpt>
      <trkpt lat="44.41098" lon="6.35296">
        <ele>1361.8000488281</ele>
        <time>2016-07-11T11:39:13.000Z</time>
      </trkpt>
      <trkpt lat="44.41104" lon="6.35294">
        <ele>1361.5999755859</ele>
        <time>2016-07-11T11:39:31.000Z</time>
      </trkpt>
      <trkpt lat="44.41106" lon="6.35291">
        <ele>1361.1999511719</ele>
        <time>2016-07-11T11:39:32.000Z</time>
      </trkpt>
      <trkpt lat="44.4111" lon="6.35274">
        <ele>1358.5999755859</ele>
        <time>2016-07-11T11:39:42.000Z</time>
      </trkpt>
      <trkpt lat="44.41112" lon="6.35259">
        <ele>1356.1999511719</ele>
        <time>2016-07-11T11:39:49.000Z</time>
      </trkpt>
      <trkpt lat="44.41115" lon="6.35248">
        <ele>1354.8000488281</ele>
        <time>2016-07-11T11:39:55.000Z</time>
      </trkpt>
      <trkpt lat="44.41116" lon="6.35241">
        <ele>1353.4000244141</ele>
        <time>2016-07-11T11:39:59.000Z</time>
      </trkpt>
      <trkpt lat="44.41123" lon="6.35222">
        <ele>1350.4000244141</ele>
        <time>2016-07-11T11:40:09.000Z</time>
      </trkpt>
      <trkpt lat="44.41122" lon="6.35199">
        <ele>1347.4000244141</ele>
        <time>2016-07-11T11:40:19.000Z</time>
      </trkpt>
      <trkpt lat="44.41119" lon="6.3518">
        <ele>1345.1999511719</ele>
        <time>2016-07-11T11:40:29.000Z</time>
      </trkpt>
      <trkpt lat="44.4111" lon="6.35171">
        <ele>1343.8000488281</ele>
        <time>2016-07-11T11:40:35.000Z</time>
      </trkpt>
      <trkpt lat="44.41099" lon="6.35167">
        <ele>1342.8000488281</ele>
        <time>2016-07-11T11:40:43.000Z</time>
      </trkpt>
      <trkpt lat="44.41098" lon="6.35166">
        <ele>1342.5999755859</ele>
        <time>2016-07-11T11:40:49.000Z</time>
      </trkpt>
      <trkpt lat="44.41085" lon="6.35164">
        <ele>1341.8000488281</ele>
        <time>2016-07-11T11:41:01.000Z</time>
      </trkpt>
      <trkpt lat="44.41072" lon="6.35159">
        <ele>1340.4000244141</ele>
        <time>2016-07-11T11:41:07.000Z</time>
      </trkpt>
      <trkpt lat="44.41064" lon="6.35155">
        <ele>1339.4000244141</ele>
        <time>2016-07-11T11:41:12.000Z</time>
      </trkpt>
      <trkpt lat="44.41048" lon="6.35153">
        <ele>1338.4000244141</ele>
        <time>2016-07-11T11:41:22.000Z</time>
      </trkpt>
      <trkpt lat="44.41036" lon="6.35151">
        <ele>1337.5999755859</ele>
        <time>2016-07-11T11:41:29.000Z</time>
      </trkpt>
      <trkpt lat="44.41022" lon="6.35153">
        <ele>1338.1999511719</ele>
        <time>2016-07-11T11:41:37.000Z</time>
      </trkpt>
      <trkpt lat="44.41019" lon="6.35153">
        <ele>1338.4000244141</ele>
        <time>2016-07-11T11:41:39.000Z</time>
      </trkpt>
      <trkpt lat="44.41006" lon="6.35148">
        <ele>1338</ele>
        <time>2016-07-11T11:41:47.000Z</time>
      </trkpt>
      <trkpt lat="44.40996" lon="6.35152">
        <ele>1339</ele>
        <time>2016-07-11T11:41:52.000Z</time>
      </trkpt>
      <trkpt lat="44.40981" lon="6.35157">
        <ele>1340.1999511719</ele>
        <time>2016-07-11T11:42:01.000Z</time>
      </trkpt>
      <trkpt lat="44.40963" lon="6.35169">
        <ele>1343</ele>
        <time>2016-07-11T11:42:12.000Z</time>
      </trkpt>
      <trkpt lat="44.40966" lon="6.35185">
        <ele>1346</ele>
        <time>2016-07-11T11:42:21.000Z</time>
      </trkpt>
      <trkpt lat="44.40967" lon="6.35188">
        <ele>1346.5999755859</ele>
        <time>2016-07-11T11:42:22.000Z</time>
      </trkpt>
      <trkpt lat="44.40959" lon="6.3519">
        <ele>1347.4000244141</ele>
        <time>2016-07-11T11:42:27.000Z</time>
      </trkpt>
      <trkpt lat="44.40957" lon="6.35189">
        <ele>1347.4000244141</ele>
        <time>2016-07-11T11:42:29.000Z</time>
      </trkpt>
      <trkpt lat="44.40944" lon="6.35185">
        <ele>1348.1999511719</ele>
        <time>2016-07-11T11:42:36.000Z</time>
      </trkpt>
      <trkpt lat="44.40922" lon="6.35185">
        <ele>1352.8000488281</ele>
        <time>2016-07-11T11:42:43.000Z</time>
      </trkpt>
      <trkpt lat="44.40912" lon="6.35187">
        <ele>1355.4000244141</ele>
        <time>2016-07-11T11:42:48.000Z</time>
      </trkpt>
      <trkpt lat="44.409" lon="6.35189">
        <ele>1358.1999511719</ele>
        <time>2016-07-11T11:42:55.000Z</time>
      </trkpt>
      <trkpt lat="44.40886" lon="6.35188">
        <ele>1360.5999755859</ele>
        <time>2016-07-11T11:43:05.000Z</time>
      </trkpt>
      <trkpt lat="44.40873" lon="6.3519">
        <ele>1363.1999511719</ele>
        <time>2016-07-11T11:43:12.000Z</time>
      </trkpt>
      <trkpt lat="44.40858" lon="6.35193">
        <ele>1366.8000488281</ele>
        <time>2016-07-11T11:43:22.000Z</time>
      </trkpt>
      <trkpt lat="44.40846" lon="6.35194">
        <ele>1370</ele>
        <time>2016-07-11T11:43:30.000Z</time>
      </trkpt>
      <trkpt lat="44.40835" lon="6.35197">
        <ele>1373</ele>
        <time>2016-07-11T11:43:36.000Z</time>
      </trkpt>
      <trkpt lat="44.40833" lon="6.35197">
        <ele>1373.5999755859</ele>
        <time>2016-07-11T11:43:37.000Z</time>
      </trkpt>
      <trkpt lat="44.40822" lon="6.35204">
        <ele>1376.8000488281</ele>
        <time>2016-07-11T11:43:43.000Z</time>
      </trkpt>
      <trkpt lat="44.4082" lon="6.35205">
        <ele>1377.1999511719</ele>
        <time>2016-07-11T11:43:45.000Z</time>
      </trkpt>
      <trkpt lat="44.40812" lon="6.3521">
        <ele>1379.5999755859</ele>
        <time>2016-07-11T11:43:50.000Z</time>
      </trkpt>
      <trkpt lat="44.40808" lon="6.35212">
        <ele>1381</ele>
        <time>2016-07-11T11:43:54.000Z</time>
      </trkpt>
      <trkpt lat="44.40799" lon="6.35223">
        <ele>1384.1999511719</ele>
        <time>2016-07-11T11:44:02.000Z</time>
      </trkpt>
      <trkpt lat="44.40791" lon="6.3523">
        <ele>1387</ele>
        <time>2016-07-11T11:44:08.000Z</time>
      </trkpt>
      <trkpt lat="44.40788" lon="6.35231">
        <ele>1387.5999755859</ele>
        <time>2016-07-11T11:44:10.000Z</time>
      </trkpt>
      <trkpt lat="44.40777" lon="6.35223">
        <ele>1389</ele>
        <time>2016-07-11T11:44:19.000Z</time>
      </trkpt>
      <trkpt lat="44.40774" lon="6.35223">
        <ele>1389.5999755859</ele>
        <time>2016-07-11T11:44:21.000Z</time>
      </trkpt>
      <trkpt lat="44.40762" lon="6.35231">
        <ele>1395</ele>
        <time>2016-07-11T11:44:30.000Z</time>
      </trkpt>
      <trkpt lat="44.40761" lon="6.35231">
        <ele>1395.4000244141</ele>
        <time>2016-07-11T11:44:31.000Z</time>
      </trkpt>
      <trkpt lat="44.40754" lon="6.35227">
        <ele>1396.5999755859</ele>
        <time>2016-07-11T11:44:35.000Z</time>
      </trkpt>
      <trkpt lat="44.40753" lon="6.35225">
        <ele>1396.5999755859</ele>
        <time>2016-07-11T11:44:36.000Z</time>
      </trkpt>
      <trkpt lat="44.40752" lon="6.35223">
        <ele>1396.5999755859</ele>
        <time>2016-07-11T11:44:37.000Z</time>
      </trkpt>
      <trkpt lat="44.40744" lon="6.35216">
        <ele>1397.5999755859</ele>
        <time>2016-07-11T11:44:43.000Z</time>
      </trkpt>
      <trkpt lat="44.40733" lon="6.35221">
        <ele>1402</ele>
        <time>2016-07-11T11:44:52.000Z</time>
      </trkpt>
      <trkpt lat="44.4073" lon="6.3522">
        <ele>1402.8000488281</ele>
        <time>2016-07-11T11:44:54.000Z</time>
      </trkpt>
      <trkpt lat="44.40725" lon="6.35213">
        <ele>1403</ele>
        <time>2016-07-11T11:44:59.000Z</time>
      </trkpt>
      <trkpt lat="44.40714" lon="6.35206">
        <ele>1404.5999755859</ele>
        <time>2016-07-11T11:45:07.000Z</time>
      </trkpt>
      <trkpt lat="44.40706" lon="6.35199">
        <ele>1405.8000488281</ele>
        <time>2016-07-11T11:45:13.000Z</time>
      </trkpt>
      <trkpt lat="44.40695" lon="6.35195">
        <ele>1407.8000488281</ele>
        <time>2016-07-11T11:45:22.000Z</time>
      </trkpt>
      <trkpt lat="44.40691" lon="6.35192">
        <ele>1408</ele>
        <time>2016-07-11T11:45:25.000Z</time>
      </trkpt>
      <trkpt lat="44.4068" lon="6.3519">
        <ele>1409.5999755859</ele>
        <time>2016-07-11T11:45:32.000Z</time>
      </trkpt>
      <trkpt lat="44.40667" lon="6.35191">
        <ele>1412</ele>
        <time>2016-07-11T11:45:41.000Z</time>
      </trkpt>
      <trkpt lat="44.40653" lon="6.3519">
        <ele>1414.1999511719</ele>
        <time>2016-07-11T11:45:50.000Z</time>
      </trkpt>
      <trkpt lat="44.40639" lon="6.3519">
        <ele>1416.8000488281</ele>
        <time>2016-07-11T11:46:00.000Z</time>
      </trkpt>
      <trkpt lat="44.40638" lon="6.35191">
        <ele>1417.1999511719</ele>
        <time>2016-07-11T11:46:01.000Z</time>
      </trkpt>
      <trkpt lat="44.40634" lon="6.35194">
        <ele>1418.4000244141</ele>
        <time>2016-07-11T11:46:04.000Z</time>
      </trkpt>
      <trkpt lat="44.4063" lon="6.35193">
        <ele>1419</ele>
        <time>2016-07-11T11:46:07.000Z</time>
      </trkpt>
      <trkpt lat="44.40627" lon="6.35188">
        <ele>1418.5999755859</ele>
        <time>2016-07-11T11:46:10.000Z</time>
      </trkpt>
      <trkpt lat="44.40618" lon="6.35176">
        <ele>1417.5999755859</ele>
        <time>2016-07-11T11:46:18.000Z</time>
      </trkpt>
      <trkpt lat="44.40617" lon="6.35174">
        <ele>1417.4000244141</ele>
        <time>2016-07-11T11:46:19.000Z</time>
      </trkpt>
      <trkpt lat="44.40611" lon="6.35168">
        <ele>1417.4000244141</ele>
        <time>2016-07-11T11:46:24.000Z</time>
      </trkpt>
      <trkpt lat="44.40603" lon="6.35162">
        <ele>1417.8000488281</ele>
        <time>2016-07-11T11:46:31.000Z</time>
      </trkpt>
      <trkpt lat="44.40602" lon="6.35162">
        <ele>1418</ele>
        <time>2016-07-11T11:46:32.000Z</time>
      </trkpt>
      <trkpt lat="44.406" lon="6.35165">
        <ele>1419</ele>
        <time>2016-07-11T11:46:35.000Z</time>
      </trkpt>
      <trkpt lat="44.406" lon="6.35168">
        <ele>1419.5999755859</ele>
        <time>2016-07-11T11:46:37.000Z</time>
      </trkpt>
      <trkpt lat="44.406" lon="6.35176">
        <ele>1421.4000244141</ele>
        <time>2016-07-11T11:46:42.000Z</time>
      </trkpt>
      <trkpt lat="44.406" lon="6.35179">
        <ele>1422.1999511719</ele>
        <time>2016-07-11T11:46:45.000Z</time>
      </trkpt>
      <trkpt lat="44.40599" lon="6.35181">
        <ele>1422.5999755859</ele>
        <time>2016-07-11T11:46:47.000Z</time>
      </trkpt>
      <trkpt lat="44.40591" lon="6.35181">
        <ele>1424.4000244141</ele>
        <time>2016-07-11T11:46:53.000Z</time>
      </trkpt>
      <trkpt lat="44.4058" lon="6.35177">
        <ele>1426</ele>
        <time>2016-07-11T11:47:02.000Z</time>
      </trkpt>
      <trkpt lat="44.40576" lon="6.35176">
        <ele>1426.5999755859</ele>
        <time>2016-07-11T11:47:05.000Z</time>
      </trkpt>
      <trkpt lat="44.40568" lon="6.35176">
        <ele>1428.4000244141</ele>
        <time>2016-07-11T11:47:11.000Z</time>
      </trkpt>
      <trkpt lat="44.40561" lon="6.35176">
        <ele>1429.5999755859</ele>
        <time>2016-07-11T11:47:16.000Z</time>
      </trkpt>
      <trkpt lat="44.40551" lon="6.3518">
        <ele>1432</ele>
        <time>2016-07-11T11:47:23.000Z</time>
      </trkpt>
      <trkpt lat="44.40543" lon="6.35183">
        <ele>1433.8000488281</ele>
        <time>2016-07-11T11:47:28.000Z</time>
      </trkpt>
      <trkpt lat="44.40541" lon="6.35185">
        <ele>1434.4000244141</ele>
        <time>2016-07-11T11:47:29.000Z</time>
      </trkpt>
      <trkpt lat="44.40533" lon="6.35193">
        <ele>1437</ele>
        <time>2016-07-11T11:47:35.000Z</time>
      </trkpt>
      <trkpt lat="44.40533" lon="6.35195">
        <ele>1437.1999511719</ele>
        <time>2016-07-11T11:47:36.000Z</time>
      </trkpt>
      <trkpt lat="44.40535" lon="6.35205">
        <ele>1438.4000244141</ele>
        <time>2016-07-11T11:47:41.000Z</time>
      </trkpt>
      <trkpt lat="44.40535" lon="6.35206">
        <ele>1438.5999755859</ele>
        <time>2016-07-11T11:47:42.000Z</time>
      </trkpt>
      <trkpt lat="44.40538" lon="6.35214">
        <ele>1439.4000244141</ele>
        <time>2016-07-11T11:47:47.000Z</time>
      </trkpt>
      <trkpt lat="44.40543" lon="6.35221">
        <ele>1439.5999755859</ele>
        <time>2016-07-11T11:47:52.000Z</time>
      </trkpt>
      <trkpt lat="44.40546" lon="6.35227">
        <ele>1440.1999511719</ele>
        <time>2016-07-11T11:47:59.000Z</time>
      </trkpt>
      <trkpt lat="44.40548" lon="6.3523">
        <ele>1440.4000244141</ele>
        <time>2016-07-11T11:48:01.000Z</time>
      </trkpt>
      <trkpt lat="44.40551" lon="6.35241">
        <ele>1441.5999755859</ele>
        <time>2016-07-11T11:48:07.000Z</time>
      </trkpt>
      <trkpt lat="44.40552" lon="6.35246">
        <ele>1442.1999511719</ele>
        <time>2016-07-11T11:48:11.000Z</time>
      </trkpt>
      <trkpt lat="44.40553" lon="6.35262">
        <ele>1444</ele>
        <time>2016-07-11T11:48:19.000Z</time>
      </trkpt>
      <trkpt lat="44.40552" lon="6.35265">
        <ele>1444.1999511719</ele>
        <time>2016-07-11T11:48:21.000Z</time>
      </trkpt>
      <trkpt lat="44.40555" lon="6.35271">
        <ele>1444.5999755859</ele>
        <time>2016-07-11T11:48:25.000Z</time>
      </trkpt>
      <trkpt lat="44.40557" lon="6.35276">
        <ele>1445</ele>
        <time>2016-07-11T11:48:29.000Z</time>
      </trkpt>
      <trkpt lat="44.40551" lon="6.35285">
        <ele>1446.1999511719</ele>
        <time>2016-07-11T11:48:36.000Z</time>
      </trkpt>
      <trkpt lat="44.40543" lon="6.35287">
        <ele>1447.1999511719</ele>
        <time>2016-07-11T11:48:43.000Z</time>
      </trkpt>
      <trkpt lat="44.40541" lon="6.35288">
        <ele>1447.5999755859</ele>
        <time>2016-07-11T11:48:44.000Z</time>
      </trkpt>
      <trkpt lat="44.40538" lon="6.35291">
        <ele>1448.1999511719</ele>
        <time>2016-07-11T11:48:48.000Z</time>
      </trkpt>
      <trkpt lat="44.40531" lon="6.35301">
        <ele>1449.8000488281</ele>
        <time>2016-07-11T11:48:55.000Z</time>
      </trkpt>
      <trkpt lat="44.40527" lon="6.35313">
        <ele>1451.1999511719</ele>
        <time>2016-07-11T11:49:02.000Z</time>
      </trkpt>
      <trkpt lat="44.40528" lon="6.35329">
        <ele>1452.4000244141</ele>
        <time>2016-07-11T11:49:10.000Z</time>
      </trkpt>
      <trkpt lat="44.40528" lon="6.3534">
        <ele>1453.1999511719</ele>
        <time>2016-07-11T11:49:16.000Z</time>
      </trkpt>
      <trkpt lat="44.40529" lon="6.35354">
        <ele>1454</ele>
        <time>2016-07-11T11:49:24.000Z</time>
      </trkpt>
      <trkpt lat="44.40529" lon="6.35365">
        <ele>1455</ele>
        <time>2016-07-11T11:49:30.000Z</time>
      </trkpt>
      <trkpt lat="44.40528" lon="6.35366">
        <ele>1455</ele>
        <time>2016-07-11T11:49:31.000Z</time>
      </trkpt>
      <trkpt lat="44.4052" lon="6.35368">
        <ele>1456</ele>
        <time>2016-07-11T11:49:37.000Z</time>
      </trkpt>
      <trkpt lat="44.40515" lon="6.35371">
        <ele>1456.5999755859</ele>
        <time>2016-07-11T11:49:40.000Z</time>
      </trkpt>
      <trkpt lat="44.40506" lon="6.35378">
        <ele>1458</ele>
        <time>2016-07-11T11:49:49.000Z</time>
      </trkpt>
      <trkpt lat="44.40494" lon="6.35386">
        <ele>1459.8000488281</ele>
        <time>2016-07-11T11:49:58.000Z</time>
      </trkpt>
      <trkpt lat="44.40485" lon="6.35395">
        <ele>1461.1999511719</ele>
        <time>2016-07-11T11:50:05.000Z</time>
      </trkpt>
      <trkpt lat="44.40484" lon="6.35396">
        <ele>1461.4000244141</ele>
        <time>2016-07-11T11:50:06.000Z</time>
      </trkpt>
      <trkpt lat="44.40474" lon="6.35404">
        <ele>1463.4000244141</ele>
        <time>2016-07-11T11:50:14.000Z</time>
      </trkpt>
      <trkpt lat="44.40467" lon="6.35411">
        <ele>1465.1999511719</ele>
        <time>2016-07-11T11:50:20.000Z</time>
      </trkpt>
      <trkpt lat="44.40456" lon="6.35416">
        <ele>1467.5999755859</ele>
        <time>2016-07-11T11:50:28.000Z</time>
      </trkpt>
      <trkpt lat="44.40445" lon="6.35416">
        <ele>1469</ele>
        <time>2016-07-11T11:50:35.000Z</time>
      </trkpt>
      <trkpt lat="44.40432" lon="6.35418">
        <ele>1470.1999511719</ele>
        <time>2016-07-11T11:50:45.000Z</time>
      </trkpt>
      <trkpt lat="44.40428" lon="6.35419">
        <ele>1470.5999755859</ele>
        <time>2016-07-11T11:50:48.000Z</time>
      </trkpt>
      <trkpt lat="44.40426" lon="6.35421">
        <ele>1471.1999511719</ele>
        <time>2016-07-11T11:50:50.000Z</time>
      </trkpt>
      <trkpt lat="44.4042" lon="6.35422">
        <ele>1471.8000488281</ele>
        <time>2016-07-11T11:50:54.000Z</time>
      </trkpt>
      <trkpt lat="44.4041" lon="6.35427">
        <ele>1473.1999511719</ele>
        <time>2016-07-11T11:51:02.000Z</time>
      </trkpt>
      <trkpt lat="44.40404" lon="6.3543">
        <ele>1474.4000244141</ele>
        <time>2016-07-11T11:51:08.000Z</time>
      </trkpt>
      <trkpt lat="44.40396" lon="6.35433">
        <ele>1475.8000488281</ele>
        <time>2016-07-11T11:51:14.000Z</time>
      </trkpt>
      <trkpt lat="44.40387" lon="6.35439">
        <ele>1478.1999511719</ele>
        <time>2016-07-11T11:51:21.000Z</time>
      </trkpt>
      <trkpt lat="44.40383" lon="6.35448">
        <ele>1480.8000488281</ele>
        <time>2016-07-11T11:51:27.000Z</time>
      </trkpt>
      <trkpt lat="44.40382" lon="6.35449">
        <ele>1481</ele>
        <time>2016-07-11T11:51:28.000Z</time>
      </trkpt>
      <trkpt lat="44.40379" lon="6.35444">
        <ele>1480.1999511719</ele>
        <time>2016-07-11T11:51:34.000Z</time>
      </trkpt>
      <trkpt lat="44.40374" lon="6.3544">
        <ele>1479.8000488281</ele>
        <time>2016-07-11T11:51:39.000Z</time>
      </trkpt>
      <trkpt lat="44.40368" lon="6.35441">
        <ele>1480.8000488281</ele>
        <time>2016-07-11T11:51:44.000Z</time>
      </trkpt>
      <trkpt lat="44.40363" lon="6.35444">
        <ele>1481.5999755859</ele>
        <time>2016-07-11T11:51:47.000Z</time>
      </trkpt>
      <trkpt lat="44.40357" lon="6.35447">
        <ele>1482.8000488281</ele>
        <time>2016-07-11T11:51:52.000Z</time>
      </trkpt>
      <trkpt lat="44.40356" lon="6.35447">
        <ele>1482.8000488281</ele>
        <time>2016-07-11T11:51:53.000Z</time>
      </trkpt>
      <trkpt lat="44.40354" lon="6.35447">
        <ele>1482.8000488281</ele>
        <time>2016-07-11T11:51:55.000Z</time>
      </trkpt>
      <trkpt lat="44.40344" lon="6.3545">
        <ele>1483.8000488281</ele>
        <time>2016-07-11T11:52:01.000Z</time>
      </trkpt>
      <trkpt lat="44.40343" lon="6.35451">
        <ele>1484</ele>
        <time>2016-07-11T11:52:02.000Z</time>
      </trkpt>
      <trkpt lat="44.40335" lon="6.35453">
        <ele>1484.5999755859</ele>
        <time>2016-07-11T11:52:07.000Z</time>
      </trkpt>
      <trkpt lat="44.40322" lon="6.35454">
        <ele>1486.1999511719</ele>
        <time>2016-07-11T11:52:15.000Z</time>
      </trkpt>
      <trkpt lat="44.4031" lon="6.35452">
        <ele>1486.4000244141</ele>
        <time>2016-07-11T11:52:22.000Z</time>
      </trkpt>
      <trkpt lat="44.403" lon="6.35449">
        <ele>1486</ele>
        <time>2016-07-11T11:52:29.000Z</time>
      </trkpt>
      <trkpt lat="44.40293" lon="6.35447">
        <ele>1486</ele>
        <time>2016-07-11T11:52:34.000Z</time>
      </trkpt>
      <trkpt lat="44.40292" lon="6.35447">
        <ele>1486.1999511719</ele>
        <time>2016-07-11T11:52:35.000Z</time>
      </trkpt>
      <trkpt lat="44.40283" lon="6.35445">
        <ele>1486</ele>
        <time>2016-07-11T11:52:40.000Z</time>
      </trkpt>
      <trkpt lat="44.40267" lon="6.35441">
        <ele>1485.4000244141</ele>
        <time>2016-07-11T11:52:48.000Z</time>
      </trkpt>
      <trkpt lat="44.40257" lon="6.3544">
        <ele>1485.4000244141</ele>
        <time>2016-07-11T11:52:53.000Z</time>
      </trkpt>
      <trkpt lat="44.40247" lon="6.35438">
        <ele>1485</ele>
        <time>2016-07-11T11:52:58.000Z</time>
      </trkpt>
      <trkpt lat="44.40237" lon="6.35437">
        <ele>1484.8000488281</ele>
        <time>2016-07-11T11:53:02.000Z</time>
      </trkpt>
      <trkpt lat="44.40225" lon="6.35432">
        <ele>1483.1999511719</ele>
        <time>2016-07-11T11:53:08.000Z</time>
      </trkpt>
      <trkpt lat="44.40213" lon="6.3543">
        <ele>1482</ele>
        <time>2016-07-11T11:53:13.000Z</time>
      </trkpt>
      <trkpt lat="44.402" lon="6.35426">
        <ele>1480.5999755859</ele>
        <time>2016-07-11T11:53:19.000Z</time>
      </trkpt>
      <trkpt lat="44.40194" lon="6.35425">
        <ele>1480.5999755859</ele>
        <time>2016-07-11T11:53:23.000Z</time>
      </trkpt>
      <trkpt lat="44.40185" lon="6.35422">
        <ele>1481</ele>
        <time>2016-07-11T11:53:29.000Z</time>
      </trkpt>
      <trkpt lat="44.40174" lon="6.35419">
        <ele>1481.5999755859</ele>
        <time>2016-07-11T11:53:36.000Z</time>
      </trkpt>
      <trkpt lat="44.40168" lon="6.35419">
        <ele>1482</ele>
        <time>2016-07-11T11:53:40.000Z</time>
      </trkpt>
      <trkpt lat="44.40151" lon="6.35414">
        <ele>1482.8000488281</ele>
        <time>2016-07-11T11:53:51.000Z</time>
      </trkpt>
      <trkpt lat="44.40132" lon="6.35405">
        <ele>1482.8000488281</ele>
        <time>2016-07-11T11:54:04.000Z</time>
      </trkpt>
      <trkpt lat="44.40124" lon="6.35404">
        <ele>1483.4000244141</ele>
        <time>2016-07-11T11:54:09.000Z</time>
      </trkpt>
      <trkpt lat="44.40123" lon="6.35403">
        <ele>1483.4000244141</ele>
        <time>2016-07-11T11:54:10.000Z</time>
      </trkpt>
      <trkpt lat="44.40117" lon="6.35402">
        <ele>1483.5999755859</ele>
        <time>2016-07-11T11:54:15.000Z</time>
      </trkpt>
      <trkpt lat="44.40112" lon="6.35401">
        <ele>1483.5999755859</ele>
        <time>2016-07-11T11:54:19.000Z</time>
      </trkpt>
      <trkpt lat="44.40101" lon="6.35396">
        <ele>1482.5999755859</ele>
        <time>2016-07-11T11:54:26.000Z</time>
      </trkpt>
      <trkpt lat="44.4009" lon="6.35394">
        <ele>1482</ele>
        <time>2016-07-11T11:54:32.000Z</time>
      </trkpt>
      <trkpt lat="44.40082" lon="6.3539">
        <ele>1481.4000244141</ele>
        <time>2016-07-11T11:54:38.000Z</time>
      </trkpt>
      <trkpt lat="44.4008" lon="6.3539">
        <ele>1481.1999511719</ele>
        <time>2016-07-11T11:54:39.000Z</time>
      </trkpt>
      <trkpt lat="44.40072" lon="6.35384">
        <ele>1480</ele>
        <time>2016-07-11T11:54:45.000Z</time>
      </trkpt>
      <trkpt lat="44.40062" lon="6.35378">
        <ele>1478.8000488281</ele>
        <time>2016-07-11T11:54:53.000Z</time>
      </trkpt>
      <trkpt lat="44.4006" lon="6.35376">
        <ele>1478.4000244141</ele>
        <time>2016-07-11T11:54:54.000Z</time>
      </trkpt>
      <trkpt lat="44.40054" lon="6.35372">
        <ele>1477.5999755859</ele>
        <time>2016-07-11T11:54:59.000Z</time>
      </trkpt>
      <trkpt lat="44.40045" lon="6.35368">
        <ele>1476.8000488281</ele>
        <time>2016-07-11T11:55:06.000Z</time>
      </trkpt>
      <trkpt lat="44.40033" lon="6.35365">
        <ele>1476</ele>
        <time>2016-07-11T11:55:13.000Z</time>
      </trkpt>
      <trkpt lat="44.40032" lon="6.35365">
        <ele>1476.1999511719</ele>
        <time>2016-07-11T11:55:14.000Z</time>
      </trkpt>
      <trkpt lat="44.40024" lon="6.35367">
        <ele>1475.8000488281</ele>
        <time>2016-07-11T11:55:19.000Z</time>
      </trkpt>
      <trkpt lat="44.40022" lon="6.35367">
        <ele>1475.5999755859</ele>
        <time>2016-07-11T11:55:21.000Z</time>
      </trkpt>
      <trkpt lat="44.40019" lon="6.35371">
        <ele>1476</ele>
        <time>2016-07-11T11:55:25.000Z</time>
      </trkpt>
      <trkpt lat="44.40022" lon="6.35389">
        <ele>1479.4000244141</ele>
        <time>2016-07-11T11:55:35.000Z</time>
      </trkpt>
      <trkpt lat="44.40018" lon="6.35399">
        <ele>1480.1999511719</ele>
        <time>2016-07-11T11:55:41.000Z</time>
      </trkpt>
      <trkpt lat="44.40013" lon="6.35407">
        <ele>1480.4000244141</ele>
        <time>2016-07-11T11:55:47.000Z</time>
      </trkpt>
      <trkpt lat="44.40009" lon="6.35421">
        <ele>1481.1999511719</ele>
        <time>2016-07-11T11:55:55.000Z</time>
      </trkpt>
      <trkpt lat="44.40009" lon="6.35422">
        <ele>1481.4000244141</ele>
        <time>2016-07-11T11:55:56.000Z</time>
      </trkpt>
      <trkpt lat="44.40008" lon="6.35427">
        <ele>1481.8000488281</ele>
        <time>2016-07-11T11:55:59.000Z</time>
      </trkpt>
      <trkpt lat="44.40009" lon="6.3543">
        <ele>1482.1999511719</ele>
        <time>2016-07-11T11:56:01.000Z</time>
      </trkpt>
      <trkpt lat="44.40008" lon="6.35439">
        <ele>1483</ele>
        <time>2016-07-11T11:56:07.000Z</time>
      </trkpt>
      <trkpt lat="44.40008" lon="6.3544">
        <ele>1483.1999511719</ele>
        <time>2016-07-11T11:56:08.000Z</time>
      </trkpt>
      <trkpt lat="44.40008" lon="6.35441">
        <ele>1483.1999511719</ele>
        <time>2016-07-11T11:56:09.000Z</time>
      </trkpt>
      <trkpt lat="44.40008" lon="6.35448">
        <ele>1484</ele>
        <time>2016-07-11T11:56:14.000Z</time>
      </trkpt>
      <trkpt lat="44.40007" lon="6.3545">
        <ele>1484</ele>
        <time>2016-07-11T11:56:15.000Z</time>
      </trkpt>
      <trkpt lat="44.40004" lon="6.35456">
        <ele>1484.4000244141</ele>
        <time>2016-07-11T11:56:19.000Z</time>
      </trkpt>
      <trkpt lat="44.40001" lon="6.35467">
        <ele>1485.5999755859</ele>
        <time>2016-07-11T11:56:26.000Z</time>
      </trkpt>
      <trkpt lat="44.4" lon="6.35472">
        <ele>1486.1999511719</ele>
        <time>2016-07-11T11:56:29.000Z</time>
      </trkpt>
      <trkpt lat="44.39998" lon="6.35476">
        <ele>1486.5999755859</ele>
        <time>2016-07-11T11:56:32.000Z</time>
      </trkpt>
      <trkpt lat="44.39991" lon="6.35486">
        <ele>1487.8000488281</ele>
        <time>2016-07-11T11:56:38.000Z</time>
      </trkpt>
      <trkpt lat="44.39986" lon="6.35495">
        <ele>1489</ele>
        <time>2016-07-11T11:56:44.000Z</time>
      </trkpt>
      <trkpt lat="44.39978" lon="6.35505">
        <ele>1490.4000244141</ele>
        <time>2016-07-11T11:56:52.000Z</time>
      </trkpt>
      <trkpt lat="44.39967" lon="6.35519">
        <ele>1492.1999511719</ele>
        <time>2016-07-11T11:57:03.000Z</time>
      </trkpt>
      <trkpt lat="44.39957" lon="6.3553">
        <ele>1493.5999755859</ele>
        <time>2016-07-11T11:57:12.000Z</time>
      </trkpt>
      <trkpt lat="44.39951" lon="6.35539">
        <ele>1494.8000488281</ele>
        <time>2016-07-11T11:57:19.000Z</time>
      </trkpt>
      <trkpt lat="44.39942" lon="6.3555">
        <ele>1496.1999511719</ele>
        <time>2016-07-11T11:57:27.000Z</time>
      </trkpt>
      <trkpt lat="44.39935" lon="6.35564">
        <ele>1497.4000244141</ele>
        <time>2016-07-11T11:57:36.000Z</time>
      </trkpt>
      <trkpt lat="44.39928" lon="6.35582">
        <ele>1500.8000488281</ele>
        <time>2016-07-11T11:57:46.000Z</time>
      </trkpt>
      <trkpt lat="44.39924" lon="6.35593">
        <ele>1502.8000488281</ele>
        <time>2016-07-11T11:57:53.000Z</time>
      </trkpt>
      <trkpt lat="44.39919" lon="6.35603">
        <ele>1504.5999755859</ele>
        <time>2016-07-11T11:58:00.000Z</time>
      </trkpt>
      <trkpt lat="44.39914" lon="6.35612">
        <ele>1505.8000488281</ele>
        <time>2016-07-11T11:58:07.000Z</time>
      </trkpt>
      <trkpt lat="44.39908" lon="6.35617">
        <ele>1506</ele>
        <time>2016-07-11T11:58:13.000Z</time>
      </trkpt>
      <trkpt lat="44.39907" lon="6.35618">
        <ele>1506</ele>
        <time>2016-07-11T11:58:14.000Z</time>
      </trkpt>
      <trkpt lat="44.39901" lon="6.35622">
        <ele>1506</ele>
        <time>2016-07-11T11:58:18.000Z</time>
      </trkpt>
      <trkpt lat="44.39896" lon="6.35626">
        <ele>1506.1999511719</ele>
        <time>2016-07-11T11:58:23.000Z</time>
      </trkpt>
      <trkpt lat="44.39892" lon="6.35629">
        <ele>1506.1999511719</ele>
        <time>2016-07-11T11:58:27.000Z</time>
      </trkpt>
      <trkpt lat="44.39888" lon="6.35633">
        <ele>1506.4000244141</ele>
        <time>2016-07-11T11:58:31.000Z</time>
      </trkpt>
      <trkpt lat="44.39882" lon="6.3564">
        <ele>1507.1999511719</ele>
        <time>2016-07-11T11:58:38.000Z</time>
      </trkpt>
      <trkpt lat="44.3988" lon="6.35643">
        <ele>1507.4000244141</ele>
        <time>2016-07-11T11:58:39.000Z</time>
      </trkpt>
      <trkpt lat="44.39872" lon="6.35656">
        <ele>1509.1999511719</ele>
        <time>2016-07-11T11:58:48.000Z</time>
      </trkpt>
      <trkpt lat="44.39865" lon="6.35669">
        <ele>1510.8000488281</ele>
        <time>2016-07-11T11:58:56.000Z</time>
      </trkpt>
      <trkpt lat="44.39862" lon="6.35673">
        <ele>1511.1999511719</ele>
        <time>2016-07-11T11:58:59.000Z</time>
      </trkpt>
      <trkpt lat="44.39852" lon="6.35684">
        <ele>1511.4000244141</ele>
        <time>2016-07-11T11:59:07.000Z</time>
      </trkpt>
      <trkpt lat="44.3985" lon="6.35685">
        <ele>1511.1999511719</ele>
        <time>2016-07-11T11:59:09.000Z</time>
      </trkpt>
      <trkpt lat="44.39844" lon="6.3569">
        <ele>1511.1999511719</ele>
        <time>2016-07-11T11:59:14.000Z</time>
      </trkpt>
      <trkpt lat="44.39835" lon="6.35698">
        <ele>1511</ele>
        <time>2016-07-11T11:59:21.000Z</time>
      </trkpt>
      <trkpt lat="44.39832" lon="6.35702">
        <ele>1510.8000488281</ele>
        <time>2016-07-11T11:59:24.000Z</time>
      </trkpt>
      <trkpt lat="44.3983" lon="6.35704">
        <ele>1510.5999755859</ele>
        <time>2016-07-11T11:59:26.000Z</time>
      </trkpt>
      <trkpt lat="44.39821" lon="6.35715">
        <ele>1509</ele>
        <time>2016-07-11T11:59:35.000Z</time>
      </trkpt>
      <trkpt lat="44.39821" lon="6.35717">
        <ele>1509</ele>
        <time>2016-07-11T11:59:36.000Z</time>
      </trkpt>
      <trkpt lat="44.39813" lon="6.35734">
        <ele>1508.5999755859</ele>
        <time>2016-07-11T11:59:45.000Z</time>
      </trkpt>
      <trkpt lat="44.39805" lon="6.35744">
        <ele>1507.1999511719</ele>
        <time>2016-07-11T11:59:53.000Z</time>
      </trkpt>
      <trkpt lat="44.39802" lon="6.35748">
        <ele>1507</ele>
        <time>2016-07-11T11:59:56.000Z</time>
      </trkpt>
      <trkpt lat="44.39802" lon="6.35767">
        <ele>1508.8000488281</ele>
        <time>2016-07-11T12:00:05.000Z</time>
      </trkpt>
      <trkpt lat="44.39802" lon="6.35781">
        <ele>1510.4000244141</ele>
        <time>2016-07-11T12:00:12.000Z</time>
      </trkpt>
      <trkpt lat="44.39802" lon="6.35794">
        <ele>1511.8000488281</ele>
        <time>2016-07-11T12:00:19.000Z</time>
      </trkpt>
      <trkpt lat="44.39802" lon="6.35799">
        <ele>1512.1999511719</ele>
        <time>2016-07-11T12:00:21.000Z</time>
      </trkpt>
      <trkpt lat="44.39802" lon="6.35802">
        <ele>1512.8000488281</ele>
        <time>2016-07-11T12:00:23.000Z</time>
      </trkpt>
      <trkpt lat="44.39803" lon="6.35816">
        <ele>1514.4000244141</ele>
        <time>2016-07-11T12:00:30.000Z</time>
      </trkpt>
      <trkpt lat="44.39801" lon="6.35821">
        <ele>1514.4000244141</ele>
        <time>2016-07-11T12:00:32.000Z</time>
      </trkpt>
      <trkpt lat="44.39798" lon="6.35838">
        <ele>1515.5999755859</ele>
        <time>2016-07-11T12:00:40.000Z</time>
      </trkpt>
      <trkpt lat="44.39795" lon="6.3585">
        <ele>1517</ele>
        <time>2016-07-11T12:00:46.000Z</time>
      </trkpt>
      <trkpt lat="44.39787" lon="6.35862">
        <ele>1517.5999755859</ele>
        <time>2016-07-11T12:00:53.000Z</time>
      </trkpt>
      <trkpt lat="44.3978" lon="6.35873">
        <ele>1518.1999511719</ele>
        <time>2016-07-11T12:01:00.000Z</time>
      </trkpt>
      <trkpt lat="44.3978" lon="6.35874">
        <ele>1518.4000244141</ele>
        <time>2016-07-11T12:01:01.000Z</time>
      </trkpt>
      <trkpt lat="44.39779" lon="6.3588">
        <ele>1519.4000244141</ele>
        <time>2016-07-11T12:01:04.000Z</time>
      </trkpt>
      <trkpt lat="44.39777" lon="6.35896">
        <ele>1522.5999755859</ele>
        <time>2016-07-11T12:01:12.000Z</time>
      </trkpt>
      <trkpt lat="44.39776" lon="6.35898">
        <ele>1523</ele>
        <time>2016-07-11T12:01:13.000Z</time>
      </trkpt>
      <trkpt lat="44.39767" lon="6.359">
        <ele>1523.4000244141</ele>
        <time>2016-07-11T12:01:17.000Z</time>
      </trkpt>
      <trkpt lat="44.39755" lon="6.35903">
        <ele>1523.8000488281</ele>
        <time>2016-07-11T12:01:25.000Z</time>
      </trkpt>
      <trkpt lat="44.39747" lon="6.35912">
        <ele>1525.8000488281</ele>
        <time>2016-07-11T12:01:33.000Z</time>
      </trkpt>
      <trkpt lat="44.39746" lon="6.35914">
        <ele>1526</ele>
        <time>2016-07-11T12:01:34.000Z</time>
      </trkpt>
      <trkpt lat="44.39742" lon="6.35928">
        <ele>1529</ele>
        <time>2016-07-11T12:01:41.000Z</time>
      </trkpt>
      <trkpt lat="44.3974" lon="6.3594">
        <ele>1531.5999755859</ele>
        <time>2016-07-11T12:01:47.000Z</time>
      </trkpt>
      <trkpt lat="44.39731" lon="6.35945">
        <ele>1532</ele>
        <time>2016-07-11T12:01:53.000Z</time>
      </trkpt>
      <trkpt lat="44.39718" lon="6.35944">
        <ele>1531.1999511719</ele>
        <time>2016-07-11T12:02:01.000Z</time>
      </trkpt>
      <trkpt lat="44.3971" lon="6.35943">
        <ele>1530.8000488281</ele>
        <time>2016-07-11T12:02:08.000Z</time>
      </trkpt>
      <trkpt lat="44.39703" lon="6.35941">
        <ele>1530</ele>
        <time>2016-07-11T12:02:13.000Z</time>
      </trkpt>
      <trkpt lat="44.39703" lon="6.3594">
        <ele>1530</ele>
        <time>2016-07-11T12:02:14.000Z</time>
      </trkpt>
      <trkpt lat="44.39698" lon="6.35938">
        <ele>1529.1999511719</ele>
        <time>2016-07-11T12:02:18.000Z</time>
      </trkpt>
      <trkpt lat="44.39694" lon="6.35936">
        <ele>1529.1999511719</ele>
        <time>2016-07-11T12:02:21.000Z</time>
      </trkpt>
      <trkpt lat="44.3969" lon="6.35934">
        <ele>1529.1999511719</ele>
        <time>2016-07-11T12:02:28.000Z</time>
      </trkpt>
      <trkpt lat="44.39687" lon="6.35933">
        <ele>1529.1999511719</ele>
        <time>2016-07-11T12:02:40.000Z</time>
      </trkpt>
      <trkpt lat="44.39682" lon="6.35932">
        <ele>1529.4000244141</ele>
        <time>2016-07-11T12:02:58.000Z</time>
      </trkpt>
      <trkpt lat="44.39677" lon="6.35928">
        <ele>1529</ele>
        <time>2016-07-11T12:03:04.000Z</time>
      </trkpt>
      <trkpt lat="44.39676" lon="6.35927">
        <ele>1528.8000488281</ele>
        <time>2016-07-11T12:03:05.000Z</time>
      </trkpt>
      <trkpt lat="44.39669" lon="6.35922">
        <ele>1528.4000244141</ele>
        <time>2016-07-11T12:03:10.000Z</time>
      </trkpt>
      <trkpt lat="44.39663" lon="6.35918">
        <ele>1528.1999511719</ele>
        <time>2016-07-11T12:03:16.000Z</time>
      </trkpt>
      <trkpt lat="44.39662" lon="6.35918">
        <ele>1528.1999511719</ele>
        <time>2016-07-11T12:03:17.000Z</time>
      </trkpt>
      <trkpt lat="44.39656" lon="6.35914">
        <ele>1528</ele>
        <time>2016-07-11T12:03:21.000Z</time>
      </trkpt>
      <trkpt lat="44.39648" lon="6.35914">
        <ele>1528.4000244141</ele>
        <time>2016-07-11T12:03:27.000Z</time>
      </trkpt>
      <trkpt lat="44.39647" lon="6.35914">
        <ele>1528.5999755859</ele>
        <time>2016-07-11T12:03:28.000Z</time>
      </trkpt>
      <trkpt lat="44.39643" lon="6.35922">
        <ele>1530.1999511719</ele>
        <time>2016-07-11T12:03:33.000Z</time>
      </trkpt>
      <trkpt lat="44.39641" lon="6.35928">
        <ele>1531.5999755859</ele>
        <time>2016-07-11T12:03:37.000Z</time>
      </trkpt>
      <trkpt lat="44.3964" lon="6.35931">
        <ele>1532.1999511719</ele>
        <time>2016-07-11T12:03:39.000Z</time>
      </trkpt>
      <trkpt lat="44.39638" lon="6.35943">
        <ele>1534.1999511719</ele>
        <time>2016-07-11T12:03:46.000Z</time>
      </trkpt>
      <trkpt lat="44.39637" lon="6.35949">
        <ele>1535.1999511719</ele>
        <time>2016-07-11T12:03:50.000Z</time>
      </trkpt>
      <trkpt lat="44.39637" lon="6.35957">
        <ele>1536.5999755859</ele>
        <time>2016-07-11T12:03:55.000Z</time>
      </trkpt>
      <trkpt lat="44.39637" lon="6.35961">
        <ele>1537.1999511719</ele>
        <time>2016-07-11T12:03:57.000Z</time>
      </trkpt>
      <trkpt lat="44.39636" lon="6.35969">
        <ele>1538.8000488281</ele>
        <time>2016-07-11T12:04:01.000Z</time>
      </trkpt>
      <trkpt lat="44.39636" lon="6.35973">
        <ele>1539.4000244141</ele>
        <time>2016-07-11T12:04:03.000Z</time>
      </trkpt>
      <trkpt lat="44.39634" lon="6.35976">
        <ele>1540</ele>
        <time>2016-07-11T12:04:10.000Z</time>
      </trkpt>
      <trkpt lat="44.39629" lon="6.35987">
        <ele>1542.5999755859</ele>
        <time>2016-07-11T12:04:42.000Z</time>
      </trkpt>
      <trkpt lat="44.39622" lon="6.35986">
        <ele>1542.8000488281</ele>
        <time>2016-07-11T12:04:48.000Z</time>
      </trkpt>
      <trkpt lat="44.39616" lon="6.35981">
        <ele>1542</ele>
        <time>2016-07-11T12:04:53.000Z</time>
      </trkpt>
      <trkpt lat="44.39604" lon="6.35978">
        <ele>1541.4000244141</ele>
        <time>2016-07-11T12:05:02.000Z</time>
      </trkpt>
      <trkpt lat="44.39603" lon="6.35978">
        <ele>1541.4000244141</ele>
        <time>2016-07-11T12:05:03.000Z</time>
      </trkpt>
      <trkpt lat="44.39595" lon="6.35979">
        <ele>1541.5999755859</ele>
        <time>2016-07-11T12:05:09.000Z</time>
      </trkpt>
      <trkpt lat="44.39583" lon="6.35982">
        <ele>1542</ele>
        <time>2016-07-11T12:05:18.000Z</time>
      </trkpt>
      <trkpt lat="44.3958" lon="6.35982">
        <ele>1541.8000488281</ele>
        <time>2016-07-11T12:05:21.000Z</time>
      </trkpt>
      <trkpt lat="44.3957" lon="6.35985">
        <ele>1542.5999755859</ele>
        <time>2016-07-11T12:05:29.000Z</time>
      </trkpt>
      <trkpt lat="44.39568" lon="6.35986">
        <ele>1542.5999755859</ele>
        <time>2016-07-11T12:05:30.000Z</time>
      </trkpt>
      <trkpt lat="44.39562" lon="6.35987">
        <ele>1542.8000488281</ele>
        <time>2016-07-11T12:05:35.000Z</time>
      </trkpt>
      <trkpt lat="44.39552" lon="6.35991">
        <ele>1543.8000488281</ele>
        <time>2016-07-11T12:05:43.000Z</time>
      </trkpt>
      <trkpt lat="44.39545" lon="6.35992">
        <ele>1544.1999511719</ele>
        <time>2016-07-11T12:05:48.000Z</time>
      </trkpt>
      <trkpt lat="44.39535" lon="6.35994">
        <ele>1544</ele>
        <time>2016-07-11T12:05:53.000Z</time>
      </trkpt>
      <trkpt lat="44.39529" lon="6.35998">
        <ele>1544.4000244141</ele>
        <time>2016-07-11T12:05:58.000Z</time>
      </trkpt>
      <trkpt lat="44.39527" lon="6.35998">
        <ele>1544.4000244141</ele>
        <time>2016-07-11T12:05:59.000Z</time>
      </trkpt>
      <trkpt lat="44.39522" lon="6.36003">
        <ele>1545</ele>
        <time>2016-07-11T12:06:05.000Z</time>
      </trkpt>
      <trkpt lat="44.39518" lon="6.36008">
        <ele>1545.8000488281</ele>
        <time>2016-07-11T12:06:08.000Z</time>
      </trkpt>
      <trkpt lat="44.39511" lon="6.36018">
        <ele>1547.5999755859</ele>
        <time>2016-07-11T12:06:14.000Z</time>
      </trkpt>
      <trkpt lat="44.39499" lon="6.36032">
        <ele>1549.5999755859</ele>
        <time>2016-07-11T12:06:22.000Z</time>
      </trkpt>
      <trkpt lat="44.39489" lon="6.36041">
        <ele>1550.4000244141</ele>
        <time>2016-07-11T12:06:30.000Z</time>
      </trkpt>
      <trkpt lat="44.39481" lon="6.36047">
        <ele>1550.8000488281</ele>
        <time>2016-07-11T12:06:36.000Z</time>
      </trkpt>
      <trkpt lat="44.39473" lon="6.36055">
        <ele>1551.5999755859</ele>
        <time>2016-07-11T12:06:43.000Z</time>
      </trkpt>
      <trkpt lat="44.39466" lon="6.36062">
        <ele>1552.1999511719</ele>
        <time>2016-07-11T12:06:49.000Z</time>
      </trkpt>
      <trkpt lat="44.3946" lon="6.3607">
        <ele>1552.5999755859</ele>
        <time>2016-07-11T12:06:55.000Z</time>
      </trkpt>
      <trkpt lat="44.39456" lon="6.36081">
        <ele>1553.8000488281</ele>
        <time>2016-07-11T12:07:02.000Z</time>
      </trkpt>
      <trkpt lat="44.39455" lon="6.36084">
        <ele>1554</ele>
        <time>2016-07-11T12:07:04.000Z</time>
      </trkpt>
      <trkpt lat="44.39451" lon="6.3609">
        <ele>1554.5999755859</ele>
        <time>2016-07-11T12:07:08.000Z</time>
      </trkpt>
      <trkpt lat="44.39448" lon="6.36096">
        <ele>1555.1999511719</ele>
        <time>2016-07-11T12:07:17.000Z</time>
      </trkpt>
      <trkpt lat="44.39449" lon="6.36098">
        <ele>1555.5999755859</ele>
        <time>2016-07-11T12:07:29.000Z</time>
      </trkpt>
      <trkpt lat="44.39443" lon="6.36102">
        <ele>1555.8000488281</ele>
        <time>2016-07-11T12:07:56.000Z</time>
      </trkpt>
      <trkpt lat="44.3944" lon="6.36103">
        <ele>1555.8000488281</ele>
        <time>2016-07-11T12:07:58.000Z</time>
      </trkpt>
      <trkpt lat="44.39436" lon="6.36099">
        <ele>1555.1999511719</ele>
        <time>2016-07-11T12:08:04.000Z</time>
      </trkpt>
      <trkpt lat="44.39435" lon="6.36099">
        <ele>1555</ele>
        <time>2016-07-11T12:08:11.000Z</time>
      </trkpt>
      <trkpt lat="44.39434" lon="6.36101">
        <ele>1555.4000244141</ele>
        <time>2016-07-11T12:08:23.000Z</time>
      </trkpt>
      <trkpt lat="44.39432" lon="6.361">
        <ele>1555.1999511719</ele>
        <time>2016-07-11T12:08:32.000Z</time>
      </trkpt>
      <trkpt lat="44.39432" lon="6.36099">
        <ele>1555</ele>
        <time>2016-07-11T12:08:38.000Z</time>
      </trkpt>
      <trkpt lat="44.39428" lon="6.36093">
        <ele>1554</ele>
        <time>2016-07-11T12:08:45.000Z</time>
      </trkpt>
      <trkpt lat="44.39421" lon="6.36085">
        <ele>1552.8000488281</ele>
        <time>2016-07-11T12:08:52.000Z</time>
      </trkpt>
      <trkpt lat="44.39419" lon="6.36084">
        <ele>1552.5999755859</ele>
        <time>2016-07-11T12:08:53.000Z</time>
      </trkpt>
      <trkpt lat="44.39417" lon="6.36077">
        <ele>1551.5999755859</ele>
        <time>2016-07-11T12:08:59.000Z</time>
      </trkpt>
      <trkpt lat="44.39414" lon="6.36071">
        <ele>1550.5999755859</ele>
        <time>2016-07-11T12:09:03.000Z</time>
      </trkpt>
      <trkpt lat="44.3941" lon="6.36065">
        <ele>1549.8000488281</ele>
        <time>2016-07-11T12:09:08.000Z</time>
      </trkpt>
      <trkpt lat="44.39409" lon="6.36064">
        <ele>1549.4000244141</ele>
        <time>2016-07-11T12:09:09.000Z</time>
      </trkpt>
      <trkpt lat="44.39408" lon="6.36062">
        <ele>1549.1999511719</ele>
        <time>2016-07-11T12:09:10.000Z</time>
      </trkpt>
      <trkpt lat="44.39405" lon="6.36058">
        <ele>1548.1999511719</ele>
        <time>2016-07-11T12:09:14.000Z</time>
      </trkpt>
      <trkpt lat="44.39402" lon="6.36048">
        <ele>1546</ele>
        <time>2016-07-11T12:09:26.000Z</time>
      </trkpt>
      <trkpt lat="44.394" lon="6.36044">
        <ele>1545</ele>
        <time>2016-07-11T12:09:29.000Z</time>
      </trkpt>
      <trkpt lat="44.39395" lon="6.36033">
        <ele>1542.8000488281</ele>
        <time>2016-07-11T12:09:35.000Z</time>
      </trkpt>
      <trkpt lat="44.39395" lon="6.36031">
        <ele>1542.4000244141</ele>
        <time>2016-07-11T12:09:36.000Z</time>
      </trkpt>
      <trkpt lat="44.39394" lon="6.36022">
        <ele>1540.4000244141</ele>
        <time>2016-07-11T12:09:43.000Z</time>
      </trkpt>
      <trkpt lat="44.39396" lon="6.36016">
        <ele>1539.1999511719</ele>
        <time>2016-07-11T12:09:48.000Z</time>
      </trkpt>
      <trkpt lat="44.39396" lon="6.36013">
        <ele>1538.5999755859</ele>
        <time>2016-07-11T12:09:50.000Z</time>
      </trkpt>
      <trkpt lat="44.39396" lon="6.36006">
        <ele>1537.1999511719</ele>
        <time>2016-07-11T12:09:55.000Z</time>
      </trkpt>
      <trkpt lat="44.39394" lon="6.36003">
        <ele>1536.5999755859</ele>
        <time>2016-07-11T12:10:04.000Z</time>
      </trkpt>
      <trkpt lat="44.39393" lon="6.35997">
        <ele>1535.5999755859</ele>
        <time>2016-07-11T12:10:23.000Z</time>
      </trkpt>
      <trkpt lat="44.39393" lon="6.35996">
        <ele>1535.1999511719</ele>
        <time>2016-07-11T12:10:45.000Z</time>
      </trkpt>
      <trkpt lat="44.39392" lon="6.35996">
        <ele>1535</ele>
        <time>2016-07-11T12:10:49.000Z</time>
      </trkpt>
      <trkpt lat="44.39393" lon="6.35995">
        <ele>1535</ele>
        <time>2016-07-11T12:10:54.000Z</time>
      </trkpt>
      <trkpt lat="44.39393" lon="6.35997">
        <ele>1535.4000244141</ele>
        <time>2016-07-11T12:11:19.000Z</time>
      </trkpt>
      <trkpt lat="44.3939" lon="6.35992">
        <ele>1534.1999511719</ele>
        <time>2016-07-11T12:11:24.000Z</time>
      </trkpt>
      <trkpt lat="44.39388" lon="6.35991">
        <ele>1534</ele>
        <time>2016-07-11T12:11:25.000Z</time>
      </trkpt>
      <trkpt lat="44.39387" lon="6.35989">
        <ele>1533.8000488281</ele>
        <time>2016-07-11T12:11:26.000Z</time>
      </trkpt>
      <trkpt lat="44.39384" lon="6.35984">
        <ele>1532.5999755859</ele>
        <time>2016-07-11T12:11:31.000Z</time>
      </trkpt>
      <trkpt lat="44.39378" lon="6.35976">
        <ele>1530.4000244141</ele>
        <time>2016-07-11T12:11:37.000Z</time>
      </trkpt>
      <trkpt lat="44.39377" lon="6.35975">
        <ele>1530</ele>
        <time>2016-07-11T12:11:38.000Z</time>
      </trkpt>
      <trkpt lat="44.39375" lon="6.35972">
        <ele>1529.1999511719</ele>
        <time>2016-07-11T12:11:40.000Z</time>
      </trkpt>
      <trkpt lat="44.39369" lon="6.35964">
        <ele>1527.1999511719</ele>
        <time>2016-07-11T12:11:46.000Z</time>
      </trkpt>
      <trkpt lat="44.39369" lon="6.35963">
        <ele>1526.8000488281</ele>
        <time>2016-07-11T12:11:47.000Z</time>
      </trkpt>
      <trkpt lat="44.39362" lon="6.35951">
        <ele>1524</ele>
        <time>2016-07-11T12:11:55.000Z</time>
      </trkpt>
      <trkpt lat="44.39358" lon="6.35945">
        <ele>1522.5999755859</ele>
        <time>2016-07-11T12:11:59.000Z</time>
      </trkpt>
      <trkpt lat="44.39358" lon="6.35936">
        <ele>1520.4000244141</ele>
        <time>2016-07-11T12:12:06.000Z</time>
      </trkpt>
      <trkpt lat="44.39355" lon="6.35926">
        <ele>1518</ele>
        <time>2016-07-11T12:12:12.000Z</time>
      </trkpt>
      <trkpt lat="44.39352" lon="6.35921">
        <ele>1517.1999511719</ele>
        <time>2016-07-11T12:12:15.000Z</time>
      </trkpt>
      <trkpt lat="44.39347" lon="6.35917">
        <ele>1516.1999511719</ele>
        <time>2016-07-11T12:12:20.000Z</time>
      </trkpt>
      <trkpt lat="44.39342" lon="6.35915">
        <ele>1515.8000488281</ele>
        <time>2016-07-11T12:12:25.000Z</time>
      </trkpt>
      <trkpt lat="44.39335" lon="6.3591">
        <ele>1515</ele>
        <time>2016-07-11T12:12:31.000Z</time>
      </trkpt>
      <trkpt lat="44.39329" lon="6.35907">
        <ele>1514.5999755859</ele>
        <time>2016-07-11T12:12:37.000Z</time>
      </trkpt>
      <trkpt lat="44.39328" lon="6.35907">
        <ele>1514.4000244141</ele>
        <time>2016-07-11T12:12:38.000Z</time>
      </trkpt>
      <trkpt lat="44.3932" lon="6.35902">
        <ele>1513.5999755859</ele>
        <time>2016-07-11T12:12:45.000Z</time>
      </trkpt>
      <trkpt lat="44.39313" lon="6.35885">
        <ele>1510</ele>
        <time>2016-07-11T12:12:59.000Z</time>
      </trkpt>
      <trkpt lat="44.39312" lon="6.35884">
        <ele>1509.5999755859</ele>
        <time>2016-07-11T12:13:00.000Z</time>
      </trkpt>
      <trkpt lat="44.39312" lon="6.3588">
        <ele>1508.8000488281</ele>
        <time>2016-07-11T12:13:02.000Z</time>
      </trkpt>
      <trkpt lat="44.39313" lon="6.35871">
        <ele>1506.4000244141</ele>
        <time>2016-07-11T12:13:09.000Z</time>
      </trkpt>
      <trkpt lat="44.39313" lon="6.35869">
        <ele>1506.1999511719</ele>
        <time>2016-07-11T12:13:10.000Z</time>
      </trkpt>
      <trkpt lat="44.39314" lon="6.35867">
        <ele>1505.4000244141</ele>
        <time>2016-07-11T12:13:12.000Z</time>
      </trkpt>
      <trkpt lat="44.39313" lon="6.35859">
        <ele>1503.5999755859</ele>
        <time>2016-07-11T12:13:18.000Z</time>
      </trkpt>
      <trkpt lat="44.39311" lon="6.35852">
        <ele>1502</ele>
        <time>2016-07-11T12:13:23.000Z</time>
      </trkpt>
      <trkpt lat="44.39311" lon="6.35851">
        <ele>1501.8000488281</ele>
        <time>2016-07-11T12:13:24.000Z</time>
      </trkpt>
      <trkpt lat="44.3931" lon="6.3585">
        <ele>1501.4000244141</ele>
        <time>2016-07-11T12:13:25.000Z</time>
      </trkpt>
      <trkpt lat="44.39308" lon="6.35846">
        <ele>1500.8000488281</ele>
        <time>2016-07-11T12:13:28.000Z</time>
      </trkpt>
      <trkpt lat="44.39307" lon="6.35844">
        <ele>1500.4000244141</ele>
        <time>2016-07-11T12:13:30.000Z</time>
      </trkpt>
      <trkpt lat="44.39303" lon="6.35842">
        <ele>1499.8000488281</ele>
        <time>2016-07-11T12:13:34.000Z</time>
      </trkpt>
      <trkpt lat="44.39301" lon="6.35837">
        <ele>1498.5999755859</ele>
        <time>2016-07-11T12:13:38.000Z</time>
      </trkpt>
      <trkpt lat="44.393" lon="6.35834">
        <ele>1498</ele>
        <time>2016-07-11T12:13:40.000Z</time>
      </trkpt>
      <trkpt lat="44.39298" lon="6.35831">
        <ele>1497.4000244141</ele>
        <time>2016-07-11T12:13:43.000Z</time>
      </trkpt>
      <trkpt lat="44.39299" lon="6.35827">
        <ele>1496.4000244141</ele>
        <time>2016-07-11T12:13:47.000Z</time>
      </trkpt>
      <trkpt lat="44.39296" lon="6.35819">
        <ele>1494.5999755859</ele>
        <time>2016-07-11T12:13:52.000Z</time>
      </trkpt>
      <trkpt lat="44.39296" lon="6.35811">
        <ele>1493</ele>
        <time>2016-07-11T12:13:58.000Z</time>
      </trkpt>
      <trkpt lat="44.39295" lon="6.35807">
        <ele>1492.1999511719</ele>
        <time>2016-07-11T12:14:02.000Z</time>
      </trkpt>
      <trkpt lat="44.39295" lon="6.35805">
        <ele>1491.8000488281</ele>
        <time>2016-07-11T12:14:04.000Z</time>
      </trkpt>
      <trkpt lat="44.39292" lon="6.35794">
        <ele>1489.8000488281</ele>
        <time>2016-07-11T12:14:11.000Z</time>
      </trkpt>
      <trkpt lat="44.39288" lon="6.35786">
        <ele>1488.5999755859</ele>
        <time>2016-07-11T12:14:17.000Z</time>
      </trkpt>
      <trkpt lat="44.39288" lon="6.35785">
        <ele>1488.4000244141</ele>
        <time>2016-07-11T12:14:18.000Z</time>
      </trkpt>
      <trkpt lat="44.39287" lon="6.35783">
        <ele>1488.1999511719</ele>
        <time>2016-07-11T12:14:20.000Z</time>
      </trkpt>
      <trkpt lat="44.39285" lon="6.35778">
        <ele>1487.4000244141</ele>
        <time>2016-07-11T12:14:24.000Z</time>
      </trkpt>
      <trkpt lat="44.39282" lon="6.35774">
        <ele>1486.8000488281</ele>
        <time>2016-07-11T12:14:27.000Z</time>
      </trkpt>
      <trkpt lat="44.39279" lon="6.35768">
        <ele>1485.4000244141</ele>
        <time>2016-07-11T12:14:32.000Z</time>
      </trkpt>
      <trkpt lat="44.39278" lon="6.35767">
        <ele>1485</ele>
        <time>2016-07-11T12:14:33.000Z</time>
      </trkpt>
      <trkpt lat="44.39276" lon="6.35765">
        <ele>1484.4000244141</ele>
        <time>2016-07-11T12:14:35.000Z</time>
      </trkpt>
      <trkpt lat="44.39276" lon="6.35761">
        <ele>1483.8000488281</ele>
        <time>2016-07-11T12:14:38.000Z</time>
      </trkpt>
      <trkpt lat="44.39275" lon="6.35751">
        <ele>1482</ele>
        <time>2016-07-11T12:14:43.000Z</time>
      </trkpt>
      <trkpt lat="44.39275" lon="6.35748">
        <ele>1481.1999511719</ele>
        <time>2016-07-11T12:14:45.000Z</time>
      </trkpt>
      <trkpt lat="44.39269" lon="6.35744">
        <ele>1480</ele>
        <time>2016-07-11T12:14:49.000Z</time>
      </trkpt>
      <trkpt lat="44.39267" lon="6.3574">
        <ele>1479</ele>
        <time>2016-07-11T12:14:52.000Z</time>
      </trkpt>
      <trkpt lat="44.39263" lon="6.35729">
        <ele>1476.4000244141</ele>
        <time>2016-07-11T12:14:58.000Z</time>
      </trkpt>
      <trkpt lat="44.39262" lon="6.35728">
        <ele>1476</ele>
        <time>2016-07-11T12:14:59.000Z</time>
      </trkpt>
      <trkpt lat="44.39257" lon="6.35718">
        <ele>1473.1999511719</ele>
        <time>2016-07-11T12:15:05.000Z</time>
      </trkpt>
      <trkpt lat="44.39255" lon="6.35715">
        <ele>1472</ele>
        <time>2016-07-11T12:15:07.000Z</time>
      </trkpt>
      <trkpt lat="44.39254" lon="6.3571">
        <ele>1470.5999755859</ele>
        <time>2016-07-11T12:15:13.000Z</time>
      </trkpt>
      <trkpt lat="44.39249" lon="6.35703">
        <ele>1468.4000244141</ele>
        <time>2016-07-11T12:15:20.000Z</time>
      </trkpt>
      <trkpt lat="44.39244" lon="6.35699">
        <ele>1466.8000488281</ele>
        <time>2016-07-11T12:15:25.000Z</time>
      </trkpt>
      <trkpt lat="44.39238" lon="6.35691">
        <ele>1464.1999511719</ele>
        <time>2016-07-11T12:15:32.000Z</time>
      </trkpt>
      <trkpt lat="44.39236" lon="6.35685">
        <ele>1462.4000244141</ele>
        <time>2016-07-11T12:15:36.000Z</time>
      </trkpt>
      <trkpt lat="44.39236" lon="6.35682">
        <ele>1461.8000488281</ele>
        <time>2016-07-11T12:15:38.000Z</time>
      </trkpt>
      <trkpt lat="44.39233" lon="6.3567">
        <ele>1458.5999755859</ele>
        <time>2016-07-11T12:15:46.000Z</time>
      </trkpt>
      <trkpt lat="44.39233" lon="6.3566">
        <ele>1456.1999511719</ele>
        <time>2016-07-11T12:15:52.000Z</time>
      </trkpt>
      <trkpt lat="44.39233" lon="6.35646">
        <ele>1452.8000488281</ele>
        <time>2016-07-11T12:16:02.000Z</time>
      </trkpt>
      <trkpt lat="44.39232" lon="6.35644">
        <ele>1452.4000244141</ele>
        <time>2016-07-11T12:16:03.000Z</time>
      </trkpt>
      <trkpt lat="44.39231" lon="6.35638">
        <ele>1451</ele>
        <time>2016-07-11T12:16:08.000Z</time>
      </trkpt>
      <trkpt lat="44.39228" lon="6.35631">
        <ele>1449.1999511719</ele>
        <time>2016-07-11T12:16:13.000Z</time>
      </trkpt>
      <trkpt lat="44.39226" lon="6.35622">
        <ele>1447</ele>
        <time>2016-07-11T12:16:20.000Z</time>
      </trkpt>
      <trkpt lat="44.39224" lon="6.35617">
        <ele>1445.8000488281</ele>
        <time>2016-07-11T12:16:25.000Z</time>
      </trkpt>
      <trkpt lat="44.39219" lon="6.35617">
        <ele>1445.1999511719</ele>
        <time>2016-07-11T12:16:30.000Z</time>
      </trkpt>
      <trkpt lat="44.39214" lon="6.35617">
        <ele>1444.5999755859</ele>
        <time>2016-07-11T12:16:35.000Z</time>
      </trkpt>
      <trkpt lat="44.3921" lon="6.35618">
        <ele>1444.4000244141</ele>
        <time>2016-07-11T12:16:38.000Z</time>
      </trkpt>
      <trkpt lat="44.392" lon="6.35619">
        <ele>1443.4000244141</ele>
        <time>2016-07-11T12:16:46.000Z</time>
      </trkpt>
      <trkpt lat="44.39191" lon="6.35618">
        <ele>1442.1999511719</ele>
        <time>2016-07-11T12:16:53.000Z</time>
      </trkpt>
      <trkpt lat="44.3919" lon="6.35618">
        <ele>1442</ele>
        <time>2016-07-11T12:16:54.000Z</time>
      </trkpt>
      <trkpt lat="44.39187" lon="6.35616">
        <ele>1441.4000244141</ele>
        <time>2016-07-11T12:16:57.000Z</time>
      </trkpt>
      <trkpt lat="44.39177" lon="6.35615">
        <ele>1440</ele>
        <time>2016-07-11T12:17:05.000Z</time>
      </trkpt>
      <trkpt lat="44.39165" lon="6.35612">
        <ele>1438.1999511719</ele>
        <time>2016-07-11T12:17:14.000Z</time>
      </trkpt>
      <trkpt lat="44.39156" lon="6.35612">
        <ele>1437</ele>
        <time>2016-07-11T12:17:21.000Z</time>
      </trkpt>
      <trkpt lat="44.39148" lon="6.35613">
        <ele>1436.1999511719</ele>
        <time>2016-07-11T12:17:27.000Z</time>
      </trkpt>
      <trkpt lat="44.39146" lon="6.35613">
        <ele>1435.8000488281</ele>
        <time>2016-07-11T12:17:30.000Z</time>
      </trkpt>
      <trkpt lat="44.39141" lon="6.35613">
        <ele>1435.1999511719</ele>
        <time>2016-07-11T12:17:36.000Z</time>
      </trkpt>
      <trkpt lat="44.39134" lon="6.35613">
        <ele>1434.1999511719</ele>
        <time>2016-07-11T12:17:43.000Z</time>
      </trkpt>
      <trkpt lat="44.39132" lon="6.35613">
        <ele>1434</ele>
        <time>2016-07-11T12:17:44.000Z</time>
      </trkpt>
      <trkpt lat="44.3913" lon="6.35613">
        <ele>1433.8000488281</ele>
        <time>2016-07-11T12:17:46.000Z</time>
      </trkpt>
      <trkpt lat="44.39124" lon="6.35611">
        <ele>1432.8000488281</ele>
        <time>2016-07-11T12:17:52.000Z</time>
      </trkpt>
      <trkpt lat="44.39123" lon="6.35611">
        <ele>1432.5999755859</ele>
        <time>2016-07-11T12:17:53.000Z</time>
      </trkpt>
      <trkpt lat="44.39119" lon="6.3561">
        <ele>1431.8000488281</ele>
        <time>2016-07-11T12:17:57.000Z</time>
      </trkpt>
      <trkpt lat="44.3911" lon="6.3561">
        <ele>1430.8000488281</ele>
        <time>2016-07-11T12:18:03.000Z</time>
      </trkpt>
      <trkpt lat="44.39107" lon="6.35611">
        <ele>1430.5999755859</ele>
        <time>2016-07-11T12:18:06.000Z</time>
      </trkpt>
      <trkpt lat="44.39097" lon="6.35612">
        <ele>1430</ele>
        <time>2016-07-11T12:18:13.000Z</time>
      </trkpt>
      <trkpt lat="44.39087" lon="6.35614">
        <ele>1429.1999511719</ele>
        <time>2016-07-11T12:18:20.000Z</time>
      </trkpt>
      <trkpt lat="44.39078" lon="6.35612">
        <ele>1428</ele>
        <time>2016-07-11T12:18:27.000Z</time>
      </trkpt>
      <trkpt lat="44.39074" lon="6.35611">
        <ele>1427.4000244141</ele>
        <time>2016-07-11T12:18:30.000Z</time>
      </trkpt>
      <trkpt lat="44.39068" lon="6.35609">
        <ele>1426.4000244141</ele>
        <time>2016-07-11T12:18:35.000Z</time>
      </trkpt>
      <trkpt lat="44.39064" lon="6.35608">
        <ele>1425.5999755859</ele>
        <time>2016-07-11T12:18:39.000Z</time>
      </trkpt>
      <trkpt lat="44.39061" lon="6.35602">
        <ele>1424.4000244141</ele>
        <time>2016-07-11T12:18:44.000Z</time>
      </trkpt>
      <trkpt lat="44.39061" lon="6.35599">
        <ele>1424</ele>
        <time>2016-07-11T12:18:47.000Z</time>
      </trkpt>
      <trkpt lat="44.39058" lon="6.35589">
        <ele>1422</ele>
        <time>2016-07-11T12:18:55.000Z</time>
      </trkpt>
      <trkpt lat="44.39057" lon="6.35588">
        <ele>1421.8000488281</ele>
        <time>2016-07-11T12:18:56.000Z</time>
      </trkpt>
      <trkpt lat="44.39056" lon="6.35587">
        <ele>1421.4000244141</ele>
        <time>2016-07-11T12:18:58.000Z</time>
      </trkpt>
      <trkpt lat="44.39052" lon="6.35583">
        <ele>1420.1999511719</ele>
        <time>2016-07-11T12:19:04.000Z</time>
      </trkpt>
      <trkpt lat="44.3905" lon="6.35579">
        <ele>1419.4000244141</ele>
        <time>2016-07-11T12:19:09.000Z</time>
      </trkpt>
      <trkpt lat="44.39049" lon="6.35576">
        <ele>1418.8000488281</ele>
        <time>2016-07-11T12:19:14.000Z</time>
      </trkpt>
      <trkpt lat="44.39048" lon="6.35578">
        <ele>1419</ele>
        <time>2016-07-11T12:19:24.000Z</time>
      </trkpt>
      <trkpt lat="44.39044" lon="6.35575">
        <ele>1418.1999511719</ele>
        <time>2016-07-11T12:19:38.000Z</time>
      </trkpt>
      <trkpt lat="44.39044" lon="6.35571">
        <ele>1417.4000244141</ele>
        <time>2016-07-11T12:19:43.000Z</time>
      </trkpt>
      <trkpt lat="44.39042" lon="6.35565">
        <ele>1416.1999511719</ele>
        <time>2016-07-11T12:19:49.000Z</time>
      </trkpt>
      <trkpt lat="44.39041" lon="6.35558">
        <ele>1414.8000488281</ele>
        <time>2016-07-11T12:19:54.000Z</time>
      </trkpt>
      <trkpt lat="44.39041" lon="6.35556">
        <ele>1414.4000244141</ele>
        <time>2016-07-11T12:19:56.000Z</time>
      </trkpt>
      <trkpt lat="44.39039" lon="6.35549">
        <ele>1412.8000488281</ele>
        <time>2016-07-11T12:20:01.000Z</time>
      </trkpt>
      <trkpt lat="44.39036" lon="6.35543">
        <ele>1411.1999511719</ele>
        <time>2016-07-11T12:20:07.000Z</time>
      </trkpt>
      <trkpt lat="44.39036" lon="6.35542">
        <ele>1411</ele>
        <time>2016-07-11T12:20:08.000Z</time>
      </trkpt>
      <trkpt lat="44.39037" lon="6.35535">
        <ele>1409.8000488281</ele>
        <time>2016-07-11T12:20:15.000Z</time>
      </trkpt>
      <trkpt lat="44.39035" lon="6.3553">
        <ele>1408.8000488281</ele>
        <time>2016-07-11T12:20:21.000Z</time>
      </trkpt>
      <trkpt lat="44.39036" lon="6.3553">
        <ele>1408.8000488281</ele>
        <time>2016-07-11T12:20:27.000Z</time>
      </trkpt>
      <trkpt lat="44.39033" lon="6.35524">
        <ele>1407.4000244141</ele>
        <time>2016-07-11T12:20:38.000Z</time>
      </trkpt>
      <trkpt lat="44.3903" lon="6.35518">
        <ele>1406</ele>
        <time>2016-07-11T12:20:44.000Z</time>
      </trkpt>
      <trkpt lat="44.39029" lon="6.3551">
        <ele>1404.4000244141</ele>
        <time>2016-07-11T12:20:49.000Z</time>
      </trkpt>
      <trkpt lat="44.39031" lon="6.35505">
        <ele>1403.5999755859</ele>
        <time>2016-07-11T12:20:53.000Z</time>
      </trkpt>
      <trkpt lat="44.39033" lon="6.35499">
        <ele>1402.4000244141</ele>
        <time>2016-07-11T12:20:59.000Z</time>
      </trkpt>
      <trkpt lat="44.39033" lon="6.35495">
        <ele>1401.8000488281</ele>
        <time>2016-07-11T12:21:01.000Z</time>
      </trkpt>
      <trkpt lat="44.39033" lon="6.35487">
        <ele>1400.1999511719</ele>
        <time>2016-07-11T12:21:07.000Z</time>
      </trkpt>
      <trkpt lat="44.39033" lon="6.35481">
        <ele>1399.1999511719</ele>
        <time>2016-07-11T12:21:10.000Z</time>
      </trkpt>
      <trkpt lat="44.39033" lon="6.35477">
        <ele>1398.1999511719</ele>
        <time>2016-07-11T12:21:12.000Z</time>
      </trkpt>
      <trkpt lat="44.39034" lon="6.35468">
        <ele>1396.4000244141</ele>
        <time>2016-07-11T12:21:18.000Z</time>
      </trkpt>
      <trkpt lat="44.39037" lon="6.3546">
        <ele>1395</ele>
        <time>2016-07-11T12:21:24.000Z</time>
      </trkpt>
      <trkpt lat="44.39038" lon="6.35452">
        <ele>1393.4000244141</ele>
        <time>2016-07-11T12:21:29.000Z</time>
      </trkpt>
      <trkpt lat="44.39039" lon="6.35448">
        <ele>1392.8000488281</ele>
        <time>2016-07-11T12:21:32.000Z</time>
      </trkpt>
      <trkpt lat="44.39038" lon="6.35446">
        <ele>1392.1999511719</ele>
        <time>2016-07-11T12:21:34.000Z</time>
      </trkpt>
      <trkpt lat="44.39038" lon="6.35443">
        <ele>1391.5999755859</ele>
        <time>2016-07-11T12:21:36.000Z</time>
      </trkpt>
      <trkpt lat="44.39033" lon="6.35434">
        <ele>1389.5999755859</ele>
        <time>2016-07-11T12:21:44.000Z</time>
      </trkpt>
      <trkpt lat="44.39028" lon="6.35429">
        <ele>1388.4000244141</ele>
        <time>2016-07-11T12:21:50.000Z</time>
      </trkpt>
      <trkpt lat="44.39019" lon="6.35424">
        <ele>1387</ele>
        <time>2016-07-11T12:21:59.000Z</time>
      </trkpt>
      <trkpt lat="44.39015" lon="6.35423">
        <ele>1386.5999755859</ele>
        <time>2016-07-11T12:22:03.000Z</time>
      </trkpt>
      <trkpt lat="44.39013" lon="6.35422">
        <ele>1386.1999511719</ele>
        <time>2016-07-11T12:22:06.000Z</time>
      </trkpt>
      <trkpt lat="44.39009" lon="6.35418">
        <ele>1385.1999511719</ele>
        <time>2016-07-11T12:22:12.000Z</time>
      </trkpt>
      <trkpt lat="44.39005" lon="6.35416">
        <ele>1384.8000488281</ele>
        <time>2016-07-11T12:22:16.000Z</time>
      </trkpt>
      <trkpt lat="44.39003" lon="6.35415">
        <ele>1384.4000244141</ele>
        <time>2016-07-11T12:22:22.000Z</time>
      </trkpt>
      <trkpt lat="44.38997" lon="6.35415">
        <ele>1384.4000244141</ele>
        <time>2016-07-11T12:22:47.000Z</time>
      </trkpt>
      <trkpt lat="44.38991" lon="6.35412">
        <ele>1383.5999755859</ele>
        <time>2016-07-11T12:22:53.000Z</time>
      </trkpt>
      <trkpt lat="44.3899" lon="6.35412">
        <ele>1383.4000244141</ele>
        <time>2016-07-11T12:22:54.000Z</time>
      </trkpt>
      <trkpt lat="44.38986" lon="6.35406">
        <ele>1382.1999511719</ele>
        <time>2016-07-11T12:22:58.000Z</time>
      </trkpt>
      <trkpt lat="44.3898" lon="6.35398">
        <ele>1380.1999511719</ele>
        <time>2016-07-11T12:23:05.000Z</time>
      </trkpt>
      <trkpt lat="44.38979" lon="6.35397">
        <ele>1380</ele>
        <time>2016-07-11T12:23:06.000Z</time>
      </trkpt>
      <trkpt lat="44.38978" lon="6.35391">
        <ele>1379</ele>
        <time>2016-07-11T12:23:10.000Z</time>
      </trkpt>
      <trkpt lat="44.38977" lon="6.35381">
        <ele>1377.1999511719</ele>
        <time>2016-07-11T12:23:17.000Z</time>
      </trkpt>
      <trkpt lat="44.38976" lon="6.3537">
        <ele>1375.4000244141</ele>
        <time>2016-07-11T12:23:24.000Z</time>
      </trkpt>
      <trkpt lat="44.38974" lon="6.35365">
        <ele>1374.4000244141</ele>
        <time>2016-07-11T12:23:28.000Z</time>
      </trkpt>
      <trkpt lat="44.38972" lon="6.35355">
        <ele>1372.8000488281</ele>
        <time>2016-07-11T12:23:35.000Z</time>
      </trkpt>
      <trkpt lat="44.38968" lon="6.35345">
        <ele>1370.8000488281</ele>
        <time>2016-07-11T12:23:43.000Z</time>
      </trkpt>
      <trkpt lat="44.38968" lon="6.35343">
        <ele>1370.5999755859</ele>
        <time>2016-07-11T12:23:44.000Z</time>
      </trkpt>
      <trkpt lat="44.38966" lon="6.35335">
        <ele>1369</ele>
        <time>2016-07-11T12:23:50.000Z</time>
      </trkpt>
      <trkpt lat="44.38966" lon="6.35331">
        <ele>1368.4000244141</ele>
        <time>2016-07-11T12:23:52.000Z</time>
      </trkpt>
      <trkpt lat="44.38966" lon="6.35328">
        <ele>1367.8000488281</ele>
        <time>2016-07-11T12:23:54.000Z</time>
      </trkpt>
      <trkpt lat="44.38964" lon="6.35319">
        <ele>1366</ele>
        <time>2016-07-11T12:24:00.000Z</time>
      </trkpt>
      <trkpt lat="44.38963" lon="6.35318">
        <ele>1365.5999755859</ele>
        <time>2016-07-11T12:24:01.000Z</time>
      </trkpt>
      <trkpt lat="44.38961" lon="6.35314">
        <ele>1365</ele>
        <time>2016-07-11T12:24:03.000Z</time>
      </trkpt>
      <trkpt lat="44.38956" lon="6.35307">
        <ele>1364</ele>
        <time>2016-07-11T12:24:09.000Z</time>
      </trkpt>
      <trkpt lat="44.38954" lon="6.35304">
        <ele>1363.5999755859</ele>
        <time>2016-07-11T12:24:11.000Z</time>
      </trkpt>
      <trkpt lat="44.3895" lon="6.35293">
        <ele>1362.1999511719</ele>
        <time>2016-07-11T12:24:19.000Z</time>
      </trkpt>
      <trkpt lat="44.38948" lon="6.35289">
        <ele>1361.5999755859</ele>
        <time>2016-07-11T12:24:22.000Z</time>
      </trkpt>
      <trkpt lat="44.38944" lon="6.35283">
        <ele>1361</ele>
        <time>2016-07-11T12:24:29.000Z</time>
      </trkpt>
      <trkpt lat="44.3894" lon="6.3528">
        <ele>1360.5999755859</ele>
        <time>2016-07-11T12:24:33.000Z</time>
      </trkpt>
      <trkpt lat="44.38939" lon="6.35279">
        <ele>1360.5999755859</ele>
        <time>2016-07-11T12:24:35.000Z</time>
      </trkpt>
      <trkpt lat="44.38937" lon="6.35276">
        <ele>1360.1999511719</ele>
        <time>2016-07-11T12:24:39.000Z</time>
      </trkpt>
      <trkpt lat="44.38931" lon="6.35269">
        <ele>1359.4000244141</ele>
        <time>2016-07-11T12:24:47.000Z</time>
      </trkpt>
      <trkpt lat="44.38929" lon="6.35266">
        <ele>1359.1999511719</ele>
        <time>2016-07-11T12:24:50.000Z</time>
      </trkpt>
      <trkpt lat="44.38927" lon="6.35265">
        <ele>1359</ele>
        <time>2016-07-11T12:24:52.000Z</time>
      </trkpt>
      <trkpt lat="44.3892" lon="6.35257">
        <ele>1358.1999511719</ele>
        <time>2016-07-11T12:24:59.000Z</time>
      </trkpt>
      <trkpt lat="44.38913" lon="6.35252">
        <ele>1357.5999755859</ele>
        <time>2016-07-11T12:25:06.000Z</time>
      </trkpt>
      <trkpt lat="44.38909" lon="6.35246">
        <ele>1357</ele>
        <time>2016-07-11T12:25:11.000Z</time>
      </trkpt>
      <trkpt lat="44.38903" lon="6.3524">
        <ele>1356.1999511719</ele>
        <time>2016-07-11T12:25:17.000Z</time>
      </trkpt>
      <trkpt lat="44.38903" lon="6.35239">
        <ele>1356.1999511719</ele>
        <time>2016-07-11T12:25:18.000Z</time>
      </trkpt>
      <trkpt lat="44.38897" lon="6.3523">
        <ele>1355</ele>
        <time>2016-07-11T12:25:26.000Z</time>
      </trkpt>
      <trkpt lat="44.38892" lon="6.35221">
        <ele>1353.4000244141</ele>
        <time>2016-07-11T12:25:32.000Z</time>
      </trkpt>
      <trkpt lat="44.3889" lon="6.35215">
        <ele>1352.4000244141</ele>
        <time>2016-07-11T12:25:36.000Z</time>
      </trkpt>
      <trkpt lat="44.38888" lon="6.35212">
        <ele>1351.8000488281</ele>
        <time>2016-07-11T12:25:38.000Z</time>
      </trkpt>
      <trkpt lat="44.38887" lon="6.35211">
        <ele>1351.5999755859</ele>
        <time>2016-07-11T12:25:39.000Z</time>
      </trkpt>
      <trkpt lat="44.38885" lon="6.35205">
        <ele>1350.5999755859</ele>
        <time>2016-07-11T12:25:43.000Z</time>
      </trkpt>
      <trkpt lat="44.38883" lon="6.35198">
        <ele>1349.1999511719</ele>
        <time>2016-07-11T12:25:48.000Z</time>
      </trkpt>
      <trkpt lat="44.38878" lon="6.35187">
        <ele>1347.1999511719</ele>
        <time>2016-07-11T12:25:56.000Z</time>
      </trkpt>
      <trkpt lat="44.38874" lon="6.35176">
        <ele>1345.4000244141</ele>
        <time>2016-07-11T12:26:03.000Z</time>
      </trkpt>
      <trkpt lat="44.38872" lon="6.35172">
        <ele>1344.5999755859</ele>
        <time>2016-07-11T12:26:09.000Z</time>
      </trkpt>
      <trkpt lat="44.38869" lon="6.35163">
        <ele>1343</ele>
        <time>2016-07-11T12:26:43.000Z</time>
      </trkpt>
      <trkpt lat="44.3887" lon="6.35159">
        <ele>1342.1999511719</ele>
        <time>2016-07-11T12:26:47.000Z</time>
      </trkpt>
      <trkpt lat="44.38869" lon="6.35154">
        <ele>1341.1999511719</ele>
        <time>2016-07-11T12:26:51.000Z</time>
      </trkpt>
      <trkpt lat="44.38864" lon="6.35146">
        <ele>1339.8000488281</ele>
        <time>2016-07-11T12:26:57.000Z</time>
      </trkpt>
      <trkpt lat="44.38857" lon="6.35137">
        <ele>1339.1999511719</ele>
        <time>2016-07-11T12:27:05.000Z</time>
      </trkpt>
      <trkpt lat="44.38856" lon="6.35136">
        <ele>1339</ele>
        <time>2016-07-11T12:27:06.000Z</time>
      </trkpt>
      <trkpt lat="44.38852" lon="6.35133">
        <ele>1338.8000488281</ele>
        <time>2016-07-11T12:27:14.000Z</time>
      </trkpt>
      <trkpt lat="44.38847" lon="6.35129">
        <ele>1338.5999755859</ele>
        <time>2016-07-11T12:27:46.000Z</time>
      </trkpt>
      <trkpt lat="44.38843" lon="6.35124">
        <ele>1338.1999511719</ele>
        <time>2016-07-11T12:27:51.000Z</time>
      </trkpt>
      <trkpt lat="44.38835" lon="6.35114">
        <ele>1337.4000244141</ele>
        <time>2016-07-11T12:27:59.000Z</time>
      </trkpt>
      <trkpt lat="44.38833" lon="6.3511">
        <ele>1337.1999511719</ele>
        <time>2016-07-11T12:28:02.000Z</time>
      </trkpt>
      <trkpt lat="44.38829" lon="6.35103">
        <ele>1336.4000244141</ele>
        <time>2016-07-11T12:28:08.000Z</time>
      </trkpt>
      <trkpt lat="44.38828" lon="6.35101">
        <ele>1336.4000244141</ele>
        <time>2016-07-11T12:28:09.000Z</time>
      </trkpt>
      <trkpt lat="44.38818" lon="6.3509">
        <ele>1335.4000244141</ele>
        <time>2016-07-11T12:28:17.000Z</time>
      </trkpt>
      <trkpt lat="44.38809" lon="6.35079">
        <ele>1334.5999755859</ele>
        <time>2016-07-11T12:28:25.000Z</time>
      </trkpt>
      <trkpt lat="44.38803" lon="6.35073">
        <ele>1334.1999511719</ele>
        <time>2016-07-11T12:28:31.000Z</time>
      </trkpt>
      <trkpt lat="44.388" lon="6.35069">
        <ele>1333.8000488281</ele>
        <time>2016-07-11T12:28:34.000Z</time>
      </trkpt>
      <trkpt lat="44.38793" lon="6.35059">
        <ele>1333</ele>
        <time>2016-07-11T12:28:43.000Z</time>
      </trkpt>
      <trkpt lat="44.38791" lon="6.35058">
        <ele>1333</ele>
        <time>2016-07-11T12:28:45.000Z</time>
      </trkpt>
      <trkpt lat="44.38785" lon="6.35047">
        <ele>1332</ele>
        <time>2016-07-11T12:28:54.000Z</time>
      </trkpt>
      <trkpt lat="44.38779" lon="6.35039">
        <ele>1331.1999511719</ele>
        <time>2016-07-11T12:29:01.000Z</time>
      </trkpt>
      <trkpt lat="44.38774" lon="6.35031">
        <ele>1330.5999755859</ele>
        <time>2016-07-11T12:29:07.000Z</time>
      </trkpt>
      <trkpt lat="44.38767" lon="6.35023">
        <ele>1330</ele>
        <time>2016-07-11T12:29:14.000Z</time>
      </trkpt>
      <trkpt lat="44.38763" lon="6.35019">
        <ele>1329.5999755859</ele>
        <time>2016-07-11T12:29:19.000Z</time>
      </trkpt>
      <trkpt lat="44.38754" lon="6.35011">
        <ele>1329</ele>
        <time>2016-07-11T12:29:27.000Z</time>
      </trkpt>
      <trkpt lat="44.38747" lon="6.35003">
        <ele>1328.1999511719</ele>
        <time>2016-07-11T12:29:34.000Z</time>
      </trkpt>
      <trkpt lat="44.3874" lon="6.34997">
        <ele>1327.5999755859</ele>
        <time>2016-07-11T12:29:40.000Z</time>
      </trkpt>
      <trkpt lat="44.38733" lon="6.3499">
        <ele>1327.1999511719</ele>
        <time>2016-07-11T12:29:47.000Z</time>
      </trkpt>
      <trkpt lat="44.38725" lon="6.34982">
        <ele>1326.4000244141</ele>
        <time>2016-07-11T12:29:55.000Z</time>
      </trkpt>
      <trkpt lat="44.38717" lon="6.34972">
        <ele>1326</ele>
        <time>2016-07-11T12:30:02.000Z</time>
      </trkpt>
      <trkpt lat="44.38715" lon="6.34969">
        <ele>1325.8000488281</ele>
        <time>2016-07-11T12:30:04.000Z</time>
      </trkpt>
      <trkpt lat="44.38709" lon="6.34961">
        <ele>1325.5999755859</ele>
        <time>2016-07-11T12:30:10.000Z</time>
      </trkpt>
      <trkpt lat="44.38704" lon="6.34951">
        <ele>1325</ele>
        <time>2016-07-11T12:30:17.000Z</time>
      </trkpt>
      <trkpt lat="44.38703" lon="6.34949">
        <ele>1325</ele>
        <time>2016-07-11T12:30:18.000Z</time>
      </trkpt>
      <trkpt lat="44.38702" lon="6.34948">
        <ele>1325</ele>
        <time>2016-07-11T12:30:19.000Z</time>
      </trkpt>
      <trkpt lat="44.38696" lon="6.34934">
        <ele>1324.1999511719</ele>
        <time>2016-07-11T12:30:27.000Z</time>
      </trkpt>
      <trkpt lat="44.38695" lon="6.34925">
        <ele>1323.5999755859</ele>
        <time>2016-07-11T12:30:32.000Z</time>
      </trkpt>
      <trkpt lat="44.38695" lon="6.34924">
        <ele>1323.5999755859</ele>
        <time>2016-07-11T12:30:33.000Z</time>
      </trkpt>
      <trkpt lat="44.38695" lon="6.3492">
        <ele>1323.4000244141</ele>
        <time>2016-07-11T12:30:35.000Z</time>
      </trkpt>
      <trkpt lat="44.38694" lon="6.34909">
        <ele>1322.5999755859</ele>
        <time>2016-07-11T12:30:41.000Z</time>
      </trkpt>
      <trkpt lat="44.38694" lon="6.34906">
        <ele>1322.4000244141</ele>
        <time>2016-07-11T12:30:44.000Z</time>
      </trkpt>
      <trkpt lat="44.38693" lon="6.34898">
        <ele>1322</ele>
        <time>2016-07-11T12:30:48.000Z</time>
      </trkpt>
      <trkpt lat="44.38691" lon="6.34888">
        <ele>1321</ele>
        <time>2016-07-11T12:30:54.000Z</time>
      </trkpt>
      <trkpt lat="44.38692" lon="6.34879">
        <ele>1320.4000244141</ele>
        <time>2016-07-11T12:30:59.000Z</time>
      </trkpt>
      <trkpt lat="44.38694" lon="6.34868">
        <ele>1319.8000488281</ele>
        <time>2016-07-11T12:31:05.000Z</time>
      </trkpt>
      <trkpt lat="44.38694" lon="6.34865">
        <ele>1319.4000244141</ele>
        <time>2016-07-11T12:31:07.000Z</time>
      </trkpt>
      <trkpt lat="44.38696" lon="6.34857">
        <ele>1319</ele>
        <time>2016-07-11T12:31:12.000Z</time>
      </trkpt>
      <trkpt lat="44.38697" lon="6.34847">
        <ele>1318.4000244141</ele>
        <time>2016-07-11T12:31:18.000Z</time>
      </trkpt>
      <trkpt lat="44.38699" lon="6.34839">
        <ele>1317.5999755859</ele>
        <time>2016-07-11T12:31:25.000Z</time>
      </trkpt>
      <trkpt lat="44.38699" lon="6.34838">
        <ele>1317.5999755859</ele>
        <time>2016-07-11T12:31:26.000Z</time>
      </trkpt>
      <trkpt lat="44.38698" lon="6.34837">
        <ele>1317.5999755859</ele>
        <time>2016-07-11T12:31:32.000Z</time>
      </trkpt>
      <trkpt lat="44.38699" lon="6.34831">
        <ele>1317.1999511719</ele>
        <time>2016-07-11T12:31:36.000Z</time>
      </trkpt>
      <trkpt lat="44.38699" lon="6.34829">
        <ele>1317</ele>
        <time>2016-07-11T12:31:37.000Z</time>
      </trkpt>
      <trkpt lat="44.387" lon="6.3482">
        <ele>1316.1999511719</ele>
        <time>2016-07-11T12:31:42.000Z</time>
      </trkpt>
      <trkpt lat="44.387" lon="6.34811">
        <ele>1315.5999755859</ele>
        <time>2016-07-11T12:31:48.000Z</time>
      </trkpt>
      <trkpt lat="44.387" lon="6.3481">
        <ele>1315.4000244141</ele>
        <time>2016-07-11T12:31:50.000Z</time>
      </trkpt>
      <trkpt lat="44.38699" lon="6.34803">
        <ele>1314.8000488281</ele>
        <time>2016-07-11T12:31:54.000Z</time>
      </trkpt>
      <trkpt lat="44.38699" lon="6.34796">
        <ele>1314</ele>
        <time>2016-07-11T12:31:58.000Z</time>
      </trkpt>
      <trkpt lat="44.38699" lon="6.34793">
        <ele>1313.5999755859</ele>
        <time>2016-07-11T12:32:00.000Z</time>
      </trkpt>
      <trkpt lat="44.38699" lon="6.34787">
        <ele>1313</ele>
        <time>2016-07-11T12:32:05.000Z</time>
      </trkpt>
      <trkpt lat="44.38699" lon="6.34776">
        <ele>1311.8000488281</ele>
        <time>2016-07-11T12:32:10.000Z</time>
      </trkpt>
      <trkpt lat="44.38699" lon="6.34762">
        <ele>1310.4000244141</ele>
        <time>2016-07-11T12:32:16.000Z</time>
      </trkpt>
      <trkpt lat="44.38701" lon="6.34745">
        <ele>1308.4000244141</ele>
        <time>2016-07-11T12:32:24.000Z</time>
      </trkpt>
      <trkpt lat="44.38698" lon="6.34735">
        <ele>1307.4000244141</ele>
        <time>2016-07-11T12:32:30.000Z</time>
      </trkpt>
      <trkpt lat="44.38694" lon="6.34724">
        <ele>1306.1999511719</ele>
        <time>2016-07-11T12:32:37.000Z</time>
      </trkpt>
      <trkpt lat="44.38689" lon="6.34706">
        <ele>1304.4000244141</ele>
        <time>2016-07-11T12:32:47.000Z</time>
      </trkpt>
      <trkpt lat="44.38688" lon="6.34696">
        <ele>1303.4000244141</ele>
        <time>2016-07-11T12:32:54.000Z</time>
      </trkpt>
      <trkpt lat="44.38689" lon="6.34688">
        <ele>1302.4000244141</ele>
        <time>2016-07-11T12:33:16.000Z</time>
      </trkpt>
      <trkpt lat="44.38695" lon="6.34671">
        <ele>1300.5999755859</ele>
        <time>2016-07-11T12:33:25.000Z</time>
      </trkpt>
      <trkpt lat="44.387" lon="6.34654">
        <ele>1298.4000244141</ele>
        <time>2016-07-11T12:33:34.000Z</time>
      </trkpt>
      <trkpt lat="44.38704" lon="6.34641">
        <ele>1297.1999511719</ele>
        <time>2016-07-11T12:33:41.000Z</time>
      </trkpt>
      <trkpt lat="44.3871" lon="6.34624">
        <ele>1296</ele>
        <time>2016-07-11T12:33:50.000Z</time>
      </trkpt>
      <trkpt lat="44.38714" lon="6.34607">
        <ele>1294.8000488281</ele>
        <time>2016-07-11T12:33:59.000Z</time>
      </trkpt>
      <trkpt lat="44.38716" lon="6.34589">
        <ele>1293.5999755859</ele>
        <time>2016-07-11T12:34:08.000Z</time>
      </trkpt>
      <trkpt lat="44.3872" lon="6.34573">
        <ele>1292.4000244141</ele>
        <time>2016-07-11T12:34:17.000Z</time>
      </trkpt>
      <trkpt lat="44.38727" lon="6.34561">
        <ele>1291.4000244141</ele>
        <time>2016-07-11T12:34:25.000Z</time>
      </trkpt>
      <trkpt lat="44.38729" lon="6.34559">
        <ele>1291.1999511719</ele>
        <time>2016-07-11T12:34:29.000Z</time>
      </trkpt>
      <trkpt lat="44.38727" lon="6.34551">
        <ele>1290.8000488281</ele>
        <time>2016-07-11T12:34:44.000Z</time>
      </trkpt>
      <trkpt lat="44.38721" lon="6.34537">
        <ele>1290.1999511719</ele>
        <time>2016-07-11T12:34:53.000Z</time>
      </trkpt>
      <trkpt lat="44.38706" lon="6.34523">
        <ele>1290.1999511719</ele>
        <time>2016-07-11T12:35:05.000Z</time>
      </trkpt>
      <trkpt lat="44.38693" lon="6.34518">
        <ele>1290.1999511719</ele>
        <time>2016-07-11T12:35:15.000Z</time>
      </trkpt>
      <trkpt lat="44.38685" lon="6.34517">
        <ele>1289.8000488281</ele>
        <time>2016-07-11T12:35:22.000Z</time>
      </trkpt>
      <trkpt lat="44.38684" lon="6.34516">
        <ele>1289.8000488281</ele>
        <time>2016-07-11T12:35:24.000Z</time>
      </trkpt>
      <trkpt lat="44.38683" lon="6.34514">
        <ele>1289.5999755859</ele>
        <time>2016-07-11T12:35:32.000Z</time>
      </trkpt>
      <trkpt lat="44.3868" lon="6.34509">
        <ele>1289.1999511719</ele>
        <time>2016-07-11T12:35:38.000Z</time>
      </trkpt>
      <trkpt lat="44.38681" lon="6.34505">
        <ele>1289</ele>
        <time>2016-07-11T12:35:40.000Z</time>
      </trkpt>
      <trkpt lat="44.38676" lon="6.34496">
        <ele>1288.4000244141</ele>
        <time>2016-07-11T12:35:48.000Z</time>
      </trkpt>
      <trkpt lat="44.38669" lon="6.34494">
        <ele>1288.1999511719</ele>
        <time>2016-07-11T12:35:56.000Z</time>
      </trkpt>
      <trkpt lat="44.38665" lon="6.34493">
        <ele>1288</ele>
        <time>2016-07-11T12:36:01.000Z</time>
      </trkpt>
      <trkpt lat="44.3866" lon="6.34492">
        <ele>1287.8000488281</ele>
        <time>2016-07-11T12:36:05.000Z</time>
      </trkpt>
      <trkpt lat="44.38658" lon="6.34492">
        <ele>1287.5999755859</ele>
        <time>2016-07-11T12:36:07.000Z</time>
      </trkpt>
      <trkpt lat="44.38656" lon="6.34494">
        <ele>1287.8000488281</ele>
        <time>2016-07-11T12:36:11.000Z</time>
      </trkpt>
      <trkpt lat="44.38661" lon="6.34493">
        <ele>1287.8000488281</ele>
        <time>2016-07-11T12:36:31.000Z</time>
      </trkpt>
      <trkpt lat="44.38668" lon="6.34495">
        <ele>1288.1999511719</ele>
        <time>2016-07-11T12:36:38.000Z</time>
      </trkpt>
      <trkpt lat="44.38674" lon="6.34492">
        <ele>1288</ele>
        <time>2016-07-11T12:36:44.000Z</time>
      </trkpt>
      <trkpt lat="44.38676" lon="6.34491">
        <ele>1288</ele>
        <time>2016-07-11T12:36:45.000Z</time>
      </trkpt>
      <trkpt lat="44.38677" lon="6.34491">
        <ele>1288</ele>
        <time>2016-07-11T12:36:47.000Z</time>
      </trkpt>
      <trkpt lat="44.38677" lon="6.34489">
        <ele>1288</ele>
        <time>2016-07-11T12:36:51.000Z</time>
      </trkpt>
      <trkpt lat="44.38677" lon="6.34483">
        <ele>1287.5999755859</ele>
        <time>2016-07-11T12:36:59.000Z</time>
      </trkpt>
      <trkpt lat="44.38677" lon="6.34485">
        <ele>1287.8000488281</ele>
        <time>2016-07-11T12:37:10.000Z</time>
      </trkpt>
      <trkpt lat="44.38679" lon="6.3449">
        <ele>1288</ele>
        <time>2016-07-11T12:37:48.000Z</time>
      </trkpt>
      <trkpt lat="44.3868" lon="6.34492">
        <ele>1288.1999511719</ele>
        <time>2016-07-11T12:37:50.000Z</time>
      </trkpt>
      <trkpt lat="44.38678" lon="6.34504">
        <ele>1289</ele>
        <time>2016-07-11T12:37:57.000Z</time>
      </trkpt>
      <trkpt lat="44.3868" lon="6.34511">
        <ele>1289.4000244141</ele>
        <time>2016-07-11T12:38:02.000Z</time>
      </trkpt>
      <trkpt lat="44.38684" lon="6.34518">
        <ele>1289.8000488281</ele>
        <time>2016-07-11T12:38:08.000Z</time>
      </trkpt>
      <trkpt lat="44.38689" lon="6.34519">
        <ele>1290</ele>
        <time>2016-07-11T12:38:12.000Z</time>
      </trkpt>
      <trkpt lat="44.387" lon="6.34521">
        <ele>1290.1999511719</ele>
        <time>2016-07-11T12:38:20.000Z</time>
      </trkpt>
      <trkpt lat="44.38709" lon="6.34525">
        <ele>1290.1999511719</ele>
        <time>2016-07-11T12:38:27.000Z</time>
      </trkpt>
      <trkpt lat="44.38719" lon="6.34532">
        <ele>1290</ele>
        <time>2016-07-11T12:38:35.000Z</time>
      </trkpt>
      <trkpt lat="44.38727" lon="6.34543">
        <ele>1290.4000244141</ele>
        <time>2016-07-11T12:38:43.000Z</time>
      </trkpt>
      <trkpt lat="44.38728" lon="6.34545">
        <ele>1290.4000244141</ele>
        <time>2016-07-11T12:38:45.000Z</time>
      </trkpt>
      <trkpt lat="44.38732" lon="6.34545">
        <ele>1290.1999511719</ele>
        <time>2016-07-11T12:38:49.000Z</time>
      </trkpt>
      <trkpt lat="44.38735" lon="6.34535">
        <ele>1289.4000244141</ele>
        <time>2016-07-11T12:38:56.000Z</time>
      </trkpt>
      <trkpt lat="44.38737" lon="6.34527">
        <ele>1289</ele>
        <time>2016-07-11T12:39:02.000Z</time>
      </trkpt>
      <trkpt lat="44.3874" lon="6.34517">
        <ele>1288.1999511719</ele>
        <time>2016-07-11T12:39:08.000Z</time>
      </trkpt>
      <trkpt lat="44.38742" lon="6.34506">
        <ele>1287.4000244141</ele>
        <time>2016-07-11T12:39:14.000Z</time>
      </trkpt>
      <trkpt lat="44.38745" lon="6.34493">
        <ele>1286.5999755859</ele>
        <time>2016-07-11T12:39:22.000Z</time>
      </trkpt>
      <trkpt lat="44.38744" lon="6.34477">
        <ele>1285.5999755859</ele>
        <time>2016-07-11T12:39:31.000Z</time>
      </trkpt>
      <trkpt lat="44.38742" lon="6.34472">
        <ele>1285.1999511719</ele>
        <time>2016-07-11T12:39:34.000Z</time>
      </trkpt>
      <trkpt lat="44.3874" lon="6.34466">
        <ele>1284.8000488281</ele>
        <time>2016-07-11T12:39:38.000Z</time>
      </trkpt>
      <trkpt lat="44.38735" lon="6.34453">
        <ele>1284</ele>
        <time>2016-07-11T12:39:46.000Z</time>
      </trkpt>
      <trkpt lat="44.38732" lon="6.34441">
        <ele>1283</ele>
        <time>2016-07-11T12:39:52.000Z</time>
      </trkpt>
      <trkpt lat="44.38732" lon="6.34439">
        <ele>1283</ele>
        <time>2016-07-11T12:39:53.000Z</time>
      </trkpt>
      <trkpt lat="44.38733" lon="6.34437">
        <ele>1282.5999755859</ele>
        <time>2016-07-11T12:40:03.000Z</time>
      </trkpt>
      <trkpt lat="44.38734" lon="6.34438">
        <ele>1282.5999755859</ele>
        <time>2016-07-11T12:40:16.000Z</time>
      </trkpt>
      <trkpt lat="44.38734" lon="6.34437">
        <ele>1282.5999755859</ele>
        <time>2016-07-11T12:40:43.000Z</time>
      </trkpt>
      <trkpt lat="44.38734" lon="6.34434">
        <ele>1282.4000244141</ele>
        <time>2016-07-11T12:41:15.000Z</time>
      </trkpt>
      <trkpt lat="44.38734" lon="6.34433">
        <ele>1282.4000244141</ele>
        <time>2016-07-11T12:42:17.000Z</time>
      </trkpt>
      <trkpt lat="44.38733" lon="6.3443">
        <ele>1282.1999511719</ele>
        <time>2016-07-11T12:42:20.000Z</time>
      </trkpt>
      <trkpt lat="44.38731" lon="6.34418">
        <ele>1281.4000244141</ele>
        <time>2016-07-11T12:42:27.000Z</time>
      </trkpt>
      <trkpt lat="44.3873" lon="6.34417">
        <ele>1281.4000244141</ele>
        <time>2016-07-11T12:42:28.000Z</time>
      </trkpt>
      <trkpt lat="44.3872" lon="6.34407">
        <ele>1281</ele>
        <time>2016-07-11T12:42:36.000Z</time>
      </trkpt>
      <trkpt lat="44.38711" lon="6.34402">
        <ele>1281</ele>
        <time>2016-07-11T12:42:42.000Z</time>
      </trkpt>
      <trkpt lat="44.38706" lon="6.34399">
        <ele>1280.8000488281</ele>
        <time>2016-07-11T12:42:46.000Z</time>
      </trkpt>
      <trkpt lat="44.38687" lon="6.34389">
        <ele>1280.1999511719</ele>
        <time>2016-07-11T12:42:59.000Z</time>
      </trkpt>
      <trkpt lat="44.38677" lon="6.34381">
        <ele>1279.4000244141</ele>
        <time>2016-07-11T12:43:07.000Z</time>
      </trkpt>
      <trkpt lat="44.38669" lon="6.34368">
        <ele>1278.1999511719</ele>
        <time>2016-07-11T12:43:15.000Z</time>
      </trkpt>
      <trkpt lat="44.3866" lon="6.34351">
        <ele>1276.1999511719</ele>
        <time>2016-07-11T12:43:25.000Z</time>
      </trkpt>
      <trkpt lat="44.38653" lon="6.34335">
        <ele>1274.4000244141</ele>
        <time>2016-07-11T12:43:34.000Z</time>
      </trkpt>
      <trkpt lat="44.38648" lon="6.34325">
        <ele>1273.1999511719</ele>
        <time>2016-07-11T12:43:42.000Z</time>
      </trkpt>
      <trkpt lat="44.38647" lon="6.34324">
        <ele>1273.1999511719</ele>
        <time>2016-07-11T12:43:43.000Z</time>
      </trkpt>
      <trkpt lat="44.38646" lon="6.34324">
        <ele>1273.1999511719</ele>
        <time>2016-07-11T12:43:51.000Z</time>
      </trkpt>
      <trkpt lat="44.38643" lon="6.34324">
        <ele>1273.1999511719</ele>
        <time>2016-07-11T12:44:26.000Z</time>
      </trkpt>
      <trkpt lat="44.38632" lon="6.34315">
        <ele>1272.4000244141</ele>
        <time>2016-07-11T12:44:35.000Z</time>
      </trkpt>
      <trkpt lat="44.38622" lon="6.34303">
        <ele>1272</ele>
        <time>2016-07-11T12:44:44.000Z</time>
      </trkpt>
      <trkpt lat="44.38602" lon="6.34272">
        <ele>1270.8000488281</ele>
        <time>2016-07-11T12:45:04.000Z</time>
      </trkpt>
      <trkpt lat="44.38593" lon="6.34264">
        <ele>1270.5999755859</ele>
        <time>2016-07-11T12:45:11.000Z</time>
      </trkpt>
      <trkpt lat="44.38581" lon="6.34255">
        <ele>1270.8000488281</ele>
        <time>2016-07-11T12:45:20.000Z</time>
      </trkpt>
      <trkpt lat="44.38571" lon="6.34249">
        <ele>1271</ele>
        <time>2016-07-11T12:45:28.000Z</time>
      </trkpt>
      <trkpt lat="44.38558" lon="6.34239">
        <ele>1271</ele>
        <time>2016-07-11T12:45:39.000Z</time>
      </trkpt>
      <trkpt lat="44.38553" lon="6.34231">
        <ele>1270.8000488281</ele>
        <time>2016-07-11T12:45:45.000Z</time>
      </trkpt>
      <trkpt lat="44.38552" lon="6.3423">
        <ele>1270.8000488281</ele>
        <time>2016-07-11T12:45:46.000Z</time>
      </trkpt>
      <trkpt lat="44.38548" lon="6.34229">
        <ele>1271</ele>
        <time>2016-07-11T12:45:51.000Z</time>
      </trkpt>
      <trkpt lat="44.38549" lon="6.34229">
        <ele>1270.8000488281</ele>
        <time>2016-07-11T12:46:01.000Z</time>
      </trkpt>
      <trkpt lat="44.38551" lon="6.34228">
        <ele>1270.5999755859</ele>
        <time>2016-07-11T12:46:03.000Z</time>
      </trkpt>
      <trkpt lat="44.38549" lon="6.34219">
        <ele>1270.4000244141</ele>
        <time>2016-07-11T12:46:09.000Z</time>
      </trkpt>
      <trkpt lat="44.38545" lon="6.34213">
        <ele>1270.4000244141</ele>
        <time>2016-07-11T12:46:14.000Z</time>
      </trkpt>
      <trkpt lat="44.3854" lon="6.34204">
        <ele>1270.1999511719</ele>
        <time>2016-07-11T12:46:22.000Z</time>
      </trkpt>
      <trkpt lat="44.38539" lon="6.34203">
        <ele>1270.1999511719</ele>
        <time>2016-07-11T12:46:26.000Z</time>
      </trkpt>
      <trkpt lat="44.38539" lon="6.34202">
        <ele>1270.1999511719</ele>
        <time>2016-07-11T12:46:50.000Z</time>
      </trkpt>
      <trkpt lat="44.38539" lon="6.34203">
        <ele>1270.1999511719</ele>
        <time>2016-07-11T12:46:57.000Z</time>
      </trkpt>
      <trkpt lat="44.38538" lon="6.34203">
        <ele>1270.1999511719</ele>
        <time>2016-07-11T12:47:00.000Z</time>
      </trkpt>
      <trkpt lat="44.38542" lon="6.34208">
        <ele>1270.4000244141</ele>
        <time>2016-07-11T12:47:04.000Z</time>
      </trkpt>
      <trkpt lat="44.38549" lon="6.34219">
        <ele>1270.4000244141</ele>
        <time>2016-07-11T12:47:10.000Z</time>
      </trkpt>
      <trkpt lat="44.38554" lon="6.34231">
        <ele>1270.5999755859</ele>
        <time>2016-07-11T12:47:16.000Z</time>
      </trkpt>
      <trkpt lat="44.38552" lon="6.34245">
        <ele>1271.8000488281</ele>
        <time>2016-07-11T12:47:22.000Z</time>
      </trkpt>
      <trkpt lat="44.38545" lon="6.34267">
        <ele>1273.5999755859</ele>
        <time>2016-07-11T12:47:30.000Z</time>
      </trkpt>
      <trkpt lat="44.38538" lon="6.34291">
        <ele>1275.4000244141</ele>
        <time>2016-07-11T12:47:38.000Z</time>
      </trkpt>
      <trkpt lat="44.38535" lon="6.34316">
        <ele>1277</ele>
        <time>2016-07-11T12:47:45.000Z</time>
      </trkpt>
      <trkpt lat="44.38529" lon="6.3434">
        <ele>1278.4000244141</ele>
        <time>2016-07-11T12:47:53.000Z</time>
      </trkpt>
      <trkpt lat="44.38527" lon="6.3435">
        <ele>1279</ele>
        <time>2016-07-11T12:47:58.000Z</time>
      </trkpt>
      <trkpt lat="44.3853" lon="6.34359">
        <ele>1279.1999511719</ele>
        <time>2016-07-11T12:48:04.000Z</time>
      </trkpt>
      <trkpt lat="44.38532" lon="6.3436">
        <ele>1279.1999511719</ele>
        <time>2016-07-11T12:48:05.000Z</time>
      </trkpt>
      <trkpt lat="44.38536" lon="6.3436">
        <ele>1279.1999511719</ele>
        <time>2016-07-11T12:48:12.000Z</time>
      </trkpt>
      <trkpt lat="44.38535" lon="6.34361">
        <ele>1279.1999511719</ele>
        <time>2016-07-11T12:48:15.000Z</time>
      </trkpt>
      <trkpt lat="44.3853" lon="6.34364">
        <ele>1279.4000244141</ele>
        <time>2016-07-11T12:48:21.000Z</time>
      </trkpt>
      <trkpt lat="44.38536" lon="6.34363">
        <ele>1279.1999511719</ele>
        <time>2016-07-11T12:48:25.000Z</time>
      </trkpt>
      <trkpt lat="44.38537" lon="6.34362">
        <ele>1279.1999511719</ele>
        <time>2016-07-11T12:48:26.000Z</time>
      </trkpt>
      <trkpt lat="44.38538" lon="6.34361">
        <ele>1279.1999511719</ele>
        <time>2016-07-11T12:48:31.000Z</time>
      </trkpt>
      <trkpt lat="44.3854" lon="6.34363">
        <ele>1279.1999511719</ele>
        <time>2016-07-11T12:48:36.000Z</time>
      </trkpt>
      <trkpt lat="44.3854" lon="6.34364">
        <ele>1279.1999511719</ele>
        <time>2016-07-11T12:48:45.000Z</time>
      </trkpt>
      <trkpt lat="44.38541" lon="6.34365">
        <ele>1279.4000244141</ele>
        <time>2016-07-11T12:49:27.000Z</time>
      </trkpt>
      <trkpt lat="44.38551" lon="6.3438">
        <ele>1280</ele>
        <time>2016-07-11T12:49:37.000Z</time>
      </trkpt>
      <trkpt lat="44.38561" lon="6.34392">
        <ele>1280.4000244141</ele>
        <time>2016-07-11T12:49:46.000Z</time>
      </trkpt>
      <trkpt lat="44.38573" lon="6.34401">
        <ele>1280.8000488281</ele>
        <time>2016-07-11T12:49:55.000Z</time>
      </trkpt>
      <trkpt lat="44.38576" lon="6.34412">
        <ele>1281.4000244141</ele>
        <time>2016-07-11T12:50:01.000Z</time>
      </trkpt>
      <trkpt lat="44.38571" lon="6.34421">
        <ele>1282.1999511719</ele>
        <time>2016-07-11T12:50:07.000Z</time>
      </trkpt>
      <trkpt lat="44.38563" lon="6.34434">
        <ele>1283.1999511719</ele>
        <time>2016-07-11T12:50:15.000Z</time>
      </trkpt>
      <trkpt lat="44.3856" lon="6.34436">
        <ele>1283.4000244141</ele>
        <time>2016-07-11T12:50:19.000Z</time>
      </trkpt>
      <trkpt lat="44.38557" lon="6.3444">
        <ele>1283.5999755859</ele>
        <time>2016-07-11T12:50:23.000Z</time>
      </trkpt>
      <trkpt lat="44.38547" lon="6.3445">
        <ele>1284.1999511719</ele>
        <time>2016-07-11T12:50:31.000Z</time>
      </trkpt>
      <trkpt lat="44.3854" lon="6.34449">
        <ele>1284</ele>
        <time>2016-07-11T12:50:36.000Z</time>
      </trkpt>
      <trkpt lat="44.38536" lon="6.34444">
        <ele>1283.8000488281</ele>
        <time>2016-07-11T12:50:41.000Z</time>
      </trkpt>
      <trkpt lat="44.38537" lon="6.34446">
        <ele>1284</ele>
        <time>2016-07-11T12:50:47.000Z</time>
      </trkpt>
      <trkpt lat="44.38532" lon="6.34441">
        <ele>1283.5999755859</ele>
        <time>2016-07-11T12:50:55.000Z</time>
      </trkpt>
      <trkpt lat="44.38529" lon="6.34434">
        <ele>1283.4000244141</ele>
        <time>2016-07-11T12:50:58.000Z</time>
      </trkpt>
      <trkpt lat="44.38519" lon="6.34418">
        <ele>1282.8000488281</ele>
        <time>2016-07-11T12:51:07.000Z</time>
      </trkpt>
      <trkpt lat="44.38512" lon="6.34406">
        <ele>1282.4000244141</ele>
        <time>2016-07-11T12:51:14.000Z</time>
      </trkpt>
      <trkpt lat="44.38501" lon="6.34388">
        <ele>1282.1999511719</ele>
        <time>2016-07-11T12:51:25.000Z</time>
      </trkpt>
      <trkpt lat="44.38494" lon="6.34375">
        <ele>1282</ele>
        <time>2016-07-11T12:51:32.000Z</time>
      </trkpt>
      <trkpt lat="44.38486" lon="6.34356">
        <ele>1281.5999755859</ele>
        <time>2016-07-11T12:51:42.000Z</time>
      </trkpt>
      <trkpt lat="44.38478" lon="6.34341">
        <ele>1281.4000244141</ele>
        <time>2016-07-11T12:51:50.000Z</time>
      </trkpt>
      <trkpt lat="44.38471" lon="6.34325">
        <ele>1281.1999511719</ele>
        <time>2016-07-11T12:51:58.000Z</time>
      </trkpt>
      <trkpt lat="44.38463" lon="6.3431">
        <ele>1281</ele>
        <time>2016-07-11T12:52:06.000Z</time>
      </trkpt>
      <trkpt lat="44.38453" lon="6.34287">
        <ele>1281.8000488281</ele>
        <time>2016-07-11T12:52:18.000Z</time>
      </trkpt>
      <trkpt lat="44.38445" lon="6.34268">
        <ele>1282</ele>
        <time>2016-07-11T12:52:27.000Z</time>
      </trkpt>
      <trkpt lat="44.38434" lon="6.34247">
        <ele>1282.4000244141</ele>
        <time>2016-07-11T12:52:39.000Z</time>
      </trkpt>
      <trkpt lat="44.38419" lon="6.3423">
        <ele>1282.5999755859</ele>
        <time>2016-07-11T12:52:51.000Z</time>
      </trkpt>
      <trkpt lat="44.38407" lon="6.34221">
        <ele>1281.1999511719</ele>
        <time>2016-07-11T12:52:59.000Z</time>
      </trkpt>
      <trkpt lat="44.38398" lon="6.3421">
        <ele>1279.4000244141</ele>
        <time>2016-07-11T12:53:06.000Z</time>
      </trkpt>
      <trkpt lat="44.38396" lon="6.34203">
        <ele>1278.1999511719</ele>
        <time>2016-07-11T12:53:12.000Z</time>
      </trkpt>
      <trkpt lat="44.38397" lon="6.34192">
        <ele>1276.1999511719</ele>
        <time>2016-07-11T12:53:20.000Z</time>
      </trkpt>
      <trkpt lat="44.38397" lon="6.34191">
        <ele>1276</ele>
        <time>2016-07-11T12:53:21.000Z</time>
      </trkpt>
      <trkpt lat="44.38402" lon="6.34181">
        <ele>1274.4000244141</ele>
        <time>2016-07-11T12:53:28.000Z</time>
      </trkpt>
      <trkpt lat="44.38404" lon="6.34176">
        <ele>1273.8000488281</ele>
        <time>2016-07-11T12:53:31.000Z</time>
      </trkpt>
      <trkpt lat="44.38416" lon="6.3415">
        <ele>1271.1999511719</ele>
        <time>2016-07-11T12:53:47.000Z</time>
      </trkpt>
      <trkpt lat="44.38419" lon="6.34139">
        <ele>1269.4000244141</ele>
        <time>2016-07-11T12:53:53.000Z</time>
      </trkpt>
      <trkpt lat="44.38422" lon="6.34132">
        <ele>1268.4000244141</ele>
        <time>2016-07-11T12:53:57.000Z</time>
      </trkpt>
      <trkpt lat="44.38429" lon="6.34116">
        <ele>1266.5999755859</ele>
        <time>2016-07-11T12:54:06.000Z</time>
      </trkpt>
      <trkpt lat="44.3843" lon="6.34114">
        <ele>1266.4000244141</ele>
        <time>2016-07-11T12:54:07.000Z</time>
      </trkpt>
      <trkpt lat="44.3843" lon="6.34104">
        <ele>1265.1999511719</ele>
        <time>2016-07-11T12:54:13.000Z</time>
      </trkpt>
      <trkpt lat="44.38429" lon="6.34102">
        <ele>1265</ele>
        <time>2016-07-11T12:54:14.000Z</time>
      </trkpt>
      <trkpt lat="44.38426" lon="6.34099">
        <ele>1264.4000244141</ele>
        <time>2016-07-11T12:54:17.000Z</time>
      </trkpt>
      <trkpt lat="44.38425" lon="6.34096">
        <ele>1264</ele>
        <time>2016-07-11T12:54:19.000Z</time>
      </trkpt>
      <trkpt lat="44.38426" lon="6.34096">
        <ele>1264</ele>
        <time>2016-07-11T12:54:20.000Z</time>
      </trkpt>
      <trkpt lat="44.38431" lon="6.34103">
        <ele>1265.1999511719</ele>
        <time>2016-07-11T12:54:26.000Z</time>
      </trkpt>
      <trkpt lat="44.38437" lon="6.34103">
        <ele>1265.8000488281</ele>
        <time>2016-07-11T12:54:31.000Z</time>
      </trkpt>
      <trkpt lat="44.3844" lon="6.341">
        <ele>1265.5999755859</ele>
        <time>2016-07-11T12:54:34.000Z</time>
      </trkpt>
      <trkpt lat="44.38442" lon="6.34093">
        <ele>1265</ele>
        <time>2016-07-11T12:54:40.000Z</time>
      </trkpt>
      <trkpt lat="44.38446" lon="6.34079">
        <ele>1263.5999755859</ele>
        <time>2016-07-11T12:54:48.000Z</time>
      </trkpt>
      <trkpt lat="44.38447" lon="6.34075">
        <ele>1263.1999511719</ele>
        <time>2016-07-11T12:54:50.000Z</time>
      </trkpt>
      <trkpt lat="44.38448" lon="6.34071">
        <ele>1262.8000488281</ele>
        <time>2016-07-11T12:54:52.000Z</time>
      </trkpt>
      <trkpt lat="44.38454" lon="6.34061">
        <ele>1261.5999755859</ele>
        <time>2016-07-11T12:54:59.000Z</time>
      </trkpt>
      <trkpt lat="44.38455" lon="6.34059">
        <ele>1261.4000244141</ele>
        <time>2016-07-11T12:55:00.000Z</time>
      </trkpt>
      <trkpt lat="44.38456" lon="6.34054">
        <ele>1260.8000488281</ele>
        <time>2016-07-11T12:55:03.000Z</time>
      </trkpt>
      <trkpt lat="44.38459" lon="6.34051">
        <ele>1260.5999755859</ele>
        <time>2016-07-11T12:55:06.000Z</time>
      </trkpt>
      <trkpt lat="44.38463" lon="6.34043">
        <ele>1259.8000488281</ele>
        <time>2016-07-11T12:55:11.000Z</time>
      </trkpt>
      <trkpt lat="44.38472" lon="6.34033">
        <ele>1258.5999755859</ele>
        <time>2016-07-11T12:55:19.000Z</time>
      </trkpt>
      <trkpt lat="44.38477" lon="6.34027">
        <ele>1257.8000488281</ele>
        <time>2016-07-11T12:55:24.000Z</time>
      </trkpt>
      <trkpt lat="44.38483" lon="6.34022">
        <ele>1257.4000244141</ele>
        <time>2016-07-11T12:55:29.000Z</time>
      </trkpt>
      <trkpt lat="44.38491" lon="6.34015">
        <ele>1257.4000244141</ele>
        <time>2016-07-11T12:55:36.000Z</time>
      </trkpt>
      <trkpt lat="44.38499" lon="6.34013">
        <ele>1258.1999511719</ele>
        <time>2016-07-11T12:55:43.000Z</time>
      </trkpt>
      <trkpt lat="44.38501" lon="6.34012">
        <ele>1258.4000244141</ele>
        <time>2016-07-11T12:55:45.000Z</time>
      </trkpt>
      <trkpt lat="44.38511" lon="6.34012">
        <ele>1259.5999755859</ele>
        <time>2016-07-11T12:55:53.000Z</time>
      </trkpt>
      <trkpt lat="44.38516" lon="6.34008">
        <ele>1260</ele>
        <time>2016-07-11T12:56:00.000Z</time>
      </trkpt>
      <trkpt lat="44.38516" lon="6.34006">
        <ele>1260</ele>
        <time>2016-07-11T12:56:07.000Z</time>
      </trkpt>
      <trkpt lat="44.38518" lon="6.33999">
        <ele>1260</ele>
        <time>2016-07-11T12:56:12.000Z</time>
      </trkpt>
      <trkpt lat="44.38519" lon="6.33998">
        <ele>1260.1999511719</ele>
        <time>2016-07-11T12:56:16.000Z</time>
      </trkpt>
      <trkpt lat="44.38519" lon="6.33995">
        <ele>1260</ele>
        <time>2016-07-11T12:56:26.000Z</time>
      </trkpt>
      <trkpt lat="44.3852" lon="6.33995">
        <ele>1260.1999511719</ele>
        <time>2016-07-11T12:56:32.000Z</time>
      </trkpt>
      <trkpt lat="44.38519" lon="6.33995">
        <ele>1260</ele>
        <time>2016-07-11T12:56:38.000Z</time>
      </trkpt>
      <trkpt lat="44.3852" lon="6.33994">
        <ele>1260.1999511719</ele>
        <time>2016-07-11T12:56:42.000Z</time>
      </trkpt>
      <trkpt lat="44.38524" lon="6.33988">
        <ele>1260.4000244141</ele>
        <time>2016-07-11T12:56:47.000Z</time>
      </trkpt>
      <trkpt lat="44.38526" lon="6.33981">
        <ele>1260.4000244141</ele>
        <time>2016-07-11T12:56:51.000Z</time>
      </trkpt>
      <trkpt lat="44.38538" lon="6.33966">
        <ele>1260</ele>
        <time>2016-07-11T12:57:02.000Z</time>
      </trkpt>
      <trkpt lat="44.38546" lon="6.33955">
        <ele>1259.1999511719</ele>
        <time>2016-07-11T12:57:10.000Z</time>
      </trkpt>
      <trkpt lat="44.38555" lon="6.33944">
        <ele>1258.1999511719</ele>
        <time>2016-07-11T12:57:18.000Z</time>
      </trkpt>
      <trkpt lat="44.38567" lon="6.33932">
        <ele>1257.1999511719</ele>
        <time>2016-07-11T12:57:28.000Z</time>
      </trkpt>
      <trkpt lat="44.38573" lon="6.33925">
        <ele>1256.8000488281</ele>
        <time>2016-07-11T12:57:34.000Z</time>
      </trkpt>
      <trkpt lat="44.38573" lon="6.33919">
        <ele>1256.8000488281</ele>
        <time>2016-07-11T12:57:38.000Z</time>
      </trkpt>
      <trkpt lat="44.38573" lon="6.33898">
        <ele>1256.4000244141</ele>
        <time>2016-07-11T12:57:48.000Z</time>
      </trkpt>
      <trkpt lat="44.38572" lon="6.33883">
        <ele>1255</ele>
        <time>2016-07-11T12:57:56.000Z</time>
      </trkpt>
      <trkpt lat="44.38568" lon="6.33867">
        <ele>1253.4000244141</ele>
        <time>2016-07-11T12:58:04.000Z</time>
      </trkpt>
      <trkpt lat="44.38564" lon="6.3385">
        <ele>1251.8000488281</ele>
        <time>2016-07-11T12:58:12.000Z</time>
      </trkpt>
      <trkpt lat="44.38561" lon="6.33829">
        <ele>1249.5999755859</ele>
        <time>2016-07-11T12:58:22.000Z</time>
      </trkpt>
      <trkpt lat="44.38559" lon="6.33815">
        <ele>1248.1999511719</ele>
        <time>2016-07-11T12:58:29.000Z</time>
      </trkpt>
      <trkpt lat="44.38554" lon="6.33804">
        <ele>1246.4000244141</ele>
        <time>2016-07-11T12:58:36.000Z</time>
      </trkpt>
      <trkpt lat="44.38545" lon="6.33794">
        <ele>1245.1999511719</ele>
        <time>2016-07-11T12:58:44.000Z</time>
      </trkpt>
      <trkpt lat="44.38536" lon="6.33785">
        <ele>1244</ele>
        <time>2016-07-11T12:58:52.000Z</time>
      </trkpt>
      <trkpt lat="44.38525" lon="6.33776">
        <ele>1242.4000244141</ele>
        <time>2016-07-11T12:59:01.000Z</time>
      </trkpt>
      <trkpt lat="44.38514" lon="6.33768">
        <ele>1240.8000488281</ele>
        <time>2016-07-11T12:59:09.000Z</time>
      </trkpt>
      <trkpt lat="44.38507" lon="6.33763">
        <ele>1239.4000244141</ele>
        <time>2016-07-11T12:59:15.000Z</time>
      </trkpt>
      <trkpt lat="44.38506" lon="6.3375">
        <ele>1237.4000244141</ele>
        <time>2016-07-11T12:59:22.000Z</time>
      </trkpt>
      <trkpt lat="44.3851" lon="6.33748">
        <ele>1237.1999511719</ele>
        <time>2016-07-11T12:59:26.000Z</time>
      </trkpt>
      <trkpt lat="44.38518" lon="6.33746">
        <ele>1237.1999511719</ele>
        <time>2016-07-11T12:59:34.000Z</time>
      </trkpt>
      <trkpt lat="44.38519" lon="6.33744">
        <ele>1236.8000488281</ele>
        <time>2016-07-11T12:59:46.000Z</time>
      </trkpt>
      <trkpt lat="44.38521" lon="6.33744">
        <ele>1236.8000488281</ele>
        <time>2016-07-11T12:59:54.000Z</time>
      </trkpt>
      <trkpt lat="44.38528" lon="6.33743">
        <ele>1237</ele>
        <time>2016-07-11T13:00:00.000Z</time>
      </trkpt>
      <trkpt lat="44.38535" lon="6.33743">
        <ele>1237</ele>
        <time>2016-07-11T13:00:06.000Z</time>
      </trkpt>
      <trkpt lat="44.38543" lon="6.33745">
        <ele>1237</ele>
        <time>2016-07-11T13:00:13.000Z</time>
      </trkpt>
      <trkpt lat="44.38544" lon="6.33745">
        <ele>1237</ele>
        <time>2016-07-11T13:00:14.000Z</time>
      </trkpt>
      <trkpt lat="44.38546" lon="6.33745">
        <ele>1237</ele>
        <time>2016-07-11T13:00:24.000Z</time>
      </trkpt>
      <trkpt lat="44.38547" lon="6.33746">
        <ele>1237</ele>
        <time>2016-07-11T13:00:35.000Z</time>
      </trkpt>
      <trkpt lat="44.38554" lon="6.33749">
        <ele>1237.1999511719</ele>
        <time>2016-07-11T13:01:02.000Z</time>
      </trkpt>
      <trkpt lat="44.38566" lon="6.33752">
        <ele>1237.5999755859</ele>
        <time>2016-07-11T13:01:10.000Z</time>
      </trkpt>
      <trkpt lat="44.38578" lon="6.33756">
        <ele>1237.8000488281</ele>
        <time>2016-07-11T13:01:18.000Z</time>
      </trkpt>
      <trkpt lat="44.38581" lon="6.33758">
        <ele>1238</ele>
        <time>2016-07-11T13:01:22.000Z</time>
      </trkpt>
      <trkpt lat="44.38582" lon="6.33759">
        <ele>1238.1999511719</ele>
        <time>2016-07-11T13:01:27.000Z</time>
      </trkpt>
      <trkpt lat="44.38589" lon="6.3376">
        <ele>1238.1999511719</ele>
        <time>2016-07-11T13:01:34.000Z</time>
      </trkpt>
      <trkpt lat="44.38597" lon="6.33761">
        <ele>1238.1999511719</ele>
        <time>2016-07-11T13:01:40.000Z</time>
      </trkpt>
      <trkpt lat="44.38609" lon="6.33762">
        <ele>1238</ele>
        <time>2016-07-11T13:01:48.000Z</time>
      </trkpt>
      <trkpt lat="44.38618" lon="6.33764">
        <ele>1237.5999755859</ele>
        <time>2016-07-11T13:01:56.000Z</time>
      </trkpt>
      <trkpt lat="44.38622" lon="6.33769">
        <ele>1237.8000488281</ele>
        <time>2016-07-11T13:02:02.000Z</time>
      </trkpt>
      <trkpt lat="44.38631" lon="6.33774">
        <ele>1237.4000244141</ele>
        <time>2016-07-11T13:02:09.000Z</time>
      </trkpt>
      <trkpt lat="44.38632" lon="6.33774">
        <ele>1237.4000244141</ele>
        <time>2016-07-11T13:02:10.000Z</time>
      </trkpt>
      <trkpt lat="44.38635" lon="6.33776">
        <ele>1237.1999511719</ele>
        <time>2016-07-11T13:02:13.000Z</time>
      </trkpt>
      <trkpt lat="44.38642" lon="6.33777">
        <ele>1236.1999511719</ele>
        <time>2016-07-11T13:02:20.000Z</time>
      </trkpt>
      <trkpt lat="44.38648" lon="6.33775">
        <ele>1235</ele>
        <time>2016-07-11T13:02:25.000Z</time>
      </trkpt>
      <trkpt lat="44.38651" lon="6.33775">
        <ele>1234.5999755859</ele>
        <time>2016-07-11T13:02:28.000Z</time>
      </trkpt>
      <trkpt lat="44.38663" lon="6.33778">
        <ele>1233.5999755859</ele>
        <time>2016-07-11T13:02:36.000Z</time>
      </trkpt>
      <trkpt lat="44.38668" lon="6.33782">
        <ele>1233.4000244141</ele>
        <time>2016-07-11T13:02:40.000Z</time>
      </trkpt>
      <trkpt lat="44.38675" lon="6.33783">
        <ele>1232.8000488281</ele>
        <time>2016-07-11T13:02:46.000Z</time>
      </trkpt>
      <trkpt lat="44.38685" lon="6.33785">
        <ele>1231.8000488281</ele>
        <time>2016-07-11T13:02:54.000Z</time>
      </trkpt>
      <trkpt lat="44.38696" lon="6.33794">
        <ele>1231.5999755859</ele>
        <time>2016-07-11T13:03:04.000Z</time>
      </trkpt>
      <trkpt lat="44.38703" lon="6.33797">
        <ele>1230.5999755859</ele>
        <time>2016-07-11T13:03:11.000Z</time>
      </trkpt>
      <trkpt lat="44.38705" lon="6.33798">
        <ele>1230.4000244141</ele>
        <time>2016-07-11T13:03:13.000Z</time>
      </trkpt>
      <trkpt lat="44.38712" lon="6.33798">
        <ele>1229</ele>
        <time>2016-07-11T13:03:18.000Z</time>
      </trkpt>
      <trkpt lat="44.38719" lon="6.33792">
        <ele>1226.5999755859</ele>
        <time>2016-07-11T13:03:25.000Z</time>
      </trkpt>
      <trkpt lat="44.3872" lon="6.33791">
        <ele>1226.1999511719</ele>
        <time>2016-07-11T13:03:26.000Z</time>
      </trkpt>
      <trkpt lat="44.38722" lon="6.33791">
        <ele>1225.8000488281</ele>
        <time>2016-07-11T13:03:28.000Z</time>
      </trkpt>
      <trkpt lat="44.38729" lon="6.3379">
        <ele>1224.1999511719</ele>
        <time>2016-07-11T13:03:35.000Z</time>
      </trkpt>
      <trkpt lat="44.38729" lon="6.33786">
        <ele>1223.5999755859</ele>
        <time>2016-07-11T13:03:38.000Z</time>
      </trkpt>
      <trkpt lat="44.38729" lon="6.33784">
        <ele>1223.4000244141</ele>
        <time>2016-07-11T13:03:40.000Z</time>
      </trkpt>
      <trkpt lat="44.38726" lon="6.33778">
        <ele>1223.1999511719</ele>
        <time>2016-07-11T13:03:47.000Z</time>
      </trkpt>
      <trkpt lat="44.38724" lon="6.33772">
        <ele>1222.8000488281</ele>
        <time>2016-07-11T13:03:53.000Z</time>
      </trkpt>
      <trkpt lat="44.38723" lon="6.33767">
        <ele>1222.4000244141</ele>
        <time>2016-07-11T13:03:59.000Z</time>
      </trkpt>
      <trkpt lat="44.38724" lon="6.33767">
        <ele>1222.4000244141</ele>
        <time>2016-07-11T13:04:07.000Z</time>
      </trkpt>
      <trkpt lat="44.38724" lon="6.33768">
        <ele>1222.4000244141</ele>
        <time>2016-07-11T13:04:13.000Z</time>
      </trkpt>
      <trkpt lat="44.38723" lon="6.33768">
        <ele>1222.4000244141</ele>
        <time>2016-07-11T13:04:16.000Z</time>
      </trkpt>
      <trkpt lat="44.38726" lon="6.33764">
        <ele>1221.4000244141</ele>
        <time>2016-07-11T13:04:20.000Z</time>
      </trkpt>
      <trkpt lat="44.38729" lon="6.33761">
        <ele>1220.4000244141</ele>
        <time>2016-07-11T13:04:25.000Z</time>
      </trkpt>
      <trkpt lat="44.38737" lon="6.33754">
        <ele>1219</ele>
        <time>2016-07-11T13:04:32.000Z</time>
      </trkpt>
      <trkpt lat="44.38744" lon="6.33748">
        <ele>1217.8000488281</ele>
        <time>2016-07-11T13:04:38.000Z</time>
      </trkpt>
      <trkpt lat="44.38745" lon="6.33748">
        <ele>1217.5999755859</ele>
        <time>2016-07-11T13:04:39.000Z</time>
      </trkpt>
      <trkpt lat="44.38756" lon="6.33741">
        <ele>1215.8000488281</ele>
        <time>2016-07-11T13:04:48.000Z</time>
      </trkpt>
      <trkpt lat="44.38762" lon="6.33737">
        <ele>1215</ele>
        <time>2016-07-11T13:04:56.000Z</time>
      </trkpt>
      <trkpt lat="44.38767" lon="6.3373">
        <ele>1213.8000488281</ele>
        <time>2016-07-11T13:05:03.000Z</time>
      </trkpt>
      <trkpt lat="44.38769" lon="6.33728">
        <ele>1213.5999755859</ele>
        <time>2016-07-11T13:05:05.000Z</time>
      </trkpt>
      <trkpt lat="44.3877" lon="6.33726">
        <ele>1213.5999755859</ele>
        <time>2016-07-11T13:05:11.000Z</time>
      </trkpt>
      <trkpt lat="44.38772" lon="6.33726">
        <ele>1213.1999511719</ele>
        <time>2016-07-11T13:05:19.000Z</time>
      </trkpt>
      <trkpt lat="44.38772" lon="6.33724">
        <ele>1213.1999511719</ele>
        <time>2016-07-11T13:05:25.000Z</time>
      </trkpt>
      <trkpt lat="44.38774" lon="6.33726">
        <ele>1213</ele>
        <time>2016-07-11T13:05:31.000Z</time>
      </trkpt>
      <trkpt lat="44.38776" lon="6.33722">
        <ele>1212.8000488281</ele>
        <time>2016-07-11T13:05:40.000Z</time>
      </trkpt>
      <trkpt lat="44.38776" lon="6.33721">
        <ele>1212.8000488281</ele>
        <time>2016-07-11T13:05:41.000Z</time>
      </trkpt>
      <trkpt lat="44.38777" lon="6.33715">
        <ele>1212.5999755859</ele>
        <time>2016-07-11T13:05:45.000Z</time>
      </trkpt>
      <trkpt lat="44.38777" lon="6.33712">
        <ele>1212.8000488281</ele>
        <time>2016-07-11T13:05:47.000Z</time>
      </trkpt>
      <trkpt lat="44.38777" lon="6.33707">
        <ele>1212.8000488281</ele>
        <time>2016-07-11T13:05:50.000Z</time>
      </trkpt>
      <trkpt lat="44.38775" lon="6.33698">
        <ele>1213.1999511719</ele>
        <time>2016-07-11T13:05:55.000Z</time>
      </trkpt>
      <trkpt lat="44.38775" lon="6.33694">
        <ele>1213.1999511719</ele>
        <time>2016-07-11T13:05:58.000Z</time>
      </trkpt>
      <trkpt lat="44.38775" lon="6.33689">
        <ele>1213.1999511719</ele>
        <time>2016-07-11T13:06:01.000Z</time>
      </trkpt>
      <trkpt lat="44.38775" lon="6.3368">
        <ele>1213.4000244141</ele>
        <time>2016-07-11T13:06:06.000Z</time>
      </trkpt>
      <trkpt lat="44.38774" lon="6.33671">
        <ele>1213.5999755859</ele>
        <time>2016-07-11T13:06:12.000Z</time>
      </trkpt>
      <trkpt lat="44.38773" lon="6.33659">
        <ele>1213.8000488281</ele>
        <time>2016-07-11T13:06:19.000Z</time>
      </trkpt>
      <trkpt lat="44.38772" lon="6.33655">
        <ele>1214</ele>
        <time>2016-07-11T13:06:21.000Z</time>
      </trkpt>
      <trkpt lat="44.38772" lon="6.33652">
        <ele>1214</ele>
        <time>2016-07-11T13:06:23.000Z</time>
      </trkpt>
      <trkpt lat="44.38772" lon="6.33648">
        <ele>1214</ele>
        <time>2016-07-11T13:06:26.000Z</time>
      </trkpt>
      <trkpt lat="44.38772" lon="6.33647">
        <ele>1214.1999511719</ele>
        <time>2016-07-11T13:06:31.000Z</time>
      </trkpt>
      <trkpt lat="44.38771" lon="6.33642">
        <ele>1214</ele>
        <time>2016-07-11T13:06:37.000Z</time>
      </trkpt>
      <trkpt lat="44.38771" lon="6.33631">
        <ele>1213</ele>
        <time>2016-07-11T13:06:43.000Z</time>
      </trkpt>
      <trkpt lat="44.3877" lon="6.33624">
        <ele>1212.4000244141</ele>
        <time>2016-07-11T13:06:46.000Z</time>
      </trkpt>
      <trkpt lat="44.38768" lon="6.33616">
        <ele>1211.5999755859</ele>
        <time>2016-07-11T13:06:50.000Z</time>
      </trkpt>
      <trkpt lat="44.38766" lon="6.33605">
        <ele>1210.5999755859</ele>
        <time>2016-07-11T13:06:56.000Z</time>
      </trkpt>
      <trkpt lat="44.38766" lon="6.33601">
        <ele>1210.1999511719</ele>
        <time>2016-07-11T13:06:58.000Z</time>
      </trkpt>
      <trkpt lat="44.38762" lon="6.3359">
        <ele>1209.4000244141</ele>
        <time>2016-07-11T13:07:04.000Z</time>
      </trkpt>
      <trkpt lat="44.38761" lon="6.33582">
        <ele>1208.4000244141</ele>
        <time>2016-07-11T13:07:08.000Z</time>
      </trkpt>
      <trkpt lat="44.38756" lon="6.33568">
        <ele>1207.8000488281</ele>
        <time>2016-07-11T13:07:15.000Z</time>
      </trkpt>
      <trkpt lat="44.38751" lon="6.33555">
        <ele>1206.4000244141</ele>
        <time>2016-07-11T13:07:23.000Z</time>
      </trkpt>
      <trkpt lat="44.38748" lon="6.33543">
        <ele>1205</ele>
        <time>2016-07-11T13:07:29.000Z</time>
      </trkpt>
      <trkpt lat="44.38747" lon="6.33534">
        <ele>1203.5999755859</ele>
        <time>2016-07-11T13:07:33.000Z</time>
      </trkpt>
      <trkpt lat="44.38747" lon="6.33525">
        <ele>1202.1999511719</ele>
        <time>2016-07-11T13:07:38.000Z</time>
      </trkpt>
      <trkpt lat="44.38746" lon="6.33516">
        <ele>1201.1999511719</ele>
        <time>2016-07-11T13:07:43.000Z</time>
      </trkpt>
      <trkpt lat="44.38745" lon="6.33508">
        <ele>1200.1999511719</ele>
        <time>2016-07-11T13:07:47.000Z</time>
      </trkpt>
      <trkpt lat="44.38737" lon="6.33493">
        <ele>1199.1999511719</ele>
        <time>2016-07-11T13:07:55.000Z</time>
      </trkpt>
      <trkpt lat="44.38728" lon="6.33484">
        <ele>1199.4000244141</ele>
        <time>2016-07-11T13:08:02.000Z</time>
      </trkpt>
      <trkpt lat="44.38727" lon="6.33483">
        <ele>1199.4000244141</ele>
        <time>2016-07-11T13:08:03.000Z</time>
      </trkpt>
      <trkpt lat="44.38725" lon="6.33476">
        <ele>1198</ele>
        <time>2016-07-11T13:08:07.000Z</time>
      </trkpt>
      <trkpt lat="44.38722" lon="6.33463">
        <ele>1194.5999755859</ele>
        <time>2016-07-11T13:08:13.000Z</time>
      </trkpt>
      <trkpt lat="44.38722" lon="6.33462">
        <ele>1194.1999511719</ele>
        <time>2016-07-11T13:08:14.000Z</time>
      </trkpt>
      <trkpt lat="44.38723" lon="6.33455">
        <ele>1191.8000488281</ele>
        <time>2016-07-11T13:08:19.000Z</time>
      </trkpt>
      <trkpt lat="44.38722" lon="6.33442">
        <ele>1188</ele>
        <time>2016-07-11T13:08:25.000Z</time>
      </trkpt>
      <trkpt lat="44.38722" lon="6.33441">
        <ele>1187.4000244141</ele>
        <time>2016-07-11T13:08:26.000Z</time>
      </trkpt>
      <trkpt lat="44.38722" lon="6.3343">
        <ele>1184</ele>
        <time>2016-07-11T13:08:32.000Z</time>
      </trkpt>
      <trkpt lat="44.38721" lon="6.33422">
        <ele>1182</ele>
        <time>2016-07-11T13:08:35.000Z</time>
      </trkpt>
      <trkpt lat="44.38718" lon="6.33412">
        <ele>1180</ele>
        <time>2016-07-11T13:08:40.000Z</time>
      </trkpt>
      <trkpt lat="44.38718" lon="6.3341">
        <ele>1179.5999755859</ele>
        <time>2016-07-11T13:08:41.000Z</time>
      </trkpt>
      <trkpt lat="44.38715" lon="6.33403">
        <ele>1178.4000244141</ele>
        <time>2016-07-11T13:08:46.000Z</time>
      </trkpt>
      <trkpt lat="44.38709" lon="6.33391">
        <ele>1175.8000488281</ele>
        <time>2016-07-11T13:08:53.000Z</time>
      </trkpt>
      <trkpt lat="44.3871" lon="6.33375">
        <ele>1171</ele>
        <time>2016-07-11T13:09:01.000Z</time>
      </trkpt>
      <trkpt lat="44.38711" lon="6.33373">
        <ele>1170.5999755859</ele>
        <time>2016-07-11T13:09:02.000Z</time>
      </trkpt>
      <trkpt lat="44.38717" lon="6.33367">
        <ele>1168.5999755859</ele>
        <time>2016-07-11T13:09:08.000Z</time>
      </trkpt>
      <trkpt lat="44.3872" lon="6.3336">
        <ele>1166.5999755859</ele>
        <time>2016-07-11T13:09:13.000Z</time>
      </trkpt>
      <trkpt lat="44.38719" lon="6.33357">
        <ele>1165.5999755859</ele>
        <time>2016-07-11T13:09:15.000Z</time>
      </trkpt>
      <trkpt lat="44.38716" lon="6.33353">
        <ele>1164.5999755859</ele>
        <time>2016-07-11T13:09:18.000Z</time>
      </trkpt>
      <trkpt lat="44.38709" lon="6.33348">
        <ele>1163.5999755859</ele>
        <time>2016-07-11T13:09:25.000Z</time>
      </trkpt>
      <trkpt lat="44.38705" lon="6.3335">
        <ele>1164.1999511719</ele>
        <time>2016-07-11T13:09:28.000Z</time>
      </trkpt>
      <trkpt lat="44.38699" lon="6.33356">
        <ele>1166.1999511719</ele>
        <time>2016-07-11T13:09:34.000Z</time>
      </trkpt>
      <trkpt lat="44.38687" lon="6.33364">
        <ele>1169</ele>
        <time>2016-07-11T13:09:44.000Z</time>
      </trkpt>
      <trkpt lat="44.3868" lon="6.33367">
        <ele>1170</ele>
        <time>2016-07-11T13:09:50.000Z</time>
      </trkpt>
      <trkpt lat="44.38671" lon="6.3337">
        <ele>1171</ele>
        <time>2016-07-11T13:09:57.000Z</time>
      </trkpt>
      <trkpt lat="44.38664" lon="6.3337">
        <ele>1171.4000244141</ele>
        <time>2016-07-11T13:10:03.000Z</time>
      </trkpt>
      <trkpt lat="44.38656" lon="6.33369">
        <ele>1171.5999755859</ele>
        <time>2016-07-11T13:10:09.000Z</time>
      </trkpt>
      <trkpt lat="44.38648" lon="6.33366">
        <ele>1171</ele>
        <time>2016-07-11T13:10:15.000Z</time>
      </trkpt>
      <trkpt lat="44.38637" lon="6.33361">
        <ele>1170</ele>
        <time>2016-07-11T13:10:22.000Z</time>
      </trkpt>
      <trkpt lat="44.38627" lon="6.33354">
        <ele>1168.4000244141</ele>
        <time>2016-07-11T13:10:29.000Z</time>
      </trkpt>
      <trkpt lat="44.38622" lon="6.33349">
        <ele>1167.1999511719</ele>
        <time>2016-07-11T13:10:35.000Z</time>
      </trkpt>
      <trkpt lat="44.38615" lon="6.33338">
        <ele>1164.1999511719</ele>
        <time>2016-07-11T13:10:42.000Z</time>
      </trkpt>
      <trkpt lat="44.38605" lon="6.3333">
        <ele>1162</ele>
        <time>2016-07-11T13:10:49.000Z</time>
      </trkpt>
      <trkpt lat="44.38597" lon="6.33323">
        <ele>1159.8000488281</ele>
        <time>2016-07-11T13:10:56.000Z</time>
      </trkpt>
      <trkpt lat="44.38589" lon="6.33317">
        <ele>1158.4000244141</ele>
        <time>2016-07-11T13:11:03.000Z</time>
      </trkpt>
      <trkpt lat="44.38583" lon="6.33316">
        <ele>1158</ele>
        <time>2016-07-11T13:11:08.000Z</time>
      </trkpt>
      <trkpt lat="44.38575" lon="6.33313">
        <ele>1157.1999511719</ele>
        <time>2016-07-11T13:11:14.000Z</time>
      </trkpt>
      <trkpt lat="44.38572" lon="6.3331">
        <ele>1156.4000244141</ele>
        <time>2016-07-11T13:11:17.000Z</time>
      </trkpt>
      <trkpt lat="44.38563" lon="6.33304">
        <ele>1155</ele>
        <time>2016-07-11T13:11:25.000Z</time>
      </trkpt>
      <trkpt lat="44.38551" lon="6.33299">
        <ele>1153.8000488281</ele>
        <time>2016-07-11T13:11:33.000Z</time>
      </trkpt>
      <trkpt lat="44.38543" lon="6.33292">
        <ele>1152.1999511719</ele>
        <time>2016-07-11T13:11:40.000Z</time>
      </trkpt>
      <trkpt lat="44.38533" lon="6.33289">
        <ele>1151.4000244141</ele>
        <time>2016-07-11T13:11:47.000Z</time>
      </trkpt>
      <trkpt lat="44.38522" lon="6.33285">
        <ele>1150.8000488281</ele>
        <time>2016-07-11T13:11:55.000Z</time>
      </trkpt>
      <trkpt lat="44.38516" lon="6.33281">
        <ele>1149.8000488281</ele>
        <time>2016-07-11T13:12:01.000Z</time>
      </trkpt>
      <trkpt lat="44.38507" lon="6.33276">
        <ele>1148.5999755859</ele>
        <time>2016-07-11T13:12:07.000Z</time>
      </trkpt>
      <trkpt lat="44.38496" lon="6.33271">
        <ele>1147.4000244141</ele>
        <time>2016-07-11T13:12:15.000Z</time>
      </trkpt>
      <trkpt lat="44.38484" lon="6.33263">
        <ele>1145.8000488281</ele>
        <time>2016-07-11T13:12:23.000Z</time>
      </trkpt>
      <trkpt lat="44.3847" lon="6.33258">
        <ele>1145.4000244141</ele>
        <time>2016-07-11T13:12:32.000Z</time>
      </trkpt>
      <trkpt lat="44.38455" lon="6.33251">
        <ele>1145.5999755859</ele>
        <time>2016-07-11T13:12:41.000Z</time>
      </trkpt>
      <trkpt lat="44.38441" lon="6.33245">
        <ele>1144</ele>
        <time>2016-07-11T13:12:50.000Z</time>
      </trkpt>
      <trkpt lat="44.38434" lon="6.33242">
        <ele>1142.4000244141</ele>
        <time>2016-07-11T13:12:54.000Z</time>
      </trkpt>
      <trkpt lat="44.38422" lon="6.33235">
        <ele>1139</ele>
        <time>2016-07-11T13:13:02.000Z</time>
      </trkpt>
      <trkpt lat="44.38409" lon="6.33229">
        <ele>1136.5999755859</ele>
        <time>2016-07-11T13:13:10.000Z</time>
      </trkpt>
      <trkpt lat="44.38397" lon="6.33223">
        <ele>1135</ele>
        <time>2016-07-11T13:13:18.000Z</time>
      </trkpt>
      <trkpt lat="44.38384" lon="6.33223">
        <ele>1134.5999755859</ele>
        <time>2016-07-11T13:13:26.000Z</time>
      </trkpt>
      <trkpt lat="44.38374" lon="6.33221">
        <ele>1133.8000488281</ele>
        <time>2016-07-11T13:13:32.000Z</time>
      </trkpt>
      <trkpt lat="44.38362" lon="6.33218">
        <ele>1132.8000488281</ele>
        <time>2016-07-11T13:13:40.000Z</time>
      </trkpt>
      <trkpt lat="44.38353" lon="6.33215">
        <ele>1131.5999755859</ele>
        <time>2016-07-11T13:13:47.000Z</time>
      </trkpt>
      <trkpt lat="44.38342" lon="6.33211">
        <ele>1129.8000488281</ele>
        <time>2016-07-11T13:13:55.000Z</time>
      </trkpt>
      <trkpt lat="44.38336" lon="6.33208">
        <ele>1128.1999511719</ele>
        <time>2016-07-11T13:14:01.000Z</time>
      </trkpt>
      <trkpt lat="44.3833" lon="6.33207">
        <ele>1127.1999511719</ele>
        <time>2016-07-11T13:14:05.000Z</time>
      </trkpt>
      <trkpt lat="44.38315" lon="6.33207">
        <ele>1125</ele>
        <time>2016-07-11T13:14:14.000Z</time>
      </trkpt>
      <trkpt lat="44.38298" lon="6.3321">
        <ele>1122.8000488281</ele>
        <time>2016-07-11T13:14:25.000Z</time>
      </trkpt>
      <trkpt lat="44.38288" lon="6.3321">
        <ele>1121.1999511719</ele>
        <time>2016-07-11T13:14:32.000Z</time>
      </trkpt>
      <trkpt lat="44.38279" lon="6.33213">
        <ele>1120.4000244141</ele>
        <time>2016-07-11T13:14:38.000Z</time>
      </trkpt>
      <trkpt lat="44.3827" lon="6.33216">
        <ele>1120.4000244141</ele>
        <time>2016-07-11T13:14:44.000Z</time>
      </trkpt>
      <trkpt lat="44.38262" lon="6.3322">
        <ele>1119.5999755859</ele>
        <time>2016-07-11T13:14:50.000Z</time>
      </trkpt>
      <trkpt lat="44.38258" lon="6.33224">
        <ele>1119.4000244141</ele>
        <time>2016-07-11T13:14:54.000Z</time>
      </trkpt>
      <trkpt lat="44.38256" lon="6.33225">
        <ele>1119.1999511719</ele>
        <time>2016-07-11T13:14:55.000Z</time>
      </trkpt>
      <trkpt lat="44.38245" lon="6.33233">
        <ele>1118.4000244141</ele>
        <time>2016-07-11T13:15:02.000Z</time>
      </trkpt>
      <trkpt lat="44.38236" lon="6.33238">
        <ele>1118.4000244141</ele>
        <time>2016-07-11T13:15:08.000Z</time>
      </trkpt>
      <trkpt lat="44.38226" lon="6.33242">
        <ele>1118.4000244141</ele>
        <time>2016-07-11T13:15:14.000Z</time>
      </trkpt>
      <trkpt lat="44.38214" lon="6.33248">
        <ele>1118</ele>
        <time>2016-07-11T13:15:22.000Z</time>
      </trkpt>
      <trkpt lat="44.38203" lon="6.33256">
        <ele>1115.5999755859</ele>
        <time>2016-07-11T13:15:30.000Z</time>
      </trkpt>
      <trkpt lat="44.38192" lon="6.33261">
        <ele>1114.5999755859</ele>
        <time>2016-07-11T13:15:37.000Z</time>
      </trkpt>
      <trkpt lat="44.38178" lon="6.33266">
        <ele>1114.8000488281</ele>
        <time>2016-07-11T13:15:46.000Z</time>
      </trkpt>
      <trkpt lat="44.38168" lon="6.33269">
        <ele>1114.8000488281</ele>
        <time>2016-07-11T13:15:53.000Z</time>
      </trkpt>
      <trkpt lat="44.38166" lon="6.3327">
        <ele>1115</ele>
        <time>2016-07-11T13:15:54.000Z</time>
      </trkpt>
      <trkpt lat="44.38147" lon="6.33273">
        <ele>1113.8000488281</ele>
        <time>2016-07-11T13:16:07.000Z</time>
      </trkpt>
      <trkpt lat="44.38134" lon="6.33274">
        <ele>1112</ele>
        <time>2016-07-11T13:16:15.000Z</time>
      </trkpt>
      <trkpt lat="44.38125" lon="6.33276">
        <ele>1110.8000488281</ele>
        <time>2016-07-11T13:16:21.000Z</time>
      </trkpt>
      <trkpt lat="44.38114" lon="6.33277">
        <ele>1109.5999755859</ele>
        <time>2016-07-11T13:16:28.000Z</time>
      </trkpt>
      <trkpt lat="44.38104" lon="6.33276">
        <ele>1109.8000488281</ele>
        <time>2016-07-11T13:16:35.000Z</time>
      </trkpt>
      <trkpt lat="44.38101" lon="6.3328">
        <ele>1110</ele>
        <time>2016-07-11T13:16:40.000Z</time>
      </trkpt>
      <trkpt lat="44.381" lon="6.33282">
        <ele>1110</ele>
        <time>2016-07-11T13:16:52.000Z</time>
      </trkpt>
      <trkpt lat="44.381" lon="6.33281">
        <ele>1110</ele>
        <time>2016-07-11T13:17:09.000Z</time>
      </trkpt>
      <trkpt lat="44.38094" lon="6.33273">
        <ele>1110</ele>
        <time>2016-07-11T13:17:15.000Z</time>
      </trkpt>
      <trkpt lat="44.38092" lon="6.33272">
        <ele>1110</ele>
        <time>2016-07-11T13:17:16.000Z</time>
      </trkpt>
      <trkpt lat="44.38077" lon="6.33264">
        <ele>1110.1999511719</ele>
        <time>2016-07-11T13:17:26.000Z</time>
      </trkpt>
      <trkpt lat="44.38068" lon="6.33265">
        <ele>1110.5999755859</ele>
        <time>2016-07-11T13:17:32.000Z</time>
      </trkpt>
      <trkpt lat="44.38057" lon="6.33272">
        <ele>1110.5999755859</ele>
        <time>2016-07-11T13:17:39.000Z</time>
      </trkpt>
      <trkpt lat="44.38043" lon="6.33282">
        <ele>1110.8000488281</ele>
        <time>2016-07-11T13:17:49.000Z</time>
      </trkpt>
      <trkpt lat="44.3803" lon="6.33289">
        <ele>1111</ele>
        <time>2016-07-11T13:17:58.000Z</time>
      </trkpt>
      <trkpt lat="44.38016" lon="6.33294">
        <ele>1111.8000488281</ele>
        <time>2016-07-11T13:18:07.000Z</time>
      </trkpt>
      <trkpt lat="44.38003" lon="6.33298">
        <ele>1112.5999755859</ele>
        <time>2016-07-11T13:18:15.000Z</time>
      </trkpt>
      <trkpt lat="44.37991" lon="6.33304">
        <ele>1113.1999511719</ele>
        <time>2016-07-11T13:18:23.000Z</time>
      </trkpt>
      <trkpt lat="44.37982" lon="6.33312">
        <ele>1114</ele>
        <time>2016-07-11T13:18:30.000Z</time>
      </trkpt>
      <trkpt lat="44.37975" lon="6.33315">
        <ele>1114.4000244141</ele>
        <time>2016-07-11T13:18:35.000Z</time>
      </trkpt>
      <trkpt lat="44.37963" lon="6.33324">
        <ele>1115</ele>
        <time>2016-07-11T13:18:43.000Z</time>
      </trkpt>
      <trkpt lat="44.37951" lon="6.33331">
        <ele>1116.1999511719</ele>
        <time>2016-07-11T13:18:51.000Z</time>
      </trkpt>
      <trkpt lat="44.37941" lon="6.33334">
        <ele>1117.1999511719</ele>
        <time>2016-07-11T13:18:58.000Z</time>
      </trkpt>
      <trkpt lat="44.37929" lon="6.33342">
        <ele>1118.8000488281</ele>
        <time>2016-07-11T13:19:07.000Z</time>
      </trkpt>
      <trkpt lat="44.37919" lon="6.33347">
        <ele>1120</ele>
        <time>2016-07-11T13:19:14.000Z</time>
      </trkpt>
      <trkpt lat="44.37911" lon="6.33352">
        <ele>1120.8000488281</ele>
        <time>2016-07-11T13:19:20.000Z</time>
      </trkpt>
      <trkpt lat="44.37904" lon="6.33355">
        <ele>1121.5999755859</ele>
        <time>2016-07-11T13:19:27.000Z</time>
      </trkpt>
      <trkpt lat="44.37901" lon="6.33355">
        <ele>1122</ele>
        <time>2016-07-11T13:19:29.000Z</time>
      </trkpt>
      <trkpt lat="44.37886" lon="6.33356">
        <ele>1123.4000244141</ele>
        <time>2016-07-11T13:19:37.000Z</time>
      </trkpt>
      <trkpt lat="44.37879" lon="6.33354">
        <ele>1124.1999511719</ele>
        <time>2016-07-11T13:19:41.000Z</time>
      </trkpt>
      <trkpt lat="44.37874" lon="6.33351">
        <ele>1124.5999755859</ele>
        <time>2016-07-11T13:19:44.000Z</time>
      </trkpt>
      <trkpt lat="44.3786" lon="6.33347">
        <ele>1125.8000488281</ele>
        <time>2016-07-11T13:19:53.000Z</time>
      </trkpt>
      <trkpt lat="44.37852" lon="6.33348">
        <ele>1126.4000244141</ele>
        <time>2016-07-11T13:19:59.000Z</time>
      </trkpt>
      <trkpt lat="44.37851" lon="6.33348">
        <ele>1126.5999755859</ele>
        <time>2016-07-11T13:20:00.000Z</time>
      </trkpt>
      <trkpt lat="44.37841" lon="6.33346">
        <ele>1127.4000244141</ele>
        <time>2016-07-11T13:20:07.000Z</time>
      </trkpt>
      <trkpt lat="44.37839" lon="6.33346">
        <ele>1127.5999755859</ele>
        <time>2016-07-11T13:20:08.000Z</time>
      </trkpt>
      <trkpt lat="44.37823" lon="6.33353">
        <ele>1129</ele>
        <time>2016-07-11T13:20:15.000Z</time>
      </trkpt>
      <trkpt lat="44.37808" lon="6.33359">
        <ele>1131.5999755859</ele>
        <time>2016-07-11T13:20:21.000Z</time>
      </trkpt>
      <trkpt lat="44.37792" lon="6.33369">
        <ele>1134.8000488281</ele>
        <time>2016-07-11T13:20:27.000Z</time>
      </trkpt>
      <trkpt lat="44.3779" lon="6.3337">
        <ele>1135.4000244141</ele>
        <time>2016-07-11T13:20:28.000Z</time>
      </trkpt>
      <trkpt lat="44.37773" lon="6.33379">
        <ele>1138.4000244141</ele>
        <time>2016-07-11T13:20:34.000Z</time>
      </trkpt>
      <trkpt lat="44.37765" lon="6.33385">
        <ele>1140</ele>
        <time>2016-07-11T13:20:38.000Z</time>
      </trkpt>
      <trkpt lat="44.37749" lon="6.33397">
        <ele>1145.1999511719</ele>
        <time>2016-07-11T13:20:44.000Z</time>
      </trkpt>
      <trkpt lat="44.37734" lon="6.33401">
        <ele>1148.4000244141</ele>
        <time>2016-07-11T13:20:49.000Z</time>
      </trkpt>
      <trkpt lat="44.37724" lon="6.33406">
        <ele>1150.8000488281</ele>
        <time>2016-07-11T13:20:53.000Z</time>
      </trkpt>
      <trkpt lat="44.37722" lon="6.3341">
        <ele>1151.5999755859</ele>
        <time>2016-07-11T13:20:54.000Z</time>
      </trkpt>
      <trkpt lat="44.37716" lon="6.3343">
        <ele>1154</ele>
        <time>2016-07-11T13:20:59.000Z</time>
      </trkpt>
      <trkpt lat="44.37711" lon="6.33454">
        <ele>1156.8000488281</ele>
        <time>2016-07-11T13:21:06.000Z</time>
      </trkpt>
      <trkpt lat="44.37706" lon="6.33468">
        <ele>1158.5999755859</ele>
        <time>2016-07-11T13:21:13.000Z</time>
      </trkpt>
      <trkpt lat="44.37701" lon="6.33479">
        <ele>1160.4000244141</ele>
        <time>2016-07-11T13:21:20.000Z</time>
      </trkpt>
      <trkpt lat="44.37697" lon="6.33488">
        <ele>1161.1999511719</ele>
        <time>2016-07-11T13:21:26.000Z</time>
      </trkpt>
      <trkpt lat="44.37692" lon="6.335">
        <ele>1161.8000488281</ele>
        <time>2016-07-11T13:21:34.000Z</time>
      </trkpt>
      <trkpt lat="44.37687" lon="6.33512">
        <ele>1162.4000244141</ele>
        <time>2016-07-11T13:21:40.000Z</time>
      </trkpt>
      <trkpt lat="44.37682" lon="6.33526">
        <ele>1163.1999511719</ele>
        <time>2016-07-11T13:21:48.000Z</time>
      </trkpt>
      <trkpt lat="44.37676" lon="6.3354">
        <ele>1164</ele>
        <time>2016-07-11T13:21:55.000Z</time>
      </trkpt>
      <trkpt lat="44.37671" lon="6.33551">
        <ele>1165.1999511719</ele>
        <time>2016-07-11T13:22:01.000Z</time>
      </trkpt>
      <trkpt lat="44.37665" lon="6.33562">
        <ele>1166.4000244141</ele>
        <time>2016-07-11T13:22:08.000Z</time>
      </trkpt>
      <trkpt lat="44.37664" lon="6.33563">
        <ele>1166.5999755859</ele>
        <time>2016-07-11T13:22:09.000Z</time>
      </trkpt>
      <trkpt lat="44.37658" lon="6.33576">
        <ele>1168</ele>
        <time>2016-07-11T13:22:16.000Z</time>
      </trkpt>
      <trkpt lat="44.37652" lon="6.3359">
        <ele>1169.4000244141</ele>
        <time>2016-07-11T13:22:24.000Z</time>
      </trkpt>
      <trkpt lat="44.37647" lon="6.33603">
        <ele>1170.1999511719</ele>
        <time>2016-07-11T13:22:31.000Z</time>
      </trkpt>
      <trkpt lat="44.37639" lon="6.33619">
        <ele>1170.4000244141</ele>
        <time>2016-07-11T13:22:40.000Z</time>
      </trkpt>
      <trkpt lat="44.37622" lon="6.33642">
        <ele>1171.4000244141</ele>
        <time>2016-07-11T13:22:56.000Z</time>
      </trkpt>
      <trkpt lat="44.37615" lon="6.33651">
        <ele>1172.1999511719</ele>
        <time>2016-07-11T13:23:03.000Z</time>
      </trkpt>
      <trkpt lat="44.37611" lon="6.33658">
        <ele>1172.8000488281</ele>
        <time>2016-07-11T13:23:08.000Z</time>
      </trkpt>
      <trkpt lat="44.37605" lon="6.33666">
        <ele>1173.5999755859</ele>
        <time>2016-07-11T13:23:14.000Z</time>
      </trkpt>
      <trkpt lat="44.37602" lon="6.33669">
        <ele>1174</ele>
        <time>2016-07-11T13:23:17.000Z</time>
      </trkpt>
      <trkpt lat="44.37597" lon="6.33676">
        <ele>1174.8000488281</ele>
        <time>2016-07-11T13:23:24.000Z</time>
      </trkpt>
      <trkpt lat="44.37592" lon="6.3368">
        <ele>1175.1999511719</ele>
        <time>2016-07-11T13:23:27.000Z</time>
      </trkpt>
      <trkpt lat="44.37582" lon="6.33688">
        <ele>1176</ele>
        <time>2016-07-11T13:23:34.000Z</time>
      </trkpt>
      <trkpt lat="44.37576" lon="6.33692">
        <ele>1176.8000488281</ele>
        <time>2016-07-11T13:23:39.000Z</time>
      </trkpt>
      <trkpt lat="44.37557" lon="6.33707">
        <ele>1182</ele>
        <time>2016-07-11T13:23:53.000Z</time>
      </trkpt>
      <trkpt lat="44.3755" lon="6.33712">
        <ele>1184</ele>
        <time>2016-07-11T13:23:58.000Z</time>
      </trkpt>
      <trkpt lat="44.37541" lon="6.3372">
        <ele>1186.8000488281</ele>
        <time>2016-07-11T13:24:05.000Z</time>
      </trkpt>
      <trkpt lat="44.37537" lon="6.3373">
        <ele>1189</ele>
        <time>2016-07-11T13:24:10.000Z</time>
      </trkpt>
      <trkpt lat="44.37538" lon="6.33739">
        <ele>1190.4000244141</ele>
        <time>2016-07-11T13:24:16.000Z</time>
      </trkpt>
      <trkpt lat="44.37539" lon="6.33741">
        <ele>1190.5999755859</ele>
        <time>2016-07-11T13:24:17.000Z</time>
      </trkpt>
      <trkpt lat="44.37541" lon="6.3375">
        <ele>1192</ele>
        <time>2016-07-11T13:24:23.000Z</time>
      </trkpt>
      <trkpt lat="44.37542" lon="6.33751">
        <ele>1192.4000244141</ele>
        <time>2016-07-11T13:24:24.000Z</time>
      </trkpt>
      <trkpt lat="44.3754" lon="6.33758">
        <ele>1194.1999511719</ele>
        <time>2016-07-11T13:24:28.000Z</time>
      </trkpt>
      <trkpt lat="44.37539" lon="6.33761">
        <ele>1195.4000244141</ele>
        <time>2016-07-11T13:24:30.000Z</time>
      </trkpt>
      <trkpt lat="44.37534" lon="6.33763">
        <ele>1197.1999511719</ele>
        <time>2016-07-11T13:24:34.000Z</time>
      </trkpt>
      <trkpt lat="44.37528" lon="6.33762">
        <ele>1198</ele>
        <time>2016-07-11T13:24:39.000Z</time>
      </trkpt>
      <trkpt lat="44.37527" lon="6.33762">
        <ele>1198.1999511719</ele>
        <time>2016-07-11T13:24:40.000Z</time>
      </trkpt>
      <trkpt lat="44.37517" lon="6.3376">
        <ele>1199.4000244141</ele>
        <time>2016-07-11T13:24:49.000Z</time>
      </trkpt>
      <trkpt lat="44.37509" lon="6.3376">
        <ele>1201</ele>
        <time>2016-07-11T13:24:56.000Z</time>
      </trkpt>
      <trkpt lat="44.37499" lon="6.33762">
        <ele>1203</ele>
        <time>2016-07-11T13:25:04.000Z</time>
      </trkpt>
      <trkpt lat="44.37489" lon="6.3376">
        <ele>1204</ele>
        <time>2016-07-11T13:25:12.000Z</time>
      </trkpt>
      <trkpt lat="44.37488" lon="6.3376">
        <ele>1204.1999511719</ele>
        <time>2016-07-11T13:25:13.000Z</time>
      </trkpt>
      <trkpt lat="44.37481" lon="6.33758">
        <ele>1205</ele>
        <time>2016-07-11T13:25:18.000Z</time>
      </trkpt>
      <trkpt lat="44.3748" lon="6.33758">
        <ele>1205.1999511719</ele>
        <time>2016-07-11T13:25:19.000Z</time>
      </trkpt>
      <trkpt lat="44.37471" lon="6.33757">
        <ele>1206.5999755859</ele>
        <time>2016-07-11T13:25:24.000Z</time>
      </trkpt>
      <trkpt lat="44.37468" lon="6.33756">
        <ele>1207.4000244141</ele>
        <time>2016-07-11T13:25:26.000Z</time>
      </trkpt>
      <trkpt lat="44.37459" lon="6.33756">
        <ele>1209.8000488281</ele>
        <time>2016-07-11T13:25:33.000Z</time>
      </trkpt>
      <trkpt lat="44.37449" lon="6.33752">
        <ele>1211.4000244141</ele>
        <time>2016-07-11T13:25:40.000Z</time>
      </trkpt>
      <trkpt lat="44.37434" lon="6.3375">
        <ele>1212.5999755859</ele>
        <time>2016-07-11T13:25:50.000Z</time>
      </trkpt>
      <trkpt lat="44.37431" lon="6.33751">
        <ele>1213.1999511719</ele>
        <time>2016-07-11T13:25:52.000Z</time>
      </trkpt>
      <trkpt lat="44.3742" lon="6.33746">
        <ele>1213</ele>
        <time>2016-07-11T13:26:00.000Z</time>
      </trkpt>
      <trkpt lat="44.37409" lon="6.33743">
        <ele>1213</ele>
        <time>2016-07-11T13:26:07.000Z</time>
      </trkpt>
      <trkpt lat="44.37399" lon="6.33742">
        <ele>1214</ele>
        <time>2016-07-11T13:26:14.000Z</time>
      </trkpt>
      <trkpt lat="44.37385" lon="6.33738">
        <ele>1214.1999511719</ele>
        <time>2016-07-11T13:26:22.000Z</time>
      </trkpt>
      <trkpt lat="44.37374" lon="6.33737">
        <ele>1215.1999511719</ele>
        <time>2016-07-11T13:26:29.000Z</time>
      </trkpt>
      <trkpt lat="44.37364" lon="6.33737">
        <ele>1216.1999511719</ele>
        <time>2016-07-11T13:26:36.000Z</time>
      </trkpt>
      <trkpt lat="44.37354" lon="6.3374">
        <ele>1216.5999755859</ele>
        <time>2016-07-11T13:26:43.000Z</time>
      </trkpt>
      <trkpt lat="44.37344" lon="6.33743">
        <ele>1217.4000244141</ele>
        <time>2016-07-11T13:26:50.000Z</time>
      </trkpt>
      <trkpt lat="44.37328" lon="6.33751">
        <ele>1219.4000244141</ele>
        <time>2016-07-11T13:27:01.000Z</time>
      </trkpt>
      <trkpt lat="44.37315" lon="6.33754">
        <ele>1220.1999511719</ele>
        <time>2016-07-11T13:27:10.000Z</time>
      </trkpt>
      <trkpt lat="44.37303" lon="6.33759">
        <ele>1221.4000244141</ele>
        <time>2016-07-11T13:27:19.000Z</time>
      </trkpt>
      <trkpt lat="44.37293" lon="6.33764">
        <ele>1222.5999755859</ele>
        <time>2016-07-11T13:27:26.000Z</time>
      </trkpt>
      <trkpt lat="44.37278" lon="6.33771">
        <ele>1224.5999755859</ele>
        <time>2016-07-11T13:27:37.000Z</time>
      </trkpt>
      <trkpt lat="44.37264" lon="6.33778">
        <ele>1226.8000488281</ele>
        <time>2016-07-11T13:27:47.000Z</time>
      </trkpt>
      <trkpt lat="44.37251" lon="6.33783">
        <ele>1228</ele>
        <time>2016-07-11T13:27:56.000Z</time>
      </trkpt>
      <trkpt lat="44.3724" lon="6.33786">
        <ele>1228</ele>
        <time>2016-07-11T13:28:04.000Z</time>
      </trkpt>
      <trkpt lat="44.3723" lon="6.33785">
        <ele>1227.1999511719</ele>
        <time>2016-07-11T13:28:11.000Z</time>
      </trkpt>
      <trkpt lat="44.37226" lon="6.33784">
        <ele>1226.8000488281</ele>
        <time>2016-07-11T13:28:14.000Z</time>
      </trkpt>
      <trkpt lat="44.37215" lon="6.33785">
        <ele>1226.4000244141</ele>
        <time>2016-07-11T13:28:21.000Z</time>
      </trkpt>
      <trkpt lat="44.37213" lon="6.33786">
        <ele>1226.4000244141</ele>
        <time>2016-07-11T13:28:22.000Z</time>
      </trkpt>
      <trkpt lat="44.37204" lon="6.33787">
        <ele>1226.1999511719</ele>
        <time>2016-07-11T13:28:28.000Z</time>
      </trkpt>
      <trkpt lat="44.37192" lon="6.33789">
        <ele>1226.8000488281</ele>
        <time>2016-07-11T13:28:36.000Z</time>
      </trkpt>
      <trkpt lat="44.37177" lon="6.33791">
        <ele>1228</ele>
        <time>2016-07-11T13:28:46.000Z</time>
      </trkpt>
      <trkpt lat="44.37172" lon="6.33791">
        <ele>1228.1999511719</ele>
        <time>2016-07-11T13:28:49.000Z</time>
      </trkpt>
      <trkpt lat="44.37167" lon="6.33792">
        <ele>1228.5999755859</ele>
        <time>2016-07-11T13:28:53.000Z</time>
      </trkpt>
      <trkpt lat="44.37153" lon="6.33796">
        <ele>1229.5999755859</ele>
        <time>2016-07-11T13:29:02.000Z</time>
      </trkpt>
      <trkpt lat="44.37143" lon="6.33798">
        <ele>1230.4000244141</ele>
        <time>2016-07-11T13:29:08.000Z</time>
      </trkpt>
      <trkpt lat="44.3714" lon="6.33799">
        <ele>1230.8000488281</ele>
        <time>2016-07-11T13:29:10.000Z</time>
      </trkpt>
      <trkpt lat="44.37131" lon="6.33802">
        <ele>1231.5999755859</ele>
        <time>2016-07-11T13:29:16.000Z</time>
      </trkpt>
      <trkpt lat="44.37116" lon="6.33807">
        <ele>1233.1999511719</ele>
        <time>2016-07-11T13:29:26.000Z</time>
      </trkpt>
      <trkpt lat="44.37103" lon="6.33812">
        <ele>1236.1999511719</ele>
        <time>2016-07-11T13:29:35.000Z</time>
      </trkpt>
      <trkpt lat="44.37086" lon="6.33818">
        <ele>1240.5999755859</ele>
        <time>2016-07-11T13:29:47.000Z</time>
      </trkpt>
      <trkpt lat="44.37074" lon="6.33823">
        <ele>1244.1999511719</ele>
        <time>2016-07-11T13:29:56.000Z</time>
      </trkpt>
      <trkpt lat="44.37061" lon="6.33824">
        <ele>1246.5999755859</ele>
        <time>2016-07-11T13:30:05.000Z</time>
      </trkpt>
      <trkpt lat="44.37051" lon="6.33819">
        <ele>1246.5999755859</ele>
        <time>2016-07-11T13:30:12.000Z</time>
      </trkpt>
      <trkpt lat="44.37041" lon="6.33811">
        <ele>1245.8000488281</ele>
        <time>2016-07-11T13:30:20.000Z</time>
      </trkpt>
      <trkpt lat="44.37026" lon="6.33799">
        <ele>1245</ele>
        <time>2016-07-11T13:30:31.000Z</time>
      </trkpt>
      <trkpt lat="44.3702" lon="6.33794">
        <ele>1244.5999755859</ele>
        <time>2016-07-11T13:30:36.000Z</time>
      </trkpt>
      <trkpt lat="44.37004" lon="6.33784">
        <ele>1244.4000244141</ele>
        <time>2016-07-11T13:30:47.000Z</time>
      </trkpt>
      <trkpt lat="44.36994" lon="6.33778">
        <ele>1244.1999511719</ele>
        <time>2016-07-11T13:30:54.000Z</time>
      </trkpt>
      <trkpt lat="44.36981" lon="6.33771">
        <ele>1243.8000488281</ele>
        <time>2016-07-11T13:31:03.000Z</time>
      </trkpt>
      <trkpt lat="44.3697" lon="6.33765">
        <ele>1243.1999511719</ele>
        <time>2016-07-11T13:31:11.000Z</time>
      </trkpt>
      <trkpt lat="44.36957" lon="6.3376">
        <ele>1243</ele>
        <time>2016-07-11T13:31:19.000Z</time>
      </trkpt>
      <trkpt lat="44.36947" lon="6.33756">
        <ele>1243</ele>
        <time>2016-07-11T13:31:25.000Z</time>
      </trkpt>
      <trkpt lat="44.36932" lon="6.33747">
        <ele>1241.5999755859</ele>
        <time>2016-07-11T13:31:35.000Z</time>
      </trkpt>
      <trkpt lat="44.36912" lon="6.33737">
        <ele>1240</ele>
        <time>2016-07-11T13:31:48.000Z</time>
      </trkpt>
      <trkpt lat="44.36901" lon="6.3373">
        <ele>1239</ele>
        <time>2016-07-11T13:31:56.000Z</time>
      </trkpt>
      <trkpt lat="44.36888" lon="6.33721">
        <ele>1238.1999511719</ele>
        <time>2016-07-11T13:32:05.000Z</time>
      </trkpt>
      <trkpt lat="44.36876" lon="6.33715">
        <ele>1237.5999755859</ele>
        <time>2016-07-11T13:32:13.000Z</time>
      </trkpt>
      <trkpt lat="44.3686" lon="6.33706">
        <ele>1236.8000488281</ele>
        <time>2016-07-11T13:32:23.000Z</time>
      </trkpt>
      <trkpt lat="44.36847" lon="6.33696">
        <ele>1235.1999511719</ele>
        <time>2016-07-11T13:32:32.000Z</time>
      </trkpt>
      <trkpt lat="44.36824" lon="6.3369">
        <ele>1233.5999755859</ele>
        <time>2016-07-11T13:32:49.000Z</time>
      </trkpt>
      <trkpt lat="44.36814" lon="6.33698">
        <ele>1232.5999755859</ele>
        <time>2016-07-11T13:32:57.000Z</time>
      </trkpt>
      <trkpt lat="44.36802" lon="6.3371">
        <ele>1231.1999511719</ele>
        <time>2016-07-11T13:33:07.000Z</time>
      </trkpt>
      <trkpt lat="44.36795" lon="6.33717">
        <ele>1230.4000244141</ele>
        <time>2016-07-11T13:33:13.000Z</time>
      </trkpt>
      <trkpt lat="44.36779" lon="6.33731">
        <ele>1228.8000488281</ele>
        <time>2016-07-11T13:33:25.000Z</time>
      </trkpt>
      <trkpt lat="44.36765" lon="6.33742">
        <ele>1228.1999511719</ele>
        <time>2016-07-11T13:33:35.000Z</time>
      </trkpt>
      <trkpt lat="44.3675" lon="6.33755">
        <ele>1227.4000244141</ele>
        <time>2016-07-11T13:33:46.000Z</time>
      </trkpt>
      <trkpt lat="44.36737" lon="6.3377">
        <ele>1226.8000488281</ele>
        <time>2016-07-11T13:33:57.000Z</time>
      </trkpt>
      <trkpt lat="44.36734" lon="6.33773">
        <ele>1226.1999511719</ele>
        <time>2016-07-11T13:34:02.000Z</time>
      </trkpt>
      <trkpt lat="44.36734" lon="6.33775">
        <ele>1226</ele>
        <time>2016-07-11T13:34:05.000Z</time>
      </trkpt>
      <trkpt lat="44.36729" lon="6.3378">
        <ele>1225.1999511719</ele>
        <time>2016-07-11T13:34:09.000Z</time>
      </trkpt>
      <trkpt lat="44.36722" lon="6.33787">
        <ele>1223.8000488281</ele>
        <time>2016-07-11T13:34:16.000Z</time>
      </trkpt>
      <trkpt lat="44.36713" lon="6.33794">
        <ele>1222.1999511719</ele>
        <time>2016-07-11T13:34:23.000Z</time>
      </trkpt>
      <trkpt lat="44.36705" lon="6.338">
        <ele>1220.8000488281</ele>
        <time>2016-07-11T13:34:30.000Z</time>
      </trkpt>
      <trkpt lat="44.36697" lon="6.33808">
        <ele>1219.1999511719</ele>
        <time>2016-07-11T13:34:37.000Z</time>
      </trkpt>
      <trkpt lat="44.3669" lon="6.3382">
        <ele>1217.8000488281</ele>
        <time>2016-07-11T13:34:45.000Z</time>
      </trkpt>
      <trkpt lat="44.36689" lon="6.33824">
        <ele>1217.4000244141</ele>
        <time>2016-07-11T13:34:47.000Z</time>
      </trkpt>
      <trkpt lat="44.36685" lon="6.33836">
        <ele>1216.1999511719</ele>
        <time>2016-07-11T13:34:54.000Z</time>
      </trkpt>
      <trkpt lat="44.36685" lon="6.33838">
        <ele>1216.1999511719</ele>
        <time>2016-07-11T13:34:55.000Z</time>
      </trkpt>
      <trkpt lat="44.36683" lon="6.33848">
        <ele>1215.4000244141</ele>
        <time>2016-07-11T13:35:00.000Z</time>
      </trkpt>
      <trkpt lat="44.3668" lon="6.33861">
        <ele>1214.4000244141</ele>
        <time>2016-07-11T13:35:07.000Z</time>
      </trkpt>
      <trkpt lat="44.36678" lon="6.33873">
        <ele>1213.4000244141</ele>
        <time>2016-07-11T13:35:14.000Z</time>
      </trkpt>
      <trkpt lat="44.36674" lon="6.33886">
        <ele>1212.8000488281</ele>
        <time>2016-07-11T13:35:21.000Z</time>
      </trkpt>
      <trkpt lat="44.3667" lon="6.33895">
        <ele>1212.4000244141</ele>
        <time>2016-07-11T13:35:26.000Z</time>
      </trkpt>
      <trkpt lat="44.36669" lon="6.33903">
        <ele>1212.5999755859</ele>
        <time>2016-07-11T13:35:30.000Z</time>
      </trkpt>
      <trkpt lat="44.36664" lon="6.33921">
        <ele>1213.5999755859</ele>
        <time>2016-07-11T13:35:39.000Z</time>
      </trkpt>
      <trkpt lat="44.36662" lon="6.33929">
        <ele>1213.8000488281</ele>
        <time>2016-07-11T13:35:44.000Z</time>
      </trkpt>
      <trkpt lat="44.36661" lon="6.33933">
        <ele>1214</ele>
        <time>2016-07-11T13:35:49.000Z</time>
      </trkpt>
      <trkpt lat="44.36658" lon="6.33933">
        <ele>1213.8000488281</ele>
        <time>2016-07-11T13:35:55.000Z</time>
      </trkpt>
      <trkpt lat="44.36656" lon="6.33931">
        <ele>1213.4000244141</ele>
        <time>2016-07-11T13:36:10.000Z</time>
      </trkpt>
      <trkpt lat="44.36651" lon="6.33929">
        <ele>1212.8000488281</ele>
        <time>2016-07-11T13:37:09.000Z</time>
      </trkpt>
      <trkpt lat="44.36653" lon="6.33932">
        <ele>1213.1999511719</ele>
        <time>2016-07-11T13:38:21.000Z</time>
      </trkpt>
      <trkpt lat="44.3665" lon="6.33931">
        <ele>1212.8000488281</ele>
        <time>2016-07-11T13:38:31.000Z</time>
      </trkpt>
      <trkpt lat="44.36648" lon="6.3393">
        <ele>1212.5999755859</ele>
        <time>2016-07-11T13:38:32.000Z</time>
      </trkpt>
      <trkpt lat="44.36642" lon="6.33931">
        <ele>1212</ele>
        <time>2016-07-11T13:38:37.000Z</time>
      </trkpt>
      <trkpt lat="44.36634" lon="6.33934">
        <ele>1211</ele>
        <time>2016-07-11T13:38:43.000Z</time>
      </trkpt>
      <trkpt lat="44.36633" lon="6.33934">
        <ele>1210.8000488281</ele>
        <time>2016-07-11T13:38:44.000Z</time>
      </trkpt>
      <trkpt lat="44.36621" lon="6.33936">
        <ele>1209.1999511719</ele>
        <time>2016-07-11T13:38:52.000Z</time>
      </trkpt>
      <trkpt lat="44.36611" lon="6.33934">
        <ele>1208</ele>
        <time>2016-07-11T13:38:59.000Z</time>
      </trkpt>
      <trkpt lat="44.36601" lon="6.33931">
        <ele>1206.5999755859</ele>
        <time>2016-07-11T13:39:07.000Z</time>
      </trkpt>
      <trkpt lat="44.36597" lon="6.3393">
        <ele>1206</ele>
        <time>2016-07-11T13:39:11.000Z</time>
      </trkpt>
      <trkpt lat="44.36594" lon="6.33931">
        <ele>1205.8000488281</ele>
        <time>2016-07-11T13:39:13.000Z</time>
      </trkpt>
      <trkpt lat="44.36591" lon="6.3393">
        <ele>1205.4000244141</ele>
        <time>2016-07-11T13:39:16.000Z</time>
      </trkpt>
      <trkpt lat="44.36583" lon="6.33928">
        <ele>1204.1999511719</ele>
        <time>2016-07-11T13:39:22.000Z</time>
      </trkpt>
      <trkpt lat="44.3658" lon="6.33927">
        <ele>1203.8000488281</ele>
        <time>2016-07-11T13:39:29.000Z</time>
      </trkpt>
      <trkpt lat="44.36578" lon="6.33927">
        <ele>1203.8000488281</ele>
        <time>2016-07-11T13:39:30.000Z</time>
      </trkpt>
      <trkpt lat="44.36576" lon="6.33925">
        <ele>1203.4000244141</ele>
        <time>2016-07-11T13:39:32.000Z</time>
      </trkpt>
      <trkpt lat="44.36562" lon="6.3392">
        <ele>1201.5999755859</ele>
        <time>2016-07-11T13:39:41.000Z</time>
      </trkpt>
      <trkpt lat="44.36558" lon="6.3392">
        <ele>1201</ele>
        <time>2016-07-11T13:39:47.000Z</time>
      </trkpt>
      <trkpt lat="44.36559" lon="6.3392">
        <ele>1201.1999511719</ele>
        <time>2016-07-11T13:39:54.000Z</time>
      </trkpt>
      <trkpt lat="44.36556" lon="6.3392">
        <ele>1200.8000488281</ele>
        <time>2016-07-11T13:39:59.000Z</time>
      </trkpt>
      <trkpt lat="44.36542" lon="6.33921">
        <ele>1199.5999755859</ele>
        <time>2016-07-11T13:40:08.000Z</time>
      </trkpt>
      <trkpt lat="44.36529" lon="6.33924">
        <ele>1198.8000488281</ele>
        <time>2016-07-11T13:40:16.000Z</time>
      </trkpt>
      <trkpt lat="44.36515" lon="6.33928">
        <ele>1198.8000488281</ele>
        <time>2016-07-11T13:40:25.000Z</time>
      </trkpt>
      <trkpt lat="44.36504" lon="6.3393">
        <ele>1198.8000488281</ele>
        <time>2016-07-11T13:40:33.000Z</time>
      </trkpt>
      <trkpt lat="44.36491" lon="6.33932">
        <ele>1198.5999755859</ele>
        <time>2016-07-11T13:40:41.000Z</time>
      </trkpt>
      <trkpt lat="44.36484" lon="6.33933">
        <ele>1198.4000244141</ele>
        <time>2016-07-11T13:40:48.000Z</time>
      </trkpt>
      <trkpt lat="44.36478" lon="6.33933">
        <ele>1198.1999511719</ele>
        <time>2016-07-11T13:41:05.000Z</time>
      </trkpt>
      <trkpt lat="44.36466" lon="6.33933">
        <ele>1197.5999755859</ele>
        <time>2016-07-11T13:41:14.000Z</time>
      </trkpt>
      <trkpt lat="44.36456" lon="6.33935">
        <ele>1197.1999511719</ele>
        <time>2016-07-11T13:41:21.000Z</time>
      </trkpt>
      <trkpt lat="44.36446" lon="6.33936">
        <ele>1196.8000488281</ele>
        <time>2016-07-11T13:41:28.000Z</time>
      </trkpt>
      <trkpt lat="44.36436" lon="6.33937">
        <ele>1196</ele>
        <time>2016-07-11T13:41:35.000Z</time>
      </trkpt>
      <trkpt lat="44.36422" lon="6.33937">
        <ele>1194.8000488281</ele>
        <time>2016-07-11T13:41:44.000Z</time>
      </trkpt>
      <trkpt lat="44.36411" lon="6.33935">
        <ele>1193.5999755859</ele>
        <time>2016-07-11T13:41:56.000Z</time>
      </trkpt>
      <trkpt lat="44.36401" lon="6.3394">
        <ele>1193.4000244141</ele>
        <time>2016-07-11T13:42:03.000Z</time>
      </trkpt>
      <trkpt lat="44.364" lon="6.3394">
        <ele>1193.4000244141</ele>
        <time>2016-07-11T13:42:04.000Z</time>
      </trkpt>
      <trkpt lat="44.36394" lon="6.33942">
        <ele>1193.4000244141</ele>
        <time>2016-07-11T13:42:10.000Z</time>
      </trkpt>
      <trkpt lat="44.36391" lon="6.33942">
        <ele>1193.1999511719</ele>
        <time>2016-07-11T13:42:12.000Z</time>
      </trkpt>
      <trkpt lat="44.36388" lon="6.3394">
        <ele>1193</ele>
        <time>2016-07-11T13:42:14.000Z</time>
      </trkpt>
      <trkpt lat="44.36381" lon="6.33937">
        <ele>1192.4000244141</ele>
        <time>2016-07-11T13:42:19.000Z</time>
      </trkpt>
      <trkpt lat="44.36379" lon="6.33938">
        <ele>1192.4000244141</ele>
        <time>2016-07-11T13:42:26.000Z</time>
      </trkpt>
      <trkpt lat="44.36386" lon="6.33942">
        <ele>1193</ele>
        <time>2016-07-11T13:42:32.000Z</time>
      </trkpt>
      <trkpt lat="44.36394" lon="6.33942">
        <ele>1193.4000244141</ele>
        <time>2016-07-11T13:42:37.000Z</time>
      </trkpt>
      <trkpt lat="44.36405" lon="6.33936">
        <ele>1193.1999511719</ele>
        <time>2016-07-11T13:42:42.000Z</time>
      </trkpt>
      <trkpt lat="44.36417" lon="6.33937">
        <ele>1194.1999511719</ele>
        <time>2016-07-11T13:42:48.000Z</time>
      </trkpt>
      <trkpt lat="44.36429" lon="6.33939">
        <ele>1195.4000244141</ele>
        <time>2016-07-11T13:42:54.000Z</time>
      </trkpt>
      <trkpt lat="44.36448" lon="6.33937">
        <ele>1197</ele>
        <time>2016-07-11T13:43:01.000Z</time>
      </trkpt>
      <trkpt lat="44.36469" lon="6.33935">
        <ele>1197.8000488281</ele>
        <time>2016-07-11T13:43:08.000Z</time>
      </trkpt>
      <trkpt lat="44.36482" lon="6.33934">
        <ele>1198.4000244141</ele>
        <time>2016-07-11T13:43:14.000Z</time>
      </trkpt>
      <trkpt lat="44.36497" lon="6.33931">
        <ele>1198.5999755859</ele>
        <time>2016-07-11T13:43:22.000Z</time>
      </trkpt>
      <trkpt lat="44.36509" lon="6.33926">
        <ele>1198.5999755859</ele>
        <time>2016-07-11T13:43:29.000Z</time>
      </trkpt>
      <trkpt lat="44.36519" lon="6.33924">
        <ele>1198.5999755859</ele>
        <time>2016-07-11T13:43:35.000Z</time>
      </trkpt>
      <trkpt lat="44.36533" lon="6.33919">
        <ele>1198.8000488281</ele>
        <time>2016-07-11T13:43:41.000Z</time>
      </trkpt>
      <trkpt lat="44.36545" lon="6.33915">
        <ele>1199.4000244141</ele>
        <time>2016-07-11T13:43:47.000Z</time>
      </trkpt>
      <trkpt lat="44.36548" lon="6.33915">
        <ele>1199.5999755859</ele>
        <time>2016-07-11T13:43:49.000Z</time>
      </trkpt>
      <trkpt lat="44.36549" lon="6.33905">
        <ele>1199.4000244141</ele>
        <time>2016-07-11T13:43:56.000Z</time>
      </trkpt>
      <trkpt lat="44.36542" lon="6.33892">
        <ele>1198.4000244141</ele>
        <time>2016-07-11T13:44:03.000Z</time>
      </trkpt>
      <trkpt lat="44.36534" lon="6.3388">
        <ele>1197.4000244141</ele>
        <time>2016-07-11T13:44:11.000Z</time>
      </trkpt>
      <trkpt lat="44.36531" lon="6.33875">
        <ele>1197</ele>
        <time>2016-07-11T13:44:30.000Z</time>
      </trkpt>
      <trkpt lat="44.36523" lon="6.33862">
        <ele>1196.4000244141</ele>
        <time>2016-07-11T13:44:38.000Z</time>
      </trkpt>
      <trkpt lat="44.36522" lon="6.3383">
        <ele>1196.1999511719</ele>
        <time>2016-07-11T13:44:48.000Z</time>
      </trkpt>
      <trkpt lat="44.3652" lon="6.33801">
        <ele>1196.1999511719</ele>
        <time>2016-07-11T13:44:53.000Z</time>
      </trkpt>
      <trkpt lat="44.36516" lon="6.33777">
        <ele>1197.5999755859</ele>
        <time>2016-07-11T13:44:57.000Z</time>
      </trkpt>
      <trkpt lat="44.36513" lon="6.33746">
        <ele>1199.1999511719</ele>
        <time>2016-07-11T13:45:02.000Z</time>
      </trkpt>
      <trkpt lat="44.36512" lon="6.3374">
        <ele>1199.5999755859</ele>
        <time>2016-07-11T13:45:03.000Z</time>
      </trkpt>
      <trkpt lat="44.36507" lon="6.33724">
        <ele>1199.8000488281</ele>
        <time>2016-07-11T13:45:08.000Z</time>
      </trkpt>
      <trkpt lat="44.36497" lon="6.33714">
        <ele>1199.1999511719</ele>
        <time>2016-07-11T13:45:17.000Z</time>
      </trkpt>
      <trkpt lat="44.36485" lon="6.33711">
        <ele>1197.5999755859</ele>
        <time>2016-07-11T13:45:25.000Z</time>
      </trkpt>
      <trkpt lat="44.36473" lon="6.33709">
        <ele>1196</ele>
        <time>2016-07-11T13:45:34.000Z</time>
      </trkpt>
      <trkpt lat="44.36462" lon="6.33704">
        <ele>1194.5999755859</ele>
        <time>2016-07-11T13:45:42.000Z</time>
      </trkpt>
      <trkpt lat="44.36452" lon="6.33695">
        <ele>1193.8000488281</ele>
        <time>2016-07-11T13:45:50.000Z</time>
      </trkpt>
      <trkpt lat="44.36444" lon="6.33686">
        <ele>1192.8000488281</ele>
        <time>2016-07-11T13:45:58.000Z</time>
      </trkpt>
      <trkpt lat="44.36435" lon="6.3368">
        <ele>1191.4000244141</ele>
        <time>2016-07-11T13:46:05.000Z</time>
      </trkpt>
      <trkpt lat="44.36425" lon="6.33675">
        <ele>1189.5999755859</ele>
        <time>2016-07-11T13:46:13.000Z</time>
      </trkpt>
      <trkpt lat="44.36413" lon="6.33668">
        <ele>1187.8000488281</ele>
        <time>2016-07-11T13:46:21.000Z</time>
      </trkpt>
      <trkpt lat="44.36404" lon="6.33659">
        <ele>1186.4000244141</ele>
        <time>2016-07-11T13:46:28.000Z</time>
      </trkpt>
      <trkpt lat="44.36393" lon="6.3365">
        <ele>1184.5999755859</ele>
        <time>2016-07-11T13:46:37.000Z</time>
      </trkpt>
      <trkpt lat="44.36387" lon="6.33638">
        <ele>1183.1999511719</ele>
        <time>2016-07-11T13:46:44.000Z</time>
      </trkpt>
      <trkpt lat="44.3638" lon="6.33619">
        <ele>1181.5999755859</ele>
        <time>2016-07-11T13:46:53.000Z</time>
      </trkpt>
      <trkpt lat="44.36373" lon="6.33607">
        <ele>1179.8000488281</ele>
        <time>2016-07-11T13:47:00.000Z</time>
      </trkpt>
      <trkpt lat="44.36366" lon="6.33595">
        <ele>1178.1999511719</ele>
        <time>2016-07-11T13:47:07.000Z</time>
      </trkpt>
      <trkpt lat="44.36362" lon="6.33583">
        <ele>1177</ele>
        <time>2016-07-11T13:47:14.000Z</time>
      </trkpt>
      <trkpt lat="44.3636" lon="6.33567">
        <ele>1176.1999511719</ele>
        <time>2016-07-11T13:47:22.000Z</time>
      </trkpt>
      <trkpt lat="44.36359" lon="6.3356">
        <ele>1176</ele>
        <time>2016-07-11T13:47:28.000Z</time>
      </trkpt>
      <trkpt lat="44.36363" lon="6.33556">
        <ele>1176.4000244141</ele>
        <time>2016-07-11T13:47:36.000Z</time>
      </trkpt>
      <trkpt lat="44.36367" lon="6.33548">
        <ele>1176.8000488281</ele>
        <time>2016-07-11T13:47:44.000Z</time>
      </trkpt>
      <trkpt lat="44.36362" lon="6.33561">
        <ele>1176.4000244141</ele>
        <time>2016-07-11T13:47:52.000Z</time>
      </trkpt>
      <trkpt lat="44.36361" lon="6.33562">
        <ele>1176.4000244141</ele>
        <time>2016-07-11T13:47:53.000Z</time>
      </trkpt>
      <trkpt lat="44.3636" lon="6.33563">
        <ele>1176.1999511719</ele>
        <time>2016-07-11T13:47:57.000Z</time>
      </trkpt>
      <trkpt lat="44.36361" lon="6.33571">
        <ele>1176.5999755859</ele>
        <time>2016-07-11T13:48:01.000Z</time>
      </trkpt>
      <trkpt lat="44.36362" lon="6.33581">
        <ele>1177</ele>
        <time>2016-07-11T13:48:06.000Z</time>
      </trkpt>
      <trkpt lat="44.36364" lon="6.33588">
        <ele>1177.4000244141</ele>
        <time>2016-07-11T13:48:10.000Z</time>
      </trkpt>
      <trkpt lat="44.3636" lon="6.3359">
        <ele>1176.8000488281</ele>
        <time>2016-07-11T13:48:16.000Z</time>
      </trkpt>
      <trkpt lat="44.36359" lon="6.33591">
        <ele>1176.8000488281</ele>
        <time>2016-07-11T13:48:17.000Z</time>
      </trkpt>
      <trkpt lat="44.36351" lon="6.33593">
        <ele>1175.1999511719</ele>
        <time>2016-07-11T13:48:24.000Z</time>
      </trkpt>
      <trkpt lat="44.36343" lon="6.33602">
        <ele>1174</ele>
        <time>2016-07-11T13:48:31.000Z</time>
      </trkpt>
      <trkpt lat="44.36337" lon="6.33623">
        <ele>1173.5999755859</ele>
        <time>2016-07-11T13:48:39.000Z</time>
      </trkpt>
      <trkpt lat="44.36332" lon="6.3364">
        <ele>1174.1999511719</ele>
        <time>2016-07-11T13:48:47.000Z</time>
      </trkpt>
      <trkpt lat="44.36334" lon="6.33656">
        <ele>1175.4000244141</ele>
        <time>2016-07-11T13:48:55.000Z</time>
      </trkpt>
      <trkpt lat="44.36343" lon="6.33669">
        <ele>1177</ele>
        <time>2016-07-11T13:49:03.000Z</time>
      </trkpt>
      <trkpt lat="44.36356" lon="6.33684">
        <ele>1179.1999511719</ele>
        <time>2016-07-11T13:49:13.000Z</time>
      </trkpt>
      <trkpt lat="44.36366" lon="6.33698">
        <ele>1181</ele>
        <time>2016-07-11T13:49:22.000Z</time>
      </trkpt>
      <trkpt lat="44.36375" lon="6.33713">
        <ele>1182.5999755859</ele>
        <time>2016-07-11T13:49:31.000Z</time>
      </trkpt>
      <trkpt lat="44.36382" lon="6.33733">
        <ele>1183.8000488281</ele>
        <time>2016-07-11T13:49:41.000Z</time>
      </trkpt>
      <trkpt lat="44.36391" lon="6.33756">
        <ele>1184.5999755859</ele>
        <time>2016-07-11T13:49:52.000Z</time>
      </trkpt>
      <trkpt lat="44.36401" lon="6.33773">
        <ele>1185.8000488281</ele>
        <time>2016-07-11T13:50:02.000Z</time>
      </trkpt>
      <trkpt lat="44.36413" lon="6.33789">
        <ele>1187.1999511719</ele>
        <time>2016-07-11T13:50:12.000Z</time>
      </trkpt>
      <trkpt lat="44.36423" lon="6.33797">
        <ele>1188</ele>
        <time>2016-07-11T13:50:19.000Z</time>
      </trkpt>
      <trkpt lat="44.36434" lon="6.33789">
        <ele>1188.8000488281</ele>
        <time>2016-07-11T13:50:27.000Z</time>
      </trkpt>
      <trkpt lat="44.36435" lon="6.33788">
        <ele>1189</ele>
        <time>2016-07-11T13:50:28.000Z</time>
      </trkpt>
      <trkpt lat="44.36441" lon="6.33774">
        <ele>1189.8000488281</ele>
        <time>2016-07-11T13:50:36.000Z</time>
      </trkpt>
      <trkpt lat="44.36445" lon="6.33753">
        <ele>1190.4000244141</ele>
        <time>2016-07-11T13:50:45.000Z</time>
      </trkpt>
      <trkpt lat="44.36447" lon="6.33729">
        <ele>1191</ele>
        <time>2016-07-11T13:50:51.000Z</time>
      </trkpt>
      <trkpt lat="44.36449" lon="6.33703">
        <ele>1192.8000488281</ele>
        <time>2016-07-11T13:50:57.000Z</time>
      </trkpt>
      <trkpt lat="44.36451" lon="6.337">
        <ele>1193.1999511719</ele>
        <time>2016-07-11T13:50:58.000Z</time>
      </trkpt>
      <trkpt lat="44.36458" lon="6.33699">
        <ele>1194.4000244141</ele>
        <time>2016-07-11T13:51:01.000Z</time>
      </trkpt>
      <trkpt lat="44.36462" lon="6.33703">
        <ele>1194.8000488281</ele>
        <time>2016-07-11T13:51:03.000Z</time>
      </trkpt>
      <trkpt lat="44.36476" lon="6.33709">
        <ele>1196.4000244141</ele>
        <time>2016-07-11T13:51:09.000Z</time>
      </trkpt>
      <trkpt lat="44.36489" lon="6.33711">
        <ele>1198</ele>
        <time>2016-07-11T13:51:14.000Z</time>
      </trkpt>
      <trkpt lat="44.36505" lon="6.33719">
        <ele>1200</ele>
        <time>2016-07-11T13:51:20.000Z</time>
      </trkpt>
      <trkpt lat="44.36507" lon="6.33722">
        <ele>1200</ele>
        <time>2016-07-11T13:51:21.000Z</time>
      </trkpt>
      <trkpt lat="44.36511" lon="6.3373">
        <ele>1200.1999511719</ele>
        <time>2016-07-11T13:51:25.000Z</time>
      </trkpt>
      <trkpt lat="44.36516" lon="6.33746">
        <ele>1199.8000488281</ele>
        <time>2016-07-11T13:51:33.000Z</time>
      </trkpt>
      <trkpt lat="44.36518" lon="6.33762">
        <ele>1198.8000488281</ele>
        <time>2016-07-11T13:51:39.000Z</time>
      </trkpt>
      <trkpt lat="44.36523" lon="6.33788">
        <ele>1197.5999755859</ele>
        <time>2016-07-11T13:51:47.000Z</time>
      </trkpt>
      <trkpt lat="44.36527" lon="6.33816">
        <ele>1196.5999755859</ele>
        <time>2016-07-11T13:51:55.000Z</time>
      </trkpt>
      <trkpt lat="44.36529" lon="6.33846">
        <ele>1196.8000488281</ele>
        <time>2016-07-11T13:52:02.000Z</time>
      </trkpt>
      <trkpt lat="44.36535" lon="6.33868">
        <ele>1197.5999755859</ele>
        <time>2016-07-11T13:52:07.000Z</time>
      </trkpt>
      <trkpt lat="44.36549" lon="6.33891">
        <ele>1199</ele>
        <time>2016-07-11T13:52:13.000Z</time>
      </trkpt>
      <trkpt lat="44.36558" lon="6.33913">
        <ele>1200.8000488281</ele>
        <time>2016-07-11T13:52:19.000Z</time>
      </trkpt>
      <trkpt lat="44.36567" lon="6.33919">
        <ele>1202</ele>
        <time>2016-07-11T13:52:23.000Z</time>
      </trkpt>
      <trkpt lat="44.36581" lon="6.33924">
        <ele>1204</ele>
        <time>2016-07-11T13:52:29.000Z</time>
      </trkpt>
      <trkpt lat="44.36593" lon="6.33926">
        <ele>1205.4000244141</ele>
        <time>2016-07-11T13:52:35.000Z</time>
      </trkpt>
      <trkpt lat="44.36603" lon="6.33929">
        <ele>1206.8000488281</ele>
        <time>2016-07-11T13:52:41.000Z</time>
      </trkpt>
      <trkpt lat="44.36619" lon="6.33932">
        <ele>1208.8000488281</ele>
        <time>2016-07-11T13:52:47.000Z</time>
      </trkpt>
      <trkpt lat="44.36631" lon="6.33932">
        <ele>1210.4000244141</ele>
        <time>2016-07-11T13:52:52.000Z</time>
      </trkpt>
      <trkpt lat="44.36644" lon="6.3393">
        <ele>1212.1999511719</ele>
        <time>2016-07-11T13:53:00.000Z</time>
      </trkpt>
      <trkpt lat="44.36648" lon="6.33936">
        <ele>1212.8000488281</ele>
        <time>2016-07-11T13:53:03.000Z</time>
      </trkpt>
      <trkpt lat="44.36638" lon="6.33954">
        <ele>1212.1999511719</ele>
        <time>2016-07-11T13:53:09.000Z</time>
      </trkpt>
      <trkpt lat="44.36624" lon="6.33973">
        <ele>1211</ele>
        <time>2016-07-11T13:53:16.000Z</time>
      </trkpt>
      <trkpt lat="44.36613" lon="6.33988">
        <ele>1210.8000488281</ele>
        <time>2016-07-11T13:53:24.000Z</time>
      </trkpt>
      <trkpt lat="44.36605" lon="6.33997">
        <ele>1211.1999511719</ele>
        <time>2016-07-11T13:53:30.000Z</time>
      </trkpt>
      <trkpt lat="44.36592" lon="6.34016">
        <ele>1212.4000244141</ele>
        <time>2016-07-11T13:53:38.000Z</time>
      </trkpt>
      <trkpt lat="44.36584" lon="6.34031">
        <ele>1213.5999755859</ele>
        <time>2016-07-11T13:53:44.000Z</time>
      </trkpt>
      <trkpt lat="44.36575" lon="6.34044">
        <ele>1214</ele>
        <time>2016-07-11T13:53:52.000Z</time>
      </trkpt>
      <trkpt lat="44.3656" lon="6.34059">
        <ele>1214.1999511719</ele>
        <time>2016-07-11T13:54:00.000Z</time>
      </trkpt>
      <trkpt lat="44.36546" lon="6.34077">
        <ele>1216</ele>
        <time>2016-07-11T13:54:08.000Z</time>
      </trkpt>
      <trkpt lat="44.36532" lon="6.34096">
        <ele>1216.4000244141</ele>
        <time>2016-07-11T13:54:15.000Z</time>
      </trkpt>
      <trkpt lat="44.3652" lon="6.34114">
        <ele>1217.8000488281</ele>
        <time>2016-07-11T13:54:21.000Z</time>
      </trkpt>
      <trkpt lat="44.36509" lon="6.34131">
        <ele>1219.1999511719</ele>
        <time>2016-07-11T13:54:28.000Z</time>
      </trkpt>
      <trkpt lat="44.365" lon="6.34143">
        <ele>1219.1999511719</ele>
        <time>2016-07-11T13:54:36.000Z</time>
      </trkpt>
      <trkpt lat="44.36489" lon="6.34155">
        <ele>1219.4000244141</ele>
        <time>2016-07-11T13:54:45.000Z</time>
      </trkpt>
      <trkpt lat="44.36477" lon="6.34168">
        <ele>1219.8000488281</ele>
        <time>2016-07-11T13:54:54.000Z</time>
      </trkpt>
      <trkpt lat="44.36463" lon="6.34182">
        <ele>1220.1999511719</ele>
        <time>2016-07-11T13:55:05.000Z</time>
      </trkpt>
      <trkpt lat="44.36456" lon="6.34191">
        <ele>1220.8000488281</ele>
        <time>2016-07-11T13:55:11.000Z</time>
      </trkpt>
      <trkpt lat="44.36447" lon="6.3421">
        <ele>1222.1999511719</ele>
        <time>2016-07-11T13:55:22.000Z</time>
      </trkpt>
      <trkpt lat="44.36438" lon="6.34229">
        <ele>1223.1999511719</ele>
        <time>2016-07-11T13:55:33.000Z</time>
      </trkpt>
      <trkpt lat="44.36428" lon="6.3425">
        <ele>1223.5999755859</ele>
        <time>2016-07-11T13:55:45.000Z</time>
      </trkpt>
      <trkpt lat="44.3642" lon="6.34265">
        <ele>1223.8000488281</ele>
        <time>2016-07-11T13:55:54.000Z</time>
      </trkpt>
      <trkpt lat="44.3641" lon="6.34281">
        <ele>1223.5999755859</ele>
        <time>2016-07-11T13:56:04.000Z</time>
      </trkpt>
      <trkpt lat="44.36401" lon="6.34296">
        <ele>1224</ele>
        <time>2016-07-11T13:56:13.000Z</time>
      </trkpt>
      <trkpt lat="44.36393" lon="6.3431">
        <ele>1224.8000488281</ele>
        <time>2016-07-11T13:56:21.000Z</time>
      </trkpt>
      <trkpt lat="44.36382" lon="6.34332">
        <ele>1225.8000488281</ele>
        <time>2016-07-11T13:56:33.000Z</time>
      </trkpt>
      <trkpt lat="44.36376" lon="6.34347">
        <ele>1226.8000488281</ele>
        <time>2016-07-11T13:56:41.000Z</time>
      </trkpt>
      <trkpt lat="44.3637" lon="6.34361">
        <ele>1228</ele>
        <time>2016-07-11T13:56:49.000Z</time>
      </trkpt>
      <trkpt lat="44.36362" lon="6.3437">
        <ele>1228.1999511719</ele>
        <time>2016-07-11T13:56:56.000Z</time>
      </trkpt>
      <trkpt lat="44.36352" lon="6.34378">
        <ele>1228.4000244141</ele>
        <time>2016-07-11T13:57:04.000Z</time>
      </trkpt>
      <trkpt lat="44.36344" lon="6.34386">
        <ele>1228.8000488281</ele>
        <time>2016-07-11T13:57:11.000Z</time>
      </trkpt>
      <trkpt lat="44.36337" lon="6.34394">
        <ele>1229.1999511719</ele>
        <time>2016-07-11T13:57:18.000Z</time>
      </trkpt>
      <trkpt lat="44.36327" lon="6.34404">
        <ele>1230.1999511719</ele>
        <time>2016-07-11T13:57:26.000Z</time>
      </trkpt>
      <trkpt lat="44.36317" lon="6.34415">
        <ele>1231.1999511719</ele>
        <time>2016-07-11T13:57:34.000Z</time>
      </trkpt>
      <trkpt lat="44.36308" lon="6.34423">
        <ele>1231.8000488281</ele>
        <time>2016-07-11T13:57:42.000Z</time>
      </trkpt>
      <trkpt lat="44.36296" lon="6.34432">
        <ele>1233</ele>
        <time>2016-07-11T13:57:51.000Z</time>
      </trkpt>
      <trkpt lat="44.36286" lon="6.3444">
        <ele>1234</ele>
        <time>2016-07-11T13:57:59.000Z</time>
      </trkpt>
      <trkpt lat="44.36277" lon="6.34448">
        <ele>1235</ele>
        <time>2016-07-11T13:58:07.000Z</time>
      </trkpt>
      <trkpt lat="44.36269" lon="6.34453">
        <ele>1235.5999755859</ele>
        <time>2016-07-11T13:58:13.000Z</time>
      </trkpt>
      <trkpt lat="44.36259" lon="6.34461">
        <ele>1236.5999755859</ele>
        <time>2016-07-11T13:58:20.000Z</time>
      </trkpt>
      <trkpt lat="44.3625" lon="6.34469">
        <ele>1237.5999755859</ele>
        <time>2016-07-11T13:58:27.000Z</time>
      </trkpt>
      <trkpt lat="44.36241" lon="6.34479">
        <ele>1238.8000488281</ele>
        <time>2016-07-11T13:58:35.000Z</time>
      </trkpt>
      <trkpt lat="44.3623" lon="6.34483">
        <ele>1238.8000488281</ele>
        <time>2016-07-11T13:58:42.000Z</time>
      </trkpt>
      <trkpt lat="44.3622" lon="6.34483">
        <ele>1238</ele>
        <time>2016-07-11T13:58:48.000Z</time>
      </trkpt>
      <trkpt lat="44.36209" lon="6.34486">
        <ele>1237.8000488281</ele>
        <time>2016-07-11T13:58:55.000Z</time>
      </trkpt>
      <trkpt lat="44.36197" lon="6.34492">
        <ele>1238.1999511719</ele>
        <time>2016-07-11T13:59:03.000Z</time>
      </trkpt>
      <trkpt lat="44.36186" lon="6.34499">
        <ele>1237.5999755859</ele>
        <time>2016-07-11T13:59:11.000Z</time>
      </trkpt>
      <trkpt lat="44.36175" lon="6.34505">
        <ele>1237.1999511719</ele>
        <time>2016-07-11T13:59:19.000Z</time>
      </trkpt>
      <trkpt lat="44.36166" lon="6.34509">
        <ele>1236.5999755859</ele>
        <time>2016-07-11T13:59:25.000Z</time>
      </trkpt>
      <trkpt lat="44.36161" lon="6.34513">
        <ele>1236.4000244141</ele>
        <time>2016-07-11T13:59:29.000Z</time>
      </trkpt>
      <trkpt lat="44.36155" lon="6.34515">
        <ele>1236</ele>
        <time>2016-07-11T13:59:33.000Z</time>
      </trkpt>
      <trkpt lat="44.36144" lon="6.3452">
        <ele>1235.1999511719</ele>
        <time>2016-07-11T13:59:41.000Z</time>
      </trkpt>
      <trkpt lat="44.3613" lon="6.3453">
        <ele>1234.8000488281</ele>
        <time>2016-07-11T13:59:51.000Z</time>
      </trkpt>
      <trkpt lat="44.3612" lon="6.34537">
        <ele>1234.5999755859</ele>
        <time>2016-07-11T13:59:58.000Z</time>
      </trkpt>
      <trkpt lat="44.36106" lon="6.34549">
        <ele>1234.8000488281</ele>
        <time>2016-07-11T14:00:08.000Z</time>
      </trkpt>
      <trkpt lat="44.36096" lon="6.34561">
        <ele>1234.1999511719</ele>
        <time>2016-07-11T14:00:16.000Z</time>
      </trkpt>
      <trkpt lat="44.36082" lon="6.34574">
        <ele>1233</ele>
        <time>2016-07-11T14:00:27.000Z</time>
      </trkpt>
      <trkpt lat="44.36075" lon="6.34582">
        <ele>1232.5999755859</ele>
        <time>2016-07-11T14:00:33.000Z</time>
      </trkpt>
      <trkpt lat="44.36064" lon="6.34594">
        <ele>1231.8000488281</ele>
        <time>2016-07-11T14:00:42.000Z</time>
      </trkpt>
      <trkpt lat="44.36051" lon="6.34613">
        <ele>1231</ele>
        <time>2016-07-11T14:00:54.000Z</time>
      </trkpt>
      <trkpt lat="44.36038" lon="6.34633">
        <ele>1230</ele>
        <time>2016-07-11T14:01:06.000Z</time>
      </trkpt>
      <trkpt lat="44.3603" lon="6.34649">
        <ele>1230</ele>
        <time>2016-07-11T14:01:15.000Z</time>
      </trkpt>
      <trkpt lat="44.36028" lon="6.34656">
        <ele>1230.4000244141</ele>
        <time>2016-07-11T14:01:20.000Z</time>
      </trkpt>
      <trkpt lat="44.36025" lon="6.34658">
        <ele>1230.1999511719</ele>
        <time>2016-07-11T14:01:44.000Z</time>
      </trkpt>
      <trkpt lat="44.36023" lon="6.34652">
        <ele>1228.8000488281</ele>
        <time>2016-07-11T14:01:49.000Z</time>
      </trkpt>
      <trkpt lat="44.36018" lon="6.34634">
        <ele>1225.4000244141</ele>
        <time>2016-07-11T14:01:59.000Z</time>
      </trkpt>
      <trkpt lat="44.36017" lon="6.34622">
        <ele>1223.8000488281</ele>
        <time>2016-07-11T14:02:06.000Z</time>
      </trkpt>
      <trkpt lat="44.36017" lon="6.34614">
        <ele>1222.8000488281</ele>
        <time>2016-07-11T14:02:12.000Z</time>
      </trkpt>
      <trkpt lat="44.36017" lon="6.34612">
        <ele>1222.5999755859</ele>
        <time>2016-07-11T14:02:13.000Z</time>
      </trkpt>
      <trkpt lat="44.36018" lon="6.34607">
        <ele>1222.1999511719</ele>
        <time>2016-07-11T14:02:16.000Z</time>
      </trkpt>
      <trkpt lat="44.36019" lon="6.34594">
        <ele>1220.5999755859</ele>
        <time>2016-07-11T14:02:24.000Z</time>
      </trkpt>
      <trkpt lat="44.36021" lon="6.34582">
        <ele>1219.4000244141</ele>
        <time>2016-07-11T14:02:31.000Z</time>
      </trkpt>
      <trkpt lat="44.36025" lon="6.34576">
        <ele>1219.4000244141</ele>
        <time>2016-07-11T14:02:36.000Z</time>
      </trkpt>
      <trkpt lat="44.36025" lon="6.34577">
        <ele>1219.4000244141</ele>
        <time>2016-07-11T14:02:42.000Z</time>
      </trkpt>
      <trkpt lat="44.36023" lon="6.34577">
        <ele>1219.1999511719</ele>
        <time>2016-07-11T14:02:54.000Z</time>
      </trkpt>
      <trkpt lat="44.3602" lon="6.34586">
        <ele>1219.5999755859</ele>
        <time>2016-07-11T14:02:59.000Z</time>
      </trkpt>
      <trkpt lat="44.3602" lon="6.34592">
        <ele>1220.4000244141</ele>
        <time>2016-07-11T14:03:02.000Z</time>
      </trkpt>
      <trkpt lat="44.3602" lon="6.34598">
        <ele>1221.1999511719</ele>
        <time>2016-07-11T14:03:05.000Z</time>
      </trkpt>
      <trkpt lat="44.36019" lon="6.34608">
        <ele>1222.1999511719</ele>
        <time>2016-07-11T14:03:11.000Z</time>
      </trkpt>
      <trkpt lat="44.36018" lon="6.34623">
        <ele>1224.1999511719</ele>
        <time>2016-07-11T14:03:20.000Z</time>
      </trkpt>
      <trkpt lat="44.36021" lon="6.34637">
        <ele>1226.5999755859</ele>
        <time>2016-07-11T14:03:27.000Z</time>
      </trkpt>
      <trkpt lat="44.36023" lon="6.3465">
        <ele>1228.8000488281</ele>
        <time>2016-07-11T14:03:32.000Z</time>
      </trkpt>
      <trkpt lat="44.36022" lon="6.34653">
        <ele>1229</ele>
        <time>2016-07-11T14:03:33.000Z</time>
      </trkpt>
      <trkpt lat="44.3602" lon="6.3466">
        <ele>1229.4000244141</ele>
        <time>2016-07-11T14:03:36.000Z</time>
      </trkpt>
      <trkpt lat="44.36015" lon="6.34685">
        <ele>1231.5999755859</ele>
        <time>2016-07-11T14:03:44.000Z</time>
      </trkpt>
      <trkpt lat="44.36014" lon="6.34703">
        <ele>1234</ele>
        <time>2016-07-11T14:03:51.000Z</time>
      </trkpt>
      <trkpt lat="44.36014" lon="6.34724">
        <ele>1236.8000488281</ele>
        <time>2016-07-11T14:04:00.000Z</time>
      </trkpt>
      <trkpt lat="44.36012" lon="6.34739">
        <ele>1238.5999755859</ele>
        <time>2016-07-11T14:04:06.000Z</time>
      </trkpt>
      <trkpt lat="44.36004" lon="6.34749">
        <ele>1239.1999511719</ele>
        <time>2016-07-11T14:04:12.000Z</time>
      </trkpt>
      <trkpt lat="44.3599" lon="6.34755">
        <ele>1237.5999755859</ele>
        <time>2016-07-11T14:04:22.000Z</time>
      </trkpt>
      <trkpt lat="44.3598" lon="6.3476">
        <ele>1236.4000244141</ele>
        <time>2016-07-11T14:04:29.000Z</time>
      </trkpt>
      <trkpt lat="44.35971" lon="6.34767">
        <ele>1235.5999755859</ele>
        <time>2016-07-11T14:04:36.000Z</time>
      </trkpt>
      <trkpt lat="44.35962" lon="6.34782">
        <ele>1235.5999755859</ele>
        <time>2016-07-11T14:04:45.000Z</time>
      </trkpt>
      <trkpt lat="44.3595" lon="6.348">
        <ele>1235.5999755859</ele>
        <time>2016-07-11T14:04:56.000Z</time>
      </trkpt>
      <trkpt lat="44.35939" lon="6.34817">
        <ele>1235.8000488281</ele>
        <time>2016-07-11T14:05:06.000Z</time>
      </trkpt>
      <trkpt lat="44.35929" lon="6.34835">
        <ele>1237</ele>
        <time>2016-07-11T14:05:17.000Z</time>
      </trkpt>
      <trkpt lat="44.35921" lon="6.34856">
        <ele>1239</ele>
        <time>2016-07-11T14:05:28.000Z</time>
      </trkpt>
      <trkpt lat="44.35912" lon="6.34861">
        <ele>1238.1999511719</ele>
        <time>2016-07-11T14:05:34.000Z</time>
      </trkpt>
      <trkpt lat="44.35898" lon="6.34869">
        <ele>1236.8000488281</ele>
        <time>2016-07-11T14:05:44.000Z</time>
      </trkpt>
      <trkpt lat="44.35877" lon="6.34897">
        <ele>1237.4000244141</ele>
        <time>2016-07-11T14:06:03.000Z</time>
      </trkpt>
      <trkpt lat="44.35868" lon="6.34914">
        <ele>1238.1999511719</ele>
        <time>2016-07-11T14:06:13.000Z</time>
      </trkpt>
      <trkpt lat="44.35856" lon="6.34933">
        <ele>1238.5999755859</ele>
        <time>2016-07-11T14:06:24.000Z</time>
      </trkpt>
      <trkpt lat="44.35844" lon="6.34951">
        <ele>1239</ele>
        <time>2016-07-11T14:06:35.000Z</time>
      </trkpt>
      <trkpt lat="44.35834" lon="6.34965">
        <ele>1240</ele>
        <time>2016-07-11T14:06:44.000Z</time>
      </trkpt>
      <trkpt lat="44.35828" lon="6.34976">
        <ele>1241.1999511719</ele>
        <time>2016-07-11T14:06:51.000Z</time>
      </trkpt>
      <trkpt lat="44.35819" lon="6.34992">
        <ele>1242.4000244141</ele>
        <time>2016-07-11T14:07:00.000Z</time>
      </trkpt>
      <trkpt lat="44.35814" lon="6.35005">
        <ele>1243.4000244141</ele>
        <time>2016-07-11T14:07:07.000Z</time>
      </trkpt>
      <trkpt lat="44.35804" lon="6.35019">
        <ele>1243.5999755859</ele>
        <time>2016-07-11T14:07:16.000Z</time>
      </trkpt>
      <trkpt lat="44.35797" lon="6.35032">
        <ele>1244</ele>
        <time>2016-07-11T14:07:23.000Z</time>
      </trkpt>
      <trkpt lat="44.35789" lon="6.35046">
        <ele>1244.1999511719</ele>
        <time>2016-07-11T14:07:32.000Z</time>
      </trkpt>
      <trkpt lat="44.35788" lon="6.35048">
        <ele>1244.4000244141</ele>
        <time>2016-07-11T14:07:33.000Z</time>
      </trkpt>
      <trkpt lat="44.35783" lon="6.35058">
        <ele>1244.8000488281</ele>
        <time>2016-07-11T14:07:39.000Z</time>
      </trkpt>
      <trkpt lat="44.35773" lon="6.35072">
        <ele>1245.1999511719</ele>
        <time>2016-07-11T14:07:49.000Z</time>
      </trkpt>
      <trkpt lat="44.35761" lon="6.35094">
        <ele>1246.5999755859</ele>
        <time>2016-07-11T14:08:01.000Z</time>
      </trkpt>
      <trkpt lat="44.3575" lon="6.35115">
        <ele>1247.8000488281</ele>
        <time>2016-07-11T14:08:13.000Z</time>
      </trkpt>
      <trkpt lat="44.35743" lon="6.35129">
        <ele>1248.8000488281</ele>
        <time>2016-07-11T14:08:21.000Z</time>
      </trkpt>
      <trkpt lat="44.35734" lon="6.35149">
        <ele>1250.1999511719</ele>
        <time>2016-07-11T14:08:32.000Z</time>
      </trkpt>
      <trkpt lat="44.35727" lon="6.35162">
        <ele>1251</ele>
        <time>2016-07-11T14:08:40.000Z</time>
      </trkpt>
      <trkpt lat="44.35722" lon="6.35167">
        <ele>1251.1999511719</ele>
        <time>2016-07-11T14:08:46.000Z</time>
      </trkpt>
      <trkpt lat="44.3572" lon="6.3517">
        <ele>1251.1999511719</ele>
        <time>2016-07-11T14:08:56.000Z</time>
      </trkpt>
      <trkpt lat="44.35716" lon="6.35178">
        <ele>1251.5999755859</ele>
        <time>2016-07-11T14:09:01.000Z</time>
      </trkpt>
      <trkpt lat="44.35709" lon="6.3519">
        <ele>1251.8000488281</ele>
        <time>2016-07-11T14:09:08.000Z</time>
      </trkpt>
      <trkpt lat="44.35701" lon="6.35203">
        <ele>1252</ele>
        <time>2016-07-11T14:09:17.000Z</time>
      </trkpt>
      <trkpt lat="44.35693" lon="6.35219">
        <ele>1253.4000244141</ele>
        <time>2016-07-11T14:09:26.000Z</time>
      </trkpt>
      <trkpt lat="44.35687" lon="6.35232">
        <ele>1254</ele>
        <time>2016-07-11T14:09:33.000Z</time>
      </trkpt>
      <trkpt lat="44.35678" lon="6.3525">
        <ele>1255.8000488281</ele>
        <time>2016-07-11T14:09:43.000Z</time>
      </trkpt>
      <trkpt lat="44.3567" lon="6.35269">
        <ele>1257.5999755859</ele>
        <time>2016-07-11T14:09:54.000Z</time>
      </trkpt>
      <trkpt lat="44.35658" lon="6.35284">
        <ele>1258.8000488281</ele>
        <time>2016-07-11T14:10:05.000Z</time>
      </trkpt>
      <trkpt lat="44.35646" lon="6.35295">
        <ele>1259</ele>
        <time>2016-07-11T14:10:15.000Z</time>
      </trkpt>
      <trkpt lat="44.35636" lon="6.35305">
        <ele>1259.1999511719</ele>
        <time>2016-07-11T14:10:24.000Z</time>
      </trkpt>
      <trkpt lat="44.35625" lon="6.35314">
        <ele>1259.4000244141</ele>
        <time>2016-07-11T14:10:33.000Z</time>
      </trkpt>
      <trkpt lat="44.3559" lon="6.35344">
        <ele>1261.5999755859</ele>
        <time>2016-07-11T14:11:02.000Z</time>
      </trkpt>
      <trkpt lat="44.35583" lon="6.35351">
        <ele>1262.4000244141</ele>
        <time>2016-07-11T14:11:08.000Z</time>
      </trkpt>
      <trkpt lat="44.35578" lon="6.35355">
        <ele>1262.8000488281</ele>
        <time>2016-07-11T14:11:12.000Z</time>
      </trkpt>
      <trkpt lat="44.35569" lon="6.35363">
        <ele>1262.4000244141</ele>
        <time>2016-07-11T14:11:19.000Z</time>
      </trkpt>
      <trkpt lat="44.35562" lon="6.35371">
        <ele>1261.4000244141</ele>
        <time>2016-07-11T14:11:25.000Z</time>
      </trkpt>
      <trkpt lat="44.35551" lon="6.3538">
        <ele>1260.1999511719</ele>
        <time>2016-07-11T14:11:33.000Z</time>
      </trkpt>
      <trkpt lat="44.35542" lon="6.35387">
        <ele>1259.1999511719</ele>
        <time>2016-07-11T14:11:40.000Z</time>
      </trkpt>
      <trkpt lat="44.35534" lon="6.35392">
        <ele>1258.5999755859</ele>
        <time>2016-07-11T14:11:45.000Z</time>
      </trkpt>
      <trkpt lat="44.3552" lon="6.35399">
        <ele>1256.5999755859</ele>
        <time>2016-07-11T14:11:55.000Z</time>
      </trkpt>
      <trkpt lat="44.35507" lon="6.35397">
        <ele>1255.1999511719</ele>
        <time>2016-07-11T14:12:04.000Z</time>
      </trkpt>
      <trkpt lat="44.35494" lon="6.35391">
        <ele>1254.5999755859</ele>
        <time>2016-07-11T14:12:13.000Z</time>
      </trkpt>
      <trkpt lat="44.35481" lon="6.35387">
        <ele>1253.5999755859</ele>
        <time>2016-07-11T14:12:22.000Z</time>
      </trkpt>
      <trkpt lat="44.35468" lon="6.35382">
        <ele>1252.8000488281</ele>
        <time>2016-07-11T14:12:30.000Z</time>
      </trkpt>
      <trkpt lat="44.3545" lon="6.35374">
        <ele>1252</ele>
        <time>2016-07-11T14:12:42.000Z</time>
      </trkpt>
      <trkpt lat="44.35439" lon="6.35368">
        <ele>1252.1999511719</ele>
        <time>2016-07-11T14:12:50.000Z</time>
      </trkpt>
      <trkpt lat="44.35427" lon="6.35363">
        <ele>1252.5999755859</ele>
        <time>2016-07-11T14:12:58.000Z</time>
      </trkpt>
      <trkpt lat="44.35413" lon="6.35358">
        <ele>1253</ele>
        <time>2016-07-11T14:13:07.000Z</time>
      </trkpt>
      <trkpt lat="44.354" lon="6.35356">
        <ele>1252.8000488281</ele>
        <time>2016-07-11T14:13:16.000Z</time>
      </trkpt>
      <trkpt lat="44.35388" lon="6.35361">
        <ele>1251.5999755859</ele>
        <time>2016-07-11T14:13:24.000Z</time>
      </trkpt>
      <trkpt lat="44.35379" lon="6.35372">
        <ele>1249.4000244141</ele>
        <time>2016-07-11T14:13:32.000Z</time>
      </trkpt>
      <trkpt lat="44.35367" lon="6.35388">
        <ele>1246.5999755859</ele>
        <time>2016-07-11T14:13:42.000Z</time>
      </trkpt>
      <trkpt lat="44.35357" lon="6.354">
        <ele>1245</ele>
        <time>2016-07-11T14:13:51.000Z</time>
      </trkpt>
      <trkpt lat="44.35342" lon="6.35407">
        <ele>1244.5999755859</ele>
        <time>2016-07-11T14:14:01.000Z</time>
      </trkpt>
      <trkpt lat="44.35326" lon="6.3541">
        <ele>1245</ele>
        <time>2016-07-11T14:14:11.000Z</time>
      </trkpt>
      <trkpt lat="44.35314" lon="6.35411">
        <ele>1245.5999755859</ele>
        <time>2016-07-11T14:14:19.000Z</time>
      </trkpt>
      <trkpt lat="44.35302" lon="6.3542">
        <ele>1244.8000488281</ele>
        <time>2016-07-11T14:14:28.000Z</time>
      </trkpt>
      <trkpt lat="44.35301" lon="6.3542">
        <ele>1244.5999755859</ele>
        <time>2016-07-11T14:14:29.000Z</time>
      </trkpt>
      <trkpt lat="44.35301" lon="6.35423">
        <ele>1243.8000488281</ele>
        <time>2016-07-11T14:14:34.000Z</time>
      </trkpt>
      <trkpt lat="44.35299" lon="6.35429">
        <ele>1242</ele>
        <time>2016-07-11T14:14:39.000Z</time>
      </trkpt>
      <trkpt lat="44.35292" lon="6.35441">
        <ele>1238.8000488281</ele>
        <time>2016-07-11T14:14:46.000Z</time>
      </trkpt>
      <trkpt lat="44.35289" lon="6.35445">
        <ele>1237.5999755859</ele>
        <time>2016-07-11T14:14:49.000Z</time>
      </trkpt>
      <trkpt lat="44.35285" lon="6.3545">
        <ele>1236.4000244141</ele>
        <time>2016-07-11T14:14:55.000Z</time>
      </trkpt>
      <trkpt lat="44.35281" lon="6.35454">
        <ele>1235.1999511719</ele>
        <time>2016-07-11T14:15:04.000Z</time>
      </trkpt>
      <trkpt lat="44.3528" lon="6.35455">
        <ele>1234.8000488281</ele>
        <time>2016-07-11T14:15:05.000Z</time>
      </trkpt>
      <trkpt lat="44.35276" lon="6.35458">
        <ele>1233.1999511719</ele>
        <time>2016-07-11T14:15:09.000Z</time>
      </trkpt>
      <trkpt lat="44.35266" lon="6.35469">
        <ele>1229.1999511719</ele>
        <time>2016-07-11T14:15:18.000Z</time>
      </trkpt>
      <trkpt lat="44.35255" lon="6.35479">
        <ele>1227.8000488281</ele>
        <time>2016-07-11T14:15:27.000Z</time>
      </trkpt>
      <trkpt lat="44.35244" lon="6.35491">
        <ele>1225.4000244141</ele>
        <time>2016-07-11T14:15:37.000Z</time>
      </trkpt>
      <trkpt lat="44.35237" lon="6.35498">
        <ele>1224</ele>
        <time>2016-07-11T14:15:44.000Z</time>
      </trkpt>
      <trkpt lat="44.35232" lon="6.35499">
        <ele>1223.8000488281</ele>
        <time>2016-07-11T14:15:48.000Z</time>
      </trkpt>
      <trkpt lat="44.35224" lon="6.35504">
        <ele>1222.5999755859</ele>
        <time>2016-07-11T14:15:55.000Z</time>
      </trkpt>
      <trkpt lat="44.35216" lon="6.35507">
        <ele>1221.8000488281</ele>
        <time>2016-07-11T14:16:01.000Z</time>
      </trkpt>
      <trkpt lat="44.35209" lon="6.35513">
        <ele>1220.4000244141</ele>
        <time>2016-07-11T14:16:07.000Z</time>
      </trkpt>
      <trkpt lat="44.35205" lon="6.35514">
        <ele>1220.1999511719</ele>
        <time>2016-07-11T14:16:10.000Z</time>
      </trkpt>
      <trkpt lat="44.35206" lon="6.35513">
        <ele>1220.1999511719</ele>
        <time>2016-07-11T14:16:19.000Z</time>
      </trkpt>
      <trkpt lat="44.35207" lon="6.35514">
        <ele>1220</ele>
        <time>2016-07-11T14:16:31.000Z</time>
      </trkpt>
      <trkpt lat="44.35207" lon="6.35513">
        <ele>1220.1999511719</ele>
        <time>2016-07-11T14:16:39.000Z</time>
      </trkpt>
      <trkpt lat="44.35207" lon="6.35512">
        <ele>1220.5999755859</ele>
        <time>2016-07-11T14:16:59.000Z</time>
      </trkpt>
      <trkpt lat="44.35206" lon="6.35512">
        <ele>1220.4000244141</ele>
        <time>2016-07-11T14:17:37.000Z</time>
      </trkpt>
      <trkpt lat="44.35207" lon="6.35515">
        <ele>1220</ele>
        <time>2016-07-11T14:18:01.000Z</time>
      </trkpt>
      <trkpt lat="44.35206" lon="6.35515">
        <ele>1219.8000488281</ele>
        <time>2016-07-11T14:18:06.000Z</time>
      </trkpt>
      <trkpt lat="44.35205" lon="6.35516">
        <ele>1219.5999755859</ele>
        <time>2016-07-11T14:18:07.000Z</time>
      </trkpt>
      <trkpt lat="44.352" lon="6.35521">
        <ele>1218.4000244141</ele>
        <time>2016-07-11T14:18:12.000Z</time>
      </trkpt>
      <trkpt lat="44.35191" lon="6.35522">
        <ele>1216.8000488281</ele>
        <time>2016-07-11T14:18:18.000Z</time>
      </trkpt>
      <trkpt lat="44.3519" lon="6.35523">
        <ele>1216.5999755859</ele>
        <time>2016-07-11T14:18:19.000Z</time>
      </trkpt>
      <trkpt lat="44.35179" lon="6.35525">
        <ele>1214</ele>
        <time>2016-07-11T14:18:27.000Z</time>
      </trkpt>
      <trkpt lat="44.35167" lon="6.35524">
        <ele>1212.4000244141</ele>
        <time>2016-07-11T14:18:35.000Z</time>
      </trkpt>
      <trkpt lat="44.35157" lon="6.35525">
        <ele>1210.4000244141</ele>
        <time>2016-07-11T14:18:42.000Z</time>
      </trkpt>
      <trkpt lat="44.35156" lon="6.35526">
        <ele>1210.4000244141</ele>
        <time>2016-07-11T14:18:43.000Z</time>
      </trkpt>
      <trkpt lat="44.35146" lon="6.3553">
        <ele>1210.1999511719</ele>
        <time>2016-07-11T14:18:50.000Z</time>
      </trkpt>
      <trkpt lat="44.35135" lon="6.35535">
        <ele>1210</ele>
        <time>2016-07-11T14:18:58.000Z</time>
      </trkpt>
      <trkpt lat="44.35132" lon="6.35535">
        <ele>1210</ele>
        <time>2016-07-11T14:19:00.000Z</time>
      </trkpt>
      <trkpt lat="44.35128" lon="6.35529">
        <ele>1210.1999511719</ele>
        <time>2016-07-11T14:19:04.000Z</time>
      </trkpt>
      <trkpt lat="44.35122" lon="6.35513">
        <ele>1210.8000488281</ele>
        <time>2016-07-11T14:19:13.000Z</time>
      </trkpt>
      <trkpt lat="44.35117" lon="6.35499">
        <ele>1211.4000244141</ele>
        <time>2016-07-11T14:19:21.000Z</time>
      </trkpt>
      <trkpt lat="44.35117" lon="6.35488">
        <ele>1211.8000488281</ele>
        <time>2016-07-11T14:19:27.000Z</time>
      </trkpt>
      <trkpt lat="44.3512" lon="6.35474">
        <ele>1212.5999755859</ele>
        <time>2016-07-11T14:19:35.000Z</time>
      </trkpt>
      <trkpt lat="44.3512" lon="6.35463">
        <ele>1212</ele>
        <time>2016-07-11T14:19:41.000Z</time>
      </trkpt>
      <trkpt lat="44.35117" lon="6.35451">
        <ele>1210.8000488281</ele>
        <time>2016-07-11T14:19:48.000Z</time>
      </trkpt>
      <trkpt lat="44.35116" lon="6.35448">
        <ele>1210.4000244141</ele>
        <time>2016-07-11T14:19:50.000Z</time>
      </trkpt>
      <trkpt lat="44.35116" lon="6.35439">
        <ele>1209.8000488281</ele>
        <time>2016-07-11T14:19:55.000Z</time>
      </trkpt>
      <trkpt lat="44.35115" lon="6.35426">
        <ele>1208.8000488281</ele>
        <time>2016-07-11T14:20:02.000Z</time>
      </trkpt>
      <trkpt lat="44.35111" lon="6.35422">
        <ele>1207.5999755859</ele>
        <time>2016-07-11T14:20:08.000Z</time>
      </trkpt>
      <trkpt lat="44.3511" lon="6.35423">
        <ele>1207.4000244141</ele>
        <time>2016-07-11T14:20:09.000Z</time>
      </trkpt>
      <trkpt lat="44.35109" lon="6.35431">
        <ele>1207.1999511719</ele>
        <time>2016-07-11T14:20:14.000Z</time>
      </trkpt>
      <trkpt lat="44.35106" lon="6.35427">
        <ele>1206.1999511719</ele>
        <time>2016-07-11T14:20:18.000Z</time>
      </trkpt>
      <trkpt lat="44.35104" lon="6.35415">
        <ele>1205</ele>
        <time>2016-07-11T14:20:26.000Z</time>
      </trkpt>
      <trkpt lat="44.35101" lon="6.35419">
        <ele>1204.1999511719</ele>
        <time>2016-07-11T14:20:31.000Z</time>
      </trkpt>
      <trkpt lat="44.35101" lon="6.3542">
        <ele>1204.4000244141</ele>
        <time>2016-07-11T14:20:32.000Z</time>
      </trkpt>
      <trkpt lat="44.35097" lon="6.35433">
        <ele>1204</ele>
        <time>2016-07-11T14:20:39.000Z</time>
      </trkpt>
      <trkpt lat="44.35091" lon="6.35444">
        <ele>1202.8000488281</ele>
        <time>2016-07-11T14:20:47.000Z</time>
      </trkpt>
      <trkpt lat="44.35086" lon="6.35442">
        <ele>1201.1999511719</ele>
        <time>2016-07-11T14:20:56.000Z</time>
      </trkpt>
      <trkpt lat="44.35088" lon="6.3543">
        <ele>1201</ele>
        <time>2016-07-11T14:21:03.000Z</time>
      </trkpt>
      <trkpt lat="44.35087" lon="6.35421">
        <ele>1200</ele>
        <time>2016-07-11T14:21:09.000Z</time>
      </trkpt>
      <trkpt lat="44.35086" lon="6.35419">
        <ele>1199.8000488281</ele>
        <time>2016-07-11T14:21:10.000Z</time>
      </trkpt>
      <trkpt lat="44.35078" lon="6.35415">
        <ele>1197.1999511719</ele>
        <time>2016-07-11T14:21:16.000Z</time>
      </trkpt>
      <trkpt lat="44.35071" lon="6.35418">
        <ele>1195.1999511719</ele>
        <time>2016-07-11T14:21:23.000Z</time>
      </trkpt>
      <trkpt lat="44.35063" lon="6.35428">
        <ele>1193.4000244141</ele>
        <time>2016-07-11T14:21:31.000Z</time>
      </trkpt>
      <trkpt lat="44.35058" lon="6.35439">
        <ele>1192.1999511719</ele>
        <time>2016-07-11T14:21:38.000Z</time>
      </trkpt>
      <trkpt lat="44.35056" lon="6.35444">
        <ele>1191.4000244141</ele>
        <time>2016-07-11T14:21:43.000Z</time>
      </trkpt>
      <trkpt lat="44.35055" lon="6.35462">
        <ele>1191.8000488281</ele>
        <time>2016-07-11T14:21:51.000Z</time>
      </trkpt>
      <trkpt lat="44.35054" lon="6.35475">
        <ele>1191.8000488281</ele>
        <time>2016-07-11T14:21:58.000Z</time>
      </trkpt>
      <trkpt lat="44.35051" lon="6.35493">
        <ele>1190.4000244141</ele>
        <time>2016-07-11T14:22:08.000Z</time>
      </trkpt>
      <trkpt lat="44.35048" lon="6.35511">
        <ele>1190.4000244141</ele>
        <time>2016-07-11T14:22:18.000Z</time>
      </trkpt>
      <trkpt lat="44.35046" lon="6.35525">
        <ele>1191.4000244141</ele>
        <time>2016-07-11T14:22:26.000Z</time>
      </trkpt>
      <trkpt lat="44.35041" lon="6.35537">
        <ele>1191.4000244141</ele>
        <time>2016-07-11T14:22:33.000Z</time>
      </trkpt>
      <trkpt lat="44.35039" lon="6.35546">
        <ele>1191.8000488281</ele>
        <time>2016-07-11T14:22:41.000Z</time>
      </trkpt>
      <trkpt lat="44.35037" lon="6.35545">
        <ele>1191.4000244141</ele>
        <time>2016-07-11T14:22:50.000Z</time>
      </trkpt>
      <trkpt lat="44.35037" lon="6.35543">
        <ele>1191.1999511719</ele>
        <time>2016-07-11T14:23:05.000Z</time>
      </trkpt>
      <trkpt lat="44.35035" lon="6.35543">
        <ele>1190.8000488281</ele>
        <time>2016-07-11T14:23:52.000Z</time>
      </trkpt>
      <trkpt lat="44.35034" lon="6.35543">
        <ele>1190.5999755859</ele>
        <time>2016-07-11T14:24:23.000Z</time>
      </trkpt>
      <trkpt lat="44.35034" lon="6.35542">
        <ele>1190.5999755859</ele>
        <time>2016-07-11T14:24:30.000Z</time>
      </trkpt>
      <trkpt lat="44.35034" lon="6.35541">
        <ele>1190.4000244141</ele>
        <time>2016-07-11T14:24:34.000Z</time>
      </trkpt>
      <trkpt lat="44.35033" lon="6.35543">
        <ele>1190.4000244141</ele>
        <time>2016-07-11T14:24:39.000Z</time>
      </trkpt>
      <trkpt lat="44.35033" lon="6.35544">
        <ele>1190.4000244141</ele>
        <time>2016-07-11T14:24:46.000Z</time>
      </trkpt>
      <trkpt lat="44.35031" lon="6.3554">
        <ele>1189.8000488281</ele>
        <time>2016-07-11T14:25:12.000Z</time>
      </trkpt>
      <trkpt lat="44.35033" lon="6.35541">
        <ele>1190.1999511719</ele>
        <time>2016-07-11T14:25:34.000Z</time>
      </trkpt>
      <trkpt lat="44.35033" lon="6.35544">
        <ele>1190.5999755859</ele>
        <time>2016-07-11T14:25:58.000Z</time>
      </trkpt>
      <trkpt lat="44.35033" lon="6.35541">
        <ele>1190.1999511719</ele>
        <time>2016-07-11T14:26:14.000Z</time>
      </trkpt>
      <trkpt lat="44.35032" lon="6.35543">
        <ele>1190.1999511719</ele>
        <time>2016-07-11T14:26:17.000Z</time>
      </trkpt>
      <trkpt lat="44.35026" lon="6.35547">
        <ele>1189</ele>
        <time>2016-07-11T14:26:24.000Z</time>
      </trkpt>
      <trkpt lat="44.35025" lon="6.35547">
        <ele>1188.8000488281</ele>
        <time>2016-07-11T14:26:25.000Z</time>
      </trkpt>
      <trkpt lat="44.35019" lon="6.35552">
        <ele>1187.8000488281</ele>
        <time>2016-07-11T14:26:30.000Z</time>
      </trkpt>
      <trkpt lat="44.35011" lon="6.35551">
        <ele>1185.4000244141</ele>
        <time>2016-07-11T14:26:36.000Z</time>
      </trkpt>
      <trkpt lat="44.34989" lon="6.35542">
        <ele>1178.1999511719</ele>
        <time>2016-07-11T14:26:59.000Z</time>
      </trkpt>
      <trkpt lat="44.34988" lon="6.35551">
        <ele>1178.5999755859</ele>
        <time>2016-07-11T14:27:04.000Z</time>
      </trkpt>
      <trkpt lat="44.34986" lon="6.35551">
        <ele>1178</ele>
        <time>2016-07-11T14:27:08.000Z</time>
      </trkpt>
      <trkpt lat="44.34986" lon="6.3555">
        <ele>1178</ele>
        <time>2016-07-11T14:27:10.000Z</time>
      </trkpt>
      <trkpt lat="44.34985" lon="6.35544">
        <ele>1177.4000244141</ele>
        <time>2016-07-11T14:27:14.000Z</time>
      </trkpt>
      <trkpt lat="44.34978" lon="6.35541">
        <ele>1175.1999511719</ele>
        <time>2016-07-11T14:27:20.000Z</time>
      </trkpt>
      <trkpt lat="44.34973" lon="6.35538">
        <ele>1173.4000244141</ele>
        <time>2016-07-11T14:27:27.000Z</time>
      </trkpt>
      <trkpt lat="44.34971" lon="6.3553">
        <ele>1172.4000244141</ele>
        <time>2016-07-11T14:27:34.000Z</time>
      </trkpt>
      <trkpt lat="44.34972" lon="6.35528">
        <ele>1172.4000244141</ele>
        <time>2016-07-11T14:27:35.000Z</time>
      </trkpt>
      <trkpt lat="44.34975" lon="6.35523">
        <ele>1173.1999511719</ele>
        <time>2016-07-11T14:27:39.000Z</time>
      </trkpt>
      <trkpt lat="44.34976" lon="6.35513">
        <ele>1172.4000244141</ele>
        <time>2016-07-11T14:27:45.000Z</time>
      </trkpt>
      <trkpt lat="44.34973" lon="6.35507">
        <ele>1171.1999511719</ele>
        <time>2016-07-11T14:27:50.000Z</time>
      </trkpt>
      <trkpt lat="44.34973" lon="6.35506">
        <ele>1171</ele>
        <time>2016-07-11T14:27:51.000Z</time>
      </trkpt>
      <trkpt lat="44.34973" lon="6.35504">
        <ele>1171</ele>
        <time>2016-07-11T14:27:52.000Z</time>
      </trkpt>
      <trkpt lat="44.34976" lon="6.35501">
        <ele>1171.5999755859</ele>
        <time>2016-07-11T14:27:55.000Z</time>
      </trkpt>
      <trkpt lat="44.34984" lon="6.355">
        <ele>1173.4000244141</ele>
        <time>2016-07-11T14:28:01.000Z</time>
      </trkpt>
      <trkpt lat="44.34983" lon="6.35499">
        <ele>1173.1999511719</ele>
        <time>2016-07-11T14:28:02.000Z</time>
      </trkpt>
      <trkpt lat="44.34983" lon="6.35498">
        <ele>1173</ele>
        <time>2016-07-11T14:28:03.000Z</time>
      </trkpt>
      <trkpt lat="44.34978" lon="6.35488">
        <ele>1170.5999755859</ele>
        <time>2016-07-11T14:28:09.000Z</time>
      </trkpt>
      <trkpt lat="44.34972" lon="6.35481">
        <ele>1168.4000244141</ele>
        <time>2016-07-11T14:28:15.000Z</time>
      </trkpt>
      <trkpt lat="44.34971" lon="6.3548">
        <ele>1168</ele>
        <time>2016-07-11T14:28:17.000Z</time>
      </trkpt>
      <trkpt lat="44.34971" lon="6.35469">
        <ele>1168</ele>
        <time>2016-07-11T14:28:23.000Z</time>
      </trkpt>
      <trkpt lat="44.34974" lon="6.35457">
        <ele>1168.5999755859</ele>
        <time>2016-07-11T14:28:29.000Z</time>
      </trkpt>
      <trkpt lat="44.34977" lon="6.35446">
        <ele>1169.1999511719</ele>
        <time>2016-07-11T14:28:35.000Z</time>
      </trkpt>
      <trkpt lat="44.3498" lon="6.35439">
        <ele>1170</ele>
        <time>2016-07-11T14:28:40.000Z</time>
      </trkpt>
      <trkpt lat="44.34981" lon="6.35432">
        <ele>1170.1999511719</ele>
        <time>2016-07-11T14:28:43.000Z</time>
      </trkpt>
      <trkpt lat="44.3498" lon="6.35431">
        <ele>1170</ele>
        <time>2016-07-11T14:28:45.000Z</time>
      </trkpt>
      <trkpt lat="44.34973" lon="6.35427">
        <ele>1168.1999511719</ele>
        <time>2016-07-11T14:28:51.000Z</time>
      </trkpt>
      <trkpt lat="44.34962" lon="6.35418">
        <ele>1165.1999511719</ele>
        <time>2016-07-11T14:29:02.000Z</time>
      </trkpt>
      <trkpt lat="44.34961" lon="6.35416">
        <ele>1164.8000488281</ele>
        <time>2016-07-11T14:29:04.000Z</time>
      </trkpt>
      <trkpt lat="44.34952" lon="6.35406">
        <ele>1162.4000244141</ele>
        <time>2016-07-11T14:29:12.000Z</time>
      </trkpt>
      <trkpt lat="44.34944" lon="6.35398">
        <ele>1160.5999755859</ele>
        <time>2016-07-11T14:29:20.000Z</time>
      </trkpt>
      <trkpt lat="44.34938" lon="6.3539">
        <ele>1159.4000244141</ele>
        <time>2016-07-11T14:29:27.000Z</time>
      </trkpt>
      <trkpt lat="44.34933" lon="6.35385">
        <ele>1158.5999755859</ele>
        <time>2016-07-11T14:29:32.000Z</time>
      </trkpt>
      <trkpt lat="44.34928" lon="6.3538">
        <ele>1158</ele>
        <time>2016-07-11T14:29:37.000Z</time>
      </trkpt>
      <trkpt lat="44.34925" lon="6.35377">
        <ele>1157.5999755859</ele>
        <time>2016-07-11T14:29:40.000Z</time>
      </trkpt>
      <trkpt lat="44.34917" lon="6.35369">
        <ele>1156.1999511719</ele>
        <time>2016-07-11T14:29:49.000Z</time>
      </trkpt>
      <trkpt lat="44.34916" lon="6.35369">
        <ele>1156.1999511719</ele>
        <time>2016-07-11T14:29:50.000Z</time>
      </trkpt>
      <trkpt lat="44.34909" lon="6.35362">
        <ele>1155</ele>
        <time>2016-07-11T14:29:57.000Z</time>
      </trkpt>
      <trkpt lat="44.34902" lon="6.35357">
        <ele>1154</ele>
        <time>2016-07-11T14:30:04.000Z</time>
      </trkpt>
      <trkpt lat="44.34895" lon="6.35356">
        <ele>1152.8000488281</ele>
        <time>2016-07-11T14:30:09.000Z</time>
      </trkpt>
      <trkpt lat="44.3489" lon="6.35355">
        <ele>1152</ele>
        <time>2016-07-11T14:30:14.000Z</time>
      </trkpt>
      <trkpt lat="44.34889" lon="6.35355">
        <ele>1151.8000488281</ele>
        <time>2016-07-11T14:30:16.000Z</time>
      </trkpt>
      <trkpt lat="44.34882" lon="6.35354">
        <ele>1150.8000488281</ele>
        <time>2016-07-11T14:30:21.000Z</time>
      </trkpt>
      <trkpt lat="44.34878" lon="6.35354">
        <ele>1150.1999511719</ele>
        <time>2016-07-11T14:30:26.000Z</time>
      </trkpt>
      <trkpt lat="44.34876" lon="6.35353">
        <ele>1149.8000488281</ele>
        <time>2016-07-11T14:30:27.000Z</time>
      </trkpt>
      <trkpt lat="44.34872" lon="6.35353">
        <ele>1149.1999511719</ele>
        <time>2016-07-11T14:30:32.000Z</time>
      </trkpt>
      <trkpt lat="44.34868" lon="6.3535">
        <ele>1148.5999755859</ele>
        <time>2016-07-11T14:30:36.000Z</time>
      </trkpt>
      <trkpt lat="44.34861" lon="6.35344">
        <ele>1147.8000488281</ele>
        <time>2016-07-11T14:30:42.000Z</time>
      </trkpt>
      <trkpt lat="44.34857" lon="6.35338">
        <ele>1147.5999755859</ele>
        <time>2016-07-11T14:30:47.000Z</time>
      </trkpt>
      <trkpt lat="44.34854" lon="6.35331">
        <ele>1147.4000244141</ele>
        <time>2016-07-11T14:30:52.000Z</time>
      </trkpt>
      <trkpt lat="44.3485" lon="6.35323">
        <ele>1147.1999511719</ele>
        <time>2016-07-11T14:30:56.000Z</time>
      </trkpt>
      <trkpt lat="44.34846" lon="6.35314">
        <ele>1146.8000488281</ele>
        <time>2016-07-11T14:31:03.000Z</time>
      </trkpt>
      <trkpt lat="44.34845" lon="6.35312">
        <ele>1146.8000488281</ele>
        <time>2016-07-11T14:31:04.000Z</time>
      </trkpt>
      <trkpt lat="44.34845" lon="6.35303">
        <ele>1146.4000244141</ele>
        <time>2016-07-11T14:31:08.000Z</time>
      </trkpt>
      <trkpt lat="44.34846" lon="6.35299">
        <ele>1146.4000244141</ele>
        <time>2016-07-11T14:31:11.000Z</time>
      </trkpt>
      <trkpt lat="44.34848" lon="6.35292">
        <ele>1146.1999511719</ele>
        <time>2016-07-11T14:31:14.000Z</time>
      </trkpt>
      <trkpt lat="44.34847" lon="6.35291">
        <ele>1146</ele>
        <time>2016-07-11T14:31:22.000Z</time>
      </trkpt>
      <trkpt lat="44.34846" lon="6.35292">
        <ele>1146</ele>
        <time>2016-07-11T14:31:26.000Z</time>
      </trkpt>
      <trkpt lat="44.34847" lon="6.35283">
        <ele>1145.5999755859</ele>
        <time>2016-07-11T14:31:32.000Z</time>
      </trkpt>
      <trkpt lat="44.34852" lon="6.35277">
        <ele>1145.1999511719</ele>
        <time>2016-07-11T14:31:37.000Z</time>
      </trkpt>
      <trkpt lat="44.34858" lon="6.35268">
        <ele>1145</ele>
        <time>2016-07-11T14:31:44.000Z</time>
      </trkpt>
      <trkpt lat="44.34867" lon="6.35255">
        <ele>1145</ele>
        <time>2016-07-11T14:31:52.000Z</time>
      </trkpt>
      <trkpt lat="44.34873" lon="6.35242">
        <ele>1145.8000488281</ele>
        <time>2016-07-11T14:32:00.000Z</time>
      </trkpt>
      <trkpt lat="44.3488" lon="6.35227">
        <ele>1145.1999511719</ele>
        <time>2016-07-11T14:32:08.000Z</time>
      </trkpt>
      <trkpt lat="44.34889" lon="6.35213">
        <ele>1145.8000488281</ele>
        <time>2016-07-11T14:32:17.000Z</time>
      </trkpt>
      <trkpt lat="44.34901" lon="6.35194">
        <ele>1146.4000244141</ele>
        <time>2016-07-11T14:32:27.000Z</time>
      </trkpt>
      <trkpt lat="44.34912" lon="6.35174">
        <ele>1145.5999755859</ele>
        <time>2016-07-11T14:32:38.000Z</time>
      </trkpt>
      <trkpt lat="44.34922" lon="6.3516">
        <ele>1144.5999755859</ele>
        <time>2016-07-11T14:32:47.000Z</time>
      </trkpt>
      <trkpt lat="44.34928" lon="6.35143">
        <ele>1143.4000244141</ele>
        <time>2016-07-11T14:32:55.000Z</time>
      </trkpt>
      <trkpt lat="44.34935" lon="6.35134">
        <ele>1143.8000488281</ele>
        <time>2016-07-11T14:33:01.000Z</time>
      </trkpt>
      <trkpt lat="44.34937" lon="6.35128">
        <ele>1143.4000244141</ele>
        <time>2016-07-11T14:33:05.000Z</time>
      </trkpt>
      <trkpt lat="44.34946" lon="6.35119">
        <ele>1142.8000488281</ele>
        <time>2016-07-11T14:33:12.000Z</time>
      </trkpt>
      <trkpt lat="44.34952" lon="6.35107">
        <ele>1142.4000244141</ele>
        <time>2016-07-11T14:33:17.000Z</time>
      </trkpt>
      <trkpt lat="44.3496" lon="6.35088">
        <ele>1141.5999755859</ele>
        <time>2016-07-11T14:33:27.000Z</time>
      </trkpt>
      <trkpt lat="44.34963" lon="6.3508">
        <ele>1141.1999511719</ele>
        <time>2016-07-11T14:33:32.000Z</time>
      </trkpt>
      <trkpt lat="44.34961" lon="6.35067">
        <ele>1139.5999755859</ele>
        <time>2016-07-11T14:33:37.000Z</time>
      </trkpt>
      <trkpt lat="44.34952" lon="6.35052">
        <ele>1139</ele>
        <time>2016-07-11T14:33:46.000Z</time>
      </trkpt>
      <trkpt lat="44.34945" lon="6.35041">
        <ele>1138.5999755859</ele>
        <time>2016-07-11T14:33:52.000Z</time>
      </trkpt>
      <trkpt lat="44.34937" lon="6.35028">
        <ele>1138.4000244141</ele>
        <time>2016-07-11T14:34:00.000Z</time>
      </trkpt>
      <trkpt lat="44.3493" lon="6.35024">
        <ele>1138.4000244141</ele>
        <time>2016-07-11T14:34:05.000Z</time>
      </trkpt>
      <trkpt lat="44.3493" lon="6.3502">
        <ele>1138.1999511719</ele>
        <time>2016-07-11T14:34:06.000Z</time>
      </trkpt>
      <trkpt lat="44.34923" lon="6.35006">
        <ele>1138</ele>
        <time>2016-07-11T14:34:14.000Z</time>
      </trkpt>
      <trkpt lat="44.34916" lon="6.34992">
        <ele>1137.8000488281</ele>
        <time>2016-07-11T14:34:20.000Z</time>
      </trkpt>
      <trkpt lat="44.3491" lon="6.34979">
        <ele>1137.5999755859</ele>
        <time>2016-07-11T14:34:27.000Z</time>
      </trkpt>
      <trkpt lat="44.34904" lon="6.34961">
        <ele>1137.1999511719</ele>
        <time>2016-07-11T14:34:37.000Z</time>
      </trkpt>
      <trkpt lat="44.34897" lon="6.34945">
        <ele>1137</ele>
        <time>2016-07-11T14:34:46.000Z</time>
      </trkpt>
      <trkpt lat="44.3489" lon="6.34931">
        <ele>1136.8000488281</ele>
        <time>2016-07-11T14:34:54.000Z</time>
      </trkpt>
      <trkpt lat="44.34886" lon="6.34923">
        <ele>1136.5999755859</ele>
        <time>2016-07-11T14:34:59.000Z</time>
      </trkpt>
      <trkpt lat="44.34876" lon="6.34906">
        <ele>1136.1999511719</ele>
        <time>2016-07-11T14:35:08.000Z</time>
      </trkpt>
      <trkpt lat="44.34866" lon="6.34893">
        <ele>1136</ele>
        <time>2016-07-11T14:35:17.000Z</time>
      </trkpt>
      <trkpt lat="44.34865" lon="6.34893">
        <ele>1135.8000488281</ele>
        <time>2016-07-11T14:35:23.000Z</time>
      </trkpt>
      <trkpt lat="44.34865" lon="6.34891">
        <ele>1135.8000488281</ele>
        <time>2016-07-11T14:35:34.000Z</time>
      </trkpt>
      <trkpt lat="44.34865" lon="6.3489">
        <ele>1135.8000488281</ele>
        <time>2016-07-11T14:35:40.000Z</time>
      </trkpt>
      <trkpt lat="44.34864" lon="6.34888">
        <ele>1135.8000488281</ele>
        <time>2016-07-11T14:35:47.000Z</time>
      </trkpt>
      <trkpt lat="44.34859" lon="6.34882">
        <ele>1135.5999755859</ele>
        <time>2016-07-11T14:35:52.000Z</time>
      </trkpt>
      <trkpt lat="44.34853" lon="6.34875">
        <ele>1135.4000244141</ele>
        <time>2016-07-11T14:36:01.000Z</time>
      </trkpt>
      <trkpt lat="44.34853" lon="6.34874">
        <ele>1135.4000244141</ele>
        <time>2016-07-11T14:36:02.000Z</time>
      </trkpt>
      <trkpt lat="44.34853" lon="6.34875">
        <ele>1135.4000244141</ele>
        <time>2016-07-11T14:36:14.000Z</time>
      </trkpt>
      <trkpt lat="44.3485" lon="6.34872">
        <ele>1135.4000244141</ele>
        <time>2016-07-11T14:36:19.000Z</time>
      </trkpt>
      <trkpt lat="44.34843" lon="6.34866">
        <ele>1135.1999511719</ele>
        <time>2016-07-11T14:36:25.000Z</time>
      </trkpt>
      <trkpt lat="44.34835" lon="6.34856">
        <ele>1135</ele>
        <time>2016-07-11T14:36:32.000Z</time>
      </trkpt>
      <trkpt lat="44.34825" lon="6.34844">
        <ele>1134.8000488281</ele>
        <time>2016-07-11T14:36:42.000Z</time>
      </trkpt>
      <trkpt lat="44.34819" lon="6.34835">
        <ele>1134.4000244141</ele>
        <time>2016-07-11T14:36:48.000Z</time>
      </trkpt>
      <trkpt lat="44.34814" lon="6.34828">
        <ele>1134.4000244141</ele>
        <time>2016-07-11T14:36:54.000Z</time>
      </trkpt>
      <trkpt lat="44.34808" lon="6.3482">
        <ele>1134.1999511719</ele>
        <time>2016-07-11T14:37:01.000Z</time>
      </trkpt>
      <trkpt lat="44.34802" lon="6.34811">
        <ele>1134</ele>
        <time>2016-07-11T14:37:07.000Z</time>
      </trkpt>
      <trkpt lat="44.34801" lon="6.34808">
        <ele>1133.8000488281</ele>
        <time>2016-07-11T14:37:12.000Z</time>
      </trkpt>
      <trkpt lat="44.34796" lon="6.34803">
        <ele>1133.8000488281</ele>
        <time>2016-07-11T14:37:17.000Z</time>
      </trkpt>
      <trkpt lat="44.34792" lon="6.34798">
        <ele>1133.5999755859</ele>
        <time>2016-07-11T14:37:22.000Z</time>
      </trkpt>
      <trkpt lat="44.34788" lon="6.34792">
        <ele>1133.4000244141</ele>
        <time>2016-07-11T14:37:26.000Z</time>
      </trkpt>
      <trkpt lat="44.34782" lon="6.34782">
        <ele>1133.1999511719</ele>
        <time>2016-07-11T14:37:34.000Z</time>
      </trkpt>
      <trkpt lat="44.34774" lon="6.34769">
        <ele>1133</ele>
        <time>2016-07-11T14:37:43.000Z</time>
      </trkpt>
      <trkpt lat="44.34774" lon="6.34768">
        <ele>1132.8000488281</ele>
        <time>2016-07-11T14:37:44.000Z</time>
      </trkpt>
      <trkpt lat="44.34771" lon="6.34762">
        <ele>1132.8000488281</ele>
        <time>2016-07-11T14:37:47.000Z</time>
      </trkpt>
      <trkpt lat="44.34769" lon="6.34758">
        <ele>1132.5999755859</ele>
        <time>2016-07-11T14:37:51.000Z</time>
      </trkpt>
      <trkpt lat="44.34767" lon="6.34754">
        <ele>1132.5999755859</ele>
        <time>2016-07-11T14:37:59.000Z</time>
      </trkpt>
      <trkpt lat="44.34764" lon="6.34745">
        <ele>1132.4000244141</ele>
        <time>2016-07-11T14:38:04.000Z</time>
      </trkpt>
      <trkpt lat="44.34763" lon="6.34742">
        <ele>1132.1999511719</ele>
        <time>2016-07-11T14:38:06.000Z</time>
      </trkpt>
      <trkpt lat="44.3476" lon="6.34728">
        <ele>1132</ele>
        <time>2016-07-11T14:38:14.000Z</time>
      </trkpt>
      <trkpt lat="44.34759" lon="6.3472">
        <ele>1132</ele>
        <time>2016-07-11T14:38:18.000Z</time>
      </trkpt>
      <trkpt lat="44.34758" lon="6.3471">
        <ele>1132</ele>
        <time>2016-07-11T14:38:23.000Z</time>
      </trkpt>
      <trkpt lat="44.34758" lon="6.34698">
        <ele>1131.8000488281</ele>
        <time>2016-07-11T14:38:30.000Z</time>
      </trkpt>
      <trkpt lat="44.34759" lon="6.34691">
        <ele>1131.5999755859</ele>
        <time>2016-07-11T14:38:34.000Z</time>
      </trkpt>
      <trkpt lat="44.34759" lon="6.34686">
        <ele>1131.4000244141</ele>
        <time>2016-07-11T14:38:40.000Z</time>
      </trkpt>
      <trkpt lat="44.3476" lon="6.34682">
        <ele>1131.4000244141</ele>
        <time>2016-07-11T14:38:42.000Z</time>
      </trkpt>
    </trkseg>
  </trk>
</gpx>